<?xml version="1.0" encoding="UTF-8" standalone="no" ?>
<gpx xmlns="http://www.topografix.com/GPX/1/1" xmlns:xsi="http://www.w3.org/2001/XMLSchema-instance" xsi:schemaLocation="http://www.topografix.com/GPX/1/1 http://www.topografix.com/GPX/1/1/gpx.xsd" version="1.1" creator="VisuGPX - https://www.visugpx.com">
  <metadata>
    <name>Découverte de la presqu\\\\\\\'île du Croisic et des marais salants de Guérande</name>
    <desc><![CDATA[Boucle très agréable à faire tranquillement sur une journée. Passage par Pornichet, La Baule, Le pouliguen, Batz sur mer, Le croisic, traversée du marais salant et montée (c\\\\\\\'est la seule) vers Guérande puis retour par la piste Vélocéan vers Escoublac et Pornichet. ]]></desc>
  </metadata>
  <trk>
    <name><![CDATA[Boucle Pornichet 24-04-2011]]></name>
    <desc><![CDATA[]]></desc>
    <trkseg>
      <trkpt lat="47.25022" lon="-2.30873">
        <ele>74</ele>
        <time>2011-04-24T08:12:12Z</time>
      </trkpt>
      <trkpt lat="47.25026" lon="-2.30871">
        <ele>80</ele>
        <time>2011-04-24T08:14:17Z</time>
      </trkpt>
      <trkpt lat="47.25022" lon="-2.30866">
        <ele>80</ele>
        <time>2011-04-24T08:14:19Z</time>
      </trkpt>
      <trkpt lat="47.25026" lon="-2.30872">
        <ele>82</ele>
        <time>2011-04-24T08:14:39Z</time>
      </trkpt>
      <trkpt lat="47.25026" lon="-2.30872">
        <ele>82</ele>
        <time>2011-04-24T08:14:39Z</time>
      </trkpt>
      <trkpt lat="47.25026" lon="-2.30872">
        <ele>82</ele>
        <time>2011-04-24T08:15:18Z</time>
      </trkpt>
      <trkpt lat="47.25023" lon="-2.30865">
        <ele>83</ele>
        <time>2011-04-24T08:15:23Z</time>
      </trkpt>
      <trkpt lat="47.25017" lon="-2.30863">
        <ele>84</ele>
        <time>2011-04-24T08:16:46Z</time>
      </trkpt>
      <trkpt lat="47.25013" lon="-2.30866">
        <ele>84</ele>
        <time>2011-04-24T08:16:49Z</time>
      </trkpt>
      <trkpt lat="47.25007" lon="-2.3087">
        <ele>84</ele>
        <time>2011-04-24T08:16:52Z</time>
      </trkpt>
      <trkpt lat="47.25002" lon="-2.30873">
        <ele>84</ele>
        <time>2011-04-24T08:16:55Z</time>
      </trkpt>
      <trkpt lat="47.24998" lon="-2.30876">
        <ele>83</ele>
        <time>2011-04-24T08:16:57Z</time>
      </trkpt>
      <trkpt lat="47.24992" lon="-2.3088">
        <ele>84</ele>
        <time>2011-04-24T08:17:00Z</time>
      </trkpt>
      <trkpt lat="47.24986" lon="-2.30881">
        <ele>84</ele>
        <time>2011-04-24T08:17:02Z</time>
      </trkpt>
      <trkpt lat="47.2498" lon="-2.30882">
        <ele>84</ele>
        <time>2011-04-24T08:17:04Z</time>
      </trkpt>
      <trkpt lat="47.24974" lon="-2.30886">
        <ele>83</ele>
        <time>2011-04-24T08:17:06Z</time>
      </trkpt>
      <trkpt lat="47.24969" lon="-2.30889">
        <ele>84</ele>
        <time>2011-04-24T08:17:08Z</time>
      </trkpt>
      <trkpt lat="47.24964" lon="-2.3089">
        <ele>84</ele>
        <time>2011-04-24T08:17:10Z</time>
      </trkpt>
      <trkpt lat="47.2496" lon="-2.30889">
        <ele>84</ele>
        <time>2011-04-24T08:17:12Z</time>
      </trkpt>
      <trkpt lat="47.24955" lon="-2.30884">
        <ele>84</ele>
        <time>2011-04-24T08:17:14Z</time>
      </trkpt>
      <trkpt lat="47.24949" lon="-2.30882">
        <ele>85</ele>
        <time>2011-04-24T08:17:16Z</time>
      </trkpt>
      <trkpt lat="47.24943" lon="-2.30883">
        <ele>86</ele>
        <time>2011-04-24T08:17:18Z</time>
      </trkpt>
      <trkpt lat="47.24938" lon="-2.30883">
        <ele>86</ele>
        <time>2011-04-24T08:17:20Z</time>
      </trkpt>
      <trkpt lat="47.24933" lon="-2.30884">
        <ele>85</ele>
        <time>2011-04-24T08:17:22Z</time>
      </trkpt>
      <trkpt lat="47.24927" lon="-2.30887">
        <ele>85</ele>
        <time>2011-04-24T08:17:24Z</time>
      </trkpt>
      <trkpt lat="47.24922" lon="-2.30887">
        <ele>86</ele>
        <time>2011-04-24T08:17:26Z</time>
      </trkpt>
      <trkpt lat="47.24916" lon="-2.30888">
        <ele>86</ele>
        <time>2011-04-24T08:17:28Z</time>
      </trkpt>
      <trkpt lat="47.24911" lon="-2.30889">
        <ele>86</ele>
        <time>2011-04-24T08:17:30Z</time>
      </trkpt>
      <trkpt lat="47.24905" lon="-2.30892">
        <ele>85</ele>
        <time>2011-04-24T08:17:32Z</time>
      </trkpt>
      <trkpt lat="47.249" lon="-2.30895">
        <ele>85</ele>
        <time>2011-04-24T08:17:34Z</time>
      </trkpt>
      <trkpt lat="47.24894" lon="-2.30897">
        <ele>85</ele>
        <time>2011-04-24T08:17:36Z</time>
      </trkpt>
      <trkpt lat="47.24888" lon="-2.30901">
        <ele>85</ele>
        <time>2011-04-24T08:17:38Z</time>
      </trkpt>
      <trkpt lat="47.24883" lon="-2.30905">
        <ele>84</ele>
        <time>2011-04-24T08:17:40Z</time>
      </trkpt>
      <trkpt lat="47.24878" lon="-2.3091">
        <ele>84</ele>
        <time>2011-04-24T08:17:42Z</time>
      </trkpt>
      <trkpt lat="47.24872" lon="-2.30915">
        <ele>84</ele>
        <time>2011-04-24T08:17:44Z</time>
      </trkpt>
      <trkpt lat="47.24867" lon="-2.3092">
        <ele>84</ele>
        <time>2011-04-24T08:17:46Z</time>
      </trkpt>
      <trkpt lat="47.24863" lon="-2.30927">
        <ele>85</ele>
        <time>2011-04-24T08:17:48Z</time>
      </trkpt>
      <trkpt lat="47.24856" lon="-2.30934">
        <ele>85</ele>
        <time>2011-04-24T08:17:50Z</time>
      </trkpt>
      <trkpt lat="47.2485" lon="-2.30941">
        <ele>85</ele>
        <time>2011-04-24T08:17:52Z</time>
      </trkpt>
      <trkpt lat="47.24844" lon="-2.30948">
        <ele>84</ele>
        <time>2011-04-24T08:17:54Z</time>
      </trkpt>
      <trkpt lat="47.24837" lon="-2.30953">
        <ele>84</ele>
        <time>2011-04-24T08:17:56Z</time>
      </trkpt>
      <trkpt lat="47.24832" lon="-2.30957">
        <ele>83</ele>
        <time>2011-04-24T08:17:57Z</time>
      </trkpt>
      <trkpt lat="47.24828" lon="-2.3096">
        <ele>83</ele>
        <time>2011-04-24T08:17:58Z</time>
      </trkpt>
      <trkpt lat="47.24824" lon="-2.30963">
        <ele>82</ele>
        <time>2011-04-24T08:17:59Z</time>
      </trkpt>
      <trkpt lat="47.24819" lon="-2.30966">
        <ele>82</ele>
        <time>2011-04-24T08:18:00Z</time>
      </trkpt>
      <trkpt lat="47.24814" lon="-2.30971">
        <ele>83</ele>
        <time>2011-04-24T08:18:01Z</time>
      </trkpt>
      <trkpt lat="47.24809" lon="-2.30974">
        <ele>84</ele>
        <time>2011-04-24T08:18:02Z</time>
      </trkpt>
      <trkpt lat="47.24803" lon="-2.30978">
        <ele>83</ele>
        <time>2011-04-24T08:18:03Z</time>
      </trkpt>
      <trkpt lat="47.24797" lon="-2.30981">
        <ele>83</ele>
        <time>2011-04-24T08:18:04Z</time>
      </trkpt>
      <trkpt lat="47.2479" lon="-2.30983">
        <ele>83</ele>
        <time>2011-04-24T08:18:05Z</time>
      </trkpt>
      <trkpt lat="47.24783" lon="-2.30987">
        <ele>83</ele>
        <time>2011-04-24T08:18:06Z</time>
      </trkpt>
      <trkpt lat="47.24776" lon="-2.30991">
        <ele>83</ele>
        <time>2011-04-24T08:18:07Z</time>
      </trkpt>
      <trkpt lat="47.24769" lon="-2.30994">
        <ele>82</ele>
        <time>2011-04-24T08:18:08Z</time>
      </trkpt>
      <trkpt lat="47.24763" lon="-2.30998">
        <ele>82</ele>
        <time>2011-04-24T08:18:09Z</time>
      </trkpt>
      <trkpt lat="47.24754" lon="-2.31001">
        <ele>82</ele>
        <time>2011-04-24T08:18:10Z</time>
      </trkpt>
      <trkpt lat="47.24746" lon="-2.31006">
        <ele>82</ele>
        <time>2011-04-24T08:18:11Z</time>
      </trkpt>
      <trkpt lat="47.24738" lon="-2.31012">
        <ele>81</ele>
        <time>2011-04-24T08:18:12Z</time>
      </trkpt>
      <trkpt lat="47.24732" lon="-2.31019">
        <ele>81</ele>
        <time>2011-04-24T08:18:13Z</time>
      </trkpt>
      <trkpt lat="47.24725" lon="-2.31027">
        <ele>81</ele>
        <time>2011-04-24T08:18:14Z</time>
      </trkpt>
      <trkpt lat="47.24719" lon="-2.31035">
        <ele>81</ele>
        <time>2011-04-24T08:18:15Z</time>
      </trkpt>
      <trkpt lat="47.24713" lon="-2.31044">
        <ele>82</ele>
        <time>2011-04-24T08:18:16Z</time>
      </trkpt>
      <trkpt lat="47.24707" lon="-2.31052">
        <ele>82</ele>
        <time>2011-04-24T08:18:17Z</time>
      </trkpt>
      <trkpt lat="47.24702" lon="-2.31062">
        <ele>81</ele>
        <time>2011-04-24T08:18:18Z</time>
      </trkpt>
      <trkpt lat="47.24698" lon="-2.31072">
        <ele>81</ele>
        <time>2011-04-24T08:18:19Z</time>
      </trkpt>
      <trkpt lat="47.24694" lon="-2.31081">
        <ele>82</ele>
        <time>2011-04-24T08:18:20Z</time>
      </trkpt>
      <trkpt lat="47.24689" lon="-2.31091">
        <ele>82</ele>
        <time>2011-04-24T08:18:21Z</time>
      </trkpt>
      <trkpt lat="47.24685" lon="-2.31098">
        <ele>82</ele>
        <time>2011-04-24T08:18:22Z</time>
      </trkpt>
      <trkpt lat="47.24681" lon="-2.31107">
        <ele>81</ele>
        <time>2011-04-24T08:18:23Z</time>
      </trkpt>
      <trkpt lat="47.24677" lon="-2.31115">
        <ele>81</ele>
        <time>2011-04-24T08:18:24Z</time>
      </trkpt>
      <trkpt lat="47.24673" lon="-2.31122">
        <ele>81</ele>
        <time>2011-04-24T08:18:25Z</time>
      </trkpt>
      <trkpt lat="47.24669" lon="-2.31129">
        <ele>81</ele>
        <time>2011-04-24T08:18:26Z</time>
      </trkpt>
      <trkpt lat="47.24665" lon="-2.31137">
        <ele>80</ele>
        <time>2011-04-24T08:18:27Z</time>
      </trkpt>
      <trkpt lat="47.2466" lon="-2.31143">
        <ele>80</ele>
        <time>2011-04-24T08:18:28Z</time>
      </trkpt>
      <trkpt lat="47.24656" lon="-2.3115">
        <ele>80</ele>
        <time>2011-04-24T08:18:29Z</time>
      </trkpt>
      <trkpt lat="47.24652" lon="-2.31156">
        <ele>81</ele>
        <time>2011-04-24T08:18:30Z</time>
      </trkpt>
      <trkpt lat="47.24648" lon="-2.31162">
        <ele>81</ele>
        <time>2011-04-24T08:18:31Z</time>
      </trkpt>
      <trkpt lat="47.24644" lon="-2.31167">
        <ele>81</ele>
        <time>2011-04-24T08:18:32Z</time>
      </trkpt>
      <trkpt lat="47.24638" lon="-2.31175">
        <ele>82</ele>
        <time>2011-04-24T08:18:34Z</time>
      </trkpt>
      <trkpt lat="47.24633" lon="-2.31178">
        <ele>82</ele>
        <time>2011-04-24T08:18:35Z</time>
      </trkpt>
      <trkpt lat="47.24629" lon="-2.31184">
        <ele>82</ele>
        <time>2011-04-24T08:18:36Z</time>
      </trkpt>
      <trkpt lat="47.24625" lon="-2.3119">
        <ele>81</ele>
        <time>2011-04-24T08:18:37Z</time>
      </trkpt>
      <trkpt lat="47.2462" lon="-2.31196">
        <ele>81</ele>
        <time>2011-04-24T08:18:38Z</time>
      </trkpt>
      <trkpt lat="47.24616" lon="-2.31201">
        <ele>81</ele>
        <time>2011-04-24T08:18:39Z</time>
      </trkpt>
      <trkpt lat="47.24611" lon="-2.31207">
        <ele>81</ele>
        <time>2011-04-24T08:18:40Z</time>
      </trkpt>
      <trkpt lat="47.24607" lon="-2.31211">
        <ele>81</ele>
        <time>2011-04-24T08:18:41Z</time>
      </trkpt>
      <trkpt lat="47.24603" lon="-2.31215">
        <ele>81</ele>
        <time>2011-04-24T08:18:42Z</time>
      </trkpt>
      <trkpt lat="47.24599" lon="-2.31219">
        <ele>81</ele>
        <time>2011-04-24T08:18:43Z</time>
      </trkpt>
      <trkpt lat="47.24595" lon="-2.31222">
        <ele>81</ele>
        <time>2011-04-24T08:18:44Z</time>
      </trkpt>
      <trkpt lat="47.24589" lon="-2.31229">
        <ele>81</ele>
        <time>2011-04-24T08:18:46Z</time>
      </trkpt>
      <trkpt lat="47.24581" lon="-2.31236">
        <ele>81</ele>
        <time>2011-04-24T08:18:48Z</time>
      </trkpt>
      <trkpt lat="47.24576" lon="-2.31241">
        <ele>82</ele>
        <time>2011-04-24T08:18:49Z</time>
      </trkpt>
      <trkpt lat="47.24571" lon="-2.31245">
        <ele>82</ele>
        <time>2011-04-24T08:18:50Z</time>
      </trkpt>
      <trkpt lat="47.24566" lon="-2.3125">
        <ele>81</ele>
        <time>2011-04-24T08:18:51Z</time>
      </trkpt>
      <trkpt lat="47.24563" lon="-2.31256">
        <ele>82</ele>
        <time>2011-04-24T08:18:52Z</time>
      </trkpt>
      <trkpt lat="47.24559" lon="-2.3126">
        <ele>83</ele>
        <time>2011-04-24T08:18:53Z</time>
      </trkpt>
      <trkpt lat="47.24556" lon="-2.31264">
        <ele>83</ele>
        <time>2011-04-24T08:18:54Z</time>
      </trkpt>
      <trkpt lat="47.24551" lon="-2.31269">
        <ele>83</ele>
        <time>2011-04-24T08:18:55Z</time>
      </trkpt>
      <trkpt lat="47.24547" lon="-2.31272">
        <ele>83</ele>
        <time>2011-04-24T08:18:56Z</time>
      </trkpt>
      <trkpt lat="47.24539" lon="-2.3128">
        <ele>82</ele>
        <time>2011-04-24T08:18:58Z</time>
      </trkpt>
      <trkpt lat="47.24532" lon="-2.31285">
        <ele>81</ele>
        <time>2011-04-24T08:18:59Z</time>
      </trkpt>
      <trkpt lat="47.24527" lon="-2.3129">
        <ele>81</ele>
        <time>2011-04-24T08:19:00Z</time>
      </trkpt>
      <trkpt lat="47.2452" lon="-2.31295">
        <ele>81</ele>
        <time>2011-04-24T08:19:01Z</time>
      </trkpt>
      <trkpt lat="47.24514" lon="-2.313">
        <ele>82</ele>
        <time>2011-04-24T08:19:02Z</time>
      </trkpt>
      <trkpt lat="47.24507" lon="-2.31306">
        <ele>82</ele>
        <time>2011-04-24T08:19:03Z</time>
      </trkpt>
      <trkpt lat="47.245" lon="-2.31312">
        <ele>81</ele>
        <time>2011-04-24T08:19:04Z</time>
      </trkpt>
      <trkpt lat="47.24491" lon="-2.3132">
        <ele>78</ele>
        <time>2011-04-24T08:19:05Z</time>
      </trkpt>
      <trkpt lat="47.24484" lon="-2.31326">
        <ele>77</ele>
        <time>2011-04-24T08:19:06Z</time>
      </trkpt>
      <trkpt lat="47.24477" lon="-2.31334">
        <ele>76</ele>
        <time>2011-04-24T08:19:07Z</time>
      </trkpt>
      <trkpt lat="47.24471" lon="-2.3134">
        <ele>75</ele>
        <time>2011-04-24T08:19:08Z</time>
      </trkpt>
      <trkpt lat="47.24464" lon="-2.31346">
        <ele>75</ele>
        <time>2011-04-24T08:19:09Z</time>
      </trkpt>
      <trkpt lat="47.24455" lon="-2.31354">
        <ele>75</ele>
        <time>2011-04-24T08:19:10Z</time>
      </trkpt>
      <trkpt lat="47.24449" lon="-2.31361">
        <ele>75</ele>
        <time>2011-04-24T08:19:11Z</time>
      </trkpt>
      <trkpt lat="47.24443" lon="-2.31368">
        <ele>75</ele>
        <time>2011-04-24T08:19:12Z</time>
      </trkpt>
      <trkpt lat="47.24437" lon="-2.31378">
        <ele>75</ele>
        <time>2011-04-24T08:19:13Z</time>
      </trkpt>
      <trkpt lat="47.24431" lon="-2.31386">
        <ele>75</ele>
        <time>2011-04-24T08:19:14Z</time>
      </trkpt>
      <trkpt lat="47.24422" lon="-2.31395">
        <ele>75</ele>
        <time>2011-04-24T08:19:15Z</time>
      </trkpt>
      <trkpt lat="47.24417" lon="-2.31404">
        <ele>76</ele>
        <time>2011-04-24T08:19:17Z</time>
      </trkpt>
      <trkpt lat="47.24412" lon="-2.31411">
        <ele>76</ele>
        <time>2011-04-24T08:19:18Z</time>
      </trkpt>
      <trkpt lat="47.24406" lon="-2.31417">
        <ele>76</ele>
        <time>2011-04-24T08:19:19Z</time>
      </trkpt>
      <trkpt lat="47.24401" lon="-2.31424">
        <ele>77</ele>
        <time>2011-04-24T08:19:20Z</time>
      </trkpt>
      <trkpt lat="47.244" lon="-2.3144">
        <ele>77</ele>
        <time>2011-04-24T08:19:21Z</time>
      </trkpt>
      <trkpt lat="47.24403" lon="-2.31428">
        <ele>77</ele>
        <time>2011-04-24T08:19:22Z</time>
      </trkpt>
      <trkpt lat="47.24398" lon="-2.31425">
        <ele>74</ele>
        <time>2011-04-24T08:19:45Z</time>
      </trkpt>
      <trkpt lat="47.24397" lon="-2.31433">
        <ele>73</ele>
        <time>2011-04-24T08:19:53Z</time>
      </trkpt>
      <trkpt lat="47.24396" lon="-2.31442">
        <ele>72</ele>
        <time>2011-04-24T08:19:56Z</time>
      </trkpt>
      <trkpt lat="47.24397" lon="-2.31452">
        <ele>71</ele>
        <time>2011-04-24T08:19:58Z</time>
      </trkpt>
      <trkpt lat="47.24398" lon="-2.31458">
        <ele>70</ele>
        <time>2011-04-24T08:20:00Z</time>
      </trkpt>
      <trkpt lat="47.24398" lon="-2.31466">
        <ele>71</ele>
        <time>2011-04-24T08:20:02Z</time>
      </trkpt>
      <trkpt lat="47.244" lon="-2.31475">
        <ele>71</ele>
        <time>2011-04-24T08:20:04Z</time>
      </trkpt>
      <trkpt lat="47.24401" lon="-2.31481">
        <ele>71</ele>
        <time>2011-04-24T08:20:06Z</time>
      </trkpt>
      <trkpt lat="47.244" lon="-2.3149">
        <ele>73</ele>
        <time>2011-04-24T08:20:08Z</time>
      </trkpt>
      <trkpt lat="47.24401" lon="-2.31498">
        <ele>75</ele>
        <time>2011-04-24T08:20:10Z</time>
      </trkpt>
      <trkpt lat="47.24402" lon="-2.31505">
        <ele>75</ele>
        <time>2011-04-24T08:20:12Z</time>
      </trkpt>
      <trkpt lat="47.24402" lon="-2.31512">
        <ele>77</ele>
        <time>2011-04-24T08:20:14Z</time>
      </trkpt>
      <trkpt lat="47.244" lon="-2.31523">
        <ele>78</ele>
        <time>2011-04-24T08:20:16Z</time>
      </trkpt>
      <trkpt lat="47.244" lon="-2.31532">
        <ele>78</ele>
        <time>2011-04-24T08:20:18Z</time>
      </trkpt>
      <trkpt lat="47.244" lon="-2.3154">
        <ele>79</ele>
        <time>2011-04-24T08:20:20Z</time>
      </trkpt>
      <trkpt lat="47.24398" lon="-2.3155">
        <ele>79</ele>
        <time>2011-04-24T08:20:22Z</time>
      </trkpt>
      <trkpt lat="47.24402" lon="-2.31558">
        <ele>79</ele>
        <time>2011-04-24T08:20:24Z</time>
      </trkpt>
      <trkpt lat="47.24405" lon="-2.31567">
        <ele>78</ele>
        <time>2011-04-24T08:20:27Z</time>
      </trkpt>
      <trkpt lat="47.24408" lon="-2.31577">
        <ele>79</ele>
        <time>2011-04-24T08:20:29Z</time>
      </trkpt>
      <trkpt lat="47.2441" lon="-2.31586">
        <ele>79</ele>
        <time>2011-04-24T08:20:31Z</time>
      </trkpt>
      <trkpt lat="47.24413" lon="-2.31595">
        <ele>80</ele>
        <time>2011-04-24T08:20:33Z</time>
      </trkpt>
      <trkpt lat="47.24417" lon="-2.31604">
        <ele>79</ele>
        <time>2011-04-24T08:20:35Z</time>
      </trkpt>
      <trkpt lat="47.2442" lon="-2.3161">
        <ele>79</ele>
        <time>2011-04-24T08:20:37Z</time>
      </trkpt>
      <trkpt lat="47.24424" lon="-2.31621">
        <ele>82</ele>
        <time>2011-04-24T08:20:40Z</time>
      </trkpt>
      <trkpt lat="47.24429" lon="-2.31621">
        <ele>80</ele>
        <time>2011-04-24T08:20:41Z</time>
      </trkpt>
      <trkpt lat="47.24431" lon="-2.31632">
        <ele>74</ele>
        <time>2011-04-24T08:20:43Z</time>
      </trkpt>
      <trkpt lat="47.24435" lon="-2.31639">
        <ele>71</ele>
        <time>2011-04-24T08:20:45Z</time>
      </trkpt>
      <trkpt lat="47.2444" lon="-2.31646">
        <ele>70</ele>
        <time>2011-04-24T08:20:47Z</time>
      </trkpt>
      <trkpt lat="47.24443" lon="-2.31654">
        <ele>70</ele>
        <time>2011-04-24T08:20:49Z</time>
      </trkpt>
      <trkpt lat="47.24447" lon="-2.31661">
        <ele>72</ele>
        <time>2011-04-24T08:20:51Z</time>
      </trkpt>
      <trkpt lat="47.2445" lon="-2.31669">
        <ele>74</ele>
        <time>2011-04-24T08:20:53Z</time>
      </trkpt>
      <trkpt lat="47.24454" lon="-2.31676">
        <ele>76</ele>
        <time>2011-04-24T08:20:55Z</time>
      </trkpt>
      <trkpt lat="47.24457" lon="-2.31682">
        <ele>77</ele>
        <time>2011-04-24T08:20:56Z</time>
      </trkpt>
      <trkpt lat="47.24462" lon="-2.3169">
        <ele>78</ele>
        <time>2011-04-24T08:20:58Z</time>
      </trkpt>
      <trkpt lat="47.24466" lon="-2.317">
        <ele>76</ele>
        <time>2011-04-24T08:21:00Z</time>
      </trkpt>
      <trkpt lat="47.24471" lon="-2.31708">
        <ele>76</ele>
        <time>2011-04-24T08:21:02Z</time>
      </trkpt>
      <trkpt lat="47.24475" lon="-2.31716">
        <ele>75</ele>
        <time>2011-04-24T08:21:04Z</time>
      </trkpt>
      <trkpt lat="47.24478" lon="-2.31724">
        <ele>75</ele>
        <time>2011-04-24T08:21:06Z</time>
      </trkpt>
      <trkpt lat="47.24479" lon="-2.31732">
        <ele>77</ele>
        <time>2011-04-24T08:21:08Z</time>
      </trkpt>
      <trkpt lat="47.24483" lon="-2.31741">
        <ele>77</ele>
        <time>2011-04-24T08:21:10Z</time>
      </trkpt>
      <trkpt lat="47.24487" lon="-2.3175">
        <ele>76</ele>
        <time>2011-04-24T08:21:12Z</time>
      </trkpt>
      <trkpt lat="47.24492" lon="-2.31759">
        <ele>77</ele>
        <time>2011-04-24T08:21:14Z</time>
      </trkpt>
      <trkpt lat="47.24496" lon="-2.31764">
        <ele>77</ele>
        <time>2011-04-24T08:21:15Z</time>
      </trkpt>
      <trkpt lat="47.24499" lon="-2.3177">
        <ele>76</ele>
        <time>2011-04-24T08:21:16Z</time>
      </trkpt>
      <trkpt lat="47.24504" lon="-2.31777">
        <ele>76</ele>
        <time>2011-04-24T08:21:18Z</time>
      </trkpt>
      <trkpt lat="47.24508" lon="-2.31785">
        <ele>76</ele>
        <time>2011-04-24T08:21:20Z</time>
      </trkpt>
      <trkpt lat="47.24513" lon="-2.31792">
        <ele>76</ele>
        <time>2011-04-24T08:21:22Z</time>
      </trkpt>
      <trkpt lat="47.24517" lon="-2.31801">
        <ele>77</ele>
        <time>2011-04-24T08:21:24Z</time>
      </trkpt>
      <trkpt lat="47.24521" lon="-2.3181">
        <ele>76</ele>
        <time>2011-04-24T08:21:26Z</time>
      </trkpt>
      <trkpt lat="47.24526" lon="-2.31818">
        <ele>76</ele>
        <time>2011-04-24T08:21:28Z</time>
      </trkpt>
      <trkpt lat="47.24531" lon="-2.31829">
        <ele>76</ele>
        <time>2011-04-24T08:21:30Z</time>
      </trkpt>
      <trkpt lat="47.24536" lon="-2.31838">
        <ele>75</ele>
        <time>2011-04-24T08:21:32Z</time>
      </trkpt>
      <trkpt lat="47.24538" lon="-2.31844">
        <ele>75</ele>
        <time>2011-04-24T08:21:33Z</time>
      </trkpt>
      <trkpt lat="47.24543" lon="-2.31853">
        <ele>76</ele>
        <time>2011-04-24T08:21:35Z</time>
      </trkpt>
      <trkpt lat="47.24548" lon="-2.31862">
        <ele>76</ele>
        <time>2011-04-24T08:21:37Z</time>
      </trkpt>
      <trkpt lat="47.24552" lon="-2.31869">
        <ele>77</ele>
        <time>2011-04-24T08:21:39Z</time>
      </trkpt>
      <trkpt lat="47.24555" lon="-2.31874">
        <ele>77</ele>
        <time>2011-04-24T08:21:40Z</time>
      </trkpt>
      <trkpt lat="47.24559" lon="-2.31879">
        <ele>77</ele>
        <time>2011-04-24T08:21:41Z</time>
      </trkpt>
      <trkpt lat="47.24563" lon="-2.31884">
        <ele>77</ele>
        <time>2011-04-24T08:21:42Z</time>
      </trkpt>
      <trkpt lat="47.24566" lon="-2.31889">
        <ele>76</ele>
        <time>2011-04-24T08:21:43Z</time>
      </trkpt>
      <trkpt lat="47.2457" lon="-2.31896">
        <ele>76</ele>
        <time>2011-04-24T08:21:44Z</time>
      </trkpt>
      <trkpt lat="47.24572" lon="-2.31901">
        <ele>76</ele>
        <time>2011-04-24T08:21:45Z</time>
      </trkpt>
      <trkpt lat="47.24575" lon="-2.31908">
        <ele>76</ele>
        <time>2011-04-24T08:21:46Z</time>
      </trkpt>
      <trkpt lat="47.24578" lon="-2.31913">
        <ele>75</ele>
        <time>2011-04-24T08:21:47Z</time>
      </trkpt>
      <trkpt lat="47.24581" lon="-2.31918">
        <ele>75</ele>
        <time>2011-04-24T08:21:48Z</time>
      </trkpt>
      <trkpt lat="47.24584" lon="-2.31924">
        <ele>74</ele>
        <time>2011-04-24T08:21:49Z</time>
      </trkpt>
      <trkpt lat="47.24588" lon="-2.3193">
        <ele>74</ele>
        <time>2011-04-24T08:21:50Z</time>
      </trkpt>
      <trkpt lat="47.24593" lon="-2.3194">
        <ele>74</ele>
        <time>2011-04-24T08:21:52Z</time>
      </trkpt>
      <trkpt lat="47.24596" lon="-2.31946">
        <ele>74</ele>
        <time>2011-04-24T08:21:53Z</time>
      </trkpt>
      <trkpt lat="47.246" lon="-2.31952">
        <ele>74</ele>
        <time>2011-04-24T08:21:54Z</time>
      </trkpt>
      <trkpt lat="47.24603" lon="-2.31956">
        <ele>73</ele>
        <time>2011-04-24T08:21:55Z</time>
      </trkpt>
      <trkpt lat="47.24609" lon="-2.31967">
        <ele>72</ele>
        <time>2011-04-24T08:21:57Z</time>
      </trkpt>
      <trkpt lat="47.24612" lon="-2.31972">
        <ele>73</ele>
        <time>2011-04-24T08:21:58Z</time>
      </trkpt>
      <trkpt lat="47.24615" lon="-2.31979">
        <ele>72</ele>
        <time>2011-04-24T08:21:59Z</time>
      </trkpt>
      <trkpt lat="47.24618" lon="-2.31985">
        <ele>71</ele>
        <time>2011-04-24T08:22:00Z</time>
      </trkpt>
      <trkpt lat="47.24622" lon="-2.31991">
        <ele>71</ele>
        <time>2011-04-24T08:22:01Z</time>
      </trkpt>
      <trkpt lat="47.24626" lon="-2.31997">
        <ele>70</ele>
        <time>2011-04-24T08:22:02Z</time>
      </trkpt>
      <trkpt lat="47.24629" lon="-2.32004">
        <ele>70</ele>
        <time>2011-04-24T08:22:03Z</time>
      </trkpt>
      <trkpt lat="47.24632" lon="-2.32009">
        <ele>70</ele>
        <time>2011-04-24T08:22:04Z</time>
      </trkpt>
      <trkpt lat="47.24635" lon="-2.32015">
        <ele>69</ele>
        <time>2011-04-24T08:22:05Z</time>
      </trkpt>
      <trkpt lat="47.24639" lon="-2.32022">
        <ele>67</ele>
        <time>2011-04-24T08:22:06Z</time>
      </trkpt>
      <trkpt lat="47.24642" lon="-2.32028">
        <ele>67</ele>
        <time>2011-04-24T08:22:07Z</time>
      </trkpt>
      <trkpt lat="47.24645" lon="-2.32034">
        <ele>67</ele>
        <time>2011-04-24T08:22:08Z</time>
      </trkpt>
      <trkpt lat="47.24648" lon="-2.32041">
        <ele>67</ele>
        <time>2011-04-24T08:22:09Z</time>
      </trkpt>
      <trkpt lat="47.24652" lon="-2.32048">
        <ele>67</ele>
        <time>2011-04-24T08:22:10Z</time>
      </trkpt>
      <trkpt lat="47.24655" lon="-2.32055">
        <ele>66</ele>
        <time>2011-04-24T08:22:11Z</time>
      </trkpt>
      <trkpt lat="47.24659" lon="-2.32062">
        <ele>66</ele>
        <time>2011-04-24T08:22:12Z</time>
      </trkpt>
      <trkpt lat="47.24662" lon="-2.32069">
        <ele>66</ele>
        <time>2011-04-24T08:22:13Z</time>
      </trkpt>
      <trkpt lat="47.24666" lon="-2.32076">
        <ele>66</ele>
        <time>2011-04-24T08:22:14Z</time>
      </trkpt>
      <trkpt lat="47.2467" lon="-2.32083">
        <ele>66</ele>
        <time>2011-04-24T08:22:15Z</time>
      </trkpt>
      <trkpt lat="47.24674" lon="-2.32091">
        <ele>66</ele>
        <time>2011-04-24T08:22:16Z</time>
      </trkpt>
      <trkpt lat="47.24678" lon="-2.32098">
        <ele>66</ele>
        <time>2011-04-24T08:22:17Z</time>
      </trkpt>
      <trkpt lat="47.24682" lon="-2.32106">
        <ele>65</ele>
        <time>2011-04-24T08:22:18Z</time>
      </trkpt>
      <trkpt lat="47.24686" lon="-2.32115">
        <ele>65</ele>
        <time>2011-04-24T08:22:19Z</time>
      </trkpt>
      <trkpt lat="47.24691" lon="-2.32122">
        <ele>64</ele>
        <time>2011-04-24T08:22:20Z</time>
      </trkpt>
      <trkpt lat="47.24697" lon="-2.3213">
        <ele>63</ele>
        <time>2011-04-24T08:22:21Z</time>
      </trkpt>
      <trkpt lat="47.24701" lon="-2.32139">
        <ele>63</ele>
        <time>2011-04-24T08:22:22Z</time>
      </trkpt>
      <trkpt lat="47.24705" lon="-2.32147">
        <ele>63</ele>
        <time>2011-04-24T08:22:23Z</time>
      </trkpt>
      <trkpt lat="47.24709" lon="-2.32155">
        <ele>62</ele>
        <time>2011-04-24T08:22:24Z</time>
      </trkpt>
      <trkpt lat="47.24713" lon="-2.32163">
        <ele>62</ele>
        <time>2011-04-24T08:22:25Z</time>
      </trkpt>
      <trkpt lat="47.24718" lon="-2.32171">
        <ele>62</ele>
        <time>2011-04-24T08:22:26Z</time>
      </trkpt>
      <trkpt lat="47.24722" lon="-2.32179">
        <ele>62</ele>
        <time>2011-04-24T08:22:27Z</time>
      </trkpt>
      <trkpt lat="47.24726" lon="-2.32186">
        <ele>62</ele>
        <time>2011-04-24T08:22:28Z</time>
      </trkpt>
      <trkpt lat="47.24732" lon="-2.32193">
        <ele>61</ele>
        <time>2011-04-24T08:22:29Z</time>
      </trkpt>
      <trkpt lat="47.24737" lon="-2.32202">
        <ele>61</ele>
        <time>2011-04-24T08:22:30Z</time>
      </trkpt>
      <trkpt lat="47.24749" lon="-2.32215">
        <ele>61</ele>
        <time>2011-04-24T08:22:31Z</time>
      </trkpt>
      <trkpt lat="47.2475" lon="-2.32228">
        <ele>61</ele>
        <time>2011-04-24T08:22:34Z</time>
      </trkpt>
      <trkpt lat="47.24753" lon="-2.32234">
        <ele>61</ele>
        <time>2011-04-24T08:22:35Z</time>
      </trkpt>
      <trkpt lat="47.24756" lon="-2.32241">
        <ele>62</ele>
        <time>2011-04-24T08:22:36Z</time>
      </trkpt>
      <trkpt lat="47.24759" lon="-2.32246">
        <ele>62</ele>
        <time>2011-04-24T08:22:37Z</time>
      </trkpt>
      <trkpt lat="47.24763" lon="-2.32254">
        <ele>63</ele>
        <time>2011-04-24T08:22:38Z</time>
      </trkpt>
      <trkpt lat="47.24766" lon="-2.32261">
        <ele>63</ele>
        <time>2011-04-24T08:22:39Z</time>
      </trkpt>
      <trkpt lat="47.2477" lon="-2.32266">
        <ele>63</ele>
        <time>2011-04-24T08:22:40Z</time>
      </trkpt>
      <trkpt lat="47.24773" lon="-2.32272">
        <ele>65</ele>
        <time>2011-04-24T08:22:41Z</time>
      </trkpt>
      <trkpt lat="47.24777" lon="-2.32278">
        <ele>64</ele>
        <time>2011-04-24T08:22:42Z</time>
      </trkpt>
      <trkpt lat="47.24779" lon="-2.32285">
        <ele>64</ele>
        <time>2011-04-24T08:22:43Z</time>
      </trkpt>
      <trkpt lat="47.24784" lon="-2.3229">
        <ele>64</ele>
        <time>2011-04-24T08:22:44Z</time>
      </trkpt>
      <trkpt lat="47.24786" lon="-2.32298">
        <ele>64</ele>
        <time>2011-04-24T08:22:46Z</time>
      </trkpt>
      <trkpt lat="47.2479" lon="-2.32305">
        <ele>63</ele>
        <time>2011-04-24T08:22:47Z</time>
      </trkpt>
      <trkpt lat="47.24793" lon="-2.32311">
        <ele>65</ele>
        <time>2011-04-24T08:22:48Z</time>
      </trkpt>
      <trkpt lat="47.24793" lon="-2.32319">
        <ele>66</ele>
        <time>2011-04-24T08:22:51Z</time>
      </trkpt>
      <trkpt lat="47.24796" lon="-2.32325">
        <ele>66</ele>
        <time>2011-04-24T08:22:52Z</time>
      </trkpt>
      <trkpt lat="47.248" lon="-2.32333">
        <ele>66</ele>
        <time>2011-04-24T08:22:53Z</time>
      </trkpt>
      <trkpt lat="47.24805" lon="-2.32341">
        <ele>66</ele>
        <time>2011-04-24T08:22:54Z</time>
      </trkpt>
      <trkpt lat="47.24808" lon="-2.32347">
        <ele>66</ele>
        <time>2011-04-24T08:22:55Z</time>
      </trkpt>
      <trkpt lat="47.24812" lon="-2.32355">
        <ele>65</ele>
        <time>2011-04-24T08:22:56Z</time>
      </trkpt>
      <trkpt lat="47.24817" lon="-2.32361">
        <ele>65</ele>
        <time>2011-04-24T08:22:57Z</time>
      </trkpt>
      <trkpt lat="47.24822" lon="-2.32373">
        <ele>62</ele>
        <time>2011-04-24T08:22:59Z</time>
      </trkpt>
      <trkpt lat="47.24824" lon="-2.3238">
        <ele>62</ele>
        <time>2011-04-24T08:23:00Z</time>
      </trkpt>
      <trkpt lat="47.24829" lon="-2.32388">
        <ele>61</ele>
        <time>2011-04-24T08:23:01Z</time>
      </trkpt>
      <trkpt lat="47.24832" lon="-2.32394">
        <ele>61</ele>
        <time>2011-04-24T08:23:02Z</time>
      </trkpt>
      <trkpt lat="47.24836" lon="-2.32402">
        <ele>60</ele>
        <time>2011-04-24T08:23:03Z</time>
      </trkpt>
      <trkpt lat="47.24845" lon="-2.3241">
        <ele>60</ele>
        <time>2011-04-24T08:23:05Z</time>
      </trkpt>
      <trkpt lat="47.24851" lon="-2.3242">
        <ele>61</ele>
        <time>2011-04-24T08:23:07Z</time>
      </trkpt>
      <trkpt lat="47.24852" lon="-2.32427">
        <ele>60</ele>
        <time>2011-04-24T08:23:08Z</time>
      </trkpt>
      <trkpt lat="47.24857" lon="-2.32436">
        <ele>62</ele>
        <time>2011-04-24T08:23:10Z</time>
      </trkpt>
      <trkpt lat="47.24861" lon="-2.32444">
        <ele>63</ele>
        <time>2011-04-24T08:23:12Z</time>
      </trkpt>
      <trkpt lat="47.24864" lon="-2.3245">
        <ele>63</ele>
        <time>2011-04-24T08:23:13Z</time>
      </trkpt>
      <trkpt lat="47.24867" lon="-2.32459">
        <ele>63</ele>
        <time>2011-04-24T08:23:15Z</time>
      </trkpt>
      <trkpt lat="47.24868" lon="-2.32466">
        <ele>63</ele>
        <time>2011-04-24T08:23:17Z</time>
      </trkpt>
      <trkpt lat="47.24872" lon="-2.32474">
        <ele>62</ele>
        <time>2011-04-24T08:23:19Z</time>
      </trkpt>
      <trkpt lat="47.24874" lon="-2.32485">
        <ele>61</ele>
        <time>2011-04-24T08:23:21Z</time>
      </trkpt>
      <trkpt lat="47.24877" lon="-2.32493">
        <ele>61</ele>
        <time>2011-04-24T08:23:23Z</time>
      </trkpt>
      <trkpt lat="47.24881" lon="-2.32502">
        <ele>60</ele>
        <time>2011-04-24T08:23:25Z</time>
      </trkpt>
      <trkpt lat="47.24884" lon="-2.32512">
        <ele>60</ele>
        <time>2011-04-24T08:23:26Z</time>
      </trkpt>
      <trkpt lat="47.24887" lon="-2.32519">
        <ele>60</ele>
        <time>2011-04-24T08:23:27Z</time>
      </trkpt>
      <trkpt lat="47.2489" lon="-2.32526">
        <ele>60</ele>
        <time>2011-04-24T08:23:28Z</time>
      </trkpt>
      <trkpt lat="47.24892" lon="-2.32533">
        <ele>59</ele>
        <time>2011-04-24T08:23:29Z</time>
      </trkpt>
      <trkpt lat="47.24895" lon="-2.3254">
        <ele>59</ele>
        <time>2011-04-24T08:23:30Z</time>
      </trkpt>
      <trkpt lat="47.24899" lon="-2.32551">
        <ele>59</ele>
        <time>2011-04-24T08:23:32Z</time>
      </trkpt>
      <trkpt lat="47.24903" lon="-2.32562">
        <ele>59</ele>
        <time>2011-04-24T08:23:34Z</time>
      </trkpt>
      <trkpt lat="47.24904" lon="-2.3257">
        <ele>60</ele>
        <time>2011-04-24T08:23:35Z</time>
      </trkpt>
      <trkpt lat="47.24908" lon="-2.32575">
        <ele>60</ele>
        <time>2011-04-24T08:23:36Z</time>
      </trkpt>
      <trkpt lat="47.2491" lon="-2.32581">
        <ele>60</ele>
        <time>2011-04-24T08:23:37Z</time>
      </trkpt>
      <trkpt lat="47.24913" lon="-2.32588">
        <ele>60</ele>
        <time>2011-04-24T08:23:38Z</time>
      </trkpt>
      <trkpt lat="47.24915" lon="-2.32594">
        <ele>60</ele>
        <time>2011-04-24T08:23:39Z</time>
      </trkpt>
      <trkpt lat="47.24917" lon="-2.32602">
        <ele>60</ele>
        <time>2011-04-24T08:23:40Z</time>
      </trkpt>
      <trkpt lat="47.24918" lon="-2.3261">
        <ele>60</ele>
        <time>2011-04-24T08:23:41Z</time>
      </trkpt>
      <trkpt lat="47.24919" lon="-2.32622">
        <ele>60</ele>
        <time>2011-04-24T08:23:43Z</time>
      </trkpt>
      <trkpt lat="47.24928" lon="-2.32636">
        <ele>61</ele>
        <time>2011-04-24T08:23:45Z</time>
      </trkpt>
      <trkpt lat="47.2493" lon="-2.32646">
        <ele>60</ele>
        <time>2011-04-24T08:23:47Z</time>
      </trkpt>
      <trkpt lat="47.24933" lon="-2.32654">
        <ele>60</ele>
        <time>2011-04-24T08:23:48Z</time>
      </trkpt>
      <trkpt lat="47.24936" lon="-2.32664">
        <ele>60</ele>
        <time>2011-04-24T08:23:49Z</time>
      </trkpt>
      <trkpt lat="47.2494" lon="-2.32675">
        <ele>61</ele>
        <time>2011-04-24T08:23:50Z</time>
      </trkpt>
      <trkpt lat="47.24944" lon="-2.32685">
        <ele>61</ele>
        <time>2011-04-24T08:23:51Z</time>
      </trkpt>
      <trkpt lat="47.24947" lon="-2.32694">
        <ele>60</ele>
        <time>2011-04-24T08:23:53Z</time>
      </trkpt>
      <trkpt lat="47.24952" lon="-2.32706">
        <ele>60</ele>
        <time>2011-04-24T08:23:54Z</time>
      </trkpt>
      <trkpt lat="47.24955" lon="-2.32714">
        <ele>60</ele>
        <time>2011-04-24T08:23:55Z</time>
      </trkpt>
      <trkpt lat="47.24957" lon="-2.32721">
        <ele>59</ele>
        <time>2011-04-24T08:23:56Z</time>
      </trkpt>
      <trkpt lat="47.24959" lon="-2.32728">
        <ele>59</ele>
        <time>2011-04-24T08:23:57Z</time>
      </trkpt>
      <trkpt lat="47.24962" lon="-2.32735">
        <ele>59</ele>
        <time>2011-04-24T08:23:58Z</time>
      </trkpt>
      <trkpt lat="47.24964" lon="-2.32742">
        <ele>59</ele>
        <time>2011-04-24T08:23:59Z</time>
      </trkpt>
      <trkpt lat="47.24968" lon="-2.3275">
        <ele>60</ele>
        <time>2011-04-24T08:24:00Z</time>
      </trkpt>
      <trkpt lat="47.24972" lon="-2.32757">
        <ele>60</ele>
        <time>2011-04-24T08:24:01Z</time>
      </trkpt>
      <trkpt lat="47.24976" lon="-2.32771">
        <ele>61</ele>
        <time>2011-04-24T08:24:03Z</time>
      </trkpt>
      <trkpt lat="47.24979" lon="-2.32778">
        <ele>61</ele>
        <time>2011-04-24T08:24:04Z</time>
      </trkpt>
      <trkpt lat="47.24983" lon="-2.32785">
        <ele>61</ele>
        <time>2011-04-24T08:24:05Z</time>
      </trkpt>
      <trkpt lat="47.24986" lon="-2.32794">
        <ele>61</ele>
        <time>2011-04-24T08:24:06Z</time>
      </trkpt>
      <trkpt lat="47.24989" lon="-2.32799">
        <ele>61</ele>
        <time>2011-04-24T08:24:07Z</time>
      </trkpt>
      <trkpt lat="47.24994" lon="-2.3281">
        <ele>62</ele>
        <time>2011-04-24T08:24:09Z</time>
      </trkpt>
      <trkpt lat="47.24997" lon="-2.32818">
        <ele>62</ele>
        <time>2011-04-24T08:24:10Z</time>
      </trkpt>
      <trkpt lat="47.25" lon="-2.32825">
        <ele>62</ele>
        <time>2011-04-24T08:24:11Z</time>
      </trkpt>
      <trkpt lat="47.25002" lon="-2.32832">
        <ele>61</ele>
        <time>2011-04-24T08:24:12Z</time>
      </trkpt>
      <trkpt lat="47.25008" lon="-2.32846">
        <ele>62</ele>
        <time>2011-04-24T08:24:14Z</time>
      </trkpt>
      <trkpt lat="47.25013" lon="-2.32859">
        <ele>62</ele>
        <time>2011-04-24T08:24:16Z</time>
      </trkpt>
      <trkpt lat="47.25015" lon="-2.32865">
        <ele>62</ele>
        <time>2011-04-24T08:24:17Z</time>
      </trkpt>
      <trkpt lat="47.25017" lon="-2.32872">
        <ele>62</ele>
        <time>2011-04-24T08:24:18Z</time>
      </trkpt>
      <trkpt lat="47.25019" lon="-2.32879">
        <ele>62</ele>
        <time>2011-04-24T08:24:19Z</time>
      </trkpt>
      <trkpt lat="47.25022" lon="-2.32891">
        <ele>63</ele>
        <time>2011-04-24T08:24:21Z</time>
      </trkpt>
      <trkpt lat="47.25024" lon="-2.32897">
        <ele>63</ele>
        <time>2011-04-24T08:24:22Z</time>
      </trkpt>
      <trkpt lat="47.25028" lon="-2.32907">
        <ele>64</ele>
        <time>2011-04-24T08:24:24Z</time>
      </trkpt>
      <trkpt lat="47.25031" lon="-2.32917">
        <ele>64</ele>
        <time>2011-04-24T08:24:26Z</time>
      </trkpt>
      <trkpt lat="47.25034" lon="-2.32923">
        <ele>65</ele>
        <time>2011-04-24T08:24:27Z</time>
      </trkpt>
      <trkpt lat="47.25036" lon="-2.3293">
        <ele>65</ele>
        <time>2011-04-24T08:24:28Z</time>
      </trkpt>
      <trkpt lat="47.25038" lon="-2.32937">
        <ele>66</ele>
        <time>2011-04-24T08:24:29Z</time>
      </trkpt>
      <trkpt lat="47.25041" lon="-2.32949">
        <ele>65</ele>
        <time>2011-04-24T08:24:31Z</time>
      </trkpt>
      <trkpt lat="47.25043" lon="-2.32955">
        <ele>65</ele>
        <time>2011-04-24T08:24:32Z</time>
      </trkpt>
      <trkpt lat="47.25045" lon="-2.32962">
        <ele>65</ele>
        <time>2011-04-24T08:24:33Z</time>
      </trkpt>
      <trkpt lat="47.2505" lon="-2.32972">
        <ele>65</ele>
        <time>2011-04-24T08:24:35Z</time>
      </trkpt>
      <trkpt lat="47.25053" lon="-2.32978">
        <ele>66</ele>
        <time>2011-04-24T08:24:36Z</time>
      </trkpt>
      <trkpt lat="47.25056" lon="-2.32983">
        <ele>65</ele>
        <time>2011-04-24T08:24:37Z</time>
      </trkpt>
      <trkpt lat="47.25059" lon="-2.32993">
        <ele>66</ele>
        <time>2011-04-24T08:24:39Z</time>
      </trkpt>
      <trkpt lat="47.25064" lon="-2.33003">
        <ele>65</ele>
        <time>2011-04-24T08:24:41Z</time>
      </trkpt>
      <trkpt lat="47.25066" lon="-2.3301">
        <ele>65</ele>
        <time>2011-04-24T08:24:42Z</time>
      </trkpt>
      <trkpt lat="47.2507" lon="-2.33015">
        <ele>65</ele>
        <time>2011-04-24T08:24:43Z</time>
      </trkpt>
      <trkpt lat="47.25073" lon="-2.33021">
        <ele>65</ele>
        <time>2011-04-24T08:24:44Z</time>
      </trkpt>
      <trkpt lat="47.25075" lon="-2.33026">
        <ele>65</ele>
        <time>2011-04-24T08:24:45Z</time>
      </trkpt>
      <trkpt lat="47.25079" lon="-2.33032">
        <ele>65</ele>
        <time>2011-04-24T08:24:46Z</time>
      </trkpt>
      <trkpt lat="47.25083" lon="-2.33038">
        <ele>65</ele>
        <time>2011-04-24T08:24:47Z</time>
      </trkpt>
      <trkpt lat="47.25086" lon="-2.33045">
        <ele>66</ele>
        <time>2011-04-24T08:24:48Z</time>
      </trkpt>
      <trkpt lat="47.2509" lon="-2.3305">
        <ele>66</ele>
        <time>2011-04-24T08:24:49Z</time>
      </trkpt>
      <trkpt lat="47.25092" lon="-2.33056">
        <ele>65</ele>
        <time>2011-04-24T08:24:50Z</time>
      </trkpt>
      <trkpt lat="47.25095" lon="-2.33063">
        <ele>64</ele>
        <time>2011-04-24T08:24:51Z</time>
      </trkpt>
      <trkpt lat="47.25098" lon="-2.33068">
        <ele>63</ele>
        <time>2011-04-24T08:24:52Z</time>
      </trkpt>
      <trkpt lat="47.25102" lon="-2.33075">
        <ele>63</ele>
        <time>2011-04-24T08:24:53Z</time>
      </trkpt>
      <trkpt lat="47.25105" lon="-2.33081">
        <ele>63</ele>
        <time>2011-04-24T08:24:54Z</time>
      </trkpt>
      <trkpt lat="47.25108" lon="-2.33086">
        <ele>63</ele>
        <time>2011-04-24T08:24:55Z</time>
      </trkpt>
      <trkpt lat="47.25114" lon="-2.33097">
        <ele>63</ele>
        <time>2011-04-24T08:24:57Z</time>
      </trkpt>
      <trkpt lat="47.25117" lon="-2.33103">
        <ele>63</ele>
        <time>2011-04-24T08:24:58Z</time>
      </trkpt>
      <trkpt lat="47.2512" lon="-2.33109">
        <ele>63</ele>
        <time>2011-04-24T08:24:59Z</time>
      </trkpt>
      <trkpt lat="47.25123" lon="-2.33114">
        <ele>63</ele>
        <time>2011-04-24T08:25:00Z</time>
      </trkpt>
      <trkpt lat="47.25126" lon="-2.3312">
        <ele>63</ele>
        <time>2011-04-24T08:25:01Z</time>
      </trkpt>
      <trkpt lat="47.25128" lon="-2.33126">
        <ele>63</ele>
        <time>2011-04-24T08:25:02Z</time>
      </trkpt>
      <trkpt lat="47.25132" lon="-2.33133">
        <ele>63</ele>
        <time>2011-04-24T08:25:03Z</time>
      </trkpt>
      <trkpt lat="47.25136" lon="-2.33138">
        <ele>63</ele>
        <time>2011-04-24T08:25:04Z</time>
      </trkpt>
      <trkpt lat="47.25139" lon="-2.33143">
        <ele>63</ele>
        <time>2011-04-24T08:25:05Z</time>
      </trkpt>
      <trkpt lat="47.25141" lon="-2.33149">
        <ele>63</ele>
        <time>2011-04-24T08:25:06Z</time>
      </trkpt>
      <trkpt lat="47.25145" lon="-2.33155">
        <ele>62</ele>
        <time>2011-04-24T08:25:07Z</time>
      </trkpt>
      <trkpt lat="47.25148" lon="-2.33162">
        <ele>61</ele>
        <time>2011-04-24T08:25:08Z</time>
      </trkpt>
      <trkpt lat="47.25153" lon="-2.33172">
        <ele>61</ele>
        <time>2011-04-24T08:25:10Z</time>
      </trkpt>
      <trkpt lat="47.25159" lon="-2.3318">
        <ele>61</ele>
        <time>2011-04-24T08:25:12Z</time>
      </trkpt>
      <trkpt lat="47.25163" lon="-2.3319">
        <ele>61</ele>
        <time>2011-04-24T08:25:14Z</time>
      </trkpt>
      <trkpt lat="47.25169" lon="-2.33201">
        <ele>60</ele>
        <time>2011-04-24T08:25:16Z</time>
      </trkpt>
      <trkpt lat="47.25172" lon="-2.33208">
        <ele>61</ele>
        <time>2011-04-24T08:25:17Z</time>
      </trkpt>
      <trkpt lat="47.25175" lon="-2.33213">
        <ele>61</ele>
        <time>2011-04-24T08:25:18Z</time>
      </trkpt>
      <trkpt lat="47.25178" lon="-2.33219">
        <ele>61</ele>
        <time>2011-04-24T08:25:19Z</time>
      </trkpt>
      <trkpt lat="47.25182" lon="-2.33227">
        <ele>61</ele>
        <time>2011-04-24T08:25:20Z</time>
      </trkpt>
      <trkpt lat="47.25184" lon="-2.33232">
        <ele>61</ele>
        <time>2011-04-24T08:25:21Z</time>
      </trkpt>
      <trkpt lat="47.25188" lon="-2.33238">
        <ele>62</ele>
        <time>2011-04-24T08:25:22Z</time>
      </trkpt>
      <trkpt lat="47.25193" lon="-2.33246">
        <ele>63</ele>
        <time>2011-04-24T08:25:24Z</time>
      </trkpt>
      <trkpt lat="47.25197" lon="-2.33252">
        <ele>63</ele>
        <time>2011-04-24T08:25:25Z</time>
      </trkpt>
      <trkpt lat="47.252" lon="-2.33258">
        <ele>63</ele>
        <time>2011-04-24T08:25:26Z</time>
      </trkpt>
      <trkpt lat="47.25205" lon="-2.33269">
        <ele>63</ele>
        <time>2011-04-24T08:25:28Z</time>
      </trkpt>
      <trkpt lat="47.25208" lon="-2.33274">
        <ele>62</ele>
        <time>2011-04-24T08:25:29Z</time>
      </trkpt>
      <trkpt lat="47.25211" lon="-2.33279">
        <ele>62</ele>
        <time>2011-04-24T08:25:30Z</time>
      </trkpt>
      <trkpt lat="47.25215" lon="-2.33289">
        <ele>63</ele>
        <time>2011-04-24T08:25:32Z</time>
      </trkpt>
      <trkpt lat="47.25219" lon="-2.33297">
        <ele>64</ele>
        <time>2011-04-24T08:25:34Z</time>
      </trkpt>
      <trkpt lat="47.25223" lon="-2.33308">
        <ele>63</ele>
        <time>2011-04-24T08:25:36Z</time>
      </trkpt>
      <trkpt lat="47.25227" lon="-2.33318">
        <ele>64</ele>
        <time>2011-04-24T08:25:38Z</time>
      </trkpt>
      <trkpt lat="47.25232" lon="-2.33325">
        <ele>63</ele>
        <time>2011-04-24T08:25:39Z</time>
      </trkpt>
      <trkpt lat="47.25235" lon="-2.3333">
        <ele>63</ele>
        <time>2011-04-24T08:25:40Z</time>
      </trkpt>
      <trkpt lat="47.25238" lon="-2.33337">
        <ele>62</ele>
        <time>2011-04-24T08:25:41Z</time>
      </trkpt>
      <trkpt lat="47.25241" lon="-2.33342">
        <ele>61</ele>
        <time>2011-04-24T08:25:42Z</time>
      </trkpt>
      <trkpt lat="47.25244" lon="-2.33348">
        <ele>61</ele>
        <time>2011-04-24T08:25:43Z</time>
      </trkpt>
      <trkpt lat="47.25247" lon="-2.33354">
        <ele>61</ele>
        <time>2011-04-24T08:25:44Z</time>
      </trkpt>
      <trkpt lat="47.2525" lon="-2.3336">
        <ele>62</ele>
        <time>2011-04-24T08:25:45Z</time>
      </trkpt>
      <trkpt lat="47.25254" lon="-2.33366">
        <ele>61</ele>
        <time>2011-04-24T08:25:46Z</time>
      </trkpt>
      <trkpt lat="47.25256" lon="-2.33371">
        <ele>61</ele>
        <time>2011-04-24T08:25:47Z</time>
      </trkpt>
      <trkpt lat="47.25259" lon="-2.33376">
        <ele>62</ele>
        <time>2011-04-24T08:25:48Z</time>
      </trkpt>
      <trkpt lat="47.25263" lon="-2.33381">
        <ele>61</ele>
        <time>2011-04-24T08:25:49Z</time>
      </trkpt>
      <trkpt lat="47.25267" lon="-2.3339">
        <ele>61</ele>
        <time>2011-04-24T08:25:51Z</time>
      </trkpt>
      <trkpt lat="47.25273" lon="-2.33401">
        <ele>62</ele>
        <time>2011-04-24T08:25:53Z</time>
      </trkpt>
      <trkpt lat="47.25278" lon="-2.33411">
        <ele>63</ele>
        <time>2011-04-24T08:25:55Z</time>
      </trkpt>
      <trkpt lat="47.25283" lon="-2.33419">
        <ele>64</ele>
        <time>2011-04-24T08:25:57Z</time>
      </trkpt>
      <trkpt lat="47.25286" lon="-2.33424">
        <ele>64</ele>
        <time>2011-04-24T08:25:58Z</time>
      </trkpt>
      <trkpt lat="47.25288" lon="-2.33429">
        <ele>64</ele>
        <time>2011-04-24T08:25:59Z</time>
      </trkpt>
      <trkpt lat="47.25292" lon="-2.3344">
        <ele>64</ele>
        <time>2011-04-24T08:26:01Z</time>
      </trkpt>
      <trkpt lat="47.25296" lon="-2.33444">
        <ele>65</ele>
        <time>2011-04-24T08:26:02Z</time>
      </trkpt>
      <trkpt lat="47.25301" lon="-2.33455">
        <ele>64</ele>
        <time>2011-04-24T08:26:04Z</time>
      </trkpt>
      <trkpt lat="47.25306" lon="-2.3346">
        <ele>63</ele>
        <time>2011-04-24T08:26:05Z</time>
      </trkpt>
      <trkpt lat="47.2531" lon="-2.33467">
        <ele>62</ele>
        <time>2011-04-24T08:26:06Z</time>
      </trkpt>
      <trkpt lat="47.25315" lon="-2.33479">
        <ele>63</ele>
        <time>2011-04-24T08:26:08Z</time>
      </trkpt>
      <trkpt lat="47.25318" lon="-2.33485">
        <ele>63</ele>
        <time>2011-04-24T08:26:09Z</time>
      </trkpt>
      <trkpt lat="47.25323" lon="-2.33495">
        <ele>62</ele>
        <time>2011-04-24T08:26:11Z</time>
      </trkpt>
      <trkpt lat="47.25329" lon="-2.33505">
        <ele>62</ele>
        <time>2011-04-24T08:26:13Z</time>
      </trkpt>
      <trkpt lat="47.25331" lon="-2.3351">
        <ele>62</ele>
        <time>2011-04-24T08:26:14Z</time>
      </trkpt>
      <trkpt lat="47.25334" lon="-2.33516">
        <ele>62</ele>
        <time>2011-04-24T08:26:15Z</time>
      </trkpt>
      <trkpt lat="47.25339" lon="-2.33525">
        <ele>62</ele>
        <time>2011-04-24T08:26:17Z</time>
      </trkpt>
      <trkpt lat="47.25341" lon="-2.33531">
        <ele>62</ele>
        <time>2011-04-24T08:26:18Z</time>
      </trkpt>
      <trkpt lat="47.25347" lon="-2.33542">
        <ele>62</ele>
        <time>2011-04-24T08:26:20Z</time>
      </trkpt>
      <trkpt lat="47.2535" lon="-2.33547">
        <ele>62</ele>
        <time>2011-04-24T08:26:21Z</time>
      </trkpt>
      <trkpt lat="47.25354" lon="-2.33555">
        <ele>63</ele>
        <time>2011-04-24T08:26:23Z</time>
      </trkpt>
      <trkpt lat="47.2536" lon="-2.33565">
        <ele>63</ele>
        <time>2011-04-24T08:26:25Z</time>
      </trkpt>
      <trkpt lat="47.25365" lon="-2.33574">
        <ele>63</ele>
        <time>2011-04-24T08:26:27Z</time>
      </trkpt>
      <trkpt lat="47.25368" lon="-2.3358">
        <ele>64</ele>
        <time>2011-04-24T08:26:28Z</time>
      </trkpt>
      <trkpt lat="47.25372" lon="-2.33585">
        <ele>63</ele>
        <time>2011-04-24T08:26:29Z</time>
      </trkpt>
      <trkpt lat="47.25375" lon="-2.33591">
        <ele>63</ele>
        <time>2011-04-24T08:26:30Z</time>
      </trkpt>
      <trkpt lat="47.2538" lon="-2.33602">
        <ele>63</ele>
        <time>2011-04-24T08:26:32Z</time>
      </trkpt>
      <trkpt lat="47.25383" lon="-2.33608">
        <ele>63</ele>
        <time>2011-04-24T08:26:33Z</time>
      </trkpt>
      <trkpt lat="47.25388" lon="-2.33618">
        <ele>64</ele>
        <time>2011-04-24T08:26:35Z</time>
      </trkpt>
      <trkpt lat="47.25392" lon="-2.33626">
        <ele>63</ele>
        <time>2011-04-24T08:26:37Z</time>
      </trkpt>
      <trkpt lat="47.25395" lon="-2.33632">
        <ele>63</ele>
        <time>2011-04-24T08:26:38Z</time>
      </trkpt>
      <trkpt lat="47.25397" lon="-2.33639">
        <ele>63</ele>
        <time>2011-04-24T08:26:39Z</time>
      </trkpt>
      <trkpt lat="47.254" lon="-2.33645">
        <ele>63</ele>
        <time>2011-04-24T08:26:40Z</time>
      </trkpt>
      <trkpt lat="47.25404" lon="-2.3365">
        <ele>64</ele>
        <time>2011-04-24T08:26:41Z</time>
      </trkpt>
      <trkpt lat="47.25409" lon="-2.3366">
        <ele>63</ele>
        <time>2011-04-24T08:26:43Z</time>
      </trkpt>
      <trkpt lat="47.25414" lon="-2.33671">
        <ele>63</ele>
        <time>2011-04-24T08:26:45Z</time>
      </trkpt>
      <trkpt lat="47.25417" lon="-2.33677">
        <ele>63</ele>
        <time>2011-04-24T08:26:46Z</time>
      </trkpt>
      <trkpt lat="47.2542" lon="-2.33682">
        <ele>63</ele>
        <time>2011-04-24T08:26:47Z</time>
      </trkpt>
      <trkpt lat="47.25423" lon="-2.33688">
        <ele>64</ele>
        <time>2011-04-24T08:26:48Z</time>
      </trkpt>
      <trkpt lat="47.25425" lon="-2.33694">
        <ele>63</ele>
        <time>2011-04-24T08:26:49Z</time>
      </trkpt>
      <trkpt lat="47.2543" lon="-2.33705">
        <ele>62</ele>
        <time>2011-04-24T08:26:51Z</time>
      </trkpt>
      <trkpt lat="47.25433" lon="-2.3371">
        <ele>63</ele>
        <time>2011-04-24T08:26:52Z</time>
      </trkpt>
      <trkpt lat="47.25436" lon="-2.33715">
        <ele>62</ele>
        <time>2011-04-24T08:26:53Z</time>
      </trkpt>
      <trkpt lat="47.2544" lon="-2.33721">
        <ele>62</ele>
        <time>2011-04-24T08:26:54Z</time>
      </trkpt>
      <trkpt lat="47.25446" lon="-2.33729">
        <ele>61</ele>
        <time>2011-04-24T08:26:56Z</time>
      </trkpt>
      <trkpt lat="47.25454" lon="-2.33737">
        <ele>59</ele>
        <time>2011-04-24T08:26:58Z</time>
      </trkpt>
      <trkpt lat="47.2546" lon="-2.33742">
        <ele>59</ele>
        <time>2011-04-24T08:27:00Z</time>
      </trkpt>
      <trkpt lat="47.25468" lon="-2.33748">
        <ele>60</ele>
        <time>2011-04-24T08:27:02Z</time>
      </trkpt>
      <trkpt lat="47.25472" lon="-2.33751">
        <ele>60</ele>
        <time>2011-04-24T08:27:03Z</time>
      </trkpt>
      <trkpt lat="47.25477" lon="-2.33754">
        <ele>60</ele>
        <time>2011-04-24T08:27:04Z</time>
      </trkpt>
      <trkpt lat="47.25486" lon="-2.33754">
        <ele>59</ele>
        <time>2011-04-24T08:27:06Z</time>
      </trkpt>
      <trkpt lat="47.25496" lon="-2.33753">
        <ele>58</ele>
        <time>2011-04-24T08:27:08Z</time>
      </trkpt>
      <trkpt lat="47.25501" lon="-2.33754">
        <ele>59</ele>
        <time>2011-04-24T08:27:09Z</time>
      </trkpt>
      <trkpt lat="47.25507" lon="-2.33754">
        <ele>59</ele>
        <time>2011-04-24T08:27:10Z</time>
      </trkpt>
      <trkpt lat="47.25516" lon="-2.33756">
        <ele>60</ele>
        <time>2011-04-24T08:27:12Z</time>
      </trkpt>
      <trkpt lat="47.25524" lon="-2.33758">
        <ele>60</ele>
        <time>2011-04-24T08:27:15Z</time>
      </trkpt>
      <trkpt lat="47.25532" lon="-2.33757">
        <ele>62</ele>
        <time>2011-04-24T08:27:16Z</time>
      </trkpt>
      <trkpt lat="47.25538" lon="-2.33757">
        <ele>62</ele>
        <time>2011-04-24T08:27:17Z</time>
      </trkpt>
      <trkpt lat="47.25546" lon="-2.33757">
        <ele>63</ele>
        <time>2011-04-24T08:27:19Z</time>
      </trkpt>
      <trkpt lat="47.25554" lon="-2.33756">
        <ele>63</ele>
        <time>2011-04-24T08:27:21Z</time>
      </trkpt>
      <trkpt lat="47.2556" lon="-2.33755">
        <ele>64</ele>
        <time>2011-04-24T08:27:22Z</time>
      </trkpt>
      <trkpt lat="47.25567" lon="-2.33753">
        <ele>63</ele>
        <time>2011-04-24T08:27:24Z</time>
      </trkpt>
      <trkpt lat="47.25572" lon="-2.33753">
        <ele>63</ele>
        <time>2011-04-24T08:27:25Z</time>
      </trkpt>
      <trkpt lat="47.25579" lon="-2.33753">
        <ele>64</ele>
        <time>2011-04-24T08:27:27Z</time>
      </trkpt>
      <trkpt lat="47.25587" lon="-2.33752">
        <ele>63</ele>
        <time>2011-04-24T08:27:29Z</time>
      </trkpt>
      <trkpt lat="47.25595" lon="-2.33753">
        <ele>63</ele>
        <time>2011-04-24T08:27:31Z</time>
      </trkpt>
      <trkpt lat="47.25602" lon="-2.33754">
        <ele>64</ele>
        <time>2011-04-24T08:27:33Z</time>
      </trkpt>
      <trkpt lat="47.25611" lon="-2.33759">
        <ele>64</ele>
        <time>2011-04-24T08:27:35Z</time>
      </trkpt>
      <trkpt lat="47.25619" lon="-2.33763">
        <ele>64</ele>
        <time>2011-04-24T08:27:37Z</time>
      </trkpt>
      <trkpt lat="47.25624" lon="-2.33766">
        <ele>64</ele>
        <time>2011-04-24T08:27:38Z</time>
      </trkpt>
      <trkpt lat="47.25628" lon="-2.33768">
        <ele>64</ele>
        <time>2011-04-24T08:27:39Z</time>
      </trkpt>
      <trkpt lat="47.25633" lon="-2.3377">
        <ele>64</ele>
        <time>2011-04-24T08:27:40Z</time>
      </trkpt>
      <trkpt lat="47.25641" lon="-2.33773">
        <ele>64</ele>
        <time>2011-04-24T08:27:42Z</time>
      </trkpt>
      <trkpt lat="47.25647" lon="-2.33776">
        <ele>63</ele>
        <time>2011-04-24T08:27:43Z</time>
      </trkpt>
      <trkpt lat="47.25652" lon="-2.33779">
        <ele>63</ele>
        <time>2011-04-24T08:27:44Z</time>
      </trkpt>
      <trkpt lat="47.25657" lon="-2.33781">
        <ele>63</ele>
        <time>2011-04-24T08:27:45Z</time>
      </trkpt>
      <trkpt lat="47.25663" lon="-2.33783">
        <ele>63</ele>
        <time>2011-04-24T08:27:46Z</time>
      </trkpt>
      <trkpt lat="47.25668" lon="-2.33786">
        <ele>63</ele>
        <time>2011-04-24T08:27:47Z</time>
      </trkpt>
      <trkpt lat="47.25674" lon="-2.33788">
        <ele>63</ele>
        <time>2011-04-24T08:27:48Z</time>
      </trkpt>
      <trkpt lat="47.25681" lon="-2.3379">
        <ele>63</ele>
        <time>2011-04-24T08:27:49Z</time>
      </trkpt>
      <trkpt lat="47.25686" lon="-2.33792">
        <ele>63</ele>
        <time>2011-04-24T08:27:50Z</time>
      </trkpt>
      <trkpt lat="47.25692" lon="-2.33794">
        <ele>64</ele>
        <time>2011-04-24T08:27:51Z</time>
      </trkpt>
      <trkpt lat="47.25699" lon="-2.33796">
        <ele>64</ele>
        <time>2011-04-24T08:27:52Z</time>
      </trkpt>
      <trkpt lat="47.25705" lon="-2.33798">
        <ele>64</ele>
        <time>2011-04-24T08:27:53Z</time>
      </trkpt>
      <trkpt lat="47.25713" lon="-2.33801">
        <ele>64</ele>
        <time>2011-04-24T08:27:54Z</time>
      </trkpt>
      <trkpt lat="47.2572" lon="-2.33803">
        <ele>64</ele>
        <time>2011-04-24T08:27:55Z</time>
      </trkpt>
      <trkpt lat="47.25726" lon="-2.33805">
        <ele>63</ele>
        <time>2011-04-24T08:27:56Z</time>
      </trkpt>
      <trkpt lat="47.25731" lon="-2.33807">
        <ele>63</ele>
        <time>2011-04-24T08:27:57Z</time>
      </trkpt>
      <trkpt lat="47.25735" lon="-2.33809">
        <ele>62</ele>
        <time>2011-04-24T08:27:58Z</time>
      </trkpt>
      <trkpt lat="47.25741" lon="-2.33812">
        <ele>62</ele>
        <time>2011-04-24T08:27:59Z</time>
      </trkpt>
      <trkpt lat="47.25746" lon="-2.33814">
        <ele>62</ele>
        <time>2011-04-24T08:28:00Z</time>
      </trkpt>
      <trkpt lat="47.25751" lon="-2.33817">
        <ele>62</ele>
        <time>2011-04-24T08:28:01Z</time>
      </trkpt>
      <trkpt lat="47.25756" lon="-2.33819">
        <ele>62</ele>
        <time>2011-04-24T08:28:02Z</time>
      </trkpt>
      <trkpt lat="47.25762" lon="-2.33822">
        <ele>62</ele>
        <time>2011-04-24T08:28:03Z</time>
      </trkpt>
      <trkpt lat="47.25766" lon="-2.33826">
        <ele>61</ele>
        <time>2011-04-24T08:28:04Z</time>
      </trkpt>
      <trkpt lat="47.25771" lon="-2.33828">
        <ele>61</ele>
        <time>2011-04-24T08:28:05Z</time>
      </trkpt>
      <trkpt lat="47.25775" lon="-2.3383">
        <ele>61</ele>
        <time>2011-04-24T08:28:06Z</time>
      </trkpt>
      <trkpt lat="47.25781" lon="-2.33832">
        <ele>61</ele>
        <time>2011-04-24T08:28:07Z</time>
      </trkpt>
      <trkpt lat="47.25787" lon="-2.33834">
        <ele>62</ele>
        <time>2011-04-24T08:28:08Z</time>
      </trkpt>
      <trkpt lat="47.25792" lon="-2.33836">
        <ele>62</ele>
        <time>2011-04-24T08:28:09Z</time>
      </trkpt>
      <trkpt lat="47.25797" lon="-2.33837">
        <ele>62</ele>
        <time>2011-04-24T08:28:10Z</time>
      </trkpt>
      <trkpt lat="47.25802" lon="-2.33838">
        <ele>62</ele>
        <time>2011-04-24T08:28:11Z</time>
      </trkpt>
      <trkpt lat="47.25806" lon="-2.33848">
        <ele>62</ele>
        <time>2011-04-24T08:28:13Z</time>
      </trkpt>
      <trkpt lat="47.25812" lon="-2.3385">
        <ele>60</ele>
        <time>2011-04-24T08:28:14Z</time>
      </trkpt>
      <trkpt lat="47.25817" lon="-2.33852">
        <ele>60</ele>
        <time>2011-04-24T08:28:15Z</time>
      </trkpt>
      <trkpt lat="47.25823" lon="-2.33854">
        <ele>60</ele>
        <time>2011-04-24T08:28:16Z</time>
      </trkpt>
      <trkpt lat="47.25828" lon="-2.33855">
        <ele>60</ele>
        <time>2011-04-24T08:28:17Z</time>
      </trkpt>
      <trkpt lat="47.25833" lon="-2.33857">
        <ele>60</ele>
        <time>2011-04-24T08:28:18Z</time>
      </trkpt>
      <trkpt lat="47.2584" lon="-2.33858">
        <ele>60</ele>
        <time>2011-04-24T08:28:19Z</time>
      </trkpt>
      <trkpt lat="47.25846" lon="-2.33859">
        <ele>60</ele>
        <time>2011-04-24T08:28:20Z</time>
      </trkpt>
      <trkpt lat="47.25851" lon="-2.3386">
        <ele>60</ele>
        <time>2011-04-24T08:28:21Z</time>
      </trkpt>
      <trkpt lat="47.25855" lon="-2.33862">
        <ele>60</ele>
        <time>2011-04-24T08:28:22Z</time>
      </trkpt>
      <trkpt lat="47.25866" lon="-2.33867">
        <ele>60</ele>
        <time>2011-04-24T08:28:24Z</time>
      </trkpt>
      <trkpt lat="47.25871" lon="-2.33868">
        <ele>61</ele>
        <time>2011-04-24T08:28:25Z</time>
      </trkpt>
      <trkpt lat="47.25878" lon="-2.33871">
        <ele>60</ele>
        <time>2011-04-24T08:28:26Z</time>
      </trkpt>
      <trkpt lat="47.25883" lon="-2.33875">
        <ele>61</ele>
        <time>2011-04-24T08:28:27Z</time>
      </trkpt>
      <trkpt lat="47.25895" lon="-2.33873">
        <ele>61</ele>
        <time>2011-04-24T08:28:28Z</time>
      </trkpt>
      <trkpt lat="47.25899" lon="-2.33877">
        <ele>60</ele>
        <time>2011-04-24T08:28:30Z</time>
      </trkpt>
      <trkpt lat="47.25906" lon="-2.33884">
        <ele>59</ele>
        <time>2011-04-24T08:28:33Z</time>
      </trkpt>
      <trkpt lat="47.25913" lon="-2.33888">
        <ele>60</ele>
        <time>2011-04-24T08:28:35Z</time>
      </trkpt>
      <trkpt lat="47.25921" lon="-2.33892">
        <ele>59</ele>
        <time>2011-04-24T08:28:37Z</time>
      </trkpt>
      <trkpt lat="47.25926" lon="-2.33895">
        <ele>59</ele>
        <time>2011-04-24T08:28:38Z</time>
      </trkpt>
      <trkpt lat="47.2593" lon="-2.33898">
        <ele>59</ele>
        <time>2011-04-24T08:28:39Z</time>
      </trkpt>
      <trkpt lat="47.25934" lon="-2.339">
        <ele>59</ele>
        <time>2011-04-24T08:28:40Z</time>
      </trkpt>
      <trkpt lat="47.25938" lon="-2.33906">
        <ele>60</ele>
        <time>2011-04-24T08:28:43Z</time>
      </trkpt>
      <trkpt lat="47.25944" lon="-2.33903">
        <ele>60</ele>
        <time>2011-04-24T08:28:46Z</time>
      </trkpt>
      <trkpt lat="47.2595" lon="-2.33899">
        <ele>60</ele>
        <time>2011-04-24T08:28:48Z</time>
      </trkpt>
      <trkpt lat="47.25955" lon="-2.33897">
        <ele>59</ele>
        <time>2011-04-24T08:28:50Z</time>
      </trkpt>
      <trkpt lat="47.25961" lon="-2.33898">
        <ele>59</ele>
        <time>2011-04-24T08:28:52Z</time>
      </trkpt>
      <trkpt lat="47.25969" lon="-2.33908">
        <ele>60</ele>
        <time>2011-04-24T08:28:55Z</time>
      </trkpt>
      <trkpt lat="47.25973" lon="-2.33915">
        <ele>60</ele>
        <time>2011-04-24T08:28:56Z</time>
      </trkpt>
      <trkpt lat="47.25973" lon="-2.33924">
        <ele>60</ele>
        <time>2011-04-24T08:28:58Z</time>
      </trkpt>
      <trkpt lat="47.25965" lon="-2.33937">
        <ele>62</ele>
        <time>2011-04-24T08:29:00Z</time>
      </trkpt>
      <trkpt lat="47.25961" lon="-2.33945">
        <ele>63</ele>
        <time>2011-04-24T08:29:02Z</time>
      </trkpt>
      <trkpt lat="47.25958" lon="-2.33955">
        <ele>63</ele>
        <time>2011-04-24T08:29:04Z</time>
      </trkpt>
      <trkpt lat="47.25955" lon="-2.33964">
        <ele>64</ele>
        <time>2011-04-24T08:29:06Z</time>
      </trkpt>
      <trkpt lat="47.25951" lon="-2.33972">
        <ele>64</ele>
        <time>2011-04-24T08:29:08Z</time>
      </trkpt>
      <trkpt lat="47.25947" lon="-2.3398">
        <ele>64</ele>
        <time>2011-04-24T08:29:10Z</time>
      </trkpt>
      <trkpt lat="47.25943" lon="-2.33988">
        <ele>65</ele>
        <time>2011-04-24T08:29:12Z</time>
      </trkpt>
      <trkpt lat="47.25941" lon="-2.33996">
        <ele>65</ele>
        <time>2011-04-24T08:29:14Z</time>
      </trkpt>
      <trkpt lat="47.25938" lon="-2.34002">
        <ele>66</ele>
        <time>2011-04-24T08:29:16Z</time>
      </trkpt>
      <trkpt lat="47.25935" lon="-2.34011">
        <ele>68</ele>
        <time>2011-04-24T08:29:19Z</time>
      </trkpt>
      <trkpt lat="47.25934" lon="-2.3402">
        <ele>69</ele>
        <time>2011-04-24T08:29:21Z</time>
      </trkpt>
      <trkpt lat="47.25932" lon="-2.34028">
        <ele>69</ele>
        <time>2011-04-24T08:29:23Z</time>
      </trkpt>
      <trkpt lat="47.25933" lon="-2.34035">
        <ele>70</ele>
        <time>2011-04-24T08:29:25Z</time>
      </trkpt>
      <trkpt lat="47.25932" lon="-2.34042">
        <ele>71</ele>
        <time>2011-04-24T08:29:27Z</time>
      </trkpt>
      <trkpt lat="47.25934" lon="-2.34049">
        <ele>70</ele>
        <time>2011-04-24T08:29:29Z</time>
      </trkpt>
      <trkpt lat="47.25939" lon="-2.34054">
        <ele>69</ele>
        <time>2011-04-24T08:29:31Z</time>
      </trkpt>
      <trkpt lat="47.25943" lon="-2.3406">
        <ele>68</ele>
        <time>2011-04-24T08:29:33Z</time>
      </trkpt>
      <trkpt lat="47.2595" lon="-2.34066">
        <ele>67</ele>
        <time>2011-04-24T08:29:35Z</time>
      </trkpt>
      <trkpt lat="47.25957" lon="-2.3407">
        <ele>68</ele>
        <time>2011-04-24T08:29:37Z</time>
      </trkpt>
      <trkpt lat="47.25966" lon="-2.34073">
        <ele>67</ele>
        <time>2011-04-24T08:29:39Z</time>
      </trkpt>
      <trkpt lat="47.25971" lon="-2.34074">
        <ele>67</ele>
        <time>2011-04-24T08:29:40Z</time>
      </trkpt>
      <trkpt lat="47.25976" lon="-2.34075">
        <ele>66</ele>
        <time>2011-04-24T08:29:41Z</time>
      </trkpt>
      <trkpt lat="47.25983" lon="-2.3408">
        <ele>66</ele>
        <time>2011-04-24T08:29:43Z</time>
      </trkpt>
      <trkpt lat="47.25991" lon="-2.34086">
        <ele>64</ele>
        <time>2011-04-24T08:29:45Z</time>
      </trkpt>
      <trkpt lat="47.25995" lon="-2.34088">
        <ele>64</ele>
        <time>2011-04-24T08:29:46Z</time>
      </trkpt>
      <trkpt lat="47.26002" lon="-2.34092">
        <ele>65</ele>
        <time>2011-04-24T08:29:48Z</time>
      </trkpt>
      <trkpt lat="47.2601" lon="-2.34096">
        <ele>64</ele>
        <time>2011-04-24T08:29:50Z</time>
      </trkpt>
      <trkpt lat="47.2602" lon="-2.34099">
        <ele>63</ele>
        <time>2011-04-24T08:29:52Z</time>
      </trkpt>
      <trkpt lat="47.26029" lon="-2.34103">
        <ele>61</ele>
        <time>2011-04-24T08:29:54Z</time>
      </trkpt>
      <trkpt lat="47.26034" lon="-2.34104">
        <ele>61</ele>
        <time>2011-04-24T08:29:55Z</time>
      </trkpt>
      <trkpt lat="47.26038" lon="-2.34106">
        <ele>62</ele>
        <time>2011-04-24T08:29:56Z</time>
      </trkpt>
      <trkpt lat="47.26043" lon="-2.34109">
        <ele>62</ele>
        <time>2011-04-24T08:29:57Z</time>
      </trkpt>
      <trkpt lat="47.26047" lon="-2.3411">
        <ele>61</ele>
        <time>2011-04-24T08:29:58Z</time>
      </trkpt>
      <trkpt lat="47.26052" lon="-2.34112">
        <ele>61</ele>
        <time>2011-04-24T08:29:59Z</time>
      </trkpt>
      <trkpt lat="47.26056" lon="-2.34114">
        <ele>62</ele>
        <time>2011-04-24T08:30:00Z</time>
      </trkpt>
      <trkpt lat="47.26065" lon="-2.34117">
        <ele>62</ele>
        <time>2011-04-24T08:30:02Z</time>
      </trkpt>
      <trkpt lat="47.26069" lon="-2.34119">
        <ele>62</ele>
        <time>2011-04-24T08:30:03Z</time>
      </trkpt>
      <trkpt lat="47.26074" lon="-2.3412">
        <ele>63</ele>
        <time>2011-04-24T08:30:04Z</time>
      </trkpt>
      <trkpt lat="47.26078" lon="-2.34122">
        <ele>63</ele>
        <time>2011-04-24T08:30:05Z</time>
      </trkpt>
      <trkpt lat="47.26083" lon="-2.34124">
        <ele>63</ele>
        <time>2011-04-24T08:30:06Z</time>
      </trkpt>
      <trkpt lat="47.26088" lon="-2.34127">
        <ele>63</ele>
        <time>2011-04-24T08:30:07Z</time>
      </trkpt>
      <trkpt lat="47.26097" lon="-2.3413">
        <ele>63</ele>
        <time>2011-04-24T08:30:09Z</time>
      </trkpt>
      <trkpt lat="47.26103" lon="-2.34134">
        <ele>65</ele>
        <time>2011-04-24T08:30:11Z</time>
      </trkpt>
      <trkpt lat="47.26109" lon="-2.34136">
        <ele>66</ele>
        <time>2011-04-24T08:30:12Z</time>
      </trkpt>
      <trkpt lat="47.26114" lon="-2.34138">
        <ele>65</ele>
        <time>2011-04-24T08:30:13Z</time>
      </trkpt>
      <trkpt lat="47.26122" lon="-2.34143">
        <ele>65</ele>
        <time>2011-04-24T08:30:15Z</time>
      </trkpt>
      <trkpt lat="47.26127" lon="-2.34146">
        <ele>66</ele>
        <time>2011-04-24T08:30:16Z</time>
      </trkpt>
      <trkpt lat="47.26131" lon="-2.34148">
        <ele>65</ele>
        <time>2011-04-24T08:30:17Z</time>
      </trkpt>
      <trkpt lat="47.26136" lon="-2.34151">
        <ele>65</ele>
        <time>2011-04-24T08:30:19Z</time>
      </trkpt>
      <trkpt lat="47.26141" lon="-2.34156">
        <ele>67</ele>
        <time>2011-04-24T08:30:22Z</time>
      </trkpt>
      <trkpt lat="47.26146" lon="-2.34161">
        <ele>67</ele>
        <time>2011-04-24T08:30:24Z</time>
      </trkpt>
      <trkpt lat="47.26151" lon="-2.34169">
        <ele>67</ele>
        <time>2011-04-24T08:30:26Z</time>
      </trkpt>
      <trkpt lat="47.26154" lon="-2.34173">
        <ele>67</ele>
        <time>2011-04-24T08:30:27Z</time>
      </trkpt>
      <trkpt lat="47.26161" lon="-2.34181">
        <ele>66</ele>
        <time>2011-04-24T08:30:29Z</time>
      </trkpt>
      <trkpt lat="47.26165" lon="-2.34185">
        <ele>66</ele>
        <time>2011-04-24T08:30:30Z</time>
      </trkpt>
      <trkpt lat="47.26172" lon="-2.34193">
        <ele>67</ele>
        <time>2011-04-24T08:30:32Z</time>
      </trkpt>
      <trkpt lat="47.26176" lon="-2.34196">
        <ele>67</ele>
        <time>2011-04-24T08:30:33Z</time>
      </trkpt>
      <trkpt lat="47.26184" lon="-2.34202">
        <ele>66</ele>
        <time>2011-04-24T08:30:35Z</time>
      </trkpt>
      <trkpt lat="47.2619" lon="-2.34209">
        <ele>65</ele>
        <time>2011-04-24T08:30:37Z</time>
      </trkpt>
      <trkpt lat="47.26194" lon="-2.34213">
        <ele>65</ele>
        <time>2011-04-24T08:30:38Z</time>
      </trkpt>
      <trkpt lat="47.26198" lon="-2.34216">
        <ele>65</ele>
        <time>2011-04-24T08:30:39Z</time>
      </trkpt>
      <trkpt lat="47.26201" lon="-2.34222">
        <ele>65</ele>
        <time>2011-04-24T08:30:40Z</time>
      </trkpt>
      <trkpt lat="47.26209" lon="-2.34229">
        <ele>64</ele>
        <time>2011-04-24T08:30:42Z</time>
      </trkpt>
      <trkpt lat="47.26213" lon="-2.34234">
        <ele>64</ele>
        <time>2011-04-24T08:30:43Z</time>
      </trkpt>
      <trkpt lat="47.26222" lon="-2.3424">
        <ele>64</ele>
        <time>2011-04-24T08:30:45Z</time>
      </trkpt>
      <trkpt lat="47.26226" lon="-2.34244">
        <ele>63</ele>
        <time>2011-04-24T08:30:46Z</time>
      </trkpt>
      <trkpt lat="47.26229" lon="-2.34248">
        <ele>63</ele>
        <time>2011-04-24T08:30:47Z</time>
      </trkpt>
      <trkpt lat="47.26235" lon="-2.34254">
        <ele>63</ele>
        <time>2011-04-24T08:30:49Z</time>
      </trkpt>
      <trkpt lat="47.26242" lon="-2.34261">
        <ele>62</ele>
        <time>2011-04-24T08:30:51Z</time>
      </trkpt>
      <trkpt lat="47.26246" lon="-2.34265">
        <ele>62</ele>
        <time>2011-04-24T08:30:52Z</time>
      </trkpt>
      <trkpt lat="47.2625" lon="-2.34268">
        <ele>62</ele>
        <time>2011-04-24T08:30:53Z</time>
      </trkpt>
      <trkpt lat="47.26257" lon="-2.34276">
        <ele>61</ele>
        <time>2011-04-24T08:30:55Z</time>
      </trkpt>
      <trkpt lat="47.2626" lon="-2.3428">
        <ele>62</ele>
        <time>2011-04-24T08:30:56Z</time>
      </trkpt>
      <trkpt lat="47.26264" lon="-2.34284">
        <ele>61</ele>
        <time>2011-04-24T08:30:57Z</time>
      </trkpt>
      <trkpt lat="47.26268" lon="-2.34289">
        <ele>60</ele>
        <time>2011-04-24T08:30:58Z</time>
      </trkpt>
      <trkpt lat="47.26273" lon="-2.34296">
        <ele>60</ele>
        <time>2011-04-24T08:31:00Z</time>
      </trkpt>
      <trkpt lat="47.26279" lon="-2.34303">
        <ele>61</ele>
        <time>2011-04-24T08:31:02Z</time>
      </trkpt>
      <trkpt lat="47.26285" lon="-2.3431">
        <ele>64</ele>
        <time>2011-04-24T08:31:04Z</time>
      </trkpt>
      <trkpt lat="47.26292" lon="-2.34317">
        <ele>65</ele>
        <time>2011-04-24T08:31:06Z</time>
      </trkpt>
      <trkpt lat="47.26298" lon="-2.34322">
        <ele>66</ele>
        <time>2011-04-24T08:31:08Z</time>
      </trkpt>
      <trkpt lat="47.26303" lon="-2.3433">
        <ele>67</ele>
        <time>2011-04-24T08:31:10Z</time>
      </trkpt>
      <trkpt lat="47.26307" lon="-2.34334">
        <ele>66</ele>
        <time>2011-04-24T08:31:11Z</time>
      </trkpt>
      <trkpt lat="47.26314" lon="-2.34341">
        <ele>66</ele>
        <time>2011-04-24T08:31:13Z</time>
      </trkpt>
      <trkpt lat="47.26323" lon="-2.34345">
        <ele>64</ele>
        <time>2011-04-24T08:31:15Z</time>
      </trkpt>
      <trkpt lat="47.26331" lon="-2.34349">
        <ele>63</ele>
        <time>2011-04-24T08:31:17Z</time>
      </trkpt>
      <trkpt lat="47.26336" lon="-2.34356">
        <ele>64</ele>
        <time>2011-04-24T08:31:19Z</time>
      </trkpt>
      <trkpt lat="47.26338" lon="-2.34362">
        <ele>65</ele>
        <time>2011-04-24T08:31:21Z</time>
      </trkpt>
      <trkpt lat="47.26342" lon="-2.34368">
        <ele>65</ele>
        <time>2011-04-24T08:31:23Z</time>
      </trkpt>
      <trkpt lat="47.26348" lon="-2.34374">
        <ele>65</ele>
        <time>2011-04-24T08:31:25Z</time>
      </trkpt>
      <trkpt lat="47.26353" lon="-2.34376">
        <ele>65</ele>
        <time>2011-04-24T08:31:26Z</time>
      </trkpt>
      <trkpt lat="47.2636" lon="-2.34381">
        <ele>65</ele>
        <time>2011-04-24T08:31:28Z</time>
      </trkpt>
      <trkpt lat="47.26367" lon="-2.34385">
        <ele>65</ele>
        <time>2011-04-24T08:31:30Z</time>
      </trkpt>
      <trkpt lat="47.26374" lon="-2.34391">
        <ele>65</ele>
        <time>2011-04-24T08:31:32Z</time>
      </trkpt>
      <trkpt lat="47.2638" lon="-2.34397">
        <ele>64</ele>
        <time>2011-04-24T08:31:34Z</time>
      </trkpt>
      <trkpt lat="47.26387" lon="-2.34402">
        <ele>63</ele>
        <time>2011-04-24T08:31:36Z</time>
      </trkpt>
      <trkpt lat="47.26393" lon="-2.34408">
        <ele>63</ele>
        <time>2011-04-24T08:31:38Z</time>
      </trkpt>
      <trkpt lat="47.26401" lon="-2.34415">
        <ele>62</ele>
        <time>2011-04-24T08:31:40Z</time>
      </trkpt>
      <trkpt lat="47.26408" lon="-2.34421">
        <ele>61</ele>
        <time>2011-04-24T08:31:42Z</time>
      </trkpt>
      <trkpt lat="47.26415" lon="-2.34427">
        <ele>60</ele>
        <time>2011-04-24T08:31:44Z</time>
      </trkpt>
      <trkpt lat="47.26422" lon="-2.34432">
        <ele>60</ele>
        <time>2011-04-24T08:31:46Z</time>
      </trkpt>
      <trkpt lat="47.26429" lon="-2.34438">
        <ele>60</ele>
        <time>2011-04-24T08:31:48Z</time>
      </trkpt>
      <trkpt lat="47.26435" lon="-2.34442">
        <ele>60</ele>
        <time>2011-04-24T08:31:50Z</time>
      </trkpt>
      <trkpt lat="47.26442" lon="-2.34448">
        <ele>59</ele>
        <time>2011-04-24T08:31:52Z</time>
      </trkpt>
      <trkpt lat="47.26448" lon="-2.34453">
        <ele>59</ele>
        <time>2011-04-24T08:31:54Z</time>
      </trkpt>
      <trkpt lat="47.26455" lon="-2.34458">
        <ele>58</ele>
        <time>2011-04-24T08:31:56Z</time>
      </trkpt>
      <trkpt lat="47.26463" lon="-2.34464">
        <ele>59</ele>
        <time>2011-04-24T08:31:58Z</time>
      </trkpt>
      <trkpt lat="47.26467" lon="-2.34466">
        <ele>58</ele>
        <time>2011-04-24T08:31:59Z</time>
      </trkpt>
      <trkpt lat="47.26474" lon="-2.34471">
        <ele>59</ele>
        <time>2011-04-24T08:32:01Z</time>
      </trkpt>
      <trkpt lat="47.26482" lon="-2.34476">
        <ele>58</ele>
        <time>2011-04-24T08:32:03Z</time>
      </trkpt>
      <trkpt lat="47.26489" lon="-2.34481">
        <ele>58</ele>
        <time>2011-04-24T08:32:05Z</time>
      </trkpt>
      <trkpt lat="47.26494" lon="-2.34484">
        <ele>58</ele>
        <time>2011-04-24T08:32:06Z</time>
      </trkpt>
      <trkpt lat="47.265" lon="-2.34489">
        <ele>58</ele>
        <time>2011-04-24T08:32:08Z</time>
      </trkpt>
      <trkpt lat="47.26507" lon="-2.34494">
        <ele>58</ele>
        <time>2011-04-24T08:32:10Z</time>
      </trkpt>
      <trkpt lat="47.26514" lon="-2.34499">
        <ele>58</ele>
        <time>2011-04-24T08:32:12Z</time>
      </trkpt>
      <trkpt lat="47.2652" lon="-2.34501">
        <ele>59</ele>
        <time>2011-04-24T08:32:13Z</time>
      </trkpt>
      <trkpt lat="47.26525" lon="-2.34506">
        <ele>59</ele>
        <time>2011-04-24T08:32:15Z</time>
      </trkpt>
      <trkpt lat="47.26531" lon="-2.34511">
        <ele>59</ele>
        <time>2011-04-24T08:32:17Z</time>
      </trkpt>
      <trkpt lat="47.26536" lon="-2.34515">
        <ele>58</ele>
        <time>2011-04-24T08:32:19Z</time>
      </trkpt>
      <trkpt lat="47.26542" lon="-2.34519">
        <ele>59</ele>
        <time>2011-04-24T08:32:21Z</time>
      </trkpt>
      <trkpt lat="47.2654" lon="-2.34525">
        <ele>62</ele>
        <time>2011-04-24T08:32:23Z</time>
      </trkpt>
      <trkpt lat="47.26545" lon="-2.34531">
        <ele>63</ele>
        <time>2011-04-24T08:32:25Z</time>
      </trkpt>
      <trkpt lat="47.26549" lon="-2.34538">
        <ele>62</ele>
        <time>2011-04-24T08:32:27Z</time>
      </trkpt>
      <trkpt lat="47.26556" lon="-2.34544">
        <ele>62</ele>
        <time>2011-04-24T08:32:29Z</time>
      </trkpt>
      <trkpt lat="47.26561" lon="-2.34545">
        <ele>62</ele>
        <time>2011-04-24T08:32:30Z</time>
      </trkpt>
      <trkpt lat="47.26564" lon="-2.3455">
        <ele>62</ele>
        <time>2011-04-24T08:32:31Z</time>
      </trkpt>
      <trkpt lat="47.26572" lon="-2.34556">
        <ele>62</ele>
        <time>2011-04-24T08:32:33Z</time>
      </trkpt>
      <trkpt lat="47.26581" lon="-2.34563">
        <ele>62</ele>
        <time>2011-04-24T08:32:35Z</time>
      </trkpt>
      <trkpt lat="47.26584" lon="-2.34567">
        <ele>62</ele>
        <time>2011-04-24T08:32:36Z</time>
      </trkpt>
      <trkpt lat="47.26589" lon="-2.3457">
        <ele>63</ele>
        <time>2011-04-24T08:32:37Z</time>
      </trkpt>
      <trkpt lat="47.26595" lon="-2.34573">
        <ele>63</ele>
        <time>2011-04-24T08:32:38Z</time>
      </trkpt>
      <trkpt lat="47.266" lon="-2.34574">
        <ele>65</ele>
        <time>2011-04-24T08:32:39Z</time>
      </trkpt>
      <trkpt lat="47.26604" lon="-2.34581">
        <ele>66</ele>
        <time>2011-04-24T08:32:41Z</time>
      </trkpt>
      <trkpt lat="47.26608" lon="-2.34585">
        <ele>66</ele>
        <time>2011-04-24T08:32:42Z</time>
      </trkpt>
      <trkpt lat="47.26612" lon="-2.34592">
        <ele>65</ele>
        <time>2011-04-24T08:32:44Z</time>
      </trkpt>
      <trkpt lat="47.26616" lon="-2.34597">
        <ele>65</ele>
        <time>2011-04-24T08:32:45Z</time>
      </trkpt>
      <trkpt lat="47.26621" lon="-2.34605">
        <ele>65</ele>
        <time>2011-04-24T08:32:47Z</time>
      </trkpt>
      <trkpt lat="47.26625" lon="-2.34609">
        <ele>65</ele>
        <time>2011-04-24T08:32:48Z</time>
      </trkpt>
      <trkpt lat="47.26631" lon="-2.34617">
        <ele>65</ele>
        <time>2011-04-24T08:32:50Z</time>
      </trkpt>
      <trkpt lat="47.26635" lon="-2.34621">
        <ele>65</ele>
        <time>2011-04-24T08:32:51Z</time>
      </trkpt>
      <trkpt lat="47.2664" lon="-2.34624">
        <ele>65</ele>
        <time>2011-04-24T08:32:52Z</time>
      </trkpt>
      <trkpt lat="47.26647" lon="-2.3463">
        <ele>65</ele>
        <time>2011-04-24T08:32:54Z</time>
      </trkpt>
      <trkpt lat="47.26653" lon="-2.34639">
        <ele>64</ele>
        <time>2011-04-24T08:32:56Z</time>
      </trkpt>
      <trkpt lat="47.26657" lon="-2.34644">
        <ele>64</ele>
        <time>2011-04-24T08:32:57Z</time>
      </trkpt>
      <trkpt lat="47.26663" lon="-2.34652">
        <ele>64</ele>
        <time>2011-04-24T08:32:59Z</time>
      </trkpt>
      <trkpt lat="47.26668" lon="-2.34659">
        <ele>64</ele>
        <time>2011-04-24T08:33:01Z</time>
      </trkpt>
      <trkpt lat="47.26672" lon="-2.34664">
        <ele>65</ele>
        <time>2011-04-24T08:33:02Z</time>
      </trkpt>
      <trkpt lat="47.26676" lon="-2.3467">
        <ele>64</ele>
        <time>2011-04-24T08:33:03Z</time>
      </trkpt>
      <trkpt lat="47.26679" lon="-2.34674">
        <ele>64</ele>
        <time>2011-04-24T08:33:04Z</time>
      </trkpt>
      <trkpt lat="47.26683" lon="-2.34679">
        <ele>63</ele>
        <time>2011-04-24T08:33:05Z</time>
      </trkpt>
      <trkpt lat="47.2669" lon="-2.34686">
        <ele>62</ele>
        <time>2011-04-24T08:33:07Z</time>
      </trkpt>
      <trkpt lat="47.26694" lon="-2.3469">
        <ele>62</ele>
        <time>2011-04-24T08:33:08Z</time>
      </trkpt>
      <trkpt lat="47.26699" lon="-2.34698">
        <ele>62</ele>
        <time>2011-04-24T08:33:10Z</time>
      </trkpt>
      <trkpt lat="47.26703" lon="-2.34704">
        <ele>62</ele>
        <time>2011-04-24T08:33:12Z</time>
      </trkpt>
      <trkpt lat="47.26708" lon="-2.3471">
        <ele>62</ele>
        <time>2011-04-24T08:33:14Z</time>
      </trkpt>
      <trkpt lat="47.26712" lon="-2.34714">
        <ele>62</ele>
        <time>2011-04-24T08:33:15Z</time>
      </trkpt>
      <trkpt lat="47.26718" lon="-2.34722">
        <ele>63</ele>
        <time>2011-04-24T08:33:17Z</time>
      </trkpt>
      <trkpt lat="47.26723" lon="-2.34725">
        <ele>63</ele>
        <time>2011-04-24T08:33:18Z</time>
      </trkpt>
      <trkpt lat="47.26728" lon="-2.34729">
        <ele>62</ele>
        <time>2011-04-24T08:33:19Z</time>
      </trkpt>
      <trkpt lat="47.26734" lon="-2.34736">
        <ele>62</ele>
        <time>2011-04-24T08:33:21Z</time>
      </trkpt>
      <trkpt lat="47.26739" lon="-2.34745">
        <ele>62</ele>
        <time>2011-04-24T08:33:23Z</time>
      </trkpt>
      <trkpt lat="47.26744" lon="-2.34749">
        <ele>61</ele>
        <time>2011-04-24T08:33:24Z</time>
      </trkpt>
      <trkpt lat="47.26748" lon="-2.34759">
        <ele>61</ele>
        <time>2011-04-24T08:33:26Z</time>
      </trkpt>
      <trkpt lat="47.26754" lon="-2.34768">
        <ele>62</ele>
        <time>2011-04-24T08:33:28Z</time>
      </trkpt>
      <trkpt lat="47.2676" lon="-2.34778">
        <ele>63</ele>
        <time>2011-04-24T08:33:30Z</time>
      </trkpt>
      <trkpt lat="47.26764" lon="-2.34782">
        <ele>63</ele>
        <time>2011-04-24T08:33:31Z</time>
      </trkpt>
      <trkpt lat="47.26768" lon="-2.34784">
        <ele>63</ele>
        <time>2011-04-24T08:33:32Z</time>
      </trkpt>
      <trkpt lat="47.26774" lon="-2.34792">
        <ele>64</ele>
        <time>2011-04-24T08:33:34Z</time>
      </trkpt>
      <trkpt lat="47.26778" lon="-2.34798">
        <ele>64</ele>
        <time>2011-04-24T08:33:36Z</time>
      </trkpt>
      <trkpt lat="47.26783" lon="-2.34808">
        <ele>64</ele>
        <time>2011-04-24T08:33:38Z</time>
      </trkpt>
      <trkpt lat="47.26789" lon="-2.34816">
        <ele>63</ele>
        <time>2011-04-24T08:33:40Z</time>
      </trkpt>
      <trkpt lat="47.26794" lon="-2.34826">
        <ele>63</ele>
        <time>2011-04-24T08:33:42Z</time>
      </trkpt>
      <trkpt lat="47.26798" lon="-2.34835">
        <ele>64</ele>
        <time>2011-04-24T08:33:44Z</time>
      </trkpt>
      <trkpt lat="47.26804" lon="-2.34844">
        <ele>63</ele>
        <time>2011-04-24T08:33:46Z</time>
      </trkpt>
      <trkpt lat="47.26809" lon="-2.34852">
        <ele>63</ele>
        <time>2011-04-24T08:33:48Z</time>
      </trkpt>
      <trkpt lat="47.26815" lon="-2.3486">
        <ele>63</ele>
        <time>2011-04-24T08:33:50Z</time>
      </trkpt>
      <trkpt lat="47.2682" lon="-2.34868">
        <ele>63</ele>
        <time>2011-04-24T08:33:52Z</time>
      </trkpt>
      <trkpt lat="47.26826" lon="-2.34877">
        <ele>63</ele>
        <time>2011-04-24T08:33:54Z</time>
      </trkpt>
      <trkpt lat="47.2683" lon="-2.3488">
        <ele>62</ele>
        <time>2011-04-24T08:33:55Z</time>
      </trkpt>
      <trkpt lat="47.26836" lon="-2.34888">
        <ele>62</ele>
        <time>2011-04-24T08:33:57Z</time>
      </trkpt>
      <trkpt lat="47.26841" lon="-2.34897">
        <ele>60</ele>
        <time>2011-04-24T08:33:59Z</time>
      </trkpt>
      <trkpt lat="47.26846" lon="-2.34905">
        <ele>61</ele>
        <time>2011-04-24T08:34:01Z</time>
      </trkpt>
      <trkpt lat="47.26852" lon="-2.34913">
        <ele>61</ele>
        <time>2011-04-24T08:34:03Z</time>
      </trkpt>
      <trkpt lat="47.26855" lon="-2.34918">
        <ele>62</ele>
        <time>2011-04-24T08:34:04Z</time>
      </trkpt>
      <trkpt lat="47.2686" lon="-2.34924">
        <ele>62</ele>
        <time>2011-04-24T08:34:06Z</time>
      </trkpt>
      <trkpt lat="47.26866" lon="-2.34932">
        <ele>62</ele>
        <time>2011-04-24T08:34:08Z</time>
      </trkpt>
      <trkpt lat="47.26871" lon="-2.34939">
        <ele>62</ele>
        <time>2011-04-24T08:34:10Z</time>
      </trkpt>
      <trkpt lat="47.26876" lon="-2.34947">
        <ele>62</ele>
        <time>2011-04-24T08:34:12Z</time>
      </trkpt>
      <trkpt lat="47.26881" lon="-2.34953">
        <ele>62</ele>
        <time>2011-04-24T08:34:14Z</time>
      </trkpt>
      <trkpt lat="47.26887" lon="-2.3496">
        <ele>61</ele>
        <time>2011-04-24T08:34:16Z</time>
      </trkpt>
      <trkpt lat="47.26891" lon="-2.34965">
        <ele>62</ele>
        <time>2011-04-24T08:34:18Z</time>
      </trkpt>
      <trkpt lat="47.26897" lon="-2.34973">
        <ele>64</ele>
        <time>2011-04-24T08:34:20Z</time>
      </trkpt>
      <trkpt lat="47.269" lon="-2.3498">
        <ele>65</ele>
        <time>2011-04-24T08:34:22Z</time>
      </trkpt>
      <trkpt lat="47.26904" lon="-2.34988">
        <ele>66</ele>
        <time>2011-04-24T08:34:24Z</time>
      </trkpt>
      <trkpt lat="47.26909" lon="-2.34998">
        <ele>65</ele>
        <time>2011-04-24T08:34:26Z</time>
      </trkpt>
      <trkpt lat="47.26913" lon="-2.35003">
        <ele>65</ele>
        <time>2011-04-24T08:34:27Z</time>
      </trkpt>
      <trkpt lat="47.26916" lon="-2.35009">
        <ele>65</ele>
        <time>2011-04-24T08:34:28Z</time>
      </trkpt>
      <trkpt lat="47.26922" lon="-2.35018">
        <ele>63</ele>
        <time>2011-04-24T08:34:30Z</time>
      </trkpt>
      <trkpt lat="47.26928" lon="-2.35026">
        <ele>63</ele>
        <time>2011-04-24T08:34:32Z</time>
      </trkpt>
      <trkpt lat="47.26933" lon="-2.35035">
        <ele>63</ele>
        <time>2011-04-24T08:34:34Z</time>
      </trkpt>
      <trkpt lat="47.26938" lon="-2.35045">
        <ele>63</ele>
        <time>2011-04-24T08:34:36Z</time>
      </trkpt>
      <trkpt lat="47.26943" lon="-2.35052">
        <ele>63</ele>
        <time>2011-04-24T08:34:38Z</time>
      </trkpt>
      <trkpt lat="47.26947" lon="-2.35058">
        <ele>62</ele>
        <time>2011-04-24T08:34:39Z</time>
      </trkpt>
      <trkpt lat="47.26951" lon="-2.35064">
        <ele>63</ele>
        <time>2011-04-24T08:34:40Z</time>
      </trkpt>
      <trkpt lat="47.26957" lon="-2.35071">
        <ele>63</ele>
        <time>2011-04-24T08:34:42Z</time>
      </trkpt>
      <trkpt lat="47.2696" lon="-2.35075">
        <ele>63</ele>
        <time>2011-04-24T08:34:43Z</time>
      </trkpt>
      <trkpt lat="47.26965" lon="-2.3508">
        <ele>63</ele>
        <time>2011-04-24T08:34:44Z</time>
      </trkpt>
      <trkpt lat="47.26969" lon="-2.35086">
        <ele>62</ele>
        <time>2011-04-24T08:34:45Z</time>
      </trkpt>
      <trkpt lat="47.26974" lon="-2.35096">
        <ele>62</ele>
        <time>2011-04-24T08:34:47Z</time>
      </trkpt>
      <trkpt lat="47.26982" lon="-2.35103">
        <ele>61</ele>
        <time>2011-04-24T08:34:49Z</time>
      </trkpt>
      <trkpt lat="47.2699" lon="-2.35108">
        <ele>61</ele>
        <time>2011-04-24T08:34:51Z</time>
      </trkpt>
      <trkpt lat="47.26994" lon="-2.35113">
        <ele>61</ele>
        <time>2011-04-24T08:34:52Z</time>
      </trkpt>
      <trkpt lat="47.26998" lon="-2.35119">
        <ele>60</ele>
        <time>2011-04-24T08:34:53Z</time>
      </trkpt>
      <trkpt lat="47.27003" lon="-2.35128">
        <ele>61</ele>
        <time>2011-04-24T08:34:55Z</time>
      </trkpt>
      <trkpt lat="47.27006" lon="-2.35133">
        <ele>62</ele>
        <time>2011-04-24T08:34:56Z</time>
      </trkpt>
      <trkpt lat="47.2701" lon="-2.35143">
        <ele>62</ele>
        <time>2011-04-24T08:34:58Z</time>
      </trkpt>
      <trkpt lat="47.27014" lon="-2.35148">
        <ele>62</ele>
        <time>2011-04-24T08:34:59Z</time>
      </trkpt>
      <trkpt lat="47.27017" lon="-2.35152">
        <ele>63</ele>
        <time>2011-04-24T08:35:00Z</time>
      </trkpt>
      <trkpt lat="47.2702" lon="-2.35161">
        <ele>63</ele>
        <time>2011-04-24T08:35:02Z</time>
      </trkpt>
      <trkpt lat="47.27025" lon="-2.3517">
        <ele>63</ele>
        <time>2011-04-24T08:35:04Z</time>
      </trkpt>
      <trkpt lat="47.27028" lon="-2.35176">
        <ele>63</ele>
        <time>2011-04-24T08:35:05Z</time>
      </trkpt>
      <trkpt lat="47.27031" lon="-2.3518">
        <ele>62</ele>
        <time>2011-04-24T08:35:06Z</time>
      </trkpt>
      <trkpt lat="47.27035" lon="-2.3519">
        <ele>64</ele>
        <time>2011-04-24T08:35:08Z</time>
      </trkpt>
      <trkpt lat="47.27041" lon="-2.35199">
        <ele>63</ele>
        <time>2011-04-24T08:35:10Z</time>
      </trkpt>
      <trkpt lat="47.27048" lon="-2.35207">
        <ele>63</ele>
        <time>2011-04-24T08:35:12Z</time>
      </trkpt>
      <trkpt lat="47.27054" lon="-2.35215">
        <ele>64</ele>
        <time>2011-04-24T08:35:14Z</time>
      </trkpt>
      <trkpt lat="47.2706" lon="-2.35224">
        <ele>64</ele>
        <time>2011-04-24T08:35:16Z</time>
      </trkpt>
      <trkpt lat="47.27063" lon="-2.3523">
        <ele>63</ele>
        <time>2011-04-24T08:35:17Z</time>
      </trkpt>
      <trkpt lat="47.2707" lon="-2.35238">
        <ele>62</ele>
        <time>2011-04-24T08:35:19Z</time>
      </trkpt>
      <trkpt lat="47.27073" lon="-2.35243">
        <ele>62</ele>
        <time>2011-04-24T08:35:20Z</time>
      </trkpt>
      <trkpt lat="47.2708" lon="-2.35251">
        <ele>61</ele>
        <time>2011-04-24T08:35:22Z</time>
      </trkpt>
      <trkpt lat="47.27085" lon="-2.3526">
        <ele>60</ele>
        <time>2011-04-24T08:35:24Z</time>
      </trkpt>
      <trkpt lat="47.27089" lon="-2.35264">
        <ele>60</ele>
        <time>2011-04-24T08:35:25Z</time>
      </trkpt>
      <trkpt lat="47.27092" lon="-2.35269">
        <ele>60</ele>
        <time>2011-04-24T08:35:26Z</time>
      </trkpt>
      <trkpt lat="47.27097" lon="-2.35278">
        <ele>60</ele>
        <time>2011-04-24T08:35:28Z</time>
      </trkpt>
      <trkpt lat="47.27103" lon="-2.35288">
        <ele>60</ele>
        <time>2011-04-24T08:35:30Z</time>
      </trkpt>
      <trkpt lat="47.27105" lon="-2.35294">
        <ele>60</ele>
        <time>2011-04-24T08:35:31Z</time>
      </trkpt>
      <trkpt lat="47.27111" lon="-2.35303">
        <ele>60</ele>
        <time>2011-04-24T08:35:33Z</time>
      </trkpt>
      <trkpt lat="47.27116" lon="-2.35313">
        <ele>60</ele>
        <time>2011-04-24T08:35:35Z</time>
      </trkpt>
      <trkpt lat="47.27121" lon="-2.35322">
        <ele>60</ele>
        <time>2011-04-24T08:35:37Z</time>
      </trkpt>
      <trkpt lat="47.27127" lon="-2.35332">
        <ele>60</ele>
        <time>2011-04-24T08:35:39Z</time>
      </trkpt>
      <trkpt lat="47.2713" lon="-2.35336">
        <ele>60</ele>
        <time>2011-04-24T08:35:40Z</time>
      </trkpt>
      <trkpt lat="47.27135" lon="-2.35346">
        <ele>60</ele>
        <time>2011-04-24T08:35:42Z</time>
      </trkpt>
      <trkpt lat="47.27141" lon="-2.35356">
        <ele>60</ele>
        <time>2011-04-24T08:35:44Z</time>
      </trkpt>
      <trkpt lat="47.27144" lon="-2.35361">
        <ele>60</ele>
        <time>2011-04-24T08:35:45Z</time>
      </trkpt>
      <trkpt lat="47.27149" lon="-2.35371">
        <ele>60</ele>
        <time>2011-04-24T08:35:47Z</time>
      </trkpt>
      <trkpt lat="47.27155" lon="-2.3538">
        <ele>61</ele>
        <time>2011-04-24T08:35:49Z</time>
      </trkpt>
      <trkpt lat="47.2716" lon="-2.35391">
        <ele>61</ele>
        <time>2011-04-24T08:35:51Z</time>
      </trkpt>
      <trkpt lat="47.27162" lon="-2.35396">
        <ele>60</ele>
        <time>2011-04-24T08:35:52Z</time>
      </trkpt>
      <trkpt lat="47.27167" lon="-2.35405">
        <ele>60</ele>
        <time>2011-04-24T08:35:54Z</time>
      </trkpt>
      <trkpt lat="47.27172" lon="-2.35415">
        <ele>59</ele>
        <time>2011-04-24T08:35:56Z</time>
      </trkpt>
      <trkpt lat="47.27178" lon="-2.35424">
        <ele>60</ele>
        <time>2011-04-24T08:35:58Z</time>
      </trkpt>
      <trkpt lat="47.27182" lon="-2.35429">
        <ele>60</ele>
        <time>2011-04-24T08:35:59Z</time>
      </trkpt>
      <trkpt lat="47.27185" lon="-2.35434">
        <ele>59</ele>
        <time>2011-04-24T08:36:00Z</time>
      </trkpt>
      <trkpt lat="47.27187" lon="-2.35439">
        <ele>60</ele>
        <time>2011-04-24T08:36:01Z</time>
      </trkpt>
      <trkpt lat="47.2719" lon="-2.35445">
        <ele>60</ele>
        <time>2011-04-24T08:36:02Z</time>
      </trkpt>
      <trkpt lat="47.27194" lon="-2.3545">
        <ele>60</ele>
        <time>2011-04-24T08:36:03Z</time>
      </trkpt>
      <trkpt lat="47.27199" lon="-2.3546">
        <ele>60</ele>
        <time>2011-04-24T08:36:05Z</time>
      </trkpt>
      <trkpt lat="47.27203" lon="-2.35468">
        <ele>60</ele>
        <time>2011-04-24T08:36:07Z</time>
      </trkpt>
      <trkpt lat="47.2721" lon="-2.35477">
        <ele>60</ele>
        <time>2011-04-24T08:36:09Z</time>
      </trkpt>
      <trkpt lat="47.27214" lon="-2.35487">
        <ele>60</ele>
        <time>2011-04-24T08:36:11Z</time>
      </trkpt>
      <trkpt lat="47.2722" lon="-2.35495">
        <ele>60</ele>
        <time>2011-04-24T08:36:13Z</time>
      </trkpt>
      <trkpt lat="47.27224" lon="-2.35506">
        <ele>60</ele>
        <time>2011-04-24T08:36:15Z</time>
      </trkpt>
      <trkpt lat="47.27226" lon="-2.35514">
        <ele>61</ele>
        <time>2011-04-24T08:36:16Z</time>
      </trkpt>
      <trkpt lat="47.27228" lon="-2.3552">
        <ele>60</ele>
        <time>2011-04-24T08:36:17Z</time>
      </trkpt>
      <trkpt lat="47.27232" lon="-2.35526">
        <ele>60</ele>
        <time>2011-04-24T08:36:18Z</time>
      </trkpt>
      <trkpt lat="47.27235" lon="-2.35536">
        <ele>60</ele>
        <time>2011-04-24T08:36:20Z</time>
      </trkpt>
      <trkpt lat="47.27237" lon="-2.35548">
        <ele>60</ele>
        <time>2011-04-24T08:36:22Z</time>
      </trkpt>
      <trkpt lat="47.2724" lon="-2.35554">
        <ele>61</ele>
        <time>2011-04-24T08:36:23Z</time>
      </trkpt>
      <trkpt lat="47.27243" lon="-2.35561">
        <ele>61</ele>
        <time>2011-04-24T08:36:24Z</time>
      </trkpt>
      <trkpt lat="47.27246" lon="-2.35566">
        <ele>60</ele>
        <time>2011-04-24T08:36:25Z</time>
      </trkpt>
      <trkpt lat="47.2725" lon="-2.35577">
        <ele>60</ele>
        <time>2011-04-24T08:36:27Z</time>
      </trkpt>
      <trkpt lat="47.27252" lon="-2.35583">
        <ele>60</ele>
        <time>2011-04-24T08:36:28Z</time>
      </trkpt>
      <trkpt lat="47.27255" lon="-2.35589">
        <ele>60</ele>
        <time>2011-04-24T08:36:29Z</time>
      </trkpt>
      <trkpt lat="47.27258" lon="-2.35594">
        <ele>60</ele>
        <time>2011-04-24T08:36:30Z</time>
      </trkpt>
      <trkpt lat="47.2726" lon="-2.35599">
        <ele>60</ele>
        <time>2011-04-24T08:36:31Z</time>
      </trkpt>
      <trkpt lat="47.27263" lon="-2.35606">
        <ele>61</ele>
        <time>2011-04-24T08:36:32Z</time>
      </trkpt>
      <trkpt lat="47.27266" lon="-2.35612">
        <ele>60</ele>
        <time>2011-04-24T08:36:33Z</time>
      </trkpt>
      <trkpt lat="47.27268" lon="-2.35617">
        <ele>60</ele>
        <time>2011-04-24T08:36:34Z</time>
      </trkpt>
      <trkpt lat="47.27274" lon="-2.35628">
        <ele>59</ele>
        <time>2011-04-24T08:36:36Z</time>
      </trkpt>
      <trkpt lat="47.27276" lon="-2.35635">
        <ele>60</ele>
        <time>2011-04-24T08:36:37Z</time>
      </trkpt>
      <trkpt lat="47.27278" lon="-2.35641">
        <ele>60</ele>
        <time>2011-04-24T08:36:38Z</time>
      </trkpt>
      <trkpt lat="47.27282" lon="-2.35646">
        <ele>60</ele>
        <time>2011-04-24T08:36:39Z</time>
      </trkpt>
      <trkpt lat="47.27285" lon="-2.35653">
        <ele>60</ele>
        <time>2011-04-24T08:36:40Z</time>
      </trkpt>
      <trkpt lat="47.27287" lon="-2.35659">
        <ele>60</ele>
        <time>2011-04-24T08:36:41Z</time>
      </trkpt>
      <trkpt lat="47.2729" lon="-2.35665">
        <ele>60</ele>
        <time>2011-04-24T08:36:42Z</time>
      </trkpt>
      <trkpt lat="47.27293" lon="-2.3567">
        <ele>60</ele>
        <time>2011-04-24T08:36:43Z</time>
      </trkpt>
      <trkpt lat="47.27297" lon="-2.35676">
        <ele>59</ele>
        <time>2011-04-24T08:36:44Z</time>
      </trkpt>
      <trkpt lat="47.273" lon="-2.3568">
        <ele>58</ele>
        <time>2011-04-24T08:36:45Z</time>
      </trkpt>
      <trkpt lat="47.27303" lon="-2.35686">
        <ele>59</ele>
        <time>2011-04-24T08:36:46Z</time>
      </trkpt>
      <trkpt lat="47.27309" lon="-2.35698">
        <ele>58</ele>
        <time>2011-04-24T08:36:48Z</time>
      </trkpt>
      <trkpt lat="47.27311" lon="-2.35703">
        <ele>59</ele>
        <time>2011-04-24T08:36:49Z</time>
      </trkpt>
      <trkpt lat="47.27313" lon="-2.35709">
        <ele>58</ele>
        <time>2011-04-24T08:36:50Z</time>
      </trkpt>
      <trkpt lat="47.27316" lon="-2.35714">
        <ele>58</ele>
        <time>2011-04-24T08:36:51Z</time>
      </trkpt>
      <trkpt lat="47.27322" lon="-2.35724">
        <ele>58</ele>
        <time>2011-04-24T08:36:53Z</time>
      </trkpt>
      <trkpt lat="47.27325" lon="-2.35735">
        <ele>59</ele>
        <time>2011-04-24T08:36:55Z</time>
      </trkpt>
      <trkpt lat="47.27327" lon="-2.35741">
        <ele>59</ele>
        <time>2011-04-24T08:36:56Z</time>
      </trkpt>
      <trkpt lat="47.2733" lon="-2.35754">
        <ele>60</ele>
        <time>2011-04-24T08:36:58Z</time>
      </trkpt>
      <trkpt lat="47.27334" lon="-2.35764">
        <ele>59</ele>
        <time>2011-04-24T08:37:00Z</time>
      </trkpt>
      <trkpt lat="47.27336" lon="-2.3577">
        <ele>59</ele>
        <time>2011-04-24T08:37:01Z</time>
      </trkpt>
      <trkpt lat="47.2734" lon="-2.3578">
        <ele>59</ele>
        <time>2011-04-24T08:37:03Z</time>
      </trkpt>
      <trkpt lat="47.27343" lon="-2.35791">
        <ele>60</ele>
        <time>2011-04-24T08:37:05Z</time>
      </trkpt>
      <trkpt lat="47.27347" lon="-2.35802">
        <ele>60</ele>
        <time>2011-04-24T08:37:07Z</time>
      </trkpt>
      <trkpt lat="47.2735" lon="-2.35812">
        <ele>59</ele>
        <time>2011-04-24T08:37:09Z</time>
      </trkpt>
      <trkpt lat="47.27354" lon="-2.35822">
        <ele>59</ele>
        <time>2011-04-24T08:37:11Z</time>
      </trkpt>
      <trkpt lat="47.27358" lon="-2.35832">
        <ele>60</ele>
        <time>2011-04-24T08:37:13Z</time>
      </trkpt>
      <trkpt lat="47.27363" lon="-2.35842">
        <ele>60</ele>
        <time>2011-04-24T08:37:15Z</time>
      </trkpt>
      <trkpt lat="47.27368" lon="-2.35852">
        <ele>60</ele>
        <time>2011-04-24T08:37:17Z</time>
      </trkpt>
      <trkpt lat="47.27372" lon="-2.35863">
        <ele>60</ele>
        <time>2011-04-24T08:37:19Z</time>
      </trkpt>
      <trkpt lat="47.27375" lon="-2.35869">
        <ele>60</ele>
        <time>2011-04-24T08:37:20Z</time>
      </trkpt>
      <trkpt lat="47.27379" lon="-2.35879">
        <ele>60</ele>
        <time>2011-04-24T08:37:22Z</time>
      </trkpt>
      <trkpt lat="47.27384" lon="-2.3589">
        <ele>60</ele>
        <time>2011-04-24T08:37:24Z</time>
      </trkpt>
      <trkpt lat="47.27385" lon="-2.35902">
        <ele>62</ele>
        <time>2011-04-24T08:37:26Z</time>
      </trkpt>
      <trkpt lat="47.27387" lon="-2.35908">
        <ele>62</ele>
        <time>2011-04-24T08:37:27Z</time>
      </trkpt>
      <trkpt lat="47.27391" lon="-2.35919">
        <ele>63</ele>
        <time>2011-04-24T08:37:29Z</time>
      </trkpt>
      <trkpt lat="47.27395" lon="-2.35929">
        <ele>64</ele>
        <time>2011-04-24T08:37:31Z</time>
      </trkpt>
      <trkpt lat="47.274" lon="-2.35939">
        <ele>63</ele>
        <time>2011-04-24T08:37:33Z</time>
      </trkpt>
      <trkpt lat="47.27405" lon="-2.3595">
        <ele>64</ele>
        <time>2011-04-24T08:37:35Z</time>
      </trkpt>
      <trkpt lat="47.2741" lon="-2.35959">
        <ele>62</ele>
        <time>2011-04-24T08:37:37Z</time>
      </trkpt>
      <trkpt lat="47.27414" lon="-2.35969">
        <ele>62</ele>
        <time>2011-04-24T08:37:39Z</time>
      </trkpt>
      <trkpt lat="47.27418" lon="-2.35981">
        <ele>62</ele>
        <time>2011-04-24T08:37:41Z</time>
      </trkpt>
      <trkpt lat="47.27422" lon="-2.3599">
        <ele>62</ele>
        <time>2011-04-24T08:37:43Z</time>
      </trkpt>
      <trkpt lat="47.27425" lon="-2.35997">
        <ele>62</ele>
        <time>2011-04-24T08:37:45Z</time>
      </trkpt>
      <trkpt lat="47.2743" lon="-2.36005">
        <ele>61</ele>
        <time>2011-04-24T08:37:47Z</time>
      </trkpt>
      <trkpt lat="47.27433" lon="-2.36015">
        <ele>63</ele>
        <time>2011-04-24T08:37:49Z</time>
      </trkpt>
      <trkpt lat="47.27438" lon="-2.36024">
        <ele>63</ele>
        <time>2011-04-24T08:37:51Z</time>
      </trkpt>
      <trkpt lat="47.27443" lon="-2.36034">
        <ele>63</ele>
        <time>2011-04-24T08:37:53Z</time>
      </trkpt>
      <trkpt lat="47.27446" lon="-2.36044">
        <ele>63</ele>
        <time>2011-04-24T08:37:55Z</time>
      </trkpt>
      <trkpt lat="47.27449" lon="-2.36052">
        <ele>63</ele>
        <time>2011-04-24T08:37:57Z</time>
      </trkpt>
      <trkpt lat="47.27452" lon="-2.36061">
        <ele>62</ele>
        <time>2011-04-24T08:37:59Z</time>
      </trkpt>
      <trkpt lat="47.27456" lon="-2.36068">
        <ele>62</ele>
        <time>2011-04-24T08:38:01Z</time>
      </trkpt>
      <trkpt lat="47.27459" lon="-2.36078">
        <ele>62</ele>
        <time>2011-04-24T08:38:03Z</time>
      </trkpt>
      <trkpt lat="47.27461" lon="-2.3609">
        <ele>64</ele>
        <time>2011-04-24T08:38:05Z</time>
      </trkpt>
      <trkpt lat="47.27464" lon="-2.361">
        <ele>65</ele>
        <time>2011-04-24T08:38:07Z</time>
      </trkpt>
      <trkpt lat="47.27467" lon="-2.36111">
        <ele>66</ele>
        <time>2011-04-24T08:38:09Z</time>
      </trkpt>
      <trkpt lat="47.27472" lon="-2.36121">
        <ele>66</ele>
        <time>2011-04-24T08:38:11Z</time>
      </trkpt>
      <trkpt lat="47.27475" lon="-2.36131">
        <ele>66</ele>
        <time>2011-04-24T08:38:13Z</time>
      </trkpt>
      <trkpt lat="47.27479" lon="-2.36143">
        <ele>66</ele>
        <time>2011-04-24T08:38:15Z</time>
      </trkpt>
      <trkpt lat="47.27481" lon="-2.36149">
        <ele>66</ele>
        <time>2011-04-24T08:38:16Z</time>
      </trkpt>
      <trkpt lat="47.27484" lon="-2.36159">
        <ele>66</ele>
        <time>2011-04-24T08:38:18Z</time>
      </trkpt>
      <trkpt lat="47.27488" lon="-2.3617">
        <ele>66</ele>
        <time>2011-04-24T08:38:20Z</time>
      </trkpt>
      <trkpt lat="47.27492" lon="-2.3618">
        <ele>66</ele>
        <time>2011-04-24T08:38:22Z</time>
      </trkpt>
      <trkpt lat="47.27495" lon="-2.36189">
        <ele>66</ele>
        <time>2011-04-24T08:38:24Z</time>
      </trkpt>
      <trkpt lat="47.27499" lon="-2.362">
        <ele>66</ele>
        <time>2011-04-24T08:38:26Z</time>
      </trkpt>
      <trkpt lat="47.27503" lon="-2.36209">
        <ele>66</ele>
        <time>2011-04-24T08:38:28Z</time>
      </trkpt>
      <trkpt lat="47.27507" lon="-2.36218">
        <ele>66</ele>
        <time>2011-04-24T08:38:30Z</time>
      </trkpt>
      <trkpt lat="47.27511" lon="-2.36227">
        <ele>67</ele>
        <time>2011-04-24T08:38:32Z</time>
      </trkpt>
      <trkpt lat="47.27516" lon="-2.36237">
        <ele>67</ele>
        <time>2011-04-24T08:38:34Z</time>
      </trkpt>
      <trkpt lat="47.2752" lon="-2.36247">
        <ele>67</ele>
        <time>2011-04-24T08:38:36Z</time>
      </trkpt>
      <trkpt lat="47.27522" lon="-2.36253">
        <ele>66</ele>
        <time>2011-04-24T08:38:37Z</time>
      </trkpt>
      <trkpt lat="47.27526" lon="-2.36264">
        <ele>65</ele>
        <time>2011-04-24T08:38:39Z</time>
      </trkpt>
      <trkpt lat="47.27528" lon="-2.36269">
        <ele>65</ele>
        <time>2011-04-24T08:38:40Z</time>
      </trkpt>
      <trkpt lat="47.27533" lon="-2.3628">
        <ele>64</ele>
        <time>2011-04-24T08:38:42Z</time>
      </trkpt>
      <trkpt lat="47.27537" lon="-2.36291">
        <ele>63</ele>
        <time>2011-04-24T08:38:44Z</time>
      </trkpt>
      <trkpt lat="47.27539" lon="-2.36297">
        <ele>63</ele>
        <time>2011-04-24T08:38:45Z</time>
      </trkpt>
      <trkpt lat="47.27541" lon="-2.36303">
        <ele>62</ele>
        <time>2011-04-24T08:38:46Z</time>
      </trkpt>
      <trkpt lat="47.27544" lon="-2.36308">
        <ele>63</ele>
        <time>2011-04-24T08:38:47Z</time>
      </trkpt>
      <trkpt lat="47.27549" lon="-2.36319">
        <ele>63</ele>
        <time>2011-04-24T08:38:49Z</time>
      </trkpt>
      <trkpt lat="47.27553" lon="-2.36329">
        <ele>62</ele>
        <time>2011-04-24T08:38:51Z</time>
      </trkpt>
      <trkpt lat="47.27556" lon="-2.3634">
        <ele>62</ele>
        <time>2011-04-24T08:38:53Z</time>
      </trkpt>
      <trkpt lat="47.27558" lon="-2.36351">
        <ele>65</ele>
        <time>2011-04-24T08:38:55Z</time>
      </trkpt>
      <trkpt lat="47.27562" lon="-2.36363">
        <ele>66</ele>
        <time>2011-04-24T08:38:57Z</time>
      </trkpt>
      <trkpt lat="47.27566" lon="-2.36373">
        <ele>66</ele>
        <time>2011-04-24T08:38:59Z</time>
      </trkpt>
      <trkpt lat="47.27568" lon="-2.3638">
        <ele>66</ele>
        <time>2011-04-24T08:39:00Z</time>
      </trkpt>
      <trkpt lat="47.27572" lon="-2.3639">
        <ele>66</ele>
        <time>2011-04-24T08:39:02Z</time>
      </trkpt>
      <trkpt lat="47.27576" lon="-2.36402">
        <ele>66</ele>
        <time>2011-04-24T08:39:04Z</time>
      </trkpt>
      <trkpt lat="47.27578" lon="-2.36412">
        <ele>67</ele>
        <time>2011-04-24T08:39:06Z</time>
      </trkpt>
      <trkpt lat="47.27583" lon="-2.36423">
        <ele>66</ele>
        <time>2011-04-24T08:39:08Z</time>
      </trkpt>
      <trkpt lat="47.27586" lon="-2.36428">
        <ele>67</ele>
        <time>2011-04-24T08:39:09Z</time>
      </trkpt>
      <trkpt lat="47.2759" lon="-2.36438">
        <ele>66</ele>
        <time>2011-04-24T08:39:11Z</time>
      </trkpt>
      <trkpt lat="47.27594" lon="-2.36448">
        <ele>66</ele>
        <time>2011-04-24T08:39:13Z</time>
      </trkpt>
      <trkpt lat="47.27599" lon="-2.36458">
        <ele>66</ele>
        <time>2011-04-24T08:39:15Z</time>
      </trkpt>
      <trkpt lat="47.27603" lon="-2.36468">
        <ele>67</ele>
        <time>2011-04-24T08:39:17Z</time>
      </trkpt>
      <trkpt lat="47.27605" lon="-2.36474">
        <ele>67</ele>
        <time>2011-04-24T08:39:18Z</time>
      </trkpt>
      <trkpt lat="47.27608" lon="-2.36482">
        <ele>67</ele>
        <time>2011-04-24T08:39:19Z</time>
      </trkpt>
      <trkpt lat="47.27611" lon="-2.36493">
        <ele>67</ele>
        <time>2011-04-24T08:39:21Z</time>
      </trkpt>
      <trkpt lat="47.27614" lon="-2.36503">
        <ele>68</ele>
        <time>2011-04-24T08:39:23Z</time>
      </trkpt>
      <trkpt lat="47.27617" lon="-2.36512">
        <ele>68</ele>
        <time>2011-04-24T08:39:25Z</time>
      </trkpt>
      <trkpt lat="47.2762" lon="-2.36524">
        <ele>69</ele>
        <time>2011-04-24T08:39:27Z</time>
      </trkpt>
      <trkpt lat="47.27624" lon="-2.36535">
        <ele>68</ele>
        <time>2011-04-24T08:39:29Z</time>
      </trkpt>
      <trkpt lat="47.27627" lon="-2.36546">
        <ele>68</ele>
        <time>2011-04-24T08:39:31Z</time>
      </trkpt>
      <trkpt lat="47.27629" lon="-2.36552">
        <ele>68</ele>
        <time>2011-04-24T08:39:32Z</time>
      </trkpt>
      <trkpt lat="47.27634" lon="-2.36563">
        <ele>69</ele>
        <time>2011-04-24T08:39:34Z</time>
      </trkpt>
      <trkpt lat="47.27636" lon="-2.3657">
        <ele>69</ele>
        <time>2011-04-24T08:39:35Z</time>
      </trkpt>
      <trkpt lat="47.27641" lon="-2.36581">
        <ele>68</ele>
        <time>2011-04-24T08:39:37Z</time>
      </trkpt>
      <trkpt lat="47.27644" lon="-2.36587">
        <ele>67</ele>
        <time>2011-04-24T08:39:38Z</time>
      </trkpt>
      <trkpt lat="47.27646" lon="-2.36593">
        <ele>67</ele>
        <time>2011-04-24T08:39:39Z</time>
      </trkpt>
      <trkpt lat="47.27649" lon="-2.36604">
        <ele>67</ele>
        <time>2011-04-24T08:39:41Z</time>
      </trkpt>
      <trkpt lat="47.27653" lon="-2.36614">
        <ele>68</ele>
        <time>2011-04-24T08:39:43Z</time>
      </trkpt>
      <trkpt lat="47.27656" lon="-2.36621">
        <ele>68</ele>
        <time>2011-04-24T08:39:44Z</time>
      </trkpt>
      <trkpt lat="47.27658" lon="-2.36627">
        <ele>67</ele>
        <time>2011-04-24T08:39:45Z</time>
      </trkpt>
      <trkpt lat="47.27662" lon="-2.36639">
        <ele>68</ele>
        <time>2011-04-24T08:39:47Z</time>
      </trkpt>
      <trkpt lat="47.27664" lon="-2.36645">
        <ele>67</ele>
        <time>2011-04-24T08:39:48Z</time>
      </trkpt>
      <trkpt lat="47.27668" lon="-2.36651">
        <ele>66</ele>
        <time>2011-04-24T08:39:49Z</time>
      </trkpt>
      <trkpt lat="47.27669" lon="-2.36664">
        <ele>67</ele>
        <time>2011-04-24T08:39:51Z</time>
      </trkpt>
      <trkpt lat="47.27672" lon="-2.36675">
        <ele>68</ele>
        <time>2011-04-24T08:39:53Z</time>
      </trkpt>
      <trkpt lat="47.27674" lon="-2.36687">
        <ele>69</ele>
        <time>2011-04-24T08:39:55Z</time>
      </trkpt>
      <trkpt lat="47.27677" lon="-2.36693">
        <ele>69</ele>
        <time>2011-04-24T08:39:56Z</time>
      </trkpt>
      <trkpt lat="47.27679" lon="-2.36704">
        <ele>69</ele>
        <time>2011-04-24T08:39:58Z</time>
      </trkpt>
      <trkpt lat="47.27681" lon="-2.3671">
        <ele>68</ele>
        <time>2011-04-24T08:39:59Z</time>
      </trkpt>
      <trkpt lat="47.27687" lon="-2.3672">
        <ele>69</ele>
        <time>2011-04-24T08:40:01Z</time>
      </trkpt>
      <trkpt lat="47.2769" lon="-2.3673">
        <ele>69</ele>
        <time>2011-04-24T08:40:03Z</time>
      </trkpt>
      <trkpt lat="47.27694" lon="-2.36741">
        <ele>69</ele>
        <time>2011-04-24T08:40:05Z</time>
      </trkpt>
      <trkpt lat="47.27699" lon="-2.3675">
        <ele>68</ele>
        <time>2011-04-24T08:40:07Z</time>
      </trkpt>
      <trkpt lat="47.27704" lon="-2.36762">
        <ele>68</ele>
        <time>2011-04-24T08:40:09Z</time>
      </trkpt>
      <trkpt lat="47.27707" lon="-2.36768">
        <ele>68</ele>
        <time>2011-04-24T08:40:10Z</time>
      </trkpt>
      <trkpt lat="47.27709" lon="-2.3678">
        <ele>68</ele>
        <time>2011-04-24T08:40:12Z</time>
      </trkpt>
      <trkpt lat="47.27712" lon="-2.36785">
        <ele>68</ele>
        <time>2011-04-24T08:40:13Z</time>
      </trkpt>
      <trkpt lat="47.27716" lon="-2.36796">
        <ele>68</ele>
        <time>2011-04-24T08:40:15Z</time>
      </trkpt>
      <trkpt lat="47.27718" lon="-2.36807">
        <ele>69</ele>
        <time>2011-04-24T08:40:17Z</time>
      </trkpt>
      <trkpt lat="47.27722" lon="-2.36819">
        <ele>69</ele>
        <time>2011-04-24T08:40:19Z</time>
      </trkpt>
      <trkpt lat="47.27724" lon="-2.36824">
        <ele>69</ele>
        <time>2011-04-24T08:40:20Z</time>
      </trkpt>
      <trkpt lat="47.27726" lon="-2.36835">
        <ele>69</ele>
        <time>2011-04-24T08:40:22Z</time>
      </trkpt>
      <trkpt lat="47.27729" lon="-2.36842">
        <ele>68</ele>
        <time>2011-04-24T08:40:23Z</time>
      </trkpt>
      <trkpt lat="47.27731" lon="-2.36848">
        <ele>68</ele>
        <time>2011-04-24T08:40:24Z</time>
      </trkpt>
      <trkpt lat="47.27734" lon="-2.36859">
        <ele>68</ele>
        <time>2011-04-24T08:40:26Z</time>
      </trkpt>
      <trkpt lat="47.27736" lon="-2.36868">
        <ele>68</ele>
        <time>2011-04-24T08:40:28Z</time>
      </trkpt>
      <trkpt lat="47.27738" lon="-2.3688">
        <ele>68</ele>
        <time>2011-04-24T08:40:30Z</time>
      </trkpt>
      <trkpt lat="47.2774" lon="-2.36887">
        <ele>67</ele>
        <time>2011-04-24T08:40:31Z</time>
      </trkpt>
      <trkpt lat="47.27741" lon="-2.36894">
        <ele>67</ele>
        <time>2011-04-24T08:40:32Z</time>
      </trkpt>
      <trkpt lat="47.27744" lon="-2.36907">
        <ele>68</ele>
        <time>2011-04-24T08:40:34Z</time>
      </trkpt>
      <trkpt lat="47.27748" lon="-2.36918">
        <ele>69</ele>
        <time>2011-04-24T08:40:36Z</time>
      </trkpt>
      <trkpt lat="47.27752" lon="-2.3693">
        <ele>68</ele>
        <time>2011-04-24T08:40:38Z</time>
      </trkpt>
      <trkpt lat="47.27754" lon="-2.36936">
        <ele>68</ele>
        <time>2011-04-24T08:40:39Z</time>
      </trkpt>
      <trkpt lat="47.27756" lon="-2.36943">
        <ele>67</ele>
        <time>2011-04-24T08:40:40Z</time>
      </trkpt>
      <trkpt lat="47.27758" lon="-2.3695">
        <ele>67</ele>
        <time>2011-04-24T08:40:41Z</time>
      </trkpt>
      <trkpt lat="47.2776" lon="-2.36956">
        <ele>67</ele>
        <time>2011-04-24T08:40:42Z</time>
      </trkpt>
      <trkpt lat="47.27762" lon="-2.36963">
        <ele>67</ele>
        <time>2011-04-24T08:40:43Z</time>
      </trkpt>
      <trkpt lat="47.27764" lon="-2.36969">
        <ele>67</ele>
        <time>2011-04-24T08:40:44Z</time>
      </trkpt>
      <trkpt lat="47.27765" lon="-2.36976">
        <ele>67</ele>
        <time>2011-04-24T08:40:45Z</time>
      </trkpt>
      <trkpt lat="47.27768" lon="-2.36988">
        <ele>68</ele>
        <time>2011-04-24T08:40:47Z</time>
      </trkpt>
      <trkpt lat="47.27772" lon="-2.37001">
        <ele>67</ele>
        <time>2011-04-24T08:40:49Z</time>
      </trkpt>
      <trkpt lat="47.27773" lon="-2.37007">
        <ele>67</ele>
        <time>2011-04-24T08:40:50Z</time>
      </trkpt>
      <trkpt lat="47.27775" lon="-2.37014">
        <ele>67</ele>
        <time>2011-04-24T08:40:51Z</time>
      </trkpt>
      <trkpt lat="47.27777" lon="-2.3702">
        <ele>67</ele>
        <time>2011-04-24T08:40:52Z</time>
      </trkpt>
      <trkpt lat="47.2778" lon="-2.37027">
        <ele>67</ele>
        <time>2011-04-24T08:40:53Z</time>
      </trkpt>
      <trkpt lat="47.27782" lon="-2.37034">
        <ele>66</ele>
        <time>2011-04-24T08:40:54Z</time>
      </trkpt>
      <trkpt lat="47.27784" lon="-2.3704">
        <ele>67</ele>
        <time>2011-04-24T08:40:55Z</time>
      </trkpt>
      <trkpt lat="47.27786" lon="-2.37046">
        <ele>67</ele>
        <time>2011-04-24T08:40:56Z</time>
      </trkpt>
      <trkpt lat="47.27788" lon="-2.37053">
        <ele>67</ele>
        <time>2011-04-24T08:40:57Z</time>
      </trkpt>
      <trkpt lat="47.27791" lon="-2.37065">
        <ele>67</ele>
        <time>2011-04-24T08:40:59Z</time>
      </trkpt>
      <trkpt lat="47.27792" lon="-2.37077">
        <ele>67</ele>
        <time>2011-04-24T08:41:01Z</time>
      </trkpt>
      <trkpt lat="47.27794" lon="-2.37083">
        <ele>68</ele>
        <time>2011-04-24T08:41:02Z</time>
      </trkpt>
      <trkpt lat="47.27796" lon="-2.3709">
        <ele>68</ele>
        <time>2011-04-24T08:41:03Z</time>
      </trkpt>
      <trkpt lat="47.27798" lon="-2.37097">
        <ele>68</ele>
        <time>2011-04-24T08:41:04Z</time>
      </trkpt>
      <trkpt lat="47.27801" lon="-2.37109">
        <ele>68</ele>
        <time>2011-04-24T08:41:06Z</time>
      </trkpt>
      <trkpt lat="47.27804" lon="-2.37117">
        <ele>68</ele>
        <time>2011-04-24T08:41:07Z</time>
      </trkpt>
      <trkpt lat="47.27808" lon="-2.37124">
        <ele>68</ele>
        <time>2011-04-24T08:41:08Z</time>
      </trkpt>
      <trkpt lat="47.27809" lon="-2.3713">
        <ele>67</ele>
        <time>2011-04-24T08:41:09Z</time>
      </trkpt>
      <trkpt lat="47.27813" lon="-2.37143">
        <ele>68</ele>
        <time>2011-04-24T08:41:11Z</time>
      </trkpt>
      <trkpt lat="47.27819" lon="-2.37161">
        <ele>66</ele>
        <time>2011-04-24T08:41:14Z</time>
      </trkpt>
      <trkpt lat="47.27825" lon="-2.3717">
        <ele>64</ele>
        <time>2011-04-24T08:41:16Z</time>
      </trkpt>
      <trkpt lat="47.2783" lon="-2.37179">
        <ele>64</ele>
        <time>2011-04-24T08:41:18Z</time>
      </trkpt>
      <trkpt lat="47.27834" lon="-2.37189">
        <ele>63</ele>
        <time>2011-04-24T08:41:20Z</time>
      </trkpt>
      <trkpt lat="47.27834" lon="-2.37198">
        <ele>63</ele>
        <time>2011-04-24T08:41:22Z</time>
      </trkpt>
      <trkpt lat="47.27836" lon="-2.3721">
        <ele>63</ele>
        <time>2011-04-24T08:41:24Z</time>
      </trkpt>
      <trkpt lat="47.27838" lon="-2.37222">
        <ele>62</ele>
        <time>2011-04-24T08:41:26Z</time>
      </trkpt>
      <trkpt lat="47.27841" lon="-2.37231">
        <ele>63</ele>
        <time>2011-04-24T08:41:28Z</time>
      </trkpt>
      <trkpt lat="47.27843" lon="-2.37242">
        <ele>63</ele>
        <time>2011-04-24T08:41:30Z</time>
      </trkpt>
      <trkpt lat="47.27846" lon="-2.37254">
        <ele>62</ele>
        <time>2011-04-24T08:41:32Z</time>
      </trkpt>
      <trkpt lat="47.27848" lon="-2.37266">
        <ele>62</ele>
        <time>2011-04-24T08:41:34Z</time>
      </trkpt>
      <trkpt lat="47.27852" lon="-2.37277">
        <ele>61</ele>
        <time>2011-04-24T08:41:36Z</time>
      </trkpt>
      <trkpt lat="47.27854" lon="-2.37288">
        <ele>61</ele>
        <time>2011-04-24T08:41:38Z</time>
      </trkpt>
      <trkpt lat="47.27856" lon="-2.373">
        <ele>62</ele>
        <time>2011-04-24T08:41:40Z</time>
      </trkpt>
      <trkpt lat="47.2786" lon="-2.3731">
        <ele>62</ele>
        <time>2011-04-24T08:41:42Z</time>
      </trkpt>
      <trkpt lat="47.27861" lon="-2.37317">
        <ele>61</ele>
        <time>2011-04-24T08:41:43Z</time>
      </trkpt>
      <trkpt lat="47.27864" lon="-2.37329">
        <ele>61</ele>
        <time>2011-04-24T08:41:45Z</time>
      </trkpt>
      <trkpt lat="47.27867" lon="-2.3734">
        <ele>62</ele>
        <time>2011-04-24T08:41:47Z</time>
      </trkpt>
      <trkpt lat="47.2787" lon="-2.37351">
        <ele>63</ele>
        <time>2011-04-24T08:41:49Z</time>
      </trkpt>
      <trkpt lat="47.27871" lon="-2.37357">
        <ele>63</ele>
        <time>2011-04-24T08:41:50Z</time>
      </trkpt>
      <trkpt lat="47.27874" lon="-2.37369">
        <ele>63</ele>
        <time>2011-04-24T08:41:52Z</time>
      </trkpt>
      <trkpt lat="47.27877" lon="-2.3738">
        <ele>63</ele>
        <time>2011-04-24T08:41:54Z</time>
      </trkpt>
      <trkpt lat="47.2788" lon="-2.37391">
        <ele>64</ele>
        <time>2011-04-24T08:41:56Z</time>
      </trkpt>
      <trkpt lat="47.27882" lon="-2.37397">
        <ele>63</ele>
        <time>2011-04-24T08:41:57Z</time>
      </trkpt>
      <trkpt lat="47.27884" lon="-2.3741">
        <ele>63</ele>
        <time>2011-04-24T08:41:59Z</time>
      </trkpt>
      <trkpt lat="47.27885" lon="-2.37416">
        <ele>63</ele>
        <time>2011-04-24T08:42:00Z</time>
      </trkpt>
      <trkpt lat="47.27887" lon="-2.37423">
        <ele>63</ele>
        <time>2011-04-24T08:42:01Z</time>
      </trkpt>
      <trkpt lat="47.27888" lon="-2.3743">
        <ele>63</ele>
        <time>2011-04-24T08:42:02Z</time>
      </trkpt>
      <trkpt lat="47.2789" lon="-2.37436">
        <ele>63</ele>
        <time>2011-04-24T08:42:03Z</time>
      </trkpt>
      <trkpt lat="47.27891" lon="-2.37442">
        <ele>63</ele>
        <time>2011-04-24T08:42:04Z</time>
      </trkpt>
      <trkpt lat="47.27892" lon="-2.37449">
        <ele>63</ele>
        <time>2011-04-24T08:42:05Z</time>
      </trkpt>
      <trkpt lat="47.27894" lon="-2.37456">
        <ele>63</ele>
        <time>2011-04-24T08:42:06Z</time>
      </trkpt>
      <trkpt lat="47.27895" lon="-2.37463">
        <ele>63</ele>
        <time>2011-04-24T08:42:07Z</time>
      </trkpt>
      <trkpt lat="47.27898" lon="-2.37469">
        <ele>63</ele>
        <time>2011-04-24T08:42:08Z</time>
      </trkpt>
      <trkpt lat="47.279" lon="-2.37475">
        <ele>63</ele>
        <time>2011-04-24T08:42:09Z</time>
      </trkpt>
      <trkpt lat="47.27901" lon="-2.37482">
        <ele>63</ele>
        <time>2011-04-24T08:42:10Z</time>
      </trkpt>
      <trkpt lat="47.27903" lon="-2.37488">
        <ele>63</ele>
        <time>2011-04-24T08:42:11Z</time>
      </trkpt>
      <trkpt lat="47.27904" lon="-2.37494">
        <ele>62</ele>
        <time>2011-04-24T08:42:12Z</time>
      </trkpt>
      <trkpt lat="47.27907" lon="-2.37506">
        <ele>63</ele>
        <time>2011-04-24T08:42:14Z</time>
      </trkpt>
      <trkpt lat="47.2791" lon="-2.37516">
        <ele>63</ele>
        <time>2011-04-24T08:42:16Z</time>
      </trkpt>
      <trkpt lat="47.27912" lon="-2.37527">
        <ele>64</ele>
        <time>2011-04-24T08:42:18Z</time>
      </trkpt>
      <trkpt lat="47.27914" lon="-2.37536">
        <ele>64</ele>
        <time>2011-04-24T08:42:20Z</time>
      </trkpt>
      <trkpt lat="47.27916" lon="-2.37546">
        <ele>64</ele>
        <time>2011-04-24T08:42:22Z</time>
      </trkpt>
      <trkpt lat="47.27917" lon="-2.37555">
        <ele>64</ele>
        <time>2011-04-24T08:42:24Z</time>
      </trkpt>
      <trkpt lat="47.27918" lon="-2.37562">
        <ele>65</ele>
        <time>2011-04-24T08:42:26Z</time>
      </trkpt>
      <trkpt lat="47.27918" lon="-2.37572">
        <ele>66</ele>
        <time>2011-04-24T08:42:29Z</time>
      </trkpt>
      <trkpt lat="47.27921" lon="-2.37579">
        <ele>65</ele>
        <time>2011-04-24T08:42:31Z</time>
      </trkpt>
      <trkpt lat="47.27923" lon="-2.37587">
        <ele>65</ele>
        <time>2011-04-24T08:42:33Z</time>
      </trkpt>
      <trkpt lat="47.27925" lon="-2.37597">
        <ele>66</ele>
        <time>2011-04-24T08:42:35Z</time>
      </trkpt>
      <trkpt lat="47.27928" lon="-2.37607">
        <ele>65</ele>
        <time>2011-04-24T08:42:37Z</time>
      </trkpt>
      <trkpt lat="47.27931" lon="-2.37616">
        <ele>65</ele>
        <time>2011-04-24T08:42:39Z</time>
      </trkpt>
      <trkpt lat="47.27934" lon="-2.37624">
        <ele>65</ele>
        <time>2011-04-24T08:42:41Z</time>
      </trkpt>
      <trkpt lat="47.27937" lon="-2.37634">
        <ele>65</ele>
        <time>2011-04-24T08:42:43Z</time>
      </trkpt>
      <trkpt lat="47.27939" lon="-2.37644">
        <ele>65</ele>
        <time>2011-04-24T08:42:45Z</time>
      </trkpt>
      <trkpt lat="47.27942" lon="-2.37648">
        <ele>62</ele>
        <time>2011-04-24T08:42:46Z</time>
      </trkpt>
      <trkpt lat="47.27943" lon="-2.37658">
        <ele>63</ele>
        <time>2011-04-24T08:42:48Z</time>
      </trkpt>
      <trkpt lat="47.27945" lon="-2.37669">
        <ele>64</ele>
        <time>2011-04-24T08:42:50Z</time>
      </trkpt>
      <trkpt lat="47.27949" lon="-2.37681">
        <ele>62</ele>
        <time>2011-04-24T08:42:52Z</time>
      </trkpt>
      <trkpt lat="47.27951" lon="-2.37687">
        <ele>62</ele>
        <time>2011-04-24T08:42:53Z</time>
      </trkpt>
      <trkpt lat="47.27953" lon="-2.37693">
        <ele>61</ele>
        <time>2011-04-24T08:42:54Z</time>
      </trkpt>
      <trkpt lat="47.27954" lon="-2.377">
        <ele>61</ele>
        <time>2011-04-24T08:42:55Z</time>
      </trkpt>
      <trkpt lat="47.27956" lon="-2.37706">
        <ele>61</ele>
        <time>2011-04-24T08:42:56Z</time>
      </trkpt>
      <trkpt lat="47.27958" lon="-2.37713">
        <ele>61</ele>
        <time>2011-04-24T08:42:57Z</time>
      </trkpt>
      <trkpt lat="47.27959" lon="-2.3772">
        <ele>61</ele>
        <time>2011-04-24T08:42:58Z</time>
      </trkpt>
      <trkpt lat="47.27962" lon="-2.37732">
        <ele>62</ele>
        <time>2011-04-24T08:43:00Z</time>
      </trkpt>
      <trkpt lat="47.27965" lon="-2.37744">
        <ele>61</ele>
        <time>2011-04-24T08:43:02Z</time>
      </trkpt>
      <trkpt lat="47.27968" lon="-2.37757">
        <ele>61</ele>
        <time>2011-04-24T08:43:04Z</time>
      </trkpt>
      <trkpt lat="47.2797" lon="-2.37763">
        <ele>62</ele>
        <time>2011-04-24T08:43:05Z</time>
      </trkpt>
      <trkpt lat="47.27973" lon="-2.37775">
        <ele>61</ele>
        <time>2011-04-24T08:43:07Z</time>
      </trkpt>
      <trkpt lat="47.27975" lon="-2.37781">
        <ele>61</ele>
        <time>2011-04-24T08:43:08Z</time>
      </trkpt>
      <trkpt lat="47.27979" lon="-2.37791">
        <ele>60</ele>
        <time>2011-04-24T08:43:10Z</time>
      </trkpt>
      <trkpt lat="47.27982" lon="-2.37802">
        <ele>60</ele>
        <time>2011-04-24T08:43:12Z</time>
      </trkpt>
      <trkpt lat="47.27982" lon="-2.37814">
        <ele>60</ele>
        <time>2011-04-24T08:43:14Z</time>
      </trkpt>
      <trkpt lat="47.27982" lon="-2.37827">
        <ele>60</ele>
        <time>2011-04-24T08:43:16Z</time>
      </trkpt>
      <trkpt lat="47.27984" lon="-2.37839">
        <ele>60</ele>
        <time>2011-04-24T08:43:18Z</time>
      </trkpt>
      <trkpt lat="47.27986" lon="-2.37845">
        <ele>60</ele>
        <time>2011-04-24T08:43:19Z</time>
      </trkpt>
      <trkpt lat="47.27987" lon="-2.37852">
        <ele>61</ele>
        <time>2011-04-24T08:43:20Z</time>
      </trkpt>
      <trkpt lat="47.27988" lon="-2.37858">
        <ele>60</ele>
        <time>2011-04-24T08:43:21Z</time>
      </trkpt>
      <trkpt lat="47.2799" lon="-2.37871">
        <ele>60</ele>
        <time>2011-04-24T08:43:23Z</time>
      </trkpt>
      <trkpt lat="47.27991" lon="-2.37877">
        <ele>59</ele>
        <time>2011-04-24T08:43:24Z</time>
      </trkpt>
      <trkpt lat="47.27993" lon="-2.37889">
        <ele>60</ele>
        <time>2011-04-24T08:43:26Z</time>
      </trkpt>
      <trkpt lat="47.27994" lon="-2.37895">
        <ele>60</ele>
        <time>2011-04-24T08:43:27Z</time>
      </trkpt>
      <trkpt lat="47.27997" lon="-2.37906">
        <ele>60</ele>
        <time>2011-04-24T08:43:29Z</time>
      </trkpt>
      <trkpt lat="47.27999" lon="-2.37918">
        <ele>60</ele>
        <time>2011-04-24T08:43:31Z</time>
      </trkpt>
      <trkpt lat="47.28002" lon="-2.37931">
        <ele>60</ele>
        <time>2011-04-24T08:43:33Z</time>
      </trkpt>
      <trkpt lat="47.28004" lon="-2.37943">
        <ele>60</ele>
        <time>2011-04-24T08:43:35Z</time>
      </trkpt>
      <trkpt lat="47.28005" lon="-2.37955">
        <ele>60</ele>
        <time>2011-04-24T08:43:37Z</time>
      </trkpt>
      <trkpt lat="47.28008" lon="-2.37968">
        <ele>60</ele>
        <time>2011-04-24T08:43:39Z</time>
      </trkpt>
      <trkpt lat="47.28009" lon="-2.37974">
        <ele>60</ele>
        <time>2011-04-24T08:43:40Z</time>
      </trkpt>
      <trkpt lat="47.2801" lon="-2.37981">
        <ele>60</ele>
        <time>2011-04-24T08:43:41Z</time>
      </trkpt>
      <trkpt lat="47.28011" lon="-2.37987">
        <ele>60</ele>
        <time>2011-04-24T08:43:42Z</time>
      </trkpt>
      <trkpt lat="47.28012" lon="-2.37994">
        <ele>60</ele>
        <time>2011-04-24T08:43:43Z</time>
      </trkpt>
      <trkpt lat="47.28014" lon="-2.38002">
        <ele>60</ele>
        <time>2011-04-24T08:43:44Z</time>
      </trkpt>
      <trkpt lat="47.28015" lon="-2.38008">
        <ele>60</ele>
        <time>2011-04-24T08:43:45Z</time>
      </trkpt>
      <trkpt lat="47.28016" lon="-2.38015">
        <ele>60</ele>
        <time>2011-04-24T08:43:46Z</time>
      </trkpt>
      <trkpt lat="47.28018" lon="-2.38022">
        <ele>60</ele>
        <time>2011-04-24T08:43:47Z</time>
      </trkpt>
      <trkpt lat="47.2802" lon="-2.38033">
        <ele>60</ele>
        <time>2011-04-24T08:43:49Z</time>
      </trkpt>
      <trkpt lat="47.28022" lon="-2.3804">
        <ele>61</ele>
        <time>2011-04-24T08:43:50Z</time>
      </trkpt>
      <trkpt lat="47.28024" lon="-2.38051">
        <ele>62</ele>
        <time>2011-04-24T08:43:52Z</time>
      </trkpt>
      <trkpt lat="47.28025" lon="-2.38061">
        <ele>61</ele>
        <time>2011-04-24T08:43:54Z</time>
      </trkpt>
      <trkpt lat="47.28028" lon="-2.38073">
        <ele>62</ele>
        <time>2011-04-24T08:43:56Z</time>
      </trkpt>
      <trkpt lat="47.28031" lon="-2.38085">
        <ele>62</ele>
        <time>2011-04-24T08:43:58Z</time>
      </trkpt>
      <trkpt lat="47.28033" lon="-2.38097">
        <ele>62</ele>
        <time>2011-04-24T08:44:00Z</time>
      </trkpt>
      <trkpt lat="47.28034" lon="-2.38103">
        <ele>62</ele>
        <time>2011-04-24T08:44:01Z</time>
      </trkpt>
      <trkpt lat="47.28036" lon="-2.3811">
        <ele>62</ele>
        <time>2011-04-24T08:44:02Z</time>
      </trkpt>
      <trkpt lat="47.28037" lon="-2.38122">
        <ele>61</ele>
        <time>2011-04-24T08:44:04Z</time>
      </trkpt>
      <trkpt lat="47.28039" lon="-2.38134">
        <ele>62</ele>
        <time>2011-04-24T08:44:06Z</time>
      </trkpt>
      <trkpt lat="47.28039" lon="-2.38145">
        <ele>63</ele>
        <time>2011-04-24T08:44:08Z</time>
      </trkpt>
      <trkpt lat="47.2804" lon="-2.38152">
        <ele>62</ele>
        <time>2011-04-24T08:44:09Z</time>
      </trkpt>
      <trkpt lat="47.28044" lon="-2.38163">
        <ele>62</ele>
        <time>2011-04-24T08:44:11Z</time>
      </trkpt>
      <trkpt lat="47.28045" lon="-2.3817">
        <ele>62</ele>
        <time>2011-04-24T08:44:12Z</time>
      </trkpt>
      <trkpt lat="47.28047" lon="-2.38182">
        <ele>63</ele>
        <time>2011-04-24T08:44:14Z</time>
      </trkpt>
      <trkpt lat="47.28048" lon="-2.38192">
        <ele>64</ele>
        <time>2011-04-24T08:44:16Z</time>
      </trkpt>
      <trkpt lat="47.2805" lon="-2.38203">
        <ele>64</ele>
        <time>2011-04-24T08:44:18Z</time>
      </trkpt>
      <trkpt lat="47.28052" lon="-2.38213">
        <ele>64</ele>
        <time>2011-04-24T08:44:20Z</time>
      </trkpt>
      <trkpt lat="47.28054" lon="-2.3822">
        <ele>63</ele>
        <time>2011-04-24T08:44:21Z</time>
      </trkpt>
      <trkpt lat="47.28056" lon="-2.38232">
        <ele>63</ele>
        <time>2011-04-24T08:44:23Z</time>
      </trkpt>
      <trkpt lat="47.28058" lon="-2.3824">
        <ele>62</ele>
        <time>2011-04-24T08:44:24Z</time>
      </trkpt>
      <trkpt lat="47.2806" lon="-2.38247">
        <ele>62</ele>
        <time>2011-04-24T08:44:25Z</time>
      </trkpt>
      <trkpt lat="47.28061" lon="-2.38254">
        <ele>61</ele>
        <time>2011-04-24T08:44:26Z</time>
      </trkpt>
      <trkpt lat="47.28063" lon="-2.3826">
        <ele>60</ele>
        <time>2011-04-24T08:44:27Z</time>
      </trkpt>
      <trkpt lat="47.28065" lon="-2.38266">
        <ele>60</ele>
        <time>2011-04-24T08:44:28Z</time>
      </trkpt>
      <trkpt lat="47.28067" lon="-2.38272">
        <ele>60</ele>
        <time>2011-04-24T08:44:29Z</time>
      </trkpt>
      <trkpt lat="47.28067" lon="-2.38284">
        <ele>61</ele>
        <time>2011-04-24T08:44:31Z</time>
      </trkpt>
      <trkpt lat="47.2807" lon="-2.38295">
        <ele>61</ele>
        <time>2011-04-24T08:44:33Z</time>
      </trkpt>
      <trkpt lat="47.28071" lon="-2.38301">
        <ele>61</ele>
        <time>2011-04-24T08:44:34Z</time>
      </trkpt>
      <trkpt lat="47.28072" lon="-2.38308">
        <ele>61</ele>
        <time>2011-04-24T08:44:35Z</time>
      </trkpt>
      <trkpt lat="47.28074" lon="-2.3832">
        <ele>61</ele>
        <time>2011-04-24T08:44:37Z</time>
      </trkpt>
      <trkpt lat="47.28076" lon="-2.38332">
        <ele>62</ele>
        <time>2011-04-24T08:44:39Z</time>
      </trkpt>
      <trkpt lat="47.28078" lon="-2.38344">
        <ele>62</ele>
        <time>2011-04-24T08:44:41Z</time>
      </trkpt>
      <trkpt lat="47.28079" lon="-2.38351">
        <ele>62</ele>
        <time>2011-04-24T08:44:42Z</time>
      </trkpt>
      <trkpt lat="47.2808" lon="-2.38364">
        <ele>63</ele>
        <time>2011-04-24T08:44:44Z</time>
      </trkpt>
      <trkpt lat="47.28082" lon="-2.38377">
        <ele>64</ele>
        <time>2011-04-24T08:44:46Z</time>
      </trkpt>
      <trkpt lat="47.28084" lon="-2.38384">
        <ele>64</ele>
        <time>2011-04-24T08:44:47Z</time>
      </trkpt>
      <trkpt lat="47.28085" lon="-2.38392">
        <ele>64</ele>
        <time>2011-04-24T08:44:48Z</time>
      </trkpt>
      <trkpt lat="47.28086" lon="-2.38399">
        <ele>64</ele>
        <time>2011-04-24T08:44:49Z</time>
      </trkpt>
      <trkpt lat="47.28087" lon="-2.38406">
        <ele>64</ele>
        <time>2011-04-24T08:44:50Z</time>
      </trkpt>
      <trkpt lat="47.28088" lon="-2.38413">
        <ele>64</ele>
        <time>2011-04-24T08:44:51Z</time>
      </trkpt>
      <trkpt lat="47.28089" lon="-2.38419">
        <ele>64</ele>
        <time>2011-04-24T08:44:52Z</time>
      </trkpt>
      <trkpt lat="47.28091" lon="-2.38426">
        <ele>64</ele>
        <time>2011-04-24T08:44:53Z</time>
      </trkpt>
      <trkpt lat="47.28091" lon="-2.38433">
        <ele>63</ele>
        <time>2011-04-24T08:44:54Z</time>
      </trkpt>
      <trkpt lat="47.28093" lon="-2.3844">
        <ele>63</ele>
        <time>2011-04-24T08:44:55Z</time>
      </trkpt>
      <trkpt lat="47.28095" lon="-2.38446">
        <ele>63</ele>
        <time>2011-04-24T08:44:56Z</time>
      </trkpt>
      <trkpt lat="47.28097" lon="-2.38458">
        <ele>63</ele>
        <time>2011-04-24T08:44:58Z</time>
      </trkpt>
      <trkpt lat="47.28098" lon="-2.38469">
        <ele>64</ele>
        <time>2011-04-24T08:45:00Z</time>
      </trkpt>
      <trkpt lat="47.28099" lon="-2.38476">
        <ele>64</ele>
        <time>2011-04-24T08:45:01Z</time>
      </trkpt>
      <trkpt lat="47.28101" lon="-2.38488">
        <ele>64</ele>
        <time>2011-04-24T08:45:03Z</time>
      </trkpt>
      <trkpt lat="47.28104" lon="-2.385">
        <ele>63</ele>
        <time>2011-04-24T08:45:05Z</time>
      </trkpt>
      <trkpt lat="47.28105" lon="-2.38507">
        <ele>63</ele>
        <time>2011-04-24T08:45:06Z</time>
      </trkpt>
      <trkpt lat="47.28107" lon="-2.38514">
        <ele>63</ele>
        <time>2011-04-24T08:45:07Z</time>
      </trkpt>
      <trkpt lat="47.28108" lon="-2.3852">
        <ele>64</ele>
        <time>2011-04-24T08:45:08Z</time>
      </trkpt>
      <trkpt lat="47.28109" lon="-2.38532">
        <ele>64</ele>
        <time>2011-04-24T08:45:10Z</time>
      </trkpt>
      <trkpt lat="47.28111" lon="-2.38544">
        <ele>64</ele>
        <time>2011-04-24T08:45:12Z</time>
      </trkpt>
      <trkpt lat="47.28112" lon="-2.38556">
        <ele>63</ele>
        <time>2011-04-24T08:45:14Z</time>
      </trkpt>
      <trkpt lat="47.28114" lon="-2.38566">
        <ele>63</ele>
        <time>2011-04-24T08:45:16Z</time>
      </trkpt>
      <trkpt lat="47.28115" lon="-2.38574">
        <ele>62</ele>
        <time>2011-04-24T08:45:18Z</time>
      </trkpt>
      <trkpt lat="47.28118" lon="-2.38582">
        <ele>62</ele>
        <time>2011-04-24T08:45:22Z</time>
      </trkpt>
      <trkpt lat="47.28116" lon="-2.38588">
        <ele>63</ele>
        <time>2011-04-24T08:45:26Z</time>
      </trkpt>
      <trkpt lat="47.28119" lon="-2.38595">
        <ele>65</ele>
        <time>2011-04-24T08:45:36Z</time>
      </trkpt>
      <trkpt lat="47.2812" lon="-2.38606">
        <ele>65</ele>
        <time>2011-04-24T08:45:38Z</time>
      </trkpt>
      <trkpt lat="47.28121" lon="-2.38616">
        <ele>65</ele>
        <time>2011-04-24T08:45:40Z</time>
      </trkpt>
      <trkpt lat="47.28121" lon="-2.38626">
        <ele>64</ele>
        <time>2011-04-24T08:45:42Z</time>
      </trkpt>
      <trkpt lat="47.28123" lon="-2.38637">
        <ele>64</ele>
        <time>2011-04-24T08:45:44Z</time>
      </trkpt>
      <trkpt lat="47.28123" lon="-2.38647">
        <ele>64</ele>
        <time>2011-04-24T08:45:46Z</time>
      </trkpt>
      <trkpt lat="47.28124" lon="-2.3866">
        <ele>64</ele>
        <time>2011-04-24T08:45:48Z</time>
      </trkpt>
      <trkpt lat="47.28125" lon="-2.38672">
        <ele>64</ele>
        <time>2011-04-24T08:45:50Z</time>
      </trkpt>
      <trkpt lat="47.28127" lon="-2.38684">
        <ele>64</ele>
        <time>2011-04-24T08:45:52Z</time>
      </trkpt>
      <trkpt lat="47.28127" lon="-2.38695">
        <ele>63</ele>
        <time>2011-04-24T08:45:54Z</time>
      </trkpt>
      <trkpt lat="47.28128" lon="-2.38706">
        <ele>63</ele>
        <time>2011-04-24T08:45:56Z</time>
      </trkpt>
      <trkpt lat="47.28129" lon="-2.38718">
        <ele>63</ele>
        <time>2011-04-24T08:45:58Z</time>
      </trkpt>
      <trkpt lat="47.2813" lon="-2.38729">
        <ele>62</ele>
        <time>2011-04-24T08:46:00Z</time>
      </trkpt>
      <trkpt lat="47.28131" lon="-2.38742">
        <ele>62</ele>
        <time>2011-04-24T08:46:02Z</time>
      </trkpt>
      <trkpt lat="47.28133" lon="-2.38748">
        <ele>61</ele>
        <time>2011-04-24T08:46:03Z</time>
      </trkpt>
      <trkpt lat="47.28134" lon="-2.38755">
        <ele>61</ele>
        <time>2011-04-24T08:46:04Z</time>
      </trkpt>
      <trkpt lat="47.28135" lon="-2.38762">
        <ele>61</ele>
        <time>2011-04-24T08:46:05Z</time>
      </trkpt>
      <trkpt lat="47.28135" lon="-2.38772">
        <ele>61</ele>
        <time>2011-04-24T08:46:07Z</time>
      </trkpt>
      <trkpt lat="47.28136" lon="-2.38779">
        <ele>61</ele>
        <time>2011-04-24T08:46:08Z</time>
      </trkpt>
      <trkpt lat="47.28137" lon="-2.38787">
        <ele>60</ele>
        <time>2011-04-24T08:46:10Z</time>
      </trkpt>
      <trkpt lat="47.28137" lon="-2.38796">
        <ele>60</ele>
        <time>2011-04-24T08:46:12Z</time>
      </trkpt>
      <trkpt lat="47.28137" lon="-2.38806">
        <ele>59</ele>
        <time>2011-04-24T08:46:14Z</time>
      </trkpt>
      <trkpt lat="47.28138" lon="-2.38814">
        <ele>59</ele>
        <time>2011-04-24T08:46:16Z</time>
      </trkpt>
      <trkpt lat="47.28139" lon="-2.38826">
        <ele>59</ele>
        <time>2011-04-24T08:46:18Z</time>
      </trkpt>
      <trkpt lat="47.28141" lon="-2.38836">
        <ele>59</ele>
        <time>2011-04-24T08:46:20Z</time>
      </trkpt>
      <trkpt lat="47.28142" lon="-2.38848">
        <ele>59</ele>
        <time>2011-04-24T08:46:22Z</time>
      </trkpt>
      <trkpt lat="47.28144" lon="-2.38861">
        <ele>59</ele>
        <time>2011-04-24T08:46:24Z</time>
      </trkpt>
      <trkpt lat="47.28145" lon="-2.38868">
        <ele>59</ele>
        <time>2011-04-24T08:46:25Z</time>
      </trkpt>
      <trkpt lat="47.28147" lon="-2.3888">
        <ele>60</ele>
        <time>2011-04-24T08:46:27Z</time>
      </trkpt>
      <trkpt lat="47.2815" lon="-2.38892">
        <ele>60</ele>
        <time>2011-04-24T08:46:29Z</time>
      </trkpt>
      <trkpt lat="47.28151" lon="-2.38898">
        <ele>60</ele>
        <time>2011-04-24T08:46:30Z</time>
      </trkpt>
      <trkpt lat="47.28152" lon="-2.38905">
        <ele>60</ele>
        <time>2011-04-24T08:46:31Z</time>
      </trkpt>
      <trkpt lat="47.28154" lon="-2.38911">
        <ele>60</ele>
        <time>2011-04-24T08:46:32Z</time>
      </trkpt>
      <trkpt lat="47.28154" lon="-2.38918">
        <ele>60</ele>
        <time>2011-04-24T08:46:33Z</time>
      </trkpt>
      <trkpt lat="47.28157" lon="-2.3893">
        <ele>60</ele>
        <time>2011-04-24T08:46:35Z</time>
      </trkpt>
      <trkpt lat="47.28159" lon="-2.38941">
        <ele>60</ele>
        <time>2011-04-24T08:46:37Z</time>
      </trkpt>
      <trkpt lat="47.2816" lon="-2.38948">
        <ele>61</ele>
        <time>2011-04-24T08:46:38Z</time>
      </trkpt>
      <trkpt lat="47.28163" lon="-2.38958">
        <ele>62</ele>
        <time>2011-04-24T08:46:40Z</time>
      </trkpt>
      <trkpt lat="47.28164" lon="-2.38971">
        <ele>63</ele>
        <time>2011-04-24T08:46:42Z</time>
      </trkpt>
      <trkpt lat="47.28165" lon="-2.38977">
        <ele>63</ele>
        <time>2011-04-24T08:46:43Z</time>
      </trkpt>
      <trkpt lat="47.28167" lon="-2.38989">
        <ele>61</ele>
        <time>2011-04-24T08:46:45Z</time>
      </trkpt>
      <trkpt lat="47.28169" lon="-2.39001">
        <ele>59</ele>
        <time>2011-04-24T08:46:47Z</time>
      </trkpt>
      <trkpt lat="47.2817" lon="-2.39011">
        <ele>59</ele>
        <time>2011-04-24T08:46:49Z</time>
      </trkpt>
      <trkpt lat="47.2817" lon="-2.39021">
        <ele>59</ele>
        <time>2011-04-24T08:46:51Z</time>
      </trkpt>
      <trkpt lat="47.2817" lon="-2.3903">
        <ele>60</ele>
        <time>2011-04-24T08:46:53Z</time>
      </trkpt>
      <trkpt lat="47.28171" lon="-2.39041">
        <ele>61</ele>
        <time>2011-04-24T08:46:55Z</time>
      </trkpt>
      <trkpt lat="47.28173" lon="-2.39053">
        <ele>61</ele>
        <time>2011-04-24T08:46:57Z</time>
      </trkpt>
      <trkpt lat="47.28174" lon="-2.39065">
        <ele>62</ele>
        <time>2011-04-24T08:46:59Z</time>
      </trkpt>
      <trkpt lat="47.28174" lon="-2.39072">
        <ele>62</ele>
        <time>2011-04-24T08:47:00Z</time>
      </trkpt>
      <trkpt lat="47.28175" lon="-2.3908">
        <ele>63</ele>
        <time>2011-04-24T08:47:01Z</time>
      </trkpt>
      <trkpt lat="47.28176" lon="-2.39093">
        <ele>64</ele>
        <time>2011-04-24T08:47:03Z</time>
      </trkpt>
      <trkpt lat="47.28176" lon="-2.39106">
        <ele>64</ele>
        <time>2011-04-24T08:47:05Z</time>
      </trkpt>
      <trkpt lat="47.28177" lon="-2.39119">
        <ele>64</ele>
        <time>2011-04-24T08:47:07Z</time>
      </trkpt>
      <trkpt lat="47.28177" lon="-2.39131">
        <ele>64</ele>
        <time>2011-04-24T08:47:09Z</time>
      </trkpt>
      <trkpt lat="47.28178" lon="-2.39144">
        <ele>64</ele>
        <time>2011-04-24T08:47:11Z</time>
      </trkpt>
      <trkpt lat="47.28179" lon="-2.3915">
        <ele>64</ele>
        <time>2011-04-24T08:47:12Z</time>
      </trkpt>
      <trkpt lat="47.28179" lon="-2.39163">
        <ele>65</ele>
        <time>2011-04-24T08:47:14Z</time>
      </trkpt>
      <trkpt lat="47.2818" lon="-2.39176">
        <ele>65</ele>
        <time>2011-04-24T08:47:16Z</time>
      </trkpt>
      <trkpt lat="47.28181" lon="-2.39183">
        <ele>65</ele>
        <time>2011-04-24T08:47:17Z</time>
      </trkpt>
      <trkpt lat="47.28182" lon="-2.39196">
        <ele>65</ele>
        <time>2011-04-24T08:47:19Z</time>
      </trkpt>
      <trkpt lat="47.28182" lon="-2.39203">
        <ele>65</ele>
        <time>2011-04-24T08:47:20Z</time>
      </trkpt>
      <trkpt lat="47.28184" lon="-2.3921">
        <ele>64</ele>
        <time>2011-04-24T08:47:21Z</time>
      </trkpt>
      <trkpt lat="47.28184" lon="-2.39222">
        <ele>64</ele>
        <time>2011-04-24T08:47:23Z</time>
      </trkpt>
      <trkpt lat="47.28185" lon="-2.39236">
        <ele>63</ele>
        <time>2011-04-24T08:47:25Z</time>
      </trkpt>
      <trkpt lat="47.28186" lon="-2.39248">
        <ele>62</ele>
        <time>2011-04-24T08:47:27Z</time>
      </trkpt>
      <trkpt lat="47.28186" lon="-2.39262">
        <ele>62</ele>
        <time>2011-04-24T08:47:29Z</time>
      </trkpt>
      <trkpt lat="47.28187" lon="-2.39274">
        <ele>62</ele>
        <time>2011-04-24T08:47:31Z</time>
      </trkpt>
      <trkpt lat="47.28188" lon="-2.39281">
        <ele>62</ele>
        <time>2011-04-24T08:47:32Z</time>
      </trkpt>
      <trkpt lat="47.28188" lon="-2.39288">
        <ele>62</ele>
        <time>2011-04-24T08:47:33Z</time>
      </trkpt>
      <trkpt lat="47.28188" lon="-2.39301">
        <ele>62</ele>
        <time>2011-04-24T08:47:35Z</time>
      </trkpt>
      <trkpt lat="47.28189" lon="-2.39314">
        <ele>59</ele>
        <time>2011-04-24T08:47:37Z</time>
      </trkpt>
      <trkpt lat="47.28192" lon="-2.39326">
        <ele>57</ele>
        <time>2011-04-24T08:47:39Z</time>
      </trkpt>
      <trkpt lat="47.28192" lon="-2.39333">
        <ele>57</ele>
        <time>2011-04-24T08:47:40Z</time>
      </trkpt>
      <trkpt lat="47.28192" lon="-2.39346">
        <ele>58</ele>
        <time>2011-04-24T08:47:42Z</time>
      </trkpt>
      <trkpt lat="47.28192" lon="-2.39358">
        <ele>59</ele>
        <time>2011-04-24T08:47:44Z</time>
      </trkpt>
      <trkpt lat="47.28191" lon="-2.3937">
        <ele>60</ele>
        <time>2011-04-24T08:47:46Z</time>
      </trkpt>
      <trkpt lat="47.28191" lon="-2.39383">
        <ele>60</ele>
        <time>2011-04-24T08:47:48Z</time>
      </trkpt>
      <trkpt lat="47.28191" lon="-2.39391">
        <ele>60</ele>
        <time>2011-04-24T08:47:49Z</time>
      </trkpt>
      <trkpt lat="47.2819" lon="-2.39404">
        <ele>61</ele>
        <time>2011-04-24T08:47:51Z</time>
      </trkpt>
      <trkpt lat="47.28191" lon="-2.39416">
        <ele>60</ele>
        <time>2011-04-24T08:47:53Z</time>
      </trkpt>
      <trkpt lat="47.2819" lon="-2.39428">
        <ele>62</ele>
        <time>2011-04-24T08:47:55Z</time>
      </trkpt>
      <trkpt lat="47.28189" lon="-2.39439">
        <ele>62</ele>
        <time>2011-04-24T08:47:57Z</time>
      </trkpt>
      <trkpt lat="47.28188" lon="-2.39448">
        <ele>64</ele>
        <time>2011-04-24T08:48:00Z</time>
      </trkpt>
      <trkpt lat="47.28186" lon="-2.39454">
        <ele>65</ele>
        <time>2011-04-24T08:48:02Z</time>
      </trkpt>
      <trkpt lat="47.28184" lon="-2.39463">
        <ele>66</ele>
        <time>2011-04-24T08:48:04Z</time>
      </trkpt>
      <trkpt lat="47.28183" lon="-2.39474">
        <ele>67</ele>
        <time>2011-04-24T08:48:06Z</time>
      </trkpt>
      <trkpt lat="47.28183" lon="-2.39487">
        <ele>66</ele>
        <time>2011-04-24T08:48:08Z</time>
      </trkpt>
      <trkpt lat="47.28183" lon="-2.39495">
        <ele>66</ele>
        <time>2011-04-24T08:48:09Z</time>
      </trkpt>
      <trkpt lat="47.28183" lon="-2.39502">
        <ele>66</ele>
        <time>2011-04-24T08:48:10Z</time>
      </trkpt>
      <trkpt lat="47.28184" lon="-2.39516">
        <ele>65</ele>
        <time>2011-04-24T08:48:12Z</time>
      </trkpt>
      <trkpt lat="47.28184" lon="-2.39523">
        <ele>65</ele>
        <time>2011-04-24T08:48:13Z</time>
      </trkpt>
      <trkpt lat="47.28184" lon="-2.3953">
        <ele>65</ele>
        <time>2011-04-24T08:48:14Z</time>
      </trkpt>
      <trkpt lat="47.28184" lon="-2.39537">
        <ele>65</ele>
        <time>2011-04-24T08:48:15Z</time>
      </trkpt>
      <trkpt lat="47.28184" lon="-2.39544">
        <ele>65</ele>
        <time>2011-04-24T08:48:16Z</time>
      </trkpt>
      <trkpt lat="47.28184" lon="-2.39551">
        <ele>64</ele>
        <time>2011-04-24T08:48:17Z</time>
      </trkpt>
      <trkpt lat="47.28185" lon="-2.39558">
        <ele>64</ele>
        <time>2011-04-24T08:48:18Z</time>
      </trkpt>
      <trkpt lat="47.28185" lon="-2.39565">
        <ele>64</ele>
        <time>2011-04-24T08:48:19Z</time>
      </trkpt>
      <trkpt lat="47.28185" lon="-2.39579">
        <ele>65</ele>
        <time>2011-04-24T08:48:21Z</time>
      </trkpt>
      <trkpt lat="47.28185" lon="-2.39586">
        <ele>65</ele>
        <time>2011-04-24T08:48:22Z</time>
      </trkpt>
      <trkpt lat="47.28186" lon="-2.396">
        <ele>65</ele>
        <time>2011-04-24T08:48:24Z</time>
      </trkpt>
      <trkpt lat="47.28186" lon="-2.39606">
        <ele>65</ele>
        <time>2011-04-24T08:48:25Z</time>
      </trkpt>
      <trkpt lat="47.28186" lon="-2.39614">
        <ele>65</ele>
        <time>2011-04-24T08:48:26Z</time>
      </trkpt>
      <trkpt lat="47.28185" lon="-2.39626">
        <ele>64</ele>
        <time>2011-04-24T08:48:28Z</time>
      </trkpt>
      <trkpt lat="47.28186" lon="-2.39633">
        <ele>64</ele>
        <time>2011-04-24T08:48:29Z</time>
      </trkpt>
      <trkpt lat="47.28185" lon="-2.39645">
        <ele>64</ele>
        <time>2011-04-24T08:48:31Z</time>
      </trkpt>
      <trkpt lat="47.28185" lon="-2.39658">
        <ele>64</ele>
        <time>2011-04-24T08:48:33Z</time>
      </trkpt>
      <trkpt lat="47.28184" lon="-2.39665">
        <ele>65</ele>
        <time>2011-04-24T08:48:34Z</time>
      </trkpt>
      <trkpt lat="47.28184" lon="-2.39678">
        <ele>65</ele>
        <time>2011-04-24T08:48:36Z</time>
      </trkpt>
      <trkpt lat="47.28184" lon="-2.39691">
        <ele>65</ele>
        <time>2011-04-24T08:48:38Z</time>
      </trkpt>
      <trkpt lat="47.28182" lon="-2.39704">
        <ele>65</ele>
        <time>2011-04-24T08:48:40Z</time>
      </trkpt>
      <trkpt lat="47.28182" lon="-2.39717">
        <ele>65</ele>
        <time>2011-04-24T08:48:42Z</time>
      </trkpt>
      <trkpt lat="47.28182" lon="-2.3973">
        <ele>64</ele>
        <time>2011-04-24T08:48:44Z</time>
      </trkpt>
      <trkpt lat="47.28182" lon="-2.39744">
        <ele>64</ele>
        <time>2011-04-24T08:48:46Z</time>
      </trkpt>
      <trkpt lat="47.2818" lon="-2.39757">
        <ele>63</ele>
        <time>2011-04-24T08:48:48Z</time>
      </trkpt>
      <trkpt lat="47.28178" lon="-2.39768">
        <ele>63</ele>
        <time>2011-04-24T08:48:50Z</time>
      </trkpt>
      <trkpt lat="47.28178" lon="-2.3978">
        <ele>63</ele>
        <time>2011-04-24T08:48:52Z</time>
      </trkpt>
      <trkpt lat="47.28177" lon="-2.39792">
        <ele>63</ele>
        <time>2011-04-24T08:48:54Z</time>
      </trkpt>
      <trkpt lat="47.28176" lon="-2.39803">
        <ele>63</ele>
        <time>2011-04-24T08:48:56Z</time>
      </trkpt>
      <trkpt lat="47.28176" lon="-2.39814">
        <ele>63</ele>
        <time>2011-04-24T08:48:58Z</time>
      </trkpt>
      <trkpt lat="47.28175" lon="-2.3982">
        <ele>64</ele>
        <time>2011-04-24T08:48:59Z</time>
      </trkpt>
      <trkpt lat="47.28174" lon="-2.39828">
        <ele>64</ele>
        <time>2011-04-24T08:49:00Z</time>
      </trkpt>
      <trkpt lat="47.28173" lon="-2.39839">
        <ele>64</ele>
        <time>2011-04-24T08:49:02Z</time>
      </trkpt>
      <trkpt lat="47.28172" lon="-2.39851">
        <ele>64</ele>
        <time>2011-04-24T08:49:04Z</time>
      </trkpt>
      <trkpt lat="47.28171" lon="-2.39858">
        <ele>64</ele>
        <time>2011-04-24T08:49:05Z</time>
      </trkpt>
      <trkpt lat="47.2817" lon="-2.39869">
        <ele>65</ele>
        <time>2011-04-24T08:49:07Z</time>
      </trkpt>
      <trkpt lat="47.2817" lon="-2.39881">
        <ele>67</ele>
        <time>2011-04-24T08:49:09Z</time>
      </trkpt>
      <trkpt lat="47.2817" lon="-2.39892">
        <ele>67</ele>
        <time>2011-04-24T08:49:11Z</time>
      </trkpt>
      <trkpt lat="47.2817" lon="-2.39905">
        <ele>67</ele>
        <time>2011-04-24T08:49:13Z</time>
      </trkpt>
      <trkpt lat="47.28169" lon="-2.39918">
        <ele>66</ele>
        <time>2011-04-24T08:49:15Z</time>
      </trkpt>
      <trkpt lat="47.28168" lon="-2.39931">
        <ele>66</ele>
        <time>2011-04-24T08:49:17Z</time>
      </trkpt>
      <trkpt lat="47.28168" lon="-2.39938">
        <ele>65</ele>
        <time>2011-04-24T08:49:18Z</time>
      </trkpt>
      <trkpt lat="47.28168" lon="-2.3995">
        <ele>65</ele>
        <time>2011-04-24T08:49:20Z</time>
      </trkpt>
      <trkpt lat="47.28168" lon="-2.39961">
        <ele>65</ele>
        <time>2011-04-24T08:49:22Z</time>
      </trkpt>
      <trkpt lat="47.28167" lon="-2.39973">
        <ele>65</ele>
        <time>2011-04-24T08:49:24Z</time>
      </trkpt>
      <trkpt lat="47.28166" lon="-2.39983">
        <ele>65</ele>
        <time>2011-04-24T08:49:26Z</time>
      </trkpt>
      <trkpt lat="47.28165" lon="-2.3999">
        <ele>66</ele>
        <time>2011-04-24T08:49:28Z</time>
      </trkpt>
      <trkpt lat="47.28163" lon="-2.39998">
        <ele>69</ele>
        <time>2011-04-24T08:49:31Z</time>
      </trkpt>
      <trkpt lat="47.28157" lon="-2.40001">
        <ele>74</ele>
        <time>2011-04-24T08:49:33Z</time>
      </trkpt>
      <trkpt lat="47.28153" lon="-2.40004">
        <ele>77</ele>
        <time>2011-04-24T08:49:35Z</time>
      </trkpt>
      <trkpt lat="47.28149" lon="-2.40009">
        <ele>78</ele>
        <time>2011-04-24T08:49:37Z</time>
      </trkpt>
      <trkpt lat="47.28146" lon="-2.40016">
        <ele>79</ele>
        <time>2011-04-24T08:49:39Z</time>
      </trkpt>
      <trkpt lat="47.28146" lon="-2.40026">
        <ele>79</ele>
        <time>2011-04-24T08:49:41Z</time>
      </trkpt>
      <trkpt lat="47.28148" lon="-2.40035">
        <ele>80</ele>
        <time>2011-04-24T08:49:42Z</time>
      </trkpt>
      <trkpt lat="47.28148" lon="-2.40048">
        <ele>81</ele>
        <time>2011-04-24T08:49:44Z</time>
      </trkpt>
      <trkpt lat="47.28149" lon="-2.40062">
        <ele>80</ele>
        <time>2011-04-24T08:49:46Z</time>
      </trkpt>
      <trkpt lat="47.28148" lon="-2.40069">
        <ele>79</ele>
        <time>2011-04-24T08:49:47Z</time>
      </trkpt>
      <trkpt lat="47.28149" lon="-2.40082">
        <ele>78</ele>
        <time>2011-04-24T08:49:49Z</time>
      </trkpt>
      <trkpt lat="47.28149" lon="-2.40089">
        <ele>78</ele>
        <time>2011-04-24T08:49:50Z</time>
      </trkpt>
      <trkpt lat="47.28148" lon="-2.40103">
        <ele>77</ele>
        <time>2011-04-24T08:49:52Z</time>
      </trkpt>
      <trkpt lat="47.28146" lon="-2.40115">
        <ele>76</ele>
        <time>2011-04-24T08:49:54Z</time>
      </trkpt>
      <trkpt lat="47.28146" lon="-2.40122">
        <ele>76</ele>
        <time>2011-04-24T08:49:55Z</time>
      </trkpt>
      <trkpt lat="47.28145" lon="-2.40135">
        <ele>76</ele>
        <time>2011-04-24T08:49:57Z</time>
      </trkpt>
      <trkpt lat="47.28144" lon="-2.40147">
        <ele>76</ele>
        <time>2011-04-24T08:49:59Z</time>
      </trkpt>
      <trkpt lat="47.28144" lon="-2.40154">
        <ele>75</ele>
        <time>2011-04-24T08:50:00Z</time>
      </trkpt>
      <trkpt lat="47.28143" lon="-2.40167">
        <ele>76</ele>
        <time>2011-04-24T08:50:02Z</time>
      </trkpt>
      <trkpt lat="47.28142" lon="-2.40178">
        <ele>76</ele>
        <time>2011-04-24T08:50:04Z</time>
      </trkpt>
      <trkpt lat="47.28141" lon="-2.40188">
        <ele>75</ele>
        <time>2011-04-24T08:50:06Z</time>
      </trkpt>
      <trkpt lat="47.2814" lon="-2.402">
        <ele>74</ele>
        <time>2011-04-24T08:50:08Z</time>
      </trkpt>
      <trkpt lat="47.28138" lon="-2.40212">
        <ele>73</ele>
        <time>2011-04-24T08:50:10Z</time>
      </trkpt>
      <trkpt lat="47.28138" lon="-2.40224">
        <ele>73</ele>
        <time>2011-04-24T08:50:12Z</time>
      </trkpt>
      <trkpt lat="47.2814" lon="-2.40231">
        <ele>73</ele>
        <time>2011-04-24T08:50:13Z</time>
      </trkpt>
      <trkpt lat="47.28141" lon="-2.40241">
        <ele>74</ele>
        <time>2011-04-24T08:50:15Z</time>
      </trkpt>
      <trkpt lat="47.28142" lon="-2.40249">
        <ele>75</ele>
        <time>2011-04-24T08:50:17Z</time>
      </trkpt>
      <trkpt lat="47.28143" lon="-2.40257">
        <ele>75</ele>
        <time>2011-04-24T08:50:19Z</time>
      </trkpt>
      <trkpt lat="47.2814" lon="-2.40268">
        <ele>76</ele>
        <time>2011-04-24T08:50:21Z</time>
      </trkpt>
      <trkpt lat="47.28138" lon="-2.40276">
        <ele>75</ele>
        <time>2011-04-24T08:50:22Z</time>
      </trkpt>
      <trkpt lat="47.28137" lon="-2.40283">
        <ele>75</ele>
        <time>2011-04-24T08:50:23Z</time>
      </trkpt>
      <trkpt lat="47.28136" lon="-2.4029">
        <ele>75</ele>
        <time>2011-04-24T08:50:24Z</time>
      </trkpt>
      <trkpt lat="47.28135" lon="-2.40303">
        <ele>74</ele>
        <time>2011-04-24T08:50:26Z</time>
      </trkpt>
      <trkpt lat="47.28133" lon="-2.40316">
        <ele>73</ele>
        <time>2011-04-24T08:50:28Z</time>
      </trkpt>
      <trkpt lat="47.28132" lon="-2.40323">
        <ele>72</ele>
        <time>2011-04-24T08:50:29Z</time>
      </trkpt>
      <trkpt lat="47.28131" lon="-2.40329">
        <ele>72</ele>
        <time>2011-04-24T08:50:30Z</time>
      </trkpt>
      <trkpt lat="47.2813" lon="-2.40342">
        <ele>72</ele>
        <time>2011-04-24T08:50:32Z</time>
      </trkpt>
      <trkpt lat="47.28128" lon="-2.40353">
        <ele>72</ele>
        <time>2011-04-24T08:50:34Z</time>
      </trkpt>
      <trkpt lat="47.28127" lon="-2.40359">
        <ele>72</ele>
        <time>2011-04-24T08:50:35Z</time>
      </trkpt>
      <trkpt lat="47.28126" lon="-2.40372">
        <ele>71</ele>
        <time>2011-04-24T08:50:37Z</time>
      </trkpt>
      <trkpt lat="47.28124" lon="-2.40383">
        <ele>70</ele>
        <time>2011-04-24T08:50:39Z</time>
      </trkpt>
      <trkpt lat="47.28123" lon="-2.4039">
        <ele>70</ele>
        <time>2011-04-24T08:50:40Z</time>
      </trkpt>
      <trkpt lat="47.28121" lon="-2.404">
        <ele>70</ele>
        <time>2011-04-24T08:50:42Z</time>
      </trkpt>
      <trkpt lat="47.28119" lon="-2.4041">
        <ele>70</ele>
        <time>2011-04-24T08:50:44Z</time>
      </trkpt>
      <trkpt lat="47.28117" lon="-2.40419">
        <ele>70</ele>
        <time>2011-04-24T08:50:46Z</time>
      </trkpt>
      <trkpt lat="47.28114" lon="-2.40425">
        <ele>71</ele>
        <time>2011-04-24T08:50:48Z</time>
      </trkpt>
      <trkpt lat="47.28113" lon="-2.40433">
        <ele>71</ele>
        <time>2011-04-24T08:50:50Z</time>
      </trkpt>
      <trkpt lat="47.28111" lon="-2.40442">
        <ele>70</ele>
        <time>2011-04-24T08:50:52Z</time>
      </trkpt>
      <trkpt lat="47.28108" lon="-2.4045">
        <ele>70</ele>
        <time>2011-04-24T08:50:54Z</time>
      </trkpt>
      <trkpt lat="47.28105" lon="-2.40457">
        <ele>70</ele>
        <time>2011-04-24T08:50:56Z</time>
      </trkpt>
      <trkpt lat="47.28101" lon="-2.40466">
        <ele>68</ele>
        <time>2011-04-24T08:50:58Z</time>
      </trkpt>
      <trkpt lat="47.28098" lon="-2.40471">
        <ele>68</ele>
        <time>2011-04-24T08:50:59Z</time>
      </trkpt>
      <trkpt lat="47.28094" lon="-2.40479">
        <ele>67</ele>
        <time>2011-04-24T08:51:01Z</time>
      </trkpt>
      <trkpt lat="47.2809" lon="-2.40487">
        <ele>66</ele>
        <time>2011-04-24T08:51:03Z</time>
      </trkpt>
      <trkpt lat="47.28087" lon="-2.40494">
        <ele>65</ele>
        <time>2011-04-24T08:51:05Z</time>
      </trkpt>
      <trkpt lat="47.28084" lon="-2.40501">
        <ele>63</ele>
        <time>2011-04-24T08:51:07Z</time>
      </trkpt>
      <trkpt lat="47.28081" lon="-2.4051">
        <ele>63</ele>
        <time>2011-04-24T08:51:09Z</time>
      </trkpt>
      <trkpt lat="47.28078" lon="-2.40519">
        <ele>63</ele>
        <time>2011-04-24T08:51:11Z</time>
      </trkpt>
      <trkpt lat="47.28075" lon="-2.40532">
        <ele>61</ele>
        <time>2011-04-24T08:51:14Z</time>
      </trkpt>
      <trkpt lat="47.28072" lon="-2.40541">
        <ele>60</ele>
        <time>2011-04-24T08:51:16Z</time>
      </trkpt>
      <trkpt lat="47.2807" lon="-2.40549">
        <ele>60</ele>
        <time>2011-04-24T08:51:18Z</time>
      </trkpt>
      <trkpt lat="47.28069" lon="-2.40556">
        <ele>60</ele>
        <time>2011-04-24T08:51:20Z</time>
      </trkpt>
      <trkpt lat="47.28069" lon="-2.40565">
        <ele>60</ele>
        <time>2011-04-24T08:51:22Z</time>
      </trkpt>
      <trkpt lat="47.28068" lon="-2.40572">
        <ele>59</ele>
        <time>2011-04-24T08:51:24Z</time>
      </trkpt>
      <trkpt lat="47.28066" lon="-2.40578">
        <ele>59</ele>
        <time>2011-04-24T08:51:26Z</time>
      </trkpt>
      <trkpt lat="47.28064" lon="-2.40586">
        <ele>59</ele>
        <time>2011-04-24T08:51:28Z</time>
      </trkpt>
      <trkpt lat="47.28063" lon="-2.40593">
        <ele>59</ele>
        <time>2011-04-24T08:51:31Z</time>
      </trkpt>
      <trkpt lat="47.2806" lon="-2.40598">
        <ele>58</ele>
        <time>2011-04-24T08:51:34Z</time>
      </trkpt>
      <trkpt lat="47.28058" lon="-2.40606">
        <ele>58</ele>
        <time>2011-04-24T08:51:38Z</time>
      </trkpt>
      <trkpt lat="47.28062" lon="-2.4061">
        <ele>59</ele>
        <time>2011-04-24T08:53:51Z</time>
      </trkpt>
      <trkpt lat="47.28062" lon="-2.4061">
        <ele>59</ele>
        <time>2011-04-24T08:53:51Z</time>
      </trkpt>
      <trkpt lat="47.28062" lon="-2.4061">
        <ele>59</ele>
        <time>2011-04-24T08:53:54Z</time>
      </trkpt>
      <trkpt lat="47.28064" lon="-2.40617">
        <ele>60</ele>
        <time>2011-04-24T08:56:28Z</time>
      </trkpt>
      <trkpt lat="47.28068" lon="-2.40622">
        <ele>59</ele>
        <time>2011-04-24T08:56:31Z</time>
      </trkpt>
      <trkpt lat="47.2807" lon="-2.40628">
        <ele>58</ele>
        <time>2011-04-24T08:56:35Z</time>
      </trkpt>
      <trkpt lat="47.28072" lon="-2.40636">
        <ele>59</ele>
        <time>2011-04-24T08:56:40Z</time>
      </trkpt>
      <trkpt lat="47.28068" lon="-2.40644">
        <ele>63</ele>
        <time>2011-04-24T08:56:43Z</time>
      </trkpt>
      <trkpt lat="47.28067" lon="-2.40652">
        <ele>67</ele>
        <time>2011-04-24T08:56:46Z</time>
      </trkpt>
      <trkpt lat="47.28066" lon="-2.40659">
        <ele>67</ele>
        <time>2011-04-24T08:56:48Z</time>
      </trkpt>
      <trkpt lat="47.28066" lon="-2.40668">
        <ele>66</ele>
        <time>2011-04-24T08:56:50Z</time>
      </trkpt>
      <trkpt lat="47.28063" lon="-2.40675">
        <ele>67</ele>
        <time>2011-04-24T08:56:52Z</time>
      </trkpt>
      <trkpt lat="47.28063" lon="-2.40683">
        <ele>66</ele>
        <time>2011-04-24T08:56:54Z</time>
      </trkpt>
      <trkpt lat="47.28062" lon="-2.40691">
        <ele>67</ele>
        <time>2011-04-24T08:56:56Z</time>
      </trkpt>
      <trkpt lat="47.28059" lon="-2.40698">
        <ele>67</ele>
        <time>2011-04-24T08:56:58Z</time>
      </trkpt>
      <trkpt lat="47.28054" lon="-2.40701">
        <ele>66</ele>
        <time>2011-04-24T08:57:00Z</time>
      </trkpt>
      <trkpt lat="47.28049" lon="-2.40703">
        <ele>64</ele>
        <time>2011-04-24T08:57:02Z</time>
      </trkpt>
      <trkpt lat="47.28046" lon="-2.40709">
        <ele>64</ele>
        <time>2011-04-24T08:57:04Z</time>
      </trkpt>
      <trkpt lat="47.28044" lon="-2.40715">
        <ele>63</ele>
        <time>2011-04-24T08:57:06Z</time>
      </trkpt>
      <trkpt lat="47.28044" lon="-2.40726">
        <ele>61</ele>
        <time>2011-04-24T08:57:08Z</time>
      </trkpt>
      <trkpt lat="47.28044" lon="-2.40737">
        <ele>59</ele>
        <time>2011-04-24T08:57:10Z</time>
      </trkpt>
      <trkpt lat="47.28044" lon="-2.40745">
        <ele>60</ele>
        <time>2011-04-24T08:57:12Z</time>
      </trkpt>
      <trkpt lat="47.28041" lon="-2.40752">
        <ele>59</ele>
        <time>2011-04-24T08:57:14Z</time>
      </trkpt>
      <trkpt lat="47.28045" lon="-2.40756">
        <ele>58</ele>
        <time>2011-04-24T08:57:16Z</time>
      </trkpt>
      <trkpt lat="47.28049" lon="-2.40759">
        <ele>58</ele>
        <time>2011-04-24T08:57:18Z</time>
      </trkpt>
      <trkpt lat="47.28047" lon="-2.40769">
        <ele>59</ele>
        <time>2011-04-24T08:57:20Z</time>
      </trkpt>
      <trkpt lat="47.28045" lon="-2.40779">
        <ele>59</ele>
        <time>2011-04-24T08:57:22Z</time>
      </trkpt>
      <trkpt lat="47.28043" lon="-2.40789">
        <ele>59</ele>
        <time>2011-04-24T08:57:24Z</time>
      </trkpt>
      <trkpt lat="47.28041" lon="-2.40799">
        <ele>61</ele>
        <time>2011-04-24T08:57:26Z</time>
      </trkpt>
      <trkpt lat="47.2804" lon="-2.40812">
        <ele>61</ele>
        <time>2011-04-24T08:57:28Z</time>
      </trkpt>
      <trkpt lat="47.28044" lon="-2.40824">
        <ele>60</ele>
        <time>2011-04-24T08:57:30Z</time>
      </trkpt>
      <trkpt lat="47.28047" lon="-2.40836">
        <ele>60</ele>
        <time>2011-04-24T08:57:32Z</time>
      </trkpt>
      <trkpt lat="47.28049" lon="-2.40846">
        <ele>60</ele>
        <time>2011-04-24T08:57:34Z</time>
      </trkpt>
      <trkpt lat="47.28052" lon="-2.40853">
        <ele>61</ele>
        <time>2011-04-24T08:57:36Z</time>
      </trkpt>
      <trkpt lat="47.28057" lon="-2.40856">
        <ele>62</ele>
        <time>2011-04-24T08:57:38Z</time>
      </trkpt>
      <trkpt lat="47.28059" lon="-2.40867">
        <ele>62</ele>
        <time>2011-04-24T08:57:40Z</time>
      </trkpt>
      <trkpt lat="47.28062" lon="-2.40872">
        <ele>64</ele>
        <time>2011-04-24T08:57:42Z</time>
      </trkpt>
      <trkpt lat="47.28067" lon="-2.40882">
        <ele>64</ele>
        <time>2011-04-24T08:57:44Z</time>
      </trkpt>
      <trkpt lat="47.28072" lon="-2.40891">
        <ele>63</ele>
        <time>2011-04-24T08:57:46Z</time>
      </trkpt>
      <trkpt lat="47.28078" lon="-2.40898">
        <ele>63</ele>
        <time>2011-04-24T08:57:48Z</time>
      </trkpt>
      <trkpt lat="47.28083" lon="-2.40907">
        <ele>61</ele>
        <time>2011-04-24T08:57:50Z</time>
      </trkpt>
      <trkpt lat="47.28088" lon="-2.40915">
        <ele>61</ele>
        <time>2011-04-24T08:57:52Z</time>
      </trkpt>
      <trkpt lat="47.2809" lon="-2.40924">
        <ele>62</ele>
        <time>2011-04-24T08:57:54Z</time>
      </trkpt>
      <trkpt lat="47.28092" lon="-2.40932">
        <ele>62</ele>
        <time>2011-04-24T08:57:56Z</time>
      </trkpt>
      <trkpt lat="47.2809" lon="-2.4094">
        <ele>62</ele>
        <time>2011-04-24T08:57:58Z</time>
      </trkpt>
      <trkpt lat="47.28086" lon="-2.40949">
        <ele>63</ele>
        <time>2011-04-24T08:58:00Z</time>
      </trkpt>
      <trkpt lat="47.28084" lon="-2.40959">
        <ele>64</ele>
        <time>2011-04-24T08:58:02Z</time>
      </trkpt>
      <trkpt lat="47.28081" lon="-2.4097">
        <ele>64</ele>
        <time>2011-04-24T08:58:04Z</time>
      </trkpt>
      <trkpt lat="47.28078" lon="-2.4098">
        <ele>65</ele>
        <time>2011-04-24T08:58:06Z</time>
      </trkpt>
      <trkpt lat="47.2808" lon="-2.4099">
        <ele>66</ele>
        <time>2011-04-24T08:58:08Z</time>
      </trkpt>
      <trkpt lat="47.28076" lon="-2.40999">
        <ele>64</ele>
        <time>2011-04-24T08:58:10Z</time>
      </trkpt>
      <trkpt lat="47.28075" lon="-2.41009">
        <ele>63</ele>
        <time>2011-04-24T08:58:12Z</time>
      </trkpt>
      <trkpt lat="47.28071" lon="-2.41018">
        <ele>62</ele>
        <time>2011-04-24T08:58:14Z</time>
      </trkpt>
      <trkpt lat="47.28069" lon="-2.41025">
        <ele>62</ele>
        <time>2011-04-24T08:58:16Z</time>
      </trkpt>
      <trkpt lat="47.28069" lon="-2.41033">
        <ele>63</ele>
        <time>2011-04-24T08:58:18Z</time>
      </trkpt>
      <trkpt lat="47.28067" lon="-2.41039">
        <ele>63</ele>
        <time>2011-04-24T08:58:20Z</time>
      </trkpt>
      <trkpt lat="47.28066" lon="-2.41046">
        <ele>63</ele>
        <time>2011-04-24T08:58:23Z</time>
      </trkpt>
      <trkpt lat="47.28064" lon="-2.41053">
        <ele>62</ele>
        <time>2011-04-24T08:58:27Z</time>
      </trkpt>
      <trkpt lat="47.28063" lon="-2.4106">
        <ele>64</ele>
        <time>2011-04-24T08:58:30Z</time>
      </trkpt>
      <trkpt lat="47.28061" lon="-2.41069">
        <ele>63</ele>
        <time>2011-04-24T08:58:32Z</time>
      </trkpt>
      <trkpt lat="47.28058" lon="-2.41076">
        <ele>62</ele>
        <time>2011-04-24T08:58:33Z</time>
      </trkpt>
      <trkpt lat="47.28056" lon="-2.41082">
        <ele>61</ele>
        <time>2011-04-24T08:58:34Z</time>
      </trkpt>
      <trkpt lat="47.2805" lon="-2.41089">
        <ele>61</ele>
        <time>2011-04-24T08:58:36Z</time>
      </trkpt>
      <trkpt lat="47.28045" lon="-2.41094">
        <ele>60</ele>
        <time>2011-04-24T08:58:38Z</time>
      </trkpt>
      <trkpt lat="47.28039" lon="-2.41099">
        <ele>59</ele>
        <time>2011-04-24T08:58:40Z</time>
      </trkpt>
      <trkpt lat="47.28032" lon="-2.41104">
        <ele>59</ele>
        <time>2011-04-24T08:58:42Z</time>
      </trkpt>
      <trkpt lat="47.28027" lon="-2.41109">
        <ele>59</ele>
        <time>2011-04-24T08:58:44Z</time>
      </trkpt>
      <trkpt lat="47.28024" lon="-2.41115">
        <ele>62</ele>
        <time>2011-04-24T08:58:47Z</time>
      </trkpt>
      <trkpt lat="47.28019" lon="-2.41119">
        <ele>63</ele>
        <time>2011-04-24T08:58:49Z</time>
      </trkpt>
      <trkpt lat="47.28013" lon="-2.41124">
        <ele>64</ele>
        <time>2011-04-24T08:58:51Z</time>
      </trkpt>
      <trkpt lat="47.28008" lon="-2.41126">
        <ele>65</ele>
        <time>2011-04-24T08:58:53Z</time>
      </trkpt>
      <trkpt lat="47.28003" lon="-2.41129">
        <ele>65</ele>
        <time>2011-04-24T08:58:55Z</time>
      </trkpt>
      <trkpt lat="47.27997" lon="-2.41131">
        <ele>65</ele>
        <time>2011-04-24T08:58:57Z</time>
      </trkpt>
      <trkpt lat="47.27992" lon="-2.41132">
        <ele>64</ele>
        <time>2011-04-24T08:58:58Z</time>
      </trkpt>
      <trkpt lat="47.27985" lon="-2.41132">
        <ele>62</ele>
        <time>2011-04-24T08:59:00Z</time>
      </trkpt>
      <trkpt lat="47.27979" lon="-2.41133">
        <ele>61</ele>
        <time>2011-04-24T08:59:01Z</time>
      </trkpt>
      <trkpt lat="47.27973" lon="-2.41137">
        <ele>61</ele>
        <time>2011-04-24T08:59:03Z</time>
      </trkpt>
      <trkpt lat="47.27966" lon="-2.41144">
        <ele>60</ele>
        <time>2011-04-24T08:59:05Z</time>
      </trkpt>
      <trkpt lat="47.27961" lon="-2.4115">
        <ele>59</ele>
        <time>2011-04-24T08:59:08Z</time>
      </trkpt>
      <trkpt lat="47.27961" lon="-2.4115">
        <ele>59</ele>
        <time>2011-04-24T08:59:08Z</time>
      </trkpt>
      <trkpt lat="47.27961" lon="-2.4115">
        <ele>59</ele>
        <time>2011-04-24T09:00:04Z</time>
      </trkpt>
      <trkpt lat="47.27965" lon="-2.41145">
        <ele>58</ele>
        <time>2011-04-24T09:00:08Z</time>
      </trkpt>
      <trkpt lat="47.2797" lon="-2.4114">
        <ele>58</ele>
        <time>2011-04-24T09:00:11Z</time>
      </trkpt>
      <trkpt lat="47.27974" lon="-2.41136">
        <ele>58</ele>
        <time>2011-04-24T09:00:13Z</time>
      </trkpt>
      <trkpt lat="47.27979" lon="-2.41134">
        <ele>59</ele>
        <time>2011-04-24T09:00:15Z</time>
      </trkpt>
      <trkpt lat="47.27984" lon="-2.41132">
        <ele>59</ele>
        <time>2011-04-24T09:00:17Z</time>
      </trkpt>
      <trkpt lat="47.2799" lon="-2.4113">
        <ele>60</ele>
        <time>2011-04-24T09:00:19Z</time>
      </trkpt>
      <trkpt lat="47.27996" lon="-2.41124">
        <ele>60</ele>
        <time>2011-04-24T09:00:21Z</time>
      </trkpt>
      <trkpt lat="47.28003" lon="-2.41118">
        <ele>61</ele>
        <time>2011-04-24T09:00:23Z</time>
      </trkpt>
      <trkpt lat="47.28009" lon="-2.41111">
        <ele>61</ele>
        <time>2011-04-24T09:00:25Z</time>
      </trkpt>
      <trkpt lat="47.28012" lon="-2.41105">
        <ele>62</ele>
        <time>2011-04-24T09:00:27Z</time>
      </trkpt>
      <trkpt lat="47.28014" lon="-2.41097">
        <ele>64</ele>
        <time>2011-04-24T09:00:29Z</time>
      </trkpt>
      <trkpt lat="47.28019" lon="-2.41091">
        <ele>64</ele>
        <time>2011-04-24T09:00:31Z</time>
      </trkpt>
      <trkpt lat="47.28024" lon="-2.41087">
        <ele>64</ele>
        <time>2011-04-24T09:00:33Z</time>
      </trkpt>
      <trkpt lat="47.28028" lon="-2.41083">
        <ele>64</ele>
        <time>2011-04-24T09:00:35Z</time>
      </trkpt>
      <trkpt lat="47.28033" lon="-2.41081">
        <ele>64</ele>
        <time>2011-04-24T09:00:38Z</time>
      </trkpt>
      <trkpt lat="47.28039" lon="-2.41082">
        <ele>63</ele>
        <time>2011-04-24T09:00:42Z</time>
      </trkpt>
      <trkpt lat="47.28039" lon="-2.41082">
        <ele>63</ele>
        <time>2011-04-24T09:00:42Z</time>
      </trkpt>
      <trkpt lat="47.28039" lon="-2.41082">
        <ele>62</ele>
        <time>2011-04-24T09:00:49Z</time>
      </trkpt>
      <trkpt lat="47.28046" lon="-2.41086">
        <ele>62</ele>
        <time>2011-04-24T09:00:55Z</time>
      </trkpt>
      <trkpt lat="47.28047" lon="-2.41092">
        <ele>63</ele>
        <time>2011-04-24T09:00:58Z</time>
      </trkpt>
      <trkpt lat="47.28045" lon="-2.411">
        <ele>63</ele>
        <time>2011-04-24T09:01:01Z</time>
      </trkpt>
      <trkpt lat="47.28041" lon="-2.41108">
        <ele>65</ele>
        <time>2011-04-24T09:01:03Z</time>
      </trkpt>
      <trkpt lat="47.28038" lon="-2.41116">
        <ele>66</ele>
        <time>2011-04-24T09:01:05Z</time>
      </trkpt>
      <trkpt lat="47.28036" lon="-2.41126">
        <ele>66</ele>
        <time>2011-04-24T09:01:07Z</time>
      </trkpt>
      <trkpt lat="47.28036" lon="-2.41137">
        <ele>65</ele>
        <time>2011-04-24T09:01:09Z</time>
      </trkpt>
      <trkpt lat="47.28034" lon="-2.41147">
        <ele>66</ele>
        <time>2011-04-24T09:01:11Z</time>
      </trkpt>
      <trkpt lat="47.28033" lon="-2.41154">
        <ele>66</ele>
        <time>2011-04-24T09:01:12Z</time>
      </trkpt>
      <trkpt lat="47.28033" lon="-2.41166">
        <ele>68</ele>
        <time>2011-04-24T09:01:14Z</time>
      </trkpt>
      <trkpt lat="47.28036" lon="-2.41179">
        <ele>69</ele>
        <time>2011-04-24T09:01:16Z</time>
      </trkpt>
      <trkpt lat="47.28035" lon="-2.41191">
        <ele>69</ele>
        <time>2011-04-24T09:01:18Z</time>
      </trkpt>
      <trkpt lat="47.28036" lon="-2.41202">
        <ele>69</ele>
        <time>2011-04-24T09:01:20Z</time>
      </trkpt>
      <trkpt lat="47.28034" lon="-2.41214">
        <ele>69</ele>
        <time>2011-04-24T09:01:22Z</time>
      </trkpt>
      <trkpt lat="47.28033" lon="-2.41226">
        <ele>70</ele>
        <time>2011-04-24T09:01:24Z</time>
      </trkpt>
      <trkpt lat="47.28031" lon="-2.41233">
        <ele>69</ele>
        <time>2011-04-24T09:01:25Z</time>
      </trkpt>
      <trkpt lat="47.2803" lon="-2.41239">
        <ele>69</ele>
        <time>2011-04-24T09:01:26Z</time>
      </trkpt>
      <trkpt lat="47.28027" lon="-2.4125">
        <ele>69</ele>
        <time>2011-04-24T09:01:28Z</time>
      </trkpt>
      <trkpt lat="47.28025" lon="-2.41262">
        <ele>69</ele>
        <time>2011-04-24T09:01:30Z</time>
      </trkpt>
      <trkpt lat="47.28023" lon="-2.41268">
        <ele>70</ele>
        <time>2011-04-24T09:01:31Z</time>
      </trkpt>
      <trkpt lat="47.28021" lon="-2.41275">
        <ele>70</ele>
        <time>2011-04-24T09:01:32Z</time>
      </trkpt>
      <trkpt lat="47.28018" lon="-2.41282">
        <ele>70</ele>
        <time>2011-04-24T09:01:33Z</time>
      </trkpt>
      <trkpt lat="47.28016" lon="-2.41288">
        <ele>70</ele>
        <time>2011-04-24T09:01:34Z</time>
      </trkpt>
      <trkpt lat="47.28013" lon="-2.41299">
        <ele>70</ele>
        <time>2011-04-24T09:01:36Z</time>
      </trkpt>
      <trkpt lat="47.2801" lon="-2.41309">
        <ele>71</ele>
        <time>2011-04-24T09:01:38Z</time>
      </trkpt>
      <trkpt lat="47.28005" lon="-2.4132">
        <ele>70</ele>
        <time>2011-04-24T09:01:40Z</time>
      </trkpt>
      <trkpt lat="47.28003" lon="-2.41327">
        <ele>70</ele>
        <time>2011-04-24T09:01:41Z</time>
      </trkpt>
      <trkpt lat="47.28001" lon="-2.41335">
        <ele>68</ele>
        <time>2011-04-24T09:01:42Z</time>
      </trkpt>
      <trkpt lat="47.28" lon="-2.41346">
        <ele>68</ele>
        <time>2011-04-24T09:01:44Z</time>
      </trkpt>
      <trkpt lat="47.27998" lon="-2.41353">
        <ele>68</ele>
        <time>2011-04-24T09:01:45Z</time>
      </trkpt>
      <trkpt lat="47.27997" lon="-2.4136">
        <ele>68</ele>
        <time>2011-04-24T09:01:46Z</time>
      </trkpt>
      <trkpt lat="47.27996" lon="-2.41367">
        <ele>68</ele>
        <time>2011-04-24T09:01:47Z</time>
      </trkpt>
      <trkpt lat="47.27995" lon="-2.41374">
        <ele>68</ele>
        <time>2011-04-24T09:01:48Z</time>
      </trkpt>
      <trkpt lat="47.27994" lon="-2.41385">
        <ele>68</ele>
        <time>2011-04-24T09:01:50Z</time>
      </trkpt>
      <trkpt lat="47.27992" lon="-2.41392">
        <ele>67</ele>
        <time>2011-04-24T09:01:51Z</time>
      </trkpt>
      <trkpt lat="47.27992" lon="-2.41399">
        <ele>67</ele>
        <time>2011-04-24T09:01:52Z</time>
      </trkpt>
      <trkpt lat="47.27991" lon="-2.41406">
        <ele>67</ele>
        <time>2011-04-24T09:01:53Z</time>
      </trkpt>
      <trkpt lat="47.2799" lon="-2.41413">
        <ele>66</ele>
        <time>2011-04-24T09:01:54Z</time>
      </trkpt>
      <trkpt lat="47.27988" lon="-2.4142">
        <ele>64</ele>
        <time>2011-04-24T09:01:55Z</time>
      </trkpt>
      <trkpt lat="47.2799" lon="-2.41428">
        <ele>63</ele>
        <time>2011-04-24T09:01:56Z</time>
      </trkpt>
      <trkpt lat="47.27989" lon="-2.41441">
        <ele>62</ele>
        <time>2011-04-24T09:01:58Z</time>
      </trkpt>
      <trkpt lat="47.27988" lon="-2.41452">
        <ele>62</ele>
        <time>2011-04-24T09:02:00Z</time>
      </trkpt>
      <trkpt lat="47.27986" lon="-2.41459">
        <ele>61</ele>
        <time>2011-04-24T09:02:01Z</time>
      </trkpt>
      <trkpt lat="47.27983" lon="-2.41471">
        <ele>60</ele>
        <time>2011-04-24T09:02:03Z</time>
      </trkpt>
      <trkpt lat="47.2798" lon="-2.41482">
        <ele>61</ele>
        <time>2011-04-24T09:02:05Z</time>
      </trkpt>
      <trkpt lat="47.27978" lon="-2.41489">
        <ele>60</ele>
        <time>2011-04-24T09:02:06Z</time>
      </trkpt>
      <trkpt lat="47.27975" lon="-2.41496">
        <ele>61</ele>
        <time>2011-04-24T09:02:07Z</time>
      </trkpt>
      <trkpt lat="47.27971" lon="-2.41508">
        <ele>60</ele>
        <time>2011-04-24T09:02:09Z</time>
      </trkpt>
      <trkpt lat="47.27969" lon="-2.41516">
        <ele>61</ele>
        <time>2011-04-24T09:02:10Z</time>
      </trkpt>
      <trkpt lat="47.27967" lon="-2.41522">
        <ele>61</ele>
        <time>2011-04-24T09:02:11Z</time>
      </trkpt>
      <trkpt lat="47.27962" lon="-2.41532">
        <ele>61</ele>
        <time>2011-04-24T09:02:13Z</time>
      </trkpt>
      <trkpt lat="47.27959" lon="-2.41542">
        <ele>61</ele>
        <time>2011-04-24T09:02:15Z</time>
      </trkpt>
      <trkpt lat="47.27957" lon="-2.41548">
        <ele>61</ele>
        <time>2011-04-24T09:02:16Z</time>
      </trkpt>
      <trkpt lat="47.27955" lon="-2.41554">
        <ele>61</ele>
        <time>2011-04-24T09:02:17Z</time>
      </trkpt>
      <trkpt lat="47.27952" lon="-2.4156">
        <ele>62</ele>
        <time>2011-04-24T09:02:18Z</time>
      </trkpt>
      <trkpt lat="47.27949" lon="-2.41565">
        <ele>63</ele>
        <time>2011-04-24T09:02:19Z</time>
      </trkpt>
      <trkpt lat="47.27947" lon="-2.41571">
        <ele>62</ele>
        <time>2011-04-24T09:02:20Z</time>
      </trkpt>
      <trkpt lat="47.27945" lon="-2.41582">
        <ele>63</ele>
        <time>2011-04-24T09:02:22Z</time>
      </trkpt>
      <trkpt lat="47.27943" lon="-2.41593">
        <ele>63</ele>
        <time>2011-04-24T09:02:24Z</time>
      </trkpt>
      <trkpt lat="47.2794" lon="-2.41598">
        <ele>63</ele>
        <time>2011-04-24T09:02:25Z</time>
      </trkpt>
      <trkpt lat="47.27938" lon="-2.41605">
        <ele>63</ele>
        <time>2011-04-24T09:02:26Z</time>
      </trkpt>
      <trkpt lat="47.27935" lon="-2.41611">
        <ele>63</ele>
        <time>2011-04-24T09:02:27Z</time>
      </trkpt>
      <trkpt lat="47.27929" lon="-2.41624">
        <ele>63</ele>
        <time>2011-04-24T09:02:29Z</time>
      </trkpt>
      <trkpt lat="47.27926" lon="-2.41631">
        <ele>62</ele>
        <time>2011-04-24T09:02:30Z</time>
      </trkpt>
      <trkpt lat="47.27921" lon="-2.41641">
        <ele>63</ele>
        <time>2011-04-24T09:02:32Z</time>
      </trkpt>
      <trkpt lat="47.27918" lon="-2.41648">
        <ele>63</ele>
        <time>2011-04-24T09:02:33Z</time>
      </trkpt>
      <trkpt lat="47.27915" lon="-2.41652">
        <ele>63</ele>
        <time>2011-04-24T09:02:34Z</time>
      </trkpt>
      <trkpt lat="47.27909" lon="-2.41658">
        <ele>63</ele>
        <time>2011-04-24T09:02:35Z</time>
      </trkpt>
      <trkpt lat="47.27906" lon="-2.41664">
        <ele>63</ele>
        <time>2011-04-24T09:02:36Z</time>
      </trkpt>
      <trkpt lat="47.27902" lon="-2.4167">
        <ele>63</ele>
        <time>2011-04-24T09:02:37Z</time>
      </trkpt>
      <trkpt lat="47.279" lon="-2.41677">
        <ele>62</ele>
        <time>2011-04-24T09:02:38Z</time>
      </trkpt>
      <trkpt lat="47.27897" lon="-2.41682">
        <ele>62</ele>
        <time>2011-04-24T09:02:39Z</time>
      </trkpt>
      <trkpt lat="47.27895" lon="-2.41688">
        <ele>63</ele>
        <time>2011-04-24T09:02:40Z</time>
      </trkpt>
      <trkpt lat="47.27887" lon="-2.41698">
        <ele>62</ele>
        <time>2011-04-24T09:02:42Z</time>
      </trkpt>
      <trkpt lat="47.27883" lon="-2.41704">
        <ele>61</ele>
        <time>2011-04-24T09:02:43Z</time>
      </trkpt>
      <trkpt lat="47.2788" lon="-2.41709">
        <ele>60</ele>
        <time>2011-04-24T09:02:44Z</time>
      </trkpt>
      <trkpt lat="47.27874" lon="-2.41717">
        <ele>59</ele>
        <time>2011-04-24T09:02:46Z</time>
      </trkpt>
      <trkpt lat="47.2787" lon="-2.41723">
        <ele>60</ele>
        <time>2011-04-24T09:02:48Z</time>
      </trkpt>
      <trkpt lat="47.27865" lon="-2.41728">
        <ele>61</ele>
        <time>2011-04-24T09:02:50Z</time>
      </trkpt>
      <trkpt lat="47.2786" lon="-2.41731">
        <ele>58</ele>
        <time>2011-04-24T09:02:52Z</time>
      </trkpt>
      <trkpt lat="47.27861" lon="-2.41739">
        <ele>55</ele>
        <time>2011-04-24T09:03:24Z</time>
      </trkpt>
      <trkpt lat="47.27857" lon="-2.41751">
        <ele>57</ele>
        <time>2011-04-24T09:03:26Z</time>
      </trkpt>
      <trkpt lat="47.27854" lon="-2.41758">
        <ele>58</ele>
        <time>2011-04-24T09:03:27Z</time>
      </trkpt>
      <trkpt lat="47.27851" lon="-2.41765">
        <ele>58</ele>
        <time>2011-04-24T09:03:28Z</time>
      </trkpt>
      <trkpt lat="47.2785" lon="-2.41773">
        <ele>61</ele>
        <time>2011-04-24T09:03:30Z</time>
      </trkpt>
      <trkpt lat="47.27846" lon="-2.41783">
        <ele>61</ele>
        <time>2011-04-24T09:03:32Z</time>
      </trkpt>
      <trkpt lat="47.27844" lon="-2.41794">
        <ele>62</ele>
        <time>2011-04-24T09:03:34Z</time>
      </trkpt>
      <trkpt lat="47.2784" lon="-2.41804">
        <ele>63</ele>
        <time>2011-04-24T09:03:36Z</time>
      </trkpt>
      <trkpt lat="47.27836" lon="-2.41814">
        <ele>63</ele>
        <time>2011-04-24T09:03:38Z</time>
      </trkpt>
      <trkpt lat="47.27833" lon="-2.4182">
        <ele>64</ele>
        <time>2011-04-24T09:03:39Z</time>
      </trkpt>
      <trkpt lat="47.2783" lon="-2.41826">
        <ele>65</ele>
        <time>2011-04-24T09:03:40Z</time>
      </trkpt>
      <trkpt lat="47.27827" lon="-2.41832">
        <ele>65</ele>
        <time>2011-04-24T09:03:41Z</time>
      </trkpt>
      <trkpt lat="47.27822" lon="-2.41839">
        <ele>64</ele>
        <time>2011-04-24T09:03:42Z</time>
      </trkpt>
      <trkpt lat="47.27819" lon="-2.4185">
        <ele>66</ele>
        <time>2011-04-24T09:03:44Z</time>
      </trkpt>
      <trkpt lat="47.27816" lon="-2.41857">
        <ele>66</ele>
        <time>2011-04-24T09:03:45Z</time>
      </trkpt>
      <trkpt lat="47.27811" lon="-2.41864">
        <ele>65</ele>
        <time>2011-04-24T09:03:46Z</time>
      </trkpt>
      <trkpt lat="47.27809" lon="-2.41871">
        <ele>65</ele>
        <time>2011-04-24T09:03:47Z</time>
      </trkpt>
      <trkpt lat="47.27806" lon="-2.41878">
        <ele>64</ele>
        <time>2011-04-24T09:03:48Z</time>
      </trkpt>
      <trkpt lat="47.27804" lon="-2.41884">
        <ele>64</ele>
        <time>2011-04-24T09:03:49Z</time>
      </trkpt>
      <trkpt lat="47.278" lon="-2.41891">
        <ele>64</ele>
        <time>2011-04-24T09:03:50Z</time>
      </trkpt>
      <trkpt lat="47.27798" lon="-2.41903">
        <ele>65</ele>
        <time>2011-04-24T09:03:52Z</time>
      </trkpt>
      <trkpt lat="47.27794" lon="-2.41913">
        <ele>65</ele>
        <time>2011-04-24T09:03:54Z</time>
      </trkpt>
      <trkpt lat="47.27791" lon="-2.41919">
        <ele>65</ele>
        <time>2011-04-24T09:03:55Z</time>
      </trkpt>
      <trkpt lat="47.27788" lon="-2.41928">
        <ele>65</ele>
        <time>2011-04-24T09:03:57Z</time>
      </trkpt>
      <trkpt lat="47.27785" lon="-2.41935">
        <ele>62</ele>
        <time>2011-04-24T09:03:58Z</time>
      </trkpt>
      <trkpt lat="47.27783" lon="-2.41943">
        <ele>61</ele>
        <time>2011-04-24T09:03:59Z</time>
      </trkpt>
      <trkpt lat="47.27781" lon="-2.41949">
        <ele>61</ele>
        <time>2011-04-24T09:04:00Z</time>
      </trkpt>
      <trkpt lat="47.27777" lon="-2.41959">
        <ele>61</ele>
        <time>2011-04-24T09:04:02Z</time>
      </trkpt>
      <trkpt lat="47.27776" lon="-2.41966">
        <ele>61</ele>
        <time>2011-04-24T09:04:03Z</time>
      </trkpt>
      <trkpt lat="47.27775" lon="-2.41973">
        <ele>60</ele>
        <time>2011-04-24T09:04:04Z</time>
      </trkpt>
      <trkpt lat="47.27774" lon="-2.4198">
        <ele>60</ele>
        <time>2011-04-24T09:04:05Z</time>
      </trkpt>
      <trkpt lat="47.27772" lon="-2.41992">
        <ele>62</ele>
        <time>2011-04-24T09:04:07Z</time>
      </trkpt>
      <trkpt lat="47.27768" lon="-2.42">
        <ele>62</ele>
        <time>2011-04-24T09:04:08Z</time>
      </trkpt>
      <trkpt lat="47.27767" lon="-2.42006">
        <ele>63</ele>
        <time>2011-04-24T09:04:09Z</time>
      </trkpt>
      <trkpt lat="47.27765" lon="-2.42014">
        <ele>63</ele>
        <time>2011-04-24T09:04:10Z</time>
      </trkpt>
      <trkpt lat="47.27762" lon="-2.42021">
        <ele>62</ele>
        <time>2011-04-24T09:04:11Z</time>
      </trkpt>
      <trkpt lat="47.27761" lon="-2.42028">
        <ele>61</ele>
        <time>2011-04-24T09:04:12Z</time>
      </trkpt>
      <trkpt lat="47.27758" lon="-2.42036">
        <ele>59</ele>
        <time>2011-04-24T09:04:13Z</time>
      </trkpt>
      <trkpt lat="47.27756" lon="-2.42044">
        <ele>59</ele>
        <time>2011-04-24T09:04:14Z</time>
      </trkpt>
      <trkpt lat="47.27755" lon="-2.42052">
        <ele>59</ele>
        <time>2011-04-24T09:04:15Z</time>
      </trkpt>
      <trkpt lat="47.27755" lon="-2.42061">
        <ele>59</ele>
        <time>2011-04-24T09:04:17Z</time>
      </trkpt>
      <trkpt lat="47.27752" lon="-2.42068">
        <ele>58</ele>
        <time>2011-04-24T09:04:18Z</time>
      </trkpt>
      <trkpt lat="47.27751" lon="-2.42077">
        <ele>58</ele>
        <time>2011-04-24T09:04:19Z</time>
      </trkpt>
      <trkpt lat="47.2775" lon="-2.42085">
        <ele>57</ele>
        <time>2011-04-24T09:04:20Z</time>
      </trkpt>
      <trkpt lat="47.27748" lon="-2.42093">
        <ele>57</ele>
        <time>2011-04-24T09:04:21Z</time>
      </trkpt>
      <trkpt lat="47.27747" lon="-2.42101">
        <ele>56</ele>
        <time>2011-04-24T09:04:22Z</time>
      </trkpt>
      <trkpt lat="47.27747" lon="-2.42109">
        <ele>57</ele>
        <time>2011-04-24T09:04:23Z</time>
      </trkpt>
      <trkpt lat="47.27746" lon="-2.42117">
        <ele>57</ele>
        <time>2011-04-24T09:04:24Z</time>
      </trkpt>
      <trkpt lat="47.27745" lon="-2.42124">
        <ele>56</ele>
        <time>2011-04-24T09:04:25Z</time>
      </trkpt>
      <trkpt lat="47.27743" lon="-2.42136">
        <ele>56</ele>
        <time>2011-04-24T09:04:27Z</time>
      </trkpt>
      <trkpt lat="47.27743" lon="-2.42148">
        <ele>56</ele>
        <time>2011-04-24T09:04:29Z</time>
      </trkpt>
      <trkpt lat="47.27743" lon="-2.42155">
        <ele>57</ele>
        <time>2011-04-24T09:04:30Z</time>
      </trkpt>
      <trkpt lat="47.27743" lon="-2.42163">
        <ele>57</ele>
        <time>2011-04-24T09:04:31Z</time>
      </trkpt>
      <trkpt lat="47.27744" lon="-2.42171">
        <ele>57</ele>
        <time>2011-04-24T09:04:32Z</time>
      </trkpt>
      <trkpt lat="47.27744" lon="-2.42184">
        <ele>57</ele>
        <time>2011-04-24T09:04:34Z</time>
      </trkpt>
      <trkpt lat="47.27743" lon="-2.4219">
        <ele>57</ele>
        <time>2011-04-24T09:04:35Z</time>
      </trkpt>
      <trkpt lat="47.27742" lon="-2.42198">
        <ele>58</ele>
        <time>2011-04-24T09:04:36Z</time>
      </trkpt>
      <trkpt lat="47.27741" lon="-2.42204">
        <ele>59</ele>
        <time>2011-04-24T09:04:37Z</time>
      </trkpt>
      <trkpt lat="47.27738" lon="-2.42212">
        <ele>57</ele>
        <time>2011-04-24T09:04:38Z</time>
      </trkpt>
      <trkpt lat="47.27739" lon="-2.42222">
        <ele>57</ele>
        <time>2011-04-24T09:04:39Z</time>
      </trkpt>
      <trkpt lat="47.2774" lon="-2.42229">
        <ele>57</ele>
        <time>2011-04-24T09:04:40Z</time>
      </trkpt>
      <trkpt lat="47.27739" lon="-2.42241">
        <ele>57</ele>
        <time>2011-04-24T09:04:42Z</time>
      </trkpt>
      <trkpt lat="47.27738" lon="-2.42254">
        <ele>57</ele>
        <time>2011-04-24T09:04:44Z</time>
      </trkpt>
      <trkpt lat="47.27736" lon="-2.42265">
        <ele>58</ele>
        <time>2011-04-24T09:04:46Z</time>
      </trkpt>
      <trkpt lat="47.27733" lon="-2.42272">
        <ele>57</ele>
        <time>2011-04-24T09:04:47Z</time>
      </trkpt>
      <trkpt lat="47.27731" lon="-2.42278">
        <ele>57</ele>
        <time>2011-04-24T09:04:48Z</time>
      </trkpt>
      <trkpt lat="47.27732" lon="-2.42285">
        <ele>57</ele>
        <time>2011-04-24T09:04:49Z</time>
      </trkpt>
      <trkpt lat="47.27734" lon="-2.42292">
        <ele>57</ele>
        <time>2011-04-24T09:04:50Z</time>
      </trkpt>
      <trkpt lat="47.27734" lon="-2.42299">
        <ele>57</ele>
        <time>2011-04-24T09:04:51Z</time>
      </trkpt>
      <trkpt lat="47.27737" lon="-2.42307">
        <ele>57</ele>
        <time>2011-04-24T09:04:52Z</time>
      </trkpt>
      <trkpt lat="47.27737" lon="-2.42316">
        <ele>57</ele>
        <time>2011-04-24T09:04:53Z</time>
      </trkpt>
      <trkpt lat="47.27739" lon="-2.42325">
        <ele>57</ele>
        <time>2011-04-24T09:04:54Z</time>
      </trkpt>
      <trkpt lat="47.27741" lon="-2.42334">
        <ele>57</ele>
        <time>2011-04-24T09:04:55Z</time>
      </trkpt>
      <trkpt lat="47.27742" lon="-2.42342">
        <ele>57</ele>
        <time>2011-04-24T09:04:56Z</time>
      </trkpt>
      <trkpt lat="47.27742" lon="-2.42349">
        <ele>59</ele>
        <time>2011-04-24T09:04:57Z</time>
      </trkpt>
      <trkpt lat="47.27744" lon="-2.42362">
        <ele>59</ele>
        <time>2011-04-24T09:04:59Z</time>
      </trkpt>
      <trkpt lat="47.27745" lon="-2.42369">
        <ele>58</ele>
        <time>2011-04-24T09:05:00Z</time>
      </trkpt>
      <trkpt lat="47.27746" lon="-2.42383">
        <ele>59</ele>
        <time>2011-04-24T09:05:02Z</time>
      </trkpt>
      <trkpt lat="47.27747" lon="-2.4239">
        <ele>59</ele>
        <time>2011-04-24T09:05:03Z</time>
      </trkpt>
      <trkpt lat="47.27748" lon="-2.42397">
        <ele>59</ele>
        <time>2011-04-24T09:05:04Z</time>
      </trkpt>
      <trkpt lat="47.27748" lon="-2.42409">
        <ele>59</ele>
        <time>2011-04-24T09:05:06Z</time>
      </trkpt>
      <trkpt lat="47.27748" lon="-2.42418">
        <ele>60</ele>
        <time>2011-04-24T09:05:07Z</time>
      </trkpt>
      <trkpt lat="47.27748" lon="-2.42424">
        <ele>61</ele>
        <time>2011-04-24T09:05:08Z</time>
      </trkpt>
      <trkpt lat="47.27749" lon="-2.42432">
        <ele>61</ele>
        <time>2011-04-24T09:05:09Z</time>
      </trkpt>
      <trkpt lat="47.27749" lon="-2.4244">
        <ele>60</ele>
        <time>2011-04-24T09:05:10Z</time>
      </trkpt>
      <trkpt lat="47.2775" lon="-2.42451">
        <ele>61</ele>
        <time>2011-04-24T09:05:12Z</time>
      </trkpt>
      <trkpt lat="47.27756" lon="-2.42466">
        <ele>61</ele>
        <time>2011-04-24T09:05:14Z</time>
      </trkpt>
      <trkpt lat="47.27759" lon="-2.42474">
        <ele>62</ele>
        <time>2011-04-24T09:05:15Z</time>
      </trkpt>
      <trkpt lat="47.27762" lon="-2.42486">
        <ele>63</ele>
        <time>2011-04-24T09:05:17Z</time>
      </trkpt>
      <trkpt lat="47.27766" lon="-2.42497">
        <ele>63</ele>
        <time>2011-04-24T09:05:19Z</time>
      </trkpt>
      <trkpt lat="47.27769" lon="-2.42508">
        <ele>64</ele>
        <time>2011-04-24T09:05:21Z</time>
      </trkpt>
      <trkpt lat="47.27772" lon="-2.42514">
        <ele>64</ele>
        <time>2011-04-24T09:05:22Z</time>
      </trkpt>
      <trkpt lat="47.27775" lon="-2.4252">
        <ele>63</ele>
        <time>2011-04-24T09:05:23Z</time>
      </trkpt>
      <trkpt lat="47.27778" lon="-2.42528">
        <ele>63</ele>
        <time>2011-04-24T09:05:24Z</time>
      </trkpt>
      <trkpt lat="47.27781" lon="-2.42535">
        <ele>63</ele>
        <time>2011-04-24T09:05:25Z</time>
      </trkpt>
      <trkpt lat="47.27786" lon="-2.42546">
        <ele>63</ele>
        <time>2011-04-24T09:05:27Z</time>
      </trkpt>
      <trkpt lat="47.27789" lon="-2.42553">
        <ele>62</ele>
        <time>2011-04-24T09:05:28Z</time>
      </trkpt>
      <trkpt lat="47.27791" lon="-2.42558">
        <ele>63</ele>
        <time>2011-04-24T09:05:29Z</time>
      </trkpt>
      <trkpt lat="47.27794" lon="-2.42564">
        <ele>63</ele>
        <time>2011-04-24T09:05:30Z</time>
      </trkpt>
      <trkpt lat="47.27798" lon="-2.42576">
        <ele>63</ele>
        <time>2011-04-24T09:05:32Z</time>
      </trkpt>
      <trkpt lat="47.27801" lon="-2.42582">
        <ele>63</ele>
        <time>2011-04-24T09:05:33Z</time>
      </trkpt>
      <trkpt lat="47.27804" lon="-2.42589">
        <ele>63</ele>
        <time>2011-04-24T09:05:34Z</time>
      </trkpt>
      <trkpt lat="47.27807" lon="-2.42595">
        <ele>63</ele>
        <time>2011-04-24T09:05:35Z</time>
      </trkpt>
      <trkpt lat="47.27808" lon="-2.42602">
        <ele>63</ele>
        <time>2011-04-24T09:05:36Z</time>
      </trkpt>
      <trkpt lat="47.27812" lon="-2.42614">
        <ele>63</ele>
        <time>2011-04-24T09:05:38Z</time>
      </trkpt>
      <trkpt lat="47.27815" lon="-2.42626">
        <ele>64</ele>
        <time>2011-04-24T09:05:40Z</time>
      </trkpt>
      <trkpt lat="47.27817" lon="-2.42637">
        <ele>63</ele>
        <time>2011-04-24T09:05:42Z</time>
      </trkpt>
      <trkpt lat="47.27818" lon="-2.42644">
        <ele>63</ele>
        <time>2011-04-24T09:05:43Z</time>
      </trkpt>
      <trkpt lat="47.2782" lon="-2.42656">
        <ele>62</ele>
        <time>2011-04-24T09:05:45Z</time>
      </trkpt>
      <trkpt lat="47.27822" lon="-2.42667">
        <ele>63</ele>
        <time>2011-04-24T09:05:47Z</time>
      </trkpt>
      <trkpt lat="47.27824" lon="-2.42679">
        <ele>62</ele>
        <time>2011-04-24T09:05:49Z</time>
      </trkpt>
      <trkpt lat="47.27826" lon="-2.42688">
        <ele>63</ele>
        <time>2011-04-24T09:05:51Z</time>
      </trkpt>
      <trkpt lat="47.27826" lon="-2.42699">
        <ele>64</ele>
        <time>2011-04-24T09:05:53Z</time>
      </trkpt>
      <trkpt lat="47.27826" lon="-2.42708">
        <ele>64</ele>
        <time>2011-04-24T09:05:55Z</time>
      </trkpt>
      <trkpt lat="47.27825" lon="-2.42715">
        <ele>63</ele>
        <time>2011-04-24T09:05:57Z</time>
      </trkpt>
      <trkpt lat="47.27825" lon="-2.42724">
        <ele>63</ele>
        <time>2011-04-24T09:05:59Z</time>
      </trkpt>
      <trkpt lat="47.27824" lon="-2.42733">
        <ele>62</ele>
        <time>2011-04-24T09:06:01Z</time>
      </trkpt>
      <trkpt lat="47.27825" lon="-2.42743">
        <ele>62</ele>
        <time>2011-04-24T09:06:03Z</time>
      </trkpt>
      <trkpt lat="47.27828" lon="-2.4275">
        <ele>63</ele>
        <time>2011-04-24T09:06:05Z</time>
      </trkpt>
      <trkpt lat="47.2783" lon="-2.42757">
        <ele>63</ele>
        <time>2011-04-24T09:06:07Z</time>
      </trkpt>
      <trkpt lat="47.2783" lon="-2.42757">
        <ele>63</ele>
        <time>2011-04-24T09:06:07Z</time>
      </trkpt>
      <trkpt lat="47.2783" lon="-2.42757">
        <ele>60</ele>
        <time>2011-04-24T09:07:02Z</time>
      </trkpt>
      <trkpt lat="47.27831" lon="-2.42764">
        <ele>60</ele>
        <time>2011-04-24T09:07:08Z</time>
      </trkpt>
      <trkpt lat="47.2783" lon="-2.42772">
        <ele>59</ele>
        <time>2011-04-24T09:07:11Z</time>
      </trkpt>
      <trkpt lat="47.27829" lon="-2.4278">
        <ele>59</ele>
        <time>2011-04-24T09:07:13Z</time>
      </trkpt>
      <trkpt lat="47.27829" lon="-2.42787">
        <ele>60</ele>
        <time>2011-04-24T09:07:15Z</time>
      </trkpt>
      <trkpt lat="47.2783" lon="-2.42796">
        <ele>60</ele>
        <time>2011-04-24T09:07:17Z</time>
      </trkpt>
      <trkpt lat="47.2783" lon="-2.42805">
        <ele>59</ele>
        <time>2011-04-24T09:07:19Z</time>
      </trkpt>
      <trkpt lat="47.2783" lon="-2.42813">
        <ele>58</ele>
        <time>2011-04-24T09:07:21Z</time>
      </trkpt>
      <trkpt lat="47.27833" lon="-2.4282">
        <ele>59</ele>
        <time>2011-04-24T09:07:23Z</time>
      </trkpt>
      <trkpt lat="47.27834" lon="-2.42828">
        <ele>58</ele>
        <time>2011-04-24T09:07:25Z</time>
      </trkpt>
      <trkpt lat="47.27828" lon="-2.4283">
        <ele>58</ele>
        <time>2011-04-24T09:07:29Z</time>
      </trkpt>
      <trkpt lat="47.27822" lon="-2.42828">
        <ele>58</ele>
        <time>2011-04-24T09:07:32Z</time>
      </trkpt>
      <trkpt lat="47.27817" lon="-2.42828">
        <ele>59</ele>
        <time>2011-04-24T09:07:34Z</time>
      </trkpt>
      <trkpt lat="47.27812" lon="-2.42827">
        <ele>59</ele>
        <time>2011-04-24T09:07:36Z</time>
      </trkpt>
      <trkpt lat="47.27808" lon="-2.42826">
        <ele>59</ele>
        <time>2011-04-24T09:07:38Z</time>
      </trkpt>
      <trkpt lat="47.27802" lon="-2.42825">
        <ele>59</ele>
        <time>2011-04-24T09:07:40Z</time>
      </trkpt>
      <trkpt lat="47.27794" lon="-2.42824">
        <ele>59</ele>
        <time>2011-04-24T09:07:42Z</time>
      </trkpt>
      <trkpt lat="47.27788" lon="-2.42822">
        <ele>60</ele>
        <time>2011-04-24T09:07:45Z</time>
      </trkpt>
      <trkpt lat="47.27782" lon="-2.4282">
        <ele>59</ele>
        <time>2011-04-24T09:07:47Z</time>
      </trkpt>
      <trkpt lat="47.27777" lon="-2.42817">
        <ele>61</ele>
        <time>2011-04-24T09:07:50Z</time>
      </trkpt>
      <trkpt lat="47.2777" lon="-2.42818">
        <ele>62</ele>
        <time>2011-04-24T09:07:52Z</time>
      </trkpt>
      <trkpt lat="47.27763" lon="-2.42819">
        <ele>62</ele>
        <time>2011-04-24T09:07:54Z</time>
      </trkpt>
      <trkpt lat="47.27755" lon="-2.42819">
        <ele>62</ele>
        <time>2011-04-24T09:07:57Z</time>
      </trkpt>
      <trkpt lat="47.27747" lon="-2.42818">
        <ele>62</ele>
        <time>2011-04-24T09:07:59Z</time>
      </trkpt>
      <trkpt lat="47.2774" lon="-2.42818">
        <ele>62</ele>
        <time>2011-04-24T09:08:01Z</time>
      </trkpt>
      <trkpt lat="47.27734" lon="-2.42817">
        <ele>62</ele>
        <time>2011-04-24T09:08:03Z</time>
      </trkpt>
      <trkpt lat="47.27729" lon="-2.42816">
        <ele>62</ele>
        <time>2011-04-24T09:08:04Z</time>
      </trkpt>
      <trkpt lat="47.27724" lon="-2.42813">
        <ele>62</ele>
        <time>2011-04-24T09:08:05Z</time>
      </trkpt>
      <trkpt lat="47.27719" lon="-2.42812">
        <ele>62</ele>
        <time>2011-04-24T09:08:06Z</time>
      </trkpt>
      <trkpt lat="47.27713" lon="-2.4281">
        <ele>61</ele>
        <time>2011-04-24T09:08:08Z</time>
      </trkpt>
      <trkpt lat="47.27708" lon="-2.42808">
        <ele>61</ele>
        <time>2011-04-24T09:08:09Z</time>
      </trkpt>
      <trkpt lat="47.277" lon="-2.42805">
        <ele>61</ele>
        <time>2011-04-24T09:08:11Z</time>
      </trkpt>
      <trkpt lat="47.27692" lon="-2.42805">
        <ele>60</ele>
        <time>2011-04-24T09:08:13Z</time>
      </trkpt>
      <trkpt lat="47.27686" lon="-2.42802">
        <ele>59</ele>
        <time>2011-04-24T09:08:15Z</time>
      </trkpt>
      <trkpt lat="47.27683" lon="-2.42796">
        <ele>61</ele>
        <time>2011-04-24T09:08:17Z</time>
      </trkpt>
      <trkpt lat="47.27678" lon="-2.4279">
        <ele>65</ele>
        <time>2011-04-24T09:08:20Z</time>
      </trkpt>
      <trkpt lat="47.27672" lon="-2.42785">
        <ele>67</ele>
        <time>2011-04-24T09:08:23Z</time>
      </trkpt>
      <trkpt lat="47.27666" lon="-2.42781">
        <ele>66</ele>
        <time>2011-04-24T09:08:25Z</time>
      </trkpt>
      <trkpt lat="47.2766" lon="-2.42777">
        <ele>66</ele>
        <time>2011-04-24T09:08:27Z</time>
      </trkpt>
      <trkpt lat="47.27656" lon="-2.42772">
        <ele>66</ele>
        <time>2011-04-24T09:08:29Z</time>
      </trkpt>
      <trkpt lat="47.27652" lon="-2.42767">
        <ele>66</ele>
        <time>2011-04-24T09:08:31Z</time>
      </trkpt>
      <trkpt lat="47.27648" lon="-2.42762">
        <ele>66</ele>
        <time>2011-04-24T09:08:33Z</time>
      </trkpt>
      <trkpt lat="47.27645" lon="-2.42757">
        <ele>66</ele>
        <time>2011-04-24T09:08:35Z</time>
      </trkpt>
      <trkpt lat="47.27639" lon="-2.42752">
        <ele>66</ele>
        <time>2011-04-24T09:08:37Z</time>
      </trkpt>
      <trkpt lat="47.27635" lon="-2.42748">
        <ele>67</ele>
        <time>2011-04-24T09:08:38Z</time>
      </trkpt>
      <trkpt lat="47.27629" lon="-2.42743">
        <ele>66</ele>
        <time>2011-04-24T09:08:40Z</time>
      </trkpt>
      <trkpt lat="47.27624" lon="-2.42737">
        <ele>66</ele>
        <time>2011-04-24T09:08:42Z</time>
      </trkpt>
      <trkpt lat="47.27619" lon="-2.42732">
        <ele>66</ele>
        <time>2011-04-24T09:08:44Z</time>
      </trkpt>
      <trkpt lat="47.27614" lon="-2.42726">
        <ele>65</ele>
        <time>2011-04-24T09:08:46Z</time>
      </trkpt>
      <trkpt lat="47.2761" lon="-2.42721">
        <ele>65</ele>
        <time>2011-04-24T09:08:48Z</time>
      </trkpt>
      <trkpt lat="47.27604" lon="-2.42715">
        <ele>64</ele>
        <time>2011-04-24T09:08:50Z</time>
      </trkpt>
      <trkpt lat="47.27599" lon="-2.42709">
        <ele>65</ele>
        <time>2011-04-24T09:08:52Z</time>
      </trkpt>
      <trkpt lat="47.27595" lon="-2.42702">
        <ele>65</ele>
        <time>2011-04-24T09:08:54Z</time>
      </trkpt>
      <trkpt lat="47.27592" lon="-2.42697">
        <ele>66</ele>
        <time>2011-04-24T09:08:56Z</time>
      </trkpt>
      <trkpt lat="47.27587" lon="-2.42693">
        <ele>65</ele>
        <time>2011-04-24T09:08:58Z</time>
      </trkpt>
      <trkpt lat="47.27582" lon="-2.42686">
        <ele>65</ele>
        <time>2011-04-24T09:09:01Z</time>
      </trkpt>
      <trkpt lat="47.27576" lon="-2.42681">
        <ele>64</ele>
        <time>2011-04-24T09:09:03Z</time>
      </trkpt>
      <trkpt lat="47.27569" lon="-2.42677">
        <ele>64</ele>
        <time>2011-04-24T09:09:06Z</time>
      </trkpt>
      <trkpt lat="47.27565" lon="-2.42672">
        <ele>64</ele>
        <time>2011-04-24T09:09:08Z</time>
      </trkpt>
      <trkpt lat="47.27562" lon="-2.42667">
        <ele>63</ele>
        <time>2011-04-24T09:09:11Z</time>
      </trkpt>
      <trkpt lat="47.27556" lon="-2.42662">
        <ele>64</ele>
        <time>2011-04-24T09:09:14Z</time>
      </trkpt>
      <trkpt lat="47.27552" lon="-2.42656">
        <ele>64</ele>
        <time>2011-04-24T09:09:17Z</time>
      </trkpt>
      <trkpt lat="47.27547" lon="-2.4265">
        <ele>65</ele>
        <time>2011-04-24T09:09:23Z</time>
      </trkpt>
      <trkpt lat="47.2754" lon="-2.42647">
        <ele>63</ele>
        <time>2011-04-24T09:09:26Z</time>
      </trkpt>
      <trkpt lat="47.27534" lon="-2.42641">
        <ele>63</ele>
        <time>2011-04-24T09:09:30Z</time>
      </trkpt>
      <trkpt lat="47.2753" lon="-2.42634">
        <ele>64</ele>
        <time>2011-04-24T09:09:32Z</time>
      </trkpt>
      <trkpt lat="47.27525" lon="-2.42629">
        <ele>64</ele>
        <time>2011-04-24T09:09:34Z</time>
      </trkpt>
      <trkpt lat="47.2752" lon="-2.42622">
        <ele>65</ele>
        <time>2011-04-24T09:09:36Z</time>
      </trkpt>
      <trkpt lat="47.27515" lon="-2.42617">
        <ele>65</ele>
        <time>2011-04-24T09:09:38Z</time>
      </trkpt>
      <trkpt lat="47.2751" lon="-2.42612">
        <ele>66</ele>
        <time>2011-04-24T09:09:40Z</time>
      </trkpt>
      <trkpt lat="47.27506" lon="-2.42604">
        <ele>66</ele>
        <time>2011-04-24T09:09:42Z</time>
      </trkpt>
      <trkpt lat="47.275" lon="-2.42598">
        <ele>67</ele>
        <time>2011-04-24T09:09:44Z</time>
      </trkpt>
      <trkpt lat="47.27493" lon="-2.42593">
        <ele>66</ele>
        <time>2011-04-24T09:09:46Z</time>
      </trkpt>
      <trkpt lat="47.27486" lon="-2.42584">
        <ele>66</ele>
        <time>2011-04-24T09:09:48Z</time>
      </trkpt>
      <trkpt lat="47.27482" lon="-2.4258">
        <ele>66</ele>
        <time>2011-04-24T09:09:49Z</time>
      </trkpt>
      <trkpt lat="47.27475" lon="-2.42573">
        <ele>66</ele>
        <time>2011-04-24T09:09:51Z</time>
      </trkpt>
      <trkpt lat="47.27471" lon="-2.42567">
        <ele>65</ele>
        <time>2011-04-24T09:09:53Z</time>
      </trkpt>
      <trkpt lat="47.27465" lon="-2.42558">
        <ele>64</ele>
        <time>2011-04-24T09:09:56Z</time>
      </trkpt>
      <trkpt lat="47.2746" lon="-2.42553">
        <ele>62</ele>
        <time>2011-04-24T09:09:58Z</time>
      </trkpt>
      <trkpt lat="47.27456" lon="-2.42546">
        <ele>62</ele>
        <time>2011-04-24T09:10:00Z</time>
      </trkpt>
      <trkpt lat="47.27449" lon="-2.42541">
        <ele>60</ele>
        <time>2011-04-24T09:10:02Z</time>
      </trkpt>
      <trkpt lat="47.27444" lon="-2.42537">
        <ele>60</ele>
        <time>2011-04-24T09:10:04Z</time>
      </trkpt>
      <trkpt lat="47.27442" lon="-2.4253">
        <ele>61</ele>
        <time>2011-04-24T09:10:09Z</time>
      </trkpt>
      <trkpt lat="47.27436" lon="-2.42525">
        <ele>61</ele>
        <time>2011-04-24T09:10:11Z</time>
      </trkpt>
      <trkpt lat="47.27432" lon="-2.42522">
        <ele>59</ele>
        <time>2011-04-24T09:10:12Z</time>
      </trkpt>
      <trkpt lat="47.27424" lon="-2.42515">
        <ele>60</ele>
        <time>2011-04-24T09:10:14Z</time>
      </trkpt>
      <trkpt lat="47.27419" lon="-2.42508">
        <ele>59</ele>
        <time>2011-04-24T09:10:16Z</time>
      </trkpt>
      <trkpt lat="47.27413" lon="-2.42502">
        <ele>59</ele>
        <time>2011-04-24T09:10:18Z</time>
      </trkpt>
      <trkpt lat="47.27407" lon="-2.42495">
        <ele>58</ele>
        <time>2011-04-24T09:10:20Z</time>
      </trkpt>
      <trkpt lat="47.27401" lon="-2.42489">
        <ele>58</ele>
        <time>2011-04-24T09:10:22Z</time>
      </trkpt>
      <trkpt lat="47.27395" lon="-2.42483">
        <ele>58</ele>
        <time>2011-04-24T09:10:24Z</time>
      </trkpt>
      <trkpt lat="47.2739" lon="-2.42477">
        <ele>58</ele>
        <time>2011-04-24T09:10:26Z</time>
      </trkpt>
      <trkpt lat="47.27385" lon="-2.42472">
        <ele>59</ele>
        <time>2011-04-24T09:10:28Z</time>
      </trkpt>
      <trkpt lat="47.2738" lon="-2.42467">
        <ele>60</ele>
        <time>2011-04-24T09:10:30Z</time>
      </trkpt>
      <trkpt lat="47.27376" lon="-2.42463">
        <ele>59</ele>
        <time>2011-04-24T09:10:32Z</time>
      </trkpt>
      <trkpt lat="47.27372" lon="-2.42466">
        <ele>60</ele>
        <time>2011-04-24T09:10:37Z</time>
      </trkpt>
      <trkpt lat="47.27365" lon="-2.42469">
        <ele>60</ele>
        <time>2011-04-24T09:10:40Z</time>
      </trkpt>
      <trkpt lat="47.2736" lon="-2.42466">
        <ele>60</ele>
        <time>2011-04-24T09:10:43Z</time>
      </trkpt>
      <trkpt lat="47.27355" lon="-2.4246">
        <ele>61</ele>
        <time>2011-04-24T09:10:45Z</time>
      </trkpt>
      <trkpt lat="47.27354" lon="-2.42452">
        <ele>61</ele>
        <time>2011-04-24T09:10:48Z</time>
      </trkpt>
      <trkpt lat="47.27348" lon="-2.42452">
        <ele>63</ele>
        <time>2011-04-24T09:10:51Z</time>
      </trkpt>
      <trkpt lat="47.27346" lon="-2.42444">
        <ele>61</ele>
        <time>2011-04-24T09:13:02Z</time>
      </trkpt>
      <trkpt lat="47.27346" lon="-2.42444">
        <ele>61</ele>
        <time>2011-04-24T09:13:02Z</time>
      </trkpt>
      <trkpt lat="47.27346" lon="-2.42444">
        <ele>61</ele>
        <time>2011-04-24T09:13:03Z</time>
      </trkpt>
      <trkpt lat="47.27345" lon="-2.42452">
        <ele>60</ele>
        <time>2011-04-24T09:13:39Z</time>
      </trkpt>
      <trkpt lat="47.27351" lon="-2.42451">
        <ele>60</ele>
        <time>2011-04-24T09:13:42Z</time>
      </trkpt>
      <trkpt lat="47.27356" lon="-2.42448">
        <ele>59</ele>
        <time>2011-04-24T09:13:44Z</time>
      </trkpt>
      <trkpt lat="47.2736" lon="-2.42444">
        <ele>60</ele>
        <time>2011-04-24T09:13:46Z</time>
      </trkpt>
      <trkpt lat="47.27366" lon="-2.42445">
        <ele>59</ele>
        <time>2011-04-24T09:13:48Z</time>
      </trkpt>
      <trkpt lat="47.2737" lon="-2.42447">
        <ele>59</ele>
        <time>2011-04-24T09:13:50Z</time>
      </trkpt>
      <trkpt lat="47.27374" lon="-2.42452">
        <ele>59</ele>
        <time>2011-04-24T09:13:53Z</time>
      </trkpt>
      <trkpt lat="47.27378" lon="-2.42458">
        <ele>59</ele>
        <time>2011-04-24T09:13:56Z</time>
      </trkpt>
      <trkpt lat="47.27382" lon="-2.42462">
        <ele>59</ele>
        <time>2011-04-24T09:13:58Z</time>
      </trkpt>
      <trkpt lat="47.27386" lon="-2.42465">
        <ele>59</ele>
        <time>2011-04-24T09:14:00Z</time>
      </trkpt>
      <trkpt lat="47.27391" lon="-2.42472">
        <ele>59</ele>
        <time>2011-04-24T09:14:02Z</time>
      </trkpt>
      <trkpt lat="47.27394" lon="-2.42478">
        <ele>58</ele>
        <time>2011-04-24T09:14:04Z</time>
      </trkpt>
      <trkpt lat="47.27401" lon="-2.42486">
        <ele>56</ele>
        <time>2011-04-24T09:14:06Z</time>
      </trkpt>
      <trkpt lat="47.27405" lon="-2.4249">
        <ele>56</ele>
        <time>2011-04-24T09:14:07Z</time>
      </trkpt>
      <trkpt lat="47.27409" lon="-2.42497">
        <ele>56</ele>
        <time>2011-04-24T09:14:09Z</time>
      </trkpt>
      <trkpt lat="47.27415" lon="-2.42503">
        <ele>55</ele>
        <time>2011-04-24T09:14:11Z</time>
      </trkpt>
      <trkpt lat="47.2742" lon="-2.42505">
        <ele>56</ele>
        <time>2011-04-24T09:14:12Z</time>
      </trkpt>
      <trkpt lat="47.27426" lon="-2.42511">
        <ele>56</ele>
        <time>2011-04-24T09:14:14Z</time>
      </trkpt>
      <trkpt lat="47.27429" lon="-2.42517">
        <ele>57</ele>
        <time>2011-04-24T09:14:16Z</time>
      </trkpt>
      <trkpt lat="47.27434" lon="-2.42522">
        <ele>57</ele>
        <time>2011-04-24T09:14:18Z</time>
      </trkpt>
      <trkpt lat="47.2744" lon="-2.42527">
        <ele>57</ele>
        <time>2011-04-24T09:14:20Z</time>
      </trkpt>
      <trkpt lat="47.27442" lon="-2.42535">
        <ele>57</ele>
        <time>2011-04-24T09:14:23Z</time>
      </trkpt>
      <trkpt lat="47.27437" lon="-2.42545">
        <ele>59</ele>
        <time>2011-04-24T09:14:25Z</time>
      </trkpt>
      <trkpt lat="47.27432" lon="-2.42553">
        <ele>60</ele>
        <time>2011-04-24T09:14:27Z</time>
      </trkpt>
      <trkpt lat="47.27428" lon="-2.42562">
        <ele>60</ele>
        <time>2011-04-24T09:14:29Z</time>
      </trkpt>
      <trkpt lat="47.27425" lon="-2.42571">
        <ele>60</ele>
        <time>2011-04-24T09:14:31Z</time>
      </trkpt>
      <trkpt lat="47.27419" lon="-2.42571">
        <ele>61</ele>
        <time>2011-04-24T09:14:33Z</time>
      </trkpt>
      <trkpt lat="47.27414" lon="-2.4257">
        <ele>61</ele>
        <time>2011-04-24T09:14:35Z</time>
      </trkpt>
      <trkpt lat="47.27408" lon="-2.42569">
        <ele>61</ele>
        <time>2011-04-24T09:14:37Z</time>
      </trkpt>
      <trkpt lat="47.27401" lon="-2.4257">
        <ele>61</ele>
        <time>2011-04-24T09:14:41Z</time>
      </trkpt>
      <trkpt lat="47.27394" lon="-2.42571">
        <ele>61</ele>
        <time>2011-04-24T09:14:42Z</time>
      </trkpt>
      <trkpt lat="47.27388" lon="-2.4257">
        <ele>60</ele>
        <time>2011-04-24T09:14:44Z</time>
      </trkpt>
      <trkpt lat="47.27383" lon="-2.42568">
        <ele>60</ele>
        <time>2011-04-24T09:14:46Z</time>
      </trkpt>
      <trkpt lat="47.27376" lon="-2.42569">
        <ele>60</ele>
        <time>2011-04-24T09:14:48Z</time>
      </trkpt>
      <trkpt lat="47.27371" lon="-2.42571">
        <ele>60</ele>
        <time>2011-04-24T09:14:49Z</time>
      </trkpt>
      <trkpt lat="47.27366" lon="-2.42572">
        <ele>60</ele>
        <time>2011-04-24T09:14:50Z</time>
      </trkpt>
      <trkpt lat="47.2736" lon="-2.42572">
        <ele>60</ele>
        <time>2011-04-24T09:14:52Z</time>
      </trkpt>
      <trkpt lat="47.27352" lon="-2.42571">
        <ele>60</ele>
        <time>2011-04-24T09:14:54Z</time>
      </trkpt>
      <trkpt lat="47.27344" lon="-2.42572">
        <ele>61</ele>
        <time>2011-04-24T09:14:56Z</time>
      </trkpt>
      <trkpt lat="47.2734" lon="-2.42573">
        <ele>61</ele>
        <time>2011-04-24T09:14:57Z</time>
      </trkpt>
      <trkpt lat="47.27332" lon="-2.42576">
        <ele>61</ele>
        <time>2011-04-24T09:14:59Z</time>
      </trkpt>
      <trkpt lat="47.27325" lon="-2.4258">
        <ele>62</ele>
        <time>2011-04-24T09:15:00Z</time>
      </trkpt>
      <trkpt lat="47.27316" lon="-2.42583">
        <ele>63</ele>
        <time>2011-04-24T09:15:02Z</time>
      </trkpt>
      <trkpt lat="47.27311" lon="-2.4258">
        <ele>63</ele>
        <time>2011-04-24T09:15:05Z</time>
      </trkpt>
      <trkpt lat="47.27303" lon="-2.42584">
        <ele>64</ele>
        <time>2011-04-24T09:15:08Z</time>
      </trkpt>
      <trkpt lat="47.27298" lon="-2.42585">
        <ele>65</ele>
        <time>2011-04-24T09:15:09Z</time>
      </trkpt>
      <trkpt lat="47.27292" lon="-2.42588">
        <ele>65</ele>
        <time>2011-04-24T09:15:10Z</time>
      </trkpt>
      <trkpt lat="47.27283" lon="-2.42592">
        <ele>64</ele>
        <time>2011-04-24T09:15:12Z</time>
      </trkpt>
      <trkpt lat="47.27278" lon="-2.42592">
        <ele>64</ele>
        <time>2011-04-24T09:15:13Z</time>
      </trkpt>
      <trkpt lat="47.27273" lon="-2.42596">
        <ele>63</ele>
        <time>2011-04-24T09:15:14Z</time>
      </trkpt>
      <trkpt lat="47.27265" lon="-2.42602">
        <ele>64</ele>
        <time>2011-04-24T09:15:16Z</time>
      </trkpt>
      <trkpt lat="47.27256" lon="-2.42602">
        <ele>63</ele>
        <time>2011-04-24T09:15:19Z</time>
      </trkpt>
      <trkpt lat="47.27251" lon="-2.42606">
        <ele>63</ele>
        <time>2011-04-24T09:15:20Z</time>
      </trkpt>
      <trkpt lat="47.27244" lon="-2.42611">
        <ele>62</ele>
        <time>2011-04-24T09:15:22Z</time>
      </trkpt>
      <trkpt lat="47.27239" lon="-2.42613">
        <ele>62</ele>
        <time>2011-04-24T09:15:23Z</time>
      </trkpt>
      <trkpt lat="47.27229" lon="-2.42616">
        <ele>61</ele>
        <time>2011-04-24T09:15:25Z</time>
      </trkpt>
      <trkpt lat="47.2722" lon="-2.42618">
        <ele>61</ele>
        <time>2011-04-24T09:15:27Z</time>
      </trkpt>
      <trkpt lat="47.27212" lon="-2.42614">
        <ele>64</ele>
        <time>2011-04-24T09:15:32Z</time>
      </trkpt>
      <trkpt lat="47.27205" lon="-2.42617">
        <ele>64</ele>
        <time>2011-04-24T09:15:35Z</time>
      </trkpt>
      <trkpt lat="47.27198" lon="-2.42621">
        <ele>64</ele>
        <time>2011-04-24T09:15:37Z</time>
      </trkpt>
      <trkpt lat="47.27193" lon="-2.42623">
        <ele>65</ele>
        <time>2011-04-24T09:15:38Z</time>
      </trkpt>
      <trkpt lat="47.27186" lon="-2.42626">
        <ele>67</ele>
        <time>2011-04-24T09:15:40Z</time>
      </trkpt>
      <trkpt lat="47.2718" lon="-2.42626">
        <ele>68</ele>
        <time>2011-04-24T09:15:41Z</time>
      </trkpt>
      <trkpt lat="47.27173" lon="-2.42628">
        <ele>67</ele>
        <time>2011-04-24T09:15:43Z</time>
      </trkpt>
      <trkpt lat="47.27167" lon="-2.42631">
        <ele>67</ele>
        <time>2011-04-24T09:15:44Z</time>
      </trkpt>
      <trkpt lat="47.2716" lon="-2.42634">
        <ele>68</ele>
        <time>2011-04-24T09:15:46Z</time>
      </trkpt>
      <trkpt lat="47.27153" lon="-2.42637">
        <ele>68</ele>
        <time>2011-04-24T09:15:47Z</time>
      </trkpt>
      <trkpt lat="47.27144" lon="-2.42641">
        <ele>68</ele>
        <time>2011-04-24T09:15:49Z</time>
      </trkpt>
      <trkpt lat="47.27138" lon="-2.42643">
        <ele>69</ele>
        <time>2011-04-24T09:15:51Z</time>
      </trkpt>
      <trkpt lat="47.27133" lon="-2.42645">
        <ele>70</ele>
        <time>2011-04-24T09:15:52Z</time>
      </trkpt>
      <trkpt lat="47.27126" lon="-2.42648">
        <ele>68</ele>
        <time>2011-04-24T09:15:53Z</time>
      </trkpt>
      <trkpt lat="47.2712" lon="-2.42649">
        <ele>67</ele>
        <time>2011-04-24T09:15:54Z</time>
      </trkpt>
      <trkpt lat="47.27112" lon="-2.42653">
        <ele>67</ele>
        <time>2011-04-24T09:15:56Z</time>
      </trkpt>
      <trkpt lat="47.27104" lon="-2.42656">
        <ele>68</ele>
        <time>2011-04-24T09:15:58Z</time>
      </trkpt>
      <trkpt lat="47.27098" lon="-2.42658">
        <ele>68</ele>
        <time>2011-04-24T09:16:00Z</time>
      </trkpt>
      <trkpt lat="47.27094" lon="-2.4266">
        <ele>68</ele>
        <time>2011-04-24T09:16:01Z</time>
      </trkpt>
      <trkpt lat="47.27086" lon="-2.42662">
        <ele>67</ele>
        <time>2011-04-24T09:16:02Z</time>
      </trkpt>
      <trkpt lat="47.27081" lon="-2.42663">
        <ele>67</ele>
        <time>2011-04-24T09:16:03Z</time>
      </trkpt>
      <trkpt lat="47.27071" lon="-2.42666">
        <ele>67</ele>
        <time>2011-04-24T09:16:05Z</time>
      </trkpt>
      <trkpt lat="47.2706" lon="-2.4267">
        <ele>67</ele>
        <time>2011-04-24T09:16:07Z</time>
      </trkpt>
      <trkpt lat="47.27052" lon="-2.42664">
        <ele>65</ele>
        <time>2011-04-24T09:16:09Z</time>
      </trkpt>
      <trkpt lat="47.27044" lon="-2.42661">
        <ele>63</ele>
        <time>2011-04-24T09:16:10Z</time>
      </trkpt>
      <trkpt lat="47.27037" lon="-2.42654">
        <ele>63</ele>
        <time>2011-04-24T09:16:12Z</time>
      </trkpt>
      <trkpt lat="47.27033" lon="-2.42651">
        <ele>63</ele>
        <time>2011-04-24T09:16:13Z</time>
      </trkpt>
      <trkpt lat="47.27028" lon="-2.4265">
        <ele>61</ele>
        <time>2011-04-24T09:16:14Z</time>
      </trkpt>
      <trkpt lat="47.27021" lon="-2.42646">
        <ele>61</ele>
        <time>2011-04-24T09:16:16Z</time>
      </trkpt>
      <trkpt lat="47.27015" lon="-2.42641">
        <ele>61</ele>
        <time>2011-04-24T09:16:18Z</time>
      </trkpt>
      <trkpt lat="47.27014" lon="-2.42634">
        <ele>61</ele>
        <time>2011-04-24T09:16:20Z</time>
      </trkpt>
      <trkpt lat="47.27011" lon="-2.42624">
        <ele>63</ele>
        <time>2011-04-24T09:16:22Z</time>
      </trkpt>
      <trkpt lat="47.2701" lon="-2.42614">
        <ele>64</ele>
        <time>2011-04-24T09:16:24Z</time>
      </trkpt>
      <trkpt lat="47.27006" lon="-2.42607">
        <ele>63</ele>
        <time>2011-04-24T09:16:25Z</time>
      </trkpt>
      <trkpt lat="47.27004" lon="-2.42602">
        <ele>63</ele>
        <time>2011-04-24T09:16:26Z</time>
      </trkpt>
      <trkpt lat="47.27" lon="-2.42592">
        <ele>63</ele>
        <time>2011-04-24T09:16:28Z</time>
      </trkpt>
      <trkpt lat="47.26998" lon="-2.42582">
        <ele>63</ele>
        <time>2011-04-24T09:16:30Z</time>
      </trkpt>
      <trkpt lat="47.26994" lon="-2.42571">
        <ele>64</ele>
        <time>2011-04-24T09:16:32Z</time>
      </trkpt>
      <trkpt lat="47.2699" lon="-2.42561">
        <ele>63</ele>
        <time>2011-04-24T09:16:34Z</time>
      </trkpt>
      <trkpt lat="47.26985" lon="-2.4255">
        <ele>64</ele>
        <time>2011-04-24T09:16:36Z</time>
      </trkpt>
      <trkpt lat="47.2698" lon="-2.4254">
        <ele>63</ele>
        <time>2011-04-24T09:16:38Z</time>
      </trkpt>
      <trkpt lat="47.26976" lon="-2.42536">
        <ele>62</ele>
        <time>2011-04-24T09:16:39Z</time>
      </trkpt>
      <trkpt lat="47.26972" lon="-2.42527">
        <ele>63</ele>
        <time>2011-04-24T09:16:41Z</time>
      </trkpt>
      <trkpt lat="47.26966" lon="-2.42521">
        <ele>62</ele>
        <time>2011-04-24T09:16:43Z</time>
      </trkpt>
      <trkpt lat="47.2696" lon="-2.42515">
        <ele>62</ele>
        <time>2011-04-24T09:16:45Z</time>
      </trkpt>
      <trkpt lat="47.26958" lon="-2.42508">
        <ele>62</ele>
        <time>2011-04-24T09:16:47Z</time>
      </trkpt>
      <trkpt lat="47.26953" lon="-2.42504">
        <ele>63</ele>
        <time>2011-04-24T09:16:49Z</time>
      </trkpt>
      <trkpt lat="47.26949" lon="-2.42499">
        <ele>63</ele>
        <time>2011-04-24T09:16:51Z</time>
      </trkpt>
      <trkpt lat="47.26946" lon="-2.42493">
        <ele>65</ele>
        <time>2011-04-24T09:16:53Z</time>
      </trkpt>
      <trkpt lat="47.26943" lon="-2.42488">
        <ele>65</ele>
        <time>2011-04-24T09:16:55Z</time>
      </trkpt>
      <trkpt lat="47.26939" lon="-2.42483">
        <ele>66</ele>
        <time>2011-04-24T09:16:57Z</time>
      </trkpt>
      <trkpt lat="47.26934" lon="-2.4248">
        <ele>67</ele>
        <time>2011-04-24T09:16:59Z</time>
      </trkpt>
      <trkpt lat="47.26922" lon="-2.42477">
        <ele>67</ele>
        <time>2011-04-24T09:17:02Z</time>
      </trkpt>
      <trkpt lat="47.26928" lon="-2.42475">
        <ele>67</ele>
        <time>2011-04-24T09:17:08Z</time>
      </trkpt>
      <trkpt lat="47.26921" lon="-2.42479">
        <ele>67</ele>
        <time>2011-04-24T09:17:13Z</time>
      </trkpt>
      <trkpt lat="47.26915" lon="-2.42476">
        <ele>66</ele>
        <time>2011-04-24T09:17:15Z</time>
      </trkpt>
      <trkpt lat="47.26908" lon="-2.42474">
        <ele>66</ele>
        <time>2011-04-24T09:17:17Z</time>
      </trkpt>
      <trkpt lat="47.269" lon="-2.42472">
        <ele>66</ele>
        <time>2011-04-24T09:17:19Z</time>
      </trkpt>
      <trkpt lat="47.26893" lon="-2.42471">
        <ele>66</ele>
        <time>2011-04-24T09:17:21Z</time>
      </trkpt>
      <trkpt lat="47.26886" lon="-2.42471">
        <ele>67</ele>
        <time>2011-04-24T09:17:23Z</time>
      </trkpt>
      <trkpt lat="47.26882" lon="-2.42471">
        <ele>67</ele>
        <time>2011-04-24T09:17:24Z</time>
      </trkpt>
      <trkpt lat="47.26874" lon="-2.4247">
        <ele>67</ele>
        <time>2011-04-24T09:17:26Z</time>
      </trkpt>
      <trkpt lat="47.26867" lon="-2.42471">
        <ele>67</ele>
        <time>2011-04-24T09:17:29Z</time>
      </trkpt>
      <trkpt lat="47.26862" lon="-2.4247">
        <ele>68</ele>
        <time>2011-04-24T09:17:31Z</time>
      </trkpt>
      <trkpt lat="47.26855" lon="-2.42468">
        <ele>68</ele>
        <time>2011-04-24T09:17:33Z</time>
      </trkpt>
      <trkpt lat="47.26848" lon="-2.42465">
        <ele>67</ele>
        <time>2011-04-24T09:17:35Z</time>
      </trkpt>
      <trkpt lat="47.26842" lon="-2.42463">
        <ele>67</ele>
        <time>2011-04-24T09:17:36Z</time>
      </trkpt>
      <trkpt lat="47.26834" lon="-2.42459">
        <ele>66</ele>
        <time>2011-04-24T09:17:38Z</time>
      </trkpt>
      <trkpt lat="47.2683" lon="-2.42451">
        <ele>67</ele>
        <time>2011-04-24T09:17:40Z</time>
      </trkpt>
      <trkpt lat="47.26826" lon="-2.42447">
        <ele>67</ele>
        <time>2011-04-24T09:17:41Z</time>
      </trkpt>
      <trkpt lat="47.26818" lon="-2.42445">
        <ele>65</ele>
        <time>2011-04-24T09:17:42Z</time>
      </trkpt>
      <trkpt lat="47.26815" lon="-2.42437">
        <ele>64</ele>
        <time>2011-04-24T09:17:44Z</time>
      </trkpt>
      <trkpt lat="47.26809" lon="-2.42428">
        <ele>64</ele>
        <time>2011-04-24T09:17:46Z</time>
      </trkpt>
      <trkpt lat="47.26803" lon="-2.42416">
        <ele>64</ele>
        <time>2011-04-24T09:17:48Z</time>
      </trkpt>
      <trkpt lat="47.26799" lon="-2.42406">
        <ele>63</ele>
        <time>2011-04-24T09:17:50Z</time>
      </trkpt>
      <trkpt lat="47.26794" lon="-2.42395">
        <ele>63</ele>
        <time>2011-04-24T09:17:52Z</time>
      </trkpt>
      <trkpt lat="47.26789" lon="-2.42386">
        <ele>62</ele>
        <time>2011-04-24T09:17:54Z</time>
      </trkpt>
      <trkpt lat="47.26786" lon="-2.42377">
        <ele>63</ele>
        <time>2011-04-24T09:17:56Z</time>
      </trkpt>
      <trkpt lat="47.26781" lon="-2.42366">
        <ele>62</ele>
        <time>2011-04-24T09:17:58Z</time>
      </trkpt>
      <trkpt lat="47.26774" lon="-2.42359">
        <ele>62</ele>
        <time>2011-04-24T09:18:00Z</time>
      </trkpt>
      <trkpt lat="47.26768" lon="-2.42357">
        <ele>61</ele>
        <time>2011-04-24T09:18:01Z</time>
      </trkpt>
      <trkpt lat="47.26764" lon="-2.42353">
        <ele>60</ele>
        <time>2011-04-24T09:18:02Z</time>
      </trkpt>
      <trkpt lat="47.26759" lon="-2.42349">
        <ele>59</ele>
        <time>2011-04-24T09:18:03Z</time>
      </trkpt>
      <trkpt lat="47.26755" lon="-2.42345">
        <ele>58</ele>
        <time>2011-04-24T09:18:04Z</time>
      </trkpt>
      <trkpt lat="47.26748" lon="-2.42339">
        <ele>59</ele>
        <time>2011-04-24T09:18:06Z</time>
      </trkpt>
      <trkpt lat="47.26741" lon="-2.42334">
        <ele>59</ele>
        <time>2011-04-24T09:18:08Z</time>
      </trkpt>
      <trkpt lat="47.26735" lon="-2.42329">
        <ele>61</ele>
        <time>2011-04-24T09:18:10Z</time>
      </trkpt>
      <trkpt lat="47.2673" lon="-2.42326">
        <ele>61</ele>
        <time>2011-04-24T09:18:12Z</time>
      </trkpt>
      <trkpt lat="47.26726" lon="-2.42321">
        <ele>62</ele>
        <time>2011-04-24T09:18:14Z</time>
      </trkpt>
      <trkpt lat="47.26719" lon="-2.42318">
        <ele>63</ele>
        <time>2011-04-24T09:18:16Z</time>
      </trkpt>
      <trkpt lat="47.26712" lon="-2.42314">
        <ele>62</ele>
        <time>2011-04-24T09:18:18Z</time>
      </trkpt>
      <trkpt lat="47.26708" lon="-2.4231">
        <ele>61</ele>
        <time>2011-04-24T09:18:19Z</time>
      </trkpt>
      <trkpt lat="47.267" lon="-2.42308">
        <ele>61</ele>
        <time>2011-04-24T09:18:21Z</time>
      </trkpt>
      <trkpt lat="47.26694" lon="-2.42304">
        <ele>61</ele>
        <time>2011-04-24T09:18:22Z</time>
      </trkpt>
      <trkpt lat="47.26689" lon="-2.423">
        <ele>61</ele>
        <time>2011-04-24T09:18:23Z</time>
      </trkpt>
      <trkpt lat="47.26683" lon="-2.42299">
        <ele>60</ele>
        <time>2011-04-24T09:18:24Z</time>
      </trkpt>
      <trkpt lat="47.26676" lon="-2.42293">
        <ele>60</ele>
        <time>2011-04-24T09:18:26Z</time>
      </trkpt>
      <trkpt lat="47.26672" lon="-2.42288">
        <ele>60</ele>
        <time>2011-04-24T09:18:27Z</time>
      </trkpt>
      <trkpt lat="47.26665" lon="-2.42278">
        <ele>60</ele>
        <time>2011-04-24T09:18:29Z</time>
      </trkpt>
      <trkpt lat="47.2666" lon="-2.4227">
        <ele>60</ele>
        <time>2011-04-24T09:18:31Z</time>
      </trkpt>
      <trkpt lat="47.26652" lon="-2.4226">
        <ele>59</ele>
        <time>2011-04-24T09:18:33Z</time>
      </trkpt>
      <trkpt lat="47.26649" lon="-2.42254">
        <ele>59</ele>
        <time>2011-04-24T09:18:34Z</time>
      </trkpt>
      <trkpt lat="47.26642" lon="-2.42245">
        <ele>59</ele>
        <time>2011-04-24T09:18:36Z</time>
      </trkpt>
      <trkpt lat="47.26636" lon="-2.42235">
        <ele>58</ele>
        <time>2011-04-24T09:18:38Z</time>
      </trkpt>
      <trkpt lat="47.26632" lon="-2.4223">
        <ele>58</ele>
        <time>2011-04-24T09:18:39Z</time>
      </trkpt>
      <trkpt lat="47.26628" lon="-2.42225">
        <ele>58</ele>
        <time>2011-04-24T09:18:40Z</time>
      </trkpt>
      <trkpt lat="47.26624" lon="-2.42221">
        <ele>58</ele>
        <time>2011-04-24T09:18:41Z</time>
      </trkpt>
      <trkpt lat="47.2662" lon="-2.42216">
        <ele>58</ele>
        <time>2011-04-24T09:18:42Z</time>
      </trkpt>
      <trkpt lat="47.26613" lon="-2.4221">
        <ele>58</ele>
        <time>2011-04-24T09:18:44Z</time>
      </trkpt>
      <trkpt lat="47.26609" lon="-2.42206">
        <ele>58</ele>
        <time>2011-04-24T09:18:45Z</time>
      </trkpt>
      <trkpt lat="47.26603" lon="-2.422">
        <ele>59</ele>
        <time>2011-04-24T09:18:47Z</time>
      </trkpt>
      <trkpt lat="47.26598" lon="-2.42197">
        <ele>59</ele>
        <time>2011-04-24T09:18:48Z</time>
      </trkpt>
      <trkpt lat="47.26594" lon="-2.42194">
        <ele>59</ele>
        <time>2011-04-24T09:18:49Z</time>
      </trkpt>
      <trkpt lat="47.2659" lon="-2.42192">
        <ele>59</ele>
        <time>2011-04-24T09:18:50Z</time>
      </trkpt>
      <trkpt lat="47.26586" lon="-2.42187">
        <ele>59</ele>
        <time>2011-04-24T09:18:51Z</time>
      </trkpt>
      <trkpt lat="47.26582" lon="-2.42182">
        <ele>59</ele>
        <time>2011-04-24T09:18:52Z</time>
      </trkpt>
      <trkpt lat="47.26575" lon="-2.42177">
        <ele>59</ele>
        <time>2011-04-24T09:18:54Z</time>
      </trkpt>
      <trkpt lat="47.2657" lon="-2.42174">
        <ele>60</ele>
        <time>2011-04-24T09:18:56Z</time>
      </trkpt>
      <trkpt lat="47.26564" lon="-2.42169">
        <ele>60</ele>
        <time>2011-04-24T09:18:58Z</time>
      </trkpt>
      <trkpt lat="47.2656" lon="-2.42164">
        <ele>60</ele>
        <time>2011-04-24T09:19:00Z</time>
      </trkpt>
      <trkpt lat="47.26554" lon="-2.42158">
        <ele>62</ele>
        <time>2011-04-24T09:19:02Z</time>
      </trkpt>
      <trkpt lat="47.26547" lon="-2.42151">
        <ele>62</ele>
        <time>2011-04-24T09:19:04Z</time>
      </trkpt>
      <trkpt lat="47.26542" lon="-2.42147">
        <ele>63</ele>
        <time>2011-04-24T09:19:05Z</time>
      </trkpt>
      <trkpt lat="47.26535" lon="-2.42139">
        <ele>64</ele>
        <time>2011-04-24T09:19:07Z</time>
      </trkpt>
      <trkpt lat="47.26528" lon="-2.42134">
        <ele>65</ele>
        <time>2011-04-24T09:19:09Z</time>
      </trkpt>
      <trkpt lat="47.2652" lon="-2.42128">
        <ele>65</ele>
        <time>2011-04-24T09:19:11Z</time>
      </trkpt>
      <trkpt lat="47.26515" lon="-2.42125">
        <ele>64</ele>
        <time>2011-04-24T09:19:12Z</time>
      </trkpt>
      <trkpt lat="47.26507" lon="-2.42118">
        <ele>62</ele>
        <time>2011-04-24T09:19:14Z</time>
      </trkpt>
      <trkpt lat="47.26499" lon="-2.42111">
        <ele>61</ele>
        <time>2011-04-24T09:19:16Z</time>
      </trkpt>
      <trkpt lat="47.26493" lon="-2.42106">
        <ele>60</ele>
        <time>2011-04-24T09:19:18Z</time>
      </trkpt>
      <trkpt lat="47.26486" lon="-2.42098">
        <ele>59</ele>
        <time>2011-04-24T09:19:20Z</time>
      </trkpt>
      <trkpt lat="47.2648" lon="-2.42091">
        <ele>58</ele>
        <time>2011-04-24T09:19:22Z</time>
      </trkpt>
      <trkpt lat="47.26473" lon="-2.42084">
        <ele>58</ele>
        <time>2011-04-24T09:19:24Z</time>
      </trkpt>
      <trkpt lat="47.26467" lon="-2.42078">
        <ele>59</ele>
        <time>2011-04-24T09:19:26Z</time>
      </trkpt>
      <trkpt lat="47.26463" lon="-2.42074">
        <ele>60</ele>
        <time>2011-04-24T09:19:28Z</time>
      </trkpt>
      <trkpt lat="47.26459" lon="-2.42069">
        <ele>60</ele>
        <time>2011-04-24T09:19:30Z</time>
      </trkpt>
      <trkpt lat="47.26454" lon="-2.42064">
        <ele>60</ele>
        <time>2011-04-24T09:19:32Z</time>
      </trkpt>
      <trkpt lat="47.26449" lon="-2.42059">
        <ele>60</ele>
        <time>2011-04-24T09:19:34Z</time>
      </trkpt>
      <trkpt lat="47.26444" lon="-2.42053">
        <ele>60</ele>
        <time>2011-04-24T09:19:36Z</time>
      </trkpt>
      <trkpt lat="47.26441" lon="-2.42046">
        <ele>59</ele>
        <time>2011-04-24T09:19:38Z</time>
      </trkpt>
      <trkpt lat="47.26435" lon="-2.4204">
        <ele>59</ele>
        <time>2011-04-24T09:19:40Z</time>
      </trkpt>
      <trkpt lat="47.26426" lon="-2.42032">
        <ele>59</ele>
        <time>2011-04-24T09:19:42Z</time>
      </trkpt>
      <trkpt lat="47.26419" lon="-2.42026">
        <ele>59</ele>
        <time>2011-04-24T09:19:44Z</time>
      </trkpt>
      <trkpt lat="47.26412" lon="-2.42021">
        <ele>59</ele>
        <time>2011-04-24T09:19:46Z</time>
      </trkpt>
      <trkpt lat="47.26405" lon="-2.42015">
        <ele>59</ele>
        <time>2011-04-24T09:19:48Z</time>
      </trkpt>
      <trkpt lat="47.26397" lon="-2.42009">
        <ele>60</ele>
        <time>2011-04-24T09:19:50Z</time>
      </trkpt>
      <trkpt lat="47.26393" lon="-2.42006">
        <ele>60</ele>
        <time>2011-04-24T09:19:51Z</time>
      </trkpt>
      <trkpt lat="47.26386" lon="-2.42">
        <ele>61</ele>
        <time>2011-04-24T09:19:53Z</time>
      </trkpt>
      <trkpt lat="47.2638" lon="-2.41996">
        <ele>61</ele>
        <time>2011-04-24T09:19:55Z</time>
      </trkpt>
      <trkpt lat="47.26371" lon="-2.41989">
        <ele>61</ele>
        <time>2011-04-24T09:19:57Z</time>
      </trkpt>
      <trkpt lat="47.26367" lon="-2.41986">
        <ele>61</ele>
        <time>2011-04-24T09:19:58Z</time>
      </trkpt>
      <trkpt lat="47.26361" lon="-2.41983">
        <ele>61</ele>
        <time>2011-04-24T09:19:59Z</time>
      </trkpt>
      <trkpt lat="47.26355" lon="-2.4198">
        <ele>60</ele>
        <time>2011-04-24T09:20:00Z</time>
      </trkpt>
      <trkpt lat="47.26351" lon="-2.41977">
        <ele>60</ele>
        <time>2011-04-24T09:20:01Z</time>
      </trkpt>
      <trkpt lat="47.26346" lon="-2.41974">
        <ele>59</ele>
        <time>2011-04-24T09:20:02Z</time>
      </trkpt>
      <trkpt lat="47.26342" lon="-2.41971">
        <ele>59</ele>
        <time>2011-04-24T09:20:03Z</time>
      </trkpt>
      <trkpt lat="47.26338" lon="-2.41968">
        <ele>59</ele>
        <time>2011-04-24T09:20:04Z</time>
      </trkpt>
      <trkpt lat="47.26333" lon="-2.41967">
        <ele>60</ele>
        <time>2011-04-24T09:20:05Z</time>
      </trkpt>
      <trkpt lat="47.26328" lon="-2.41963">
        <ele>59</ele>
        <time>2011-04-24T09:20:06Z</time>
      </trkpt>
      <trkpt lat="47.26321" lon="-2.41957">
        <ele>60</ele>
        <time>2011-04-24T09:20:08Z</time>
      </trkpt>
      <trkpt lat="47.26315" lon="-2.41951">
        <ele>59</ele>
        <time>2011-04-24T09:20:10Z</time>
      </trkpt>
      <trkpt lat="47.26307" lon="-2.41946">
        <ele>59</ele>
        <time>2011-04-24T09:20:12Z</time>
      </trkpt>
      <trkpt lat="47.263" lon="-2.4194">
        <ele>59</ele>
        <time>2011-04-24T09:20:14Z</time>
      </trkpt>
      <trkpt lat="47.2629" lon="-2.41934">
        <ele>59</ele>
        <time>2011-04-24T09:20:16Z</time>
      </trkpt>
      <trkpt lat="47.26286" lon="-2.41933">
        <ele>59</ele>
        <time>2011-04-24T09:20:17Z</time>
      </trkpt>
      <trkpt lat="47.2628" lon="-2.41931">
        <ele>60</ele>
        <time>2011-04-24T09:20:18Z</time>
      </trkpt>
      <trkpt lat="47.26275" lon="-2.41928">
        <ele>60</ele>
        <time>2011-04-24T09:20:19Z</time>
      </trkpt>
      <trkpt lat="47.26268" lon="-2.41922">
        <ele>60</ele>
        <time>2011-04-24T09:20:21Z</time>
      </trkpt>
      <trkpt lat="47.26261" lon="-2.41916">
        <ele>60</ele>
        <time>2011-04-24T09:20:23Z</time>
      </trkpt>
      <trkpt lat="47.26254" lon="-2.41912">
        <ele>60</ele>
        <time>2011-04-24T09:20:25Z</time>
      </trkpt>
      <trkpt lat="47.26246" lon="-2.41907">
        <ele>61</ele>
        <time>2011-04-24T09:20:27Z</time>
      </trkpt>
      <trkpt lat="47.2624" lon="-2.41901">
        <ele>62</ele>
        <time>2011-04-24T09:20:29Z</time>
      </trkpt>
      <trkpt lat="47.26232" lon="-2.41895">
        <ele>62</ele>
        <time>2011-04-24T09:20:31Z</time>
      </trkpt>
      <trkpt lat="47.26226" lon="-2.41888">
        <ele>62</ele>
        <time>2011-04-24T09:20:33Z</time>
      </trkpt>
      <trkpt lat="47.26219" lon="-2.41885">
        <ele>62</ele>
        <time>2011-04-24T09:20:35Z</time>
      </trkpt>
      <trkpt lat="47.26214" lon="-2.41879">
        <ele>62</ele>
        <time>2011-04-24T09:20:37Z</time>
      </trkpt>
      <trkpt lat="47.2621" lon="-2.41875">
        <ele>62</ele>
        <time>2011-04-24T09:20:39Z</time>
      </trkpt>
      <trkpt lat="47.26202" lon="-2.41869">
        <ele>62</ele>
        <time>2011-04-24T09:20:41Z</time>
      </trkpt>
      <trkpt lat="47.26196" lon="-2.41866">
        <ele>62</ele>
        <time>2011-04-24T09:20:43Z</time>
      </trkpt>
      <trkpt lat="47.26192" lon="-2.41861">
        <ele>63</ele>
        <time>2011-04-24T09:20:45Z</time>
      </trkpt>
      <trkpt lat="47.26187" lon="-2.41854">
        <ele>65</ele>
        <time>2011-04-24T09:20:47Z</time>
      </trkpt>
      <trkpt lat="47.26182" lon="-2.41849">
        <ele>66</ele>
        <time>2011-04-24T09:20:49Z</time>
      </trkpt>
      <trkpt lat="47.26177" lon="-2.41842">
        <ele>67</ele>
        <time>2011-04-24T09:20:51Z</time>
      </trkpt>
      <trkpt lat="47.26168" lon="-2.41834">
        <ele>66</ele>
        <time>2011-04-24T09:20:53Z</time>
      </trkpt>
      <trkpt lat="47.26162" lon="-2.41828">
        <ele>66</ele>
        <time>2011-04-24T09:20:55Z</time>
      </trkpt>
      <trkpt lat="47.26156" lon="-2.41824">
        <ele>66</ele>
        <time>2011-04-24T09:20:57Z</time>
      </trkpt>
      <trkpt lat="47.26149" lon="-2.4182">
        <ele>66</ele>
        <time>2011-04-24T09:20:59Z</time>
      </trkpt>
      <trkpt lat="47.2614" lon="-2.41817">
        <ele>65</ele>
        <time>2011-04-24T09:21:01Z</time>
      </trkpt>
      <trkpt lat="47.26133" lon="-2.4181">
        <ele>64</ele>
        <time>2011-04-24T09:21:03Z</time>
      </trkpt>
      <trkpt lat="47.26127" lon="-2.41808">
        <ele>62</ele>
        <time>2011-04-24T09:21:05Z</time>
      </trkpt>
      <trkpt lat="47.26119" lon="-2.41806">
        <ele>63</ele>
        <time>2011-04-24T09:21:07Z</time>
      </trkpt>
      <trkpt lat="47.26112" lon="-2.41805">
        <ele>63</ele>
        <time>2011-04-24T09:21:09Z</time>
      </trkpt>
      <trkpt lat="47.26105" lon="-2.41803">
        <ele>63</ele>
        <time>2011-04-24T09:21:11Z</time>
      </trkpt>
      <trkpt lat="47.26097" lon="-2.41802">
        <ele>64</ele>
        <time>2011-04-24T09:21:13Z</time>
      </trkpt>
      <trkpt lat="47.26092" lon="-2.418">
        <ele>64</ele>
        <time>2011-04-24T09:21:14Z</time>
      </trkpt>
      <trkpt lat="47.26087" lon="-2.41796">
        <ele>64</ele>
        <time>2011-04-24T09:21:16Z</time>
      </trkpt>
      <trkpt lat="47.26082" lon="-2.41795">
        <ele>63</ele>
        <time>2011-04-24T09:21:17Z</time>
      </trkpt>
      <trkpt lat="47.26074" lon="-2.41792">
        <ele>63</ele>
        <time>2011-04-24T09:21:19Z</time>
      </trkpt>
      <trkpt lat="47.26066" lon="-2.4179">
        <ele>63</ele>
        <time>2011-04-24T09:21:21Z</time>
      </trkpt>
      <trkpt lat="47.2606" lon="-2.41789">
        <ele>62</ele>
        <time>2011-04-24T09:21:23Z</time>
      </trkpt>
      <trkpt lat="47.26055" lon="-2.41789">
        <ele>63</ele>
        <time>2011-04-24T09:21:24Z</time>
      </trkpt>
      <trkpt lat="47.2605" lon="-2.41787">
        <ele>64</ele>
        <time>2011-04-24T09:21:25Z</time>
      </trkpt>
      <trkpt lat="47.26043" lon="-2.41786">
        <ele>65</ele>
        <time>2011-04-24T09:21:27Z</time>
      </trkpt>
      <trkpt lat="47.26036" lon="-2.41785">
        <ele>65</ele>
        <time>2011-04-24T09:21:29Z</time>
      </trkpt>
      <trkpt lat="47.2603" lon="-2.41781">
        <ele>63</ele>
        <time>2011-04-24T09:21:31Z</time>
      </trkpt>
      <trkpt lat="47.26024" lon="-2.4178">
        <ele>64</ele>
        <time>2011-04-24T09:21:33Z</time>
      </trkpt>
      <trkpt lat="47.26016" lon="-2.41778">
        <ele>64</ele>
        <time>2011-04-24T09:21:35Z</time>
      </trkpt>
      <trkpt lat="47.26007" lon="-2.41777">
        <ele>64</ele>
        <time>2011-04-24T09:21:37Z</time>
      </trkpt>
      <trkpt lat="47.26" lon="-2.41778">
        <ele>64</ele>
        <time>2011-04-24T09:21:39Z</time>
      </trkpt>
      <trkpt lat="47.25994" lon="-2.41777">
        <ele>64</ele>
        <time>2011-04-24T09:21:40Z</time>
      </trkpt>
      <trkpt lat="47.25988" lon="-2.41776">
        <ele>64</ele>
        <time>2011-04-24T09:21:41Z</time>
      </trkpt>
      <trkpt lat="47.25984" lon="-2.41772">
        <ele>64</ele>
        <time>2011-04-24T09:21:42Z</time>
      </trkpt>
      <trkpt lat="47.25976" lon="-2.41769">
        <ele>64</ele>
        <time>2011-04-24T09:21:44Z</time>
      </trkpt>
      <trkpt lat="47.25968" lon="-2.41766">
        <ele>63</ele>
        <time>2011-04-24T09:21:46Z</time>
      </trkpt>
      <trkpt lat="47.25959" lon="-2.41764">
        <ele>63</ele>
        <time>2011-04-24T09:21:48Z</time>
      </trkpt>
      <trkpt lat="47.25954" lon="-2.41763">
        <ele>63</ele>
        <time>2011-04-24T09:21:49Z</time>
      </trkpt>
      <trkpt lat="47.25946" lon="-2.41764">
        <ele>63</ele>
        <time>2011-04-24T09:21:51Z</time>
      </trkpt>
      <trkpt lat="47.25938" lon="-2.41765">
        <ele>63</ele>
        <time>2011-04-24T09:21:53Z</time>
      </trkpt>
      <trkpt lat="47.25932" lon="-2.41767">
        <ele>63</ele>
        <time>2011-04-24T09:21:54Z</time>
      </trkpt>
      <trkpt lat="47.25926" lon="-2.41769">
        <ele>63</ele>
        <time>2011-04-24T09:21:55Z</time>
      </trkpt>
      <trkpt lat="47.2592" lon="-2.41772">
        <ele>63</ele>
        <time>2011-04-24T09:21:56Z</time>
      </trkpt>
      <trkpt lat="47.25915" lon="-2.4178">
        <ele>62</ele>
        <time>2011-04-24T09:21:58Z</time>
      </trkpt>
      <trkpt lat="47.25911" lon="-2.41784">
        <ele>62</ele>
        <time>2011-04-24T09:21:59Z</time>
      </trkpt>
      <trkpt lat="47.25907" lon="-2.41791">
        <ele>62</ele>
        <time>2011-04-24T09:22:01Z</time>
      </trkpt>
      <trkpt lat="47.25902" lon="-2.41799">
        <ele>62</ele>
        <time>2011-04-24T09:22:03Z</time>
      </trkpt>
      <trkpt lat="47.25897" lon="-2.41805">
        <ele>61</ele>
        <time>2011-04-24T09:22:04Z</time>
      </trkpt>
      <trkpt lat="47.25894" lon="-2.4181">
        <ele>61</ele>
        <time>2011-04-24T09:22:05Z</time>
      </trkpt>
      <trkpt lat="47.2589" lon="-2.41819">
        <ele>62</ele>
        <time>2011-04-24T09:22:07Z</time>
      </trkpt>
      <trkpt lat="47.25884" lon="-2.41827">
        <ele>63</ele>
        <time>2011-04-24T09:22:09Z</time>
      </trkpt>
      <trkpt lat="47.2588" lon="-2.41835">
        <ele>63</ele>
        <time>2011-04-24T09:22:11Z</time>
      </trkpt>
      <trkpt lat="47.25875" lon="-2.41843">
        <ele>63</ele>
        <time>2011-04-24T09:22:13Z</time>
      </trkpt>
      <trkpt lat="47.25871" lon="-2.41849">
        <ele>62</ele>
        <time>2011-04-24T09:22:15Z</time>
      </trkpt>
      <trkpt lat="47.25867" lon="-2.41855">
        <ele>61</ele>
        <time>2011-04-24T09:22:17Z</time>
      </trkpt>
      <trkpt lat="47.25863" lon="-2.41863">
        <ele>61</ele>
        <time>2011-04-24T09:22:19Z</time>
      </trkpt>
      <trkpt lat="47.25862" lon="-2.41874">
        <ele>61</ele>
        <time>2011-04-24T09:22:21Z</time>
      </trkpt>
      <trkpt lat="47.25861" lon="-2.41885">
        <ele>62</ele>
        <time>2011-04-24T09:22:23Z</time>
      </trkpt>
      <trkpt lat="47.2586" lon="-2.41892">
        <ele>62</ele>
        <time>2011-04-24T09:22:24Z</time>
      </trkpt>
      <trkpt lat="47.25859" lon="-2.41898">
        <ele>62</ele>
        <time>2011-04-24T09:22:25Z</time>
      </trkpt>
      <trkpt lat="47.25856" lon="-2.41911">
        <ele>62</ele>
        <time>2011-04-24T09:22:27Z</time>
      </trkpt>
      <trkpt lat="47.25855" lon="-2.41918">
        <ele>62</ele>
        <time>2011-04-24T09:22:28Z</time>
      </trkpt>
      <trkpt lat="47.25854" lon="-2.41924">
        <ele>62</ele>
        <time>2011-04-24T09:22:29Z</time>
      </trkpt>
      <trkpt lat="47.25852" lon="-2.41936">
        <ele>63</ele>
        <time>2011-04-24T09:22:31Z</time>
      </trkpt>
      <trkpt lat="47.25852" lon="-2.41948">
        <ele>63</ele>
        <time>2011-04-24T09:22:33Z</time>
      </trkpt>
      <trkpt lat="47.25851" lon="-2.41958">
        <ele>64</ele>
        <time>2011-04-24T09:22:35Z</time>
      </trkpt>
      <trkpt lat="47.25852" lon="-2.41967">
        <ele>64</ele>
        <time>2011-04-24T09:22:37Z</time>
      </trkpt>
      <trkpt lat="47.25853" lon="-2.41977">
        <ele>64</ele>
        <time>2011-04-24T09:22:39Z</time>
      </trkpt>
      <trkpt lat="47.25855" lon="-2.41987">
        <ele>64</ele>
        <time>2011-04-24T09:22:41Z</time>
      </trkpt>
      <trkpt lat="47.25857" lon="-2.41995">
        <ele>64</ele>
        <time>2011-04-24T09:22:43Z</time>
      </trkpt>
      <trkpt lat="47.25859" lon="-2.42002">
        <ele>64</ele>
        <time>2011-04-24T09:22:45Z</time>
      </trkpt>
      <trkpt lat="47.2586" lon="-2.42009">
        <ele>64</ele>
        <time>2011-04-24T09:22:47Z</time>
      </trkpt>
      <trkpt lat="47.2586" lon="-2.42016">
        <ele>64</ele>
        <time>2011-04-24T09:22:49Z</time>
      </trkpt>
      <trkpt lat="47.2586" lon="-2.42024">
        <ele>64</ele>
        <time>2011-04-24T09:22:51Z</time>
      </trkpt>
      <trkpt lat="47.25859" lon="-2.42031">
        <ele>64</ele>
        <time>2011-04-24T09:22:53Z</time>
      </trkpt>
      <trkpt lat="47.25864" lon="-2.42037">
        <ele>64</ele>
        <time>2011-04-24T09:22:56Z</time>
      </trkpt>
      <trkpt lat="47.25869" lon="-2.42039">
        <ele>64</ele>
        <time>2011-04-24T09:22:58Z</time>
      </trkpt>
      <trkpt lat="47.25874" lon="-2.4204">
        <ele>65</ele>
        <time>2011-04-24T09:23:00Z</time>
      </trkpt>
      <trkpt lat="47.25877" lon="-2.42047">
        <ele>64</ele>
        <time>2011-04-24T09:23:02Z</time>
      </trkpt>
      <trkpt lat="47.25881" lon="-2.42052">
        <ele>64</ele>
        <time>2011-04-24T09:23:04Z</time>
      </trkpt>
      <trkpt lat="47.25885" lon="-2.42055">
        <ele>64</ele>
        <time>2011-04-24T09:23:06Z</time>
      </trkpt>
      <trkpt lat="47.2589" lon="-2.42059">
        <ele>65</ele>
        <time>2011-04-24T09:23:08Z</time>
      </trkpt>
      <trkpt lat="47.25894" lon="-2.42062">
        <ele>66</ele>
        <time>2011-04-24T09:23:10Z</time>
      </trkpt>
      <trkpt lat="47.25898" lon="-2.4207">
        <ele>66</ele>
        <time>2011-04-24T09:23:13Z</time>
      </trkpt>
      <trkpt lat="47.259" lon="-2.42078">
        <ele>65</ele>
        <time>2011-04-24T09:23:15Z</time>
      </trkpt>
      <trkpt lat="47.259" lon="-2.42085">
        <ele>66</ele>
        <time>2011-04-24T09:23:17Z</time>
      </trkpt>
      <trkpt lat="47.25902" lon="-2.42093">
        <ele>66</ele>
        <time>2011-04-24T09:23:19Z</time>
      </trkpt>
      <trkpt lat="47.25903" lon="-2.42099">
        <ele>66</ele>
        <time>2011-04-24T09:23:21Z</time>
      </trkpt>
      <trkpt lat="47.25905" lon="-2.42106">
        <ele>65</ele>
        <time>2011-04-24T09:23:23Z</time>
      </trkpt>
      <trkpt lat="47.25905" lon="-2.42115">
        <ele>66</ele>
        <time>2011-04-24T09:23:26Z</time>
      </trkpt>
      <trkpt lat="47.25905" lon="-2.42125">
        <ele>66</ele>
        <time>2011-04-24T09:23:28Z</time>
      </trkpt>
      <trkpt lat="47.25904" lon="-2.42134">
        <ele>65</ele>
        <time>2011-04-24T09:23:30Z</time>
      </trkpt>
      <trkpt lat="47.25902" lon="-2.42146">
        <ele>65</ele>
        <time>2011-04-24T09:23:32Z</time>
      </trkpt>
      <trkpt lat="47.25903" lon="-2.42157">
        <ele>64</ele>
        <time>2011-04-24T09:23:34Z</time>
      </trkpt>
      <trkpt lat="47.25904" lon="-2.42168">
        <ele>65</ele>
        <time>2011-04-24T09:23:36Z</time>
      </trkpt>
      <trkpt lat="47.25904" lon="-2.42174">
        <ele>65</ele>
        <time>2011-04-24T09:23:38Z</time>
      </trkpt>
      <trkpt lat="47.25905" lon="-2.42183">
        <ele>65</ele>
        <time>2011-04-24T09:23:41Z</time>
      </trkpt>
      <trkpt lat="47.2591" lon="-2.42181">
        <ele>64</ele>
        <time>2011-04-24T09:23:44Z</time>
      </trkpt>
      <trkpt lat="47.25913" lon="-2.42186">
        <ele>64</ele>
        <time>2011-04-24T09:23:47Z</time>
      </trkpt>
      <trkpt lat="47.25915" lon="-2.42193">
        <ele>64</ele>
        <time>2011-04-24T09:23:49Z</time>
      </trkpt>
      <trkpt lat="47.25915" lon="-2.42202">
        <ele>64</ele>
        <time>2011-04-24T09:23:51Z</time>
      </trkpt>
      <trkpt lat="47.25917" lon="-2.42209">
        <ele>64</ele>
        <time>2011-04-24T09:23:53Z</time>
      </trkpt>
      <trkpt lat="47.25918" lon="-2.42217">
        <ele>64</ele>
        <time>2011-04-24T09:23:55Z</time>
      </trkpt>
      <trkpt lat="47.25919" lon="-2.42224">
        <ele>64</ele>
        <time>2011-04-24T09:23:57Z</time>
      </trkpt>
      <trkpt lat="47.2592" lon="-2.42231">
        <ele>63</ele>
        <time>2011-04-24T09:23:59Z</time>
      </trkpt>
      <trkpt lat="47.25921" lon="-2.4224">
        <ele>63</ele>
        <time>2011-04-24T09:24:01Z</time>
      </trkpt>
      <trkpt lat="47.25922" lon="-2.42248">
        <ele>63</ele>
        <time>2011-04-24T09:24:03Z</time>
      </trkpt>
      <trkpt lat="47.25924" lon="-2.42256">
        <ele>63</ele>
        <time>2011-04-24T09:24:05Z</time>
      </trkpt>
      <trkpt lat="47.25926" lon="-2.42264">
        <ele>63</ele>
        <time>2011-04-24T09:24:07Z</time>
      </trkpt>
      <trkpt lat="47.25929" lon="-2.42272">
        <ele>63</ele>
        <time>2011-04-24T09:24:09Z</time>
      </trkpt>
      <trkpt lat="47.25933" lon="-2.4228">
        <ele>63</ele>
        <time>2011-04-24T09:24:11Z</time>
      </trkpt>
      <trkpt lat="47.25937" lon="-2.42294">
        <ele>63</ele>
        <time>2011-04-24T09:24:15Z</time>
      </trkpt>
      <trkpt lat="47.2594" lon="-2.423">
        <ele>63</ele>
        <time>2011-04-24T09:24:17Z</time>
      </trkpt>
      <trkpt lat="47.25943" lon="-2.42305">
        <ele>63</ele>
        <time>2011-04-24T09:24:19Z</time>
      </trkpt>
      <trkpt lat="47.25948" lon="-2.42312">
        <ele>63</ele>
        <time>2011-04-24T09:24:21Z</time>
      </trkpt>
      <trkpt lat="47.25954" lon="-2.42322">
        <ele>63</ele>
        <time>2011-04-24T09:24:24Z</time>
      </trkpt>
      <trkpt lat="47.25959" lon="-2.4233">
        <ele>64</ele>
        <time>2011-04-24T09:24:26Z</time>
      </trkpt>
      <trkpt lat="47.25965" lon="-2.42338">
        <ele>64</ele>
        <time>2011-04-24T09:24:28Z</time>
      </trkpt>
      <trkpt lat="47.2597" lon="-2.42346">
        <ele>64</ele>
        <time>2011-04-24T09:24:30Z</time>
      </trkpt>
      <trkpt lat="47.25976" lon="-2.42354">
        <ele>64</ele>
        <time>2011-04-24T09:24:32Z</time>
      </trkpt>
      <trkpt lat="47.25979" lon="-2.42362">
        <ele>63</ele>
        <time>2011-04-24T09:24:34Z</time>
      </trkpt>
      <trkpt lat="47.25982" lon="-2.42366">
        <ele>64</ele>
        <time>2011-04-24T09:24:35Z</time>
      </trkpt>
      <trkpt lat="47.25987" lon="-2.42378">
        <ele>64</ele>
        <time>2011-04-24T09:24:37Z</time>
      </trkpt>
      <trkpt lat="47.2599" lon="-2.42389">
        <ele>64</ele>
        <time>2011-04-24T09:24:39Z</time>
      </trkpt>
      <trkpt lat="47.25991" lon="-2.42396">
        <ele>64</ele>
        <time>2011-04-24T09:24:40Z</time>
      </trkpt>
      <trkpt lat="47.25992" lon="-2.42402">
        <ele>64</ele>
        <time>2011-04-24T09:24:41Z</time>
      </trkpt>
      <trkpt lat="47.25993" lon="-2.42409">
        <ele>64</ele>
        <time>2011-04-24T09:24:42Z</time>
      </trkpt>
      <trkpt lat="47.25993" lon="-2.42421">
        <ele>63</ele>
        <time>2011-04-24T09:24:44Z</time>
      </trkpt>
      <trkpt lat="47.25993" lon="-2.42434">
        <ele>63</ele>
        <time>2011-04-24T09:24:46Z</time>
      </trkpt>
      <trkpt lat="47.25992" lon="-2.4244">
        <ele>63</ele>
        <time>2011-04-24T09:24:47Z</time>
      </trkpt>
      <trkpt lat="47.2599" lon="-2.42453">
        <ele>63</ele>
        <time>2011-04-24T09:24:49Z</time>
      </trkpt>
      <trkpt lat="47.2599" lon="-2.42465">
        <ele>63</ele>
        <time>2011-04-24T09:24:51Z</time>
      </trkpt>
      <trkpt lat="47.25988" lon="-2.42476">
        <ele>63</ele>
        <time>2011-04-24T09:24:53Z</time>
      </trkpt>
      <trkpt lat="47.25987" lon="-2.42488">
        <ele>63</ele>
        <time>2011-04-24T09:24:55Z</time>
      </trkpt>
      <trkpt lat="47.25985" lon="-2.425">
        <ele>64</ele>
        <time>2011-04-24T09:24:57Z</time>
      </trkpt>
      <trkpt lat="47.25983" lon="-2.42511">
        <ele>64</ele>
        <time>2011-04-24T09:24:59Z</time>
      </trkpt>
      <trkpt lat="47.25981" lon="-2.42522">
        <ele>63</ele>
        <time>2011-04-24T09:25:01Z</time>
      </trkpt>
      <trkpt lat="47.25978" lon="-2.42532">
        <ele>64</ele>
        <time>2011-04-24T09:25:03Z</time>
      </trkpt>
      <trkpt lat="47.25976" lon="-2.42542">
        <ele>64</ele>
        <time>2011-04-24T09:25:05Z</time>
      </trkpt>
      <trkpt lat="47.25973" lon="-2.42552">
        <ele>64</ele>
        <time>2011-04-24T09:25:07Z</time>
      </trkpt>
      <trkpt lat="47.25971" lon="-2.42562">
        <ele>64</ele>
        <time>2011-04-24T09:25:09Z</time>
      </trkpt>
      <trkpt lat="47.25968" lon="-2.42572">
        <ele>64</ele>
        <time>2011-04-24T09:25:11Z</time>
      </trkpt>
      <trkpt lat="47.25968" lon="-2.42594">
        <ele>64</ele>
        <time>2011-04-24T09:25:15Z</time>
      </trkpt>
      <trkpt lat="47.25968" lon="-2.42606">
        <ele>63</ele>
        <time>2011-04-24T09:25:17Z</time>
      </trkpt>
      <trkpt lat="47.25968" lon="-2.42617">
        <ele>63</ele>
        <time>2011-04-24T09:25:19Z</time>
      </trkpt>
      <trkpt lat="47.25969" lon="-2.42628">
        <ele>63</ele>
        <time>2011-04-24T09:25:21Z</time>
      </trkpt>
      <trkpt lat="47.25971" lon="-2.42639">
        <ele>63</ele>
        <time>2011-04-24T09:25:23Z</time>
      </trkpt>
      <trkpt lat="47.25972" lon="-2.4265">
        <ele>63</ele>
        <time>2011-04-24T09:25:25Z</time>
      </trkpt>
      <trkpt lat="47.25974" lon="-2.42662">
        <ele>63</ele>
        <time>2011-04-24T09:25:27Z</time>
      </trkpt>
      <trkpt lat="47.25976" lon="-2.42673">
        <ele>64</ele>
        <time>2011-04-24T09:25:29Z</time>
      </trkpt>
      <trkpt lat="47.25977" lon="-2.42684">
        <ele>63</ele>
        <time>2011-04-24T09:25:31Z</time>
      </trkpt>
      <trkpt lat="47.25978" lon="-2.42695">
        <ele>63</ele>
        <time>2011-04-24T09:25:33Z</time>
      </trkpt>
      <trkpt lat="47.25979" lon="-2.42706">
        <ele>64</ele>
        <time>2011-04-24T09:25:35Z</time>
      </trkpt>
      <trkpt lat="47.2598" lon="-2.42717">
        <ele>64</ele>
        <time>2011-04-24T09:25:37Z</time>
      </trkpt>
      <trkpt lat="47.2598" lon="-2.42727">
        <ele>64</ele>
        <time>2011-04-24T09:25:39Z</time>
      </trkpt>
      <trkpt lat="47.25981" lon="-2.42738">
        <ele>64</ele>
        <time>2011-04-24T09:25:41Z</time>
      </trkpt>
      <trkpt lat="47.2598" lon="-2.4275">
        <ele>64</ele>
        <time>2011-04-24T09:25:43Z</time>
      </trkpt>
      <trkpt lat="47.25981" lon="-2.42761">
        <ele>64</ele>
        <time>2011-04-24T09:25:45Z</time>
      </trkpt>
      <trkpt lat="47.25981" lon="-2.42774">
        <ele>64</ele>
        <time>2011-04-24T09:25:47Z</time>
      </trkpt>
      <trkpt lat="47.25981" lon="-2.42786">
        <ele>65</ele>
        <time>2011-04-24T09:25:49Z</time>
      </trkpt>
      <trkpt lat="47.25981" lon="-2.42798">
        <ele>65</ele>
        <time>2011-04-24T09:25:51Z</time>
      </trkpt>
      <trkpt lat="47.25982" lon="-2.4281">
        <ele>65</ele>
        <time>2011-04-24T09:25:53Z</time>
      </trkpt>
      <trkpt lat="47.25982" lon="-2.42822">
        <ele>65</ele>
        <time>2011-04-24T09:25:55Z</time>
      </trkpt>
      <trkpt lat="47.25982" lon="-2.42834">
        <ele>65</ele>
        <time>2011-04-24T09:25:57Z</time>
      </trkpt>
      <trkpt lat="47.25981" lon="-2.42847">
        <ele>65</ele>
        <time>2011-04-24T09:25:59Z</time>
      </trkpt>
      <trkpt lat="47.25981" lon="-2.42854">
        <ele>65</ele>
        <time>2011-04-24T09:26:00Z</time>
      </trkpt>
      <trkpt lat="47.25981" lon="-2.42865">
        <ele>65</ele>
        <time>2011-04-24T09:26:02Z</time>
      </trkpt>
      <trkpt lat="47.25981" lon="-2.42878">
        <ele>65</ele>
        <time>2011-04-24T09:26:04Z</time>
      </trkpt>
      <trkpt lat="47.2598" lon="-2.4289">
        <ele>65</ele>
        <time>2011-04-24T09:26:06Z</time>
      </trkpt>
      <trkpt lat="47.25978" lon="-2.42901">
        <ele>64</ele>
        <time>2011-04-24T09:26:08Z</time>
      </trkpt>
      <trkpt lat="47.25976" lon="-2.42907">
        <ele>65</ele>
        <time>2011-04-24T09:26:09Z</time>
      </trkpt>
      <trkpt lat="47.25973" lon="-2.42917">
        <ele>65</ele>
        <time>2011-04-24T09:26:11Z</time>
      </trkpt>
      <trkpt lat="47.25965" lon="-2.42938">
        <ele>65</ele>
        <time>2011-04-24T09:26:15Z</time>
      </trkpt>
      <trkpt lat="47.25962" lon="-2.42948">
        <ele>65</ele>
        <time>2011-04-24T09:26:17Z</time>
      </trkpt>
      <trkpt lat="47.25959" lon="-2.4296">
        <ele>64</ele>
        <time>2011-04-24T09:26:19Z</time>
      </trkpt>
      <trkpt lat="47.25957" lon="-2.42972">
        <ele>64</ele>
        <time>2011-04-24T09:26:21Z</time>
      </trkpt>
      <trkpt lat="47.25957" lon="-2.42984">
        <ele>64</ele>
        <time>2011-04-24T09:26:23Z</time>
      </trkpt>
      <trkpt lat="47.25957" lon="-2.42995">
        <ele>63</ele>
        <time>2011-04-24T09:26:25Z</time>
      </trkpt>
      <trkpt lat="47.25957" lon="-2.43007">
        <ele>63</ele>
        <time>2011-04-24T09:26:27Z</time>
      </trkpt>
      <trkpt lat="47.25957" lon="-2.43019">
        <ele>63</ele>
        <time>2011-04-24T09:26:29Z</time>
      </trkpt>
      <trkpt lat="47.25957" lon="-2.43032">
        <ele>63</ele>
        <time>2011-04-24T09:26:31Z</time>
      </trkpt>
      <trkpt lat="47.25956" lon="-2.43044">
        <ele>63</ele>
        <time>2011-04-24T09:26:33Z</time>
      </trkpt>
      <trkpt lat="47.25955" lon="-2.4305">
        <ele>62</ele>
        <time>2011-04-24T09:26:34Z</time>
      </trkpt>
      <trkpt lat="47.25953" lon="-2.43062">
        <ele>62</ele>
        <time>2011-04-24T09:26:36Z</time>
      </trkpt>
      <trkpt lat="47.25952" lon="-2.43069">
        <ele>62</ele>
        <time>2011-04-24T09:26:37Z</time>
      </trkpt>
      <trkpt lat="47.2595" lon="-2.4308">
        <ele>62</ele>
        <time>2011-04-24T09:26:39Z</time>
      </trkpt>
      <trkpt lat="47.25949" lon="-2.43092">
        <ele>62</ele>
        <time>2011-04-24T09:26:41Z</time>
      </trkpt>
      <trkpt lat="47.25947" lon="-2.43098">
        <ele>61</ele>
        <time>2011-04-24T09:26:42Z</time>
      </trkpt>
      <trkpt lat="47.25947" lon="-2.43105">
        <ele>61</ele>
        <time>2011-04-24T09:26:43Z</time>
      </trkpt>
      <trkpt lat="47.25946" lon="-2.43112">
        <ele>61</ele>
        <time>2011-04-24T09:26:44Z</time>
      </trkpt>
      <trkpt lat="47.25944" lon="-2.43119">
        <ele>62</ele>
        <time>2011-04-24T09:26:45Z</time>
      </trkpt>
      <trkpt lat="47.25943" lon="-2.43132">
        <ele>62</ele>
        <time>2011-04-24T09:26:47Z</time>
      </trkpt>
      <trkpt lat="47.25941" lon="-2.43143">
        <ele>62</ele>
        <time>2011-04-24T09:26:49Z</time>
      </trkpt>
      <trkpt lat="47.25941" lon="-2.43155">
        <ele>61</ele>
        <time>2011-04-24T09:26:51Z</time>
      </trkpt>
      <trkpt lat="47.25941" lon="-2.43166">
        <ele>61</ele>
        <time>2011-04-24T09:26:53Z</time>
      </trkpt>
      <trkpt lat="47.2594" lon="-2.43178">
        <ele>61</ele>
        <time>2011-04-24T09:26:55Z</time>
      </trkpt>
      <trkpt lat="47.2594" lon="-2.4319">
        <ele>62</ele>
        <time>2011-04-24T09:26:57Z</time>
      </trkpt>
      <trkpt lat="47.2594" lon="-2.43202">
        <ele>62</ele>
        <time>2011-04-24T09:26:59Z</time>
      </trkpt>
      <trkpt lat="47.2594" lon="-2.43214">
        <ele>62</ele>
        <time>2011-04-24T09:27:01Z</time>
      </trkpt>
      <trkpt lat="47.25941" lon="-2.43225">
        <ele>62</ele>
        <time>2011-04-24T09:27:03Z</time>
      </trkpt>
      <trkpt lat="47.25941" lon="-2.43238">
        <ele>62</ele>
        <time>2011-04-24T09:27:05Z</time>
      </trkpt>
      <trkpt lat="47.25942" lon="-2.4325">
        <ele>62</ele>
        <time>2011-04-24T09:27:07Z</time>
      </trkpt>
      <trkpt lat="47.25943" lon="-2.43262">
        <ele>62</ele>
        <time>2011-04-24T09:27:09Z</time>
      </trkpt>
      <trkpt lat="47.25944" lon="-2.43274">
        <ele>63</ele>
        <time>2011-04-24T09:27:11Z</time>
      </trkpt>
      <trkpt lat="47.25946" lon="-2.43285">
        <ele>63</ele>
        <time>2011-04-24T09:27:13Z</time>
      </trkpt>
      <trkpt lat="47.25947" lon="-2.43297">
        <ele>64</ele>
        <time>2011-04-24T09:27:15Z</time>
      </trkpt>
      <trkpt lat="47.25949" lon="-2.43308">
        <ele>64</ele>
        <time>2011-04-24T09:27:17Z</time>
      </trkpt>
      <trkpt lat="47.2595" lon="-2.43315">
        <ele>67</ele>
        <time>2011-04-24T09:27:18Z</time>
      </trkpt>
      <trkpt lat="47.25952" lon="-2.43326">
        <ele>67</ele>
        <time>2011-04-24T09:27:20Z</time>
      </trkpt>
      <trkpt lat="47.25954" lon="-2.43336">
        <ele>67</ele>
        <time>2011-04-24T09:27:22Z</time>
      </trkpt>
      <trkpt lat="47.25956" lon="-2.43345">
        <ele>66</ele>
        <time>2011-04-24T09:27:24Z</time>
      </trkpt>
      <trkpt lat="47.25959" lon="-2.43354">
        <ele>66</ele>
        <time>2011-04-24T09:27:26Z</time>
      </trkpt>
      <trkpt lat="47.25962" lon="-2.43364">
        <ele>66</ele>
        <time>2011-04-24T09:27:28Z</time>
      </trkpt>
      <trkpt lat="47.25965" lon="-2.43373">
        <ele>66</ele>
        <time>2011-04-24T09:27:30Z</time>
      </trkpt>
      <trkpt lat="47.25968" lon="-2.43384">
        <ele>66</ele>
        <time>2011-04-24T09:27:32Z</time>
      </trkpt>
      <trkpt lat="47.25972" lon="-2.43393">
        <ele>66</ele>
        <time>2011-04-24T09:27:34Z</time>
      </trkpt>
      <trkpt lat="47.25976" lon="-2.43402">
        <ele>65</ele>
        <time>2011-04-24T09:27:36Z</time>
      </trkpt>
      <trkpt lat="47.2598" lon="-2.43413">
        <ele>65</ele>
        <time>2011-04-24T09:27:38Z</time>
      </trkpt>
      <trkpt lat="47.25983" lon="-2.43423">
        <ele>65</ele>
        <time>2011-04-24T09:27:40Z</time>
      </trkpt>
      <trkpt lat="47.25987" lon="-2.43433">
        <ele>65</ele>
        <time>2011-04-24T09:27:42Z</time>
      </trkpt>
      <trkpt lat="47.2599" lon="-2.43443">
        <ele>64</ele>
        <time>2011-04-24T09:27:44Z</time>
      </trkpt>
      <trkpt lat="47.25994" lon="-2.43453">
        <ele>64</ele>
        <time>2011-04-24T09:27:46Z</time>
      </trkpt>
      <trkpt lat="47.25998" lon="-2.43463">
        <ele>65</ele>
        <time>2011-04-24T09:27:48Z</time>
      </trkpt>
      <trkpt lat="47.26001" lon="-2.43472">
        <ele>66</ele>
        <time>2011-04-24T09:27:50Z</time>
      </trkpt>
      <trkpt lat="47.26004" lon="-2.4348">
        <ele>67</ele>
        <time>2011-04-24T09:27:52Z</time>
      </trkpt>
      <trkpt lat="47.26007" lon="-2.43489">
        <ele>67</ele>
        <time>2011-04-24T09:27:54Z</time>
      </trkpt>
      <trkpt lat="47.2601" lon="-2.43498">
        <ele>67</ele>
        <time>2011-04-24T09:27:56Z</time>
      </trkpt>
      <trkpt lat="47.26014" lon="-2.43509">
        <ele>67</ele>
        <time>2011-04-24T09:27:58Z</time>
      </trkpt>
      <trkpt lat="47.26017" lon="-2.43518">
        <ele>67</ele>
        <time>2011-04-24T09:28:00Z</time>
      </trkpt>
      <trkpt lat="47.26022" lon="-2.43528">
        <ele>67</ele>
        <time>2011-04-24T09:28:02Z</time>
      </trkpt>
      <trkpt lat="47.26025" lon="-2.43539">
        <ele>68</ele>
        <time>2011-04-24T09:28:04Z</time>
      </trkpt>
      <trkpt lat="47.26029" lon="-2.43547">
        <ele>68</ele>
        <time>2011-04-24T09:28:06Z</time>
      </trkpt>
      <trkpt lat="47.26034" lon="-2.43556">
        <ele>68</ele>
        <time>2011-04-24T09:28:08Z</time>
      </trkpt>
      <trkpt lat="47.26039" lon="-2.43565">
        <ele>67</ele>
        <time>2011-04-24T09:28:10Z</time>
      </trkpt>
      <trkpt lat="47.26044" lon="-2.43574">
        <ele>67</ele>
        <time>2011-04-24T09:28:12Z</time>
      </trkpt>
      <trkpt lat="47.26048" lon="-2.43583">
        <ele>67</ele>
        <time>2011-04-24T09:28:14Z</time>
      </trkpt>
      <trkpt lat="47.26051" lon="-2.43588">
        <ele>67</ele>
        <time>2011-04-24T09:28:15Z</time>
      </trkpt>
      <trkpt lat="47.26055" lon="-2.43597">
        <ele>67</ele>
        <time>2011-04-24T09:28:17Z</time>
      </trkpt>
      <trkpt lat="47.2606" lon="-2.43605">
        <ele>68</ele>
        <time>2011-04-24T09:28:19Z</time>
      </trkpt>
      <trkpt lat="47.26064" lon="-2.43614">
        <ele>68</ele>
        <time>2011-04-24T09:28:21Z</time>
      </trkpt>
      <trkpt lat="47.26068" lon="-2.43623">
        <ele>68</ele>
        <time>2011-04-24T09:28:23Z</time>
      </trkpt>
      <trkpt lat="47.26072" lon="-2.43632">
        <ele>68</ele>
        <time>2011-04-24T09:28:25Z</time>
      </trkpt>
      <trkpt lat="47.26075" lon="-2.43641">
        <ele>67</ele>
        <time>2011-04-24T09:28:27Z</time>
      </trkpt>
      <trkpt lat="47.26078" lon="-2.4365">
        <ele>67</ele>
        <time>2011-04-24T09:28:29Z</time>
      </trkpt>
      <trkpt lat="47.26082" lon="-2.4366">
        <ele>66</ele>
        <time>2011-04-24T09:28:31Z</time>
      </trkpt>
      <trkpt lat="47.26084" lon="-2.43671">
        <ele>66</ele>
        <time>2011-04-24T09:28:33Z</time>
      </trkpt>
      <trkpt lat="47.26084" lon="-2.43683">
        <ele>66</ele>
        <time>2011-04-24T09:28:35Z</time>
      </trkpt>
      <trkpt lat="47.26085" lon="-2.43695">
        <ele>65</ele>
        <time>2011-04-24T09:28:37Z</time>
      </trkpt>
      <trkpt lat="47.26085" lon="-2.43706">
        <ele>65</ele>
        <time>2011-04-24T09:28:39Z</time>
      </trkpt>
      <trkpt lat="47.26084" lon="-2.43718">
        <ele>65</ele>
        <time>2011-04-24T09:28:41Z</time>
      </trkpt>
      <trkpt lat="47.26082" lon="-2.4373">
        <ele>65</ele>
        <time>2011-04-24T09:28:43Z</time>
      </trkpt>
      <trkpt lat="47.2608" lon="-2.43741">
        <ele>65</ele>
        <time>2011-04-24T09:28:45Z</time>
      </trkpt>
      <trkpt lat="47.26078" lon="-2.43753">
        <ele>65</ele>
        <time>2011-04-24T09:28:47Z</time>
      </trkpt>
      <trkpt lat="47.26076" lon="-2.43764">
        <ele>65</ele>
        <time>2011-04-24T09:28:49Z</time>
      </trkpt>
      <trkpt lat="47.26074" lon="-2.43776">
        <ele>65</ele>
        <time>2011-04-24T09:28:51Z</time>
      </trkpt>
      <trkpt lat="47.26073" lon="-2.43783">
        <ele>65</ele>
        <time>2011-04-24T09:28:52Z</time>
      </trkpt>
      <trkpt lat="47.26072" lon="-2.43794">
        <ele>65</ele>
        <time>2011-04-24T09:28:54Z</time>
      </trkpt>
      <trkpt lat="47.2607" lon="-2.43801">
        <ele>65</ele>
        <time>2011-04-24T09:28:55Z</time>
      </trkpt>
      <trkpt lat="47.26069" lon="-2.43813">
        <ele>64</ele>
        <time>2011-04-24T09:28:57Z</time>
      </trkpt>
      <trkpt lat="47.26068" lon="-2.4382">
        <ele>65</ele>
        <time>2011-04-24T09:28:58Z</time>
      </trkpt>
      <trkpt lat="47.26067" lon="-2.43832">
        <ele>65</ele>
        <time>2011-04-24T09:29:00Z</time>
      </trkpt>
      <trkpt lat="47.26065" lon="-2.43845">
        <ele>65</ele>
        <time>2011-04-24T09:29:02Z</time>
      </trkpt>
      <trkpt lat="47.26064" lon="-2.43857">
        <ele>65</ele>
        <time>2011-04-24T09:29:04Z</time>
      </trkpt>
      <trkpt lat="47.26064" lon="-2.43869">
        <ele>65</ele>
        <time>2011-04-24T09:29:06Z</time>
      </trkpt>
      <trkpt lat="47.26064" lon="-2.43881">
        <ele>65</ele>
        <time>2011-04-24T09:29:08Z</time>
      </trkpt>
      <trkpt lat="47.26065" lon="-2.43893">
        <ele>65</ele>
        <time>2011-04-24T09:29:10Z</time>
      </trkpt>
      <trkpt lat="47.26066" lon="-2.43905">
        <ele>66</ele>
        <time>2011-04-24T09:29:12Z</time>
      </trkpt>
      <trkpt lat="47.26067" lon="-2.43922">
        <ele>66</ele>
        <time>2011-04-24T09:29:15Z</time>
      </trkpt>
      <trkpt lat="47.26067" lon="-2.43933">
        <ele>66</ele>
        <time>2011-04-24T09:29:17Z</time>
      </trkpt>
      <trkpt lat="47.26067" lon="-2.43945">
        <ele>66</ele>
        <time>2011-04-24T09:29:19Z</time>
      </trkpt>
      <trkpt lat="47.26069" lon="-2.43956">
        <ele>66</ele>
        <time>2011-04-24T09:29:21Z</time>
      </trkpt>
      <trkpt lat="47.26071" lon="-2.43968">
        <ele>67</ele>
        <time>2011-04-24T09:29:23Z</time>
      </trkpt>
      <trkpt lat="47.26073" lon="-2.43978">
        <ele>67</ele>
        <time>2011-04-24T09:29:25Z</time>
      </trkpt>
      <trkpt lat="47.26074" lon="-2.43989">
        <ele>67</ele>
        <time>2011-04-24T09:29:27Z</time>
      </trkpt>
      <trkpt lat="47.26075" lon="-2.43999">
        <ele>67</ele>
        <time>2011-04-24T09:29:29Z</time>
      </trkpt>
      <trkpt lat="47.26076" lon="-2.44009">
        <ele>68</ele>
        <time>2011-04-24T09:29:31Z</time>
      </trkpt>
      <trkpt lat="47.26077" lon="-2.44017">
        <ele>68</ele>
        <time>2011-04-24T09:29:33Z</time>
      </trkpt>
      <trkpt lat="47.26078" lon="-2.44026">
        <ele>69</ele>
        <time>2011-04-24T09:29:35Z</time>
      </trkpt>
      <trkpt lat="47.2608" lon="-2.44036">
        <ele>69</ele>
        <time>2011-04-24T09:29:37Z</time>
      </trkpt>
      <trkpt lat="47.26081" lon="-2.44046">
        <ele>69</ele>
        <time>2011-04-24T09:29:39Z</time>
      </trkpt>
      <trkpt lat="47.26082" lon="-2.44056">
        <ele>70</ele>
        <time>2011-04-24T09:29:41Z</time>
      </trkpt>
      <trkpt lat="47.26084" lon="-2.44066">
        <ele>70</ele>
        <time>2011-04-24T09:29:43Z</time>
      </trkpt>
      <trkpt lat="47.26086" lon="-2.44075">
        <ele>70</ele>
        <time>2011-04-24T09:29:45Z</time>
      </trkpt>
      <trkpt lat="47.26088" lon="-2.44085">
        <ele>70</ele>
        <time>2011-04-24T09:29:47Z</time>
      </trkpt>
      <trkpt lat="47.26089" lon="-2.44096">
        <ele>70</ele>
        <time>2011-04-24T09:29:49Z</time>
      </trkpt>
      <trkpt lat="47.26091" lon="-2.44105">
        <ele>70</ele>
        <time>2011-04-24T09:29:51Z</time>
      </trkpt>
      <trkpt lat="47.26093" lon="-2.44115">
        <ele>71</ele>
        <time>2011-04-24T09:29:53Z</time>
      </trkpt>
      <trkpt lat="47.26095" lon="-2.44124">
        <ele>70</ele>
        <time>2011-04-24T09:29:55Z</time>
      </trkpt>
      <trkpt lat="47.26097" lon="-2.44135">
        <ele>70</ele>
        <time>2011-04-24T09:29:57Z</time>
      </trkpt>
      <trkpt lat="47.26099" lon="-2.44144">
        <ele>70</ele>
        <time>2011-04-24T09:29:59Z</time>
      </trkpt>
      <trkpt lat="47.261" lon="-2.44154">
        <ele>70</ele>
        <time>2011-04-24T09:30:01Z</time>
      </trkpt>
      <trkpt lat="47.26103" lon="-2.44165">
        <ele>69</ele>
        <time>2011-04-24T09:30:03Z</time>
      </trkpt>
      <trkpt lat="47.26105" lon="-2.44176">
        <ele>69</ele>
        <time>2011-04-24T09:30:05Z</time>
      </trkpt>
      <trkpt lat="47.26106" lon="-2.44184">
        <ele>69</ele>
        <time>2011-04-24T09:30:06Z</time>
      </trkpt>
      <trkpt lat="47.26109" lon="-2.44194">
        <ele>70</ele>
        <time>2011-04-24T09:30:08Z</time>
      </trkpt>
      <trkpt lat="47.26112" lon="-2.44205">
        <ele>70</ele>
        <time>2011-04-24T09:30:10Z</time>
      </trkpt>
      <trkpt lat="47.26115" lon="-2.44216">
        <ele>70</ele>
        <time>2011-04-24T09:30:12Z</time>
      </trkpt>
      <trkpt lat="47.26118" lon="-2.44227">
        <ele>69</ele>
        <time>2011-04-24T09:30:14Z</time>
      </trkpt>
      <trkpt lat="47.26122" lon="-2.44237">
        <ele>69</ele>
        <time>2011-04-24T09:30:16Z</time>
      </trkpt>
      <trkpt lat="47.26125" lon="-2.44247">
        <ele>69</ele>
        <time>2011-04-24T09:30:18Z</time>
      </trkpt>
      <trkpt lat="47.26129" lon="-2.44257">
        <ele>68</ele>
        <time>2011-04-24T09:30:20Z</time>
      </trkpt>
      <trkpt lat="47.26133" lon="-2.44266">
        <ele>68</ele>
        <time>2011-04-24T09:30:22Z</time>
      </trkpt>
      <trkpt lat="47.26135" lon="-2.44272">
        <ele>67</ele>
        <time>2011-04-24T09:30:23Z</time>
      </trkpt>
      <trkpt lat="47.26139" lon="-2.44283">
        <ele>67</ele>
        <time>2011-04-24T09:30:25Z</time>
      </trkpt>
      <trkpt lat="47.26141" lon="-2.44289">
        <ele>67</ele>
        <time>2011-04-24T09:30:26Z</time>
      </trkpt>
      <trkpt lat="47.26144" lon="-2.44297">
        <ele>67</ele>
        <time>2011-04-24T09:30:27Z</time>
      </trkpt>
      <trkpt lat="47.26148" lon="-2.44308">
        <ele>67</ele>
        <time>2011-04-24T09:30:29Z</time>
      </trkpt>
      <trkpt lat="47.26153" lon="-2.4432">
        <ele>67</ele>
        <time>2011-04-24T09:30:31Z</time>
      </trkpt>
      <trkpt lat="47.26157" lon="-2.44332">
        <ele>67</ele>
        <time>2011-04-24T09:30:33Z</time>
      </trkpt>
      <trkpt lat="47.26159" lon="-2.44338">
        <ele>67</ele>
        <time>2011-04-24T09:30:34Z</time>
      </trkpt>
      <trkpt lat="47.26163" lon="-2.4435">
        <ele>67</ele>
        <time>2011-04-24T09:30:36Z</time>
      </trkpt>
      <trkpt lat="47.26165" lon="-2.44356">
        <ele>66</ele>
        <time>2011-04-24T09:30:37Z</time>
      </trkpt>
      <trkpt lat="47.26167" lon="-2.44362">
        <ele>66</ele>
        <time>2011-04-24T09:30:38Z</time>
      </trkpt>
      <trkpt lat="47.26171" lon="-2.44374">
        <ele>66</ele>
        <time>2011-04-24T09:30:40Z</time>
      </trkpt>
      <trkpt lat="47.26173" lon="-2.4438">
        <ele>66</ele>
        <time>2011-04-24T09:30:41Z</time>
      </trkpt>
      <trkpt lat="47.26177" lon="-2.44391">
        <ele>66</ele>
        <time>2011-04-24T09:30:43Z</time>
      </trkpt>
      <trkpt lat="47.26182" lon="-2.44402">
        <ele>66</ele>
        <time>2011-04-24T09:30:45Z</time>
      </trkpt>
      <trkpt lat="47.26185" lon="-2.44413">
        <ele>66</ele>
        <time>2011-04-24T09:30:47Z</time>
      </trkpt>
      <trkpt lat="47.26188" lon="-2.44423">
        <ele>66</ele>
        <time>2011-04-24T09:30:49Z</time>
      </trkpt>
      <trkpt lat="47.26192" lon="-2.44429">
        <ele>66</ele>
        <time>2011-04-24T09:30:50Z</time>
      </trkpt>
      <trkpt lat="47.26196" lon="-2.4444">
        <ele>69</ele>
        <time>2011-04-24T09:30:52Z</time>
      </trkpt>
      <trkpt lat="47.262" lon="-2.44451">
        <ele>70</ele>
        <time>2011-04-24T09:30:54Z</time>
      </trkpt>
      <trkpt lat="47.26202" lon="-2.44462">
        <ele>70</ele>
        <time>2011-04-24T09:30:56Z</time>
      </trkpt>
      <trkpt lat="47.26204" lon="-2.44472">
        <ele>70</ele>
        <time>2011-04-24T09:30:58Z</time>
      </trkpt>
      <trkpt lat="47.26205" lon="-2.44484">
        <ele>70</ele>
        <time>2011-04-24T09:31:00Z</time>
      </trkpt>
      <trkpt lat="47.26207" lon="-2.44496">
        <ele>70</ele>
        <time>2011-04-24T09:31:02Z</time>
      </trkpt>
      <trkpt lat="47.26208" lon="-2.44506">
        <ele>69</ele>
        <time>2011-04-24T09:31:04Z</time>
      </trkpt>
      <trkpt lat="47.26209" lon="-2.44517">
        <ele>69</ele>
        <time>2011-04-24T09:31:06Z</time>
      </trkpt>
      <trkpt lat="47.26209" lon="-2.44529">
        <ele>69</ele>
        <time>2011-04-24T09:31:08Z</time>
      </trkpt>
      <trkpt lat="47.26209" lon="-2.4454">
        <ele>70</ele>
        <time>2011-04-24T09:31:10Z</time>
      </trkpt>
      <trkpt lat="47.26209" lon="-2.44552">
        <ele>70</ele>
        <time>2011-04-24T09:31:12Z</time>
      </trkpt>
      <trkpt lat="47.2621" lon="-2.44564">
        <ele>69</ele>
        <time>2011-04-24T09:31:14Z</time>
      </trkpt>
      <trkpt lat="47.2621" lon="-2.44576">
        <ele>69</ele>
        <time>2011-04-24T09:31:16Z</time>
      </trkpt>
      <trkpt lat="47.2621" lon="-2.44588">
        <ele>69</ele>
        <time>2011-04-24T09:31:18Z</time>
      </trkpt>
      <trkpt lat="47.2621" lon="-2.44601">
        <ele>68</ele>
        <time>2011-04-24T09:31:20Z</time>
      </trkpt>
      <trkpt lat="47.2621" lon="-2.44614">
        <ele>68</ele>
        <time>2011-04-24T09:31:22Z</time>
      </trkpt>
      <trkpt lat="47.26211" lon="-2.44626">
        <ele>68</ele>
        <time>2011-04-24T09:31:24Z</time>
      </trkpt>
      <trkpt lat="47.26211" lon="-2.44638">
        <ele>68</ele>
        <time>2011-04-24T09:31:26Z</time>
      </trkpt>
      <trkpt lat="47.26212" lon="-2.4465">
        <ele>67</ele>
        <time>2011-04-24T09:31:28Z</time>
      </trkpt>
      <trkpt lat="47.26212" lon="-2.44661">
        <ele>67</ele>
        <time>2011-04-24T09:31:30Z</time>
      </trkpt>
      <trkpt lat="47.26213" lon="-2.44673">
        <ele>67</ele>
        <time>2011-04-24T09:31:32Z</time>
      </trkpt>
      <trkpt lat="47.26214" lon="-2.44684">
        <ele>65</ele>
        <time>2011-04-24T09:31:34Z</time>
      </trkpt>
      <trkpt lat="47.26215" lon="-2.44695">
        <ele>65</ele>
        <time>2011-04-24T09:31:36Z</time>
      </trkpt>
      <trkpt lat="47.26218" lon="-2.44706">
        <ele>66</ele>
        <time>2011-04-24T09:31:38Z</time>
      </trkpt>
      <trkpt lat="47.2622" lon="-2.44716">
        <ele>66</ele>
        <time>2011-04-24T09:31:40Z</time>
      </trkpt>
      <trkpt lat="47.26222" lon="-2.44726">
        <ele>68</ele>
        <time>2011-04-24T09:31:42Z</time>
      </trkpt>
      <trkpt lat="47.26224" lon="-2.44735">
        <ele>69</ele>
        <time>2011-04-24T09:31:44Z</time>
      </trkpt>
      <trkpt lat="47.26228" lon="-2.4474">
        <ele>69</ele>
        <time>2011-04-24T09:31:45Z</time>
      </trkpt>
      <trkpt lat="47.26231" lon="-2.44748">
        <ele>68</ele>
        <time>2011-04-24T09:31:47Z</time>
      </trkpt>
      <trkpt lat="47.26235" lon="-2.44758">
        <ele>67</ele>
        <time>2011-04-24T09:31:49Z</time>
      </trkpt>
      <trkpt lat="47.26237" lon="-2.44766">
        <ele>66</ele>
        <time>2011-04-24T09:31:51Z</time>
      </trkpt>
      <trkpt lat="47.2624" lon="-2.44776">
        <ele>66</ele>
        <time>2011-04-24T09:31:53Z</time>
      </trkpt>
      <trkpt lat="47.26243" lon="-2.44785">
        <ele>66</ele>
        <time>2011-04-24T09:31:55Z</time>
      </trkpt>
      <trkpt lat="47.26247" lon="-2.44793">
        <ele>66</ele>
        <time>2011-04-24T09:31:57Z</time>
      </trkpt>
      <trkpt lat="47.2625" lon="-2.44804">
        <ele>67</ele>
        <time>2011-04-24T09:31:59Z</time>
      </trkpt>
      <trkpt lat="47.26253" lon="-2.44814">
        <ele>66</ele>
        <time>2011-04-24T09:32:01Z</time>
      </trkpt>
      <trkpt lat="47.26257" lon="-2.44824">
        <ele>66</ele>
        <time>2011-04-24T09:32:03Z</time>
      </trkpt>
      <trkpt lat="47.26261" lon="-2.44832">
        <ele>66</ele>
        <time>2011-04-24T09:32:05Z</time>
      </trkpt>
      <trkpt lat="47.26265" lon="-2.4484">
        <ele>67</ele>
        <time>2011-04-24T09:32:06Z</time>
      </trkpt>
      <trkpt lat="47.26267" lon="-2.44845">
        <ele>67</ele>
        <time>2011-04-24T09:32:07Z</time>
      </trkpt>
      <trkpt lat="47.26271" lon="-2.44855">
        <ele>65</ele>
        <time>2011-04-24T09:32:09Z</time>
      </trkpt>
      <trkpt lat="47.26276" lon="-2.44864">
        <ele>65</ele>
        <time>2011-04-24T09:32:11Z</time>
      </trkpt>
      <trkpt lat="47.2628" lon="-2.44869">
        <ele>64</ele>
        <time>2011-04-24T09:32:12Z</time>
      </trkpt>
      <trkpt lat="47.26287" lon="-2.44877">
        <ele>64</ele>
        <time>2011-04-24T09:32:14Z</time>
      </trkpt>
      <trkpt lat="47.26294" lon="-2.44884">
        <ele>64</ele>
        <time>2011-04-24T09:32:16Z</time>
      </trkpt>
      <trkpt lat="47.26302" lon="-2.44888">
        <ele>63</ele>
        <time>2011-04-24T09:32:18Z</time>
      </trkpt>
      <trkpt lat="47.26309" lon="-2.44892">
        <ele>65</ele>
        <time>2011-04-24T09:32:20Z</time>
      </trkpt>
      <trkpt lat="47.26318" lon="-2.44895">
        <ele>68</ele>
        <time>2011-04-24T09:32:22Z</time>
      </trkpt>
      <trkpt lat="47.26326" lon="-2.44897">
        <ele>67</ele>
        <time>2011-04-24T09:32:24Z</time>
      </trkpt>
      <trkpt lat="47.26333" lon="-2.449">
        <ele>67</ele>
        <time>2011-04-24T09:32:26Z</time>
      </trkpt>
      <trkpt lat="47.2634" lon="-2.44901">
        <ele>67</ele>
        <time>2011-04-24T09:32:28Z</time>
      </trkpt>
      <trkpt lat="47.26347" lon="-2.44901">
        <ele>66</ele>
        <time>2011-04-24T09:32:30Z</time>
      </trkpt>
      <trkpt lat="47.26352" lon="-2.44902">
        <ele>66</ele>
        <time>2011-04-24T09:32:32Z</time>
      </trkpt>
      <trkpt lat="47.26356" lon="-2.44904">
        <ele>65</ele>
        <time>2011-04-24T09:32:34Z</time>
      </trkpt>
      <trkpt lat="47.26362" lon="-2.44906">
        <ele>66</ele>
        <time>2011-04-24T09:32:37Z</time>
      </trkpt>
      <trkpt lat="47.26367" lon="-2.44908">
        <ele>64</ele>
        <time>2011-04-24T09:32:40Z</time>
      </trkpt>
      <trkpt lat="47.26372" lon="-2.44908">
        <ele>63</ele>
        <time>2011-04-24T09:32:45Z</time>
      </trkpt>
      <trkpt lat="47.26377" lon="-2.44911">
        <ele>63</ele>
        <time>2011-04-24T09:32:50Z</time>
      </trkpt>
      <trkpt lat="47.26382" lon="-2.44915">
        <ele>63</ele>
        <time>2011-04-24T09:32:54Z</time>
      </trkpt>
      <trkpt lat="47.26388" lon="-2.44927">
        <ele>64</ele>
        <time>2011-04-24T09:33:01Z</time>
      </trkpt>
      <trkpt lat="47.26386" lon="-2.44933">
        <ele>64</ele>
        <time>2011-04-24T09:33:03Z</time>
      </trkpt>
      <trkpt lat="47.26389" lon="-2.44942">
        <ele>64</ele>
        <time>2011-04-24T09:33:04Z</time>
      </trkpt>
      <trkpt lat="47.26392" lon="-2.44952">
        <ele>63</ele>
        <time>2011-04-24T09:33:06Z</time>
      </trkpt>
      <trkpt lat="47.26396" lon="-2.44963">
        <ele>63</ele>
        <time>2011-04-24T09:33:08Z</time>
      </trkpt>
      <trkpt lat="47.26401" lon="-2.44972">
        <ele>63</ele>
        <time>2011-04-24T09:33:10Z</time>
      </trkpt>
      <trkpt lat="47.26404" lon="-2.44982">
        <ele>65</ele>
        <time>2011-04-24T09:33:12Z</time>
      </trkpt>
      <trkpt lat="47.26406" lon="-2.44988">
        <ele>64</ele>
        <time>2011-04-24T09:33:13Z</time>
      </trkpt>
      <trkpt lat="47.26407" lon="-2.44994">
        <ele>64</ele>
        <time>2011-04-24T09:33:14Z</time>
      </trkpt>
      <trkpt lat="47.26411" lon="-2.45004">
        <ele>64</ele>
        <time>2011-04-24T09:33:16Z</time>
      </trkpt>
      <trkpt lat="47.26413" lon="-2.4501">
        <ele>64</ele>
        <time>2011-04-24T09:33:17Z</time>
      </trkpt>
      <trkpt lat="47.26416" lon="-2.4502">
        <ele>65</ele>
        <time>2011-04-24T09:33:19Z</time>
      </trkpt>
      <trkpt lat="47.26419" lon="-2.4503">
        <ele>65</ele>
        <time>2011-04-24T09:33:21Z</time>
      </trkpt>
      <trkpt lat="47.26422" lon="-2.45042">
        <ele>65</ele>
        <time>2011-04-24T09:33:23Z</time>
      </trkpt>
      <trkpt lat="47.26425" lon="-2.45048">
        <ele>65</ele>
        <time>2011-04-24T09:33:24Z</time>
      </trkpt>
      <trkpt lat="47.26428" lon="-2.45055">
        <ele>65</ele>
        <time>2011-04-24T09:33:25Z</time>
      </trkpt>
      <trkpt lat="47.2643" lon="-2.45069">
        <ele>62</ele>
        <time>2011-04-24T09:33:27Z</time>
      </trkpt>
      <trkpt lat="47.26431" lon="-2.45076">
        <ele>62</ele>
        <time>2011-04-24T09:33:28Z</time>
      </trkpt>
      <trkpt lat="47.26435" lon="-2.45086">
        <ele>65</ele>
        <time>2011-04-24T09:33:30Z</time>
      </trkpt>
      <trkpt lat="47.26437" lon="-2.45092">
        <ele>67</ele>
        <time>2011-04-24T09:33:31Z</time>
      </trkpt>
      <trkpt lat="47.26439" lon="-2.45099">
        <ele>67</ele>
        <time>2011-04-24T09:33:32Z</time>
      </trkpt>
      <trkpt lat="47.26442" lon="-2.45104">
        <ele>66</ele>
        <time>2011-04-24T09:33:33Z</time>
      </trkpt>
      <trkpt lat="47.26445" lon="-2.45109">
        <ele>67</ele>
        <time>2011-04-24T09:33:34Z</time>
      </trkpt>
      <trkpt lat="47.26449" lon="-2.45119">
        <ele>68</ele>
        <time>2011-04-24T09:33:36Z</time>
      </trkpt>
      <trkpt lat="47.26455" lon="-2.45129">
        <ele>67</ele>
        <time>2011-04-24T09:33:38Z</time>
      </trkpt>
      <trkpt lat="47.26458" lon="-2.45138">
        <ele>68</ele>
        <time>2011-04-24T09:33:40Z</time>
      </trkpt>
      <trkpt lat="47.26462" lon="-2.45143">
        <ele>67</ele>
        <time>2011-04-24T09:33:41Z</time>
      </trkpt>
      <trkpt lat="47.26465" lon="-2.45148">
        <ele>67</ele>
        <time>2011-04-24T09:33:42Z</time>
      </trkpt>
      <trkpt lat="47.26468" lon="-2.45153">
        <ele>67</ele>
        <time>2011-04-24T09:33:43Z</time>
      </trkpt>
      <trkpt lat="47.26475" lon="-2.45162">
        <ele>67</ele>
        <time>2011-04-24T09:33:45Z</time>
      </trkpt>
      <trkpt lat="47.26479" lon="-2.45166">
        <ele>67</ele>
        <time>2011-04-24T09:33:46Z</time>
      </trkpt>
      <trkpt lat="47.26484" lon="-2.4517">
        <ele>67</ele>
        <time>2011-04-24T09:33:47Z</time>
      </trkpt>
      <trkpt lat="47.26487" lon="-2.45175">
        <ele>67</ele>
        <time>2011-04-24T09:33:48Z</time>
      </trkpt>
      <trkpt lat="47.26492" lon="-2.45179">
        <ele>66</ele>
        <time>2011-04-24T09:33:49Z</time>
      </trkpt>
      <trkpt lat="47.26495" lon="-2.45183">
        <ele>66</ele>
        <time>2011-04-24T09:33:50Z</time>
      </trkpt>
      <trkpt lat="47.265" lon="-2.45187">
        <ele>66</ele>
        <time>2011-04-24T09:33:51Z</time>
      </trkpt>
      <trkpt lat="47.26504" lon="-2.45192">
        <ele>66</ele>
        <time>2011-04-24T09:33:52Z</time>
      </trkpt>
      <trkpt lat="47.26508" lon="-2.45196">
        <ele>65</ele>
        <time>2011-04-24T09:33:53Z</time>
      </trkpt>
      <trkpt lat="47.26512" lon="-2.45199">
        <ele>65</ele>
        <time>2011-04-24T09:33:54Z</time>
      </trkpt>
      <trkpt lat="47.26519" lon="-2.45206">
        <ele>65</ele>
        <time>2011-04-24T09:33:56Z</time>
      </trkpt>
      <trkpt lat="47.26524" lon="-2.4521">
        <ele>65</ele>
        <time>2011-04-24T09:33:57Z</time>
      </trkpt>
      <trkpt lat="47.26528" lon="-2.45212">
        <ele>64</ele>
        <time>2011-04-24T09:33:58Z</time>
      </trkpt>
      <trkpt lat="47.26532" lon="-2.45216">
        <ele>64</ele>
        <time>2011-04-24T09:33:59Z</time>
      </trkpt>
      <trkpt lat="47.26536" lon="-2.4522">
        <ele>64</ele>
        <time>2011-04-24T09:34:00Z</time>
      </trkpt>
      <trkpt lat="47.2654" lon="-2.45224">
        <ele>64</ele>
        <time>2011-04-24T09:34:01Z</time>
      </trkpt>
      <trkpt lat="47.26544" lon="-2.45227">
        <ele>64</ele>
        <time>2011-04-24T09:34:02Z</time>
      </trkpt>
      <trkpt lat="47.26548" lon="-2.45231">
        <ele>64</ele>
        <time>2011-04-24T09:34:03Z</time>
      </trkpt>
      <trkpt lat="47.26556" lon="-2.45238">
        <ele>64</ele>
        <time>2011-04-24T09:34:05Z</time>
      </trkpt>
      <trkpt lat="47.2656" lon="-2.45243">
        <ele>65</ele>
        <time>2011-04-24T09:34:06Z</time>
      </trkpt>
      <trkpt lat="47.26567" lon="-2.4524">
        <ele>65</ele>
        <time>2011-04-24T09:34:07Z</time>
      </trkpt>
      <trkpt lat="47.26572" lon="-2.45244">
        <ele>65</ele>
        <time>2011-04-24T09:34:09Z</time>
      </trkpt>
      <trkpt lat="47.26575" lon="-2.4525">
        <ele>64</ele>
        <time>2011-04-24T09:34:10Z</time>
      </trkpt>
      <trkpt lat="47.26581" lon="-2.45261">
        <ele>63</ele>
        <time>2011-04-24T09:34:12Z</time>
      </trkpt>
      <trkpt lat="47.26586" lon="-2.45265">
        <ele>62</ele>
        <time>2011-04-24T09:34:13Z</time>
      </trkpt>
      <trkpt lat="47.2659" lon="-2.4527">
        <ele>62</ele>
        <time>2011-04-24T09:34:14Z</time>
      </trkpt>
      <trkpt lat="47.26595" lon="-2.45274">
        <ele>62</ele>
        <time>2011-04-24T09:34:15Z</time>
      </trkpt>
      <trkpt lat="47.26603" lon="-2.4528">
        <ele>61</ele>
        <time>2011-04-24T09:34:17Z</time>
      </trkpt>
      <trkpt lat="47.26608" lon="-2.45284">
        <ele>61</ele>
        <time>2011-04-24T09:34:18Z</time>
      </trkpt>
      <trkpt lat="47.26616" lon="-2.45291">
        <ele>60</ele>
        <time>2011-04-24T09:34:20Z</time>
      </trkpt>
      <trkpt lat="47.26619" lon="-2.45296">
        <ele>59</ele>
        <time>2011-04-24T09:34:21Z</time>
      </trkpt>
      <trkpt lat="47.26624" lon="-2.45299">
        <ele>59</ele>
        <time>2011-04-24T09:34:22Z</time>
      </trkpt>
      <trkpt lat="47.26627" lon="-2.45303">
        <ele>59</ele>
        <time>2011-04-24T09:34:23Z</time>
      </trkpt>
      <trkpt lat="47.2663" lon="-2.45308">
        <ele>59</ele>
        <time>2011-04-24T09:34:24Z</time>
      </trkpt>
      <trkpt lat="47.26639" lon="-2.45315">
        <ele>59</ele>
        <time>2011-04-24T09:34:26Z</time>
      </trkpt>
      <trkpt lat="47.26642" lon="-2.45318">
        <ele>59</ele>
        <time>2011-04-24T09:34:27Z</time>
      </trkpt>
      <trkpt lat="47.26646" lon="-2.45323">
        <ele>58</ele>
        <time>2011-04-24T09:34:28Z</time>
      </trkpt>
      <trkpt lat="47.26655" lon="-2.45329">
        <ele>59</ele>
        <time>2011-04-24T09:34:30Z</time>
      </trkpt>
      <trkpt lat="47.26657" lon="-2.45335">
        <ele>61</ele>
        <time>2011-04-24T09:34:31Z</time>
      </trkpt>
      <trkpt lat="47.26662" lon="-2.4534">
        <ele>59</ele>
        <time>2011-04-24T09:34:32Z</time>
      </trkpt>
      <trkpt lat="47.26665" lon="-2.45344">
        <ele>59</ele>
        <time>2011-04-24T09:34:33Z</time>
      </trkpt>
      <trkpt lat="47.26669" lon="-2.45348">
        <ele>59</ele>
        <time>2011-04-24T09:34:34Z</time>
      </trkpt>
      <trkpt lat="47.26673" lon="-2.45352">
        <ele>59</ele>
        <time>2011-04-24T09:34:35Z</time>
      </trkpt>
      <trkpt lat="47.26677" lon="-2.45356">
        <ele>58</ele>
        <time>2011-04-24T09:34:36Z</time>
      </trkpt>
      <trkpt lat="47.26681" lon="-2.4536">
        <ele>58</ele>
        <time>2011-04-24T09:34:37Z</time>
      </trkpt>
      <trkpt lat="47.26685" lon="-2.45364">
        <ele>58</ele>
        <time>2011-04-24T09:34:38Z</time>
      </trkpt>
      <trkpt lat="47.26689" lon="-2.45368">
        <ele>58</ele>
        <time>2011-04-24T09:34:39Z</time>
      </trkpt>
      <trkpt lat="47.26693" lon="-2.45373">
        <ele>57</ele>
        <time>2011-04-24T09:34:40Z</time>
      </trkpt>
      <trkpt lat="47.26694" lon="-2.45383">
        <ele>56</ele>
        <time>2011-04-24T09:34:42Z</time>
      </trkpt>
      <trkpt lat="47.26701" lon="-2.45387">
        <ele>55</ele>
        <time>2011-04-24T09:34:44Z</time>
      </trkpt>
      <trkpt lat="47.26714" lon="-2.45391">
        <ele>53</ele>
        <time>2011-04-24T09:34:45Z</time>
      </trkpt>
      <trkpt lat="47.26719" lon="-2.45395">
        <ele>53</ele>
        <time>2011-04-24T09:34:46Z</time>
      </trkpt>
      <trkpt lat="47.26724" lon="-2.454">
        <ele>54</ele>
        <time>2011-04-24T09:34:47Z</time>
      </trkpt>
      <trkpt lat="47.26729" lon="-2.45404">
        <ele>55</ele>
        <time>2011-04-24T09:34:48Z</time>
      </trkpt>
      <trkpt lat="47.26736" lon="-2.45409">
        <ele>53</ele>
        <time>2011-04-24T09:34:50Z</time>
      </trkpt>
      <trkpt lat="47.26742" lon="-2.45411">
        <ele>53</ele>
        <time>2011-04-24T09:34:51Z</time>
      </trkpt>
      <trkpt lat="47.26746" lon="-2.45411">
        <ele>53</ele>
        <time>2011-04-24T09:34:52Z</time>
      </trkpt>
      <trkpt lat="47.26753" lon="-2.45414">
        <ele>53</ele>
        <time>2011-04-24T09:34:53Z</time>
      </trkpt>
      <trkpt lat="47.26759" lon="-2.45415">
        <ele>53</ele>
        <time>2011-04-24T09:34:54Z</time>
      </trkpt>
      <trkpt lat="47.26751" lon="-2.45425">
        <ele>54</ele>
        <time>2011-04-24T09:34:55Z</time>
      </trkpt>
      <trkpt lat="47.26745" lon="-2.45434">
        <ele>54</ele>
        <time>2011-04-24T09:34:58Z</time>
      </trkpt>
      <trkpt lat="47.26739" lon="-2.4544">
        <ele>54</ele>
        <time>2011-04-24T09:35:00Z</time>
      </trkpt>
      <trkpt lat="47.26734" lon="-2.45447">
        <ele>54</ele>
        <time>2011-04-24T09:35:02Z</time>
      </trkpt>
      <trkpt lat="47.26728" lon="-2.45452">
        <ele>55</ele>
        <time>2011-04-24T09:35:04Z</time>
      </trkpt>
      <trkpt lat="47.26723" lon="-2.45456">
        <ele>56</ele>
        <time>2011-04-24T09:35:06Z</time>
      </trkpt>
      <trkpt lat="47.26716" lon="-2.45464">
        <ele>59</ele>
        <time>2011-04-24T09:35:08Z</time>
      </trkpt>
      <trkpt lat="47.26711" lon="-2.45462">
        <ele>57</ele>
        <time>2011-04-24T09:35:11Z</time>
      </trkpt>
      <trkpt lat="47.26711" lon="-2.45462">
        <ele>57</ele>
        <time>2011-04-24T09:35:11Z</time>
      </trkpt>
      <trkpt lat="47.26711" lon="-2.45462">
        <ele>57</ele>
        <time>2011-04-24T09:35:30Z</time>
      </trkpt>
      <trkpt lat="47.26706" lon="-2.45459">
        <ele>57</ele>
        <time>2011-04-24T09:38:26Z</time>
      </trkpt>
      <trkpt lat="47.26701" lon="-2.45454">
        <ele>57</ele>
        <time>2011-04-24T09:38:30Z</time>
      </trkpt>
      <trkpt lat="47.26706" lon="-2.45456">
        <ele>58</ele>
        <time>2011-04-24T09:38:41Z</time>
      </trkpt>
      <trkpt lat="47.26709" lon="-2.4546">
        <ele>58</ele>
        <time>2011-04-24T09:38:47Z</time>
      </trkpt>
      <trkpt lat="47.26709" lon="-2.4546">
        <ele>58</ele>
        <time>2011-04-24T09:38:47Z</time>
      </trkpt>
      <trkpt lat="47.26709" lon="-2.4546">
        <ele>60</ele>
        <time>2011-04-24T09:39:06Z</time>
      </trkpt>
      <trkpt lat="47.26706" lon="-2.45465">
        <ele>59</ele>
        <time>2011-04-24T09:40:19Z</time>
      </trkpt>
      <trkpt lat="47.2671" lon="-2.45463">
        <ele>60</ele>
        <time>2011-04-24T09:41:07Z</time>
      </trkpt>
      <trkpt lat="47.2671" lon="-2.45463">
        <ele>60</ele>
        <time>2011-04-24T09:41:07Z</time>
      </trkpt>
      <trkpt lat="47.2671" lon="-2.45463">
        <ele>60</ele>
        <time>2011-04-24T09:41:08Z</time>
      </trkpt>
      <trkpt lat="47.26715" lon="-2.45463">
        <ele>59</ele>
        <time>2011-04-24T09:41:13Z</time>
      </trkpt>
      <trkpt lat="47.2672" lon="-2.45466">
        <ele>59</ele>
        <time>2011-04-24T09:41:19Z</time>
      </trkpt>
      <trkpt lat="47.26724" lon="-2.45463">
        <ele>59</ele>
        <time>2011-04-24T09:41:28Z</time>
      </trkpt>
      <trkpt lat="47.26721" lon="-2.45469">
        <ele>61</ele>
        <time>2011-04-24T09:42:52Z</time>
      </trkpt>
      <trkpt lat="47.26716" lon="-2.45466">
        <ele>59</ele>
        <time>2011-04-24T09:42:59Z</time>
      </trkpt>
      <trkpt lat="47.26712" lon="-2.45462">
        <ele>59</ele>
        <time>2011-04-24T09:43:05Z</time>
      </trkpt>
      <trkpt lat="47.26707" lon="-2.45462">
        <ele>56</ele>
        <time>2011-04-24T09:43:48Z</time>
      </trkpt>
      <trkpt lat="47.26707" lon="-2.45462">
        <ele>56</ele>
        <time>2011-04-24T09:43:48Z</time>
      </trkpt>
      <trkpt lat="47.26707" lon="-2.45462">
        <ele>56</ele>
        <time>2011-04-24T09:43:53Z</time>
      </trkpt>
      <trkpt lat="47.26709" lon="-2.45455">
        <ele>54</ele>
        <time>2011-04-24T09:48:54Z</time>
      </trkpt>
      <trkpt lat="47.26714" lon="-2.45453">
        <ele>54</ele>
        <time>2011-04-24T09:49:03Z</time>
      </trkpt>
      <trkpt lat="47.26718" lon="-2.45454">
        <ele>54</ele>
        <time>2011-04-24T09:49:15Z</time>
      </trkpt>
      <trkpt lat="47.26723" lon="-2.45455">
        <ele>55</ele>
        <time>2011-04-24T09:49:18Z</time>
      </trkpt>
      <trkpt lat="47.26729" lon="-2.45449">
        <ele>55</ele>
        <time>2011-04-24T09:49:22Z</time>
      </trkpt>
      <trkpt lat="47.26733" lon="-2.45444">
        <ele>56</ele>
        <time>2011-04-24T09:49:25Z</time>
      </trkpt>
      <trkpt lat="47.26736" lon="-2.45434">
        <ele>56</ele>
        <time>2011-04-24T09:49:28Z</time>
      </trkpt>
      <trkpt lat="47.26738" lon="-2.45427">
        <ele>56</ele>
        <time>2011-04-24T09:49:30Z</time>
      </trkpt>
      <trkpt lat="47.26742" lon="-2.45419">
        <ele>57</ele>
        <time>2011-04-24T09:49:32Z</time>
      </trkpt>
      <trkpt lat="47.26748" lon="-2.45417">
        <ele>57</ele>
        <time>2011-04-24T09:49:34Z</time>
      </trkpt>
      <trkpt lat="47.26755" lon="-2.45416">
        <ele>58</ele>
        <time>2011-04-24T09:49:36Z</time>
      </trkpt>
      <trkpt lat="47.26759" lon="-2.45419">
        <ele>59</ele>
        <time>2011-04-24T09:49:38Z</time>
      </trkpt>
      <trkpt lat="47.26761" lon="-2.45429">
        <ele>59</ele>
        <time>2011-04-24T09:49:40Z</time>
      </trkpt>
      <trkpt lat="47.26764" lon="-2.45436">
        <ele>59</ele>
        <time>2011-04-24T09:49:41Z</time>
      </trkpt>
      <trkpt lat="47.26765" lon="-2.45442">
        <ele>59</ele>
        <time>2011-04-24T09:49:42Z</time>
      </trkpt>
      <trkpt lat="47.2677" lon="-2.4545">
        <ele>59</ele>
        <time>2011-04-24T09:49:44Z</time>
      </trkpt>
      <trkpt lat="47.26775" lon="-2.45457">
        <ele>62</ele>
        <time>2011-04-24T09:49:46Z</time>
      </trkpt>
      <trkpt lat="47.26779" lon="-2.45461">
        <ele>63</ele>
        <time>2011-04-24T09:49:47Z</time>
      </trkpt>
      <trkpt lat="47.26782" lon="-2.45467">
        <ele>61</ele>
        <time>2011-04-24T09:49:48Z</time>
      </trkpt>
      <trkpt lat="47.26786" lon="-2.45472">
        <ele>61</ele>
        <time>2011-04-24T09:49:49Z</time>
      </trkpt>
      <trkpt lat="47.26792" lon="-2.45482">
        <ele>61</ele>
        <time>2011-04-24T09:49:51Z</time>
      </trkpt>
      <trkpt lat="47.26796" lon="-2.45486">
        <ele>62</ele>
        <time>2011-04-24T09:49:52Z</time>
      </trkpt>
      <trkpt lat="47.26802" lon="-2.45495">
        <ele>62</ele>
        <time>2011-04-24T09:49:54Z</time>
      </trkpt>
      <trkpt lat="47.26808" lon="-2.45502">
        <ele>61</ele>
        <time>2011-04-24T09:49:56Z</time>
      </trkpt>
      <trkpt lat="47.26815" lon="-2.45507">
        <ele>62</ele>
        <time>2011-04-24T09:49:58Z</time>
      </trkpt>
      <trkpt lat="47.26822" lon="-2.45513">
        <ele>61</ele>
        <time>2011-04-24T09:50:00Z</time>
      </trkpt>
      <trkpt lat="47.26828" lon="-2.45521">
        <ele>62</ele>
        <time>2011-04-24T09:50:02Z</time>
      </trkpt>
      <trkpt lat="47.26835" lon="-2.45527">
        <ele>62</ele>
        <time>2011-04-24T09:50:04Z</time>
      </trkpt>
      <trkpt lat="47.26839" lon="-2.45532">
        <ele>62</ele>
        <time>2011-04-24T09:50:05Z</time>
      </trkpt>
      <trkpt lat="47.26845" lon="-2.45537">
        <ele>61</ele>
        <time>2011-04-24T09:50:07Z</time>
      </trkpt>
      <trkpt lat="47.26853" lon="-2.45543">
        <ele>61</ele>
        <time>2011-04-24T09:50:09Z</time>
      </trkpt>
      <trkpt lat="47.2686" lon="-2.45549">
        <ele>61</ele>
        <time>2011-04-24T09:50:11Z</time>
      </trkpt>
      <trkpt lat="47.26867" lon="-2.45555">
        <ele>61</ele>
        <time>2011-04-24T09:50:13Z</time>
      </trkpt>
      <trkpt lat="47.26874" lon="-2.4556">
        <ele>61</ele>
        <time>2011-04-24T09:50:15Z</time>
      </trkpt>
      <trkpt lat="47.2688" lon="-2.45567">
        <ele>60</ele>
        <time>2011-04-24T09:50:17Z</time>
      </trkpt>
      <trkpt lat="47.26888" lon="-2.45573">
        <ele>60</ele>
        <time>2011-04-24T09:50:19Z</time>
      </trkpt>
      <trkpt lat="47.26894" lon="-2.45579">
        <ele>60</ele>
        <time>2011-04-24T09:50:21Z</time>
      </trkpt>
      <trkpt lat="47.26901" lon="-2.45586">
        <ele>59</ele>
        <time>2011-04-24T09:50:23Z</time>
      </trkpt>
      <trkpt lat="47.26907" lon="-2.45593">
        <ele>59</ele>
        <time>2011-04-24T09:50:25Z</time>
      </trkpt>
      <trkpt lat="47.26914" lon="-2.456">
        <ele>59</ele>
        <time>2011-04-24T09:50:27Z</time>
      </trkpt>
      <trkpt lat="47.26921" lon="-2.45607">
        <ele>59</ele>
        <time>2011-04-24T09:50:29Z</time>
      </trkpt>
      <trkpt lat="47.26927" lon="-2.45616">
        <ele>59</ele>
        <time>2011-04-24T09:50:31Z</time>
      </trkpt>
      <trkpt lat="47.26932" lon="-2.45625">
        <ele>59</ele>
        <time>2011-04-24T09:50:33Z</time>
      </trkpt>
      <trkpt lat="47.26936" lon="-2.45636">
        <ele>59</ele>
        <time>2011-04-24T09:50:35Z</time>
      </trkpt>
      <trkpt lat="47.26942" lon="-2.45645">
        <ele>59</ele>
        <time>2011-04-24T09:50:37Z</time>
      </trkpt>
      <trkpt lat="47.26946" lon="-2.45655">
        <ele>59</ele>
        <time>2011-04-24T09:50:39Z</time>
      </trkpt>
      <trkpt lat="47.26949" lon="-2.45662">
        <ele>59</ele>
        <time>2011-04-24T09:50:40Z</time>
      </trkpt>
      <trkpt lat="47.26954" lon="-2.45673">
        <ele>60</ele>
        <time>2011-04-24T09:50:42Z</time>
      </trkpt>
      <trkpt lat="47.26957" lon="-2.45684">
        <ele>60</ele>
        <time>2011-04-24T09:50:44Z</time>
      </trkpt>
      <trkpt lat="47.2696" lon="-2.45694">
        <ele>60</ele>
        <time>2011-04-24T09:50:46Z</time>
      </trkpt>
      <trkpt lat="47.26963" lon="-2.45705">
        <ele>60</ele>
        <time>2011-04-24T09:50:48Z</time>
      </trkpt>
      <trkpt lat="47.26965" lon="-2.45717">
        <ele>60</ele>
        <time>2011-04-24T09:50:50Z</time>
      </trkpt>
      <trkpt lat="47.26967" lon="-2.45729">
        <ele>61</ele>
        <time>2011-04-24T09:50:52Z</time>
      </trkpt>
      <trkpt lat="47.26968" lon="-2.45741">
        <ele>61</ele>
        <time>2011-04-24T09:50:54Z</time>
      </trkpt>
      <trkpt lat="47.26971" lon="-2.45752">
        <ele>61</ele>
        <time>2011-04-24T09:50:56Z</time>
      </trkpt>
      <trkpt lat="47.2697" lon="-2.4576">
        <ele>61</ele>
        <time>2011-04-24T09:50:57Z</time>
      </trkpt>
      <trkpt lat="47.2697" lon="-2.45771">
        <ele>62</ele>
        <time>2011-04-24T09:50:59Z</time>
      </trkpt>
      <trkpt lat="47.2697" lon="-2.45784">
        <ele>62</ele>
        <time>2011-04-24T09:51:01Z</time>
      </trkpt>
      <trkpt lat="47.2697" lon="-2.45795">
        <ele>62</ele>
        <time>2011-04-24T09:51:03Z</time>
      </trkpt>
      <trkpt lat="47.26968" lon="-2.45805">
        <ele>63</ele>
        <time>2011-04-24T09:51:05Z</time>
      </trkpt>
      <trkpt lat="47.26968" lon="-2.45815">
        <ele>64</ele>
        <time>2011-04-24T09:51:07Z</time>
      </trkpt>
      <trkpt lat="47.26968" lon="-2.45827">
        <ele>66</ele>
        <time>2011-04-24T09:51:09Z</time>
      </trkpt>
      <trkpt lat="47.26969" lon="-2.45835">
        <ele>65</ele>
        <time>2011-04-24T09:51:10Z</time>
      </trkpt>
      <trkpt lat="47.26968" lon="-2.45842">
        <ele>66</ele>
        <time>2011-04-24T09:51:11Z</time>
      </trkpt>
      <trkpt lat="47.26968" lon="-2.45854">
        <ele>67</ele>
        <time>2011-04-24T09:51:13Z</time>
      </trkpt>
      <trkpt lat="47.26969" lon="-2.45861">
        <ele>67</ele>
        <time>2011-04-24T09:51:14Z</time>
      </trkpt>
      <trkpt lat="47.2697" lon="-2.45874">
        <ele>66</ele>
        <time>2011-04-24T09:51:16Z</time>
      </trkpt>
      <trkpt lat="47.26971" lon="-2.45881">
        <ele>66</ele>
        <time>2011-04-24T09:51:17Z</time>
      </trkpt>
      <trkpt lat="47.26972" lon="-2.45887">
        <ele>66</ele>
        <time>2011-04-24T09:51:18Z</time>
      </trkpt>
      <trkpt lat="47.26975" lon="-2.459">
        <ele>66</ele>
        <time>2011-04-24T09:51:20Z</time>
      </trkpt>
      <trkpt lat="47.26977" lon="-2.45912">
        <ele>65</ele>
        <time>2011-04-24T09:51:22Z</time>
      </trkpt>
      <trkpt lat="47.26979" lon="-2.45918">
        <ele>65</ele>
        <time>2011-04-24T09:51:23Z</time>
      </trkpt>
      <trkpt lat="47.26981" lon="-2.4593">
        <ele>64</ele>
        <time>2011-04-24T09:51:25Z</time>
      </trkpt>
      <trkpt lat="47.26983" lon="-2.45936">
        <ele>64</ele>
        <time>2011-04-24T09:51:26Z</time>
      </trkpt>
      <trkpt lat="47.26984" lon="-2.45943">
        <ele>64</ele>
        <time>2011-04-24T09:51:27Z</time>
      </trkpt>
      <trkpt lat="47.26986" lon="-2.45949">
        <ele>64</ele>
        <time>2011-04-24T09:51:28Z</time>
      </trkpt>
      <trkpt lat="47.26987" lon="-2.45956">
        <ele>64</ele>
        <time>2011-04-24T09:51:29Z</time>
      </trkpt>
      <trkpt lat="47.26989" lon="-2.45963">
        <ele>64</ele>
        <time>2011-04-24T09:51:30Z</time>
      </trkpt>
      <trkpt lat="47.26992" lon="-2.45975">
        <ele>64</ele>
        <time>2011-04-24T09:51:32Z</time>
      </trkpt>
      <trkpt lat="47.26993" lon="-2.45988">
        <ele>64</ele>
        <time>2011-04-24T09:51:34Z</time>
      </trkpt>
      <trkpt lat="47.26995" lon="-2.45994">
        <ele>63</ele>
        <time>2011-04-24T09:51:35Z</time>
      </trkpt>
      <trkpt lat="47.26997" lon="-2.46006">
        <ele>64</ele>
        <time>2011-04-24T09:51:37Z</time>
      </trkpt>
      <trkpt lat="47.26999" lon="-2.46013">
        <ele>63</ele>
        <time>2011-04-24T09:51:38Z</time>
      </trkpt>
      <trkpt lat="47.27" lon="-2.4602">
        <ele>63</ele>
        <time>2011-04-24T09:51:39Z</time>
      </trkpt>
      <trkpt lat="47.27002" lon="-2.46027">
        <ele>63</ele>
        <time>2011-04-24T09:51:40Z</time>
      </trkpt>
      <trkpt lat="47.27003" lon="-2.46033">
        <ele>63</ele>
        <time>2011-04-24T09:51:41Z</time>
      </trkpt>
      <trkpt lat="47.27004" lon="-2.4604">
        <ele>63</ele>
        <time>2011-04-24T09:51:42Z</time>
      </trkpt>
      <trkpt lat="47.27006" lon="-2.46048">
        <ele>63</ele>
        <time>2011-04-24T09:51:43Z</time>
      </trkpt>
      <trkpt lat="47.27007" lon="-2.46054">
        <ele>63</ele>
        <time>2011-04-24T09:51:44Z</time>
      </trkpt>
      <trkpt lat="47.27009" lon="-2.46062">
        <ele>63</ele>
        <time>2011-04-24T09:51:45Z</time>
      </trkpt>
      <trkpt lat="47.2701" lon="-2.46068">
        <ele>62</ele>
        <time>2011-04-24T09:51:46Z</time>
      </trkpt>
      <trkpt lat="47.27012" lon="-2.46076">
        <ele>62</ele>
        <time>2011-04-24T09:51:47Z</time>
      </trkpt>
      <trkpt lat="47.27014" lon="-2.46082">
        <ele>62</ele>
        <time>2011-04-24T09:51:48Z</time>
      </trkpt>
      <trkpt lat="47.27015" lon="-2.46089">
        <ele>62</ele>
        <time>2011-04-24T09:51:49Z</time>
      </trkpt>
      <trkpt lat="47.27017" lon="-2.46097">
        <ele>61</ele>
        <time>2011-04-24T09:51:50Z</time>
      </trkpt>
      <trkpt lat="47.27019" lon="-2.46104">
        <ele>62</ele>
        <time>2011-04-24T09:51:51Z</time>
      </trkpt>
      <trkpt lat="47.2702" lon="-2.46111">
        <ele>61</ele>
        <time>2011-04-24T09:51:52Z</time>
      </trkpt>
      <trkpt lat="47.27023" lon="-2.46119">
        <ele>61</ele>
        <time>2011-04-24T09:51:53Z</time>
      </trkpt>
      <trkpt lat="47.27024" lon="-2.46126">
        <ele>61</ele>
        <time>2011-04-24T09:51:54Z</time>
      </trkpt>
      <trkpt lat="47.27026" lon="-2.46133">
        <ele>61</ele>
        <time>2011-04-24T09:51:55Z</time>
      </trkpt>
      <trkpt lat="47.27028" lon="-2.4614">
        <ele>61</ele>
        <time>2011-04-24T09:51:56Z</time>
      </trkpt>
      <trkpt lat="47.2703" lon="-2.46147">
        <ele>61</ele>
        <time>2011-04-24T09:51:57Z</time>
      </trkpt>
      <trkpt lat="47.27032" lon="-2.46155">
        <ele>61</ele>
        <time>2011-04-24T09:51:58Z</time>
      </trkpt>
      <trkpt lat="47.27034" lon="-2.46162">
        <ele>61</ele>
        <time>2011-04-24T09:51:59Z</time>
      </trkpt>
      <trkpt lat="47.27036" lon="-2.4617">
        <ele>61</ele>
        <time>2011-04-24T09:52:00Z</time>
      </trkpt>
      <trkpt lat="47.27038" lon="-2.46177">
        <ele>61</ele>
        <time>2011-04-24T09:52:01Z</time>
      </trkpt>
      <trkpt lat="47.2704" lon="-2.46184">
        <ele>60</ele>
        <time>2011-04-24T09:52:02Z</time>
      </trkpt>
      <trkpt lat="47.27042" lon="-2.46192">
        <ele>60</ele>
        <time>2011-04-24T09:52:03Z</time>
      </trkpt>
      <trkpt lat="47.27044" lon="-2.46199">
        <ele>60</ele>
        <time>2011-04-24T09:52:04Z</time>
      </trkpt>
      <trkpt lat="47.27046" lon="-2.46206">
        <ele>60</ele>
        <time>2011-04-24T09:52:05Z</time>
      </trkpt>
      <trkpt lat="47.27048" lon="-2.46213">
        <ele>60</ele>
        <time>2011-04-24T09:52:06Z</time>
      </trkpt>
      <trkpt lat="47.2705" lon="-2.4622">
        <ele>60</ele>
        <time>2011-04-24T09:52:07Z</time>
      </trkpt>
      <trkpt lat="47.27052" lon="-2.46227">
        <ele>60</ele>
        <time>2011-04-24T09:52:08Z</time>
      </trkpt>
      <trkpt lat="47.27054" lon="-2.46234">
        <ele>60</ele>
        <time>2011-04-24T09:52:09Z</time>
      </trkpt>
      <trkpt lat="47.27055" lon="-2.46241">
        <ele>60</ele>
        <time>2011-04-24T09:52:10Z</time>
      </trkpt>
      <trkpt lat="47.27056" lon="-2.46248">
        <ele>60</ele>
        <time>2011-04-24T09:52:11Z</time>
      </trkpt>
      <trkpt lat="47.27058" lon="-2.46255">
        <ele>60</ele>
        <time>2011-04-24T09:52:12Z</time>
      </trkpt>
      <trkpt lat="47.2706" lon="-2.46262">
        <ele>59</ele>
        <time>2011-04-24T09:52:13Z</time>
      </trkpt>
      <trkpt lat="47.27061" lon="-2.46269">
        <ele>60</ele>
        <time>2011-04-24T09:52:14Z</time>
      </trkpt>
      <trkpt lat="47.27063" lon="-2.46276">
        <ele>59</ele>
        <time>2011-04-24T09:52:15Z</time>
      </trkpt>
      <trkpt lat="47.27066" lon="-2.46282">
        <ele>59</ele>
        <time>2011-04-24T09:52:16Z</time>
      </trkpt>
      <trkpt lat="47.27067" lon="-2.46289">
        <ele>59</ele>
        <time>2011-04-24T09:52:17Z</time>
      </trkpt>
      <trkpt lat="47.27069" lon="-2.46296">
        <ele>59</ele>
        <time>2011-04-24T09:52:18Z</time>
      </trkpt>
      <trkpt lat="47.27071" lon="-2.46303">
        <ele>59</ele>
        <time>2011-04-24T09:52:19Z</time>
      </trkpt>
      <trkpt lat="47.27073" lon="-2.4631">
        <ele>59</ele>
        <time>2011-04-24T09:52:20Z</time>
      </trkpt>
      <trkpt lat="47.27076" lon="-2.46317">
        <ele>59</ele>
        <time>2011-04-24T09:52:21Z</time>
      </trkpt>
      <trkpt lat="47.2708" lon="-2.46331">
        <ele>59</ele>
        <time>2011-04-24T09:52:23Z</time>
      </trkpt>
      <trkpt lat="47.27082" lon="-2.46339">
        <ele>58</ele>
        <time>2011-04-24T09:52:24Z</time>
      </trkpt>
      <trkpt lat="47.27084" lon="-2.46346">
        <ele>58</ele>
        <time>2011-04-24T09:52:25Z</time>
      </trkpt>
      <trkpt lat="47.27086" lon="-2.46353">
        <ele>58</ele>
        <time>2011-04-24T09:52:26Z</time>
      </trkpt>
      <trkpt lat="47.27088" lon="-2.4636">
        <ele>58</ele>
        <time>2011-04-24T09:52:27Z</time>
      </trkpt>
      <trkpt lat="47.2709" lon="-2.46367">
        <ele>58</ele>
        <time>2011-04-24T09:52:28Z</time>
      </trkpt>
      <trkpt lat="47.27092" lon="-2.46374">
        <ele>58</ele>
        <time>2011-04-24T09:52:29Z</time>
      </trkpt>
      <trkpt lat="47.27094" lon="-2.46382">
        <ele>58</ele>
        <time>2011-04-24T09:52:30Z</time>
      </trkpt>
      <trkpt lat="47.27095" lon="-2.46388">
        <ele>59</ele>
        <time>2011-04-24T09:52:31Z</time>
      </trkpt>
      <trkpt lat="47.27096" lon="-2.46395">
        <ele>59</ele>
        <time>2011-04-24T09:52:32Z</time>
      </trkpt>
      <trkpt lat="47.27099" lon="-2.46407">
        <ele>61</ele>
        <time>2011-04-24T09:52:34Z</time>
      </trkpt>
      <trkpt lat="47.271" lon="-2.46414">
        <ele>61</ele>
        <time>2011-04-24T09:52:35Z</time>
      </trkpt>
      <trkpt lat="47.27102" lon="-2.4642">
        <ele>61</ele>
        <time>2011-04-24T09:52:36Z</time>
      </trkpt>
      <trkpt lat="47.27105" lon="-2.46432">
        <ele>64</ele>
        <time>2011-04-24T09:52:38Z</time>
      </trkpt>
      <trkpt lat="47.27105" lon="-2.4644">
        <ele>63</ele>
        <time>2011-04-24T09:52:39Z</time>
      </trkpt>
      <trkpt lat="47.27106" lon="-2.46447">
        <ele>63</ele>
        <time>2011-04-24T09:52:40Z</time>
      </trkpt>
      <trkpt lat="47.27107" lon="-2.46454">
        <ele>63</ele>
        <time>2011-04-24T09:52:41Z</time>
      </trkpt>
      <trkpt lat="47.27108" lon="-2.46461">
        <ele>63</ele>
        <time>2011-04-24T09:52:42Z</time>
      </trkpt>
      <trkpt lat="47.27108" lon="-2.46468">
        <ele>63</ele>
        <time>2011-04-24T09:52:43Z</time>
      </trkpt>
      <trkpt lat="47.27109" lon="-2.46475">
        <ele>63</ele>
        <time>2011-04-24T09:52:44Z</time>
      </trkpt>
      <trkpt lat="47.27109" lon="-2.46483">
        <ele>62</ele>
        <time>2011-04-24T09:52:45Z</time>
      </trkpt>
      <trkpt lat="47.27111" lon="-2.46496">
        <ele>62</ele>
        <time>2011-04-24T09:52:47Z</time>
      </trkpt>
      <trkpt lat="47.27111" lon="-2.46504">
        <ele>62</ele>
        <time>2011-04-24T09:52:48Z</time>
      </trkpt>
      <trkpt lat="47.27114" lon="-2.46515">
        <ele>62</ele>
        <time>2011-04-24T09:52:49Z</time>
      </trkpt>
      <trkpt lat="47.27113" lon="-2.46522">
        <ele>63</ele>
        <time>2011-04-24T09:52:50Z</time>
      </trkpt>
      <trkpt lat="47.27113" lon="-2.46531">
        <ele>62</ele>
        <time>2011-04-24T09:52:52Z</time>
      </trkpt>
      <trkpt lat="47.27114" lon="-2.46543">
        <ele>61</ele>
        <time>2011-04-24T09:52:54Z</time>
      </trkpt>
      <trkpt lat="47.27116" lon="-2.46554">
        <ele>61</ele>
        <time>2011-04-24T09:52:56Z</time>
      </trkpt>
      <trkpt lat="47.27116" lon="-2.46566">
        <ele>60</ele>
        <time>2011-04-24T09:52:58Z</time>
      </trkpt>
      <trkpt lat="47.27118" lon="-2.46579">
        <ele>59</ele>
        <time>2011-04-24T09:53:00Z</time>
      </trkpt>
      <trkpt lat="47.27117" lon="-2.4659">
        <ele>59</ele>
        <time>2011-04-24T09:53:02Z</time>
      </trkpt>
      <trkpt lat="47.27117" lon="-2.46602">
        <ele>60</ele>
        <time>2011-04-24T09:53:04Z</time>
      </trkpt>
      <trkpt lat="47.27117" lon="-2.46613">
        <ele>61</ele>
        <time>2011-04-24T09:53:06Z</time>
      </trkpt>
      <trkpt lat="47.27117" lon="-2.46626">
        <ele>61</ele>
        <time>2011-04-24T09:53:08Z</time>
      </trkpt>
      <trkpt lat="47.27118" lon="-2.46637">
        <ele>61</ele>
        <time>2011-04-24T09:53:10Z</time>
      </trkpt>
      <trkpt lat="47.27118" lon="-2.46649">
        <ele>61</ele>
        <time>2011-04-24T09:53:12Z</time>
      </trkpt>
      <trkpt lat="47.27118" lon="-2.46661">
        <ele>62</ele>
        <time>2011-04-24T09:53:14Z</time>
      </trkpt>
      <trkpt lat="47.27119" lon="-2.46673">
        <ele>61</ele>
        <time>2011-04-24T09:53:16Z</time>
      </trkpt>
      <trkpt lat="47.2712" lon="-2.46685">
        <ele>61</ele>
        <time>2011-04-24T09:53:18Z</time>
      </trkpt>
      <trkpt lat="47.2712" lon="-2.46697">
        <ele>61</ele>
        <time>2011-04-24T09:53:20Z</time>
      </trkpt>
      <trkpt lat="47.27121" lon="-2.46708">
        <ele>62</ele>
        <time>2011-04-24T09:53:22Z</time>
      </trkpt>
      <trkpt lat="47.27121" lon="-2.46721">
        <ele>63</ele>
        <time>2011-04-24T09:53:24Z</time>
      </trkpt>
      <trkpt lat="47.27122" lon="-2.46733">
        <ele>62</ele>
        <time>2011-04-24T09:53:26Z</time>
      </trkpt>
      <trkpt lat="47.27123" lon="-2.46745">
        <ele>63</ele>
        <time>2011-04-24T09:53:28Z</time>
      </trkpt>
      <trkpt lat="47.27123" lon="-2.46757">
        <ele>62</ele>
        <time>2011-04-24T09:53:30Z</time>
      </trkpt>
      <trkpt lat="47.27123" lon="-2.4677">
        <ele>62</ele>
        <time>2011-04-24T09:53:32Z</time>
      </trkpt>
      <trkpt lat="47.27123" lon="-2.46781">
        <ele>62</ele>
        <time>2011-04-24T09:53:34Z</time>
      </trkpt>
      <trkpt lat="47.27123" lon="-2.46793">
        <ele>62</ele>
        <time>2011-04-24T09:53:36Z</time>
      </trkpt>
      <trkpt lat="47.27122" lon="-2.46804">
        <ele>62</ele>
        <time>2011-04-24T09:53:38Z</time>
      </trkpt>
      <trkpt lat="47.27122" lon="-2.46816">
        <ele>62</ele>
        <time>2011-04-24T09:53:40Z</time>
      </trkpt>
      <trkpt lat="47.27122" lon="-2.46827">
        <ele>62</ele>
        <time>2011-04-24T09:53:42Z</time>
      </trkpt>
      <trkpt lat="47.27121" lon="-2.46838">
        <ele>62</ele>
        <time>2011-04-24T09:53:44Z</time>
      </trkpt>
      <trkpt lat="47.2712" lon="-2.46848">
        <ele>63</ele>
        <time>2011-04-24T09:53:46Z</time>
      </trkpt>
      <trkpt lat="47.2712" lon="-2.46857">
        <ele>62</ele>
        <time>2011-04-24T09:53:48Z</time>
      </trkpt>
      <trkpt lat="47.27119" lon="-2.46865">
        <ele>63</ele>
        <time>2011-04-24T09:53:50Z</time>
      </trkpt>
      <trkpt lat="47.27118" lon="-2.46872">
        <ele>63</ele>
        <time>2011-04-24T09:53:52Z</time>
      </trkpt>
      <trkpt lat="47.27118" lon="-2.46879">
        <ele>63</ele>
        <time>2011-04-24T09:53:54Z</time>
      </trkpt>
      <trkpt lat="47.27118" lon="-2.46886">
        <ele>63</ele>
        <time>2011-04-24T09:53:56Z</time>
      </trkpt>
      <trkpt lat="47.27116" lon="-2.46894">
        <ele>63</ele>
        <time>2011-04-24T09:53:58Z</time>
      </trkpt>
      <trkpt lat="47.27116" lon="-2.46901">
        <ele>63</ele>
        <time>2011-04-24T09:54:00Z</time>
      </trkpt>
      <trkpt lat="47.27114" lon="-2.46909">
        <ele>64</ele>
        <time>2011-04-24T09:54:02Z</time>
      </trkpt>
      <trkpt lat="47.27113" lon="-2.46917">
        <ele>64</ele>
        <time>2011-04-24T09:54:04Z</time>
      </trkpt>
      <trkpt lat="47.27112" lon="-2.46926">
        <ele>63</ele>
        <time>2011-04-24T09:54:06Z</time>
      </trkpt>
      <trkpt lat="47.27111" lon="-2.46935">
        <ele>64</ele>
        <time>2011-04-24T09:54:08Z</time>
      </trkpt>
      <trkpt lat="47.27111" lon="-2.46943">
        <ele>63</ele>
        <time>2011-04-24T09:54:10Z</time>
      </trkpt>
      <trkpt lat="47.2711" lon="-2.46954">
        <ele>63</ele>
        <time>2011-04-24T09:54:12Z</time>
      </trkpt>
      <trkpt lat="47.27109" lon="-2.46964">
        <ele>64</ele>
        <time>2011-04-24T09:54:14Z</time>
      </trkpt>
      <trkpt lat="47.27109" lon="-2.46975">
        <ele>64</ele>
        <time>2011-04-24T09:54:16Z</time>
      </trkpt>
      <trkpt lat="47.27109" lon="-2.46986">
        <ele>65</ele>
        <time>2011-04-24T09:54:18Z</time>
      </trkpt>
      <trkpt lat="47.27108" lon="-2.46998">
        <ele>64</ele>
        <time>2011-04-24T09:54:20Z</time>
      </trkpt>
      <trkpt lat="47.27109" lon="-2.47011">
        <ele>65</ele>
        <time>2011-04-24T09:54:22Z</time>
      </trkpt>
      <trkpt lat="47.27108" lon="-2.47024">
        <ele>65</ele>
        <time>2011-04-24T09:54:24Z</time>
      </trkpt>
      <trkpt lat="47.2711" lon="-2.47037">
        <ele>65</ele>
        <time>2011-04-24T09:54:26Z</time>
      </trkpt>
      <trkpt lat="47.27111" lon="-2.4705">
        <ele>65</ele>
        <time>2011-04-24T09:54:28Z</time>
      </trkpt>
      <trkpt lat="47.27111" lon="-2.47062">
        <ele>65</ele>
        <time>2011-04-24T09:54:30Z</time>
      </trkpt>
      <trkpt lat="47.27112" lon="-2.47074">
        <ele>65</ele>
        <time>2011-04-24T09:54:32Z</time>
      </trkpt>
      <trkpt lat="47.27113" lon="-2.47087">
        <ele>65</ele>
        <time>2011-04-24T09:54:34Z</time>
      </trkpt>
      <trkpt lat="47.27114" lon="-2.47097">
        <ele>66</ele>
        <time>2011-04-24T09:54:36Z</time>
      </trkpt>
      <trkpt lat="47.27113" lon="-2.47107">
        <ele>67</ele>
        <time>2011-04-24T09:54:38Z</time>
      </trkpt>
      <trkpt lat="47.27116" lon="-2.47123">
        <ele>66</ele>
        <time>2011-04-24T09:54:40Z</time>
      </trkpt>
      <trkpt lat="47.27116" lon="-2.4713">
        <ele>66</ele>
        <time>2011-04-24T09:54:41Z</time>
      </trkpt>
      <trkpt lat="47.27118" lon="-2.47144">
        <ele>66</ele>
        <time>2011-04-24T09:54:43Z</time>
      </trkpt>
      <trkpt lat="47.27118" lon="-2.4715">
        <ele>66</ele>
        <time>2011-04-24T09:54:44Z</time>
      </trkpt>
      <trkpt lat="47.27119" lon="-2.47163">
        <ele>66</ele>
        <time>2011-04-24T09:54:46Z</time>
      </trkpt>
      <trkpt lat="47.2712" lon="-2.47175">
        <ele>66</ele>
        <time>2011-04-24T09:54:48Z</time>
      </trkpt>
      <trkpt lat="47.27121" lon="-2.47187">
        <ele>66</ele>
        <time>2011-04-24T09:54:50Z</time>
      </trkpt>
      <trkpt lat="47.27122" lon="-2.47199">
        <ele>66</ele>
        <time>2011-04-24T09:54:52Z</time>
      </trkpt>
      <trkpt lat="47.27124" lon="-2.47211">
        <ele>66</ele>
        <time>2011-04-24T09:54:54Z</time>
      </trkpt>
      <trkpt lat="47.27125" lon="-2.47224">
        <ele>65</ele>
        <time>2011-04-24T09:54:56Z</time>
      </trkpt>
      <trkpt lat="47.27125" lon="-2.47236">
        <ele>65</ele>
        <time>2011-04-24T09:54:58Z</time>
      </trkpt>
      <trkpt lat="47.27125" lon="-2.47249">
        <ele>65</ele>
        <time>2011-04-24T09:55:00Z</time>
      </trkpt>
      <trkpt lat="47.27126" lon="-2.47262">
        <ele>66</ele>
        <time>2011-04-24T09:55:02Z</time>
      </trkpt>
      <trkpt lat="47.27127" lon="-2.47274">
        <ele>66</ele>
        <time>2011-04-24T09:55:04Z</time>
      </trkpt>
      <trkpt lat="47.27128" lon="-2.47287">
        <ele>66</ele>
        <time>2011-04-24T09:55:06Z</time>
      </trkpt>
      <trkpt lat="47.27129" lon="-2.47294">
        <ele>66</ele>
        <time>2011-04-24T09:55:07Z</time>
      </trkpt>
      <trkpt lat="47.2713" lon="-2.47307">
        <ele>66</ele>
        <time>2011-04-24T09:55:09Z</time>
      </trkpt>
      <trkpt lat="47.2713" lon="-2.47314">
        <ele>65</ele>
        <time>2011-04-24T09:55:10Z</time>
      </trkpt>
      <trkpt lat="47.27131" lon="-2.4732">
        <ele>65</ele>
        <time>2011-04-24T09:55:11Z</time>
      </trkpt>
      <trkpt lat="47.27132" lon="-2.47328">
        <ele>64</ele>
        <time>2011-04-24T09:55:12Z</time>
      </trkpt>
      <trkpt lat="47.27133" lon="-2.47341">
        <ele>64</ele>
        <time>2011-04-24T09:55:14Z</time>
      </trkpt>
      <trkpt lat="47.27135" lon="-2.47348">
        <ele>64</ele>
        <time>2011-04-24T09:55:15Z</time>
      </trkpt>
      <trkpt lat="47.27136" lon="-2.47356">
        <ele>64</ele>
        <time>2011-04-24T09:55:16Z</time>
      </trkpt>
      <trkpt lat="47.27138" lon="-2.47362">
        <ele>64</ele>
        <time>2011-04-24T09:55:17Z</time>
      </trkpt>
      <trkpt lat="47.27141" lon="-2.4737">
        <ele>64</ele>
        <time>2011-04-24T09:55:18Z</time>
      </trkpt>
      <trkpt lat="47.27143" lon="-2.47377">
        <ele>64</ele>
        <time>2011-04-24T09:55:19Z</time>
      </trkpt>
      <trkpt lat="47.27146" lon="-2.47384">
        <ele>64</ele>
        <time>2011-04-24T09:55:20Z</time>
      </trkpt>
      <trkpt lat="47.27148" lon="-2.47391">
        <ele>64</ele>
        <time>2011-04-24T09:55:21Z</time>
      </trkpt>
      <trkpt lat="47.27151" lon="-2.47398">
        <ele>63</ele>
        <time>2011-04-24T09:55:22Z</time>
      </trkpt>
      <trkpt lat="47.27155" lon="-2.47404">
        <ele>62</ele>
        <time>2011-04-24T09:55:23Z</time>
      </trkpt>
      <trkpt lat="47.27158" lon="-2.47411">
        <ele>61</ele>
        <time>2011-04-24T09:55:24Z</time>
      </trkpt>
      <trkpt lat="47.2716" lon="-2.47418">
        <ele>61</ele>
        <time>2011-04-24T09:55:25Z</time>
      </trkpt>
      <trkpt lat="47.27163" lon="-2.47426">
        <ele>61</ele>
        <time>2011-04-24T09:55:26Z</time>
      </trkpt>
      <trkpt lat="47.27166" lon="-2.47432">
        <ele>61</ele>
        <time>2011-04-24T09:55:27Z</time>
      </trkpt>
      <trkpt lat="47.27169" lon="-2.47439">
        <ele>61</ele>
        <time>2011-04-24T09:55:28Z</time>
      </trkpt>
      <trkpt lat="47.27171" lon="-2.47446">
        <ele>61</ele>
        <time>2011-04-24T09:55:29Z</time>
      </trkpt>
      <trkpt lat="47.27174" lon="-2.47452">
        <ele>61</ele>
        <time>2011-04-24T09:55:30Z</time>
      </trkpt>
      <trkpt lat="47.27176" lon="-2.4746">
        <ele>61</ele>
        <time>2011-04-24T09:55:31Z</time>
      </trkpt>
      <trkpt lat="47.27179" lon="-2.47466">
        <ele>61</ele>
        <time>2011-04-24T09:55:32Z</time>
      </trkpt>
      <trkpt lat="47.27182" lon="-2.47473">
        <ele>62</ele>
        <time>2011-04-24T09:55:33Z</time>
      </trkpt>
      <trkpt lat="47.27184" lon="-2.47481">
        <ele>61</ele>
        <time>2011-04-24T09:55:34Z</time>
      </trkpt>
      <trkpt lat="47.27187" lon="-2.47488">
        <ele>61</ele>
        <time>2011-04-24T09:55:35Z</time>
      </trkpt>
      <trkpt lat="47.27189" lon="-2.47495">
        <ele>61</ele>
        <time>2011-04-24T09:55:36Z</time>
      </trkpt>
      <trkpt lat="47.27191" lon="-2.47503">
        <ele>62</ele>
        <time>2011-04-24T09:55:37Z</time>
      </trkpt>
      <trkpt lat="47.27192" lon="-2.4751">
        <ele>62</ele>
        <time>2011-04-24T09:55:38Z</time>
      </trkpt>
      <trkpt lat="47.27194" lon="-2.47517">
        <ele>62</ele>
        <time>2011-04-24T09:55:39Z</time>
      </trkpt>
      <trkpt lat="47.27194" lon="-2.47525">
        <ele>63</ele>
        <time>2011-04-24T09:55:40Z</time>
      </trkpt>
      <trkpt lat="47.27194" lon="-2.47533">
        <ele>64</ele>
        <time>2011-04-24T09:55:41Z</time>
      </trkpt>
      <trkpt lat="47.27196" lon="-2.47541">
        <ele>64</ele>
        <time>2011-04-24T09:55:42Z</time>
      </trkpt>
      <trkpt lat="47.27196" lon="-2.47548">
        <ele>64</ele>
        <time>2011-04-24T09:55:43Z</time>
      </trkpt>
      <trkpt lat="47.27199" lon="-2.47561">
        <ele>64</ele>
        <time>2011-04-24T09:55:45Z</time>
      </trkpt>
      <trkpt lat="47.272" lon="-2.47568">
        <ele>65</ele>
        <time>2011-04-24T09:55:46Z</time>
      </trkpt>
      <trkpt lat="47.27201" lon="-2.47575">
        <ele>65</ele>
        <time>2011-04-24T09:55:47Z</time>
      </trkpt>
      <trkpt lat="47.27202" lon="-2.47583">
        <ele>65</ele>
        <time>2011-04-24T09:55:48Z</time>
      </trkpt>
      <trkpt lat="47.27202" lon="-2.4759">
        <ele>65</ele>
        <time>2011-04-24T09:55:49Z</time>
      </trkpt>
      <trkpt lat="47.27202" lon="-2.47598">
        <ele>64</ele>
        <time>2011-04-24T09:55:50Z</time>
      </trkpt>
      <trkpt lat="47.27202" lon="-2.47605">
        <ele>64</ele>
        <time>2011-04-24T09:55:51Z</time>
      </trkpt>
      <trkpt lat="47.27202" lon="-2.47613">
        <ele>65</ele>
        <time>2011-04-24T09:55:52Z</time>
      </trkpt>
      <trkpt lat="47.27201" lon="-2.47619">
        <ele>66</ele>
        <time>2011-04-24T09:55:53Z</time>
      </trkpt>
      <trkpt lat="47.27203" lon="-2.47626">
        <ele>64</ele>
        <time>2011-04-24T09:55:54Z</time>
      </trkpt>
      <trkpt lat="47.27204" lon="-2.47633">
        <ele>65</ele>
        <time>2011-04-24T09:55:55Z</time>
      </trkpt>
      <trkpt lat="47.27205" lon="-2.4764">
        <ele>64</ele>
        <time>2011-04-24T09:55:56Z</time>
      </trkpt>
      <trkpt lat="47.27206" lon="-2.47647">
        <ele>64</ele>
        <time>2011-04-24T09:55:57Z</time>
      </trkpt>
      <trkpt lat="47.27207" lon="-2.47655">
        <ele>64</ele>
        <time>2011-04-24T09:55:58Z</time>
      </trkpt>
      <trkpt lat="47.27207" lon="-2.47662">
        <ele>64</ele>
        <time>2011-04-24T09:55:59Z</time>
      </trkpt>
      <trkpt lat="47.27208" lon="-2.47669">
        <ele>64</ele>
        <time>2011-04-24T09:56:00Z</time>
      </trkpt>
      <trkpt lat="47.27209" lon="-2.47677">
        <ele>65</ele>
        <time>2011-04-24T09:56:01Z</time>
      </trkpt>
      <trkpt lat="47.27211" lon="-2.47684">
        <ele>67</ele>
        <time>2011-04-24T09:56:02Z</time>
      </trkpt>
      <trkpt lat="47.27212" lon="-2.47691">
        <ele>67</ele>
        <time>2011-04-24T09:56:03Z</time>
      </trkpt>
      <trkpt lat="47.27213" lon="-2.47698">
        <ele>67</ele>
        <time>2011-04-24T09:56:04Z</time>
      </trkpt>
      <trkpt lat="47.27215" lon="-2.47705">
        <ele>67</ele>
        <time>2011-04-24T09:56:05Z</time>
      </trkpt>
      <trkpt lat="47.27216" lon="-2.47713">
        <ele>68</ele>
        <time>2011-04-24T09:56:06Z</time>
      </trkpt>
      <trkpt lat="47.27218" lon="-2.47721">
        <ele>68</ele>
        <time>2011-04-24T09:56:07Z</time>
      </trkpt>
      <trkpt lat="47.27221" lon="-2.4773">
        <ele>68</ele>
        <time>2011-04-24T09:56:09Z</time>
      </trkpt>
      <trkpt lat="47.27223" lon="-2.47737">
        <ele>67</ele>
        <time>2011-04-24T09:56:10Z</time>
      </trkpt>
      <trkpt lat="47.27225" lon="-2.47743">
        <ele>67</ele>
        <time>2011-04-24T09:56:11Z</time>
      </trkpt>
      <trkpt lat="47.27226" lon="-2.47755">
        <ele>67</ele>
        <time>2011-04-24T09:56:13Z</time>
      </trkpt>
      <trkpt lat="47.27233" lon="-2.47754">
        <ele>67</ele>
        <time>2011-04-24T09:56:14Z</time>
      </trkpt>
      <trkpt lat="47.27235" lon="-2.47762">
        <ele>67</ele>
        <time>2011-04-24T09:56:16Z</time>
      </trkpt>
      <trkpt lat="47.27239" lon="-2.47772">
        <ele>67</ele>
        <time>2011-04-24T09:56:18Z</time>
      </trkpt>
      <trkpt lat="47.27245" lon="-2.47782">
        <ele>67</ele>
        <time>2011-04-24T09:56:20Z</time>
      </trkpt>
      <trkpt lat="47.27251" lon="-2.47792">
        <ele>68</ele>
        <time>2011-04-24T09:56:22Z</time>
      </trkpt>
      <trkpt lat="47.27254" lon="-2.47798">
        <ele>67</ele>
        <time>2011-04-24T09:56:23Z</time>
      </trkpt>
      <trkpt lat="47.27258" lon="-2.47804">
        <ele>67</ele>
        <time>2011-04-24T09:56:24Z</time>
      </trkpt>
      <trkpt lat="47.27262" lon="-2.47812">
        <ele>67</ele>
        <time>2011-04-24T09:56:25Z</time>
      </trkpt>
      <trkpt lat="47.27264" lon="-2.47818">
        <ele>67</ele>
        <time>2011-04-24T09:56:26Z</time>
      </trkpt>
      <trkpt lat="47.27265" lon="-2.47827">
        <ele>67</ele>
        <time>2011-04-24T09:56:27Z</time>
      </trkpt>
      <trkpt lat="47.27276" lon="-2.47837">
        <ele>67</ele>
        <time>2011-04-24T09:56:29Z</time>
      </trkpt>
      <trkpt lat="47.27282" lon="-2.47842">
        <ele>66</ele>
        <time>2011-04-24T09:56:31Z</time>
      </trkpt>
      <trkpt lat="47.27286" lon="-2.47846">
        <ele>65</ele>
        <time>2011-04-24T09:56:32Z</time>
      </trkpt>
      <trkpt lat="47.2729" lon="-2.4785">
        <ele>64</ele>
        <time>2011-04-24T09:56:33Z</time>
      </trkpt>
      <trkpt lat="47.27295" lon="-2.47854">
        <ele>63</ele>
        <time>2011-04-24T09:56:34Z</time>
      </trkpt>
      <trkpt lat="47.27298" lon="-2.47858">
        <ele>63</ele>
        <time>2011-04-24T09:56:35Z</time>
      </trkpt>
      <trkpt lat="47.27306" lon="-2.47862">
        <ele>62</ele>
        <time>2011-04-24T09:56:37Z</time>
      </trkpt>
      <trkpt lat="47.27314" lon="-2.47868">
        <ele>62</ele>
        <time>2011-04-24T09:56:39Z</time>
      </trkpt>
      <trkpt lat="47.27322" lon="-2.47874">
        <ele>61</ele>
        <time>2011-04-24T09:56:41Z</time>
      </trkpt>
      <trkpt lat="47.27329" lon="-2.4788">
        <ele>61</ele>
        <time>2011-04-24T09:56:43Z</time>
      </trkpt>
      <trkpt lat="47.27333" lon="-2.47883">
        <ele>60</ele>
        <time>2011-04-24T09:56:44Z</time>
      </trkpt>
      <trkpt lat="47.27336" lon="-2.47888">
        <ele>59</ele>
        <time>2011-04-24T09:56:45Z</time>
      </trkpt>
      <trkpt lat="47.27339" lon="-2.47894">
        <ele>58</ele>
        <time>2011-04-24T09:56:46Z</time>
      </trkpt>
      <trkpt lat="47.27347" lon="-2.47898">
        <ele>58</ele>
        <time>2011-04-24T09:56:48Z</time>
      </trkpt>
      <trkpt lat="47.27351" lon="-2.47902">
        <ele>57</ele>
        <time>2011-04-24T09:56:49Z</time>
      </trkpt>
      <trkpt lat="47.27358" lon="-2.47907">
        <ele>57</ele>
        <time>2011-04-24T09:56:51Z</time>
      </trkpt>
      <trkpt lat="47.27363" lon="-2.47911">
        <ele>57</ele>
        <time>2011-04-24T09:56:52Z</time>
      </trkpt>
      <trkpt lat="47.27368" lon="-2.47913">
        <ele>56</ele>
        <time>2011-04-24T09:56:53Z</time>
      </trkpt>
      <trkpt lat="47.27375" lon="-2.4792">
        <ele>53</ele>
        <time>2011-04-24T09:56:55Z</time>
      </trkpt>
      <trkpt lat="47.27384" lon="-2.47925">
        <ele>53</ele>
        <time>2011-04-24T09:56:57Z</time>
      </trkpt>
      <trkpt lat="47.27387" lon="-2.47928">
        <ele>53</ele>
        <time>2011-04-24T09:56:58Z</time>
      </trkpt>
      <trkpt lat="47.27392" lon="-2.4793">
        <ele>53</ele>
        <time>2011-04-24T09:56:59Z</time>
      </trkpt>
      <trkpt lat="47.27399" lon="-2.47937">
        <ele>54</ele>
        <time>2011-04-24T09:57:01Z</time>
      </trkpt>
      <trkpt lat="47.27406" lon="-2.47943">
        <ele>54</ele>
        <time>2011-04-24T09:57:03Z</time>
      </trkpt>
      <trkpt lat="47.2741" lon="-2.47947">
        <ele>55</ele>
        <time>2011-04-24T09:57:04Z</time>
      </trkpt>
      <trkpt lat="47.27416" lon="-2.47955">
        <ele>55</ele>
        <time>2011-04-24T09:57:06Z</time>
      </trkpt>
      <trkpt lat="47.2742" lon="-2.47959">
        <ele>55</ele>
        <time>2011-04-24T09:57:07Z</time>
      </trkpt>
      <trkpt lat="47.27426" lon="-2.47968">
        <ele>56</ele>
        <time>2011-04-24T09:57:09Z</time>
      </trkpt>
      <trkpt lat="47.27432" lon="-2.47977">
        <ele>57</ele>
        <time>2011-04-24T09:57:11Z</time>
      </trkpt>
      <trkpt lat="47.27436" lon="-2.47982">
        <ele>57</ele>
        <time>2011-04-24T09:57:12Z</time>
      </trkpt>
      <trkpt lat="47.27441" lon="-2.47991">
        <ele>57</ele>
        <time>2011-04-24T09:57:14Z</time>
      </trkpt>
      <trkpt lat="47.27443" lon="-2.47997">
        <ele>55</ele>
        <time>2011-04-24T09:57:15Z</time>
      </trkpt>
      <trkpt lat="47.27449" lon="-2.48007">
        <ele>57</ele>
        <time>2011-04-24T09:57:17Z</time>
      </trkpt>
      <trkpt lat="47.27452" lon="-2.4801">
        <ele>58</ele>
        <time>2011-04-24T09:57:18Z</time>
      </trkpt>
      <trkpt lat="47.27458" lon="-2.4802">
        <ele>59</ele>
        <time>2011-04-24T09:57:20Z</time>
      </trkpt>
      <trkpt lat="47.27462" lon="-2.48028">
        <ele>60</ele>
        <time>2011-04-24T09:57:22Z</time>
      </trkpt>
      <trkpt lat="47.27465" lon="-2.48033">
        <ele>60</ele>
        <time>2011-04-24T09:57:23Z</time>
      </trkpt>
      <trkpt lat="47.27469" lon="-2.48038">
        <ele>60</ele>
        <time>2011-04-24T09:57:24Z</time>
      </trkpt>
      <trkpt lat="47.2747" lon="-2.48045">
        <ele>64</ele>
        <time>2011-04-24T09:57:26Z</time>
      </trkpt>
      <trkpt lat="47.27473" lon="-2.48055">
        <ele>64</ele>
        <time>2011-04-24T09:57:28Z</time>
      </trkpt>
      <trkpt lat="47.27478" lon="-2.48064">
        <ele>64</ele>
        <time>2011-04-24T09:57:30Z</time>
      </trkpt>
      <trkpt lat="47.27481" lon="-2.48069">
        <ele>64</ele>
        <time>2011-04-24T09:57:31Z</time>
      </trkpt>
      <trkpt lat="47.27485" lon="-2.48078">
        <ele>64</ele>
        <time>2011-04-24T09:57:33Z</time>
      </trkpt>
      <trkpt lat="47.2749" lon="-2.48087">
        <ele>65</ele>
        <time>2011-04-24T09:57:35Z</time>
      </trkpt>
      <trkpt lat="47.27494" lon="-2.48097">
        <ele>65</ele>
        <time>2011-04-24T09:57:37Z</time>
      </trkpt>
      <trkpt lat="47.27497" lon="-2.48103">
        <ele>66</ele>
        <time>2011-04-24T09:57:39Z</time>
      </trkpt>
      <trkpt lat="47.27498" lon="-2.4811">
        <ele>66</ele>
        <time>2011-04-24T09:57:41Z</time>
      </trkpt>
      <trkpt lat="47.27501" lon="-2.48116">
        <ele>66</ele>
        <time>2011-04-24T09:57:48Z</time>
      </trkpt>
      <trkpt lat="47.27501" lon="-2.48116">
        <ele>66</ele>
        <time>2011-04-24T09:57:48Z</time>
      </trkpt>
      <trkpt lat="47.27501" lon="-2.48116">
        <ele>65</ele>
        <time>2011-04-24T09:57:52Z</time>
      </trkpt>
      <trkpt lat="47.27496" lon="-2.48119">
        <ele>64</ele>
        <time>2011-04-24T09:57:59Z</time>
      </trkpt>
      <trkpt lat="47.27491" lon="-2.48119">
        <ele>63</ele>
        <time>2011-04-24T09:58:01Z</time>
      </trkpt>
      <trkpt lat="47.27484" lon="-2.4812">
        <ele>67</ele>
        <time>2011-04-24T09:58:03Z</time>
      </trkpt>
      <trkpt lat="47.27477" lon="-2.48123">
        <ele>69</ele>
        <time>2011-04-24T09:58:05Z</time>
      </trkpt>
      <trkpt lat="47.2747" lon="-2.48125">
        <ele>69</ele>
        <time>2011-04-24T09:58:07Z</time>
      </trkpt>
      <trkpt lat="47.27462" lon="-2.48127">
        <ele>69</ele>
        <time>2011-04-24T09:58:09Z</time>
      </trkpt>
      <trkpt lat="47.27456" lon="-2.48128">
        <ele>70</ele>
        <time>2011-04-24T09:58:11Z</time>
      </trkpt>
      <trkpt lat="47.2745" lon="-2.4813">
        <ele>69</ele>
        <time>2011-04-24T09:58:13Z</time>
      </trkpt>
      <trkpt lat="47.27444" lon="-2.4813">
        <ele>69</ele>
        <time>2011-04-24T09:58:15Z</time>
      </trkpt>
      <trkpt lat="47.27437" lon="-2.48132">
        <ele>69</ele>
        <time>2011-04-24T09:58:17Z</time>
      </trkpt>
      <trkpt lat="47.27431" lon="-2.48133">
        <ele>69</ele>
        <time>2011-04-24T09:58:19Z</time>
      </trkpt>
      <trkpt lat="47.27424" lon="-2.48132">
        <ele>68</ele>
        <time>2011-04-24T09:58:21Z</time>
      </trkpt>
      <trkpt lat="47.27417" lon="-2.48132">
        <ele>67</ele>
        <time>2011-04-24T09:58:23Z</time>
      </trkpt>
      <trkpt lat="47.27413" lon="-2.48137">
        <ele>66</ele>
        <time>2011-04-24T09:58:24Z</time>
      </trkpt>
      <trkpt lat="47.27407" lon="-2.48142">
        <ele>65</ele>
        <time>2011-04-24T09:58:26Z</time>
      </trkpt>
      <trkpt lat="47.27404" lon="-2.48151">
        <ele>64</ele>
        <time>2011-04-24T09:58:29Z</time>
      </trkpt>
      <trkpt lat="47.27404" lon="-2.4816">
        <ele>64</ele>
        <time>2011-04-24T09:59:00Z</time>
      </trkpt>
      <trkpt lat="47.27404" lon="-2.48167">
        <ele>65</ele>
        <time>2011-04-24T09:59:02Z</time>
      </trkpt>
      <trkpt lat="47.27406" lon="-2.48175">
        <ele>65</ele>
        <time>2011-04-24T09:59:04Z</time>
      </trkpt>
      <trkpt lat="47.27406" lon="-2.48183">
        <ele>64</ele>
        <time>2011-04-24T09:59:06Z</time>
      </trkpt>
      <trkpt lat="47.27407" lon="-2.48192">
        <ele>64</ele>
        <time>2011-04-24T09:59:08Z</time>
      </trkpt>
      <trkpt lat="47.27408" lon="-2.48201">
        <ele>65</ele>
        <time>2011-04-24T09:59:10Z</time>
      </trkpt>
      <trkpt lat="47.2741" lon="-2.48209">
        <ele>65</ele>
        <time>2011-04-24T09:59:12Z</time>
      </trkpt>
      <trkpt lat="47.27412" lon="-2.48218">
        <ele>65</ele>
        <time>2011-04-24T09:59:14Z</time>
      </trkpt>
      <trkpt lat="47.27415" lon="-2.48229">
        <ele>65</ele>
        <time>2011-04-24T09:59:16Z</time>
      </trkpt>
      <trkpt lat="47.27418" lon="-2.4824">
        <ele>64</ele>
        <time>2011-04-24T09:59:18Z</time>
      </trkpt>
      <trkpt lat="47.27422" lon="-2.4825">
        <ele>64</ele>
        <time>2011-04-24T09:59:20Z</time>
      </trkpt>
      <trkpt lat="47.2742" lon="-2.48257">
        <ele>65</ele>
        <time>2011-04-24T09:59:21Z</time>
      </trkpt>
      <trkpt lat="47.27421" lon="-2.48267">
        <ele>63</ele>
        <time>2011-04-24T09:59:23Z</time>
      </trkpt>
      <trkpt lat="47.27422" lon="-2.48279">
        <ele>63</ele>
        <time>2011-04-24T09:59:25Z</time>
      </trkpt>
      <trkpt lat="47.27423" lon="-2.48289">
        <ele>63</ele>
        <time>2011-04-24T09:59:27Z</time>
      </trkpt>
      <trkpt lat="47.27424" lon="-2.483">
        <ele>63</ele>
        <time>2011-04-24T09:59:29Z</time>
      </trkpt>
      <trkpt lat="47.27426" lon="-2.48309">
        <ele>63</ele>
        <time>2011-04-24T09:59:31Z</time>
      </trkpt>
      <trkpt lat="47.27427" lon="-2.48319">
        <ele>62</ele>
        <time>2011-04-24T09:59:33Z</time>
      </trkpt>
      <trkpt lat="47.27428" lon="-2.48329">
        <ele>62</ele>
        <time>2011-04-24T09:59:35Z</time>
      </trkpt>
      <trkpt lat="47.27429" lon="-2.4834">
        <ele>64</ele>
        <time>2011-04-24T09:59:37Z</time>
      </trkpt>
      <trkpt lat="47.27431" lon="-2.48348">
        <ele>65</ele>
        <time>2011-04-24T09:59:39Z</time>
      </trkpt>
      <trkpt lat="47.27435" lon="-2.48355">
        <ele>64</ele>
        <time>2011-04-24T09:59:41Z</time>
      </trkpt>
      <trkpt lat="47.27438" lon="-2.48362">
        <ele>63</ele>
        <time>2011-04-24T09:59:43Z</time>
      </trkpt>
      <trkpt lat="47.27441" lon="-2.48373">
        <ele>63</ele>
        <time>2011-04-24T09:59:45Z</time>
      </trkpt>
      <trkpt lat="47.27444" lon="-2.48382">
        <ele>61</ele>
        <time>2011-04-24T09:59:47Z</time>
      </trkpt>
      <trkpt lat="47.27448" lon="-2.48392">
        <ele>60</ele>
        <time>2011-04-24T09:59:49Z</time>
      </trkpt>
      <trkpt lat="47.27451" lon="-2.48402">
        <ele>60</ele>
        <time>2011-04-24T09:59:51Z</time>
      </trkpt>
      <trkpt lat="47.27453" lon="-2.48413">
        <ele>60</ele>
        <time>2011-04-24T09:59:53Z</time>
      </trkpt>
      <trkpt lat="47.27456" lon="-2.48424">
        <ele>60</ele>
        <time>2011-04-24T09:59:55Z</time>
      </trkpt>
      <trkpt lat="47.27459" lon="-2.48432">
        <ele>62</ele>
        <time>2011-04-24T09:59:57Z</time>
      </trkpt>
      <trkpt lat="47.2746" lon="-2.48438">
        <ele>62</ele>
        <time>2011-04-24T09:59:58Z</time>
      </trkpt>
      <trkpt lat="47.27462" lon="-2.48449">
        <ele>63</ele>
        <time>2011-04-24T10:00:00Z</time>
      </trkpt>
      <trkpt lat="47.27464" lon="-2.48457">
        <ele>63</ele>
        <time>2011-04-24T10:00:02Z</time>
      </trkpt>
      <trkpt lat="47.27462" lon="-2.48464">
        <ele>65</ele>
        <time>2011-04-24T10:00:04Z</time>
      </trkpt>
      <trkpt lat="47.27463" lon="-2.48475">
        <ele>64</ele>
        <time>2011-04-24T10:00:06Z</time>
      </trkpt>
      <trkpt lat="47.27463" lon="-2.48486">
        <ele>63</ele>
        <time>2011-04-24T10:00:08Z</time>
      </trkpt>
      <trkpt lat="47.27465" lon="-2.48496">
        <ele>62</ele>
        <time>2011-04-24T10:00:10Z</time>
      </trkpt>
      <trkpt lat="47.27467" lon="-2.48504">
        <ele>63</ele>
        <time>2011-04-24T10:00:12Z</time>
      </trkpt>
      <trkpt lat="47.2747" lon="-2.48512">
        <ele>63</ele>
        <time>2011-04-24T10:00:14Z</time>
      </trkpt>
      <trkpt lat="47.27473" lon="-2.48521">
        <ele>63</ele>
        <time>2011-04-24T10:00:16Z</time>
      </trkpt>
      <trkpt lat="47.27472" lon="-2.48528">
        <ele>61</ele>
        <time>2011-04-24T10:00:18Z</time>
      </trkpt>
      <trkpt lat="47.27474" lon="-2.48537">
        <ele>60</ele>
        <time>2011-04-24T10:00:20Z</time>
      </trkpt>
      <trkpt lat="47.27476" lon="-2.48548">
        <ele>62</ele>
        <time>2011-04-24T10:00:22Z</time>
      </trkpt>
      <trkpt lat="47.27473" lon="-2.48558">
        <ele>62</ele>
        <time>2011-04-24T10:00:24Z</time>
      </trkpt>
      <trkpt lat="47.27471" lon="-2.48567">
        <ele>61</ele>
        <time>2011-04-24T10:00:26Z</time>
      </trkpt>
      <trkpt lat="47.27469" lon="-2.48577">
        <ele>61</ele>
        <time>2011-04-24T10:00:28Z</time>
      </trkpt>
      <trkpt lat="47.27468" lon="-2.48585">
        <ele>61</ele>
        <time>2011-04-24T10:00:30Z</time>
      </trkpt>
      <trkpt lat="47.27468" lon="-2.48594">
        <ele>61</ele>
        <time>2011-04-24T10:00:32Z</time>
      </trkpt>
      <trkpt lat="47.27468" lon="-2.48603">
        <ele>61</ele>
        <time>2011-04-24T10:00:34Z</time>
      </trkpt>
      <trkpt lat="47.27469" lon="-2.48612">
        <ele>62</ele>
        <time>2011-04-24T10:00:36Z</time>
      </trkpt>
      <trkpt lat="47.2747" lon="-2.48621">
        <ele>63</ele>
        <time>2011-04-24T10:00:38Z</time>
      </trkpt>
      <trkpt lat="47.27471" lon="-2.4863">
        <ele>64</ele>
        <time>2011-04-24T10:00:40Z</time>
      </trkpt>
      <trkpt lat="47.27473" lon="-2.48638">
        <ele>64</ele>
        <time>2011-04-24T10:00:42Z</time>
      </trkpt>
      <trkpt lat="47.27475" lon="-2.48645">
        <ele>63</ele>
        <time>2011-04-24T10:00:44Z</time>
      </trkpt>
      <trkpt lat="47.27477" lon="-2.48652">
        <ele>63</ele>
        <time>2011-04-24T10:00:46Z</time>
      </trkpt>
      <trkpt lat="47.27479" lon="-2.48658">
        <ele>63</ele>
        <time>2011-04-24T10:00:48Z</time>
      </trkpt>
      <trkpt lat="47.2748" lon="-2.48667">
        <ele>63</ele>
        <time>2011-04-24T10:00:50Z</time>
      </trkpt>
      <trkpt lat="47.27483" lon="-2.48674">
        <ele>63</ele>
        <time>2011-04-24T10:00:52Z</time>
      </trkpt>
      <trkpt lat="47.27486" lon="-2.48682">
        <ele>63</ele>
        <time>2011-04-24T10:00:54Z</time>
      </trkpt>
      <trkpt lat="47.2749" lon="-2.48686">
        <ele>63</ele>
        <time>2011-04-24T10:00:56Z</time>
      </trkpt>
      <trkpt lat="47.27496" lon="-2.4869">
        <ele>63</ele>
        <time>2011-04-24T10:00:59Z</time>
      </trkpt>
      <trkpt lat="47.27505" lon="-2.48689">
        <ele>65</ele>
        <time>2011-04-24T10:01:01Z</time>
      </trkpt>
      <trkpt lat="47.27511" lon="-2.48691">
        <ele>64</ele>
        <time>2011-04-24T10:01:03Z</time>
      </trkpt>
      <trkpt lat="47.27518" lon="-2.48691">
        <ele>64</ele>
        <time>2011-04-24T10:01:05Z</time>
      </trkpt>
      <trkpt lat="47.27523" lon="-2.48693">
        <ele>64</ele>
        <time>2011-04-24T10:01:07Z</time>
      </trkpt>
      <trkpt lat="47.27527" lon="-2.48698">
        <ele>64</ele>
        <time>2011-04-24T10:01:09Z</time>
      </trkpt>
      <trkpt lat="47.27528" lon="-2.48705">
        <ele>65</ele>
        <time>2011-04-24T10:01:11Z</time>
      </trkpt>
      <trkpt lat="47.27532" lon="-2.48713">
        <ele>64</ele>
        <time>2011-04-24T10:01:13Z</time>
      </trkpt>
      <trkpt lat="47.27536" lon="-2.48721">
        <ele>64</ele>
        <time>2011-04-24T10:01:15Z</time>
      </trkpt>
      <trkpt lat="47.27536" lon="-2.48728">
        <ele>63</ele>
        <time>2011-04-24T10:01:17Z</time>
      </trkpt>
      <trkpt lat="47.27534" lon="-2.48737">
        <ele>61</ele>
        <time>2011-04-24T10:01:19Z</time>
      </trkpt>
      <trkpt lat="47.2753" lon="-2.48744">
        <ele>61</ele>
        <time>2011-04-24T10:01:21Z</time>
      </trkpt>
      <trkpt lat="47.27525" lon="-2.48751">
        <ele>60</ele>
        <time>2011-04-24T10:01:23Z</time>
      </trkpt>
      <trkpt lat="47.2752" lon="-2.48757">
        <ele>60</ele>
        <time>2011-04-24T10:01:25Z</time>
      </trkpt>
      <trkpt lat="47.27516" lon="-2.48763">
        <ele>60</ele>
        <time>2011-04-24T10:01:27Z</time>
      </trkpt>
      <trkpt lat="47.2751" lon="-2.48768">
        <ele>60</ele>
        <time>2011-04-24T10:01:29Z</time>
      </trkpt>
      <trkpt lat="47.27504" lon="-2.48772">
        <ele>60</ele>
        <time>2011-04-24T10:01:31Z</time>
      </trkpt>
      <trkpt lat="47.27497" lon="-2.48774">
        <ele>60</ele>
        <time>2011-04-24T10:01:33Z</time>
      </trkpt>
      <trkpt lat="47.27491" lon="-2.48776">
        <ele>60</ele>
        <time>2011-04-24T10:01:35Z</time>
      </trkpt>
      <trkpt lat="47.27486" lon="-2.48782">
        <ele>59</ele>
        <time>2011-04-24T10:01:37Z</time>
      </trkpt>
      <trkpt lat="47.27484" lon="-2.48789">
        <ele>59</ele>
        <time>2011-04-24T10:01:39Z</time>
      </trkpt>
      <trkpt lat="47.27482" lon="-2.48796">
        <ele>59</ele>
        <time>2011-04-24T10:01:41Z</time>
      </trkpt>
      <trkpt lat="47.27484" lon="-2.48807">
        <ele>61</ele>
        <time>2011-04-24T10:01:43Z</time>
      </trkpt>
      <trkpt lat="47.27484" lon="-2.48817">
        <ele>61</ele>
        <time>2011-04-24T10:01:45Z</time>
      </trkpt>
      <trkpt lat="47.27484" lon="-2.48828">
        <ele>62</ele>
        <time>2011-04-24T10:01:47Z</time>
      </trkpt>
      <trkpt lat="47.27485" lon="-2.48838">
        <ele>62</ele>
        <time>2011-04-24T10:01:49Z</time>
      </trkpt>
      <trkpt lat="47.27486" lon="-2.48846">
        <ele>63</ele>
        <time>2011-04-24T10:01:51Z</time>
      </trkpt>
      <trkpt lat="47.27486" lon="-2.48855">
        <ele>63</ele>
        <time>2011-04-24T10:01:53Z</time>
      </trkpt>
      <trkpt lat="47.27486" lon="-2.48863">
        <ele>63</ele>
        <time>2011-04-24T10:01:55Z</time>
      </trkpt>
      <trkpt lat="47.27488" lon="-2.48872">
        <ele>63</ele>
        <time>2011-04-24T10:01:57Z</time>
      </trkpt>
      <trkpt lat="47.27488" lon="-2.4888">
        <ele>62</ele>
        <time>2011-04-24T10:01:59Z</time>
      </trkpt>
      <trkpt lat="47.27488" lon="-2.48888">
        <ele>62</ele>
        <time>2011-04-24T10:02:01Z</time>
      </trkpt>
      <trkpt lat="47.2749" lon="-2.48897">
        <ele>62</ele>
        <time>2011-04-24T10:02:04Z</time>
      </trkpt>
      <trkpt lat="47.27496" lon="-2.48896">
        <ele>59</ele>
        <time>2011-04-24T10:02:06Z</time>
      </trkpt>
      <trkpt lat="47.27502" lon="-2.48899">
        <ele>58</ele>
        <time>2011-04-24T10:02:10Z</time>
      </trkpt>
      <trkpt lat="47.27506" lon="-2.48902">
        <ele>59</ele>
        <time>2011-04-24T10:02:12Z</time>
      </trkpt>
      <trkpt lat="47.27511" lon="-2.48905">
        <ele>59</ele>
        <time>2011-04-24T10:02:14Z</time>
      </trkpt>
      <trkpt lat="47.27515" lon="-2.4891">
        <ele>58</ele>
        <time>2011-04-24T10:02:16Z</time>
      </trkpt>
      <trkpt lat="47.27518" lon="-2.48918">
        <ele>58</ele>
        <time>2011-04-24T10:02:18Z</time>
      </trkpt>
      <trkpt lat="47.27523" lon="-2.48926">
        <ele>58</ele>
        <time>2011-04-24T10:02:20Z</time>
      </trkpt>
      <trkpt lat="47.27524" lon="-2.48936">
        <ele>59</ele>
        <time>2011-04-24T10:02:22Z</time>
      </trkpt>
      <trkpt lat="47.27525" lon="-2.48946">
        <ele>59</ele>
        <time>2011-04-24T10:02:24Z</time>
      </trkpt>
      <trkpt lat="47.27526" lon="-2.48955">
        <ele>60</ele>
        <time>2011-04-24T10:02:26Z</time>
      </trkpt>
      <trkpt lat="47.27527" lon="-2.48965">
        <ele>60</ele>
        <time>2011-04-24T10:02:28Z</time>
      </trkpt>
      <trkpt lat="47.27528" lon="-2.48974">
        <ele>60</ele>
        <time>2011-04-24T10:02:30Z</time>
      </trkpt>
      <trkpt lat="47.27528" lon="-2.48985">
        <ele>60</ele>
        <time>2011-04-24T10:02:32Z</time>
      </trkpt>
      <trkpt lat="47.27529" lon="-2.48994">
        <ele>61</ele>
        <time>2011-04-24T10:02:34Z</time>
      </trkpt>
      <trkpt lat="47.2753" lon="-2.49003">
        <ele>62</ele>
        <time>2011-04-24T10:02:36Z</time>
      </trkpt>
      <trkpt lat="47.27532" lon="-2.49011">
        <ele>63</ele>
        <time>2011-04-24T10:02:39Z</time>
      </trkpt>
      <trkpt lat="47.27533" lon="-2.49018">
        <ele>63</ele>
        <time>2011-04-24T10:02:42Z</time>
      </trkpt>
      <trkpt lat="47.27535" lon="-2.49027">
        <ele>64</ele>
        <time>2011-04-24T10:02:45Z</time>
      </trkpt>
      <trkpt lat="47.27536" lon="-2.49034">
        <ele>63</ele>
        <time>2011-04-24T10:02:47Z</time>
      </trkpt>
      <trkpt lat="47.27537" lon="-2.49041">
        <ele>63</ele>
        <time>2011-04-24T10:02:49Z</time>
      </trkpt>
      <trkpt lat="47.27537" lon="-2.4905">
        <ele>62</ele>
        <time>2011-04-24T10:02:52Z</time>
      </trkpt>
      <trkpt lat="47.27538" lon="-2.49056">
        <ele>62</ele>
        <time>2011-04-24T10:02:54Z</time>
      </trkpt>
      <trkpt lat="47.27539" lon="-2.49065">
        <ele>62</ele>
        <time>2011-04-24T10:02:57Z</time>
      </trkpt>
      <trkpt lat="47.2754" lon="-2.49073">
        <ele>62</ele>
        <time>2011-04-24T10:02:59Z</time>
      </trkpt>
      <trkpt lat="47.27541" lon="-2.49081">
        <ele>61</ele>
        <time>2011-04-24T10:03:01Z</time>
      </trkpt>
      <trkpt lat="47.27542" lon="-2.49092">
        <ele>60</ele>
        <time>2011-04-24T10:03:03Z</time>
      </trkpt>
      <trkpt lat="47.27544" lon="-2.49102">
        <ele>60</ele>
        <time>2011-04-24T10:03:05Z</time>
      </trkpt>
      <trkpt lat="47.27546" lon="-2.4911">
        <ele>60</ele>
        <time>2011-04-24T10:03:07Z</time>
      </trkpt>
      <trkpt lat="47.27547" lon="-2.49116">
        <ele>61</ele>
        <time>2011-04-24T10:03:10Z</time>
      </trkpt>
      <trkpt lat="47.27548" lon="-2.49124">
        <ele>61</ele>
        <time>2011-04-24T10:03:14Z</time>
      </trkpt>
      <trkpt lat="47.2755" lon="-2.4913">
        <ele>61</ele>
        <time>2011-04-24T10:03:17Z</time>
      </trkpt>
      <trkpt lat="47.27552" lon="-2.49138">
        <ele>61</ele>
        <time>2011-04-24T10:03:20Z</time>
      </trkpt>
      <trkpt lat="47.27552" lon="-2.49145">
        <ele>60</ele>
        <time>2011-04-24T10:03:23Z</time>
      </trkpt>
      <trkpt lat="47.27553" lon="-2.49153">
        <ele>60</ele>
        <time>2011-04-24T10:03:26Z</time>
      </trkpt>
      <trkpt lat="47.27554" lon="-2.4916">
        <ele>59</ele>
        <time>2011-04-24T10:03:28Z</time>
      </trkpt>
      <trkpt lat="47.27555" lon="-2.49167">
        <ele>59</ele>
        <time>2011-04-24T10:03:31Z</time>
      </trkpt>
      <trkpt lat="47.27554" lon="-2.49176">
        <ele>56</ele>
        <time>2011-04-24T10:03:37Z</time>
      </trkpt>
      <trkpt lat="47.27553" lon="-2.49182">
        <ele>55</ele>
        <time>2011-04-24T10:03:41Z</time>
      </trkpt>
      <trkpt lat="47.27552" lon="-2.4919">
        <ele>55</ele>
        <time>2011-04-24T10:03:48Z</time>
      </trkpt>
      <trkpt lat="47.27555" lon="-2.49195">
        <ele>56</ele>
        <time>2011-04-24T10:03:55Z</time>
      </trkpt>
      <trkpt lat="47.27557" lon="-2.49201">
        <ele>56</ele>
        <time>2011-04-24T10:04:02Z</time>
      </trkpt>
      <trkpt lat="47.2756" lon="-2.49207">
        <ele>55</ele>
        <time>2011-04-24T10:04:06Z</time>
      </trkpt>
      <trkpt lat="47.27563" lon="-2.49212">
        <ele>56</ele>
        <time>2011-04-24T10:04:14Z</time>
      </trkpt>
      <trkpt lat="47.27564" lon="-2.4922">
        <ele>55</ele>
        <time>2011-04-24T10:04:17Z</time>
      </trkpt>
      <trkpt lat="47.27568" lon="-2.49225">
        <ele>55</ele>
        <time>2011-04-24T10:04:22Z</time>
      </trkpt>
      <trkpt lat="47.27571" lon="-2.49232">
        <ele>56</ele>
        <time>2011-04-24T10:04:28Z</time>
      </trkpt>
      <trkpt lat="47.27576" lon="-2.49235">
        <ele>57</ele>
        <time>2011-04-24T10:04:52Z</time>
      </trkpt>
      <trkpt lat="47.27584" lon="-2.49237">
        <ele>58</ele>
        <time>2011-04-24T10:04:57Z</time>
      </trkpt>
      <trkpt lat="47.27591" lon="-2.49239">
        <ele>59</ele>
        <time>2011-04-24T10:04:59Z</time>
      </trkpt>
      <trkpt lat="47.27597" lon="-2.49241">
        <ele>59</ele>
        <time>2011-04-24T10:05:01Z</time>
      </trkpt>
      <trkpt lat="47.27603" lon="-2.49244">
        <ele>58</ele>
        <time>2011-04-24T10:05:03Z</time>
      </trkpt>
      <trkpt lat="47.2761" lon="-2.49244">
        <ele>58</ele>
        <time>2011-04-24T10:05:05Z</time>
      </trkpt>
      <trkpt lat="47.27616" lon="-2.49245">
        <ele>58</ele>
        <time>2011-04-24T10:05:07Z</time>
      </trkpt>
      <trkpt lat="47.27624" lon="-2.49246">
        <ele>58</ele>
        <time>2011-04-24T10:05:09Z</time>
      </trkpt>
      <trkpt lat="47.2763" lon="-2.49246">
        <ele>57</ele>
        <time>2011-04-24T10:05:11Z</time>
      </trkpt>
      <trkpt lat="47.27637" lon="-2.49246">
        <ele>58</ele>
        <time>2011-04-24T10:05:13Z</time>
      </trkpt>
      <trkpt lat="47.27643" lon="-2.49246">
        <ele>58</ele>
        <time>2011-04-24T10:05:15Z</time>
      </trkpt>
      <trkpt lat="47.27649" lon="-2.49247">
        <ele>58</ele>
        <time>2011-04-24T10:05:17Z</time>
      </trkpt>
      <trkpt lat="47.27655" lon="-2.49245">
        <ele>58</ele>
        <time>2011-04-24T10:05:19Z</time>
      </trkpt>
      <trkpt lat="47.2766" lon="-2.49243">
        <ele>57</ele>
        <time>2011-04-24T10:05:21Z</time>
      </trkpt>
      <trkpt lat="47.27666" lon="-2.4924">
        <ele>57</ele>
        <time>2011-04-24T10:05:23Z</time>
      </trkpt>
      <trkpt lat="47.27673" lon="-2.49242">
        <ele>57</ele>
        <time>2011-04-24T10:05:25Z</time>
      </trkpt>
      <trkpt lat="47.2768" lon="-2.49244">
        <ele>57</ele>
        <time>2011-04-24T10:05:27Z</time>
      </trkpt>
      <trkpt lat="47.27686" lon="-2.49246">
        <ele>57</ele>
        <time>2011-04-24T10:05:29Z</time>
      </trkpt>
      <trkpt lat="47.27692" lon="-2.49247">
        <ele>57</ele>
        <time>2011-04-24T10:05:31Z</time>
      </trkpt>
      <trkpt lat="47.27698" lon="-2.49248">
        <ele>57</ele>
        <time>2011-04-24T10:05:33Z</time>
      </trkpt>
      <trkpt lat="47.27704" lon="-2.4925">
        <ele>56</ele>
        <time>2011-04-24T10:05:35Z</time>
      </trkpt>
      <trkpt lat="47.2771" lon="-2.49251">
        <ele>57</ele>
        <time>2011-04-24T10:05:37Z</time>
      </trkpt>
      <trkpt lat="47.27717" lon="-2.49251">
        <ele>57</ele>
        <time>2011-04-24T10:05:39Z</time>
      </trkpt>
      <trkpt lat="47.27723" lon="-2.49252">
        <ele>57</ele>
        <time>2011-04-24T10:05:41Z</time>
      </trkpt>
      <trkpt lat="47.27729" lon="-2.49253">
        <ele>57</ele>
        <time>2011-04-24T10:05:43Z</time>
      </trkpt>
      <trkpt lat="47.27734" lon="-2.49254">
        <ele>58</ele>
        <time>2011-04-24T10:05:45Z</time>
      </trkpt>
      <trkpt lat="47.2774" lon="-2.49254">
        <ele>58</ele>
        <time>2011-04-24T10:05:47Z</time>
      </trkpt>
      <trkpt lat="47.27746" lon="-2.49254">
        <ele>58</ele>
        <time>2011-04-24T10:05:49Z</time>
      </trkpt>
      <trkpt lat="47.27753" lon="-2.49255">
        <ele>58</ele>
        <time>2011-04-24T10:05:51Z</time>
      </trkpt>
      <trkpt lat="47.27759" lon="-2.49255">
        <ele>58</ele>
        <time>2011-04-24T10:05:53Z</time>
      </trkpt>
      <trkpt lat="47.27766" lon="-2.49256">
        <ele>59</ele>
        <time>2011-04-24T10:05:55Z</time>
      </trkpt>
      <trkpt lat="47.27773" lon="-2.49256">
        <ele>59</ele>
        <time>2011-04-24T10:05:57Z</time>
      </trkpt>
      <trkpt lat="47.2778" lon="-2.49258">
        <ele>58</ele>
        <time>2011-04-24T10:05:59Z</time>
      </trkpt>
      <trkpt lat="47.27788" lon="-2.49258">
        <ele>58</ele>
        <time>2011-04-24T10:06:01Z</time>
      </trkpt>
      <trkpt lat="47.27795" lon="-2.49259">
        <ele>58</ele>
        <time>2011-04-24T10:06:03Z</time>
      </trkpt>
      <trkpt lat="47.27802" lon="-2.49261">
        <ele>58</ele>
        <time>2011-04-24T10:06:05Z</time>
      </trkpt>
      <trkpt lat="47.27808" lon="-2.49262">
        <ele>58</ele>
        <time>2011-04-24T10:06:07Z</time>
      </trkpt>
      <trkpt lat="47.27814" lon="-2.49265">
        <ele>58</ele>
        <time>2011-04-24T10:06:09Z</time>
      </trkpt>
      <trkpt lat="47.27822" lon="-2.49267">
        <ele>57</ele>
        <time>2011-04-24T10:06:11Z</time>
      </trkpt>
      <trkpt lat="47.27828" lon="-2.49268">
        <ele>57</ele>
        <time>2011-04-24T10:06:13Z</time>
      </trkpt>
      <trkpt lat="47.27834" lon="-2.4927">
        <ele>57</ele>
        <time>2011-04-24T10:06:15Z</time>
      </trkpt>
      <trkpt lat="47.2784" lon="-2.49272">
        <ele>58</ele>
        <time>2011-04-24T10:06:17Z</time>
      </trkpt>
      <trkpt lat="47.27846" lon="-2.49275">
        <ele>58</ele>
        <time>2011-04-24T10:06:19Z</time>
      </trkpt>
      <trkpt lat="47.27851" lon="-2.4928">
        <ele>57</ele>
        <time>2011-04-24T10:06:21Z</time>
      </trkpt>
      <trkpt lat="47.27856" lon="-2.49284">
        <ele>58</ele>
        <time>2011-04-24T10:06:23Z</time>
      </trkpt>
      <trkpt lat="47.27861" lon="-2.49289">
        <ele>58</ele>
        <time>2011-04-24T10:06:25Z</time>
      </trkpt>
      <trkpt lat="47.27866" lon="-2.49294">
        <ele>58</ele>
        <time>2011-04-24T10:06:27Z</time>
      </trkpt>
      <trkpt lat="47.27872" lon="-2.49299">
        <ele>58</ele>
        <time>2011-04-24T10:06:29Z</time>
      </trkpt>
      <trkpt lat="47.27877" lon="-2.49305">
        <ele>58</ele>
        <time>2011-04-24T10:06:31Z</time>
      </trkpt>
      <trkpt lat="47.27883" lon="-2.49312">
        <ele>58</ele>
        <time>2011-04-24T10:06:33Z</time>
      </trkpt>
      <trkpt lat="47.27888" lon="-2.49319">
        <ele>58</ele>
        <time>2011-04-24T10:06:35Z</time>
      </trkpt>
      <trkpt lat="47.27893" lon="-2.49326">
        <ele>59</ele>
        <time>2011-04-24T10:06:37Z</time>
      </trkpt>
      <trkpt lat="47.27898" lon="-2.49332">
        <ele>59</ele>
        <time>2011-04-24T10:06:39Z</time>
      </trkpt>
      <trkpt lat="47.27902" lon="-2.49338">
        <ele>58</ele>
        <time>2011-04-24T10:06:41Z</time>
      </trkpt>
      <trkpt lat="47.27906" lon="-2.49344">
        <ele>59</ele>
        <time>2011-04-24T10:06:43Z</time>
      </trkpt>
      <trkpt lat="47.2791" lon="-2.49349">
        <ele>59</ele>
        <time>2011-04-24T10:06:45Z</time>
      </trkpt>
      <trkpt lat="47.27915" lon="-2.49356">
        <ele>58</ele>
        <time>2011-04-24T10:06:47Z</time>
      </trkpt>
      <trkpt lat="47.2792" lon="-2.49362">
        <ele>59</ele>
        <time>2011-04-24T10:06:49Z</time>
      </trkpt>
      <trkpt lat="47.27925" lon="-2.49368">
        <ele>58</ele>
        <time>2011-04-24T10:06:51Z</time>
      </trkpt>
      <trkpt lat="47.2793" lon="-2.49374">
        <ele>58</ele>
        <time>2011-04-24T10:06:53Z</time>
      </trkpt>
      <trkpt lat="47.27934" lon="-2.4938">
        <ele>58</ele>
        <time>2011-04-24T10:06:55Z</time>
      </trkpt>
      <trkpt lat="47.27937" lon="-2.49385">
        <ele>59</ele>
        <time>2011-04-24T10:06:56Z</time>
      </trkpt>
      <trkpt lat="47.27942" lon="-2.4939">
        <ele>59</ele>
        <time>2011-04-24T10:06:58Z</time>
      </trkpt>
      <trkpt lat="47.27946" lon="-2.49394">
        <ele>60</ele>
        <time>2011-04-24T10:07:00Z</time>
      </trkpt>
      <trkpt lat="47.2795" lon="-2.49399">
        <ele>60</ele>
        <time>2011-04-24T10:07:02Z</time>
      </trkpt>
      <trkpt lat="47.27953" lon="-2.49404">
        <ele>61</ele>
        <time>2011-04-24T10:07:04Z</time>
      </trkpt>
      <trkpt lat="47.27959" lon="-2.49412">
        <ele>60</ele>
        <time>2011-04-24T10:07:06Z</time>
      </trkpt>
      <trkpt lat="47.27964" lon="-2.4942">
        <ele>58</ele>
        <time>2011-04-24T10:07:08Z</time>
      </trkpt>
      <trkpt lat="47.27968" lon="-2.49426">
        <ele>59</ele>
        <time>2011-04-24T10:07:10Z</time>
      </trkpt>
      <trkpt lat="47.27972" lon="-2.49431">
        <ele>58</ele>
        <time>2011-04-24T10:07:12Z</time>
      </trkpt>
      <trkpt lat="47.27976" lon="-2.49434">
        <ele>57</ele>
        <time>2011-04-24T10:07:15Z</time>
      </trkpt>
      <trkpt lat="47.27973" lon="-2.49429">
        <ele>56</ele>
        <time>2011-04-24T10:07:22Z</time>
      </trkpt>
      <trkpt lat="47.27968" lon="-2.49426">
        <ele>55</ele>
        <time>2011-04-24T10:07:26Z</time>
      </trkpt>
      <trkpt lat="47.27973" lon="-2.49434">
        <ele>55</ele>
        <time>2011-04-24T10:07:32Z</time>
      </trkpt>
      <trkpt lat="47.27977" lon="-2.49438">
        <ele>55</ele>
        <time>2011-04-24T10:07:34Z</time>
      </trkpt>
      <trkpt lat="47.27981" lon="-2.49443">
        <ele>56</ele>
        <time>2011-04-24T10:07:36Z</time>
      </trkpt>
      <trkpt lat="47.27985" lon="-2.49448">
        <ele>56</ele>
        <time>2011-04-24T10:07:38Z</time>
      </trkpt>
      <trkpt lat="47.27988" lon="-2.49457">
        <ele>56</ele>
        <time>2011-04-24T10:07:40Z</time>
      </trkpt>
      <trkpt lat="47.27992" lon="-2.49462">
        <ele>56</ele>
        <time>2011-04-24T10:07:41Z</time>
      </trkpt>
      <trkpt lat="47.27998" lon="-2.4947">
        <ele>56</ele>
        <time>2011-04-24T10:07:43Z</time>
      </trkpt>
      <trkpt lat="47.28004" lon="-2.49476">
        <ele>56</ele>
        <time>2011-04-24T10:07:45Z</time>
      </trkpt>
      <trkpt lat="47.2801" lon="-2.49486">
        <ele>56</ele>
        <time>2011-04-24T10:07:47Z</time>
      </trkpt>
      <trkpt lat="47.28016" lon="-2.49494">
        <ele>56</ele>
        <time>2011-04-24T10:07:49Z</time>
      </trkpt>
      <trkpt lat="47.2802" lon="-2.49499">
        <ele>56</ele>
        <time>2011-04-24T10:07:50Z</time>
      </trkpt>
      <trkpt lat="47.28023" lon="-2.49504">
        <ele>55</ele>
        <time>2011-04-24T10:07:51Z</time>
      </trkpt>
      <trkpt lat="47.28026" lon="-2.49509">
        <ele>56</ele>
        <time>2011-04-24T10:07:52Z</time>
      </trkpt>
      <trkpt lat="47.2803" lon="-2.49514">
        <ele>55</ele>
        <time>2011-04-24T10:07:53Z</time>
      </trkpt>
      <trkpt lat="47.28033" lon="-2.49519">
        <ele>56</ele>
        <time>2011-04-24T10:07:54Z</time>
      </trkpt>
      <trkpt lat="47.28036" lon="-2.49524">
        <ele>56</ele>
        <time>2011-04-24T10:07:55Z</time>
      </trkpt>
      <trkpt lat="47.2804" lon="-2.49528">
        <ele>56</ele>
        <time>2011-04-24T10:07:56Z</time>
      </trkpt>
      <trkpt lat="47.28043" lon="-2.49533">
        <ele>56</ele>
        <time>2011-04-24T10:07:57Z</time>
      </trkpt>
      <trkpt lat="47.28047" lon="-2.49538">
        <ele>56</ele>
        <time>2011-04-24T10:07:58Z</time>
      </trkpt>
      <trkpt lat="47.2805" lon="-2.49543">
        <ele>56</ele>
        <time>2011-04-24T10:07:59Z</time>
      </trkpt>
      <trkpt lat="47.28057" lon="-2.49552">
        <ele>56</ele>
        <time>2011-04-24T10:08:01Z</time>
      </trkpt>
      <trkpt lat="47.2806" lon="-2.49557">
        <ele>56</ele>
        <time>2011-04-24T10:08:02Z</time>
      </trkpt>
      <trkpt lat="47.28066" lon="-2.49565">
        <ele>57</ele>
        <time>2011-04-24T10:08:04Z</time>
      </trkpt>
      <trkpt lat="47.28072" lon="-2.49574">
        <ele>58</ele>
        <time>2011-04-24T10:08:06Z</time>
      </trkpt>
      <trkpt lat="47.28078" lon="-2.49582">
        <ele>58</ele>
        <time>2011-04-24T10:08:08Z</time>
      </trkpt>
      <trkpt lat="47.28083" lon="-2.49588">
        <ele>58</ele>
        <time>2011-04-24T10:08:10Z</time>
      </trkpt>
      <trkpt lat="47.28088" lon="-2.49593">
        <ele>58</ele>
        <time>2011-04-24T10:08:12Z</time>
      </trkpt>
      <trkpt lat="47.28092" lon="-2.49598">
        <ele>58</ele>
        <time>2011-04-24T10:08:16Z</time>
      </trkpt>
      <trkpt lat="47.28098" lon="-2.49601">
        <ele>57</ele>
        <time>2011-04-24T10:08:19Z</time>
      </trkpt>
      <trkpt lat="47.28096" lon="-2.4961">
        <ele>56</ele>
        <time>2011-04-24T10:08:21Z</time>
      </trkpt>
      <trkpt lat="47.28097" lon="-2.49619">
        <ele>56</ele>
        <time>2011-04-24T10:08:24Z</time>
      </trkpt>
      <trkpt lat="47.28103" lon="-2.49625">
        <ele>57</ele>
        <time>2011-04-24T10:08:26Z</time>
      </trkpt>
      <trkpt lat="47.28108" lon="-2.49631">
        <ele>57</ele>
        <time>2011-04-24T10:08:28Z</time>
      </trkpt>
      <trkpt lat="47.28112" lon="-2.49637">
        <ele>56</ele>
        <time>2011-04-24T10:08:30Z</time>
      </trkpt>
      <trkpt lat="47.28117" lon="-2.49645">
        <ele>56</ele>
        <time>2011-04-24T10:08:32Z</time>
      </trkpt>
      <trkpt lat="47.28121" lon="-2.49653">
        <ele>56</ele>
        <time>2011-04-24T10:08:34Z</time>
      </trkpt>
      <trkpt lat="47.28123" lon="-2.49662">
        <ele>57</ele>
        <time>2011-04-24T10:08:36Z</time>
      </trkpt>
      <trkpt lat="47.28126" lon="-2.49673">
        <ele>57</ele>
        <time>2011-04-24T10:08:38Z</time>
      </trkpt>
      <trkpt lat="47.28129" lon="-2.49684">
        <ele>57</ele>
        <time>2011-04-24T10:08:40Z</time>
      </trkpt>
      <trkpt lat="47.28128" lon="-2.4969">
        <ele>58</ele>
        <time>2011-04-24T10:08:41Z</time>
      </trkpt>
      <trkpt lat="47.28131" lon="-2.49703">
        <ele>59</ele>
        <time>2011-04-24T10:08:43Z</time>
      </trkpt>
      <trkpt lat="47.28133" lon="-2.49715">
        <ele>59</ele>
        <time>2011-04-24T10:08:45Z</time>
      </trkpt>
      <trkpt lat="47.28135" lon="-2.49727">
        <ele>59</ele>
        <time>2011-04-24T10:08:47Z</time>
      </trkpt>
      <trkpt lat="47.28137" lon="-2.49739">
        <ele>59</ele>
        <time>2011-04-24T10:08:49Z</time>
      </trkpt>
      <trkpt lat="47.28138" lon="-2.49751">
        <ele>59</ele>
        <time>2011-04-24T10:08:51Z</time>
      </trkpt>
      <trkpt lat="47.2814" lon="-2.49761">
        <ele>58</ele>
        <time>2011-04-24T10:08:53Z</time>
      </trkpt>
      <trkpt lat="47.28141" lon="-2.49772">
        <ele>59</ele>
        <time>2011-04-24T10:08:55Z</time>
      </trkpt>
      <trkpt lat="47.28142" lon="-2.49783">
        <ele>58</ele>
        <time>2011-04-24T10:08:57Z</time>
      </trkpt>
      <trkpt lat="47.28142" lon="-2.4979">
        <ele>57</ele>
        <time>2011-04-24T10:08:58Z</time>
      </trkpt>
      <trkpt lat="47.28143" lon="-2.49803">
        <ele>57</ele>
        <time>2011-04-24T10:09:00Z</time>
      </trkpt>
      <trkpt lat="47.28144" lon="-2.49816">
        <ele>57</ele>
        <time>2011-04-24T10:09:02Z</time>
      </trkpt>
      <trkpt lat="47.28145" lon="-2.49824">
        <ele>57</ele>
        <time>2011-04-24T10:09:03Z</time>
      </trkpt>
      <trkpt lat="47.28146" lon="-2.49831">
        <ele>56</ele>
        <time>2011-04-24T10:09:04Z</time>
      </trkpt>
      <trkpt lat="47.28147" lon="-2.49839">
        <ele>56</ele>
        <time>2011-04-24T10:09:05Z</time>
      </trkpt>
      <trkpt lat="47.28149" lon="-2.49846">
        <ele>56</ele>
        <time>2011-04-24T10:09:06Z</time>
      </trkpt>
      <trkpt lat="47.2815" lon="-2.49852">
        <ele>57</ele>
        <time>2011-04-24T10:09:07Z</time>
      </trkpt>
      <trkpt lat="47.2815" lon="-2.4986">
        <ele>56</ele>
        <time>2011-04-24T10:09:08Z</time>
      </trkpt>
      <trkpt lat="47.28152" lon="-2.49872">
        <ele>56</ele>
        <time>2011-04-24T10:09:10Z</time>
      </trkpt>
      <trkpt lat="47.28153" lon="-2.49878">
        <ele>56</ele>
        <time>2011-04-24T10:09:11Z</time>
      </trkpt>
      <trkpt lat="47.28154" lon="-2.4989">
        <ele>56</ele>
        <time>2011-04-24T10:09:13Z</time>
      </trkpt>
      <trkpt lat="47.28155" lon="-2.499">
        <ele>57</ele>
        <time>2011-04-24T10:09:15Z</time>
      </trkpt>
      <trkpt lat="47.28156" lon="-2.49911">
        <ele>58</ele>
        <time>2011-04-24T10:09:17Z</time>
      </trkpt>
      <trkpt lat="47.28157" lon="-2.49922">
        <ele>59</ele>
        <time>2011-04-24T10:09:19Z</time>
      </trkpt>
      <trkpt lat="47.28156" lon="-2.4993">
        <ele>60</ele>
        <time>2011-04-24T10:09:21Z</time>
      </trkpt>
      <trkpt lat="47.28158" lon="-2.49939">
        <ele>62</ele>
        <time>2011-04-24T10:09:23Z</time>
      </trkpt>
      <trkpt lat="47.28159" lon="-2.49949">
        <ele>64</ele>
        <time>2011-04-24T10:09:25Z</time>
      </trkpt>
      <trkpt lat="47.28162" lon="-2.4996">
        <ele>65</ele>
        <time>2011-04-24T10:09:27Z</time>
      </trkpt>
      <trkpt lat="47.28163" lon="-2.49967">
        <ele>66</ele>
        <time>2011-04-24T10:09:28Z</time>
      </trkpt>
      <trkpt lat="47.28164" lon="-2.49978">
        <ele>67</ele>
        <time>2011-04-24T10:09:30Z</time>
      </trkpt>
      <trkpt lat="47.28165" lon="-2.49989">
        <ele>68</ele>
        <time>2011-04-24T10:09:32Z</time>
      </trkpt>
      <trkpt lat="47.28167" lon="-2.5">
        <ele>68</ele>
        <time>2011-04-24T10:09:34Z</time>
      </trkpt>
      <trkpt lat="47.28168" lon="-2.50009">
        <ele>68</ele>
        <time>2011-04-24T10:09:36Z</time>
      </trkpt>
      <trkpt lat="47.2817" lon="-2.50021">
        <ele>68</ele>
        <time>2011-04-24T10:09:38Z</time>
      </trkpt>
      <trkpt lat="47.28172" lon="-2.50033">
        <ele>66</ele>
        <time>2011-04-24T10:09:40Z</time>
      </trkpt>
      <trkpt lat="47.28174" lon="-2.50046">
        <ele>66</ele>
        <time>2011-04-24T10:09:42Z</time>
      </trkpt>
      <trkpt lat="47.28175" lon="-2.50057">
        <ele>65</ele>
        <time>2011-04-24T10:09:44Z</time>
      </trkpt>
      <trkpt lat="47.28176" lon="-2.50066">
        <ele>65</ele>
        <time>2011-04-24T10:09:46Z</time>
      </trkpt>
      <trkpt lat="47.28179" lon="-2.50076">
        <ele>64</ele>
        <time>2011-04-24T10:09:48Z</time>
      </trkpt>
      <trkpt lat="47.28181" lon="-2.50082">
        <ele>64</ele>
        <time>2011-04-24T10:09:49Z</time>
      </trkpt>
      <trkpt lat="47.28185" lon="-2.50092">
        <ele>63</ele>
        <time>2011-04-24T10:09:51Z</time>
      </trkpt>
      <trkpt lat="47.28189" lon="-2.50103">
        <ele>62</ele>
        <time>2011-04-24T10:09:53Z</time>
      </trkpt>
      <trkpt lat="47.28192" lon="-2.50114">
        <ele>62</ele>
        <time>2011-04-24T10:09:55Z</time>
      </trkpt>
      <trkpt lat="47.28194" lon="-2.50124">
        <ele>62</ele>
        <time>2011-04-24T10:09:57Z</time>
      </trkpt>
      <trkpt lat="47.28196" lon="-2.50136">
        <ele>62</ele>
        <time>2011-04-24T10:09:59Z</time>
      </trkpt>
      <trkpt lat="47.28198" lon="-2.50146">
        <ele>62</ele>
        <time>2011-04-24T10:10:01Z</time>
      </trkpt>
      <trkpt lat="47.28202" lon="-2.50156">
        <ele>62</ele>
        <time>2011-04-24T10:10:03Z</time>
      </trkpt>
      <trkpt lat="47.28204" lon="-2.50165">
        <ele>63</ele>
        <time>2011-04-24T10:10:05Z</time>
      </trkpt>
      <trkpt lat="47.28207" lon="-2.50173">
        <ele>62</ele>
        <time>2011-04-24T10:10:07Z</time>
      </trkpt>
      <trkpt lat="47.28209" lon="-2.50179">
        <ele>62</ele>
        <time>2011-04-24T10:10:09Z</time>
      </trkpt>
      <trkpt lat="47.28212" lon="-2.50187">
        <ele>63</ele>
        <time>2011-04-24T10:10:11Z</time>
      </trkpt>
      <trkpt lat="47.28215" lon="-2.50194">
        <ele>62</ele>
        <time>2011-04-24T10:10:13Z</time>
      </trkpt>
      <trkpt lat="47.28217" lon="-2.50202">
        <ele>62</ele>
        <time>2011-04-24T10:10:15Z</time>
      </trkpt>
      <trkpt lat="47.2822" lon="-2.50211">
        <ele>61</ele>
        <time>2011-04-24T10:10:17Z</time>
      </trkpt>
      <trkpt lat="47.28224" lon="-2.5022">
        <ele>59</ele>
        <time>2011-04-24T10:10:19Z</time>
      </trkpt>
      <trkpt lat="47.2823" lon="-2.50227">
        <ele>58</ele>
        <time>2011-04-24T10:10:21Z</time>
      </trkpt>
      <trkpt lat="47.28234" lon="-2.50236">
        <ele>58</ele>
        <time>2011-04-24T10:10:23Z</time>
      </trkpt>
      <trkpt lat="47.2824" lon="-2.50243">
        <ele>58</ele>
        <time>2011-04-24T10:10:25Z</time>
      </trkpt>
      <trkpt lat="47.28245" lon="-2.50251">
        <ele>57</ele>
        <time>2011-04-24T10:10:27Z</time>
      </trkpt>
      <trkpt lat="47.28251" lon="-2.50258">
        <ele>57</ele>
        <time>2011-04-24T10:10:29Z</time>
      </trkpt>
      <trkpt lat="47.28256" lon="-2.50266">
        <ele>56</ele>
        <time>2011-04-24T10:10:31Z</time>
      </trkpt>
      <trkpt lat="47.28261" lon="-2.50274">
        <ele>56</ele>
        <time>2011-04-24T10:10:33Z</time>
      </trkpt>
      <trkpt lat="47.28266" lon="-2.50283">
        <ele>56</ele>
        <time>2011-04-24T10:10:35Z</time>
      </trkpt>
      <trkpt lat="47.28269" lon="-2.50294">
        <ele>56</ele>
        <time>2011-04-24T10:10:37Z</time>
      </trkpt>
      <trkpt lat="47.28272" lon="-2.50303">
        <ele>56</ele>
        <time>2011-04-24T10:10:39Z</time>
      </trkpt>
      <trkpt lat="47.28274" lon="-2.5031">
        <ele>57</ele>
        <time>2011-04-24T10:10:41Z</time>
      </trkpt>
      <trkpt lat="47.28275" lon="-2.5032">
        <ele>56</ele>
        <time>2011-04-24T10:10:43Z</time>
      </trkpt>
      <trkpt lat="47.28275" lon="-2.50329">
        <ele>55</ele>
        <time>2011-04-24T10:10:45Z</time>
      </trkpt>
      <trkpt lat="47.28275" lon="-2.50341">
        <ele>56</ele>
        <time>2011-04-24T10:10:47Z</time>
      </trkpt>
      <trkpt lat="47.28276" lon="-2.50351">
        <ele>57</ele>
        <time>2011-04-24T10:10:49Z</time>
      </trkpt>
      <trkpt lat="47.28277" lon="-2.5036">
        <ele>57</ele>
        <time>2011-04-24T10:10:51Z</time>
      </trkpt>
      <trkpt lat="47.28277" lon="-2.50371">
        <ele>57</ele>
        <time>2011-04-24T10:10:53Z</time>
      </trkpt>
      <trkpt lat="47.28277" lon="-2.50382">
        <ele>57</ele>
        <time>2011-04-24T10:10:55Z</time>
      </trkpt>
      <trkpt lat="47.28276" lon="-2.50391">
        <ele>57</ele>
        <time>2011-04-24T10:10:57Z</time>
      </trkpt>
      <trkpt lat="47.28275" lon="-2.50401">
        <ele>58</ele>
        <time>2011-04-24T10:10:59Z</time>
      </trkpt>
      <trkpt lat="47.28274" lon="-2.50412">
        <ele>58</ele>
        <time>2011-04-24T10:11:01Z</time>
      </trkpt>
      <trkpt lat="47.28272" lon="-2.50422">
        <ele>58</ele>
        <time>2011-04-24T10:11:03Z</time>
      </trkpt>
      <trkpt lat="47.2827" lon="-2.50431">
        <ele>58</ele>
        <time>2011-04-24T10:11:05Z</time>
      </trkpt>
      <trkpt lat="47.28268" lon="-2.50442">
        <ele>58</ele>
        <time>2011-04-24T10:11:07Z</time>
      </trkpt>
      <trkpt lat="47.28266" lon="-2.50452">
        <ele>58</ele>
        <time>2011-04-24T10:11:09Z</time>
      </trkpt>
      <trkpt lat="47.28263" lon="-2.50462">
        <ele>57</ele>
        <time>2011-04-24T10:11:11Z</time>
      </trkpt>
      <trkpt lat="47.2826" lon="-2.5047">
        <ele>57</ele>
        <time>2011-04-24T10:11:13Z</time>
      </trkpt>
      <trkpt lat="47.28258" lon="-2.5048">
        <ele>56</ele>
        <time>2011-04-24T10:11:15Z</time>
      </trkpt>
      <trkpt lat="47.28256" lon="-2.5049">
        <ele>56</ele>
        <time>2011-04-24T10:11:17Z</time>
      </trkpt>
      <trkpt lat="47.28254" lon="-2.50498">
        <ele>57</ele>
        <time>2011-04-24T10:11:19Z</time>
      </trkpt>
      <trkpt lat="47.28252" lon="-2.50505">
        <ele>55</ele>
        <time>2011-04-24T10:11:21Z</time>
      </trkpt>
      <trkpt lat="47.2825" lon="-2.50512">
        <ele>55</ele>
        <time>2011-04-24T10:11:23Z</time>
      </trkpt>
      <trkpt lat="47.28248" lon="-2.50521">
        <ele>55</ele>
        <time>2011-04-24T10:11:26Z</time>
      </trkpt>
      <trkpt lat="47.28247" lon="-2.50528">
        <ele>56</ele>
        <time>2011-04-24T10:11:28Z</time>
      </trkpt>
      <trkpt lat="47.28247" lon="-2.50536">
        <ele>56</ele>
        <time>2011-04-24T10:11:30Z</time>
      </trkpt>
      <trkpt lat="47.28248" lon="-2.50545">
        <ele>56</ele>
        <time>2011-04-24T10:11:32Z</time>
      </trkpt>
      <trkpt lat="47.28247" lon="-2.50553">
        <ele>57</ele>
        <time>2011-04-24T10:11:34Z</time>
      </trkpt>
      <trkpt lat="47.28246" lon="-2.50561">
        <ele>58</ele>
        <time>2011-04-24T10:11:36Z</time>
      </trkpt>
      <trkpt lat="47.28242" lon="-2.50573">
        <ele>57</ele>
        <time>2011-04-24T10:11:38Z</time>
      </trkpt>
      <trkpt lat="47.28242" lon="-2.5058">
        <ele>57</ele>
        <time>2011-04-24T10:11:39Z</time>
      </trkpt>
      <trkpt lat="47.2824" lon="-2.50587">
        <ele>57</ele>
        <time>2011-04-24T10:11:40Z</time>
      </trkpt>
      <trkpt lat="47.28237" lon="-2.50599">
        <ele>58</ele>
        <time>2011-04-24T10:11:42Z</time>
      </trkpt>
      <trkpt lat="47.28235" lon="-2.50605">
        <ele>58</ele>
        <time>2011-04-24T10:11:43Z</time>
      </trkpt>
      <trkpt lat="47.28232" lon="-2.50617">
        <ele>58</ele>
        <time>2011-04-24T10:11:45Z</time>
      </trkpt>
      <trkpt lat="47.28229" lon="-2.50628">
        <ele>58</ele>
        <time>2011-04-24T10:11:47Z</time>
      </trkpt>
      <trkpt lat="47.28226" lon="-2.5064">
        <ele>58</ele>
        <time>2011-04-24T10:11:49Z</time>
      </trkpt>
      <trkpt lat="47.28223" lon="-2.50651">
        <ele>57</ele>
        <time>2011-04-24T10:11:51Z</time>
      </trkpt>
      <trkpt lat="47.28222" lon="-2.50658">
        <ele>57</ele>
        <time>2011-04-24T10:11:52Z</time>
      </trkpt>
      <trkpt lat="47.28219" lon="-2.5067">
        <ele>58</ele>
        <time>2011-04-24T10:11:54Z</time>
      </trkpt>
      <trkpt lat="47.28218" lon="-2.50676">
        <ele>58</ele>
        <time>2011-04-24T10:11:55Z</time>
      </trkpt>
      <trkpt lat="47.28217" lon="-2.50683">
        <ele>59</ele>
        <time>2011-04-24T10:11:56Z</time>
      </trkpt>
      <trkpt lat="47.28216" lon="-2.50689">
        <ele>59</ele>
        <time>2011-04-24T10:11:57Z</time>
      </trkpt>
      <trkpt lat="47.28214" lon="-2.50701">
        <ele>58</ele>
        <time>2011-04-24T10:11:59Z</time>
      </trkpt>
      <trkpt lat="47.28212" lon="-2.50712">
        <ele>59</ele>
        <time>2011-04-24T10:12:01Z</time>
      </trkpt>
      <trkpt lat="47.28211" lon="-2.50725">
        <ele>58</ele>
        <time>2011-04-24T10:12:03Z</time>
      </trkpt>
      <trkpt lat="47.2821" lon="-2.50732">
        <ele>58</ele>
        <time>2011-04-24T10:12:04Z</time>
      </trkpt>
      <trkpt lat="47.2821" lon="-2.50745">
        <ele>58</ele>
        <time>2011-04-24T10:12:06Z</time>
      </trkpt>
      <trkpt lat="47.28209" lon="-2.50752">
        <ele>58</ele>
        <time>2011-04-24T10:12:07Z</time>
      </trkpt>
      <trkpt lat="47.28209" lon="-2.50759">
        <ele>58</ele>
        <time>2011-04-24T10:12:08Z</time>
      </trkpt>
      <trkpt lat="47.2821" lon="-2.50767">
        <ele>59</ele>
        <time>2011-04-24T10:12:09Z</time>
      </trkpt>
      <trkpt lat="47.2821" lon="-2.50774">
        <ele>58</ele>
        <time>2011-04-24T10:12:10Z</time>
      </trkpt>
      <trkpt lat="47.28211" lon="-2.50781">
        <ele>58</ele>
        <time>2011-04-24T10:12:11Z</time>
      </trkpt>
      <trkpt lat="47.28211" lon="-2.50788">
        <ele>58</ele>
        <time>2011-04-24T10:12:12Z</time>
      </trkpt>
      <trkpt lat="47.28212" lon="-2.50802">
        <ele>59</ele>
        <time>2011-04-24T10:12:14Z</time>
      </trkpt>
      <trkpt lat="47.28214" lon="-2.50808">
        <ele>59</ele>
        <time>2011-04-24T10:12:15Z</time>
      </trkpt>
      <trkpt lat="47.28215" lon="-2.50815">
        <ele>59</ele>
        <time>2011-04-24T10:12:16Z</time>
      </trkpt>
      <trkpt lat="47.28216" lon="-2.50822">
        <ele>59</ele>
        <time>2011-04-24T10:12:17Z</time>
      </trkpt>
      <trkpt lat="47.28217" lon="-2.5083">
        <ele>59</ele>
        <time>2011-04-24T10:12:18Z</time>
      </trkpt>
      <trkpt lat="47.28218" lon="-2.50837">
        <ele>59</ele>
        <time>2011-04-24T10:12:19Z</time>
      </trkpt>
      <trkpt lat="47.28219" lon="-2.50845">
        <ele>59</ele>
        <time>2011-04-24T10:12:20Z</time>
      </trkpt>
      <trkpt lat="47.28221" lon="-2.50852">
        <ele>59</ele>
        <time>2011-04-24T10:12:21Z</time>
      </trkpt>
      <trkpt lat="47.28222" lon="-2.50859">
        <ele>59</ele>
        <time>2011-04-24T10:12:22Z</time>
      </trkpt>
      <trkpt lat="47.28225" lon="-2.50872">
        <ele>59</ele>
        <time>2011-04-24T10:12:24Z</time>
      </trkpt>
      <trkpt lat="47.28227" lon="-2.50879">
        <ele>59</ele>
        <time>2011-04-24T10:12:25Z</time>
      </trkpt>
      <trkpt lat="47.28229" lon="-2.50885">
        <ele>59</ele>
        <time>2011-04-24T10:12:26Z</time>
      </trkpt>
      <trkpt lat="47.28231" lon="-2.50893">
        <ele>59</ele>
        <time>2011-04-24T10:12:27Z</time>
      </trkpt>
      <trkpt lat="47.28231" lon="-2.509">
        <ele>59</ele>
        <time>2011-04-24T10:12:28Z</time>
      </trkpt>
      <trkpt lat="47.28233" lon="-2.50907">
        <ele>59</ele>
        <time>2011-04-24T10:12:29Z</time>
      </trkpt>
      <trkpt lat="47.28233" lon="-2.50914">
        <ele>59</ele>
        <time>2011-04-24T10:12:30Z</time>
      </trkpt>
      <trkpt lat="47.28235" lon="-2.50921">
        <ele>59</ele>
        <time>2011-04-24T10:12:31Z</time>
      </trkpt>
      <trkpt lat="47.28236" lon="-2.50928">
        <ele>59</ele>
        <time>2011-04-24T10:12:32Z</time>
      </trkpt>
      <trkpt lat="47.28237" lon="-2.50936">
        <ele>59</ele>
        <time>2011-04-24T10:12:33Z</time>
      </trkpt>
      <trkpt lat="47.28238" lon="-2.50944">
        <ele>60</ele>
        <time>2011-04-24T10:12:34Z</time>
      </trkpt>
      <trkpt lat="47.28239" lon="-2.5095">
        <ele>61</ele>
        <time>2011-04-24T10:12:35Z</time>
      </trkpt>
      <trkpt lat="47.2824" lon="-2.50962">
        <ele>61</ele>
        <time>2011-04-24T10:12:37Z</time>
      </trkpt>
      <trkpt lat="47.28242" lon="-2.50969">
        <ele>61</ele>
        <time>2011-04-24T10:12:38Z</time>
      </trkpt>
      <trkpt lat="47.28242" lon="-2.50976">
        <ele>61</ele>
        <time>2011-04-24T10:12:39Z</time>
      </trkpt>
      <trkpt lat="47.28242" lon="-2.50984">
        <ele>61</ele>
        <time>2011-04-24T10:12:40Z</time>
      </trkpt>
      <trkpt lat="47.28244" lon="-2.50995">
        <ele>61</ele>
        <time>2011-04-24T10:12:42Z</time>
      </trkpt>
      <trkpt lat="47.28245" lon="-2.51001">
        <ele>61</ele>
        <time>2011-04-24T10:12:43Z</time>
      </trkpt>
      <trkpt lat="47.28247" lon="-2.51014">
        <ele>62</ele>
        <time>2011-04-24T10:12:45Z</time>
      </trkpt>
      <trkpt lat="47.2825" lon="-2.51025">
        <ele>62</ele>
        <time>2011-04-24T10:12:47Z</time>
      </trkpt>
      <trkpt lat="47.28252" lon="-2.51032">
        <ele>62</ele>
        <time>2011-04-24T10:12:48Z</time>
      </trkpt>
      <trkpt lat="47.28254" lon="-2.51043">
        <ele>62</ele>
        <time>2011-04-24T10:12:50Z</time>
      </trkpt>
      <trkpt lat="47.28256" lon="-2.51049">
        <ele>61</ele>
        <time>2011-04-24T10:12:51Z</time>
      </trkpt>
      <trkpt lat="47.28258" lon="-2.51056">
        <ele>61</ele>
        <time>2011-04-24T10:12:52Z</time>
      </trkpt>
      <trkpt lat="47.28261" lon="-2.51065">
        <ele>60</ele>
        <time>2011-04-24T10:12:54Z</time>
      </trkpt>
      <trkpt lat="47.28264" lon="-2.51072">
        <ele>60</ele>
        <time>2011-04-24T10:12:56Z</time>
      </trkpt>
      <trkpt lat="47.28267" lon="-2.51078">
        <ele>60</ele>
        <time>2011-04-24T10:12:57Z</time>
      </trkpt>
      <trkpt lat="47.2827" lon="-2.51087">
        <ele>59</ele>
        <time>2011-04-24T10:12:59Z</time>
      </trkpt>
      <trkpt lat="47.28272" lon="-2.51094">
        <ele>59</ele>
        <time>2011-04-24T10:13:00Z</time>
      </trkpt>
      <trkpt lat="47.28275" lon="-2.51103">
        <ele>57</ele>
        <time>2011-04-24T10:13:02Z</time>
      </trkpt>
      <trkpt lat="47.28277" lon="-2.51109">
        <ele>57</ele>
        <time>2011-04-24T10:13:03Z</time>
      </trkpt>
      <trkpt lat="47.28281" lon="-2.51122">
        <ele>56</ele>
        <time>2011-04-24T10:13:05Z</time>
      </trkpt>
      <trkpt lat="47.28285" lon="-2.51133">
        <ele>57</ele>
        <time>2011-04-24T10:13:07Z</time>
      </trkpt>
      <trkpt lat="47.28288" lon="-2.51145">
        <ele>56</ele>
        <time>2011-04-24T10:13:09Z</time>
      </trkpt>
      <trkpt lat="47.28291" lon="-2.51151">
        <ele>56</ele>
        <time>2011-04-24T10:13:10Z</time>
      </trkpt>
      <trkpt lat="47.28293" lon="-2.51157">
        <ele>56</ele>
        <time>2011-04-24T10:13:11Z</time>
      </trkpt>
      <trkpt lat="47.28295" lon="-2.51164">
        <ele>56</ele>
        <time>2011-04-24T10:13:12Z</time>
      </trkpt>
      <trkpt lat="47.28297" lon="-2.5117">
        <ele>56</ele>
        <time>2011-04-24T10:13:13Z</time>
      </trkpt>
      <trkpt lat="47.28299" lon="-2.51176">
        <ele>56</ele>
        <time>2011-04-24T10:13:14Z</time>
      </trkpt>
      <trkpt lat="47.28302" lon="-2.51182">
        <ele>56</ele>
        <time>2011-04-24T10:13:15Z</time>
      </trkpt>
      <trkpt lat="47.28305" lon="-2.51188">
        <ele>56</ele>
        <time>2011-04-24T10:13:16Z</time>
      </trkpt>
      <trkpt lat="47.28311" lon="-2.51199">
        <ele>54</ele>
        <time>2011-04-24T10:13:18Z</time>
      </trkpt>
      <trkpt lat="47.28316" lon="-2.51203">
        <ele>55</ele>
        <time>2011-04-24T10:13:19Z</time>
      </trkpt>
      <trkpt lat="47.2832" lon="-2.51207">
        <ele>55</ele>
        <time>2011-04-24T10:13:20Z</time>
      </trkpt>
      <trkpt lat="47.28325" lon="-2.51211">
        <ele>54</ele>
        <time>2011-04-24T10:13:21Z</time>
      </trkpt>
      <trkpt lat="47.28333" lon="-2.51216">
        <ele>54</ele>
        <time>2011-04-24T10:13:23Z</time>
      </trkpt>
      <trkpt lat="47.2834" lon="-2.51223">
        <ele>55</ele>
        <time>2011-04-24T10:13:25Z</time>
      </trkpt>
      <trkpt lat="47.28348" lon="-2.51228">
        <ele>56</ele>
        <time>2011-04-24T10:13:27Z</time>
      </trkpt>
      <trkpt lat="47.28355" lon="-2.51233">
        <ele>56</ele>
        <time>2011-04-24T10:13:29Z</time>
      </trkpt>
      <trkpt lat="47.28363" lon="-2.51239">
        <ele>56</ele>
        <time>2011-04-24T10:13:31Z</time>
      </trkpt>
      <trkpt lat="47.2837" lon="-2.51243">
        <ele>56</ele>
        <time>2011-04-24T10:13:33Z</time>
      </trkpt>
      <trkpt lat="47.28377" lon="-2.51248">
        <ele>56</ele>
        <time>2011-04-24T10:13:35Z</time>
      </trkpt>
      <trkpt lat="47.28384" lon="-2.51253">
        <ele>56</ele>
        <time>2011-04-24T10:13:37Z</time>
      </trkpt>
      <trkpt lat="47.28391" lon="-2.51259">
        <ele>56</ele>
        <time>2011-04-24T10:13:39Z</time>
      </trkpt>
      <trkpt lat="47.28398" lon="-2.51263">
        <ele>56</ele>
        <time>2011-04-24T10:13:41Z</time>
      </trkpt>
      <trkpt lat="47.28404" lon="-2.51268">
        <ele>56</ele>
        <time>2011-04-24T10:13:43Z</time>
      </trkpt>
      <trkpt lat="47.2841" lon="-2.51274">
        <ele>56</ele>
        <time>2011-04-24T10:13:45Z</time>
      </trkpt>
      <trkpt lat="47.28416" lon="-2.51281">
        <ele>56</ele>
        <time>2011-04-24T10:13:47Z</time>
      </trkpt>
      <trkpt lat="47.28422" lon="-2.51288">
        <ele>57</ele>
        <time>2011-04-24T10:13:49Z</time>
      </trkpt>
      <trkpt lat="47.28426" lon="-2.51295">
        <ele>57</ele>
        <time>2011-04-24T10:13:51Z</time>
      </trkpt>
      <trkpt lat="47.2843" lon="-2.51302">
        <ele>57</ele>
        <time>2011-04-24T10:13:53Z</time>
      </trkpt>
      <trkpt lat="47.28435" lon="-2.51309">
        <ele>57</ele>
        <time>2011-04-24T10:13:55Z</time>
      </trkpt>
      <trkpt lat="47.2844" lon="-2.51316">
        <ele>56</ele>
        <time>2011-04-24T10:13:58Z</time>
      </trkpt>
      <trkpt lat="47.28444" lon="-2.51322">
        <ele>56</ele>
        <time>2011-04-24T10:14:00Z</time>
      </trkpt>
      <trkpt lat="47.28449" lon="-2.51329">
        <ele>56</ele>
        <time>2011-04-24T10:14:02Z</time>
      </trkpt>
      <trkpt lat="47.28453" lon="-2.51336">
        <ele>56</ele>
        <time>2011-04-24T10:14:04Z</time>
      </trkpt>
      <trkpt lat="47.28459" lon="-2.51345">
        <ele>56</ele>
        <time>2011-04-24T10:14:06Z</time>
      </trkpt>
      <trkpt lat="47.28462" lon="-2.51358">
        <ele>57</ele>
        <time>2011-04-24T10:14:08Z</time>
      </trkpt>
      <trkpt lat="47.28465" lon="-2.5137">
        <ele>57</ele>
        <time>2011-04-24T10:14:10Z</time>
      </trkpt>
      <trkpt lat="47.28461" lon="-2.51381">
        <ele>59</ele>
        <time>2011-04-24T10:14:12Z</time>
      </trkpt>
      <trkpt lat="47.28458" lon="-2.51392">
        <ele>59</ele>
        <time>2011-04-24T10:14:14Z</time>
      </trkpt>
      <trkpt lat="47.28456" lon="-2.51405">
        <ele>58</ele>
        <time>2011-04-24T10:14:16Z</time>
      </trkpt>
      <trkpt lat="47.28457" lon="-2.51414">
        <ele>58</ele>
        <time>2011-04-24T10:14:18Z</time>
      </trkpt>
      <trkpt lat="47.28458" lon="-2.51424">
        <ele>58</ele>
        <time>2011-04-24T10:14:20Z</time>
      </trkpt>
      <trkpt lat="47.28464" lon="-2.51433">
        <ele>59</ele>
        <time>2011-04-24T10:14:22Z</time>
      </trkpt>
      <trkpt lat="47.28468" lon="-2.51434">
        <ele>58</ele>
        <time>2011-04-24T10:14:23Z</time>
      </trkpt>
      <trkpt lat="47.28473" lon="-2.51437">
        <ele>58</ele>
        <time>2011-04-24T10:14:24Z</time>
      </trkpt>
      <trkpt lat="47.28479" lon="-2.51443">
        <ele>59</ele>
        <time>2011-04-24T10:14:26Z</time>
      </trkpt>
      <trkpt lat="47.28483" lon="-2.51447">
        <ele>59</ele>
        <time>2011-04-24T10:14:27Z</time>
      </trkpt>
      <trkpt lat="47.28487" lon="-2.51451">
        <ele>58</ele>
        <time>2011-04-24T10:14:28Z</time>
      </trkpt>
      <trkpt lat="47.28493" lon="-2.51459">
        <ele>58</ele>
        <time>2011-04-24T10:14:30Z</time>
      </trkpt>
      <trkpt lat="47.28497" lon="-2.51464">
        <ele>58</ele>
        <time>2011-04-24T10:14:31Z</time>
      </trkpt>
      <trkpt lat="47.28503" lon="-2.51472">
        <ele>58</ele>
        <time>2011-04-24T10:14:33Z</time>
      </trkpt>
      <trkpt lat="47.28506" lon="-2.51476">
        <ele>58</ele>
        <time>2011-04-24T10:14:34Z</time>
      </trkpt>
      <trkpt lat="47.2851" lon="-2.51482">
        <ele>58</ele>
        <time>2011-04-24T10:14:35Z</time>
      </trkpt>
      <trkpt lat="47.28513" lon="-2.51486">
        <ele>57</ele>
        <time>2011-04-24T10:14:36Z</time>
      </trkpt>
      <trkpt lat="47.28518" lon="-2.51495">
        <ele>58</ele>
        <time>2011-04-24T10:14:38Z</time>
      </trkpt>
      <trkpt lat="47.2852" lon="-2.51502">
        <ele>59</ele>
        <time>2011-04-24T10:14:40Z</time>
      </trkpt>
      <trkpt lat="47.28523" lon="-2.51511">
        <ele>60</ele>
        <time>2011-04-24T10:14:41Z</time>
      </trkpt>
      <trkpt lat="47.28523" lon="-2.5152">
        <ele>60</ele>
        <time>2011-04-24T10:14:42Z</time>
      </trkpt>
      <trkpt lat="47.28525" lon="-2.51535">
        <ele>60</ele>
        <time>2011-04-24T10:14:44Z</time>
      </trkpt>
      <trkpt lat="47.28528" lon="-2.51548">
        <ele>60</ele>
        <time>2011-04-24T10:14:46Z</time>
      </trkpt>
      <trkpt lat="47.2853" lon="-2.51555">
        <ele>60</ele>
        <time>2011-04-24T10:14:47Z</time>
      </trkpt>
      <trkpt lat="47.28531" lon="-2.51568">
        <ele>59</ele>
        <time>2011-04-24T10:14:49Z</time>
      </trkpt>
      <trkpt lat="47.28532" lon="-2.51576">
        <ele>58</ele>
        <time>2011-04-24T10:14:50Z</time>
      </trkpt>
      <trkpt lat="47.28533" lon="-2.51583">
        <ele>57</ele>
        <time>2011-04-24T10:14:51Z</time>
      </trkpt>
      <trkpt lat="47.28534" lon="-2.51595">
        <ele>57</ele>
        <time>2011-04-24T10:14:53Z</time>
      </trkpt>
      <trkpt lat="47.28535" lon="-2.51608">
        <ele>56</ele>
        <time>2011-04-24T10:14:55Z</time>
      </trkpt>
      <trkpt lat="47.28537" lon="-2.51614">
        <ele>55</ele>
        <time>2011-04-24T10:14:56Z</time>
      </trkpt>
      <trkpt lat="47.28539" lon="-2.51627">
        <ele>56</ele>
        <time>2011-04-24T10:14:58Z</time>
      </trkpt>
      <trkpt lat="47.28541" lon="-2.51639">
        <ele>56</ele>
        <time>2011-04-24T10:15:00Z</time>
      </trkpt>
      <trkpt lat="47.28542" lon="-2.51651">
        <ele>56</ele>
        <time>2011-04-24T10:15:02Z</time>
      </trkpt>
      <trkpt lat="47.28544" lon="-2.51663">
        <ele>57</ele>
        <time>2011-04-24T10:15:04Z</time>
      </trkpt>
      <trkpt lat="47.28546" lon="-2.51675">
        <ele>56</ele>
        <time>2011-04-24T10:15:06Z</time>
      </trkpt>
      <trkpt lat="47.28547" lon="-2.51681">
        <ele>56</ele>
        <time>2011-04-24T10:15:07Z</time>
      </trkpt>
      <trkpt lat="47.28548" lon="-2.51694">
        <ele>57</ele>
        <time>2011-04-24T10:15:09Z</time>
      </trkpt>
      <trkpt lat="47.28549" lon="-2.51705">
        <ele>57</ele>
        <time>2011-04-24T10:15:11Z</time>
      </trkpt>
      <trkpt lat="47.28551" lon="-2.51716">
        <ele>57</ele>
        <time>2011-04-24T10:15:13Z</time>
      </trkpt>
      <trkpt lat="47.28553" lon="-2.51727">
        <ele>57</ele>
        <time>2011-04-24T10:15:15Z</time>
      </trkpt>
      <trkpt lat="47.28555" lon="-2.51739">
        <ele>57</ele>
        <time>2011-04-24T10:15:17Z</time>
      </trkpt>
      <trkpt lat="47.28557" lon="-2.51751">
        <ele>58</ele>
        <time>2011-04-24T10:15:19Z</time>
      </trkpt>
      <trkpt lat="47.2856" lon="-2.51762">
        <ele>58</ele>
        <time>2011-04-24T10:15:21Z</time>
      </trkpt>
      <trkpt lat="47.28564" lon="-2.51773">
        <ele>58</ele>
        <time>2011-04-24T10:15:23Z</time>
      </trkpt>
      <trkpt lat="47.28569" lon="-2.51783">
        <ele>58</ele>
        <time>2011-04-24T10:15:25Z</time>
      </trkpt>
      <trkpt lat="47.28575" lon="-2.5179">
        <ele>58</ele>
        <time>2011-04-24T10:15:27Z</time>
      </trkpt>
      <trkpt lat="47.28582" lon="-2.518">
        <ele>56</ele>
        <time>2011-04-24T10:15:29Z</time>
      </trkpt>
      <trkpt lat="47.28589" lon="-2.51807">
        <ele>55</ele>
        <time>2011-04-24T10:15:31Z</time>
      </trkpt>
      <trkpt lat="47.28596" lon="-2.51814">
        <ele>56</ele>
        <time>2011-04-24T10:15:33Z</time>
      </trkpt>
      <trkpt lat="47.28604" lon="-2.51822">
        <ele>56</ele>
        <time>2011-04-24T10:15:35Z</time>
      </trkpt>
      <trkpt lat="47.28607" lon="-2.51827">
        <ele>56</ele>
        <time>2011-04-24T10:15:36Z</time>
      </trkpt>
      <trkpt lat="47.28612" lon="-2.51833">
        <ele>57</ele>
        <time>2011-04-24T10:15:38Z</time>
      </trkpt>
      <trkpt lat="47.28617" lon="-2.51838">
        <ele>58</ele>
        <time>2011-04-24T10:15:40Z</time>
      </trkpt>
      <trkpt lat="47.2862" lon="-2.51852">
        <ele>57</ele>
        <time>2011-04-24T10:15:41Z</time>
      </trkpt>
      <trkpt lat="47.28623" lon="-2.51859">
        <ele>57</ele>
        <time>2011-04-24T10:15:42Z</time>
      </trkpt>
      <trkpt lat="47.28626" lon="-2.51865">
        <ele>58</ele>
        <time>2011-04-24T10:15:43Z</time>
      </trkpt>
      <trkpt lat="47.28628" lon="-2.51872">
        <ele>57</ele>
        <time>2011-04-24T10:15:44Z</time>
      </trkpt>
      <trkpt lat="47.28629" lon="-2.51878">
        <ele>58</ele>
        <time>2011-04-24T10:15:45Z</time>
      </trkpt>
      <trkpt lat="47.28631" lon="-2.51885">
        <ele>58</ele>
        <time>2011-04-24T10:15:46Z</time>
      </trkpt>
      <trkpt lat="47.28632" lon="-2.51898">
        <ele>58</ele>
        <time>2011-04-24T10:15:48Z</time>
      </trkpt>
      <trkpt lat="47.28633" lon="-2.51909">
        <ele>58</ele>
        <time>2011-04-24T10:15:50Z</time>
      </trkpt>
      <trkpt lat="47.28635" lon="-2.5192">
        <ele>58</ele>
        <time>2011-04-24T10:15:52Z</time>
      </trkpt>
      <trkpt lat="47.28635" lon="-2.51932">
        <ele>58</ele>
        <time>2011-04-24T10:15:54Z</time>
      </trkpt>
      <trkpt lat="47.28636" lon="-2.51939">
        <ele>58</ele>
        <time>2011-04-24T10:15:55Z</time>
      </trkpt>
      <trkpt lat="47.28636" lon="-2.51951">
        <ele>58</ele>
        <time>2011-04-24T10:15:57Z</time>
      </trkpt>
      <trkpt lat="47.28637" lon="-2.51962">
        <ele>59</ele>
        <time>2011-04-24T10:15:59Z</time>
      </trkpt>
      <trkpt lat="47.28637" lon="-2.51974">
        <ele>61</ele>
        <time>2011-04-24T10:16:01Z</time>
      </trkpt>
      <trkpt lat="47.28638" lon="-2.51985">
        <ele>61</ele>
        <time>2011-04-24T10:16:03Z</time>
      </trkpt>
      <trkpt lat="47.2864" lon="-2.51997">
        <ele>62</ele>
        <time>2011-04-24T10:16:05Z</time>
      </trkpt>
      <trkpt lat="47.28641" lon="-2.52009">
        <ele>62</ele>
        <time>2011-04-24T10:16:07Z</time>
      </trkpt>
      <trkpt lat="47.28643" lon="-2.5202">
        <ele>62</ele>
        <time>2011-04-24T10:16:09Z</time>
      </trkpt>
      <trkpt lat="47.28646" lon="-2.5203">
        <ele>62</ele>
        <time>2011-04-24T10:16:11Z</time>
      </trkpt>
      <trkpt lat="47.28649" lon="-2.52041">
        <ele>63</ele>
        <time>2011-04-24T10:16:13Z</time>
      </trkpt>
      <trkpt lat="47.28653" lon="-2.52051">
        <ele>63</ele>
        <time>2011-04-24T10:16:15Z</time>
      </trkpt>
      <trkpt lat="47.28656" lon="-2.5206">
        <ele>63</ele>
        <time>2011-04-24T10:16:17Z</time>
      </trkpt>
      <trkpt lat="47.28659" lon="-2.5207">
        <ele>63</ele>
        <time>2011-04-24T10:16:19Z</time>
      </trkpt>
      <trkpt lat="47.28662" lon="-2.52079">
        <ele>63</ele>
        <time>2011-04-24T10:16:21Z</time>
      </trkpt>
      <trkpt lat="47.28666" lon="-2.52088">
        <ele>63</ele>
        <time>2011-04-24T10:16:23Z</time>
      </trkpt>
      <trkpt lat="47.2867" lon="-2.52098">
        <ele>64</ele>
        <time>2011-04-24T10:16:25Z</time>
      </trkpt>
      <trkpt lat="47.28673" lon="-2.52109">
        <ele>64</ele>
        <time>2011-04-24T10:16:27Z</time>
      </trkpt>
      <trkpt lat="47.28676" lon="-2.52119">
        <ele>64</ele>
        <time>2011-04-24T10:16:29Z</time>
      </trkpt>
      <trkpt lat="47.2868" lon="-2.5213">
        <ele>64</ele>
        <time>2011-04-24T10:16:31Z</time>
      </trkpt>
      <trkpt lat="47.28684" lon="-2.5214">
        <ele>64</ele>
        <time>2011-04-24T10:16:33Z</time>
      </trkpt>
      <trkpt lat="47.28688" lon="-2.5215">
        <ele>64</ele>
        <time>2011-04-24T10:16:35Z</time>
      </trkpt>
      <trkpt lat="47.28692" lon="-2.52163">
        <ele>63</ele>
        <time>2011-04-24T10:16:37Z</time>
      </trkpt>
      <trkpt lat="47.28694" lon="-2.52169">
        <ele>64</ele>
        <time>2011-04-24T10:16:38Z</time>
      </trkpt>
      <trkpt lat="47.28697" lon="-2.52181">
        <ele>64</ele>
        <time>2011-04-24T10:16:40Z</time>
      </trkpt>
      <trkpt lat="47.28702" lon="-2.52193">
        <ele>65</ele>
        <time>2011-04-24T10:16:42Z</time>
      </trkpt>
      <trkpt lat="47.28705" lon="-2.52198">
        <ele>65</ele>
        <time>2011-04-24T10:16:43Z</time>
      </trkpt>
      <trkpt lat="47.28707" lon="-2.52207">
        <ele>65</ele>
        <time>2011-04-24T10:16:45Z</time>
      </trkpt>
      <trkpt lat="47.28711" lon="-2.52217">
        <ele>65</ele>
        <time>2011-04-24T10:16:47Z</time>
      </trkpt>
      <trkpt lat="47.28712" lon="-2.52224">
        <ele>65</ele>
        <time>2011-04-24T10:16:48Z</time>
      </trkpt>
      <trkpt lat="47.28717" lon="-2.52234">
        <ele>64</ele>
        <time>2011-04-24T10:16:50Z</time>
      </trkpt>
      <trkpt lat="47.28718" lon="-2.52241">
        <ele>64</ele>
        <time>2011-04-24T10:16:51Z</time>
      </trkpt>
      <trkpt lat="47.28719" lon="-2.52252">
        <ele>64</ele>
        <time>2011-04-24T10:16:53Z</time>
      </trkpt>
      <trkpt lat="47.28722" lon="-2.52264">
        <ele>64</ele>
        <time>2011-04-24T10:16:55Z</time>
      </trkpt>
      <trkpt lat="47.28723" lon="-2.5227">
        <ele>64</ele>
        <time>2011-04-24T10:16:56Z</time>
      </trkpt>
      <trkpt lat="47.28726" lon="-2.52281">
        <ele>64</ele>
        <time>2011-04-24T10:16:58Z</time>
      </trkpt>
      <trkpt lat="47.28728" lon="-2.52293">
        <ele>64</ele>
        <time>2011-04-24T10:17:00Z</time>
      </trkpt>
      <trkpt lat="47.28729" lon="-2.52299">
        <ele>65</ele>
        <time>2011-04-24T10:17:01Z</time>
      </trkpt>
      <trkpt lat="47.28731" lon="-2.5231">
        <ele>65</ele>
        <time>2011-04-24T10:17:03Z</time>
      </trkpt>
      <trkpt lat="47.28733" lon="-2.52322">
        <ele>65</ele>
        <time>2011-04-24T10:17:05Z</time>
      </trkpt>
      <trkpt lat="47.28736" lon="-2.52334">
        <ele>65</ele>
        <time>2011-04-24T10:17:07Z</time>
      </trkpt>
      <trkpt lat="47.28737" lon="-2.5234">
        <ele>65</ele>
        <time>2011-04-24T10:17:08Z</time>
      </trkpt>
      <trkpt lat="47.28739" lon="-2.52352">
        <ele>65</ele>
        <time>2011-04-24T10:17:10Z</time>
      </trkpt>
      <trkpt lat="47.28741" lon="-2.52364">
        <ele>65</ele>
        <time>2011-04-24T10:17:12Z</time>
      </trkpt>
      <trkpt lat="47.28744" lon="-2.52375">
        <ele>64</ele>
        <time>2011-04-24T10:17:14Z</time>
      </trkpt>
      <trkpt lat="47.28746" lon="-2.52387">
        <ele>64</ele>
        <time>2011-04-24T10:17:16Z</time>
      </trkpt>
      <trkpt lat="47.28747" lon="-2.52398">
        <ele>64</ele>
        <time>2011-04-24T10:17:18Z</time>
      </trkpt>
      <trkpt lat="47.28748" lon="-2.52413">
        <ele>63</ele>
        <time>2011-04-24T10:17:20Z</time>
      </trkpt>
      <trkpt lat="47.28748" lon="-2.52426">
        <ele>61</ele>
        <time>2011-04-24T10:17:22Z</time>
      </trkpt>
      <trkpt lat="47.28747" lon="-2.52434">
        <ele>61</ele>
        <time>2011-04-24T10:17:23Z</time>
      </trkpt>
      <trkpt lat="47.28745" lon="-2.52443">
        <ele>61</ele>
        <time>2011-04-24T10:17:24Z</time>
      </trkpt>
      <trkpt lat="47.28744" lon="-2.52451">
        <ele>60</ele>
        <time>2011-04-24T10:17:25Z</time>
      </trkpt>
      <trkpt lat="47.28741" lon="-2.52458">
        <ele>59</ele>
        <time>2011-04-24T10:17:26Z</time>
      </trkpt>
      <trkpt lat="47.28739" lon="-2.52466">
        <ele>59</ele>
        <time>2011-04-24T10:17:27Z</time>
      </trkpt>
      <trkpt lat="47.28737" lon="-2.52474">
        <ele>59</ele>
        <time>2011-04-24T10:17:28Z</time>
      </trkpt>
      <trkpt lat="47.28735" lon="-2.52482">
        <ele>58</ele>
        <time>2011-04-24T10:17:29Z</time>
      </trkpt>
      <trkpt lat="47.28733" lon="-2.5249">
        <ele>58</ele>
        <time>2011-04-24T10:17:30Z</time>
      </trkpt>
      <trkpt lat="47.28731" lon="-2.52499">
        <ele>58</ele>
        <time>2011-04-24T10:17:31Z</time>
      </trkpt>
      <trkpt lat="47.28728" lon="-2.52508">
        <ele>57</ele>
        <time>2011-04-24T10:17:32Z</time>
      </trkpt>
      <trkpt lat="47.28726" lon="-2.52516">
        <ele>57</ele>
        <time>2011-04-24T10:17:33Z</time>
      </trkpt>
      <trkpt lat="47.28724" lon="-2.52526">
        <ele>57</ele>
        <time>2011-04-24T10:17:34Z</time>
      </trkpt>
      <trkpt lat="47.28723" lon="-2.52535">
        <ele>57</ele>
        <time>2011-04-24T10:17:35Z</time>
      </trkpt>
      <trkpt lat="47.28722" lon="-2.52544">
        <ele>57</ele>
        <time>2011-04-24T10:17:36Z</time>
      </trkpt>
      <trkpt lat="47.2872" lon="-2.52552">
        <ele>57</ele>
        <time>2011-04-24T10:17:37Z</time>
      </trkpt>
      <trkpt lat="47.28719" lon="-2.5256">
        <ele>57</ele>
        <time>2011-04-24T10:17:38Z</time>
      </trkpt>
      <trkpt lat="47.28718" lon="-2.52569">
        <ele>57</ele>
        <time>2011-04-24T10:17:39Z</time>
      </trkpt>
      <trkpt lat="47.28717" lon="-2.52577">
        <ele>57</ele>
        <time>2011-04-24T10:17:40Z</time>
      </trkpt>
      <trkpt lat="47.28717" lon="-2.52584">
        <ele>57</ele>
        <time>2011-04-24T10:17:41Z</time>
      </trkpt>
      <trkpt lat="47.28717" lon="-2.52591">
        <ele>57</ele>
        <time>2011-04-24T10:17:42Z</time>
      </trkpt>
      <trkpt lat="47.28717" lon="-2.52598">
        <ele>57</ele>
        <time>2011-04-24T10:17:43Z</time>
      </trkpt>
      <trkpt lat="47.28718" lon="-2.52605">
        <ele>57</ele>
        <time>2011-04-24T10:17:44Z</time>
      </trkpt>
      <trkpt lat="47.28718" lon="-2.52612">
        <ele>57</ele>
        <time>2011-04-24T10:17:45Z</time>
      </trkpt>
      <trkpt lat="47.28718" lon="-2.5262">
        <ele>57</ele>
        <time>2011-04-24T10:17:46Z</time>
      </trkpt>
      <trkpt lat="47.28718" lon="-2.52626">
        <ele>57</ele>
        <time>2011-04-24T10:17:47Z</time>
      </trkpt>
      <trkpt lat="47.28719" lon="-2.52634">
        <ele>57</ele>
        <time>2011-04-24T10:17:48Z</time>
      </trkpt>
      <trkpt lat="47.2872" lon="-2.5264">
        <ele>58</ele>
        <time>2011-04-24T10:17:49Z</time>
      </trkpt>
      <trkpt lat="47.28721" lon="-2.52653">
        <ele>58</ele>
        <time>2011-04-24T10:17:51Z</time>
      </trkpt>
      <trkpt lat="47.28722" lon="-2.52666">
        <ele>57</ele>
        <time>2011-04-24T10:17:53Z</time>
      </trkpt>
      <trkpt lat="47.28724" lon="-2.52678">
        <ele>58</ele>
        <time>2011-04-24T10:17:55Z</time>
      </trkpt>
      <trkpt lat="47.28725" lon="-2.5269">
        <ele>58</ele>
        <time>2011-04-24T10:17:57Z</time>
      </trkpt>
      <trkpt lat="47.28725" lon="-2.52697">
        <ele>58</ele>
        <time>2011-04-24T10:17:58Z</time>
      </trkpt>
      <trkpt lat="47.28726" lon="-2.52709">
        <ele>58</ele>
        <time>2011-04-24T10:18:00Z</time>
      </trkpt>
      <trkpt lat="47.28728" lon="-2.52716">
        <ele>58</ele>
        <time>2011-04-24T10:18:01Z</time>
      </trkpt>
      <trkpt lat="47.28729" lon="-2.52728">
        <ele>58</ele>
        <time>2011-04-24T10:18:03Z</time>
      </trkpt>
      <trkpt lat="47.2873" lon="-2.5274">
        <ele>59</ele>
        <time>2011-04-24T10:18:05Z</time>
      </trkpt>
      <trkpt lat="47.28731" lon="-2.52752">
        <ele>59</ele>
        <time>2011-04-24T10:18:07Z</time>
      </trkpt>
      <trkpt lat="47.28732" lon="-2.5276">
        <ele>59</ele>
        <time>2011-04-24T10:18:08Z</time>
      </trkpt>
      <trkpt lat="47.28733" lon="-2.52773">
        <ele>58</ele>
        <time>2011-04-24T10:18:10Z</time>
      </trkpt>
      <trkpt lat="47.28734" lon="-2.52779">
        <ele>58</ele>
        <time>2011-04-24T10:18:11Z</time>
      </trkpt>
      <trkpt lat="47.28736" lon="-2.52792">
        <ele>59</ele>
        <time>2011-04-24T10:18:13Z</time>
      </trkpt>
      <trkpt lat="47.28737" lon="-2.52805">
        <ele>59</ele>
        <time>2011-04-24T10:18:15Z</time>
      </trkpt>
      <trkpt lat="47.28738" lon="-2.52818">
        <ele>59</ele>
        <time>2011-04-24T10:18:17Z</time>
      </trkpt>
      <trkpt lat="47.28739" lon="-2.5283">
        <ele>59</ele>
        <time>2011-04-24T10:18:19Z</time>
      </trkpt>
      <trkpt lat="47.2874" lon="-2.52843">
        <ele>60</ele>
        <time>2011-04-24T10:18:21Z</time>
      </trkpt>
      <trkpt lat="47.2874" lon="-2.52854">
        <ele>60</ele>
        <time>2011-04-24T10:18:23Z</time>
      </trkpt>
      <trkpt lat="47.28741" lon="-2.52867">
        <ele>60</ele>
        <time>2011-04-24T10:18:25Z</time>
      </trkpt>
      <trkpt lat="47.28742" lon="-2.52873">
        <ele>60</ele>
        <time>2011-04-24T10:18:26Z</time>
      </trkpt>
      <trkpt lat="47.28744" lon="-2.52886">
        <ele>60</ele>
        <time>2011-04-24T10:18:28Z</time>
      </trkpt>
      <trkpt lat="47.28745" lon="-2.52898">
        <ele>61</ele>
        <time>2011-04-24T10:18:30Z</time>
      </trkpt>
      <trkpt lat="47.28746" lon="-2.5291">
        <ele>62</ele>
        <time>2011-04-24T10:18:32Z</time>
      </trkpt>
      <trkpt lat="47.28748" lon="-2.52922">
        <ele>62</ele>
        <time>2011-04-24T10:18:34Z</time>
      </trkpt>
      <trkpt lat="47.28748" lon="-2.52934">
        <ele>63</ele>
        <time>2011-04-24T10:18:36Z</time>
      </trkpt>
      <trkpt lat="47.2875" lon="-2.52946">
        <ele>64</ele>
        <time>2011-04-24T10:18:38Z</time>
      </trkpt>
      <trkpt lat="47.28751" lon="-2.52958">
        <ele>64</ele>
        <time>2011-04-24T10:18:40Z</time>
      </trkpt>
      <trkpt lat="47.28752" lon="-2.5297">
        <ele>65</ele>
        <time>2011-04-24T10:18:42Z</time>
      </trkpt>
      <trkpt lat="47.28754" lon="-2.52982">
        <ele>65</ele>
        <time>2011-04-24T10:18:44Z</time>
      </trkpt>
      <trkpt lat="47.28755" lon="-2.52994">
        <ele>65</ele>
        <time>2011-04-24T10:18:46Z</time>
      </trkpt>
      <trkpt lat="47.28756" lon="-2.53007">
        <ele>64</ele>
        <time>2011-04-24T10:18:48Z</time>
      </trkpt>
      <trkpt lat="47.28757" lon="-2.53013">
        <ele>64</ele>
        <time>2011-04-24T10:18:49Z</time>
      </trkpt>
      <trkpt lat="47.28758" lon="-2.53026">
        <ele>64</ele>
        <time>2011-04-24T10:18:51Z</time>
      </trkpt>
      <trkpt lat="47.28759" lon="-2.53033">
        <ele>64</ele>
        <time>2011-04-24T10:18:52Z</time>
      </trkpt>
      <trkpt lat="47.2876" lon="-2.5304">
        <ele>64</ele>
        <time>2011-04-24T10:18:53Z</time>
      </trkpt>
      <trkpt lat="47.28761" lon="-2.53054">
        <ele>64</ele>
        <time>2011-04-24T10:18:55Z</time>
      </trkpt>
      <trkpt lat="47.28762" lon="-2.5306">
        <ele>64</ele>
        <time>2011-04-24T10:18:56Z</time>
      </trkpt>
      <trkpt lat="47.28763" lon="-2.53074">
        <ele>64</ele>
        <time>2011-04-24T10:18:58Z</time>
      </trkpt>
      <trkpt lat="47.28763" lon="-2.53081">
        <ele>64</ele>
        <time>2011-04-24T10:18:59Z</time>
      </trkpt>
      <trkpt lat="47.28764" lon="-2.53088">
        <ele>64</ele>
        <time>2011-04-24T10:19:00Z</time>
      </trkpt>
      <trkpt lat="47.28766" lon="-2.53095">
        <ele>64</ele>
        <time>2011-04-24T10:19:01Z</time>
      </trkpt>
      <trkpt lat="47.28766" lon="-2.53102">
        <ele>64</ele>
        <time>2011-04-24T10:19:02Z</time>
      </trkpt>
      <trkpt lat="47.28767" lon="-2.53109">
        <ele>64</ele>
        <time>2011-04-24T10:19:03Z</time>
      </trkpt>
      <trkpt lat="47.28768" lon="-2.53115">
        <ele>63</ele>
        <time>2011-04-24T10:19:04Z</time>
      </trkpt>
      <trkpt lat="47.28772" lon="-2.53127">
        <ele>63</ele>
        <time>2011-04-24T10:19:06Z</time>
      </trkpt>
      <trkpt lat="47.28775" lon="-2.53138">
        <ele>63</ele>
        <time>2011-04-24T10:19:08Z</time>
      </trkpt>
      <trkpt lat="47.28778" lon="-2.53149">
        <ele>63</ele>
        <time>2011-04-24T10:19:10Z</time>
      </trkpt>
      <trkpt lat="47.28784" lon="-2.53158">
        <ele>63</ele>
        <time>2011-04-24T10:19:12Z</time>
      </trkpt>
      <trkpt lat="47.28789" lon="-2.53165">
        <ele>63</ele>
        <time>2011-04-24T10:19:14Z</time>
      </trkpt>
      <trkpt lat="47.28792" lon="-2.53169">
        <ele>64</ele>
        <time>2011-04-24T10:19:15Z</time>
      </trkpt>
      <trkpt lat="47.28798" lon="-2.53177">
        <ele>64</ele>
        <time>2011-04-24T10:19:17Z</time>
      </trkpt>
      <trkpt lat="47.28805" lon="-2.53183">
        <ele>65</ele>
        <time>2011-04-24T10:19:19Z</time>
      </trkpt>
      <trkpt lat="47.2881" lon="-2.53189">
        <ele>65</ele>
        <time>2011-04-24T10:19:21Z</time>
      </trkpt>
      <trkpt lat="47.28816" lon="-2.53194">
        <ele>66</ele>
        <time>2011-04-24T10:19:23Z</time>
      </trkpt>
      <trkpt lat="47.2882" lon="-2.53199">
        <ele>65</ele>
        <time>2011-04-24T10:19:25Z</time>
      </trkpt>
      <trkpt lat="47.28824" lon="-2.53205">
        <ele>65</ele>
        <time>2011-04-24T10:19:27Z</time>
      </trkpt>
      <trkpt lat="47.28828" lon="-2.5321">
        <ele>64</ele>
        <time>2011-04-24T10:19:29Z</time>
      </trkpt>
      <trkpt lat="47.28831" lon="-2.53216">
        <ele>65</ele>
        <time>2011-04-24T10:19:31Z</time>
      </trkpt>
      <trkpt lat="47.28834" lon="-2.53222">
        <ele>65</ele>
        <time>2011-04-24T10:19:33Z</time>
      </trkpt>
      <trkpt lat="47.28836" lon="-2.53228">
        <ele>66</ele>
        <time>2011-04-24T10:19:35Z</time>
      </trkpt>
      <trkpt lat="47.28839" lon="-2.53234">
        <ele>66</ele>
        <time>2011-04-24T10:19:37Z</time>
      </trkpt>
      <trkpt lat="47.28843" lon="-2.53242">
        <ele>69</ele>
        <time>2011-04-24T10:19:40Z</time>
      </trkpt>
      <trkpt lat="47.28846" lon="-2.53248">
        <ele>70</ele>
        <time>2011-04-24T10:19:43Z</time>
      </trkpt>
      <trkpt lat="47.28848" lon="-2.53263">
        <ele>70</ele>
        <time>2011-04-24T10:19:46Z</time>
      </trkpt>
      <trkpt lat="47.28848" lon="-2.53271">
        <ele>70</ele>
        <time>2011-04-24T10:19:48Z</time>
      </trkpt>
      <trkpt lat="47.2885" lon="-2.5328">
        <ele>70</ele>
        <time>2011-04-24T10:19:50Z</time>
      </trkpt>
      <trkpt lat="47.28851" lon="-2.5329">
        <ele>70</ele>
        <time>2011-04-24T10:19:52Z</time>
      </trkpt>
      <trkpt lat="47.28852" lon="-2.53301">
        <ele>70</ele>
        <time>2011-04-24T10:19:54Z</time>
      </trkpt>
      <trkpt lat="47.28855" lon="-2.53312">
        <ele>69</ele>
        <time>2011-04-24T10:19:56Z</time>
      </trkpt>
      <trkpt lat="47.28856" lon="-2.53323">
        <ele>68</ele>
        <time>2011-04-24T10:19:58Z</time>
      </trkpt>
      <trkpt lat="47.28856" lon="-2.5333">
        <ele>69</ele>
        <time>2011-04-24T10:19:59Z</time>
      </trkpt>
      <trkpt lat="47.28859" lon="-2.53343">
        <ele>70</ele>
        <time>2011-04-24T10:20:01Z</time>
      </trkpt>
      <trkpt lat="47.28862" lon="-2.53352">
        <ele>69</ele>
        <time>2011-04-24T10:20:03Z</time>
      </trkpt>
      <trkpt lat="47.28863" lon="-2.53361">
        <ele>69</ele>
        <time>2011-04-24T10:20:05Z</time>
      </trkpt>
      <trkpt lat="47.28865" lon="-2.53373">
        <ele>70</ele>
        <time>2011-04-24T10:20:07Z</time>
      </trkpt>
      <trkpt lat="47.28866" lon="-2.53382">
        <ele>70</ele>
        <time>2011-04-24T10:20:09Z</time>
      </trkpt>
      <trkpt lat="47.28868" lon="-2.53392">
        <ele>70</ele>
        <time>2011-04-24T10:20:11Z</time>
      </trkpt>
      <trkpt lat="47.28869" lon="-2.53404">
        <ele>69</ele>
        <time>2011-04-24T10:20:13Z</time>
      </trkpt>
      <trkpt lat="47.28871" lon="-2.53414">
        <ele>69</ele>
        <time>2011-04-24T10:20:15Z</time>
      </trkpt>
      <trkpt lat="47.28872" lon="-2.53424">
        <ele>68</ele>
        <time>2011-04-24T10:20:17Z</time>
      </trkpt>
      <trkpt lat="47.28874" lon="-2.53435">
        <ele>68</ele>
        <time>2011-04-24T10:20:19Z</time>
      </trkpt>
      <trkpt lat="47.28876" lon="-2.53442">
        <ele>68</ele>
        <time>2011-04-24T10:20:20Z</time>
      </trkpt>
      <trkpt lat="47.28877" lon="-2.53453">
        <ele>68</ele>
        <time>2011-04-24T10:20:22Z</time>
      </trkpt>
      <trkpt lat="47.28879" lon="-2.53464">
        <ele>67</ele>
        <time>2011-04-24T10:20:24Z</time>
      </trkpt>
      <trkpt lat="47.28881" lon="-2.53475">
        <ele>67</ele>
        <time>2011-04-24T10:20:26Z</time>
      </trkpt>
      <trkpt lat="47.28884" lon="-2.53487">
        <ele>67</ele>
        <time>2011-04-24T10:20:28Z</time>
      </trkpt>
      <trkpt lat="47.28885" lon="-2.53499">
        <ele>67</ele>
        <time>2011-04-24T10:20:30Z</time>
      </trkpt>
      <trkpt lat="47.28887" lon="-2.5351">
        <ele>68</ele>
        <time>2011-04-24T10:20:32Z</time>
      </trkpt>
      <trkpt lat="47.28888" lon="-2.53519">
        <ele>68</ele>
        <time>2011-04-24T10:20:34Z</time>
      </trkpt>
      <trkpt lat="47.2889" lon="-2.53528">
        <ele>68</ele>
        <time>2011-04-24T10:20:36Z</time>
      </trkpt>
      <trkpt lat="47.28891" lon="-2.53537">
        <ele>69</ele>
        <time>2011-04-24T10:20:38Z</time>
      </trkpt>
      <trkpt lat="47.28892" lon="-2.53545">
        <ele>71</ele>
        <time>2011-04-24T10:20:40Z</time>
      </trkpt>
      <trkpt lat="47.28895" lon="-2.53551">
        <ele>72</ele>
        <time>2011-04-24T10:20:41Z</time>
      </trkpt>
      <trkpt lat="47.28896" lon="-2.53559">
        <ele>71</ele>
        <time>2011-04-24T10:20:43Z</time>
      </trkpt>
      <trkpt lat="47.28897" lon="-2.53571">
        <ele>71</ele>
        <time>2011-04-24T10:20:45Z</time>
      </trkpt>
      <trkpt lat="47.28898" lon="-2.5358">
        <ele>71</ele>
        <time>2011-04-24T10:20:47Z</time>
      </trkpt>
      <trkpt lat="47.289" lon="-2.53588">
        <ele>70</ele>
        <time>2011-04-24T10:20:49Z</time>
      </trkpt>
      <trkpt lat="47.28902" lon="-2.53596">
        <ele>69</ele>
        <time>2011-04-24T10:20:51Z</time>
      </trkpt>
      <trkpt lat="47.28904" lon="-2.53604">
        <ele>68</ele>
        <time>2011-04-24T10:20:53Z</time>
      </trkpt>
      <trkpt lat="47.28906" lon="-2.53612">
        <ele>67</ele>
        <time>2011-04-24T10:20:55Z</time>
      </trkpt>
      <trkpt lat="47.28909" lon="-2.53623">
        <ele>66</ele>
        <time>2011-04-24T10:20:57Z</time>
      </trkpt>
      <trkpt lat="47.28911" lon="-2.53633">
        <ele>66</ele>
        <time>2011-04-24T10:20:59Z</time>
      </trkpt>
      <trkpt lat="47.28913" lon="-2.53645">
        <ele>66</ele>
        <time>2011-04-24T10:21:01Z</time>
      </trkpt>
      <trkpt lat="47.28914" lon="-2.53656">
        <ele>66</ele>
        <time>2011-04-24T10:21:03Z</time>
      </trkpt>
      <trkpt lat="47.28916" lon="-2.53667">
        <ele>66</ele>
        <time>2011-04-24T10:21:05Z</time>
      </trkpt>
      <trkpt lat="47.28917" lon="-2.53678">
        <ele>66</ele>
        <time>2011-04-24T10:21:07Z</time>
      </trkpt>
      <trkpt lat="47.28918" lon="-2.53689">
        <ele>65</ele>
        <time>2011-04-24T10:21:09Z</time>
      </trkpt>
      <trkpt lat="47.2892" lon="-2.537">
        <ele>64</ele>
        <time>2011-04-24T10:21:11Z</time>
      </trkpt>
      <trkpt lat="47.28922" lon="-2.53711">
        <ele>65</ele>
        <time>2011-04-24T10:21:13Z</time>
      </trkpt>
      <trkpt lat="47.28924" lon="-2.53722">
        <ele>64</ele>
        <time>2011-04-24T10:21:15Z</time>
      </trkpt>
      <trkpt lat="47.28924" lon="-2.53732">
        <ele>64</ele>
        <time>2011-04-24T10:21:17Z</time>
      </trkpt>
      <trkpt lat="47.28926" lon="-2.53742">
        <ele>64</ele>
        <time>2011-04-24T10:21:19Z</time>
      </trkpt>
      <trkpt lat="47.28928" lon="-2.53751">
        <ele>64</ele>
        <time>2011-04-24T10:21:21Z</time>
      </trkpt>
      <trkpt lat="47.28932" lon="-2.53755">
        <ele>65</ele>
        <time>2011-04-24T10:21:27Z</time>
      </trkpt>
      <trkpt lat="47.28932" lon="-2.53755">
        <ele>65</ele>
        <time>2011-04-24T10:21:27Z</time>
      </trkpt>
      <trkpt lat="47.28932" lon="-2.53755">
        <ele>65</ele>
        <time>2011-04-24T10:21:28Z</time>
      </trkpt>
      <trkpt lat="47.28938" lon="-2.53756">
        <ele>64</ele>
        <time>2011-04-24T10:21:35Z</time>
      </trkpt>
      <trkpt lat="47.28937" lon="-2.53765">
        <ele>67</ele>
        <time>2011-04-24T10:21:38Z</time>
      </trkpt>
      <trkpt lat="47.28938" lon="-2.53756">
        <ele>65</ele>
        <time>2011-04-24T10:21:39Z</time>
      </trkpt>
      <trkpt lat="47.28938" lon="-2.53749">
        <ele>64</ele>
        <time>2011-04-24T10:21:44Z</time>
      </trkpt>
      <trkpt lat="47.28938" lon="-2.53749">
        <ele>64</ele>
        <time>2011-04-24T10:21:44Z</time>
      </trkpt>
      <trkpt lat="47.28938" lon="-2.53749">
        <ele>63</ele>
        <time>2011-04-24T10:23:58Z</time>
      </trkpt>
      <trkpt lat="47.28943" lon="-2.53749">
        <ele>61</ele>
        <time>2011-04-24T10:28:25Z</time>
      </trkpt>
      <trkpt lat="47.28943" lon="-2.53749">
        <ele>61</ele>
        <time>2011-04-24T10:28:25Z</time>
      </trkpt>
      <trkpt lat="47.28943" lon="-2.53749">
        <ele>60</ele>
        <time>2011-04-24T10:28:29Z</time>
      </trkpt>
      <trkpt lat="47.28939" lon="-2.53747">
        <ele>60</ele>
        <time>2011-04-24T10:29:07Z</time>
      </trkpt>
      <trkpt lat="47.28934" lon="-2.53744">
        <ele>60</ele>
        <time>2011-04-24T10:29:13Z</time>
      </trkpt>
      <trkpt lat="47.28931" lon="-2.53749">
        <ele>61</ele>
        <time>2011-04-24T10:29:18Z</time>
      </trkpt>
      <trkpt lat="47.2893" lon="-2.53756">
        <ele>63</ele>
        <time>2011-04-24T10:29:22Z</time>
      </trkpt>
      <trkpt lat="47.28926" lon="-2.53754">
        <ele>62</ele>
        <time>2011-04-24T10:29:27Z</time>
      </trkpt>
      <trkpt lat="47.28922" lon="-2.5375">
        <ele>61</ele>
        <time>2011-04-24T10:29:31Z</time>
      </trkpt>
      <trkpt lat="47.28917" lon="-2.53749">
        <ele>63</ele>
        <time>2011-04-24T10:29:36Z</time>
      </trkpt>
      <trkpt lat="47.28912" lon="-2.5375">
        <ele>62</ele>
        <time>2011-04-24T10:29:50Z</time>
      </trkpt>
      <trkpt lat="47.28908" lon="-2.53749">
        <ele>62</ele>
        <time>2011-04-24T10:52:42Z</time>
      </trkpt>
      <trkpt lat="47.28906" lon="-2.53742">
        <ele>63</ele>
        <time>2011-04-24T10:53:46Z</time>
      </trkpt>
      <trkpt lat="47.2891" lon="-2.53746">
        <ele>65</ele>
        <time>2011-04-24T10:53:55Z</time>
      </trkpt>
      <trkpt lat="47.2891" lon="-2.53746">
        <ele>65</ele>
        <time>2011-04-24T10:53:55Z</time>
      </trkpt>
      <trkpt lat="47.2891" lon="-2.53746">
        <ele>65</ele>
        <time>2011-04-24T10:53:58Z</time>
      </trkpt>
      <trkpt lat="47.28916" lon="-2.53745">
        <ele>65</ele>
        <time>2011-04-24T10:55:51Z</time>
      </trkpt>
      <trkpt lat="47.28921" lon="-2.53745">
        <ele>66</ele>
        <time>2011-04-24T10:55:55Z</time>
      </trkpt>
      <trkpt lat="47.28926" lon="-2.53744">
        <ele>66</ele>
        <time>2011-04-24T10:55:59Z</time>
      </trkpt>
      <trkpt lat="47.28931" lon="-2.53744">
        <ele>66</ele>
        <time>2011-04-24T10:56:04Z</time>
      </trkpt>
      <trkpt lat="47.28936" lon="-2.53747">
        <ele>68</ele>
        <time>2011-04-24T10:56:10Z</time>
      </trkpt>
      <trkpt lat="47.28939" lon="-2.53751">
        <ele>68</ele>
        <time>2011-04-24T10:56:15Z</time>
      </trkpt>
      <trkpt lat="47.2894" lon="-2.53759">
        <ele>67</ele>
        <time>2011-04-24T10:56:19Z</time>
      </trkpt>
      <trkpt lat="47.28939" lon="-2.53766">
        <ele>65</ele>
        <time>2011-04-24T10:56:21Z</time>
      </trkpt>
      <trkpt lat="47.28935" lon="-2.53772">
        <ele>63</ele>
        <time>2011-04-24T10:56:24Z</time>
      </trkpt>
      <trkpt lat="47.28935" lon="-2.53772">
        <ele>63</ele>
        <time>2011-04-24T10:56:24Z</time>
      </trkpt>
      <trkpt lat="47.28935" lon="-2.53772">
        <ele>62</ele>
        <time>2011-04-24T10:56:38Z</time>
      </trkpt>
      <trkpt lat="47.28933" lon="-2.53764">
        <ele>62</ele>
        <time>2011-04-24T10:56:46Z</time>
      </trkpt>
      <trkpt lat="47.2893" lon="-2.53758">
        <ele>63</ele>
        <time>2011-04-24T10:56:52Z</time>
      </trkpt>
      <trkpt lat="47.28924" lon="-2.53752">
        <ele>63</ele>
        <time>2011-04-24T10:56:57Z</time>
      </trkpt>
      <trkpt lat="47.2892" lon="-2.53749">
        <ele>64</ele>
        <time>2011-04-24T10:57:03Z</time>
      </trkpt>
      <trkpt lat="47.28915" lon="-2.5375">
        <ele>65</ele>
        <time>2011-04-24T10:57:21Z</time>
      </trkpt>
      <trkpt lat="47.28912" lon="-2.53744">
        <ele>68</ele>
        <time>2011-04-24T10:58:13Z</time>
      </trkpt>
      <trkpt lat="47.28912" lon="-2.53744">
        <ele>68</ele>
        <time>2011-04-24T10:58:13Z</time>
      </trkpt>
      <trkpt lat="47.28912" lon="-2.53744">
        <ele>68</ele>
        <time>2011-04-24T10:58:15Z</time>
      </trkpt>
      <trkpt lat="47.28916" lon="-2.53747">
        <ele>67</ele>
        <time>2011-04-24T10:59:22Z</time>
      </trkpt>
      <trkpt lat="47.28916" lon="-2.53747">
        <ele>67</ele>
        <time>2011-04-24T10:59:22Z</time>
      </trkpt>
      <trkpt lat="47.28916" lon="-2.53747">
        <ele>67</ele>
        <time>2011-04-24T10:59:24Z</time>
      </trkpt>
      <trkpt lat="47.28918" lon="-2.53753">
        <ele>67</ele>
        <time>2011-04-24T10:59:27Z</time>
      </trkpt>
      <trkpt lat="47.28918" lon="-2.53762">
        <ele>67</ele>
        <time>2011-04-24T10:59:30Z</time>
      </trkpt>
      <trkpt lat="47.28918" lon="-2.5377">
        <ele>66</ele>
        <time>2011-04-24T10:59:33Z</time>
      </trkpt>
      <trkpt lat="47.2892" lon="-2.53778">
        <ele>65</ele>
        <time>2011-04-24T10:59:36Z</time>
      </trkpt>
      <trkpt lat="47.28921" lon="-2.53787">
        <ele>65</ele>
        <time>2011-04-24T10:59:39Z</time>
      </trkpt>
      <trkpt lat="47.28924" lon="-2.53793">
        <ele>65</ele>
        <time>2011-04-24T10:59:41Z</time>
      </trkpt>
      <trkpt lat="47.28924" lon="-2.53801">
        <ele>65</ele>
        <time>2011-04-24T10:59:43Z</time>
      </trkpt>
      <trkpt lat="47.28925" lon="-2.53809">
        <ele>65</ele>
        <time>2011-04-24T10:59:45Z</time>
      </trkpt>
      <trkpt lat="47.28926" lon="-2.53816">
        <ele>65</ele>
        <time>2011-04-24T10:59:47Z</time>
      </trkpt>
      <trkpt lat="47.28928" lon="-2.53824">
        <ele>65</ele>
        <time>2011-04-24T10:59:49Z</time>
      </trkpt>
      <trkpt lat="47.28929" lon="-2.53832">
        <ele>65</ele>
        <time>2011-04-24T10:59:51Z</time>
      </trkpt>
      <trkpt lat="47.2893" lon="-2.5384">
        <ele>65</ele>
        <time>2011-04-24T10:59:53Z</time>
      </trkpt>
      <trkpt lat="47.28931" lon="-2.53848">
        <ele>64</ele>
        <time>2011-04-24T10:59:55Z</time>
      </trkpt>
      <trkpt lat="47.28932" lon="-2.53856">
        <ele>64</ele>
        <time>2011-04-24T10:59:57Z</time>
      </trkpt>
      <trkpt lat="47.28933" lon="-2.53864">
        <ele>64</ele>
        <time>2011-04-24T10:59:59Z</time>
      </trkpt>
      <trkpt lat="47.28934" lon="-2.53872">
        <ele>65</ele>
        <time>2011-04-24T11:00:01Z</time>
      </trkpt>
      <trkpt lat="47.28936" lon="-2.53878">
        <ele>65</ele>
        <time>2011-04-24T11:00:03Z</time>
      </trkpt>
      <trkpt lat="47.28937" lon="-2.53886">
        <ele>64</ele>
        <time>2011-04-24T11:00:05Z</time>
      </trkpt>
      <trkpt lat="47.28939" lon="-2.53894">
        <ele>64</ele>
        <time>2011-04-24T11:00:07Z</time>
      </trkpt>
      <trkpt lat="47.28939" lon="-2.53904">
        <ele>63</ele>
        <time>2011-04-24T11:00:09Z</time>
      </trkpt>
      <trkpt lat="47.28941" lon="-2.53913">
        <ele>63</ele>
        <time>2011-04-24T11:00:11Z</time>
      </trkpt>
      <trkpt lat="47.28942" lon="-2.53924">
        <ele>63</ele>
        <time>2011-04-24T11:00:13Z</time>
      </trkpt>
      <trkpt lat="47.28942" lon="-2.53935">
        <ele>63</ele>
        <time>2011-04-24T11:00:15Z</time>
      </trkpt>
      <trkpt lat="47.28946" lon="-2.53945">
        <ele>63</ele>
        <time>2011-04-24T11:00:17Z</time>
      </trkpt>
      <trkpt lat="47.28948" lon="-2.53955">
        <ele>63</ele>
        <time>2011-04-24T11:00:19Z</time>
      </trkpt>
      <trkpt lat="47.28951" lon="-2.53964">
        <ele>63</ele>
        <time>2011-04-24T11:00:21Z</time>
      </trkpt>
      <trkpt lat="47.28953" lon="-2.53974">
        <ele>63</ele>
        <time>2011-04-24T11:00:23Z</time>
      </trkpt>
      <trkpt lat="47.28956" lon="-2.53982">
        <ele>63</ele>
        <time>2011-04-24T11:00:25Z</time>
      </trkpt>
      <trkpt lat="47.28958" lon="-2.53991">
        <ele>63</ele>
        <time>2011-04-24T11:00:27Z</time>
      </trkpt>
      <trkpt lat="47.2896" lon="-2.54">
        <ele>63</ele>
        <time>2011-04-24T11:00:29Z</time>
      </trkpt>
      <trkpt lat="47.28962" lon="-2.54008">
        <ele>62</ele>
        <time>2011-04-24T11:00:31Z</time>
      </trkpt>
      <trkpt lat="47.28966" lon="-2.54019">
        <ele>62</ele>
        <time>2011-04-24T11:00:33Z</time>
      </trkpt>
      <trkpt lat="47.28968" lon="-2.54028">
        <ele>62</ele>
        <time>2011-04-24T11:00:35Z</time>
      </trkpt>
      <trkpt lat="47.2897" lon="-2.54037">
        <ele>62</ele>
        <time>2011-04-24T11:00:37Z</time>
      </trkpt>
      <trkpt lat="47.28972" lon="-2.54047">
        <ele>62</ele>
        <time>2011-04-24T11:00:39Z</time>
      </trkpt>
      <trkpt lat="47.28975" lon="-2.54056">
        <ele>62</ele>
        <time>2011-04-24T11:00:41Z</time>
      </trkpt>
      <trkpt lat="47.28977" lon="-2.54065">
        <ele>62</ele>
        <time>2011-04-24T11:00:43Z</time>
      </trkpt>
      <trkpt lat="47.28978" lon="-2.54075">
        <ele>62</ele>
        <time>2011-04-24T11:00:45Z</time>
      </trkpt>
      <trkpt lat="47.28981" lon="-2.54081">
        <ele>62</ele>
        <time>2011-04-24T11:00:46Z</time>
      </trkpt>
      <trkpt lat="47.28984" lon="-2.54092">
        <ele>62</ele>
        <time>2011-04-24T11:00:48Z</time>
      </trkpt>
      <trkpt lat="47.28988" lon="-2.54103">
        <ele>62</ele>
        <time>2011-04-24T11:00:50Z</time>
      </trkpt>
      <trkpt lat="47.28991" lon="-2.54109">
        <ele>63</ele>
        <time>2011-04-24T11:00:52Z</time>
      </trkpt>
      <trkpt lat="47.28994" lon="-2.54119">
        <ele>61</ele>
        <time>2011-04-24T11:00:53Z</time>
      </trkpt>
      <trkpt lat="47.28995" lon="-2.54126">
        <ele>61</ele>
        <time>2011-04-24T11:00:54Z</time>
      </trkpt>
      <trkpt lat="47.28998" lon="-2.54136">
        <ele>61</ele>
        <time>2011-04-24T11:00:56Z</time>
      </trkpt>
      <trkpt lat="47.29002" lon="-2.54146">
        <ele>61</ele>
        <time>2011-04-24T11:00:58Z</time>
      </trkpt>
      <trkpt lat="47.29004" lon="-2.54158">
        <ele>60</ele>
        <time>2011-04-24T11:01:00Z</time>
      </trkpt>
      <trkpt lat="47.29005" lon="-2.54164">
        <ele>59</ele>
        <time>2011-04-24T11:01:01Z</time>
      </trkpt>
      <trkpt lat="47.29008" lon="-2.54175">
        <ele>60</ele>
        <time>2011-04-24T11:01:03Z</time>
      </trkpt>
      <trkpt lat="47.29011" lon="-2.54184">
        <ele>61</ele>
        <time>2011-04-24T11:01:05Z</time>
      </trkpt>
      <trkpt lat="47.29014" lon="-2.54194">
        <ele>61</ele>
        <time>2011-04-24T11:01:07Z</time>
      </trkpt>
      <trkpt lat="47.29018" lon="-2.54204">
        <ele>61</ele>
        <time>2011-04-24T11:01:09Z</time>
      </trkpt>
      <trkpt lat="47.29021" lon="-2.54214">
        <ele>60</ele>
        <time>2011-04-24T11:01:11Z</time>
      </trkpt>
      <trkpt lat="47.29024" lon="-2.54223">
        <ele>60</ele>
        <time>2011-04-24T11:01:13Z</time>
      </trkpt>
      <trkpt lat="47.29026" lon="-2.54229">
        <ele>59</ele>
        <time>2011-04-24T11:01:14Z</time>
      </trkpt>
      <trkpt lat="47.29029" lon="-2.54238">
        <ele>59</ele>
        <time>2011-04-24T11:01:16Z</time>
      </trkpt>
      <trkpt lat="47.29032" lon="-2.54248">
        <ele>59</ele>
        <time>2011-04-24T11:01:18Z</time>
      </trkpt>
      <trkpt lat="47.29035" lon="-2.54257">
        <ele>59</ele>
        <time>2011-04-24T11:01:20Z</time>
      </trkpt>
      <trkpt lat="47.29038" lon="-2.54266">
        <ele>59</ele>
        <time>2011-04-24T11:01:22Z</time>
      </trkpt>
      <trkpt lat="47.29041" lon="-2.54274">
        <ele>59</ele>
        <time>2011-04-24T11:01:24Z</time>
      </trkpt>
      <trkpt lat="47.29043" lon="-2.54281">
        <ele>59</ele>
        <time>2011-04-24T11:01:26Z</time>
      </trkpt>
      <trkpt lat="47.29046" lon="-2.54288">
        <ele>59</ele>
        <time>2011-04-24T11:01:28Z</time>
      </trkpt>
      <trkpt lat="47.29049" lon="-2.54295">
        <ele>58</ele>
        <time>2011-04-24T11:01:30Z</time>
      </trkpt>
      <trkpt lat="47.29052" lon="-2.54303">
        <ele>58</ele>
        <time>2011-04-24T11:01:32Z</time>
      </trkpt>
      <trkpt lat="47.29055" lon="-2.54311">
        <ele>59</ele>
        <time>2011-04-24T11:01:34Z</time>
      </trkpt>
      <trkpt lat="47.29056" lon="-2.54321">
        <ele>58</ele>
        <time>2011-04-24T11:01:36Z</time>
      </trkpt>
      <trkpt lat="47.2906" lon="-2.5433">
        <ele>58</ele>
        <time>2011-04-24T11:01:38Z</time>
      </trkpt>
      <trkpt lat="47.29061" lon="-2.54338">
        <ele>58</ele>
        <time>2011-04-24T11:01:40Z</time>
      </trkpt>
      <trkpt lat="47.29062" lon="-2.54346">
        <ele>58</ele>
        <time>2011-04-24T11:01:42Z</time>
      </trkpt>
      <trkpt lat="47.29063" lon="-2.54353">
        <ele>58</ele>
        <time>2011-04-24T11:01:44Z</time>
      </trkpt>
      <trkpt lat="47.29064" lon="-2.5436">
        <ele>58</ele>
        <time>2011-04-24T11:01:46Z</time>
      </trkpt>
      <trkpt lat="47.29065" lon="-2.54368">
        <ele>58</ele>
        <time>2011-04-24T11:01:48Z</time>
      </trkpt>
      <trkpt lat="47.29065" lon="-2.54376">
        <ele>58</ele>
        <time>2011-04-24T11:01:50Z</time>
      </trkpt>
      <trkpt lat="47.29065" lon="-2.54383">
        <ele>58</ele>
        <time>2011-04-24T11:01:52Z</time>
      </trkpt>
      <trkpt lat="47.29066" lon="-2.54391">
        <ele>58</ele>
        <time>2011-04-24T11:01:54Z</time>
      </trkpt>
      <trkpt lat="47.29068" lon="-2.54398">
        <ele>58</ele>
        <time>2011-04-24T11:01:56Z</time>
      </trkpt>
      <trkpt lat="47.29069" lon="-2.54405">
        <ele>58</ele>
        <time>2011-04-24T11:01:58Z</time>
      </trkpt>
      <trkpt lat="47.2907" lon="-2.54413">
        <ele>58</ele>
        <time>2011-04-24T11:02:01Z</time>
      </trkpt>
      <trkpt lat="47.29071" lon="-2.5442">
        <ele>58</ele>
        <time>2011-04-24T11:02:03Z</time>
      </trkpt>
      <trkpt lat="47.29071" lon="-2.54429">
        <ele>58</ele>
        <time>2011-04-24T11:02:06Z</time>
      </trkpt>
      <trkpt lat="47.29072" lon="-2.54438">
        <ele>59</ele>
        <time>2011-04-24T11:02:08Z</time>
      </trkpt>
      <trkpt lat="47.29074" lon="-2.54447">
        <ele>59</ele>
        <time>2011-04-24T11:02:10Z</time>
      </trkpt>
      <trkpt lat="47.29074" lon="-2.54455">
        <ele>59</ele>
        <time>2011-04-24T11:02:12Z</time>
      </trkpt>
      <trkpt lat="47.29074" lon="-2.54465">
        <ele>59</ele>
        <time>2011-04-24T11:02:14Z</time>
      </trkpt>
      <trkpt lat="47.29076" lon="-2.54474">
        <ele>59</ele>
        <time>2011-04-24T11:02:16Z</time>
      </trkpt>
      <trkpt lat="47.29077" lon="-2.54483">
        <ele>59</ele>
        <time>2011-04-24T11:02:18Z</time>
      </trkpt>
      <trkpt lat="47.29078" lon="-2.54492">
        <ele>58</ele>
        <time>2011-04-24T11:02:20Z</time>
      </trkpt>
      <trkpt lat="47.29081" lon="-2.54501">
        <ele>59</ele>
        <time>2011-04-24T11:02:22Z</time>
      </trkpt>
      <trkpt lat="47.29084" lon="-2.54509">
        <ele>59</ele>
        <time>2011-04-24T11:02:24Z</time>
      </trkpt>
      <trkpt lat="47.29087" lon="-2.54517">
        <ele>59</ele>
        <time>2011-04-24T11:02:26Z</time>
      </trkpt>
      <trkpt lat="47.29091" lon="-2.54525">
        <ele>58</ele>
        <time>2011-04-24T11:02:28Z</time>
      </trkpt>
      <trkpt lat="47.29094" lon="-2.54531">
        <ele>58</ele>
        <time>2011-04-24T11:02:30Z</time>
      </trkpt>
      <trkpt lat="47.29099" lon="-2.54538">
        <ele>58</ele>
        <time>2011-04-24T11:02:32Z</time>
      </trkpt>
      <trkpt lat="47.29104" lon="-2.54544">
        <ele>58</ele>
        <time>2011-04-24T11:02:34Z</time>
      </trkpt>
      <trkpt lat="47.2911" lon="-2.54549">
        <ele>59</ele>
        <time>2011-04-24T11:02:36Z</time>
      </trkpt>
      <trkpt lat="47.29116" lon="-2.54553">
        <ele>59</ele>
        <time>2011-04-24T11:02:38Z</time>
      </trkpt>
      <trkpt lat="47.29122" lon="-2.54558">
        <ele>58</ele>
        <time>2011-04-24T11:02:40Z</time>
      </trkpt>
      <trkpt lat="47.29128" lon="-2.54562">
        <ele>58</ele>
        <time>2011-04-24T11:02:42Z</time>
      </trkpt>
      <trkpt lat="47.29135" lon="-2.54566">
        <ele>58</ele>
        <time>2011-04-24T11:02:44Z</time>
      </trkpt>
      <trkpt lat="47.29141" lon="-2.5457">
        <ele>58</ele>
        <time>2011-04-24T11:02:46Z</time>
      </trkpt>
      <trkpt lat="47.29148" lon="-2.54574">
        <ele>58</ele>
        <time>2011-04-24T11:02:48Z</time>
      </trkpt>
      <trkpt lat="47.29154" lon="-2.54578">
        <ele>58</ele>
        <time>2011-04-24T11:02:50Z</time>
      </trkpt>
      <trkpt lat="47.29161" lon="-2.54583">
        <ele>58</ele>
        <time>2011-04-24T11:02:52Z</time>
      </trkpt>
      <trkpt lat="47.29168" lon="-2.54588">
        <ele>58</ele>
        <time>2011-04-24T11:02:54Z</time>
      </trkpt>
      <trkpt lat="47.29174" lon="-2.54593">
        <ele>58</ele>
        <time>2011-04-24T11:02:56Z</time>
      </trkpt>
      <trkpt lat="47.2918" lon="-2.54598">
        <ele>58</ele>
        <time>2011-04-24T11:02:58Z</time>
      </trkpt>
      <trkpt lat="47.29186" lon="-2.54605">
        <ele>57</ele>
        <time>2011-04-24T11:03:00Z</time>
      </trkpt>
      <trkpt lat="47.29191" lon="-2.54612">
        <ele>56</ele>
        <time>2011-04-24T11:03:02Z</time>
      </trkpt>
      <trkpt lat="47.29196" lon="-2.54618">
        <ele>56</ele>
        <time>2011-04-24T11:03:04Z</time>
      </trkpt>
      <trkpt lat="47.29201" lon="-2.54624">
        <ele>56</ele>
        <time>2011-04-24T11:03:06Z</time>
      </trkpt>
      <trkpt lat="47.29205" lon="-2.5463">
        <ele>56</ele>
        <time>2011-04-24T11:03:08Z</time>
      </trkpt>
      <trkpt lat="47.2921" lon="-2.54636">
        <ele>56</ele>
        <time>2011-04-24T11:03:10Z</time>
      </trkpt>
      <trkpt lat="47.29214" lon="-2.54643">
        <ele>56</ele>
        <time>2011-04-24T11:03:12Z</time>
      </trkpt>
      <trkpt lat="47.29217" lon="-2.54652">
        <ele>56</ele>
        <time>2011-04-24T11:03:14Z</time>
      </trkpt>
      <trkpt lat="47.2922" lon="-2.5466">
        <ele>56</ele>
        <time>2011-04-24T11:03:16Z</time>
      </trkpt>
      <trkpt lat="47.29224" lon="-2.54667">
        <ele>56</ele>
        <time>2011-04-24T11:03:18Z</time>
      </trkpt>
      <trkpt lat="47.29228" lon="-2.54675">
        <ele>55</ele>
        <time>2011-04-24T11:03:20Z</time>
      </trkpt>
      <trkpt lat="47.29233" lon="-2.54682">
        <ele>55</ele>
        <time>2011-04-24T11:03:22Z</time>
      </trkpt>
      <trkpt lat="47.29238" lon="-2.54689">
        <ele>55</ele>
        <time>2011-04-24T11:03:24Z</time>
      </trkpt>
      <trkpt lat="47.2924" lon="-2.54697">
        <ele>56</ele>
        <time>2011-04-24T11:03:26Z</time>
      </trkpt>
      <trkpt lat="47.2924" lon="-2.54705">
        <ele>56</ele>
        <time>2011-04-24T11:03:28Z</time>
      </trkpt>
      <trkpt lat="47.29239" lon="-2.54712">
        <ele>56</ele>
        <time>2011-04-24T11:03:31Z</time>
      </trkpt>
      <trkpt lat="47.29242" lon="-2.54717">
        <ele>56</ele>
        <time>2011-04-24T11:03:45Z</time>
      </trkpt>
      <trkpt lat="47.29247" lon="-2.54717">
        <ele>56</ele>
        <time>2011-04-24T11:03:47Z</time>
      </trkpt>
      <trkpt lat="47.29253" lon="-2.5472">
        <ele>55</ele>
        <time>2011-04-24T11:03:49Z</time>
      </trkpt>
      <trkpt lat="47.29258" lon="-2.54722">
        <ele>55</ele>
        <time>2011-04-24T11:03:51Z</time>
      </trkpt>
      <trkpt lat="47.29264" lon="-2.54723">
        <ele>55</ele>
        <time>2011-04-24T11:03:53Z</time>
      </trkpt>
      <trkpt lat="47.29268" lon="-2.54719">
        <ele>56</ele>
        <time>2011-04-24T11:03:55Z</time>
      </trkpt>
      <trkpt lat="47.29274" lon="-2.54716">
        <ele>55</ele>
        <time>2011-04-24T11:03:58Z</time>
      </trkpt>
      <trkpt lat="47.29278" lon="-2.54712">
        <ele>54</ele>
        <time>2011-04-24T11:04:00Z</time>
      </trkpt>
      <trkpt lat="47.29282" lon="-2.54708">
        <ele>54</ele>
        <time>2011-04-24T11:04:02Z</time>
      </trkpt>
      <trkpt lat="47.29286" lon="-2.54705">
        <ele>54</ele>
        <time>2011-04-24T11:04:04Z</time>
      </trkpt>
      <trkpt lat="47.29291" lon="-2.54702">
        <ele>53</ele>
        <time>2011-04-24T11:04:06Z</time>
      </trkpt>
      <trkpt lat="47.29295" lon="-2.54698">
        <ele>53</ele>
        <time>2011-04-24T11:04:08Z</time>
      </trkpt>
      <trkpt lat="47.29299" lon="-2.54694">
        <ele>53</ele>
        <time>2011-04-24T11:04:10Z</time>
      </trkpt>
      <trkpt lat="47.29304" lon="-2.54693">
        <ele>54</ele>
        <time>2011-04-24T11:04:12Z</time>
      </trkpt>
      <trkpt lat="47.29311" lon="-2.54691">
        <ele>54</ele>
        <time>2011-04-24T11:04:15Z</time>
      </trkpt>
      <trkpt lat="47.29317" lon="-2.54691">
        <ele>54</ele>
        <time>2011-04-24T11:04:17Z</time>
      </trkpt>
      <trkpt lat="47.29324" lon="-2.54689">
        <ele>54</ele>
        <time>2011-04-24T11:04:19Z</time>
      </trkpt>
      <trkpt lat="47.29328" lon="-2.54691">
        <ele>53</ele>
        <time>2011-04-24T11:04:21Z</time>
      </trkpt>
      <trkpt lat="47.29334" lon="-2.5469">
        <ele>53</ele>
        <time>2011-04-24T11:04:23Z</time>
      </trkpt>
      <trkpt lat="47.2934" lon="-2.54685">
        <ele>53</ele>
        <time>2011-04-24T11:04:25Z</time>
      </trkpt>
      <trkpt lat="47.29346" lon="-2.54686">
        <ele>53</ele>
        <time>2011-04-24T11:04:27Z</time>
      </trkpt>
      <trkpt lat="47.29351" lon="-2.54686">
        <ele>53</ele>
        <time>2011-04-24T11:04:29Z</time>
      </trkpt>
      <trkpt lat="47.29357" lon="-2.54688">
        <ele>53</ele>
        <time>2011-04-24T11:04:31Z</time>
      </trkpt>
      <trkpt lat="47.29363" lon="-2.54689">
        <ele>53</ele>
        <time>2011-04-24T11:04:33Z</time>
      </trkpt>
      <trkpt lat="47.29369" lon="-2.54687">
        <ele>53</ele>
        <time>2011-04-24T11:04:35Z</time>
      </trkpt>
      <trkpt lat="47.29375" lon="-2.54684">
        <ele>54</ele>
        <time>2011-04-24T11:04:37Z</time>
      </trkpt>
      <trkpt lat="47.2938" lon="-2.54684">
        <ele>54</ele>
        <time>2011-04-24T11:04:39Z</time>
      </trkpt>
      <trkpt lat="47.29386" lon="-2.54682">
        <ele>54</ele>
        <time>2011-04-24T11:04:41Z</time>
      </trkpt>
      <trkpt lat="47.29393" lon="-2.54683">
        <ele>54</ele>
        <time>2011-04-24T11:04:43Z</time>
      </trkpt>
      <trkpt lat="47.29399" lon="-2.54684">
        <ele>54</ele>
        <time>2011-04-24T11:04:45Z</time>
      </trkpt>
      <trkpt lat="47.29404" lon="-2.54684">
        <ele>54</ele>
        <time>2011-04-24T11:04:47Z</time>
      </trkpt>
      <trkpt lat="47.29411" lon="-2.54687">
        <ele>54</ele>
        <time>2011-04-24T11:04:49Z</time>
      </trkpt>
      <trkpt lat="47.29418" lon="-2.54688">
        <ele>54</ele>
        <time>2011-04-24T11:04:51Z</time>
      </trkpt>
      <trkpt lat="47.29426" lon="-2.54688">
        <ele>54</ele>
        <time>2011-04-24T11:04:53Z</time>
      </trkpt>
      <trkpt lat="47.29432" lon="-2.54689">
        <ele>54</ele>
        <time>2011-04-24T11:04:55Z</time>
      </trkpt>
      <trkpt lat="47.29439" lon="-2.54689">
        <ele>55</ele>
        <time>2011-04-24T11:04:57Z</time>
      </trkpt>
      <trkpt lat="47.29445" lon="-2.54691">
        <ele>55</ele>
        <time>2011-04-24T11:04:59Z</time>
      </trkpt>
      <trkpt lat="47.29451" lon="-2.5469">
        <ele>56</ele>
        <time>2011-04-24T11:05:02Z</time>
      </trkpt>
      <trkpt lat="47.29457" lon="-2.54689">
        <ele>56</ele>
        <time>2011-04-24T11:05:04Z</time>
      </trkpt>
      <trkpt lat="47.29463" lon="-2.54686">
        <ele>56</ele>
        <time>2011-04-24T11:05:06Z</time>
      </trkpt>
      <trkpt lat="47.29469" lon="-2.54682">
        <ele>57</ele>
        <time>2011-04-24T11:05:08Z</time>
      </trkpt>
      <trkpt lat="47.29476" lon="-2.54677">
        <ele>55</ele>
        <time>2011-04-24T11:05:10Z</time>
      </trkpt>
      <trkpt lat="47.2948" lon="-2.5467">
        <ele>54</ele>
        <time>2011-04-24T11:05:12Z</time>
      </trkpt>
      <trkpt lat="47.29486" lon="-2.54664">
        <ele>54</ele>
        <time>2011-04-24T11:05:14Z</time>
      </trkpt>
      <trkpt lat="47.29491" lon="-2.5466">
        <ele>53</ele>
        <time>2011-04-24T11:05:16Z</time>
      </trkpt>
      <trkpt lat="47.29495" lon="-2.54655">
        <ele>54</ele>
        <time>2011-04-24T11:05:18Z</time>
      </trkpt>
      <trkpt lat="47.29499" lon="-2.54649">
        <ele>53</ele>
        <time>2011-04-24T11:05:20Z</time>
      </trkpt>
      <trkpt lat="47.29505" lon="-2.54643">
        <ele>53</ele>
        <time>2011-04-24T11:05:22Z</time>
      </trkpt>
      <trkpt lat="47.2951" lon="-2.54638">
        <ele>52</ele>
        <time>2011-04-24T11:05:24Z</time>
      </trkpt>
      <trkpt lat="47.29515" lon="-2.54633">
        <ele>52</ele>
        <time>2011-04-24T11:05:26Z</time>
      </trkpt>
      <trkpt lat="47.2952" lon="-2.5463">
        <ele>53</ele>
        <time>2011-04-24T11:05:28Z</time>
      </trkpt>
      <trkpt lat="47.29526" lon="-2.54626">
        <ele>53</ele>
        <time>2011-04-24T11:05:30Z</time>
      </trkpt>
      <trkpt lat="47.29532" lon="-2.54623">
        <ele>53</ele>
        <time>2011-04-24T11:05:32Z</time>
      </trkpt>
      <trkpt lat="47.29538" lon="-2.5462">
        <ele>53</ele>
        <time>2011-04-24T11:05:34Z</time>
      </trkpt>
      <trkpt lat="47.29543" lon="-2.54618">
        <ele>53</ele>
        <time>2011-04-24T11:05:36Z</time>
      </trkpt>
      <trkpt lat="47.2955" lon="-2.54616">
        <ele>54</ele>
        <time>2011-04-24T11:05:38Z</time>
      </trkpt>
      <trkpt lat="47.29556" lon="-2.54616">
        <ele>54</ele>
        <time>2011-04-24T11:05:40Z</time>
      </trkpt>
      <trkpt lat="47.29562" lon="-2.54613">
        <ele>54</ele>
        <time>2011-04-24T11:05:42Z</time>
      </trkpt>
      <trkpt lat="47.29569" lon="-2.54612">
        <ele>54</ele>
        <time>2011-04-24T11:05:44Z</time>
      </trkpt>
      <trkpt lat="47.29574" lon="-2.54609">
        <ele>54</ele>
        <time>2011-04-24T11:05:46Z</time>
      </trkpt>
      <trkpt lat="47.29582" lon="-2.54606">
        <ele>53</ele>
        <time>2011-04-24T11:05:48Z</time>
      </trkpt>
      <trkpt lat="47.29588" lon="-2.54605">
        <ele>53</ele>
        <time>2011-04-24T11:05:50Z</time>
      </trkpt>
      <trkpt lat="47.29595" lon="-2.54604">
        <ele>54</ele>
        <time>2011-04-24T11:05:52Z</time>
      </trkpt>
      <trkpt lat="47.29602" lon="-2.54603">
        <ele>53</ele>
        <time>2011-04-24T11:05:54Z</time>
      </trkpt>
      <trkpt lat="47.2961" lon="-2.54601">
        <ele>53</ele>
        <time>2011-04-24T11:05:56Z</time>
      </trkpt>
      <trkpt lat="47.29616" lon="-2.54598">
        <ele>53</ele>
        <time>2011-04-24T11:05:58Z</time>
      </trkpt>
      <trkpt lat="47.29623" lon="-2.54596">
        <ele>52</ele>
        <time>2011-04-24T11:06:00Z</time>
      </trkpt>
      <trkpt lat="47.2963" lon="-2.54593">
        <ele>50</ele>
        <time>2011-04-24T11:06:02Z</time>
      </trkpt>
      <trkpt lat="47.29637" lon="-2.5459">
        <ele>50</ele>
        <time>2011-04-24T11:06:04Z</time>
      </trkpt>
      <trkpt lat="47.29642" lon="-2.54587">
        <ele>50</ele>
        <time>2011-04-24T11:06:05Z</time>
      </trkpt>
      <trkpt lat="47.29648" lon="-2.54583">
        <ele>50</ele>
        <time>2011-04-24T11:06:07Z</time>
      </trkpt>
      <trkpt lat="47.29655" lon="-2.54579">
        <ele>49</ele>
        <time>2011-04-24T11:06:09Z</time>
      </trkpt>
      <trkpt lat="47.29662" lon="-2.54574">
        <ele>49</ele>
        <time>2011-04-24T11:06:11Z</time>
      </trkpt>
      <trkpt lat="47.29669" lon="-2.54569">
        <ele>48</ele>
        <time>2011-04-24T11:06:13Z</time>
      </trkpt>
      <trkpt lat="47.29675" lon="-2.54564">
        <ele>48</ele>
        <time>2011-04-24T11:06:15Z</time>
      </trkpt>
      <trkpt lat="47.29682" lon="-2.54558">
        <ele>47</ele>
        <time>2011-04-24T11:06:17Z</time>
      </trkpt>
      <trkpt lat="47.29688" lon="-2.54552">
        <ele>47</ele>
        <time>2011-04-24T11:06:19Z</time>
      </trkpt>
      <trkpt lat="47.29694" lon="-2.54547">
        <ele>47</ele>
        <time>2011-04-24T11:06:21Z</time>
      </trkpt>
      <trkpt lat="47.29701" lon="-2.5454">
        <ele>47</ele>
        <time>2011-04-24T11:06:23Z</time>
      </trkpt>
      <trkpt lat="47.29707" lon="-2.54535">
        <ele>47</ele>
        <time>2011-04-24T11:06:25Z</time>
      </trkpt>
      <trkpt lat="47.29713" lon="-2.54529">
        <ele>47</ele>
        <time>2011-04-24T11:06:27Z</time>
      </trkpt>
      <trkpt lat="47.29719" lon="-2.54523">
        <ele>47</ele>
        <time>2011-04-24T11:06:29Z</time>
      </trkpt>
      <trkpt lat="47.29725" lon="-2.54518">
        <ele>47</ele>
        <time>2011-04-24T11:06:31Z</time>
      </trkpt>
      <trkpt lat="47.29731" lon="-2.54512">
        <ele>46</ele>
        <time>2011-04-24T11:06:33Z</time>
      </trkpt>
      <trkpt lat="47.29738" lon="-2.54506">
        <ele>46</ele>
        <time>2011-04-24T11:06:35Z</time>
      </trkpt>
      <trkpt lat="47.29745" lon="-2.545">
        <ele>46</ele>
        <time>2011-04-24T11:06:37Z</time>
      </trkpt>
      <trkpt lat="47.2975" lon="-2.54496">
        <ele>47</ele>
        <time>2011-04-24T11:06:39Z</time>
      </trkpt>
      <trkpt lat="47.29755" lon="-2.54491">
        <ele>48</ele>
        <time>2011-04-24T11:06:41Z</time>
      </trkpt>
      <trkpt lat="47.29761" lon="-2.54485">
        <ele>49</ele>
        <time>2011-04-24T11:06:43Z</time>
      </trkpt>
      <trkpt lat="47.29768" lon="-2.54479">
        <ele>49</ele>
        <time>2011-04-24T11:06:45Z</time>
      </trkpt>
      <trkpt lat="47.29774" lon="-2.54474">
        <ele>49</ele>
        <time>2011-04-24T11:06:47Z</time>
      </trkpt>
      <trkpt lat="47.29778" lon="-2.5447">
        <ele>49</ele>
        <time>2011-04-24T11:06:49Z</time>
      </trkpt>
      <trkpt lat="47.29782" lon="-2.54465">
        <ele>51</ele>
        <time>2011-04-24T11:06:51Z</time>
      </trkpt>
      <trkpt lat="47.29786" lon="-2.5446">
        <ele>52</ele>
        <time>2011-04-24T11:06:53Z</time>
      </trkpt>
      <trkpt lat="47.2979" lon="-2.54454">
        <ele>53</ele>
        <time>2011-04-24T11:06:55Z</time>
      </trkpt>
      <trkpt lat="47.29792" lon="-2.54448">
        <ele>55</ele>
        <time>2011-04-24T11:06:57Z</time>
      </trkpt>
      <trkpt lat="47.29796" lon="-2.54443">
        <ele>56</ele>
        <time>2011-04-24T11:06:58Z</time>
      </trkpt>
      <trkpt lat="47.29801" lon="-2.54436">
        <ele>56</ele>
        <time>2011-04-24T11:07:00Z</time>
      </trkpt>
      <trkpt lat="47.29804" lon="-2.54429">
        <ele>57</ele>
        <time>2011-04-24T11:07:02Z</time>
      </trkpt>
      <trkpt lat="47.29808" lon="-2.54419">
        <ele>57</ele>
        <time>2011-04-24T11:07:04Z</time>
      </trkpt>
      <trkpt lat="47.29813" lon="-2.54411">
        <ele>58</ele>
        <time>2011-04-24T11:07:06Z</time>
      </trkpt>
      <trkpt lat="47.29818" lon="-2.54403">
        <ele>59</ele>
        <time>2011-04-24T11:07:08Z</time>
      </trkpt>
      <trkpt lat="47.29822" lon="-2.54395">
        <ele>60</ele>
        <time>2011-04-24T11:07:10Z</time>
      </trkpt>
      <trkpt lat="47.29826" lon="-2.54387">
        <ele>59</ele>
        <time>2011-04-24T11:07:12Z</time>
      </trkpt>
      <trkpt lat="47.29832" lon="-2.54375">
        <ele>58</ele>
        <time>2011-04-24T11:07:15Z</time>
      </trkpt>
      <trkpt lat="47.29835" lon="-2.54368">
        <ele>58</ele>
        <time>2011-04-24T11:07:17Z</time>
      </trkpt>
      <trkpt lat="47.2984" lon="-2.54362">
        <ele>58</ele>
        <time>2011-04-24T11:07:19Z</time>
      </trkpt>
      <trkpt lat="47.29843" lon="-2.54356">
        <ele>58</ele>
        <time>2011-04-24T11:07:21Z</time>
      </trkpt>
      <trkpt lat="47.29849" lon="-2.54353">
        <ele>57</ele>
        <time>2011-04-24T11:07:23Z</time>
      </trkpt>
      <trkpt lat="47.29853" lon="-2.54349">
        <ele>56</ele>
        <time>2011-04-24T11:07:25Z</time>
      </trkpt>
      <trkpt lat="47.29859" lon="-2.54344">
        <ele>55</ele>
        <time>2011-04-24T11:07:27Z</time>
      </trkpt>
      <trkpt lat="47.29863" lon="-2.54338">
        <ele>56</ele>
        <time>2011-04-24T11:07:29Z</time>
      </trkpt>
      <trkpt lat="47.29866" lon="-2.54331">
        <ele>55</ele>
        <time>2011-04-24T11:07:31Z</time>
      </trkpt>
      <trkpt lat="47.29868" lon="-2.54324">
        <ele>55</ele>
        <time>2011-04-24T11:07:33Z</time>
      </trkpt>
      <trkpt lat="47.2987" lon="-2.54313">
        <ele>54</ele>
        <time>2011-04-24T11:07:35Z</time>
      </trkpt>
      <trkpt lat="47.29871" lon="-2.54304">
        <ele>54</ele>
        <time>2011-04-24T11:07:37Z</time>
      </trkpt>
      <trkpt lat="47.29871" lon="-2.54295">
        <ele>53</ele>
        <time>2011-04-24T11:07:39Z</time>
      </trkpt>
      <trkpt lat="47.29872" lon="-2.54286">
        <ele>53</ele>
        <time>2011-04-24T11:07:41Z</time>
      </trkpt>
      <trkpt lat="47.29873" lon="-2.54277">
        <ele>53</ele>
        <time>2011-04-24T11:07:43Z</time>
      </trkpt>
      <trkpt lat="47.29873" lon="-2.54267">
        <ele>53</ele>
        <time>2011-04-24T11:07:45Z</time>
      </trkpt>
      <trkpt lat="47.29874" lon="-2.54258">
        <ele>53</ele>
        <time>2011-04-24T11:07:47Z</time>
      </trkpt>
      <trkpt lat="47.29874" lon="-2.54248">
        <ele>53</ele>
        <time>2011-04-24T11:07:49Z</time>
      </trkpt>
      <trkpt lat="47.29875" lon="-2.54238">
        <ele>54</ele>
        <time>2011-04-24T11:07:51Z</time>
      </trkpt>
      <trkpt lat="47.29875" lon="-2.54228">
        <ele>54</ele>
        <time>2011-04-24T11:07:53Z</time>
      </trkpt>
      <trkpt lat="47.29876" lon="-2.54218">
        <ele>54</ele>
        <time>2011-04-24T11:07:55Z</time>
      </trkpt>
      <trkpt lat="47.29876" lon="-2.54208">
        <ele>54</ele>
        <time>2011-04-24T11:07:57Z</time>
      </trkpt>
      <trkpt lat="47.29876" lon="-2.54198">
        <ele>54</ele>
        <time>2011-04-24T11:07:59Z</time>
      </trkpt>
      <trkpt lat="47.29878" lon="-2.54189">
        <ele>54</ele>
        <time>2011-04-24T11:08:01Z</time>
      </trkpt>
      <trkpt lat="47.29879" lon="-2.54179">
        <ele>54</ele>
        <time>2011-04-24T11:08:03Z</time>
      </trkpt>
      <trkpt lat="47.29881" lon="-2.54169">
        <ele>54</ele>
        <time>2011-04-24T11:08:05Z</time>
      </trkpt>
      <trkpt lat="47.29882" lon="-2.5416">
        <ele>54</ele>
        <time>2011-04-24T11:08:07Z</time>
      </trkpt>
      <trkpt lat="47.29885" lon="-2.5415">
        <ele>54</ele>
        <time>2011-04-24T11:08:09Z</time>
      </trkpt>
      <trkpt lat="47.29887" lon="-2.54141">
        <ele>53</ele>
        <time>2011-04-24T11:08:11Z</time>
      </trkpt>
      <trkpt lat="47.29889" lon="-2.54132">
        <ele>53</ele>
        <time>2011-04-24T11:08:13Z</time>
      </trkpt>
      <trkpt lat="47.29893" lon="-2.54122">
        <ele>53</ele>
        <time>2011-04-24T11:08:15Z</time>
      </trkpt>
      <trkpt lat="47.29895" lon="-2.54112">
        <ele>53</ele>
        <time>2011-04-24T11:08:17Z</time>
      </trkpt>
      <trkpt lat="47.29897" lon="-2.54103">
        <ele>53</ele>
        <time>2011-04-24T11:08:19Z</time>
      </trkpt>
      <trkpt lat="47.299" lon="-2.54094">
        <ele>52</ele>
        <time>2011-04-24T11:08:21Z</time>
      </trkpt>
      <trkpt lat="47.29903" lon="-2.54086">
        <ele>52</ele>
        <time>2011-04-24T11:08:23Z</time>
      </trkpt>
      <trkpt lat="47.29907" lon="-2.54078">
        <ele>52</ele>
        <time>2011-04-24T11:08:25Z</time>
      </trkpt>
      <trkpt lat="47.2991" lon="-2.54069">
        <ele>52</ele>
        <time>2011-04-24T11:08:27Z</time>
      </trkpt>
      <trkpt lat="47.29913" lon="-2.54061">
        <ele>52</ele>
        <time>2011-04-24T11:08:29Z</time>
      </trkpt>
      <trkpt lat="47.29917" lon="-2.54053">
        <ele>52</ele>
        <time>2011-04-24T11:08:31Z</time>
      </trkpt>
      <trkpt lat="47.29921" lon="-2.54045">
        <ele>52</ele>
        <time>2011-04-24T11:08:33Z</time>
      </trkpt>
      <trkpt lat="47.29926" lon="-2.54037">
        <ele>52</ele>
        <time>2011-04-24T11:08:35Z</time>
      </trkpt>
      <trkpt lat="47.29931" lon="-2.5403">
        <ele>51</ele>
        <time>2011-04-24T11:08:37Z</time>
      </trkpt>
      <trkpt lat="47.29937" lon="-2.54024">
        <ele>51</ele>
        <time>2011-04-24T11:08:39Z</time>
      </trkpt>
      <trkpt lat="47.29942" lon="-2.54019">
        <ele>52</ele>
        <time>2011-04-24T11:08:41Z</time>
      </trkpt>
      <trkpt lat="47.29946" lon="-2.54012">
        <ele>51</ele>
        <time>2011-04-24T11:08:43Z</time>
      </trkpt>
      <trkpt lat="47.29951" lon="-2.54004">
        <ele>51</ele>
        <time>2011-04-24T11:08:45Z</time>
      </trkpt>
      <trkpt lat="47.29953" lon="-2.53996">
        <ele>52</ele>
        <time>2011-04-24T11:08:47Z</time>
      </trkpt>
      <trkpt lat="47.29956" lon="-2.53987">
        <ele>51</ele>
        <time>2011-04-24T11:08:49Z</time>
      </trkpt>
      <trkpt lat="47.29958" lon="-2.53979">
        <ele>52</ele>
        <time>2011-04-24T11:08:51Z</time>
      </trkpt>
      <trkpt lat="47.29958" lon="-2.53971">
        <ele>52</ele>
        <time>2011-04-24T11:08:53Z</time>
      </trkpt>
      <trkpt lat="47.29958" lon="-2.53962">
        <ele>52</ele>
        <time>2011-04-24T11:08:55Z</time>
      </trkpt>
      <trkpt lat="47.29957" lon="-2.53955">
        <ele>52</ele>
        <time>2011-04-24T11:08:57Z</time>
      </trkpt>
      <trkpt lat="47.29955" lon="-2.53948">
        <ele>52</ele>
        <time>2011-04-24T11:08:59Z</time>
      </trkpt>
      <trkpt lat="47.29953" lon="-2.53941">
        <ele>52</ele>
        <time>2011-04-24T11:09:01Z</time>
      </trkpt>
      <trkpt lat="47.29951" lon="-2.53933">
        <ele>52</ele>
        <time>2011-04-24T11:09:03Z</time>
      </trkpt>
      <trkpt lat="47.29951" lon="-2.53925">
        <ele>52</ele>
        <time>2011-04-24T11:09:05Z</time>
      </trkpt>
      <trkpt lat="47.2995" lon="-2.53917">
        <ele>52</ele>
        <time>2011-04-24T11:09:07Z</time>
      </trkpt>
      <trkpt lat="47.29949" lon="-2.53908">
        <ele>53</ele>
        <time>2011-04-24T11:09:09Z</time>
      </trkpt>
      <trkpt lat="47.29949" lon="-2.53899">
        <ele>53</ele>
        <time>2011-04-24T11:09:11Z</time>
      </trkpt>
      <trkpt lat="47.29948" lon="-2.5389">
        <ele>53</ele>
        <time>2011-04-24T11:09:13Z</time>
      </trkpt>
      <trkpt lat="47.29948" lon="-2.53881">
        <ele>53</ele>
        <time>2011-04-24T11:09:15Z</time>
      </trkpt>
      <trkpt lat="47.29947" lon="-2.53872">
        <ele>54</ele>
        <time>2011-04-24T11:09:17Z</time>
      </trkpt>
      <trkpt lat="47.29946" lon="-2.53861">
        <ele>53</ele>
        <time>2011-04-24T11:09:19Z</time>
      </trkpt>
      <trkpt lat="47.29944" lon="-2.53851">
        <ele>53</ele>
        <time>2011-04-24T11:09:21Z</time>
      </trkpt>
      <trkpt lat="47.29939" lon="-2.53842">
        <ele>54</ele>
        <time>2011-04-24T11:09:23Z</time>
      </trkpt>
      <trkpt lat="47.29934" lon="-2.53833">
        <ele>54</ele>
        <time>2011-04-24T11:09:25Z</time>
      </trkpt>
      <trkpt lat="47.2993" lon="-2.53824">
        <ele>55</ele>
        <time>2011-04-24T11:09:27Z</time>
      </trkpt>
      <trkpt lat="47.2993" lon="-2.53814">
        <ele>55</ele>
        <time>2011-04-24T11:09:29Z</time>
      </trkpt>
      <trkpt lat="47.29929" lon="-2.53806">
        <ele>55</ele>
        <time>2011-04-24T11:09:31Z</time>
      </trkpt>
      <trkpt lat="47.29926" lon="-2.53796">
        <ele>56</ele>
        <time>2011-04-24T11:09:33Z</time>
      </trkpt>
      <trkpt lat="47.29926" lon="-2.53788">
        <ele>56</ele>
        <time>2011-04-24T11:09:35Z</time>
      </trkpt>
      <trkpt lat="47.29924" lon="-2.5378">
        <ele>56</ele>
        <time>2011-04-24T11:09:37Z</time>
      </trkpt>
      <trkpt lat="47.29923" lon="-2.53771">
        <ele>56</ele>
        <time>2011-04-24T11:09:39Z</time>
      </trkpt>
      <trkpt lat="47.29922" lon="-2.53761">
        <ele>57</ele>
        <time>2011-04-24T11:09:41Z</time>
      </trkpt>
      <trkpt lat="47.29919" lon="-2.53751">
        <ele>57</ele>
        <time>2011-04-24T11:09:43Z</time>
      </trkpt>
      <trkpt lat="47.29917" lon="-2.53742">
        <ele>57</ele>
        <time>2011-04-24T11:09:45Z</time>
      </trkpt>
      <trkpt lat="47.29916" lon="-2.53733">
        <ele>57</ele>
        <time>2011-04-24T11:09:47Z</time>
      </trkpt>
      <trkpt lat="47.29914" lon="-2.53723">
        <ele>57</ele>
        <time>2011-04-24T11:09:49Z</time>
      </trkpt>
      <trkpt lat="47.29913" lon="-2.53712">
        <ele>57</ele>
        <time>2011-04-24T11:09:51Z</time>
      </trkpt>
      <trkpt lat="47.29912" lon="-2.53703">
        <ele>57</ele>
        <time>2011-04-24T11:09:53Z</time>
      </trkpt>
      <trkpt lat="47.29912" lon="-2.53693">
        <ele>57</ele>
        <time>2011-04-24T11:09:55Z</time>
      </trkpt>
      <trkpt lat="47.29912" lon="-2.53683">
        <ele>57</ele>
        <time>2011-04-24T11:09:57Z</time>
      </trkpt>
      <trkpt lat="47.29912" lon="-2.53673">
        <ele>56</ele>
        <time>2011-04-24T11:09:59Z</time>
      </trkpt>
      <trkpt lat="47.29913" lon="-2.53663">
        <ele>56</ele>
        <time>2011-04-24T11:10:01Z</time>
      </trkpt>
      <trkpt lat="47.29915" lon="-2.53654">
        <ele>56</ele>
        <time>2011-04-24T11:10:03Z</time>
      </trkpt>
      <trkpt lat="47.29916" lon="-2.53644">
        <ele>56</ele>
        <time>2011-04-24T11:10:05Z</time>
      </trkpt>
      <trkpt lat="47.29917" lon="-2.53635">
        <ele>55</ele>
        <time>2011-04-24T11:10:07Z</time>
      </trkpt>
      <trkpt lat="47.29919" lon="-2.53626">
        <ele>55</ele>
        <time>2011-04-24T11:10:09Z</time>
      </trkpt>
      <trkpt lat="47.29922" lon="-2.53617">
        <ele>55</ele>
        <time>2011-04-24T11:10:11Z</time>
      </trkpt>
      <trkpt lat="47.29924" lon="-2.53609">
        <ele>55</ele>
        <time>2011-04-24T11:10:13Z</time>
      </trkpt>
      <trkpt lat="47.29926" lon="-2.53602">
        <ele>55</ele>
        <time>2011-04-24T11:10:15Z</time>
      </trkpt>
      <trkpt lat="47.29929" lon="-2.53595">
        <ele>54</ele>
        <time>2011-04-24T11:10:17Z</time>
      </trkpt>
      <trkpt lat="47.29932" lon="-2.53588">
        <ele>54</ele>
        <time>2011-04-24T11:10:19Z</time>
      </trkpt>
      <trkpt lat="47.29936" lon="-2.53581">
        <ele>54</ele>
        <time>2011-04-24T11:10:21Z</time>
      </trkpt>
      <trkpt lat="47.2994" lon="-2.53574">
        <ele>53</ele>
        <time>2011-04-24T11:10:23Z</time>
      </trkpt>
      <trkpt lat="47.29944" lon="-2.53568">
        <ele>53</ele>
        <time>2011-04-24T11:10:25Z</time>
      </trkpt>
      <trkpt lat="47.29948" lon="-2.53561">
        <ele>53</ele>
        <time>2011-04-24T11:10:27Z</time>
      </trkpt>
      <trkpt lat="47.29955" lon="-2.53551">
        <ele>53</ele>
        <time>2011-04-24T11:10:30Z</time>
      </trkpt>
      <trkpt lat="47.29959" lon="-2.53545">
        <ele>53</ele>
        <time>2011-04-24T11:10:32Z</time>
      </trkpt>
      <trkpt lat="47.29964" lon="-2.53539">
        <ele>53</ele>
        <time>2011-04-24T11:10:34Z</time>
      </trkpt>
      <trkpt lat="47.29969" lon="-2.53534">
        <ele>53</ele>
        <time>2011-04-24T11:10:36Z</time>
      </trkpt>
      <trkpt lat="47.29974" lon="-2.53529">
        <ele>53</ele>
        <time>2011-04-24T11:10:38Z</time>
      </trkpt>
      <trkpt lat="47.29978" lon="-2.53523">
        <ele>53</ele>
        <time>2011-04-24T11:10:40Z</time>
      </trkpt>
      <trkpt lat="47.29983" lon="-2.53517">
        <ele>53</ele>
        <time>2011-04-24T11:10:42Z</time>
      </trkpt>
      <trkpt lat="47.29989" lon="-2.53513">
        <ele>53</ele>
        <time>2011-04-24T11:10:44Z</time>
      </trkpt>
      <trkpt lat="47.29994" lon="-2.53508">
        <ele>53</ele>
        <time>2011-04-24T11:10:46Z</time>
      </trkpt>
      <trkpt lat="47.3" lon="-2.53502">
        <ele>53</ele>
        <time>2011-04-24T11:10:48Z</time>
      </trkpt>
      <trkpt lat="47.30005" lon="-2.53497">
        <ele>53</ele>
        <time>2011-04-24T11:10:50Z</time>
      </trkpt>
      <trkpt lat="47.30011" lon="-2.53493">
        <ele>52</ele>
        <time>2011-04-24T11:10:52Z</time>
      </trkpt>
      <trkpt lat="47.30016" lon="-2.53486">
        <ele>52</ele>
        <time>2011-04-24T11:10:54Z</time>
      </trkpt>
      <trkpt lat="47.30021" lon="-2.53482">
        <ele>52</ele>
        <time>2011-04-24T11:10:56Z</time>
      </trkpt>
      <trkpt lat="47.30027" lon="-2.53476">
        <ele>52</ele>
        <time>2011-04-24T11:10:58Z</time>
      </trkpt>
      <trkpt lat="47.30033" lon="-2.53471">
        <ele>52</ele>
        <time>2011-04-24T11:11:00Z</time>
      </trkpt>
      <trkpt lat="47.30038" lon="-2.53466">
        <ele>51</ele>
        <time>2011-04-24T11:11:02Z</time>
      </trkpt>
      <trkpt lat="47.30044" lon="-2.5346">
        <ele>51</ele>
        <time>2011-04-24T11:11:04Z</time>
      </trkpt>
      <trkpt lat="47.3005" lon="-2.53454">
        <ele>51</ele>
        <time>2011-04-24T11:11:06Z</time>
      </trkpt>
      <trkpt lat="47.30055" lon="-2.53448">
        <ele>51</ele>
        <time>2011-04-24T11:11:08Z</time>
      </trkpt>
      <trkpt lat="47.3006" lon="-2.53442">
        <ele>51</ele>
        <time>2011-04-24T11:11:10Z</time>
      </trkpt>
      <trkpt lat="47.30066" lon="-2.53436">
        <ele>51</ele>
        <time>2011-04-24T11:11:12Z</time>
      </trkpt>
      <trkpt lat="47.30071" lon="-2.5343">
        <ele>51</ele>
        <time>2011-04-24T11:11:14Z</time>
      </trkpt>
      <trkpt lat="47.30076" lon="-2.53422">
        <ele>51</ele>
        <time>2011-04-24T11:11:16Z</time>
      </trkpt>
      <trkpt lat="47.30079" lon="-2.53412">
        <ele>51</ele>
        <time>2011-04-24T11:11:18Z</time>
      </trkpt>
      <trkpt lat="47.30081" lon="-2.53403">
        <ele>51</ele>
        <time>2011-04-24T11:11:20Z</time>
      </trkpt>
      <trkpt lat="47.30081" lon="-2.53392">
        <ele>51</ele>
        <time>2011-04-24T11:11:22Z</time>
      </trkpt>
      <trkpt lat="47.30079" lon="-2.53383">
        <ele>51</ele>
        <time>2011-04-24T11:11:24Z</time>
      </trkpt>
      <trkpt lat="47.30077" lon="-2.53374">
        <ele>52</ele>
        <time>2011-04-24T11:11:26Z</time>
      </trkpt>
      <trkpt lat="47.30076" lon="-2.53365">
        <ele>52</ele>
        <time>2011-04-24T11:11:28Z</time>
      </trkpt>
      <trkpt lat="47.30074" lon="-2.53356">
        <ele>52</ele>
        <time>2011-04-24T11:11:30Z</time>
      </trkpt>
      <trkpt lat="47.30074" lon="-2.53347">
        <ele>52</ele>
        <time>2011-04-24T11:11:32Z</time>
      </trkpt>
      <trkpt lat="47.30072" lon="-2.53338">
        <ele>52</ele>
        <time>2011-04-24T11:11:34Z</time>
      </trkpt>
      <trkpt lat="47.3007" lon="-2.5333">
        <ele>52</ele>
        <time>2011-04-24T11:11:36Z</time>
      </trkpt>
      <trkpt lat="47.30068" lon="-2.53321">
        <ele>52</ele>
        <time>2011-04-24T11:11:38Z</time>
      </trkpt>
      <trkpt lat="47.30066" lon="-2.53312">
        <ele>52</ele>
        <time>2011-04-24T11:11:40Z</time>
      </trkpt>
      <trkpt lat="47.30064" lon="-2.53302">
        <ele>52</ele>
        <time>2011-04-24T11:11:42Z</time>
      </trkpt>
      <trkpt lat="47.30062" lon="-2.53293">
        <ele>52</ele>
        <time>2011-04-24T11:11:44Z</time>
      </trkpt>
      <trkpt lat="47.30059" lon="-2.53285">
        <ele>53</ele>
        <time>2011-04-24T11:11:46Z</time>
      </trkpt>
      <trkpt lat="47.30056" lon="-2.53277">
        <ele>53</ele>
        <time>2011-04-24T11:11:48Z</time>
      </trkpt>
      <trkpt lat="47.30054" lon="-2.53268">
        <ele>53</ele>
        <time>2011-04-24T11:11:50Z</time>
      </trkpt>
      <trkpt lat="47.30051" lon="-2.5326">
        <ele>53</ele>
        <time>2011-04-24T11:11:52Z</time>
      </trkpt>
      <trkpt lat="47.30048" lon="-2.53251">
        <ele>53</ele>
        <time>2011-04-24T11:11:54Z</time>
      </trkpt>
      <trkpt lat="47.30048" lon="-2.53242">
        <ele>54</ele>
        <time>2011-04-24T11:11:56Z</time>
      </trkpt>
      <trkpt lat="47.30047" lon="-2.53233">
        <ele>54</ele>
        <time>2011-04-24T11:11:58Z</time>
      </trkpt>
      <trkpt lat="47.30047" lon="-2.53224">
        <ele>54</ele>
        <time>2011-04-24T11:12:00Z</time>
      </trkpt>
      <trkpt lat="47.30046" lon="-2.53214">
        <ele>54</ele>
        <time>2011-04-24T11:12:02Z</time>
      </trkpt>
      <trkpt lat="47.30047" lon="-2.53205">
        <ele>54</ele>
        <time>2011-04-24T11:12:04Z</time>
      </trkpt>
      <trkpt lat="47.30047" lon="-2.53196">
        <ele>55</ele>
        <time>2011-04-24T11:12:06Z</time>
      </trkpt>
      <trkpt lat="47.30047" lon="-2.53188">
        <ele>55</ele>
        <time>2011-04-24T11:12:08Z</time>
      </trkpt>
      <trkpt lat="47.30047" lon="-2.53178">
        <ele>54</ele>
        <time>2011-04-24T11:12:10Z</time>
      </trkpt>
      <trkpt lat="47.30047" lon="-2.5317">
        <ele>54</ele>
        <time>2011-04-24T11:12:12Z</time>
      </trkpt>
      <trkpt lat="47.30046" lon="-2.53155">
        <ele>54</ele>
        <time>2011-04-24T11:12:15Z</time>
      </trkpt>
      <trkpt lat="47.30043" lon="-2.53146">
        <ele>54</ele>
        <time>2011-04-24T11:12:17Z</time>
      </trkpt>
      <trkpt lat="47.30041" lon="-2.53137">
        <ele>54</ele>
        <time>2011-04-24T11:12:19Z</time>
      </trkpt>
      <trkpt lat="47.30041" lon="-2.53128">
        <ele>54</ele>
        <time>2011-04-24T11:12:21Z</time>
      </trkpt>
      <trkpt lat="47.3004" lon="-2.53119">
        <ele>54</ele>
        <time>2011-04-24T11:12:23Z</time>
      </trkpt>
      <trkpt lat="47.3004" lon="-2.53109">
        <ele>55</ele>
        <time>2011-04-24T11:12:25Z</time>
      </trkpt>
      <trkpt lat="47.30038" lon="-2.53099">
        <ele>55</ele>
        <time>2011-04-24T11:12:27Z</time>
      </trkpt>
      <trkpt lat="47.30038" lon="-2.53089">
        <ele>55</ele>
        <time>2011-04-24T11:12:29Z</time>
      </trkpt>
      <trkpt lat="47.30038" lon="-2.5308">
        <ele>55</ele>
        <time>2011-04-24T11:12:31Z</time>
      </trkpt>
      <trkpt lat="47.30038" lon="-2.5307">
        <ele>55</ele>
        <time>2011-04-24T11:12:33Z</time>
      </trkpt>
      <trkpt lat="47.30038" lon="-2.5306">
        <ele>55</ele>
        <time>2011-04-24T11:12:35Z</time>
      </trkpt>
      <trkpt lat="47.30038" lon="-2.5305">
        <ele>56</ele>
        <time>2011-04-24T11:12:37Z</time>
      </trkpt>
      <trkpt lat="47.30038" lon="-2.53041">
        <ele>56</ele>
        <time>2011-04-24T11:12:39Z</time>
      </trkpt>
      <trkpt lat="47.3004" lon="-2.53031">
        <ele>56</ele>
        <time>2011-04-24T11:12:41Z</time>
      </trkpt>
      <trkpt lat="47.30041" lon="-2.53021">
        <ele>56</ele>
        <time>2011-04-24T11:12:43Z</time>
      </trkpt>
      <trkpt lat="47.30043" lon="-2.53012">
        <ele>56</ele>
        <time>2011-04-24T11:12:45Z</time>
      </trkpt>
      <trkpt lat="47.30046" lon="-2.53003">
        <ele>56</ele>
        <time>2011-04-24T11:12:47Z</time>
      </trkpt>
      <trkpt lat="47.30049" lon="-2.52994">
        <ele>56</ele>
        <time>2011-04-24T11:12:49Z</time>
      </trkpt>
      <trkpt lat="47.30052" lon="-2.52986">
        <ele>56</ele>
        <time>2011-04-24T11:12:51Z</time>
      </trkpt>
      <trkpt lat="47.30055" lon="-2.52977">
        <ele>56</ele>
        <time>2011-04-24T11:12:53Z</time>
      </trkpt>
      <trkpt lat="47.30058" lon="-2.52968">
        <ele>56</ele>
        <time>2011-04-24T11:12:55Z</time>
      </trkpt>
      <trkpt lat="47.30062" lon="-2.52958">
        <ele>56</ele>
        <time>2011-04-24T11:12:57Z</time>
      </trkpt>
      <trkpt lat="47.30064" lon="-2.52949">
        <ele>55</ele>
        <time>2011-04-24T11:12:59Z</time>
      </trkpt>
      <trkpt lat="47.30068" lon="-2.52941">
        <ele>55</ele>
        <time>2011-04-24T11:13:01Z</time>
      </trkpt>
      <trkpt lat="47.3007" lon="-2.52932">
        <ele>55</ele>
        <time>2011-04-24T11:13:03Z</time>
      </trkpt>
      <trkpt lat="47.30072" lon="-2.52923">
        <ele>55</ele>
        <time>2011-04-24T11:13:05Z</time>
      </trkpt>
      <trkpt lat="47.30074" lon="-2.52914">
        <ele>54</ele>
        <time>2011-04-24T11:13:07Z</time>
      </trkpt>
      <trkpt lat="47.30078" lon="-2.52904">
        <ele>54</ele>
        <time>2011-04-24T11:13:09Z</time>
      </trkpt>
      <trkpt lat="47.30079" lon="-2.52896">
        <ele>54</ele>
        <time>2011-04-24T11:13:11Z</time>
      </trkpt>
      <trkpt lat="47.3008" lon="-2.52887">
        <ele>54</ele>
        <time>2011-04-24T11:13:13Z</time>
      </trkpt>
      <trkpt lat="47.3008" lon="-2.52876">
        <ele>54</ele>
        <time>2011-04-24T11:13:15Z</time>
      </trkpt>
      <trkpt lat="47.30082" lon="-2.52865">
        <ele>54</ele>
        <time>2011-04-24T11:13:17Z</time>
      </trkpt>
      <trkpt lat="47.30085" lon="-2.52854">
        <ele>54</ele>
        <time>2011-04-24T11:13:19Z</time>
      </trkpt>
      <trkpt lat="47.30087" lon="-2.52845">
        <ele>53</ele>
        <time>2011-04-24T11:13:21Z</time>
      </trkpt>
      <trkpt lat="47.30089" lon="-2.52834">
        <ele>53</ele>
        <time>2011-04-24T11:13:23Z</time>
      </trkpt>
      <trkpt lat="47.30091" lon="-2.52823">
        <ele>53</ele>
        <time>2011-04-24T11:13:25Z</time>
      </trkpt>
      <trkpt lat="47.30091" lon="-2.52813">
        <ele>53</ele>
        <time>2011-04-24T11:13:27Z</time>
      </trkpt>
      <trkpt lat="47.30089" lon="-2.52802">
        <ele>53</ele>
        <time>2011-04-24T11:13:29Z</time>
      </trkpt>
      <trkpt lat="47.30088" lon="-2.52792">
        <ele>53</ele>
        <time>2011-04-24T11:13:31Z</time>
      </trkpt>
      <trkpt lat="47.3009" lon="-2.5278">
        <ele>53</ele>
        <time>2011-04-24T11:13:33Z</time>
      </trkpt>
      <trkpt lat="47.3009" lon="-2.5277">
        <ele>53</ele>
        <time>2011-04-24T11:13:35Z</time>
      </trkpt>
      <trkpt lat="47.30091" lon="-2.5276">
        <ele>53</ele>
        <time>2011-04-24T11:13:37Z</time>
      </trkpt>
      <trkpt lat="47.30093" lon="-2.52749">
        <ele>52</ele>
        <time>2011-04-24T11:13:39Z</time>
      </trkpt>
      <trkpt lat="47.30092" lon="-2.5274">
        <ele>53</ele>
        <time>2011-04-24T11:13:41Z</time>
      </trkpt>
      <trkpt lat="47.30094" lon="-2.5273">
        <ele>52</ele>
        <time>2011-04-24T11:13:43Z</time>
      </trkpt>
      <trkpt lat="47.30095" lon="-2.52719">
        <ele>52</ele>
        <time>2011-04-24T11:13:45Z</time>
      </trkpt>
      <trkpt lat="47.30096" lon="-2.5271">
        <ele>51</ele>
        <time>2011-04-24T11:13:47Z</time>
      </trkpt>
      <trkpt lat="47.30096" lon="-2.52702">
        <ele>51</ele>
        <time>2011-04-24T11:13:49Z</time>
      </trkpt>
      <trkpt lat="47.30096" lon="-2.52693">
        <ele>51</ele>
        <time>2011-04-24T11:13:51Z</time>
      </trkpt>
      <trkpt lat="47.30096" lon="-2.52683">
        <ele>50</ele>
        <time>2011-04-24T11:13:53Z</time>
      </trkpt>
      <trkpt lat="47.30096" lon="-2.52673">
        <ele>50</ele>
        <time>2011-04-24T11:13:55Z</time>
      </trkpt>
      <trkpt lat="47.30095" lon="-2.52662">
        <ele>50</ele>
        <time>2011-04-24T11:13:57Z</time>
      </trkpt>
      <trkpt lat="47.30093" lon="-2.52653">
        <ele>50</ele>
        <time>2011-04-24T11:13:59Z</time>
      </trkpt>
      <trkpt lat="47.30093" lon="-2.52643">
        <ele>49</ele>
        <time>2011-04-24T11:14:01Z</time>
      </trkpt>
      <trkpt lat="47.30092" lon="-2.52632">
        <ele>49</ele>
        <time>2011-04-24T11:14:03Z</time>
      </trkpt>
      <trkpt lat="47.30091" lon="-2.52622">
        <ele>49</ele>
        <time>2011-04-24T11:14:05Z</time>
      </trkpt>
      <trkpt lat="47.30089" lon="-2.52612">
        <ele>49</ele>
        <time>2011-04-24T11:14:07Z</time>
      </trkpt>
      <trkpt lat="47.30088" lon="-2.52602">
        <ele>50</ele>
        <time>2011-04-24T11:14:09Z</time>
      </trkpt>
      <trkpt lat="47.30086" lon="-2.52592">
        <ele>50</ele>
        <time>2011-04-24T11:14:11Z</time>
      </trkpt>
      <trkpt lat="47.30086" lon="-2.52581">
        <ele>50</ele>
        <time>2011-04-24T11:14:13Z</time>
      </trkpt>
      <trkpt lat="47.30085" lon="-2.52571">
        <ele>49</ele>
        <time>2011-04-24T11:14:15Z</time>
      </trkpt>
      <trkpt lat="47.30083" lon="-2.52562">
        <ele>49</ele>
        <time>2011-04-24T11:14:17Z</time>
      </trkpt>
      <trkpt lat="47.30082" lon="-2.52551">
        <ele>49</ele>
        <time>2011-04-24T11:14:19Z</time>
      </trkpt>
      <trkpt lat="47.30081" lon="-2.52541">
        <ele>49</ele>
        <time>2011-04-24T11:14:21Z</time>
      </trkpt>
      <trkpt lat="47.3008" lon="-2.5253">
        <ele>49</ele>
        <time>2011-04-24T11:14:23Z</time>
      </trkpt>
      <trkpt lat="47.3008" lon="-2.5252">
        <ele>48</ele>
        <time>2011-04-24T11:14:25Z</time>
      </trkpt>
      <trkpt lat="47.30079" lon="-2.5251">
        <ele>49</ele>
        <time>2011-04-24T11:14:27Z</time>
      </trkpt>
      <trkpt lat="47.30078" lon="-2.52501">
        <ele>49</ele>
        <time>2011-04-24T11:14:29Z</time>
      </trkpt>
      <trkpt lat="47.30077" lon="-2.52491">
        <ele>49</ele>
        <time>2011-04-24T11:14:31Z</time>
      </trkpt>
      <trkpt lat="47.30077" lon="-2.52481">
        <ele>49</ele>
        <time>2011-04-24T11:14:33Z</time>
      </trkpt>
      <trkpt lat="47.30076" lon="-2.5247">
        <ele>49</ele>
        <time>2011-04-24T11:14:35Z</time>
      </trkpt>
      <trkpt lat="47.30076" lon="-2.5246">
        <ele>49</ele>
        <time>2011-04-24T11:14:37Z</time>
      </trkpt>
      <trkpt lat="47.30074" lon="-2.5245">
        <ele>50</ele>
        <time>2011-04-24T11:14:39Z</time>
      </trkpt>
      <trkpt lat="47.30073" lon="-2.52439">
        <ele>50</ele>
        <time>2011-04-24T11:14:41Z</time>
      </trkpt>
      <trkpt lat="47.30072" lon="-2.5243">
        <ele>50</ele>
        <time>2011-04-24T11:14:43Z</time>
      </trkpt>
      <trkpt lat="47.30071" lon="-2.52419">
        <ele>50</ele>
        <time>2011-04-24T11:14:45Z</time>
      </trkpt>
      <trkpt lat="47.3007" lon="-2.5241">
        <ele>50</ele>
        <time>2011-04-24T11:14:47Z</time>
      </trkpt>
      <trkpt lat="47.3007" lon="-2.524">
        <ele>50</ele>
        <time>2011-04-24T11:14:49Z</time>
      </trkpt>
      <trkpt lat="47.30069" lon="-2.5239">
        <ele>50</ele>
        <time>2011-04-24T11:14:51Z</time>
      </trkpt>
      <trkpt lat="47.30068" lon="-2.5238">
        <ele>50</ele>
        <time>2011-04-24T11:14:53Z</time>
      </trkpt>
      <trkpt lat="47.30067" lon="-2.5237">
        <ele>49</ele>
        <time>2011-04-24T11:14:55Z</time>
      </trkpt>
      <trkpt lat="47.30066" lon="-2.5236">
        <ele>49</ele>
        <time>2011-04-24T11:14:57Z</time>
      </trkpt>
      <trkpt lat="47.30065" lon="-2.52351">
        <ele>49</ele>
        <time>2011-04-24T11:14:59Z</time>
      </trkpt>
      <trkpt lat="47.30064" lon="-2.52343">
        <ele>49</ele>
        <time>2011-04-24T11:15:01Z</time>
      </trkpt>
      <trkpt lat="47.30063" lon="-2.52335">
        <ele>50</ele>
        <time>2011-04-24T11:15:03Z</time>
      </trkpt>
      <trkpt lat="47.30062" lon="-2.52328">
        <ele>50</ele>
        <time>2011-04-24T11:15:05Z</time>
      </trkpt>
      <trkpt lat="47.30063" lon="-2.52319">
        <ele>49</ele>
        <time>2011-04-24T11:15:07Z</time>
      </trkpt>
      <trkpt lat="47.30062" lon="-2.5231">
        <ele>50</ele>
        <time>2011-04-24T11:15:09Z</time>
      </trkpt>
      <trkpt lat="47.3006" lon="-2.52303">
        <ele>50</ele>
        <time>2011-04-24T11:15:11Z</time>
      </trkpt>
      <trkpt lat="47.3006" lon="-2.52293">
        <ele>50</ele>
        <time>2011-04-24T11:15:13Z</time>
      </trkpt>
      <trkpt lat="47.30058" lon="-2.52284">
        <ele>50</ele>
        <time>2011-04-24T11:15:15Z</time>
      </trkpt>
      <trkpt lat="47.30057" lon="-2.52275">
        <ele>49</ele>
        <time>2011-04-24T11:15:17Z</time>
      </trkpt>
      <trkpt lat="47.30056" lon="-2.52266">
        <ele>49</ele>
        <time>2011-04-24T11:15:19Z</time>
      </trkpt>
      <trkpt lat="47.30055" lon="-2.52257">
        <ele>49</ele>
        <time>2011-04-24T11:15:21Z</time>
      </trkpt>
      <trkpt lat="47.30054" lon="-2.52248">
        <ele>48</ele>
        <time>2011-04-24T11:15:23Z</time>
      </trkpt>
      <trkpt lat="47.30052" lon="-2.5224">
        <ele>48</ele>
        <time>2011-04-24T11:15:25Z</time>
      </trkpt>
      <trkpt lat="47.30051" lon="-2.52231">
        <ele>49</ele>
        <time>2011-04-24T11:15:27Z</time>
      </trkpt>
      <trkpt lat="47.3005" lon="-2.52224">
        <ele>50</ele>
        <time>2011-04-24T11:15:29Z</time>
      </trkpt>
      <trkpt lat="47.30047" lon="-2.52219">
        <ele>50</ele>
        <time>2011-04-24T11:15:31Z</time>
      </trkpt>
      <trkpt lat="47.30045" lon="-2.5221">
        <ele>49</ele>
        <time>2011-04-24T11:15:33Z</time>
      </trkpt>
      <trkpt lat="47.30043" lon="-2.52202">
        <ele>50</ele>
        <time>2011-04-24T11:15:35Z</time>
      </trkpt>
      <trkpt lat="47.3004" lon="-2.52193">
        <ele>51</ele>
        <time>2011-04-24T11:15:37Z</time>
      </trkpt>
      <trkpt lat="47.30038" lon="-2.52185">
        <ele>52</ele>
        <time>2011-04-24T11:15:39Z</time>
      </trkpt>
      <trkpt lat="47.30036" lon="-2.52175">
        <ele>51</ele>
        <time>2011-04-24T11:15:41Z</time>
      </trkpt>
      <trkpt lat="47.30035" lon="-2.52166">
        <ele>51</ele>
        <time>2011-04-24T11:15:43Z</time>
      </trkpt>
      <trkpt lat="47.30034" lon="-2.52156">
        <ele>52</ele>
        <time>2011-04-24T11:15:45Z</time>
      </trkpt>
      <trkpt lat="47.30034" lon="-2.52147">
        <ele>52</ele>
        <time>2011-04-24T11:15:47Z</time>
      </trkpt>
      <trkpt lat="47.30034" lon="-2.52139">
        <ele>52</ele>
        <time>2011-04-24T11:15:49Z</time>
      </trkpt>
      <trkpt lat="47.30033" lon="-2.5213">
        <ele>52</ele>
        <time>2011-04-24T11:15:51Z</time>
      </trkpt>
      <trkpt lat="47.30032" lon="-2.52121">
        <ele>52</ele>
        <time>2011-04-24T11:15:53Z</time>
      </trkpt>
      <trkpt lat="47.3003" lon="-2.52112">
        <ele>52</ele>
        <time>2011-04-24T11:15:55Z</time>
      </trkpt>
      <trkpt lat="47.3003" lon="-2.52102">
        <ele>52</ele>
        <time>2011-04-24T11:15:57Z</time>
      </trkpt>
      <trkpt lat="47.30028" lon="-2.52093">
        <ele>52</ele>
        <time>2011-04-24T11:15:59Z</time>
      </trkpt>
      <trkpt lat="47.30027" lon="-2.52084">
        <ele>52</ele>
        <time>2011-04-24T11:16:01Z</time>
      </trkpt>
      <trkpt lat="47.30026" lon="-2.52074">
        <ele>52</ele>
        <time>2011-04-24T11:16:03Z</time>
      </trkpt>
      <trkpt lat="47.30025" lon="-2.52063">
        <ele>52</ele>
        <time>2011-04-24T11:16:05Z</time>
      </trkpt>
      <trkpt lat="47.30024" lon="-2.52054">
        <ele>52</ele>
        <time>2011-04-24T11:16:07Z</time>
      </trkpt>
      <trkpt lat="47.30022" lon="-2.52045">
        <ele>52</ele>
        <time>2011-04-24T11:16:09Z</time>
      </trkpt>
      <trkpt lat="47.30021" lon="-2.52036">
        <ele>52</ele>
        <time>2011-04-24T11:16:11Z</time>
      </trkpt>
      <trkpt lat="47.3002" lon="-2.52028">
        <ele>52</ele>
        <time>2011-04-24T11:16:13Z</time>
      </trkpt>
      <trkpt lat="47.30019" lon="-2.52019">
        <ele>52</ele>
        <time>2011-04-24T11:16:15Z</time>
      </trkpt>
      <trkpt lat="47.30018" lon="-2.5201">
        <ele>52</ele>
        <time>2011-04-24T11:16:17Z</time>
      </trkpt>
      <trkpt lat="47.30018" lon="-2.52">
        <ele>52</ele>
        <time>2011-04-24T11:16:19Z</time>
      </trkpt>
      <trkpt lat="47.30017" lon="-2.51992">
        <ele>52</ele>
        <time>2011-04-24T11:16:21Z</time>
      </trkpt>
      <trkpt lat="47.30017" lon="-2.51985">
        <ele>53</ele>
        <time>2011-04-24T11:16:23Z</time>
      </trkpt>
      <trkpt lat="47.30016" lon="-2.51978">
        <ele>52</ele>
        <time>2011-04-24T11:16:25Z</time>
      </trkpt>
      <trkpt lat="47.30011" lon="-2.51974">
        <ele>54</ele>
        <time>2011-04-24T11:16:28Z</time>
      </trkpt>
      <trkpt lat="47.30006" lon="-2.5197">
        <ele>57</ele>
        <time>2011-04-24T11:16:30Z</time>
      </trkpt>
      <trkpt lat="47.30002" lon="-2.51966">
        <ele>58</ele>
        <time>2011-04-24T11:16:32Z</time>
      </trkpt>
      <trkpt lat="47.29997" lon="-2.5196">
        <ele>59</ele>
        <time>2011-04-24T11:16:34Z</time>
      </trkpt>
      <trkpt lat="47.29991" lon="-2.51953">
        <ele>60</ele>
        <time>2011-04-24T11:16:36Z</time>
      </trkpt>
      <trkpt lat="47.29986" lon="-2.51945">
        <ele>61</ele>
        <time>2011-04-24T11:16:38Z</time>
      </trkpt>
      <trkpt lat="47.29981" lon="-2.5194">
        <ele>65</ele>
        <time>2011-04-24T11:16:40Z</time>
      </trkpt>
      <trkpt lat="47.29975" lon="-2.51932">
        <ele>66</ele>
        <time>2011-04-24T11:16:42Z</time>
      </trkpt>
      <trkpt lat="47.29972" lon="-2.51924">
        <ele>66</ele>
        <time>2011-04-24T11:16:44Z</time>
      </trkpt>
      <trkpt lat="47.2997" lon="-2.51917">
        <ele>65</ele>
        <time>2011-04-24T11:16:45Z</time>
      </trkpt>
      <trkpt lat="47.29965" lon="-2.51908">
        <ele>65</ele>
        <time>2011-04-24T11:16:47Z</time>
      </trkpt>
      <trkpt lat="47.29961" lon="-2.51898">
        <ele>63</ele>
        <time>2011-04-24T11:16:49Z</time>
      </trkpt>
      <trkpt lat="47.29956" lon="-2.5189">
        <ele>63</ele>
        <time>2011-04-24T11:16:51Z</time>
      </trkpt>
      <trkpt lat="47.29952" lon="-2.51883">
        <ele>65</ele>
        <time>2011-04-24T11:16:53Z</time>
      </trkpt>
      <trkpt lat="47.29947" lon="-2.51876">
        <ele>65</ele>
        <time>2011-04-24T11:16:55Z</time>
      </trkpt>
      <trkpt lat="47.29941" lon="-2.51868">
        <ele>64</ele>
        <time>2011-04-24T11:16:57Z</time>
      </trkpt>
      <trkpt lat="47.29937" lon="-2.51859">
        <ele>64</ele>
        <time>2011-04-24T11:16:59Z</time>
      </trkpt>
      <trkpt lat="47.29933" lon="-2.51855">
        <ele>65</ele>
        <time>2011-04-24T11:17:00Z</time>
      </trkpt>
      <trkpt lat="47.29927" lon="-2.51847">
        <ele>65</ele>
        <time>2011-04-24T11:17:02Z</time>
      </trkpt>
      <trkpt lat="47.29923" lon="-2.51842">
        <ele>65</ele>
        <time>2011-04-24T11:17:03Z</time>
      </trkpt>
      <trkpt lat="47.29919" lon="-2.51833">
        <ele>66</ele>
        <time>2011-04-24T11:17:05Z</time>
      </trkpt>
      <trkpt lat="47.29915" lon="-2.51821">
        <ele>66</ele>
        <time>2011-04-24T11:17:07Z</time>
      </trkpt>
      <trkpt lat="47.2991" lon="-2.51811">
        <ele>66</ele>
        <time>2011-04-24T11:17:09Z</time>
      </trkpt>
      <trkpt lat="47.29906" lon="-2.51801">
        <ele>66</ele>
        <time>2011-04-24T11:17:11Z</time>
      </trkpt>
      <trkpt lat="47.29901" lon="-2.51791">
        <ele>66</ele>
        <time>2011-04-24T11:17:13Z</time>
      </trkpt>
      <trkpt lat="47.29897" lon="-2.51781">
        <ele>66</ele>
        <time>2011-04-24T11:17:15Z</time>
      </trkpt>
      <trkpt lat="47.29894" lon="-2.5177">
        <ele>66</ele>
        <time>2011-04-24T11:17:17Z</time>
      </trkpt>
      <trkpt lat="47.29891" lon="-2.51759">
        <ele>66</ele>
        <time>2011-04-24T11:17:19Z</time>
      </trkpt>
      <trkpt lat="47.29887" lon="-2.51749">
        <ele>65</ele>
        <time>2011-04-24T11:17:21Z</time>
      </trkpt>
      <trkpt lat="47.29886" lon="-2.51742">
        <ele>65</ele>
        <time>2011-04-24T11:17:22Z</time>
      </trkpt>
      <trkpt lat="47.29881" lon="-2.51732">
        <ele>64</ele>
        <time>2011-04-24T11:17:24Z</time>
      </trkpt>
      <trkpt lat="47.29878" lon="-2.51721">
        <ele>63</ele>
        <time>2011-04-24T11:17:26Z</time>
      </trkpt>
      <trkpt lat="47.29874" lon="-2.5171">
        <ele>63</ele>
        <time>2011-04-24T11:17:28Z</time>
      </trkpt>
      <trkpt lat="47.29871" lon="-2.517">
        <ele>63</ele>
        <time>2011-04-24T11:17:30Z</time>
      </trkpt>
      <trkpt lat="47.29867" lon="-2.51688">
        <ele>62</ele>
        <time>2011-04-24T11:17:32Z</time>
      </trkpt>
      <trkpt lat="47.29864" lon="-2.51678">
        <ele>61</ele>
        <time>2011-04-24T11:17:34Z</time>
      </trkpt>
      <trkpt lat="47.29862" lon="-2.51666">
        <ele>61</ele>
        <time>2011-04-24T11:17:36Z</time>
      </trkpt>
      <trkpt lat="47.29859" lon="-2.51655">
        <ele>61</ele>
        <time>2011-04-24T11:17:38Z</time>
      </trkpt>
      <trkpt lat="47.29855" lon="-2.51643">
        <ele>60</ele>
        <time>2011-04-24T11:17:40Z</time>
      </trkpt>
      <trkpt lat="47.29852" lon="-2.51632">
        <ele>60</ele>
        <time>2011-04-24T11:17:42Z</time>
      </trkpt>
      <trkpt lat="47.29848" lon="-2.51621">
        <ele>61</ele>
        <time>2011-04-24T11:17:44Z</time>
      </trkpt>
      <trkpt lat="47.29845" lon="-2.5161">
        <ele>61</ele>
        <time>2011-04-24T11:17:46Z</time>
      </trkpt>
      <trkpt lat="47.29842" lon="-2.51601">
        <ele>61</ele>
        <time>2011-04-24T11:17:48Z</time>
      </trkpt>
      <trkpt lat="47.29838" lon="-2.5159">
        <ele>61</ele>
        <time>2011-04-24T11:17:50Z</time>
      </trkpt>
      <trkpt lat="47.29833" lon="-2.5158">
        <ele>61</ele>
        <time>2011-04-24T11:17:52Z</time>
      </trkpt>
      <trkpt lat="47.29829" lon="-2.51577">
        <ele>62</ele>
        <time>2011-04-24T11:17:53Z</time>
      </trkpt>
      <trkpt lat="47.29824" lon="-2.51566">
        <ele>63</ele>
        <time>2011-04-24T11:17:55Z</time>
      </trkpt>
      <trkpt lat="47.2982" lon="-2.51557">
        <ele>65</ele>
        <time>2011-04-24T11:17:57Z</time>
      </trkpt>
      <trkpt lat="47.29816" lon="-2.51552">
        <ele>64</ele>
        <time>2011-04-24T11:17:58Z</time>
      </trkpt>
      <trkpt lat="47.29812" lon="-2.51542">
        <ele>64</ele>
        <time>2011-04-24T11:18:00Z</time>
      </trkpt>
      <trkpt lat="47.29807" lon="-2.51534">
        <ele>65</ele>
        <time>2011-04-24T11:18:02Z</time>
      </trkpt>
      <trkpt lat="47.29804" lon="-2.51526">
        <ele>66</ele>
        <time>2011-04-24T11:18:04Z</time>
      </trkpt>
      <trkpt lat="47.298" lon="-2.51519">
        <ele>67</ele>
        <time>2011-04-24T11:18:06Z</time>
      </trkpt>
      <trkpt lat="47.29798" lon="-2.51513">
        <ele>68</ele>
        <time>2011-04-24T11:18:09Z</time>
      </trkpt>
      <trkpt lat="47.29796" lon="-2.51504">
        <ele>67</ele>
        <time>2011-04-24T11:18:12Z</time>
      </trkpt>
      <trkpt lat="47.29796" lon="-2.51496">
        <ele>68</ele>
        <time>2011-04-24T11:18:14Z</time>
      </trkpt>
      <trkpt lat="47.29792" lon="-2.51491">
        <ele>66</ele>
        <time>2011-04-24T11:18:16Z</time>
      </trkpt>
      <trkpt lat="47.29786" lon="-2.51489">
        <ele>66</ele>
        <time>2011-04-24T11:18:18Z</time>
      </trkpt>
      <trkpt lat="47.2978" lon="-2.51486">
        <ele>67</ele>
        <time>2011-04-24T11:18:20Z</time>
      </trkpt>
      <trkpt lat="47.29775" lon="-2.51483">
        <ele>66</ele>
        <time>2011-04-24T11:18:22Z</time>
      </trkpt>
      <trkpt lat="47.2977" lon="-2.51479">
        <ele>66</ele>
        <time>2011-04-24T11:18:24Z</time>
      </trkpt>
      <trkpt lat="47.29765" lon="-2.51476">
        <ele>66</ele>
        <time>2011-04-24T11:18:26Z</time>
      </trkpt>
      <trkpt lat="47.2976" lon="-2.51472">
        <ele>66</ele>
        <time>2011-04-24T11:18:28Z</time>
      </trkpt>
      <trkpt lat="47.29755" lon="-2.51469">
        <ele>67</ele>
        <time>2011-04-24T11:18:30Z</time>
      </trkpt>
      <trkpt lat="47.29749" lon="-2.51467">
        <ele>66</ele>
        <time>2011-04-24T11:18:32Z</time>
      </trkpt>
      <trkpt lat="47.29744" lon="-2.51464">
        <ele>67</ele>
        <time>2011-04-24T11:18:34Z</time>
      </trkpt>
      <trkpt lat="47.29737" lon="-2.5146">
        <ele>67</ele>
        <time>2011-04-24T11:18:36Z</time>
      </trkpt>
      <trkpt lat="47.29732" lon="-2.51456">
        <ele>67</ele>
        <time>2011-04-24T11:18:38Z</time>
      </trkpt>
      <trkpt lat="47.29727" lon="-2.51451">
        <ele>68</ele>
        <time>2011-04-24T11:18:40Z</time>
      </trkpt>
      <trkpt lat="47.29721" lon="-2.51447">
        <ele>68</ele>
        <time>2011-04-24T11:18:42Z</time>
      </trkpt>
      <trkpt lat="47.29715" lon="-2.51444">
        <ele>67</ele>
        <time>2011-04-24T11:18:44Z</time>
      </trkpt>
      <trkpt lat="47.29709" lon="-2.51439">
        <ele>67</ele>
        <time>2011-04-24T11:18:46Z</time>
      </trkpt>
      <trkpt lat="47.29704" lon="-2.51434">
        <ele>67</ele>
        <time>2011-04-24T11:18:48Z</time>
      </trkpt>
      <trkpt lat="47.29699" lon="-2.51428">
        <ele>67</ele>
        <time>2011-04-24T11:18:51Z</time>
      </trkpt>
      <trkpt lat="47.29694" lon="-2.51422">
        <ele>68</ele>
        <time>2011-04-24T11:18:53Z</time>
      </trkpt>
      <trkpt lat="47.29687" lon="-2.51418">
        <ele>68</ele>
        <time>2011-04-24T11:18:55Z</time>
      </trkpt>
      <trkpt lat="47.29681" lon="-2.51415">
        <ele>68</ele>
        <time>2011-04-24T11:18:57Z</time>
      </trkpt>
      <trkpt lat="47.29675" lon="-2.5141">
        <ele>68</ele>
        <time>2011-04-24T11:18:59Z</time>
      </trkpt>
      <trkpt lat="47.29669" lon="-2.51406">
        <ele>68</ele>
        <time>2011-04-24T11:19:01Z</time>
      </trkpt>
      <trkpt lat="47.29664" lon="-2.51402">
        <ele>70</ele>
        <time>2011-04-24T11:19:04Z</time>
      </trkpt>
      <trkpt lat="47.29658" lon="-2.51398">
        <ele>69</ele>
        <time>2011-04-24T11:19:06Z</time>
      </trkpt>
      <trkpt lat="47.29652" lon="-2.51394">
        <ele>67</ele>
        <time>2011-04-24T11:19:08Z</time>
      </trkpt>
      <trkpt lat="47.29645" lon="-2.5139">
        <ele>66</ele>
        <time>2011-04-24T11:19:10Z</time>
      </trkpt>
      <trkpt lat="47.29639" lon="-2.51385">
        <ele>65</ele>
        <time>2011-04-24T11:19:12Z</time>
      </trkpt>
      <trkpt lat="47.29634" lon="-2.51381">
        <ele>64</ele>
        <time>2011-04-24T11:19:14Z</time>
      </trkpt>
      <trkpt lat="47.29629" lon="-2.51376">
        <ele>63</ele>
        <time>2011-04-24T11:19:16Z</time>
      </trkpt>
      <trkpt lat="47.29624" lon="-2.51371">
        <ele>62</ele>
        <time>2011-04-24T11:19:18Z</time>
      </trkpt>
      <trkpt lat="47.29617" lon="-2.51368">
        <ele>61</ele>
        <time>2011-04-24T11:19:20Z</time>
      </trkpt>
      <trkpt lat="47.29613" lon="-2.51363">
        <ele>61</ele>
        <time>2011-04-24T11:19:22Z</time>
      </trkpt>
      <trkpt lat="47.29608" lon="-2.51359">
        <ele>61</ele>
        <time>2011-04-24T11:19:24Z</time>
      </trkpt>
      <trkpt lat="47.29604" lon="-2.51355">
        <ele>62</ele>
        <time>2011-04-24T11:19:26Z</time>
      </trkpt>
      <trkpt lat="47.29598" lon="-2.5135">
        <ele>62</ele>
        <time>2011-04-24T11:19:28Z</time>
      </trkpt>
      <trkpt lat="47.29593" lon="-2.51346">
        <ele>62</ele>
        <time>2011-04-24T11:19:30Z</time>
      </trkpt>
      <trkpt lat="47.29588" lon="-2.51343">
        <ele>63</ele>
        <time>2011-04-24T11:19:32Z</time>
      </trkpt>
      <trkpt lat="47.29582" lon="-2.51341">
        <ele>63</ele>
        <time>2011-04-24T11:19:35Z</time>
      </trkpt>
      <trkpt lat="47.29577" lon="-2.51339">
        <ele>64</ele>
        <time>2011-04-24T11:19:37Z</time>
      </trkpt>
      <trkpt lat="47.2957" lon="-2.51334">
        <ele>65</ele>
        <time>2011-04-24T11:19:40Z</time>
      </trkpt>
      <trkpt lat="47.29565" lon="-2.51333">
        <ele>65</ele>
        <time>2011-04-24T11:19:42Z</time>
      </trkpt>
      <trkpt lat="47.2956" lon="-2.51333">
        <ele>63</ele>
        <time>2011-04-24T11:19:48Z</time>
      </trkpt>
      <trkpt lat="47.29556" lon="-2.51338">
        <ele>63</ele>
        <time>2011-04-24T11:19:53Z</time>
      </trkpt>
      <trkpt lat="47.2955" lon="-2.51339">
        <ele>62</ele>
        <time>2011-04-24T11:19:58Z</time>
      </trkpt>
      <trkpt lat="47.29549" lon="-2.51332">
        <ele>57</ele>
        <time>2011-04-24T11:21:39Z</time>
      </trkpt>
      <trkpt lat="47.29544" lon="-2.51324">
        <ele>59</ele>
        <time>2011-04-24T11:21:42Z</time>
      </trkpt>
      <trkpt lat="47.29543" lon="-2.51318">
        <ele>58</ele>
        <time>2011-04-24T11:21:44Z</time>
      </trkpt>
      <trkpt lat="47.29541" lon="-2.51311">
        <ele>57</ele>
        <time>2011-04-24T11:21:46Z</time>
      </trkpt>
      <trkpt lat="47.2954" lon="-2.51305">
        <ele>58</ele>
        <time>2011-04-24T11:21:48Z</time>
      </trkpt>
      <trkpt lat="47.29537" lon="-2.51299">
        <ele>58</ele>
        <time>2011-04-24T11:21:50Z</time>
      </trkpt>
      <trkpt lat="47.29535" lon="-2.51292">
        <ele>58</ele>
        <time>2011-04-24T11:21:52Z</time>
      </trkpt>
      <trkpt lat="47.29534" lon="-2.51284">
        <ele>58</ele>
        <time>2011-04-24T11:21:54Z</time>
      </trkpt>
      <trkpt lat="47.29533" lon="-2.51277">
        <ele>58</ele>
        <time>2011-04-24T11:21:56Z</time>
      </trkpt>
      <trkpt lat="47.29532" lon="-2.5127">
        <ele>58</ele>
        <time>2011-04-24T11:21:58Z</time>
      </trkpt>
      <trkpt lat="47.29529" lon="-2.51263">
        <ele>59</ele>
        <time>2011-04-24T11:22:02Z</time>
      </trkpt>
      <trkpt lat="47.29527" lon="-2.51255">
        <ele>60</ele>
        <time>2011-04-24T11:22:05Z</time>
      </trkpt>
      <trkpt lat="47.29526" lon="-2.51247">
        <ele>60</ele>
        <time>2011-04-24T11:22:07Z</time>
      </trkpt>
      <trkpt lat="47.29524" lon="-2.51239">
        <ele>62</ele>
        <time>2011-04-24T11:22:09Z</time>
      </trkpt>
      <trkpt lat="47.29521" lon="-2.51233">
        <ele>63</ele>
        <time>2011-04-24T11:22:13Z</time>
      </trkpt>
      <trkpt lat="47.29518" lon="-2.51225">
        <ele>63</ele>
        <time>2011-04-24T11:22:19Z</time>
      </trkpt>
      <trkpt lat="47.29517" lon="-2.51219">
        <ele>63</ele>
        <time>2011-04-24T11:22:24Z</time>
      </trkpt>
      <trkpt lat="47.29516" lon="-2.5121">
        <ele>64</ele>
        <time>2011-04-24T11:22:27Z</time>
      </trkpt>
      <trkpt lat="47.29515" lon="-2.51202">
        <ele>63</ele>
        <time>2011-04-24T11:22:29Z</time>
      </trkpt>
      <trkpt lat="47.29513" lon="-2.51196">
        <ele>64</ele>
        <time>2011-04-24T11:22:31Z</time>
      </trkpt>
      <trkpt lat="47.29512" lon="-2.51189">
        <ele>65</ele>
        <time>2011-04-24T11:22:33Z</time>
      </trkpt>
      <trkpt lat="47.29509" lon="-2.51184">
        <ele>66</ele>
        <time>2011-04-24T11:22:35Z</time>
      </trkpt>
      <trkpt lat="47.29508" lon="-2.51177">
        <ele>66</ele>
        <time>2011-04-24T11:22:37Z</time>
      </trkpt>
      <trkpt lat="47.29506" lon="-2.5117">
        <ele>66</ele>
        <time>2011-04-24T11:22:39Z</time>
      </trkpt>
      <trkpt lat="47.29505" lon="-2.51164">
        <ele>66</ele>
        <time>2011-04-24T11:22:41Z</time>
      </trkpt>
      <trkpt lat="47.29503" lon="-2.51157">
        <ele>66</ele>
        <time>2011-04-24T11:22:43Z</time>
      </trkpt>
      <trkpt lat="47.295" lon="-2.51151">
        <ele>66</ele>
        <time>2011-04-24T11:22:45Z</time>
      </trkpt>
      <trkpt lat="47.29496" lon="-2.51145">
        <ele>67</ele>
        <time>2011-04-24T11:22:48Z</time>
      </trkpt>
      <trkpt lat="47.29492" lon="-2.5114">
        <ele>67</ele>
        <time>2011-04-24T11:22:51Z</time>
      </trkpt>
      <trkpt lat="47.29489" lon="-2.51134">
        <ele>67</ele>
        <time>2011-04-24T11:22:55Z</time>
      </trkpt>
      <trkpt lat="47.29486" lon="-2.51127">
        <ele>66</ele>
        <time>2011-04-24T11:22:59Z</time>
      </trkpt>
      <trkpt lat="47.29481" lon="-2.51123">
        <ele>65</ele>
        <time>2011-04-24T11:23:02Z</time>
      </trkpt>
      <trkpt lat="47.29475" lon="-2.51118">
        <ele>64</ele>
        <time>2011-04-24T11:23:05Z</time>
      </trkpt>
      <trkpt lat="47.29469" lon="-2.51113">
        <ele>64</ele>
        <time>2011-04-24T11:23:08Z</time>
      </trkpt>
      <trkpt lat="47.29465" lon="-2.51107">
        <ele>64</ele>
        <time>2011-04-24T11:23:11Z</time>
      </trkpt>
      <trkpt lat="47.2946" lon="-2.511">
        <ele>64</ele>
        <time>2011-04-24T11:23:14Z</time>
      </trkpt>
      <trkpt lat="47.29456" lon="-2.51097">
        <ele>64</ele>
        <time>2011-04-24T11:23:16Z</time>
      </trkpt>
      <trkpt lat="47.29452" lon="-2.51088">
        <ele>64</ele>
        <time>2011-04-24T11:23:19Z</time>
      </trkpt>
      <trkpt lat="47.29447" lon="-2.51082">
        <ele>64</ele>
        <time>2011-04-24T11:23:22Z</time>
      </trkpt>
      <trkpt lat="47.29442" lon="-2.51075">
        <ele>64</ele>
        <time>2011-04-24T11:23:25Z</time>
      </trkpt>
      <trkpt lat="47.29437" lon="-2.51071">
        <ele>64</ele>
        <time>2011-04-24T11:23:27Z</time>
      </trkpt>
      <trkpt lat="47.29432" lon="-2.51066">
        <ele>64</ele>
        <time>2011-04-24T11:23:29Z</time>
      </trkpt>
      <trkpt lat="47.29429" lon="-2.51061">
        <ele>64</ele>
        <time>2011-04-24T11:23:31Z</time>
      </trkpt>
      <trkpt lat="47.29425" lon="-2.51056">
        <ele>64</ele>
        <time>2011-04-24T11:23:33Z</time>
      </trkpt>
      <trkpt lat="47.29421" lon="-2.51052">
        <ele>63</ele>
        <time>2011-04-24T11:23:35Z</time>
      </trkpt>
      <trkpt lat="47.29416" lon="-2.51047">
        <ele>63</ele>
        <time>2011-04-24T11:23:37Z</time>
      </trkpt>
      <trkpt lat="47.29412" lon="-2.51041">
        <ele>62</ele>
        <time>2011-04-24T11:23:39Z</time>
      </trkpt>
      <trkpt lat="47.29407" lon="-2.51036">
        <ele>62</ele>
        <time>2011-04-24T11:23:41Z</time>
      </trkpt>
      <trkpt lat="47.29403" lon="-2.51032">
        <ele>62</ele>
        <time>2011-04-24T11:23:43Z</time>
      </trkpt>
      <trkpt lat="47.294" lon="-2.51026">
        <ele>62</ele>
        <time>2011-04-24T11:23:45Z</time>
      </trkpt>
      <trkpt lat="47.29396" lon="-2.51018">
        <ele>62</ele>
        <time>2011-04-24T11:23:48Z</time>
      </trkpt>
      <trkpt lat="47.29392" lon="-2.51013">
        <ele>63</ele>
        <time>2011-04-24T11:23:51Z</time>
      </trkpt>
      <trkpt lat="47.2939" lon="-2.51005">
        <ele>65</ele>
        <time>2011-04-24T11:23:56Z</time>
      </trkpt>
      <trkpt lat="47.29392" lon="-2.50997">
        <ele>66</ele>
        <time>2011-04-24T11:24:01Z</time>
      </trkpt>
      <trkpt lat="47.29393" lon="-2.5099">
        <ele>67</ele>
        <time>2011-04-24T11:24:05Z</time>
      </trkpt>
      <trkpt lat="47.29392" lon="-2.50982">
        <ele>66</ele>
        <time>2011-04-24T11:24:10Z</time>
      </trkpt>
      <trkpt lat="47.29388" lon="-2.50977">
        <ele>66</ele>
        <time>2011-04-24T11:24:13Z</time>
      </trkpt>
      <trkpt lat="47.29385" lon="-2.50971">
        <ele>66</ele>
        <time>2011-04-24T11:24:16Z</time>
      </trkpt>
      <trkpt lat="47.29384" lon="-2.50964">
        <ele>66</ele>
        <time>2011-04-24T11:24:19Z</time>
      </trkpt>
      <trkpt lat="47.2938" lon="-2.50958">
        <ele>66</ele>
        <time>2011-04-24T11:24:22Z</time>
      </trkpt>
      <trkpt lat="47.29377" lon="-2.50952">
        <ele>67</ele>
        <time>2011-04-24T11:24:25Z</time>
      </trkpt>
      <trkpt lat="47.29374" lon="-2.50946">
        <ele>67</ele>
        <time>2011-04-24T11:24:28Z</time>
      </trkpt>
      <trkpt lat="47.2937" lon="-2.50942">
        <ele>67</ele>
        <time>2011-04-24T11:24:31Z</time>
      </trkpt>
      <trkpt lat="47.29365" lon="-2.5094">
        <ele>67</ele>
        <time>2011-04-24T11:24:34Z</time>
      </trkpt>
      <trkpt lat="47.2936" lon="-2.50937">
        <ele>67</ele>
        <time>2011-04-24T11:24:37Z</time>
      </trkpt>
      <trkpt lat="47.29356" lon="-2.50934">
        <ele>67</ele>
        <time>2011-04-24T11:24:39Z</time>
      </trkpt>
      <trkpt lat="47.2935" lon="-2.50932">
        <ele>67</ele>
        <time>2011-04-24T11:24:42Z</time>
      </trkpt>
      <trkpt lat="47.29345" lon="-2.50931">
        <ele>67</ele>
        <time>2011-04-24T11:24:45Z</time>
      </trkpt>
      <trkpt lat="47.29339" lon="-2.50928">
        <ele>66</ele>
        <time>2011-04-24T11:24:48Z</time>
      </trkpt>
      <trkpt lat="47.29334" lon="-2.50923">
        <ele>67</ele>
        <time>2011-04-24T11:24:51Z</time>
      </trkpt>
      <trkpt lat="47.29328" lon="-2.50918">
        <ele>68</ele>
        <time>2011-04-24T11:24:54Z</time>
      </trkpt>
      <trkpt lat="47.29322" lon="-2.50914">
        <ele>68</ele>
        <time>2011-04-24T11:24:57Z</time>
      </trkpt>
      <trkpt lat="47.29315" lon="-2.50911">
        <ele>68</ele>
        <time>2011-04-24T11:25:00Z</time>
      </trkpt>
      <trkpt lat="47.29309" lon="-2.50908">
        <ele>67</ele>
        <time>2011-04-24T11:25:03Z</time>
      </trkpt>
      <trkpt lat="47.29304" lon="-2.50908">
        <ele>68</ele>
        <time>2011-04-24T11:25:05Z</time>
      </trkpt>
      <trkpt lat="47.29299" lon="-2.50909">
        <ele>67</ele>
        <time>2011-04-24T11:25:07Z</time>
      </trkpt>
      <trkpt lat="47.29294" lon="-2.50912">
        <ele>67</ele>
        <time>2011-04-24T11:25:09Z</time>
      </trkpt>
      <trkpt lat="47.29288" lon="-2.50916">
        <ele>67</ele>
        <time>2011-04-24T11:25:12Z</time>
      </trkpt>
      <trkpt lat="47.2928" lon="-2.50914">
        <ele>67</ele>
        <time>2011-04-24T11:25:15Z</time>
      </trkpt>
      <trkpt lat="47.29277" lon="-2.50907">
        <ele>66</ele>
        <time>2011-04-24T11:25:17Z</time>
      </trkpt>
      <trkpt lat="47.29274" lon="-2.50899">
        <ele>66</ele>
        <time>2011-04-24T11:25:19Z</time>
      </trkpt>
      <trkpt lat="47.2927" lon="-2.50893">
        <ele>65</ele>
        <time>2011-04-24T11:25:21Z</time>
      </trkpt>
      <trkpt lat="47.29266" lon="-2.50888">
        <ele>65</ele>
        <time>2011-04-24T11:25:23Z</time>
      </trkpt>
      <trkpt lat="47.29261" lon="-2.50883">
        <ele>65</ele>
        <time>2011-04-24T11:25:25Z</time>
      </trkpt>
      <trkpt lat="47.29255" lon="-2.50879">
        <ele>65</ele>
        <time>2011-04-24T11:25:27Z</time>
      </trkpt>
      <trkpt lat="47.29249" lon="-2.50875">
        <ele>65</ele>
        <time>2011-04-24T11:25:29Z</time>
      </trkpt>
      <trkpt lat="47.29245" lon="-2.50872">
        <ele>66</ele>
        <time>2011-04-24T11:25:31Z</time>
      </trkpt>
      <trkpt lat="47.2924" lon="-2.5087">
        <ele>66</ele>
        <time>2011-04-24T11:25:33Z</time>
      </trkpt>
      <trkpt lat="47.29236" lon="-2.5086">
        <ele>66</ele>
        <time>2011-04-24T11:25:36Z</time>
      </trkpt>
      <trkpt lat="47.29234" lon="-2.50852">
        <ele>65</ele>
        <time>2011-04-24T11:25:38Z</time>
      </trkpt>
      <trkpt lat="47.29231" lon="-2.50845">
        <ele>66</ele>
        <time>2011-04-24T11:25:40Z</time>
      </trkpt>
      <trkpt lat="47.29229" lon="-2.50836">
        <ele>66</ele>
        <time>2011-04-24T11:25:42Z</time>
      </trkpt>
      <trkpt lat="47.29226" lon="-2.50828">
        <ele>67</ele>
        <time>2011-04-24T11:25:44Z</time>
      </trkpt>
      <trkpt lat="47.2922" lon="-2.50821">
        <ele>66</ele>
        <time>2011-04-24T11:25:46Z</time>
      </trkpt>
      <trkpt lat="47.29215" lon="-2.50815">
        <ele>65</ele>
        <time>2011-04-24T11:25:48Z</time>
      </trkpt>
      <trkpt lat="47.2921" lon="-2.50808">
        <ele>66</ele>
        <time>2011-04-24T11:25:50Z</time>
      </trkpt>
      <trkpt lat="47.29207" lon="-2.508">
        <ele>66</ele>
        <time>2011-04-24T11:25:52Z</time>
      </trkpt>
      <trkpt lat="47.29203" lon="-2.50791">
        <ele>66</ele>
        <time>2011-04-24T11:25:54Z</time>
      </trkpt>
      <trkpt lat="47.29201" lon="-2.50782">
        <ele>66</ele>
        <time>2011-04-24T11:25:56Z</time>
      </trkpt>
      <trkpt lat="47.292" lon="-2.50772">
        <ele>67</ele>
        <time>2011-04-24T11:25:58Z</time>
      </trkpt>
      <trkpt lat="47.29202" lon="-2.5076">
        <ele>67</ele>
        <time>2011-04-24T11:26:00Z</time>
      </trkpt>
      <trkpt lat="47.29204" lon="-2.5075">
        <ele>67</ele>
        <time>2011-04-24T11:26:02Z</time>
      </trkpt>
      <trkpt lat="47.29206" lon="-2.50739">
        <ele>66</ele>
        <time>2011-04-24T11:26:04Z</time>
      </trkpt>
      <trkpt lat="47.2921" lon="-2.50729">
        <ele>65</ele>
        <time>2011-04-24T11:26:06Z</time>
      </trkpt>
      <trkpt lat="47.29211" lon="-2.50718">
        <ele>64</ele>
        <time>2011-04-24T11:26:08Z</time>
      </trkpt>
      <trkpt lat="47.29212" lon="-2.50708">
        <ele>63</ele>
        <time>2011-04-24T11:26:10Z</time>
      </trkpt>
      <trkpt lat="47.29214" lon="-2.50696">
        <ele>62</ele>
        <time>2011-04-24T11:26:12Z</time>
      </trkpt>
      <trkpt lat="47.29212" lon="-2.50679">
        <ele>62</ele>
        <time>2011-04-24T11:26:15Z</time>
      </trkpt>
      <trkpt lat="47.2921" lon="-2.50667">
        <ele>61</ele>
        <time>2011-04-24T11:26:17Z</time>
      </trkpt>
      <trkpt lat="47.29208" lon="-2.50657">
        <ele>61</ele>
        <time>2011-04-24T11:26:19Z</time>
      </trkpt>
      <trkpt lat="47.29206" lon="-2.50645">
        <ele>61</ele>
        <time>2011-04-24T11:26:21Z</time>
      </trkpt>
      <trkpt lat="47.29206" lon="-2.50635">
        <ele>62</ele>
        <time>2011-04-24T11:26:23Z</time>
      </trkpt>
      <trkpt lat="47.29206" lon="-2.50623">
        <ele>61</ele>
        <time>2011-04-24T11:26:25Z</time>
      </trkpt>
      <trkpt lat="47.29206" lon="-2.50611">
        <ele>60</ele>
        <time>2011-04-24T11:26:27Z</time>
      </trkpt>
      <trkpt lat="47.29208" lon="-2.506">
        <ele>60</ele>
        <time>2011-04-24T11:26:29Z</time>
      </trkpt>
      <trkpt lat="47.29209" lon="-2.50588">
        <ele>59</ele>
        <time>2011-04-24T11:26:31Z</time>
      </trkpt>
      <trkpt lat="47.2921" lon="-2.50577">
        <ele>58</ele>
        <time>2011-04-24T11:26:33Z</time>
      </trkpt>
      <trkpt lat="47.29211" lon="-2.50566">
        <ele>58</ele>
        <time>2011-04-24T11:26:35Z</time>
      </trkpt>
      <trkpt lat="47.29212" lon="-2.50559">
        <ele>57</ele>
        <time>2011-04-24T11:26:36Z</time>
      </trkpt>
      <trkpt lat="47.29214" lon="-2.50547">
        <ele>57</ele>
        <time>2011-04-24T11:26:38Z</time>
      </trkpt>
      <trkpt lat="47.29214" lon="-2.50535">
        <ele>57</ele>
        <time>2011-04-24T11:26:40Z</time>
      </trkpt>
      <trkpt lat="47.29211" lon="-2.50524">
        <ele>58</ele>
        <time>2011-04-24T11:26:42Z</time>
      </trkpt>
      <trkpt lat="47.29203" lon="-2.50515">
        <ele>58</ele>
        <time>2011-04-24T11:26:44Z</time>
      </trkpt>
      <trkpt lat="47.29197" lon="-2.50506">
        <ele>58</ele>
        <time>2011-04-24T11:26:46Z</time>
      </trkpt>
      <trkpt lat="47.2919" lon="-2.505">
        <ele>58</ele>
        <time>2011-04-24T11:26:48Z</time>
      </trkpt>
      <trkpt lat="47.29183" lon="-2.50494">
        <ele>57</ele>
        <time>2011-04-24T11:26:50Z</time>
      </trkpt>
      <trkpt lat="47.29175" lon="-2.50488">
        <ele>58</ele>
        <time>2011-04-24T11:26:52Z</time>
      </trkpt>
      <trkpt lat="47.29167" lon="-2.50483">
        <ele>57</ele>
        <time>2011-04-24T11:26:54Z</time>
      </trkpt>
      <trkpt lat="47.29159" lon="-2.50477">
        <ele>57</ele>
        <time>2011-04-24T11:26:56Z</time>
      </trkpt>
      <trkpt lat="47.29154" lon="-2.50473">
        <ele>57</ele>
        <time>2011-04-24T11:26:57Z</time>
      </trkpt>
      <trkpt lat="47.29145" lon="-2.50469">
        <ele>57</ele>
        <time>2011-04-24T11:26:59Z</time>
      </trkpt>
      <trkpt lat="47.29141" lon="-2.50466">
        <ele>58</ele>
        <time>2011-04-24T11:27:00Z</time>
      </trkpt>
      <trkpt lat="47.29137" lon="-2.50464">
        <ele>58</ele>
        <time>2011-04-24T11:27:01Z</time>
      </trkpt>
      <trkpt lat="47.29132" lon="-2.50462">
        <ele>58</ele>
        <time>2011-04-24T11:27:02Z</time>
      </trkpt>
      <trkpt lat="47.29127" lon="-2.50461">
        <ele>59</ele>
        <time>2011-04-24T11:27:03Z</time>
      </trkpt>
      <trkpt lat="47.29122" lon="-2.5046">
        <ele>59</ele>
        <time>2011-04-24T11:27:04Z</time>
      </trkpt>
      <trkpt lat="47.29118" lon="-2.50462">
        <ele>58</ele>
        <time>2011-04-24T11:27:05Z</time>
      </trkpt>
      <trkpt lat="47.2911" lon="-2.50467">
        <ele>58</ele>
        <time>2011-04-24T11:27:07Z</time>
      </trkpt>
      <trkpt lat="47.29106" lon="-2.50477">
        <ele>58</ele>
        <time>2011-04-24T11:27:09Z</time>
      </trkpt>
      <trkpt lat="47.29102" lon="-2.50487">
        <ele>59</ele>
        <time>2011-04-24T11:27:11Z</time>
      </trkpt>
      <trkpt lat="47.29099" lon="-2.50496">
        <ele>58</ele>
        <time>2011-04-24T11:27:13Z</time>
      </trkpt>
      <trkpt lat="47.29095" lon="-2.50506">
        <ele>58</ele>
        <time>2011-04-24T11:27:15Z</time>
      </trkpt>
      <trkpt lat="47.29092" lon="-2.50517">
        <ele>58</ele>
        <time>2011-04-24T11:27:17Z</time>
      </trkpt>
      <trkpt lat="47.29087" lon="-2.50527">
        <ele>57</ele>
        <time>2011-04-24T11:27:19Z</time>
      </trkpt>
      <trkpt lat="47.29083" lon="-2.50538">
        <ele>58</ele>
        <time>2011-04-24T11:27:21Z</time>
      </trkpt>
      <trkpt lat="47.29079" lon="-2.50548">
        <ele>60</ele>
        <time>2011-04-24T11:27:23Z</time>
      </trkpt>
      <trkpt lat="47.29076" lon="-2.50558">
        <ele>60</ele>
        <time>2011-04-24T11:27:25Z</time>
      </trkpt>
      <trkpt lat="47.29074" lon="-2.50565">
        <ele>60</ele>
        <time>2011-04-24T11:27:26Z</time>
      </trkpt>
      <trkpt lat="47.2907" lon="-2.50575">
        <ele>60</ele>
        <time>2011-04-24T11:27:28Z</time>
      </trkpt>
      <trkpt lat="47.29066" lon="-2.50583">
        <ele>60</ele>
        <time>2011-04-24T11:27:30Z</time>
      </trkpt>
      <trkpt lat="47.29064" lon="-2.50592">
        <ele>60</ele>
        <time>2011-04-24T11:27:32Z</time>
      </trkpt>
      <trkpt lat="47.29062" lon="-2.50602">
        <ele>61</ele>
        <time>2011-04-24T11:27:34Z</time>
      </trkpt>
      <trkpt lat="47.29058" lon="-2.5061">
        <ele>61</ele>
        <time>2011-04-24T11:27:36Z</time>
      </trkpt>
      <trkpt lat="47.29054" lon="-2.50616">
        <ele>61</ele>
        <time>2011-04-24T11:27:38Z</time>
      </trkpt>
      <trkpt lat="47.29053" lon="-2.50628">
        <ele>61</ele>
        <time>2011-04-24T11:27:40Z</time>
      </trkpt>
      <trkpt lat="47.29052" lon="-2.50637">
        <ele>60</ele>
        <time>2011-04-24T11:27:42Z</time>
      </trkpt>
      <trkpt lat="47.29052" lon="-2.50646">
        <ele>60</ele>
        <time>2011-04-24T11:27:45Z</time>
      </trkpt>
      <trkpt lat="47.29053" lon="-2.50654">
        <ele>60</ele>
        <time>2011-04-24T11:27:49Z</time>
      </trkpt>
      <trkpt lat="47.29049" lon="-2.5066">
        <ele>60</ele>
        <time>2011-04-24T11:27:52Z</time>
      </trkpt>
      <trkpt lat="47.29043" lon="-2.5066">
        <ele>60</ele>
        <time>2011-04-24T11:27:55Z</time>
      </trkpt>
      <trkpt lat="47.29038" lon="-2.50658">
        <ele>60</ele>
        <time>2011-04-24T11:27:57Z</time>
      </trkpt>
      <trkpt lat="47.29033" lon="-2.50657">
        <ele>61</ele>
        <time>2011-04-24T11:27:59Z</time>
      </trkpt>
      <trkpt lat="47.29027" lon="-2.50653">
        <ele>61</ele>
        <time>2011-04-24T11:28:02Z</time>
      </trkpt>
      <trkpt lat="47.29023" lon="-2.50649">
        <ele>63</ele>
        <time>2011-04-24T11:28:04Z</time>
      </trkpt>
      <trkpt lat="47.29018" lon="-2.50644">
        <ele>64</ele>
        <time>2011-04-24T11:28:06Z</time>
      </trkpt>
      <trkpt lat="47.29012" lon="-2.50641">
        <ele>65</ele>
        <time>2011-04-24T11:28:08Z</time>
      </trkpt>
      <trkpt lat="47.29007" lon="-2.50637">
        <ele>65</ele>
        <time>2011-04-24T11:28:10Z</time>
      </trkpt>
      <trkpt lat="47.29002" lon="-2.50634">
        <ele>66</ele>
        <time>2011-04-24T11:28:12Z</time>
      </trkpt>
      <trkpt lat="47.28995" lon="-2.50629">
        <ele>66</ele>
        <time>2011-04-24T11:28:15Z</time>
      </trkpt>
      <trkpt lat="47.28989" lon="-2.50629">
        <ele>66</ele>
        <time>2011-04-24T11:28:18Z</time>
      </trkpt>
      <trkpt lat="47.28985" lon="-2.50627">
        <ele>67</ele>
        <time>2011-04-24T11:28:22Z</time>
      </trkpt>
      <trkpt lat="47.2898" lon="-2.50626">
        <ele>65</ele>
        <time>2011-04-24T11:28:35Z</time>
      </trkpt>
      <trkpt lat="47.28985" lon="-2.50627">
        <ele>62</ele>
        <time>2011-04-24T11:28:41Z</time>
      </trkpt>
      <trkpt lat="47.28991" lon="-2.50629">
        <ele>63</ele>
        <time>2011-04-24T11:28:44Z</time>
      </trkpt>
      <trkpt lat="47.28995" lon="-2.50634">
        <ele>64</ele>
        <time>2011-04-24T11:28:46Z</time>
      </trkpt>
      <trkpt lat="47.29" lon="-2.50638">
        <ele>64</ele>
        <time>2011-04-24T11:28:48Z</time>
      </trkpt>
      <trkpt lat="47.29005" lon="-2.50642">
        <ele>64</ele>
        <time>2011-04-24T11:28:50Z</time>
      </trkpt>
      <trkpt lat="47.29011" lon="-2.50645">
        <ele>64</ele>
        <time>2011-04-24T11:28:52Z</time>
      </trkpt>
      <trkpt lat="47.29017" lon="-2.5065">
        <ele>64</ele>
        <time>2011-04-24T11:28:54Z</time>
      </trkpt>
      <trkpt lat="47.29024" lon="-2.50654">
        <ele>63</ele>
        <time>2011-04-24T11:28:56Z</time>
      </trkpt>
      <trkpt lat="47.29029" lon="-2.50658">
        <ele>64</ele>
        <time>2011-04-24T11:28:58Z</time>
      </trkpt>
      <trkpt lat="47.29034" lon="-2.50662">
        <ele>64</ele>
        <time>2011-04-24T11:29:00Z</time>
      </trkpt>
      <trkpt lat="47.2904" lon="-2.50665">
        <ele>64</ele>
        <time>2011-04-24T11:29:02Z</time>
      </trkpt>
      <trkpt lat="47.29045" lon="-2.5067">
        <ele>63</ele>
        <time>2011-04-24T11:29:04Z</time>
      </trkpt>
      <trkpt lat="47.29048" lon="-2.50679">
        <ele>62</ele>
        <time>2011-04-24T11:29:07Z</time>
      </trkpt>
      <trkpt lat="47.29046" lon="-2.50689">
        <ele>60</ele>
        <time>2011-04-24T11:29:09Z</time>
      </trkpt>
      <trkpt lat="47.29043" lon="-2.50698">
        <ele>60</ele>
        <time>2011-04-24T11:29:11Z</time>
      </trkpt>
      <trkpt lat="47.2904" lon="-2.50708">
        <ele>59</ele>
        <time>2011-04-24T11:29:13Z</time>
      </trkpt>
      <trkpt lat="47.29037" lon="-2.50717">
        <ele>58</ele>
        <time>2011-04-24T11:29:15Z</time>
      </trkpt>
      <trkpt lat="47.29033" lon="-2.50725">
        <ele>58</ele>
        <time>2011-04-24T11:29:17Z</time>
      </trkpt>
      <trkpt lat="47.29033" lon="-2.50735">
        <ele>56</ele>
        <time>2011-04-24T11:29:19Z</time>
      </trkpt>
      <trkpt lat="47.29032" lon="-2.50745">
        <ele>56</ele>
        <time>2011-04-24T11:29:21Z</time>
      </trkpt>
      <trkpt lat="47.2903" lon="-2.50754">
        <ele>57</ele>
        <time>2011-04-24T11:29:24Z</time>
      </trkpt>
      <trkpt lat="47.2903" lon="-2.50764">
        <ele>56</ele>
        <time>2011-04-24T11:29:26Z</time>
      </trkpt>
      <trkpt lat="47.29028" lon="-2.50771">
        <ele>55</ele>
        <time>2011-04-24T11:29:27Z</time>
      </trkpt>
      <trkpt lat="47.2902" lon="-2.50775">
        <ele>53</ele>
        <time>2011-04-24T11:29:29Z</time>
      </trkpt>
      <trkpt lat="47.29015" lon="-2.5078">
        <ele>52</ele>
        <time>2011-04-24T11:29:31Z</time>
      </trkpt>
      <trkpt lat="47.29009" lon="-2.50775">
        <ele>53</ele>
        <time>2011-04-24T11:29:33Z</time>
      </trkpt>
      <trkpt lat="47.29002" lon="-2.5077">
        <ele>53</ele>
        <time>2011-04-24T11:29:35Z</time>
      </trkpt>
      <trkpt lat="47.28994" lon="-2.50767">
        <ele>52</ele>
        <time>2011-04-24T11:29:37Z</time>
      </trkpt>
      <trkpt lat="47.28986" lon="-2.50766">
        <ele>50</ele>
        <time>2011-04-24T11:29:39Z</time>
      </trkpt>
      <trkpt lat="47.28978" lon="-2.50763">
        <ele>53</ele>
        <time>2011-04-24T11:29:41Z</time>
      </trkpt>
      <trkpt lat="47.28973" lon="-2.50761">
        <ele>54</ele>
        <time>2011-04-24T11:29:42Z</time>
      </trkpt>
      <trkpt lat="47.28968" lon="-2.5076">
        <ele>55</ele>
        <time>2011-04-24T11:29:43Z</time>
      </trkpt>
      <trkpt lat="47.2896" lon="-2.50756">
        <ele>54</ele>
        <time>2011-04-24T11:29:45Z</time>
      </trkpt>
      <trkpt lat="47.28952" lon="-2.50752">
        <ele>55</ele>
        <time>2011-04-24T11:29:47Z</time>
      </trkpt>
      <trkpt lat="47.28947" lon="-2.50749">
        <ele>55</ele>
        <time>2011-04-24T11:29:48Z</time>
      </trkpt>
      <trkpt lat="47.28943" lon="-2.50746">
        <ele>55</ele>
        <time>2011-04-24T11:29:49Z</time>
      </trkpt>
      <trkpt lat="47.28934" lon="-2.50739">
        <ele>55</ele>
        <time>2011-04-24T11:29:51Z</time>
      </trkpt>
      <trkpt lat="47.2893" lon="-2.50736">
        <ele>55</ele>
        <time>2011-04-24T11:29:52Z</time>
      </trkpt>
      <trkpt lat="47.28922" lon="-2.50728">
        <ele>55</ele>
        <time>2011-04-24T11:29:54Z</time>
      </trkpt>
      <trkpt lat="47.28917" lon="-2.50724">
        <ele>55</ele>
        <time>2011-04-24T11:29:55Z</time>
      </trkpt>
      <trkpt lat="47.28912" lon="-2.50716">
        <ele>55</ele>
        <time>2011-04-24T11:29:57Z</time>
      </trkpt>
      <trkpt lat="47.28906" lon="-2.50706">
        <ele>55</ele>
        <time>2011-04-24T11:29:59Z</time>
      </trkpt>
      <trkpt lat="47.289" lon="-2.50696">
        <ele>55</ele>
        <time>2011-04-24T11:30:01Z</time>
      </trkpt>
      <trkpt lat="47.28896" lon="-2.5069">
        <ele>56</ele>
        <time>2011-04-24T11:30:02Z</time>
      </trkpt>
      <trkpt lat="47.28891" lon="-2.5068">
        <ele>57</ele>
        <time>2011-04-24T11:30:04Z</time>
      </trkpt>
      <trkpt lat="47.28888" lon="-2.50673">
        <ele>58</ele>
        <time>2011-04-24T11:30:05Z</time>
      </trkpt>
      <trkpt lat="47.28883" lon="-2.50664">
        <ele>59</ele>
        <time>2011-04-24T11:30:07Z</time>
      </trkpt>
      <trkpt lat="47.28879" lon="-2.50659">
        <ele>60</ele>
        <time>2011-04-24T11:30:08Z</time>
      </trkpt>
      <trkpt lat="47.28876" lon="-2.50654">
        <ele>60</ele>
        <time>2011-04-24T11:30:09Z</time>
      </trkpt>
      <trkpt lat="47.2887" lon="-2.50646">
        <ele>61</ele>
        <time>2011-04-24T11:30:11Z</time>
      </trkpt>
      <trkpt lat="47.28862" lon="-2.50642">
        <ele>61</ele>
        <time>2011-04-24T11:30:13Z</time>
      </trkpt>
      <trkpt lat="47.28851" lon="-2.50636">
        <ele>63</ele>
        <time>2011-04-24T11:30:15Z</time>
      </trkpt>
      <trkpt lat="47.28847" lon="-2.50632">
        <ele>63</ele>
        <time>2011-04-24T11:30:16Z</time>
      </trkpt>
      <trkpt lat="47.28842" lon="-2.5063">
        <ele>64</ele>
        <time>2011-04-24T11:30:17Z</time>
      </trkpt>
      <trkpt lat="47.28833" lon="-2.50627">
        <ele>64</ele>
        <time>2011-04-24T11:30:19Z</time>
      </trkpt>
      <trkpt lat="47.28825" lon="-2.50622">
        <ele>65</ele>
        <time>2011-04-24T11:30:21Z</time>
      </trkpt>
      <trkpt lat="47.28817" lon="-2.50618">
        <ele>66</ele>
        <time>2011-04-24T11:30:23Z</time>
      </trkpt>
      <trkpt lat="47.28809" lon="-2.50614">
        <ele>65</ele>
        <time>2011-04-24T11:30:25Z</time>
      </trkpt>
      <trkpt lat="47.28802" lon="-2.50609">
        <ele>66</ele>
        <time>2011-04-24T11:30:27Z</time>
      </trkpt>
      <trkpt lat="47.28794" lon="-2.50605">
        <ele>66</ele>
        <time>2011-04-24T11:30:29Z</time>
      </trkpt>
      <trkpt lat="47.28785" lon="-2.50601">
        <ele>65</ele>
        <time>2011-04-24T11:30:31Z</time>
      </trkpt>
      <trkpt lat="47.28776" lon="-2.50599">
        <ele>66</ele>
        <time>2011-04-24T11:30:33Z</time>
      </trkpt>
      <trkpt lat="47.28768" lon="-2.50595">
        <ele>68</ele>
        <time>2011-04-24T11:30:35Z</time>
      </trkpt>
      <trkpt lat="47.2876" lon="-2.5059">
        <ele>68</ele>
        <time>2011-04-24T11:30:37Z</time>
      </trkpt>
      <trkpt lat="47.28756" lon="-2.50588">
        <ele>68</ele>
        <time>2011-04-24T11:30:38Z</time>
      </trkpt>
      <trkpt lat="47.28748" lon="-2.50582">
        <ele>68</ele>
        <time>2011-04-24T11:30:40Z</time>
      </trkpt>
      <trkpt lat="47.2874" lon="-2.50577">
        <ele>68</ele>
        <time>2011-04-24T11:30:42Z</time>
      </trkpt>
      <trkpt lat="47.28732" lon="-2.50571">
        <ele>69</ele>
        <time>2011-04-24T11:30:44Z</time>
      </trkpt>
      <trkpt lat="47.28724" lon="-2.50566">
        <ele>69</ele>
        <time>2011-04-24T11:30:46Z</time>
      </trkpt>
      <trkpt lat="47.2872" lon="-2.50562">
        <ele>69</ele>
        <time>2011-04-24T11:30:47Z</time>
      </trkpt>
      <trkpt lat="47.28716" lon="-2.5056">
        <ele>69</ele>
        <time>2011-04-24T11:30:48Z</time>
      </trkpt>
      <trkpt lat="47.28711" lon="-2.50556">
        <ele>68</ele>
        <time>2011-04-24T11:30:49Z</time>
      </trkpt>
      <trkpt lat="47.28707" lon="-2.50553">
        <ele>68</ele>
        <time>2011-04-24T11:30:50Z</time>
      </trkpt>
      <trkpt lat="47.28702" lon="-2.5055">
        <ele>68</ele>
        <time>2011-04-24T11:30:51Z</time>
      </trkpt>
      <trkpt lat="47.28698" lon="-2.50547">
        <ele>68</ele>
        <time>2011-04-24T11:30:52Z</time>
      </trkpt>
      <trkpt lat="47.2869" lon="-2.50542">
        <ele>67</ele>
        <time>2011-04-24T11:30:54Z</time>
      </trkpt>
      <trkpt lat="47.28685" lon="-2.50539">
        <ele>67</ele>
        <time>2011-04-24T11:30:55Z</time>
      </trkpt>
      <trkpt lat="47.2868" lon="-2.50538">
        <ele>67</ele>
        <time>2011-04-24T11:30:56Z</time>
      </trkpt>
      <trkpt lat="47.28675" lon="-2.50535">
        <ele>66</ele>
        <time>2011-04-24T11:30:57Z</time>
      </trkpt>
      <trkpt lat="47.28667" lon="-2.50529">
        <ele>66</ele>
        <time>2011-04-24T11:30:59Z</time>
      </trkpt>
      <trkpt lat="47.28663" lon="-2.50526">
        <ele>66</ele>
        <time>2011-04-24T11:31:00Z</time>
      </trkpt>
      <trkpt lat="47.28658" lon="-2.50523">
        <ele>66</ele>
        <time>2011-04-24T11:31:01Z</time>
      </trkpt>
      <trkpt lat="47.28653" lon="-2.5052">
        <ele>66</ele>
        <time>2011-04-24T11:31:02Z</time>
      </trkpt>
      <trkpt lat="47.28649" lon="-2.50518">
        <ele>65</ele>
        <time>2011-04-24T11:31:03Z</time>
      </trkpt>
      <trkpt lat="47.28645" lon="-2.50515">
        <ele>65</ele>
        <time>2011-04-24T11:31:04Z</time>
      </trkpt>
      <trkpt lat="47.28641" lon="-2.50512">
        <ele>65</ele>
        <time>2011-04-24T11:31:05Z</time>
      </trkpt>
      <trkpt lat="47.28636" lon="-2.50509">
        <ele>65</ele>
        <time>2011-04-24T11:31:06Z</time>
      </trkpt>
      <trkpt lat="47.28628" lon="-2.50503">
        <ele>65</ele>
        <time>2011-04-24T11:31:08Z</time>
      </trkpt>
      <trkpt lat="47.28623" lon="-2.50501">
        <ele>64</ele>
        <time>2011-04-24T11:31:09Z</time>
      </trkpt>
      <trkpt lat="47.28615" lon="-2.50495">
        <ele>65</ele>
        <time>2011-04-24T11:31:11Z</time>
      </trkpt>
      <trkpt lat="47.2861" lon="-2.50492">
        <ele>64</ele>
        <time>2011-04-24T11:31:12Z</time>
      </trkpt>
      <trkpt lat="47.28606" lon="-2.50489">
        <ele>64</ele>
        <time>2011-04-24T11:31:13Z</time>
      </trkpt>
      <trkpt lat="47.28602" lon="-2.50487">
        <ele>64</ele>
        <time>2011-04-24T11:31:14Z</time>
      </trkpt>
      <trkpt lat="47.28598" lon="-2.50484">
        <ele>64</ele>
        <time>2011-04-24T11:31:15Z</time>
      </trkpt>
      <trkpt lat="47.28593" lon="-2.5048">
        <ele>64</ele>
        <time>2011-04-24T11:31:16Z</time>
      </trkpt>
      <trkpt lat="47.28589" lon="-2.50478">
        <ele>63</ele>
        <time>2011-04-24T11:31:17Z</time>
      </trkpt>
      <trkpt lat="47.28585" lon="-2.50475">
        <ele>63</ele>
        <time>2011-04-24T11:31:18Z</time>
      </trkpt>
      <trkpt lat="47.2858" lon="-2.50472">
        <ele>64</ele>
        <time>2011-04-24T11:31:19Z</time>
      </trkpt>
      <trkpt lat="47.28572" lon="-2.50466">
        <ele>64</ele>
        <time>2011-04-24T11:31:21Z</time>
      </trkpt>
      <trkpt lat="47.28568" lon="-2.50462">
        <ele>64</ele>
        <time>2011-04-24T11:31:22Z</time>
      </trkpt>
      <trkpt lat="47.28564" lon="-2.5046">
        <ele>64</ele>
        <time>2011-04-24T11:31:23Z</time>
      </trkpt>
      <trkpt lat="47.28556" lon="-2.50455">
        <ele>64</ele>
        <time>2011-04-24T11:31:25Z</time>
      </trkpt>
      <trkpt lat="47.28547" lon="-2.5045">
        <ele>64</ele>
        <time>2011-04-24T11:31:27Z</time>
      </trkpt>
      <trkpt lat="47.28543" lon="-2.50448">
        <ele>63</ele>
        <time>2011-04-24T11:31:28Z</time>
      </trkpt>
      <trkpt lat="47.28539" lon="-2.50445">
        <ele>63</ele>
        <time>2011-04-24T11:31:29Z</time>
      </trkpt>
      <trkpt lat="47.28531" lon="-2.50439">
        <ele>63</ele>
        <time>2011-04-24T11:31:31Z</time>
      </trkpt>
      <trkpt lat="47.28524" lon="-2.50433">
        <ele>63</ele>
        <time>2011-04-24T11:31:33Z</time>
      </trkpt>
      <trkpt lat="47.28519" lon="-2.5043">
        <ele>63</ele>
        <time>2011-04-24T11:31:34Z</time>
      </trkpt>
      <trkpt lat="47.28514" lon="-2.50426">
        <ele>64</ele>
        <time>2011-04-24T11:31:35Z</time>
      </trkpt>
      <trkpt lat="47.28509" lon="-2.50423">
        <ele>64</ele>
        <time>2011-04-24T11:31:36Z</time>
      </trkpt>
      <trkpt lat="47.28505" lon="-2.5042">
        <ele>64</ele>
        <time>2011-04-24T11:31:37Z</time>
      </trkpt>
      <trkpt lat="47.28497" lon="-2.50415">
        <ele>64</ele>
        <time>2011-04-24T11:31:39Z</time>
      </trkpt>
      <trkpt lat="47.28488" lon="-2.50411">
        <ele>64</ele>
        <time>2011-04-24T11:31:41Z</time>
      </trkpt>
      <trkpt lat="47.28479" lon="-2.50407">
        <ele>64</ele>
        <time>2011-04-24T11:31:43Z</time>
      </trkpt>
      <trkpt lat="47.28474" lon="-2.50404">
        <ele>64</ele>
        <time>2011-04-24T11:31:44Z</time>
      </trkpt>
      <trkpt lat="47.28469" lon="-2.50401">
        <ele>63</ele>
        <time>2011-04-24T11:31:45Z</time>
      </trkpt>
      <trkpt lat="47.28465" lon="-2.50398">
        <ele>63</ele>
        <time>2011-04-24T11:31:46Z</time>
      </trkpt>
      <trkpt lat="47.2846" lon="-2.50394">
        <ele>63</ele>
        <time>2011-04-24T11:31:47Z</time>
      </trkpt>
      <trkpt lat="47.28456" lon="-2.5039">
        <ele>63</ele>
        <time>2011-04-24T11:31:48Z</time>
      </trkpt>
      <trkpt lat="47.2845" lon="-2.50388">
        <ele>63</ele>
        <time>2011-04-24T11:31:49Z</time>
      </trkpt>
      <trkpt lat="47.28445" lon="-2.50385">
        <ele>63</ele>
        <time>2011-04-24T11:31:50Z</time>
      </trkpt>
      <trkpt lat="47.2844" lon="-2.50382">
        <ele>63</ele>
        <time>2011-04-24T11:31:51Z</time>
      </trkpt>
      <trkpt lat="47.28436" lon="-2.50378">
        <ele>63</ele>
        <time>2011-04-24T11:31:52Z</time>
      </trkpt>
      <trkpt lat="47.28431" lon="-2.50376">
        <ele>63</ele>
        <time>2011-04-24T11:31:53Z</time>
      </trkpt>
      <trkpt lat="47.28426" lon="-2.50372">
        <ele>62</ele>
        <time>2011-04-24T11:31:54Z</time>
      </trkpt>
      <trkpt lat="47.28421" lon="-2.5037">
        <ele>62</ele>
        <time>2011-04-24T11:31:55Z</time>
      </trkpt>
      <trkpt lat="47.28416" lon="-2.50366">
        <ele>61</ele>
        <time>2011-04-24T11:31:56Z</time>
      </trkpt>
      <trkpt lat="47.28412" lon="-2.50363">
        <ele>61</ele>
        <time>2011-04-24T11:31:57Z</time>
      </trkpt>
      <trkpt lat="47.28406" lon="-2.50359">
        <ele>61</ele>
        <time>2011-04-24T11:31:58Z</time>
      </trkpt>
      <trkpt lat="47.28401" lon="-2.50355">
        <ele>61</ele>
        <time>2011-04-24T11:31:59Z</time>
      </trkpt>
      <trkpt lat="47.28392" lon="-2.50358">
        <ele>60</ele>
        <time>2011-04-24T11:32:01Z</time>
      </trkpt>
      <trkpt lat="47.28388" lon="-2.50352">
        <ele>59</ele>
        <time>2011-04-24T11:32:02Z</time>
      </trkpt>
      <trkpt lat="47.28384" lon="-2.50348">
        <ele>60</ele>
        <time>2011-04-24T11:32:03Z</time>
      </trkpt>
      <trkpt lat="47.28381" lon="-2.50343">
        <ele>60</ele>
        <time>2011-04-24T11:32:04Z</time>
      </trkpt>
      <trkpt lat="47.28377" lon="-2.50336">
        <ele>59</ele>
        <time>2011-04-24T11:32:05Z</time>
      </trkpt>
      <trkpt lat="47.28372" lon="-2.50331">
        <ele>60</ele>
        <time>2011-04-24T11:32:06Z</time>
      </trkpt>
      <trkpt lat="47.28368" lon="-2.50326">
        <ele>59</ele>
        <time>2011-04-24T11:32:07Z</time>
      </trkpt>
      <trkpt lat="47.28363" lon="-2.5032">
        <ele>59</ele>
        <time>2011-04-24T11:32:08Z</time>
      </trkpt>
      <trkpt lat="47.28358" lon="-2.5031">
        <ele>59</ele>
        <time>2011-04-24T11:32:09Z</time>
      </trkpt>
      <trkpt lat="47.28355" lon="-2.50316">
        <ele>59</ele>
        <time>2011-04-24T11:32:11Z</time>
      </trkpt>
      <trkpt lat="47.28348" lon="-2.5031">
        <ele>59</ele>
        <time>2011-04-24T11:32:13Z</time>
      </trkpt>
      <trkpt lat="47.28341" lon="-2.50305">
        <ele>61</ele>
        <time>2011-04-24T11:32:15Z</time>
      </trkpt>
      <trkpt lat="47.28334" lon="-2.50299">
        <ele>61</ele>
        <time>2011-04-24T11:32:17Z</time>
      </trkpt>
      <trkpt lat="47.28326" lon="-2.50294">
        <ele>62</ele>
        <time>2011-04-24T11:32:19Z</time>
      </trkpt>
      <trkpt lat="47.28319" lon="-2.50288">
        <ele>62</ele>
        <time>2011-04-24T11:32:21Z</time>
      </trkpt>
      <trkpt lat="47.28312" lon="-2.50282">
        <ele>62</ele>
        <time>2011-04-24T11:32:23Z</time>
      </trkpt>
      <trkpt lat="47.28305" lon="-2.50276">
        <ele>62</ele>
        <time>2011-04-24T11:32:25Z</time>
      </trkpt>
      <trkpt lat="47.28299" lon="-2.50271">
        <ele>62</ele>
        <time>2011-04-24T11:32:27Z</time>
      </trkpt>
      <trkpt lat="47.28292" lon="-2.50266">
        <ele>62</ele>
        <time>2011-04-24T11:32:29Z</time>
      </trkpt>
      <trkpt lat="47.28286" lon="-2.50262">
        <ele>62</ele>
        <time>2011-04-24T11:32:31Z</time>
      </trkpt>
      <trkpt lat="47.28281" lon="-2.50259">
        <ele>62</ele>
        <time>2011-04-24T11:32:33Z</time>
      </trkpt>
      <trkpt lat="47.28276" lon="-2.50255">
        <ele>62</ele>
        <time>2011-04-24T11:32:35Z</time>
      </trkpt>
      <trkpt lat="47.28272" lon="-2.50252">
        <ele>63</ele>
        <time>2011-04-24T11:32:37Z</time>
      </trkpt>
      <trkpt lat="47.28266" lon="-2.50247">
        <ele>63</ele>
        <time>2011-04-24T11:32:39Z</time>
      </trkpt>
      <trkpt lat="47.28261" lon="-2.50242">
        <ele>63</ele>
        <time>2011-04-24T11:32:41Z</time>
      </trkpt>
      <trkpt lat="47.28256" lon="-2.50238">
        <ele>63</ele>
        <time>2011-04-24T11:32:43Z</time>
      </trkpt>
      <trkpt lat="47.2825" lon="-2.50233">
        <ele>63</ele>
        <time>2011-04-24T11:32:45Z</time>
      </trkpt>
      <trkpt lat="47.28244" lon="-2.50227">
        <ele>63</ele>
        <time>2011-04-24T11:32:47Z</time>
      </trkpt>
      <trkpt lat="47.2824" lon="-2.50218">
        <ele>63</ele>
        <time>2011-04-24T11:32:49Z</time>
      </trkpt>
      <trkpt lat="47.28234" lon="-2.50211">
        <ele>63</ele>
        <time>2011-04-24T11:32:51Z</time>
      </trkpt>
      <trkpt lat="47.28228" lon="-2.50204">
        <ele>63</ele>
        <time>2011-04-24T11:32:53Z</time>
      </trkpt>
      <trkpt lat="47.28224" lon="-2.50196">
        <ele>63</ele>
        <time>2011-04-24T11:32:55Z</time>
      </trkpt>
      <trkpt lat="47.2822" lon="-2.50187">
        <ele>62</ele>
        <time>2011-04-24T11:32:57Z</time>
      </trkpt>
      <trkpt lat="47.28216" lon="-2.50177">
        <ele>61</ele>
        <time>2011-04-24T11:32:59Z</time>
      </trkpt>
      <trkpt lat="47.28213" lon="-2.50167">
        <ele>61</ele>
        <time>2011-04-24T11:33:01Z</time>
      </trkpt>
      <trkpt lat="47.2821" lon="-2.50158">
        <ele>61</ele>
        <time>2011-04-24T11:33:03Z</time>
      </trkpt>
      <trkpt lat="47.28209" lon="-2.5015">
        <ele>61</ele>
        <time>2011-04-24T11:33:05Z</time>
      </trkpt>
      <trkpt lat="47.28208" lon="-2.50142">
        <ele>61</ele>
        <time>2011-04-24T11:33:07Z</time>
      </trkpt>
      <trkpt lat="47.28206" lon="-2.50134">
        <ele>61</ele>
        <time>2011-04-24T11:33:09Z</time>
      </trkpt>
      <trkpt lat="47.28202" lon="-2.50125">
        <ele>61</ele>
        <time>2011-04-24T11:33:11Z</time>
      </trkpt>
      <trkpt lat="47.282" lon="-2.50116">
        <ele>62</ele>
        <time>2011-04-24T11:33:13Z</time>
      </trkpt>
      <trkpt lat="47.28199" lon="-2.50106">
        <ele>62</ele>
        <time>2011-04-24T11:33:15Z</time>
      </trkpt>
      <trkpt lat="47.28198" lon="-2.50096">
        <ele>62</ele>
        <time>2011-04-24T11:33:17Z</time>
      </trkpt>
      <trkpt lat="47.28196" lon="-2.50085">
        <ele>61</ele>
        <time>2011-04-24T11:33:19Z</time>
      </trkpt>
      <trkpt lat="47.28195" lon="-2.50076">
        <ele>61</ele>
        <time>2011-04-24T11:33:21Z</time>
      </trkpt>
      <trkpt lat="47.28193" lon="-2.50066">
        <ele>62</ele>
        <time>2011-04-24T11:33:23Z</time>
      </trkpt>
      <trkpt lat="47.28192" lon="-2.50057">
        <ele>62</ele>
        <time>2011-04-24T11:33:25Z</time>
      </trkpt>
      <trkpt lat="47.28191" lon="-2.50048">
        <ele>62</ele>
        <time>2011-04-24T11:33:27Z</time>
      </trkpt>
      <trkpt lat="47.2819" lon="-2.50039">
        <ele>62</ele>
        <time>2011-04-24T11:33:29Z</time>
      </trkpt>
      <trkpt lat="47.28188" lon="-2.50029">
        <ele>62</ele>
        <time>2011-04-24T11:33:31Z</time>
      </trkpt>
      <trkpt lat="47.28187" lon="-2.50021">
        <ele>63</ele>
        <time>2011-04-24T11:33:33Z</time>
      </trkpt>
      <trkpt lat="47.28185" lon="-2.50012">
        <ele>62</ele>
        <time>2011-04-24T11:33:35Z</time>
      </trkpt>
      <trkpt lat="47.28185" lon="-2.50003">
        <ele>61</ele>
        <time>2011-04-24T11:33:37Z</time>
      </trkpt>
      <trkpt lat="47.28185" lon="-2.49994">
        <ele>61</ele>
        <time>2011-04-24T11:33:39Z</time>
      </trkpt>
      <trkpt lat="47.28182" lon="-2.49986">
        <ele>61</ele>
        <time>2011-04-24T11:33:41Z</time>
      </trkpt>
      <trkpt lat="47.28181" lon="-2.49979">
        <ele>61</ele>
        <time>2011-04-24T11:33:43Z</time>
      </trkpt>
      <trkpt lat="47.28179" lon="-2.49971">
        <ele>61</ele>
        <time>2011-04-24T11:33:45Z</time>
      </trkpt>
      <trkpt lat="47.28179" lon="-2.49961">
        <ele>60</ele>
        <time>2011-04-24T11:33:47Z</time>
      </trkpt>
      <trkpt lat="47.28177" lon="-2.49953">
        <ele>60</ele>
        <time>2011-04-24T11:33:49Z</time>
      </trkpt>
      <trkpt lat="47.28176" lon="-2.49944">
        <ele>60</ele>
        <time>2011-04-24T11:33:51Z</time>
      </trkpt>
      <trkpt lat="47.28174" lon="-2.49934">
        <ele>60</ele>
        <time>2011-04-24T11:33:53Z</time>
      </trkpt>
      <trkpt lat="47.28173" lon="-2.49922">
        <ele>60</ele>
        <time>2011-04-24T11:33:55Z</time>
      </trkpt>
      <trkpt lat="47.28172" lon="-2.49913">
        <ele>60</ele>
        <time>2011-04-24T11:33:57Z</time>
      </trkpt>
      <trkpt lat="47.2817" lon="-2.49903">
        <ele>60</ele>
        <time>2011-04-24T11:33:59Z</time>
      </trkpt>
      <trkpt lat="47.28168" lon="-2.49893">
        <ele>59</ele>
        <time>2011-04-24T11:34:01Z</time>
      </trkpt>
      <trkpt lat="47.28168" lon="-2.49883">
        <ele>59</ele>
        <time>2011-04-24T11:34:03Z</time>
      </trkpt>
      <trkpt lat="47.28167" lon="-2.49873">
        <ele>59</ele>
        <time>2011-04-24T11:34:05Z</time>
      </trkpt>
      <trkpt lat="47.28166" lon="-2.49863">
        <ele>58</ele>
        <time>2011-04-24T11:34:07Z</time>
      </trkpt>
      <trkpt lat="47.28165" lon="-2.49852">
        <ele>58</ele>
        <time>2011-04-24T11:34:09Z</time>
      </trkpt>
      <trkpt lat="47.28164" lon="-2.49842">
        <ele>56</ele>
        <time>2011-04-24T11:34:11Z</time>
      </trkpt>
      <trkpt lat="47.2816" lon="-2.49836">
        <ele>60</ele>
        <time>2011-04-24T11:34:13Z</time>
      </trkpt>
      <trkpt lat="47.28158" lon="-2.49827">
        <ele>61</ele>
        <time>2011-04-24T11:34:15Z</time>
      </trkpt>
      <trkpt lat="47.28157" lon="-2.49817">
        <ele>61</ele>
        <time>2011-04-24T11:34:17Z</time>
      </trkpt>
      <trkpt lat="47.28156" lon="-2.49807">
        <ele>60</ele>
        <time>2011-04-24T11:34:19Z</time>
      </trkpt>
      <trkpt lat="47.28156" lon="-2.49797">
        <ele>60</ele>
        <time>2011-04-24T11:34:21Z</time>
      </trkpt>
      <trkpt lat="47.28154" lon="-2.49787">
        <ele>60</ele>
        <time>2011-04-24T11:34:23Z</time>
      </trkpt>
      <trkpt lat="47.28153" lon="-2.49777">
        <ele>60</ele>
        <time>2011-04-24T11:34:25Z</time>
      </trkpt>
      <trkpt lat="47.28151" lon="-2.49769">
        <ele>59</ele>
        <time>2011-04-24T11:34:27Z</time>
      </trkpt>
      <trkpt lat="47.2815" lon="-2.4976">
        <ele>59</ele>
        <time>2011-04-24T11:34:29Z</time>
      </trkpt>
      <trkpt lat="47.28149" lon="-2.49753">
        <ele>59</ele>
        <time>2011-04-24T11:34:31Z</time>
      </trkpt>
      <trkpt lat="47.28149" lon="-2.49743">
        <ele>58</ele>
        <time>2011-04-24T11:34:36Z</time>
      </trkpt>
      <trkpt lat="47.28146" lon="-2.49734">
        <ele>59</ele>
        <time>2011-04-24T11:34:39Z</time>
      </trkpt>
      <trkpt lat="47.28145" lon="-2.49724">
        <ele>58</ele>
        <time>2011-04-24T11:34:41Z</time>
      </trkpt>
      <trkpt lat="47.28144" lon="-2.49716">
        <ele>57</ele>
        <time>2011-04-24T11:34:43Z</time>
      </trkpt>
      <trkpt lat="47.28143" lon="-2.49707">
        <ele>57</ele>
        <time>2011-04-24T11:34:45Z</time>
      </trkpt>
      <trkpt lat="47.28142" lon="-2.49697">
        <ele>57</ele>
        <time>2011-04-24T11:34:47Z</time>
      </trkpt>
      <trkpt lat="47.2814" lon="-2.49688">
        <ele>56</ele>
        <time>2011-04-24T11:34:49Z</time>
      </trkpt>
      <trkpt lat="47.28138" lon="-2.49679">
        <ele>56</ele>
        <time>2011-04-24T11:34:51Z</time>
      </trkpt>
      <trkpt lat="47.28137" lon="-2.49668">
        <ele>56</ele>
        <time>2011-04-24T11:34:53Z</time>
      </trkpt>
      <trkpt lat="47.28136" lon="-2.49659">
        <ele>56</ele>
        <time>2011-04-24T11:34:55Z</time>
      </trkpt>
      <trkpt lat="47.28134" lon="-2.49649">
        <ele>56</ele>
        <time>2011-04-24T11:34:57Z</time>
      </trkpt>
      <trkpt lat="47.28132" lon="-2.4964">
        <ele>56</ele>
        <time>2011-04-24T11:34:59Z</time>
      </trkpt>
      <trkpt lat="47.28131" lon="-2.4963">
        <ele>56</ele>
        <time>2011-04-24T11:35:01Z</time>
      </trkpt>
      <trkpt lat="47.2813" lon="-2.49621">
        <ele>56</ele>
        <time>2011-04-24T11:35:03Z</time>
      </trkpt>
      <trkpt lat="47.28129" lon="-2.49613">
        <ele>56</ele>
        <time>2011-04-24T11:35:05Z</time>
      </trkpt>
      <trkpt lat="47.28129" lon="-2.49606">
        <ele>55</ele>
        <time>2011-04-24T11:35:07Z</time>
      </trkpt>
      <trkpt lat="47.28128" lon="-2.49599">
        <ele>56</ele>
        <time>2011-04-24T11:35:09Z</time>
      </trkpt>
      <trkpt lat="47.28127" lon="-2.4959">
        <ele>56</ele>
        <time>2011-04-24T11:35:12Z</time>
      </trkpt>
      <trkpt lat="47.28126" lon="-2.49582">
        <ele>57</ele>
        <time>2011-04-24T11:35:15Z</time>
      </trkpt>
      <trkpt lat="47.28124" lon="-2.49575">
        <ele>58</ele>
        <time>2011-04-24T11:35:17Z</time>
      </trkpt>
      <trkpt lat="47.28123" lon="-2.49567">
        <ele>60</ele>
        <time>2011-04-24T11:35:20Z</time>
      </trkpt>
      <trkpt lat="47.2812" lon="-2.49559">
        <ele>61</ele>
        <time>2011-04-24T11:35:24Z</time>
      </trkpt>
      <trkpt lat="47.28118" lon="-2.4955">
        <ele>61</ele>
        <time>2011-04-24T11:35:26Z</time>
      </trkpt>
      <trkpt lat="47.2811" lon="-2.49545">
        <ele>58</ele>
        <time>2011-04-24T11:35:27Z</time>
      </trkpt>
      <trkpt lat="47.28105" lon="-2.4954">
        <ele>57</ele>
        <time>2011-04-24T11:35:28Z</time>
      </trkpt>
      <trkpt lat="47.28102" lon="-2.49531">
        <ele>57</ele>
        <time>2011-04-24T11:35:30Z</time>
      </trkpt>
      <trkpt lat="47.28101" lon="-2.49522">
        <ele>57</ele>
        <time>2011-04-24T11:35:32Z</time>
      </trkpt>
      <trkpt lat="47.281" lon="-2.49512">
        <ele>60</ele>
        <time>2011-04-24T11:35:34Z</time>
      </trkpt>
      <trkpt lat="47.281" lon="-2.49502">
        <ele>62</ele>
        <time>2011-04-24T11:35:36Z</time>
      </trkpt>
      <trkpt lat="47.281" lon="-2.49492">
        <ele>64</ele>
        <time>2011-04-24T11:35:38Z</time>
      </trkpt>
      <trkpt lat="47.28099" lon="-2.49483">
        <ele>65</ele>
        <time>2011-04-24T11:35:40Z</time>
      </trkpt>
      <trkpt lat="47.28098" lon="-2.49473">
        <ele>65</ele>
        <time>2011-04-24T11:35:42Z</time>
      </trkpt>
      <trkpt lat="47.28096" lon="-2.49464">
        <ele>66</ele>
        <time>2011-04-24T11:35:44Z</time>
      </trkpt>
      <trkpt lat="47.28094" lon="-2.49454">
        <ele>66</ele>
        <time>2011-04-24T11:35:46Z</time>
      </trkpt>
      <trkpt lat="47.28092" lon="-2.49444">
        <ele>67</ele>
        <time>2011-04-24T11:35:48Z</time>
      </trkpt>
      <trkpt lat="47.28092" lon="-2.49444">
        <ele>67</ele>
        <time>2011-04-24T11:35:48Z</time>
      </trkpt>
      <trkpt lat="47.28092" lon="-2.49444">
        <ele>61</ele>
        <time>2011-04-24T11:36:19Z</time>
      </trkpt>
      <trkpt lat="47.28092" lon="-2.49436">
        <ele>58</ele>
        <time>2011-04-24T11:38:21Z</time>
      </trkpt>
      <trkpt lat="47.28091" lon="-2.49428">
        <ele>57</ele>
        <time>2011-04-24T11:38:23Z</time>
      </trkpt>
      <trkpt lat="47.2809" lon="-2.49419">
        <ele>57</ele>
        <time>2011-04-24T11:38:25Z</time>
      </trkpt>
      <trkpt lat="47.28089" lon="-2.49408">
        <ele>56</ele>
        <time>2011-04-24T11:38:27Z</time>
      </trkpt>
      <trkpt lat="47.28089" lon="-2.49397">
        <ele>56</ele>
        <time>2011-04-24T11:38:29Z</time>
      </trkpt>
      <trkpt lat="47.28088" lon="-2.49386">
        <ele>56</ele>
        <time>2011-04-24T11:38:31Z</time>
      </trkpt>
      <trkpt lat="47.28085" lon="-2.49374">
        <ele>55</ele>
        <time>2011-04-24T11:38:33Z</time>
      </trkpt>
      <trkpt lat="47.28084" lon="-2.49362">
        <ele>55</ele>
        <time>2011-04-24T11:38:35Z</time>
      </trkpt>
      <trkpt lat="47.28083" lon="-2.49352">
        <ele>55</ele>
        <time>2011-04-24T11:38:37Z</time>
      </trkpt>
      <trkpt lat="47.28081" lon="-2.4934">
        <ele>55</ele>
        <time>2011-04-24T11:38:39Z</time>
      </trkpt>
      <trkpt lat="47.28079" lon="-2.49328">
        <ele>55</ele>
        <time>2011-04-24T11:38:41Z</time>
      </trkpt>
      <trkpt lat="47.28077" lon="-2.49316">
        <ele>55</ele>
        <time>2011-04-24T11:38:43Z</time>
      </trkpt>
      <trkpt lat="47.28076" lon="-2.49304">
        <ele>55</ele>
        <time>2011-04-24T11:38:45Z</time>
      </trkpt>
      <trkpt lat="47.28074" lon="-2.49291">
        <ele>55</ele>
        <time>2011-04-24T11:38:47Z</time>
      </trkpt>
      <trkpt lat="47.28072" lon="-2.49279">
        <ele>55</ele>
        <time>2011-04-24T11:38:49Z</time>
      </trkpt>
      <trkpt lat="47.2807" lon="-2.49267">
        <ele>55</ele>
        <time>2011-04-24T11:38:51Z</time>
      </trkpt>
      <trkpt lat="47.28068" lon="-2.49254">
        <ele>55</ele>
        <time>2011-04-24T11:38:53Z</time>
      </trkpt>
      <trkpt lat="47.28066" lon="-2.49241">
        <ele>55</ele>
        <time>2011-04-24T11:38:55Z</time>
      </trkpt>
      <trkpt lat="47.28064" lon="-2.49229">
        <ele>55</ele>
        <time>2011-04-24T11:38:57Z</time>
      </trkpt>
      <trkpt lat="47.28063" lon="-2.49222">
        <ele>55</ele>
        <time>2011-04-24T11:38:58Z</time>
      </trkpt>
      <trkpt lat="47.28061" lon="-2.49209">
        <ele>56</ele>
        <time>2011-04-24T11:39:00Z</time>
      </trkpt>
      <trkpt lat="47.28059" lon="-2.49196">
        <ele>56</ele>
        <time>2011-04-24T11:39:02Z</time>
      </trkpt>
      <trkpt lat="47.28058" lon="-2.49184">
        <ele>56</ele>
        <time>2011-04-24T11:39:04Z</time>
      </trkpt>
      <trkpt lat="47.28056" lon="-2.49171">
        <ele>56</ele>
        <time>2011-04-24T11:39:06Z</time>
      </trkpt>
      <trkpt lat="47.28054" lon="-2.49158">
        <ele>56</ele>
        <time>2011-04-24T11:39:08Z</time>
      </trkpt>
      <trkpt lat="47.28053" lon="-2.49152">
        <ele>57</ele>
        <time>2011-04-24T11:39:09Z</time>
      </trkpt>
      <trkpt lat="47.28052" lon="-2.49145">
        <ele>57</ele>
        <time>2011-04-24T11:39:10Z</time>
      </trkpt>
      <trkpt lat="47.2805" lon="-2.49138">
        <ele>57</ele>
        <time>2011-04-24T11:39:11Z</time>
      </trkpt>
      <trkpt lat="47.28049" lon="-2.49132">
        <ele>56</ele>
        <time>2011-04-24T11:39:12Z</time>
      </trkpt>
      <trkpt lat="47.28048" lon="-2.49125">
        <ele>56</ele>
        <time>2011-04-24T11:39:13Z</time>
      </trkpt>
      <trkpt lat="47.28047" lon="-2.49113">
        <ele>57</ele>
        <time>2011-04-24T11:39:15Z</time>
      </trkpt>
      <trkpt lat="47.28046" lon="-2.49106">
        <ele>57</ele>
        <time>2011-04-24T11:39:16Z</time>
      </trkpt>
      <trkpt lat="47.28045" lon="-2.491">
        <ele>57</ele>
        <time>2011-04-24T11:39:17Z</time>
      </trkpt>
      <trkpt lat="47.28043" lon="-2.49087">
        <ele>57</ele>
        <time>2011-04-24T11:39:19Z</time>
      </trkpt>
      <trkpt lat="47.28041" lon="-2.49075">
        <ele>57</ele>
        <time>2011-04-24T11:39:21Z</time>
      </trkpt>
      <trkpt lat="47.2804" lon="-2.49068">
        <ele>57</ele>
        <time>2011-04-24T11:39:22Z</time>
      </trkpt>
      <trkpt lat="47.28038" lon="-2.49056">
        <ele>57</ele>
        <time>2011-04-24T11:39:24Z</time>
      </trkpt>
      <trkpt lat="47.28036" lon="-2.49044">
        <ele>57</ele>
        <time>2011-04-24T11:39:26Z</time>
      </trkpt>
      <trkpt lat="47.28034" lon="-2.49031">
        <ele>58</ele>
        <time>2011-04-24T11:39:28Z</time>
      </trkpt>
      <trkpt lat="47.28033" lon="-2.49025">
        <ele>58</ele>
        <time>2011-04-24T11:39:29Z</time>
      </trkpt>
      <trkpt lat="47.28032" lon="-2.49012">
        <ele>58</ele>
        <time>2011-04-24T11:39:31Z</time>
      </trkpt>
      <trkpt lat="47.2803" lon="-2.48999">
        <ele>58</ele>
        <time>2011-04-24T11:39:33Z</time>
      </trkpt>
      <trkpt lat="47.28028" lon="-2.48987">
        <ele>58</ele>
        <time>2011-04-24T11:39:35Z</time>
      </trkpt>
      <trkpt lat="47.28026" lon="-2.48974">
        <ele>59</ele>
        <time>2011-04-24T11:39:37Z</time>
      </trkpt>
      <trkpt lat="47.28024" lon="-2.48962">
        <ele>59</ele>
        <time>2011-04-24T11:39:39Z</time>
      </trkpt>
      <trkpt lat="47.28023" lon="-2.4895">
        <ele>59</ele>
        <time>2011-04-24T11:39:41Z</time>
      </trkpt>
      <trkpt lat="47.2802" lon="-2.48937">
        <ele>59</ele>
        <time>2011-04-24T11:39:43Z</time>
      </trkpt>
      <trkpt lat="47.28018" lon="-2.48924">
        <ele>59</ele>
        <time>2011-04-24T11:39:45Z</time>
      </trkpt>
      <trkpt lat="47.28017" lon="-2.48911">
        <ele>59</ele>
        <time>2011-04-24T11:39:47Z</time>
      </trkpt>
      <trkpt lat="47.28016" lon="-2.48904">
        <ele>58</ele>
        <time>2011-04-24T11:39:48Z</time>
      </trkpt>
      <trkpt lat="47.28014" lon="-2.48897">
        <ele>58</ele>
        <time>2011-04-24T11:39:49Z</time>
      </trkpt>
      <trkpt lat="47.28014" lon="-2.4889">
        <ele>58</ele>
        <time>2011-04-24T11:39:50Z</time>
      </trkpt>
      <trkpt lat="47.28011" lon="-2.48877">
        <ele>58</ele>
        <time>2011-04-24T11:39:52Z</time>
      </trkpt>
      <trkpt lat="47.28009" lon="-2.48864">
        <ele>58</ele>
        <time>2011-04-24T11:39:54Z</time>
      </trkpt>
      <trkpt lat="47.28007" lon="-2.48852">
        <ele>58</ele>
        <time>2011-04-24T11:39:56Z</time>
      </trkpt>
      <trkpt lat="47.28005" lon="-2.4884">
        <ele>58</ele>
        <time>2011-04-24T11:39:58Z</time>
      </trkpt>
      <trkpt lat="47.28003" lon="-2.48827">
        <ele>58</ele>
        <time>2011-04-24T11:40:00Z</time>
      </trkpt>
      <trkpt lat="47.28001" lon="-2.48821">
        <ele>58</ele>
        <time>2011-04-24T11:40:01Z</time>
      </trkpt>
      <trkpt lat="47.28" lon="-2.48808">
        <ele>58</ele>
        <time>2011-04-24T11:40:03Z</time>
      </trkpt>
      <trkpt lat="47.27996" lon="-2.48796">
        <ele>58</ele>
        <time>2011-04-24T11:40:05Z</time>
      </trkpt>
      <trkpt lat="47.27991" lon="-2.48787">
        <ele>58</ele>
        <time>2011-04-24T11:40:07Z</time>
      </trkpt>
      <trkpt lat="47.27987" lon="-2.48775">
        <ele>58</ele>
        <time>2011-04-24T11:40:09Z</time>
      </trkpt>
      <trkpt lat="47.27987" lon="-2.48768">
        <ele>58</ele>
        <time>2011-04-24T11:40:10Z</time>
      </trkpt>
      <trkpt lat="47.27988" lon="-2.4876">
        <ele>57</ele>
        <time>2011-04-24T11:40:11Z</time>
      </trkpt>
      <trkpt lat="47.27989" lon="-2.48748">
        <ele>57</ele>
        <time>2011-04-24T11:40:13Z</time>
      </trkpt>
      <trkpt lat="47.27988" lon="-2.48734">
        <ele>57</ele>
        <time>2011-04-24T11:40:15Z</time>
      </trkpt>
      <trkpt lat="47.27987" lon="-2.48728">
        <ele>57</ele>
        <time>2011-04-24T11:40:16Z</time>
      </trkpt>
      <trkpt lat="47.27986" lon="-2.48721">
        <ele>57</ele>
        <time>2011-04-24T11:40:17Z</time>
      </trkpt>
      <trkpt lat="47.27984" lon="-2.48714">
        <ele>57</ele>
        <time>2011-04-24T11:40:18Z</time>
      </trkpt>
      <trkpt lat="47.27981" lon="-2.48702">
        <ele>58</ele>
        <time>2011-04-24T11:40:20Z</time>
      </trkpt>
      <trkpt lat="47.27979" lon="-2.48695">
        <ele>57</ele>
        <time>2011-04-24T11:40:21Z</time>
      </trkpt>
      <trkpt lat="47.27975" lon="-2.48684">
        <ele>57</ele>
        <time>2011-04-24T11:40:23Z</time>
      </trkpt>
      <trkpt lat="47.27971" lon="-2.48674">
        <ele>57</ele>
        <time>2011-04-24T11:40:25Z</time>
      </trkpt>
      <trkpt lat="47.27966" lon="-2.48663">
        <ele>58</ele>
        <time>2011-04-24T11:40:27Z</time>
      </trkpt>
      <trkpt lat="47.27964" lon="-2.48657">
        <ele>58</ele>
        <time>2011-04-24T11:40:28Z</time>
      </trkpt>
      <trkpt lat="47.27962" lon="-2.4865">
        <ele>58</ele>
        <time>2011-04-24T11:40:29Z</time>
      </trkpt>
      <trkpt lat="47.27958" lon="-2.48639">
        <ele>58</ele>
        <time>2011-04-24T11:40:31Z</time>
      </trkpt>
      <trkpt lat="47.27955" lon="-2.48633">
        <ele>58</ele>
        <time>2011-04-24T11:40:32Z</time>
      </trkpt>
      <trkpt lat="47.27953" lon="-2.48627">
        <ele>58</ele>
        <time>2011-04-24T11:40:33Z</time>
      </trkpt>
      <trkpt lat="47.27952" lon="-2.4862">
        <ele>58</ele>
        <time>2011-04-24T11:40:34Z</time>
      </trkpt>
      <trkpt lat="47.2795" lon="-2.48613">
        <ele>57</ele>
        <time>2011-04-24T11:40:35Z</time>
      </trkpt>
      <trkpt lat="47.27945" lon="-2.48602">
        <ele>58</ele>
        <time>2011-04-24T11:40:37Z</time>
      </trkpt>
      <trkpt lat="47.27941" lon="-2.4859">
        <ele>57</ele>
        <time>2011-04-24T11:40:39Z</time>
      </trkpt>
      <trkpt lat="47.27938" lon="-2.48584">
        <ele>57</ele>
        <time>2011-04-24T11:40:40Z</time>
      </trkpt>
      <trkpt lat="47.27936" lon="-2.48578">
        <ele>57</ele>
        <time>2011-04-24T11:40:41Z</time>
      </trkpt>
      <trkpt lat="47.27933" lon="-2.48572">
        <ele>57</ele>
        <time>2011-04-24T11:40:42Z</time>
      </trkpt>
      <trkpt lat="47.2793" lon="-2.48566">
        <ele>57</ele>
        <time>2011-04-24T11:40:43Z</time>
      </trkpt>
      <trkpt lat="47.27926" lon="-2.48553">
        <ele>56</ele>
        <time>2011-04-24T11:40:45Z</time>
      </trkpt>
      <trkpt lat="47.27924" lon="-2.48546">
        <ele>56</ele>
        <time>2011-04-24T11:40:46Z</time>
      </trkpt>
      <trkpt lat="47.27923" lon="-2.48539">
        <ele>56</ele>
        <time>2011-04-24T11:40:47Z</time>
      </trkpt>
      <trkpt lat="47.27921" lon="-2.48532">
        <ele>56</ele>
        <time>2011-04-24T11:40:48Z</time>
      </trkpt>
      <trkpt lat="47.2792" lon="-2.48525">
        <ele>56</ele>
        <time>2011-04-24T11:40:49Z</time>
      </trkpt>
      <trkpt lat="47.27917" lon="-2.48519">
        <ele>56</ele>
        <time>2011-04-24T11:40:50Z</time>
      </trkpt>
      <trkpt lat="47.27915" lon="-2.48513">
        <ele>56</ele>
        <time>2011-04-24T11:40:51Z</time>
      </trkpt>
      <trkpt lat="47.27913" lon="-2.48506">
        <ele>56</ele>
        <time>2011-04-24T11:40:52Z</time>
      </trkpt>
      <trkpt lat="47.27911" lon="-2.485">
        <ele>56</ele>
        <time>2011-04-24T11:40:53Z</time>
      </trkpt>
      <trkpt lat="47.27909" lon="-2.48494">
        <ele>56</ele>
        <time>2011-04-24T11:40:54Z</time>
      </trkpt>
      <trkpt lat="47.27907" lon="-2.48487">
        <ele>56</ele>
        <time>2011-04-24T11:40:55Z</time>
      </trkpt>
      <trkpt lat="47.27902" lon="-2.48476">
        <ele>56</ele>
        <time>2011-04-24T11:40:57Z</time>
      </trkpt>
      <trkpt lat="47.27899" lon="-2.48463">
        <ele>56</ele>
        <time>2011-04-24T11:40:59Z</time>
      </trkpt>
      <trkpt lat="47.27896" lon="-2.48457">
        <ele>56</ele>
        <time>2011-04-24T11:41:00Z</time>
      </trkpt>
      <trkpt lat="47.27894" lon="-2.48451">
        <ele>56</ele>
        <time>2011-04-24T11:41:01Z</time>
      </trkpt>
      <trkpt lat="47.27892" lon="-2.48446">
        <ele>56</ele>
        <time>2011-04-24T11:41:02Z</time>
      </trkpt>
      <trkpt lat="47.2789" lon="-2.48439">
        <ele>56</ele>
        <time>2011-04-24T11:41:03Z</time>
      </trkpt>
      <trkpt lat="47.27887" lon="-2.48433">
        <ele>56</ele>
        <time>2011-04-24T11:41:04Z</time>
      </trkpt>
      <trkpt lat="47.27885" lon="-2.48427">
        <ele>56</ele>
        <time>2011-04-24T11:41:05Z</time>
      </trkpt>
      <trkpt lat="47.27883" lon="-2.4842">
        <ele>57</ele>
        <time>2011-04-24T11:41:06Z</time>
      </trkpt>
      <trkpt lat="47.27879" lon="-2.48408">
        <ele>57</ele>
        <time>2011-04-24T11:41:08Z</time>
      </trkpt>
      <trkpt lat="47.27876" lon="-2.48402">
        <ele>57</ele>
        <time>2011-04-24T11:41:09Z</time>
      </trkpt>
      <trkpt lat="47.27874" lon="-2.48396">
        <ele>57</ele>
        <time>2011-04-24T11:41:10Z</time>
      </trkpt>
      <trkpt lat="47.27872" lon="-2.4839">
        <ele>57</ele>
        <time>2011-04-24T11:41:11Z</time>
      </trkpt>
      <trkpt lat="47.2787" lon="-2.48384">
        <ele>58</ele>
        <time>2011-04-24T11:41:12Z</time>
      </trkpt>
      <trkpt lat="47.27862" lon="-2.48368">
        <ele>58</ele>
        <time>2011-04-24T11:41:15Z</time>
      </trkpt>
      <trkpt lat="47.2786" lon="-2.48362">
        <ele>58</ele>
        <time>2011-04-24T11:41:16Z</time>
      </trkpt>
      <trkpt lat="47.27855" lon="-2.48351">
        <ele>58</ele>
        <time>2011-04-24T11:41:18Z</time>
      </trkpt>
      <trkpt lat="47.27852" lon="-2.48345">
        <ele>58</ele>
        <time>2011-04-24T11:41:19Z</time>
      </trkpt>
      <trkpt lat="47.27847" lon="-2.48333">
        <ele>58</ele>
        <time>2011-04-24T11:41:21Z</time>
      </trkpt>
      <trkpt lat="47.27843" lon="-2.48322">
        <ele>58</ele>
        <time>2011-04-24T11:41:23Z</time>
      </trkpt>
      <trkpt lat="47.27839" lon="-2.48312">
        <ele>58</ele>
        <time>2011-04-24T11:41:25Z</time>
      </trkpt>
      <trkpt lat="47.27835" lon="-2.483">
        <ele>58</ele>
        <time>2011-04-24T11:41:27Z</time>
      </trkpt>
      <trkpt lat="47.2783" lon="-2.48288">
        <ele>59</ele>
        <time>2011-04-24T11:41:29Z</time>
      </trkpt>
      <trkpt lat="47.27828" lon="-2.48282">
        <ele>59</ele>
        <time>2011-04-24T11:41:30Z</time>
      </trkpt>
      <trkpt lat="47.27826" lon="-2.48276">
        <ele>59</ele>
        <time>2011-04-24T11:41:31Z</time>
      </trkpt>
      <trkpt lat="47.27822" lon="-2.48265">
        <ele>59</ele>
        <time>2011-04-24T11:41:33Z</time>
      </trkpt>
      <trkpt lat="47.2782" lon="-2.48259">
        <ele>59</ele>
        <time>2011-04-24T11:41:34Z</time>
      </trkpt>
      <trkpt lat="47.27817" lon="-2.48253">
        <ele>59</ele>
        <time>2011-04-24T11:41:35Z</time>
      </trkpt>
      <trkpt lat="47.27814" lon="-2.48242">
        <ele>60</ele>
        <time>2011-04-24T11:41:37Z</time>
      </trkpt>
      <trkpt lat="47.27811" lon="-2.4823">
        <ele>60</ele>
        <time>2011-04-24T11:41:39Z</time>
      </trkpt>
      <trkpt lat="47.27807" lon="-2.48219">
        <ele>60</ele>
        <time>2011-04-24T11:41:41Z</time>
      </trkpt>
      <trkpt lat="47.27804" lon="-2.48209">
        <ele>59</ele>
        <time>2011-04-24T11:41:43Z</time>
      </trkpt>
      <trkpt lat="47.27804" lon="-2.48198">
        <ele>56</ele>
        <time>2011-04-24T11:41:45Z</time>
      </trkpt>
      <trkpt lat="47.27804" lon="-2.48188">
        <ele>52</ele>
        <time>2011-04-24T11:41:47Z</time>
      </trkpt>
      <trkpt lat="47.27805" lon="-2.48182">
        <ele>52</ele>
        <time>2011-04-24T11:41:49Z</time>
      </trkpt>
      <trkpt lat="47.27808" lon="-2.48175">
        <ele>52</ele>
        <time>2011-04-24T11:41:52Z</time>
      </trkpt>
      <trkpt lat="47.27811" lon="-2.4817">
        <ele>52</ele>
        <time>2011-04-24T11:41:54Z</time>
      </trkpt>
      <trkpt lat="47.27816" lon="-2.48168">
        <ele>53</ele>
        <time>2011-04-24T11:41:57Z</time>
      </trkpt>
      <trkpt lat="47.27819" lon="-2.48161">
        <ele>53</ele>
        <time>2011-04-24T11:41:59Z</time>
      </trkpt>
      <trkpt lat="47.2782" lon="-2.48153">
        <ele>55</ele>
        <time>2011-04-24T11:42:02Z</time>
      </trkpt>
      <trkpt lat="47.27821" lon="-2.48146">
        <ele>55</ele>
        <time>2011-04-24T11:42:04Z</time>
      </trkpt>
      <trkpt lat="47.27823" lon="-2.48138">
        <ele>54</ele>
        <time>2011-04-24T11:42:06Z</time>
      </trkpt>
      <trkpt lat="47.27824" lon="-2.48128">
        <ele>50</ele>
        <time>2011-04-24T11:42:08Z</time>
      </trkpt>
      <trkpt lat="47.27824" lon="-2.48122">
        <ele>49</ele>
        <time>2011-04-24T11:42:10Z</time>
      </trkpt>
      <trkpt lat="47.27822" lon="-2.48112">
        <ele>50</ele>
        <time>2011-04-24T11:42:13Z</time>
      </trkpt>
      <trkpt lat="47.2782" lon="-2.48104">
        <ele>53</ele>
        <time>2011-04-24T11:42:17Z</time>
      </trkpt>
      <trkpt lat="47.27818" lon="-2.48097">
        <ele>55</ele>
        <time>2011-04-24T11:42:21Z</time>
      </trkpt>
      <trkpt lat="47.27816" lon="-2.4809">
        <ele>63</ele>
        <time>2011-04-24T11:43:17Z</time>
      </trkpt>
      <trkpt lat="47.27817" lon="-2.48082">
        <ele>62</ele>
        <time>2011-04-24T11:43:21Z</time>
      </trkpt>
      <trkpt lat="47.27818" lon="-2.48074">
        <ele>63</ele>
        <time>2011-04-24T11:43:23Z</time>
      </trkpt>
      <trkpt lat="47.27816" lon="-2.48062">
        <ele>62</ele>
        <time>2011-04-24T11:43:25Z</time>
      </trkpt>
      <trkpt lat="47.27813" lon="-2.4805">
        <ele>62</ele>
        <time>2011-04-24T11:43:27Z</time>
      </trkpt>
      <trkpt lat="47.27811" lon="-2.48039">
        <ele>61</ele>
        <time>2011-04-24T11:43:29Z</time>
      </trkpt>
      <trkpt lat="47.27809" lon="-2.48032">
        <ele>62</ele>
        <time>2011-04-24T11:43:32Z</time>
      </trkpt>
      <trkpt lat="47.27808" lon="-2.48024">
        <ele>64</ele>
        <time>2011-04-24T11:43:36Z</time>
      </trkpt>
      <trkpt lat="47.27812" lon="-2.48016">
        <ele>66</ele>
        <time>2011-04-24T11:43:39Z</time>
      </trkpt>
      <trkpt lat="47.2782" lon="-2.48019">
        <ele>63</ele>
        <time>2011-04-24T11:43:40Z</time>
      </trkpt>
      <trkpt lat="47.27826" lon="-2.48016">
        <ele>63</ele>
        <time>2011-04-24T11:43:42Z</time>
      </trkpt>
      <trkpt lat="47.27833" lon="-2.48012">
        <ele>62</ele>
        <time>2011-04-24T11:43:44Z</time>
      </trkpt>
      <trkpt lat="47.2784" lon="-2.48008">
        <ele>61</ele>
        <time>2011-04-24T11:43:46Z</time>
      </trkpt>
      <trkpt lat="47.27847" lon="-2.48006">
        <ele>61</ele>
        <time>2011-04-24T11:43:48Z</time>
      </trkpt>
      <trkpt lat="47.27851" lon="-2.48003">
        <ele>61</ele>
        <time>2011-04-24T11:43:49Z</time>
      </trkpt>
      <trkpt lat="47.2786" lon="-2.48001">
        <ele>61</ele>
        <time>2011-04-24T11:43:51Z</time>
      </trkpt>
      <trkpt lat="47.27868" lon="-2.47997">
        <ele>60</ele>
        <time>2011-04-24T11:43:53Z</time>
      </trkpt>
      <trkpt lat="47.27872" lon="-2.47996">
        <ele>60</ele>
        <time>2011-04-24T11:43:55Z</time>
      </trkpt>
      <trkpt lat="47.27878" lon="-2.47994">
        <ele>60</ele>
        <time>2011-04-24T11:43:58Z</time>
      </trkpt>
      <trkpt lat="47.27883" lon="-2.47991">
        <ele>60</ele>
        <time>2011-04-24T11:44:11Z</time>
      </trkpt>
      <trkpt lat="47.27888" lon="-2.47991">
        <ele>59</ele>
        <time>2011-04-24T11:44:13Z</time>
      </trkpt>
      <trkpt lat="47.27894" lon="-2.4799">
        <ele>59</ele>
        <time>2011-04-24T11:44:15Z</time>
      </trkpt>
      <trkpt lat="47.27901" lon="-2.47987">
        <ele>58</ele>
        <time>2011-04-24T11:44:17Z</time>
      </trkpt>
      <trkpt lat="47.27908" lon="-2.47985">
        <ele>58</ele>
        <time>2011-04-24T11:44:19Z</time>
      </trkpt>
      <trkpt lat="47.27915" lon="-2.47981">
        <ele>57</ele>
        <time>2011-04-24T11:44:21Z</time>
      </trkpt>
      <trkpt lat="47.27922" lon="-2.47977">
        <ele>57</ele>
        <time>2011-04-24T11:44:23Z</time>
      </trkpt>
      <trkpt lat="47.27929" lon="-2.47971">
        <ele>57</ele>
        <time>2011-04-24T11:44:25Z</time>
      </trkpt>
      <trkpt lat="47.27937" lon="-2.47969">
        <ele>57</ele>
        <time>2011-04-24T11:44:27Z</time>
      </trkpt>
      <trkpt lat="47.27946" lon="-2.47965">
        <ele>56</ele>
        <time>2011-04-24T11:44:29Z</time>
      </trkpt>
      <trkpt lat="47.27954" lon="-2.47962">
        <ele>55</ele>
        <time>2011-04-24T11:44:31Z</time>
      </trkpt>
      <trkpt lat="47.27959" lon="-2.47959">
        <ele>55</ele>
        <time>2011-04-24T11:44:32Z</time>
      </trkpt>
      <trkpt lat="47.27964" lon="-2.47957">
        <ele>55</ele>
        <time>2011-04-24T11:44:33Z</time>
      </trkpt>
      <trkpt lat="47.27968" lon="-2.47954">
        <ele>54</ele>
        <time>2011-04-24T11:44:34Z</time>
      </trkpt>
      <trkpt lat="47.27973" lon="-2.47949">
        <ele>54</ele>
        <time>2011-04-24T11:44:35Z</time>
      </trkpt>
      <trkpt lat="47.27978" lon="-2.47947">
        <ele>53</ele>
        <time>2011-04-24T11:44:36Z</time>
      </trkpt>
      <trkpt lat="47.27987" lon="-2.47944">
        <ele>53</ele>
        <time>2011-04-24T11:44:38Z</time>
      </trkpt>
      <trkpt lat="47.27992" lon="-2.47942">
        <ele>53</ele>
        <time>2011-04-24T11:44:39Z</time>
      </trkpt>
      <trkpt lat="47.27997" lon="-2.47942">
        <ele>52</ele>
        <time>2011-04-24T11:44:40Z</time>
      </trkpt>
      <trkpt lat="47.28002" lon="-2.4794">
        <ele>52</ele>
        <time>2011-04-24T11:44:41Z</time>
      </trkpt>
      <trkpt lat="47.28007" lon="-2.47938">
        <ele>52</ele>
        <time>2011-04-24T11:44:42Z</time>
      </trkpt>
      <trkpt lat="47.28012" lon="-2.47937">
        <ele>51</ele>
        <time>2011-04-24T11:44:43Z</time>
      </trkpt>
      <trkpt lat="47.28017" lon="-2.47935">
        <ele>52</ele>
        <time>2011-04-24T11:44:44Z</time>
      </trkpt>
      <trkpt lat="47.28022" lon="-2.47933">
        <ele>51</ele>
        <time>2011-04-24T11:44:45Z</time>
      </trkpt>
      <trkpt lat="47.28026" lon="-2.4793">
        <ele>51</ele>
        <time>2011-04-24T11:44:46Z</time>
      </trkpt>
      <trkpt lat="47.28032" lon="-2.47927">
        <ele>51</ele>
        <time>2011-04-24T11:44:47Z</time>
      </trkpt>
      <trkpt lat="47.28037" lon="-2.47926">
        <ele>51</ele>
        <time>2011-04-24T11:44:48Z</time>
      </trkpt>
      <trkpt lat="47.28042" lon="-2.47924">
        <ele>50</ele>
        <time>2011-04-24T11:44:49Z</time>
      </trkpt>
      <trkpt lat="47.28048" lon="-2.4792">
        <ele>50</ele>
        <time>2011-04-24T11:44:50Z</time>
      </trkpt>
      <trkpt lat="47.28055" lon="-2.47915">
        <ele>50</ele>
        <time>2011-04-24T11:44:52Z</time>
      </trkpt>
      <trkpt lat="47.28061" lon="-2.47906">
        <ele>49</ele>
        <time>2011-04-24T11:44:54Z</time>
      </trkpt>
      <trkpt lat="47.28064" lon="-2.479">
        <ele>49</ele>
        <time>2011-04-24T11:44:55Z</time>
      </trkpt>
      <trkpt lat="47.28066" lon="-2.47894">
        <ele>49</ele>
        <time>2011-04-24T11:44:56Z</time>
      </trkpt>
      <trkpt lat="47.28068" lon="-2.47886">
        <ele>49</ele>
        <time>2011-04-24T11:44:57Z</time>
      </trkpt>
      <trkpt lat="47.28069" lon="-2.4788">
        <ele>49</ele>
        <time>2011-04-24T11:44:58Z</time>
      </trkpt>
      <trkpt lat="47.28069" lon="-2.47872">
        <ele>49</ele>
        <time>2011-04-24T11:44:59Z</time>
      </trkpt>
      <trkpt lat="47.2807" lon="-2.47859">
        <ele>49</ele>
        <time>2011-04-24T11:45:01Z</time>
      </trkpt>
      <trkpt lat="47.28067" lon="-2.47845">
        <ele>48</ele>
        <time>2011-04-24T11:45:03Z</time>
      </trkpt>
      <trkpt lat="47.28064" lon="-2.47832">
        <ele>48</ele>
        <time>2011-04-24T11:45:05Z</time>
      </trkpt>
      <trkpt lat="47.28063" lon="-2.47825">
        <ele>48</ele>
        <time>2011-04-24T11:45:06Z</time>
      </trkpt>
      <trkpt lat="47.28061" lon="-2.4781">
        <ele>49</ele>
        <time>2011-04-24T11:45:08Z</time>
      </trkpt>
      <trkpt lat="47.28058" lon="-2.47797">
        <ele>49</ele>
        <time>2011-04-24T11:45:10Z</time>
      </trkpt>
      <trkpt lat="47.28056" lon="-2.4779">
        <ele>49</ele>
        <time>2011-04-24T11:45:11Z</time>
      </trkpt>
      <trkpt lat="47.28051" lon="-2.47779">
        <ele>49</ele>
        <time>2011-04-24T11:45:13Z</time>
      </trkpt>
      <trkpt lat="47.28048" lon="-2.47773">
        <ele>49</ele>
        <time>2011-04-24T11:45:14Z</time>
      </trkpt>
      <trkpt lat="47.28046" lon="-2.47767">
        <ele>48</ele>
        <time>2011-04-24T11:45:15Z</time>
      </trkpt>
      <trkpt lat="47.28042" lon="-2.47761">
        <ele>48</ele>
        <time>2011-04-24T11:45:16Z</time>
      </trkpt>
      <trkpt lat="47.28041" lon="-2.47752">
        <ele>49</ele>
        <time>2011-04-24T11:45:18Z</time>
      </trkpt>
      <trkpt lat="47.28042" lon="-2.47744">
        <ele>49</ele>
        <time>2011-04-24T11:45:21Z</time>
      </trkpt>
      <trkpt lat="47.28048" lon="-2.47742">
        <ele>49</ele>
        <time>2011-04-24T11:45:23Z</time>
      </trkpt>
      <trkpt lat="47.28055" lon="-2.4774">
        <ele>49</ele>
        <time>2011-04-24T11:45:25Z</time>
      </trkpt>
      <trkpt lat="47.28062" lon="-2.47738">
        <ele>49</ele>
        <time>2011-04-24T11:45:27Z</time>
      </trkpt>
      <trkpt lat="47.28069" lon="-2.47736">
        <ele>49</ele>
        <time>2011-04-24T11:45:29Z</time>
      </trkpt>
      <trkpt lat="47.28076" lon="-2.47735">
        <ele>48</ele>
        <time>2011-04-24T11:45:31Z</time>
      </trkpt>
      <trkpt lat="47.28082" lon="-2.47732">
        <ele>46</ele>
        <time>2011-04-24T11:45:33Z</time>
      </trkpt>
      <trkpt lat="47.28085" lon="-2.47727">
        <ele>46</ele>
        <time>2011-04-24T11:45:35Z</time>
      </trkpt>
      <trkpt lat="47.28086" lon="-2.4772">
        <ele>46</ele>
        <time>2011-04-24T11:45:37Z</time>
      </trkpt>
      <trkpt lat="47.28085" lon="-2.47711">
        <ele>47</ele>
        <time>2011-04-24T11:45:39Z</time>
      </trkpt>
      <trkpt lat="47.28083" lon="-2.47702">
        <ele>46</ele>
        <time>2011-04-24T11:45:41Z</time>
      </trkpt>
      <trkpt lat="47.28082" lon="-2.47692">
        <ele>46</ele>
        <time>2011-04-24T11:45:43Z</time>
      </trkpt>
      <trkpt lat="47.2808" lon="-2.47681">
        <ele>47</ele>
        <time>2011-04-24T11:45:45Z</time>
      </trkpt>
      <trkpt lat="47.2808" lon="-2.4767">
        <ele>46</ele>
        <time>2011-04-24T11:45:47Z</time>
      </trkpt>
      <trkpt lat="47.2808" lon="-2.4766">
        <ele>47</ele>
        <time>2011-04-24T11:45:49Z</time>
      </trkpt>
      <trkpt lat="47.28079" lon="-2.47649">
        <ele>47</ele>
        <time>2011-04-24T11:45:51Z</time>
      </trkpt>
      <trkpt lat="47.28079" lon="-2.47639">
        <ele>47</ele>
        <time>2011-04-24T11:45:53Z</time>
      </trkpt>
      <trkpt lat="47.28079" lon="-2.47626">
        <ele>45</ele>
        <time>2011-04-24T11:45:55Z</time>
      </trkpt>
      <trkpt lat="47.28079" lon="-2.47614">
        <ele>45</ele>
        <time>2011-04-24T11:45:57Z</time>
      </trkpt>
      <trkpt lat="47.28079" lon="-2.47603">
        <ele>45</ele>
        <time>2011-04-24T11:45:59Z</time>
      </trkpt>
      <trkpt lat="47.2808" lon="-2.47592">
        <ele>45</ele>
        <time>2011-04-24T11:46:01Z</time>
      </trkpt>
      <trkpt lat="47.28082" lon="-2.47581">
        <ele>45</ele>
        <time>2011-04-24T11:46:03Z</time>
      </trkpt>
      <trkpt lat="47.28083" lon="-2.47569">
        <ele>45</ele>
        <time>2011-04-24T11:46:05Z</time>
      </trkpt>
      <trkpt lat="47.28084" lon="-2.47557">
        <ele>46</ele>
        <time>2011-04-24T11:46:07Z</time>
      </trkpt>
      <trkpt lat="47.28086" lon="-2.47545">
        <ele>45</ele>
        <time>2011-04-24T11:46:09Z</time>
      </trkpt>
      <trkpt lat="47.28088" lon="-2.47532">
        <ele>45</ele>
        <time>2011-04-24T11:46:11Z</time>
      </trkpt>
      <trkpt lat="47.2809" lon="-2.4752">
        <ele>45</ele>
        <time>2011-04-24T11:46:13Z</time>
      </trkpt>
      <trkpt lat="47.28092" lon="-2.47508">
        <ele>45</ele>
        <time>2011-04-24T11:46:15Z</time>
      </trkpt>
      <trkpt lat="47.28093" lon="-2.47501">
        <ele>45</ele>
        <time>2011-04-24T11:46:16Z</time>
      </trkpt>
      <trkpt lat="47.28096" lon="-2.4749">
        <ele>46</ele>
        <time>2011-04-24T11:46:18Z</time>
      </trkpt>
      <trkpt lat="47.28098" lon="-2.47477">
        <ele>46</ele>
        <time>2011-04-24T11:46:20Z</time>
      </trkpt>
      <trkpt lat="47.281" lon="-2.47465">
        <ele>46</ele>
        <time>2011-04-24T11:46:22Z</time>
      </trkpt>
      <trkpt lat="47.28103" lon="-2.47453">
        <ele>46</ele>
        <time>2011-04-24T11:46:24Z</time>
      </trkpt>
      <trkpt lat="47.28105" lon="-2.47447">
        <ele>45</ele>
        <time>2011-04-24T11:46:25Z</time>
      </trkpt>
      <trkpt lat="47.28107" lon="-2.47434">
        <ele>46</ele>
        <time>2011-04-24T11:46:27Z</time>
      </trkpt>
      <trkpt lat="47.2811" lon="-2.47422">
        <ele>46</ele>
        <time>2011-04-24T11:46:29Z</time>
      </trkpt>
      <trkpt lat="47.28112" lon="-2.4741">
        <ele>46</ele>
        <time>2011-04-24T11:46:31Z</time>
      </trkpt>
      <trkpt lat="47.28114" lon="-2.47397">
        <ele>45</ele>
        <time>2011-04-24T11:46:33Z</time>
      </trkpt>
      <trkpt lat="47.28116" lon="-2.47385">
        <ele>46</ele>
        <time>2011-04-24T11:46:35Z</time>
      </trkpt>
      <trkpt lat="47.28119" lon="-2.47373">
        <ele>46</ele>
        <time>2011-04-24T11:46:37Z</time>
      </trkpt>
      <trkpt lat="47.28121" lon="-2.47361">
        <ele>46</ele>
        <time>2011-04-24T11:46:39Z</time>
      </trkpt>
      <trkpt lat="47.28123" lon="-2.47348">
        <ele>46</ele>
        <time>2011-04-24T11:46:41Z</time>
      </trkpt>
      <trkpt lat="47.28126" lon="-2.47336">
        <ele>46</ele>
        <time>2011-04-24T11:46:43Z</time>
      </trkpt>
      <trkpt lat="47.28126" lon="-2.47324">
        <ele>46</ele>
        <time>2011-04-24T11:46:45Z</time>
      </trkpt>
      <trkpt lat="47.28121" lon="-2.47317">
        <ele>47</ele>
        <time>2011-04-24T11:46:47Z</time>
      </trkpt>
      <trkpt lat="47.28119" lon="-2.4731">
        <ele>48</ele>
        <time>2011-04-24T11:46:49Z</time>
      </trkpt>
      <trkpt lat="47.28121" lon="-2.47303">
        <ele>48</ele>
        <time>2011-04-24T11:46:52Z</time>
      </trkpt>
      <trkpt lat="47.28127" lon="-2.47302">
        <ele>47</ele>
        <time>2011-04-24T11:46:54Z</time>
      </trkpt>
      <trkpt lat="47.28133" lon="-2.473">
        <ele>47</ele>
        <time>2011-04-24T11:46:56Z</time>
      </trkpt>
      <trkpt lat="47.28135" lon="-2.47293">
        <ele>47</ele>
        <time>2011-04-24T11:46:58Z</time>
      </trkpt>
      <trkpt lat="47.28137" lon="-2.47287">
        <ele>47</ele>
        <time>2011-04-24T11:47:01Z</time>
      </trkpt>
      <trkpt lat="47.28142" lon="-2.47285">
        <ele>48</ele>
        <time>2011-04-24T11:47:05Z</time>
      </trkpt>
      <trkpt lat="47.28146" lon="-2.47286">
        <ele>48</ele>
        <time>2011-04-24T11:47:49Z</time>
      </trkpt>
      <trkpt lat="47.28152" lon="-2.47285">
        <ele>47</ele>
        <time>2011-04-24T11:47:51Z</time>
      </trkpt>
      <trkpt lat="47.28158" lon="-2.47284">
        <ele>48</ele>
        <time>2011-04-24T11:47:53Z</time>
      </trkpt>
      <trkpt lat="47.28165" lon="-2.4728">
        <ele>47</ele>
        <time>2011-04-24T11:47:55Z</time>
      </trkpt>
      <trkpt lat="47.28169" lon="-2.47279">
        <ele>47</ele>
        <time>2011-04-24T11:47:56Z</time>
      </trkpt>
      <trkpt lat="47.28176" lon="-2.47275">
        <ele>47</ele>
        <time>2011-04-24T11:47:58Z</time>
      </trkpt>
      <trkpt lat="47.28181" lon="-2.4727">
        <ele>47</ele>
        <time>2011-04-24T11:48:00Z</time>
      </trkpt>
      <trkpt lat="47.28187" lon="-2.47265">
        <ele>47</ele>
        <time>2011-04-24T11:48:02Z</time>
      </trkpt>
      <trkpt lat="47.28193" lon="-2.47259">
        <ele>48</ele>
        <time>2011-04-24T11:48:04Z</time>
      </trkpt>
      <trkpt lat="47.282" lon="-2.47254">
        <ele>48</ele>
        <time>2011-04-24T11:48:06Z</time>
      </trkpt>
      <trkpt lat="47.28206" lon="-2.47249">
        <ele>48</ele>
        <time>2011-04-24T11:48:08Z</time>
      </trkpt>
      <trkpt lat="47.28212" lon="-2.47242">
        <ele>48</ele>
        <time>2011-04-24T11:48:10Z</time>
      </trkpt>
      <trkpt lat="47.28218" lon="-2.47235">
        <ele>47</ele>
        <time>2011-04-24T11:48:12Z</time>
      </trkpt>
      <trkpt lat="47.28222" lon="-2.4723">
        <ele>47</ele>
        <time>2011-04-24T11:48:13Z</time>
      </trkpt>
      <trkpt lat="47.28228" lon="-2.47223">
        <ele>48</ele>
        <time>2011-04-24T11:48:15Z</time>
      </trkpt>
      <trkpt lat="47.28233" lon="-2.47215">
        <ele>48</ele>
        <time>2011-04-24T11:48:17Z</time>
      </trkpt>
      <trkpt lat="47.28238" lon="-2.47208">
        <ele>48</ele>
        <time>2011-04-24T11:48:19Z</time>
      </trkpt>
      <trkpt lat="47.28245" lon="-2.47202">
        <ele>48</ele>
        <time>2011-04-24T11:48:21Z</time>
      </trkpt>
      <trkpt lat="47.28251" lon="-2.47193">
        <ele>48</ele>
        <time>2011-04-24T11:48:23Z</time>
      </trkpt>
      <trkpt lat="47.28258" lon="-2.47186">
        <ele>48</ele>
        <time>2011-04-24T11:48:25Z</time>
      </trkpt>
      <trkpt lat="47.28263" lon="-2.4718">
        <ele>48</ele>
        <time>2011-04-24T11:48:27Z</time>
      </trkpt>
      <trkpt lat="47.28268" lon="-2.47172">
        <ele>49</ele>
        <time>2011-04-24T11:48:29Z</time>
      </trkpt>
      <trkpt lat="47.28274" lon="-2.47166">
        <ele>49</ele>
        <time>2011-04-24T11:48:31Z</time>
      </trkpt>
      <trkpt lat="47.2828" lon="-2.47158">
        <ele>49</ele>
        <time>2011-04-24T11:48:33Z</time>
      </trkpt>
      <trkpt lat="47.28285" lon="-2.47151">
        <ele>49</ele>
        <time>2011-04-24T11:48:35Z</time>
      </trkpt>
      <trkpt lat="47.28291" lon="-2.47144">
        <ele>49</ele>
        <time>2011-04-24T11:48:37Z</time>
      </trkpt>
      <trkpt lat="47.28297" lon="-2.47136">
        <ele>49</ele>
        <time>2011-04-24T11:48:39Z</time>
      </trkpt>
      <trkpt lat="47.28303" lon="-2.47129">
        <ele>49</ele>
        <time>2011-04-24T11:48:41Z</time>
      </trkpt>
      <trkpt lat="47.28309" lon="-2.47122">
        <ele>49</ele>
        <time>2011-04-24T11:48:43Z</time>
      </trkpt>
      <trkpt lat="47.28314" lon="-2.47116">
        <ele>49</ele>
        <time>2011-04-24T11:48:45Z</time>
      </trkpt>
      <trkpt lat="47.28321" lon="-2.47108">
        <ele>49</ele>
        <time>2011-04-24T11:48:47Z</time>
      </trkpt>
      <trkpt lat="47.28327" lon="-2.47101">
        <ele>49</ele>
        <time>2011-04-24T11:48:49Z</time>
      </trkpt>
      <trkpt lat="47.28333" lon="-2.47093">
        <ele>49</ele>
        <time>2011-04-24T11:48:51Z</time>
      </trkpt>
      <trkpt lat="47.28339" lon="-2.47086">
        <ele>49</ele>
        <time>2011-04-24T11:48:53Z</time>
      </trkpt>
      <trkpt lat="47.28346" lon="-2.47079">
        <ele>49</ele>
        <time>2011-04-24T11:48:55Z</time>
      </trkpt>
      <trkpt lat="47.28351" lon="-2.47072">
        <ele>49</ele>
        <time>2011-04-24T11:48:57Z</time>
      </trkpt>
      <trkpt lat="47.28358" lon="-2.47065">
        <ele>49</ele>
        <time>2011-04-24T11:48:59Z</time>
      </trkpt>
      <trkpt lat="47.28364" lon="-2.47058">
        <ele>49</ele>
        <time>2011-04-24T11:49:01Z</time>
      </trkpt>
      <trkpt lat="47.2837" lon="-2.4705">
        <ele>48</ele>
        <time>2011-04-24T11:49:03Z</time>
      </trkpt>
      <trkpt lat="47.28376" lon="-2.47043">
        <ele>48</ele>
        <time>2011-04-24T11:49:05Z</time>
      </trkpt>
      <trkpt lat="47.28382" lon="-2.47036">
        <ele>48</ele>
        <time>2011-04-24T11:49:07Z</time>
      </trkpt>
      <trkpt lat="47.28389" lon="-2.47028">
        <ele>48</ele>
        <time>2011-04-24T11:49:09Z</time>
      </trkpt>
      <trkpt lat="47.28395" lon="-2.4702">
        <ele>48</ele>
        <time>2011-04-24T11:49:11Z</time>
      </trkpt>
      <trkpt lat="47.28399" lon="-2.47015">
        <ele>48</ele>
        <time>2011-04-24T11:49:12Z</time>
      </trkpt>
      <trkpt lat="47.28405" lon="-2.47006">
        <ele>48</ele>
        <time>2011-04-24T11:49:14Z</time>
      </trkpt>
      <trkpt lat="47.28409" lon="-2.47001">
        <ele>48</ele>
        <time>2011-04-24T11:49:15Z</time>
      </trkpt>
      <trkpt lat="47.28415" lon="-2.46994">
        <ele>49</ele>
        <time>2011-04-24T11:49:17Z</time>
      </trkpt>
      <trkpt lat="47.28419" lon="-2.4699">
        <ele>50</ele>
        <time>2011-04-24T11:49:18Z</time>
      </trkpt>
      <trkpt lat="47.28425" lon="-2.46983">
        <ele>50</ele>
        <time>2011-04-24T11:49:20Z</time>
      </trkpt>
      <trkpt lat="47.28431" lon="-2.46975">
        <ele>50</ele>
        <time>2011-04-24T11:49:22Z</time>
      </trkpt>
      <trkpt lat="47.28437" lon="-2.46968">
        <ele>50</ele>
        <time>2011-04-24T11:49:24Z</time>
      </trkpt>
      <trkpt lat="47.28441" lon="-2.46963">
        <ele>50</ele>
        <time>2011-04-24T11:49:25Z</time>
      </trkpt>
      <trkpt lat="47.28445" lon="-2.4696">
        <ele>49</ele>
        <time>2011-04-24T11:49:26Z</time>
      </trkpt>
      <trkpt lat="47.28448" lon="-2.46956">
        <ele>49</ele>
        <time>2011-04-24T11:49:27Z</time>
      </trkpt>
      <trkpt lat="47.28456" lon="-2.46949">
        <ele>49</ele>
        <time>2011-04-24T11:49:29Z</time>
      </trkpt>
      <trkpt lat="47.28463" lon="-2.46942">
        <ele>49</ele>
        <time>2011-04-24T11:49:31Z</time>
      </trkpt>
      <trkpt lat="47.2847" lon="-2.46938">
        <ele>49</ele>
        <time>2011-04-24T11:49:33Z</time>
      </trkpt>
      <trkpt lat="47.28477" lon="-2.46933">
        <ele>49</ele>
        <time>2011-04-24T11:49:35Z</time>
      </trkpt>
      <trkpt lat="47.28484" lon="-2.4693">
        <ele>49</ele>
        <time>2011-04-24T11:49:37Z</time>
      </trkpt>
      <trkpt lat="47.28492" lon="-2.46927">
        <ele>49</ele>
        <time>2011-04-24T11:49:39Z</time>
      </trkpt>
      <trkpt lat="47.285" lon="-2.46924">
        <ele>49</ele>
        <time>2011-04-24T11:49:41Z</time>
      </trkpt>
      <trkpt lat="47.28508" lon="-2.4692">
        <ele>49</ele>
        <time>2011-04-24T11:49:43Z</time>
      </trkpt>
      <trkpt lat="47.28516" lon="-2.46917">
        <ele>49</ele>
        <time>2011-04-24T11:49:45Z</time>
      </trkpt>
      <trkpt lat="47.28524" lon="-2.46911">
        <ele>49</ele>
        <time>2011-04-24T11:49:47Z</time>
      </trkpt>
      <trkpt lat="47.28528" lon="-2.46909">
        <ele>49</ele>
        <time>2011-04-24T11:49:48Z</time>
      </trkpt>
      <trkpt lat="47.28535" lon="-2.46903">
        <ele>49</ele>
        <time>2011-04-24T11:49:50Z</time>
      </trkpt>
      <trkpt lat="47.28542" lon="-2.46896">
        <ele>50</ele>
        <time>2011-04-24T11:49:52Z</time>
      </trkpt>
      <trkpt lat="47.28546" lon="-2.46891">
        <ele>49</ele>
        <time>2011-04-24T11:49:53Z</time>
      </trkpt>
      <trkpt lat="47.28552" lon="-2.46884">
        <ele>50</ele>
        <time>2011-04-24T11:49:55Z</time>
      </trkpt>
      <trkpt lat="47.28556" lon="-2.4688">
        <ele>49</ele>
        <time>2011-04-24T11:49:56Z</time>
      </trkpt>
      <trkpt lat="47.28562" lon="-2.46872">
        <ele>50</ele>
        <time>2011-04-24T11:49:58Z</time>
      </trkpt>
      <trkpt lat="47.28568" lon="-2.46862">
        <ele>49</ele>
        <time>2011-04-24T11:50:00Z</time>
      </trkpt>
      <trkpt lat="47.28575" lon="-2.46853">
        <ele>49</ele>
        <time>2011-04-24T11:50:02Z</time>
      </trkpt>
      <trkpt lat="47.28578" lon="-2.46848">
        <ele>49</ele>
        <time>2011-04-24T11:50:03Z</time>
      </trkpt>
      <trkpt lat="47.28585" lon="-2.46841">
        <ele>50</ele>
        <time>2011-04-24T11:50:05Z</time>
      </trkpt>
      <trkpt lat="47.28591" lon="-2.46832">
        <ele>50</ele>
        <time>2011-04-24T11:50:07Z</time>
      </trkpt>
      <trkpt lat="47.28596" lon="-2.46829">
        <ele>50</ele>
        <time>2011-04-24T11:50:08Z</time>
      </trkpt>
      <trkpt lat="47.28602" lon="-2.4682">
        <ele>51</ele>
        <time>2011-04-24T11:50:10Z</time>
      </trkpt>
      <trkpt lat="47.28607" lon="-2.46813">
        <ele>51</ele>
        <time>2011-04-24T11:50:12Z</time>
      </trkpt>
      <trkpt lat="47.28612" lon="-2.46807">
        <ele>52</ele>
        <time>2011-04-24T11:50:14Z</time>
      </trkpt>
      <trkpt lat="47.28618" lon="-2.468">
        <ele>52</ele>
        <time>2011-04-24T11:50:16Z</time>
      </trkpt>
      <trkpt lat="47.28623" lon="-2.46793">
        <ele>51</ele>
        <time>2011-04-24T11:50:18Z</time>
      </trkpt>
      <trkpt lat="47.28629" lon="-2.46785">
        <ele>51</ele>
        <time>2011-04-24T11:50:20Z</time>
      </trkpt>
      <trkpt lat="47.28636" lon="-2.46776">
        <ele>50</ele>
        <time>2011-04-24T11:50:22Z</time>
      </trkpt>
      <trkpt lat="47.28643" lon="-2.46768">
        <ele>50</ele>
        <time>2011-04-24T11:50:24Z</time>
      </trkpt>
      <trkpt lat="47.28648" lon="-2.46763">
        <ele>50</ele>
        <time>2011-04-24T11:50:25Z</time>
      </trkpt>
      <trkpt lat="47.28651" lon="-2.46759">
        <ele>49</ele>
        <time>2011-04-24T11:50:26Z</time>
      </trkpt>
      <trkpt lat="47.28656" lon="-2.46754">
        <ele>49</ele>
        <time>2011-04-24T11:50:27Z</time>
      </trkpt>
      <trkpt lat="47.28662" lon="-2.46745">
        <ele>49</ele>
        <time>2011-04-24T11:50:29Z</time>
      </trkpt>
      <trkpt lat="47.28666" lon="-2.46741">
        <ele>49</ele>
        <time>2011-04-24T11:50:30Z</time>
      </trkpt>
      <trkpt lat="47.28673" lon="-2.46732">
        <ele>49</ele>
        <time>2011-04-24T11:50:32Z</time>
      </trkpt>
      <trkpt lat="47.2868" lon="-2.46727">
        <ele>49</ele>
        <time>2011-04-24T11:50:34Z</time>
      </trkpt>
      <trkpt lat="47.28686" lon="-2.46721">
        <ele>49</ele>
        <time>2011-04-24T11:50:36Z</time>
      </trkpt>
      <trkpt lat="47.28693" lon="-2.46716">
        <ele>49</ele>
        <time>2011-04-24T11:50:38Z</time>
      </trkpt>
      <trkpt lat="47.28698" lon="-2.46714">
        <ele>49</ele>
        <time>2011-04-24T11:50:39Z</time>
      </trkpt>
      <trkpt lat="47.28706" lon="-2.46711">
        <ele>49</ele>
        <time>2011-04-24T11:50:41Z</time>
      </trkpt>
      <trkpt lat="47.28714" lon="-2.46707">
        <ele>48</ele>
        <time>2011-04-24T11:50:43Z</time>
      </trkpt>
      <trkpt lat="47.28722" lon="-2.46704">
        <ele>49</ele>
        <time>2011-04-24T11:50:45Z</time>
      </trkpt>
      <trkpt lat="47.28731" lon="-2.467">
        <ele>49</ele>
        <time>2011-04-24T11:50:47Z</time>
      </trkpt>
      <trkpt lat="47.28738" lon="-2.46696">
        <ele>48</ele>
        <time>2011-04-24T11:50:49Z</time>
      </trkpt>
      <trkpt lat="47.28742" lon="-2.46694">
        <ele>48</ele>
        <time>2011-04-24T11:50:50Z</time>
      </trkpt>
      <trkpt lat="47.28751" lon="-2.46691">
        <ele>49</ele>
        <time>2011-04-24T11:50:52Z</time>
      </trkpt>
      <trkpt lat="47.28759" lon="-2.46687">
        <ele>49</ele>
        <time>2011-04-24T11:50:54Z</time>
      </trkpt>
      <trkpt lat="47.28763" lon="-2.46685">
        <ele>48</ele>
        <time>2011-04-24T11:50:55Z</time>
      </trkpt>
      <trkpt lat="47.28768" lon="-2.46682">
        <ele>48</ele>
        <time>2011-04-24T11:50:56Z</time>
      </trkpt>
      <trkpt lat="47.28776" lon="-2.46676">
        <ele>48</ele>
        <time>2011-04-24T11:50:58Z</time>
      </trkpt>
      <trkpt lat="47.2878" lon="-2.46672">
        <ele>48</ele>
        <time>2011-04-24T11:50:59Z</time>
      </trkpt>
      <trkpt lat="47.28783" lon="-2.46668">
        <ele>48</ele>
        <time>2011-04-24T11:51:00Z</time>
      </trkpt>
      <trkpt lat="47.28787" lon="-2.46664">
        <ele>48</ele>
        <time>2011-04-24T11:51:01Z</time>
      </trkpt>
      <trkpt lat="47.28791" lon="-2.46659">
        <ele>48</ele>
        <time>2011-04-24T11:51:02Z</time>
      </trkpt>
      <trkpt lat="47.28795" lon="-2.46647">
        <ele>48</ele>
        <time>2011-04-24T11:51:04Z</time>
      </trkpt>
      <trkpt lat="47.28797" lon="-2.46641">
        <ele>48</ele>
        <time>2011-04-24T11:51:05Z</time>
      </trkpt>
      <trkpt lat="47.288" lon="-2.4663">
        <ele>48</ele>
        <time>2011-04-24T11:51:07Z</time>
      </trkpt>
      <trkpt lat="47.28803" lon="-2.46618">
        <ele>48</ele>
        <time>2011-04-24T11:51:09Z</time>
      </trkpt>
      <trkpt lat="47.28807" lon="-2.46606">
        <ele>48</ele>
        <time>2011-04-24T11:51:11Z</time>
      </trkpt>
      <trkpt lat="47.2881" lon="-2.46601">
        <ele>48</ele>
        <time>2011-04-24T11:51:12Z</time>
      </trkpt>
      <trkpt lat="47.28818" lon="-2.46587">
        <ele>48</ele>
        <time>2011-04-24T11:51:15Z</time>
      </trkpt>
      <trkpt lat="47.28825" lon="-2.46579">
        <ele>49</ele>
        <time>2011-04-24T11:51:17Z</time>
      </trkpt>
      <trkpt lat="47.28831" lon="-2.46572">
        <ele>49</ele>
        <time>2011-04-24T11:51:19Z</time>
      </trkpt>
      <trkpt lat="47.28838" lon="-2.46567">
        <ele>49</ele>
        <time>2011-04-24T11:51:21Z</time>
      </trkpt>
      <trkpt lat="47.28845" lon="-2.46561">
        <ele>49</ele>
        <time>2011-04-24T11:51:23Z</time>
      </trkpt>
      <trkpt lat="47.28851" lon="-2.46556">
        <ele>49</ele>
        <time>2011-04-24T11:51:25Z</time>
      </trkpt>
      <trkpt lat="47.28858" lon="-2.46552">
        <ele>49</ele>
        <time>2011-04-24T11:51:27Z</time>
      </trkpt>
      <trkpt lat="47.28864" lon="-2.46549">
        <ele>49</ele>
        <time>2011-04-24T11:51:29Z</time>
      </trkpt>
      <trkpt lat="47.2887" lon="-2.46545">
        <ele>49</ele>
        <time>2011-04-24T11:51:31Z</time>
      </trkpt>
      <trkpt lat="47.28874" lon="-2.46542">
        <ele>49</ele>
        <time>2011-04-24T11:51:33Z</time>
      </trkpt>
      <trkpt lat="47.28879" lon="-2.46538">
        <ele>49</ele>
        <time>2011-04-24T11:51:36Z</time>
      </trkpt>
      <trkpt lat="47.28884" lon="-2.46535">
        <ele>49</ele>
        <time>2011-04-24T11:51:40Z</time>
      </trkpt>
      <trkpt lat="47.28888" lon="-2.46533">
        <ele>50</ele>
        <time>2011-04-24T12:01:00Z</time>
      </trkpt>
      <trkpt lat="47.28892" lon="-2.46528">
        <ele>50</ele>
        <time>2011-04-24T12:01:03Z</time>
      </trkpt>
      <trkpt lat="47.28895" lon="-2.46522">
        <ele>51</ele>
        <time>2011-04-24T12:01:06Z</time>
      </trkpt>
      <trkpt lat="47.28899" lon="-2.46519">
        <ele>51</ele>
        <time>2011-04-24T12:01:09Z</time>
      </trkpt>
      <trkpt lat="47.28903" lon="-2.46516">
        <ele>51</ele>
        <time>2011-04-24T12:01:11Z</time>
      </trkpt>
      <trkpt lat="47.28908" lon="-2.46513">
        <ele>51</ele>
        <time>2011-04-24T12:01:13Z</time>
      </trkpt>
      <trkpt lat="47.28914" lon="-2.46509">
        <ele>51</ele>
        <time>2011-04-24T12:01:15Z</time>
      </trkpt>
      <trkpt lat="47.28921" lon="-2.46506">
        <ele>51</ele>
        <time>2011-04-24T12:01:17Z</time>
      </trkpt>
      <trkpt lat="47.28928" lon="-2.46502">
        <ele>51</ele>
        <time>2011-04-24T12:01:19Z</time>
      </trkpt>
      <trkpt lat="47.28934" lon="-2.46499">
        <ele>51</ele>
        <time>2011-04-24T12:01:21Z</time>
      </trkpt>
      <trkpt lat="47.28942" lon="-2.46497">
        <ele>51</ele>
        <time>2011-04-24T12:01:23Z</time>
      </trkpt>
      <trkpt lat="47.28949" lon="-2.46494">
        <ele>51</ele>
        <time>2011-04-24T12:01:25Z</time>
      </trkpt>
      <trkpt lat="47.28956" lon="-2.46492">
        <ele>51</ele>
        <time>2011-04-24T12:01:27Z</time>
      </trkpt>
      <trkpt lat="47.28964" lon="-2.46491">
        <ele>51</ele>
        <time>2011-04-24T12:01:29Z</time>
      </trkpt>
      <trkpt lat="47.28972" lon="-2.46488">
        <ele>51</ele>
        <time>2011-04-24T12:01:31Z</time>
      </trkpt>
      <trkpt lat="47.28979" lon="-2.46487">
        <ele>50</ele>
        <time>2011-04-24T12:01:33Z</time>
      </trkpt>
      <trkpt lat="47.28987" lon="-2.46485">
        <ele>50</ele>
        <time>2011-04-24T12:01:35Z</time>
      </trkpt>
      <trkpt lat="47.28995" lon="-2.46483">
        <ele>50</ele>
        <time>2011-04-24T12:01:37Z</time>
      </trkpt>
      <trkpt lat="47.29003" lon="-2.46481">
        <ele>50</ele>
        <time>2011-04-24T12:01:39Z</time>
      </trkpt>
      <trkpt lat="47.29011" lon="-2.46479">
        <ele>50</ele>
        <time>2011-04-24T12:01:41Z</time>
      </trkpt>
      <trkpt lat="47.29018" lon="-2.46477">
        <ele>50</ele>
        <time>2011-04-24T12:01:43Z</time>
      </trkpt>
      <trkpt lat="47.29026" lon="-2.46475">
        <ele>50</ele>
        <time>2011-04-24T12:01:45Z</time>
      </trkpt>
      <trkpt lat="47.29034" lon="-2.46472">
        <ele>50</ele>
        <time>2011-04-24T12:01:47Z</time>
      </trkpt>
      <trkpt lat="47.29043" lon="-2.4647">
        <ele>49</ele>
        <time>2011-04-24T12:01:49Z</time>
      </trkpt>
      <trkpt lat="47.29052" lon="-2.46468">
        <ele>50</ele>
        <time>2011-04-24T12:01:51Z</time>
      </trkpt>
      <trkpt lat="47.2906" lon="-2.46466">
        <ele>50</ele>
        <time>2011-04-24T12:01:53Z</time>
      </trkpt>
      <trkpt lat="47.29069" lon="-2.46463">
        <ele>50</ele>
        <time>2011-04-24T12:01:55Z</time>
      </trkpt>
      <trkpt lat="47.29078" lon="-2.46462">
        <ele>50</ele>
        <time>2011-04-24T12:01:57Z</time>
      </trkpt>
      <trkpt lat="47.29086" lon="-2.4646">
        <ele>49</ele>
        <time>2011-04-24T12:01:59Z</time>
      </trkpt>
      <trkpt lat="47.29095" lon="-2.46459">
        <ele>49</ele>
        <time>2011-04-24T12:02:01Z</time>
      </trkpt>
      <trkpt lat="47.29104" lon="-2.46458">
        <ele>50</ele>
        <time>2011-04-24T12:02:03Z</time>
      </trkpt>
      <trkpt lat="47.29112" lon="-2.46458">
        <ele>50</ele>
        <time>2011-04-24T12:02:05Z</time>
      </trkpt>
      <trkpt lat="47.29121" lon="-2.46459">
        <ele>50</ele>
        <time>2011-04-24T12:02:07Z</time>
      </trkpt>
      <trkpt lat="47.29129" lon="-2.46461">
        <ele>50</ele>
        <time>2011-04-24T12:02:09Z</time>
      </trkpt>
      <trkpt lat="47.29137" lon="-2.46463">
        <ele>50</ele>
        <time>2011-04-24T12:02:11Z</time>
      </trkpt>
      <trkpt lat="47.29146" lon="-2.46466">
        <ele>50</ele>
        <time>2011-04-24T12:02:13Z</time>
      </trkpt>
      <trkpt lat="47.29154" lon="-2.4647">
        <ele>50</ele>
        <time>2011-04-24T12:02:15Z</time>
      </trkpt>
      <trkpt lat="47.29162" lon="-2.46474">
        <ele>50</ele>
        <time>2011-04-24T12:02:17Z</time>
      </trkpt>
      <trkpt lat="47.2917" lon="-2.46479">
        <ele>50</ele>
        <time>2011-04-24T12:02:19Z</time>
      </trkpt>
      <trkpt lat="47.29177" lon="-2.46485">
        <ele>50</ele>
        <time>2011-04-24T12:02:21Z</time>
      </trkpt>
      <trkpt lat="47.29184" lon="-2.46491">
        <ele>50</ele>
        <time>2011-04-24T12:02:23Z</time>
      </trkpt>
      <trkpt lat="47.29192" lon="-2.46497">
        <ele>49</ele>
        <time>2011-04-24T12:02:25Z</time>
      </trkpt>
      <trkpt lat="47.29198" lon="-2.46503">
        <ele>49</ele>
        <time>2011-04-24T12:02:27Z</time>
      </trkpt>
      <trkpt lat="47.29205" lon="-2.46509">
        <ele>49</ele>
        <time>2011-04-24T12:02:29Z</time>
      </trkpt>
      <trkpt lat="47.29211" lon="-2.46516">
        <ele>49</ele>
        <time>2011-04-24T12:02:31Z</time>
      </trkpt>
      <trkpt lat="47.29218" lon="-2.46522">
        <ele>49</ele>
        <time>2011-04-24T12:02:33Z</time>
      </trkpt>
      <trkpt lat="47.29225" lon="-2.46529">
        <ele>49</ele>
        <time>2011-04-24T12:02:35Z</time>
      </trkpt>
      <trkpt lat="47.29231" lon="-2.46536">
        <ele>49</ele>
        <time>2011-04-24T12:02:37Z</time>
      </trkpt>
      <trkpt lat="47.29237" lon="-2.46545">
        <ele>49</ele>
        <time>2011-04-24T12:02:39Z</time>
      </trkpt>
      <trkpt lat="47.29242" lon="-2.46553">
        <ele>49</ele>
        <time>2011-04-24T12:02:41Z</time>
      </trkpt>
      <trkpt lat="47.29247" lon="-2.46565">
        <ele>49</ele>
        <time>2011-04-24T12:02:43Z</time>
      </trkpt>
      <trkpt lat="47.29249" lon="-2.46577">
        <ele>49</ele>
        <time>2011-04-24T12:02:45Z</time>
      </trkpt>
      <trkpt lat="47.29252" lon="-2.46588">
        <ele>49</ele>
        <time>2011-04-24T12:02:47Z</time>
      </trkpt>
      <trkpt lat="47.29254" lon="-2.466">
        <ele>49</ele>
        <time>2011-04-24T12:02:49Z</time>
      </trkpt>
      <trkpt lat="47.29255" lon="-2.46611">
        <ele>49</ele>
        <time>2011-04-24T12:02:51Z</time>
      </trkpt>
      <trkpt lat="47.29257" lon="-2.46623">
        <ele>49</ele>
        <time>2011-04-24T12:02:53Z</time>
      </trkpt>
      <trkpt lat="47.29259" lon="-2.46634">
        <ele>49</ele>
        <time>2011-04-24T12:02:55Z</time>
      </trkpt>
      <trkpt lat="47.29262" lon="-2.46646">
        <ele>49</ele>
        <time>2011-04-24T12:02:57Z</time>
      </trkpt>
      <trkpt lat="47.29268" lon="-2.46655">
        <ele>49</ele>
        <time>2011-04-24T12:02:59Z</time>
      </trkpt>
      <trkpt lat="47.29274" lon="-2.46664">
        <ele>49</ele>
        <time>2011-04-24T12:03:01Z</time>
      </trkpt>
      <trkpt lat="47.29282" lon="-2.46671">
        <ele>49</ele>
        <time>2011-04-24T12:03:03Z</time>
      </trkpt>
      <trkpt lat="47.29289" lon="-2.46677">
        <ele>50</ele>
        <time>2011-04-24T12:03:05Z</time>
      </trkpt>
      <trkpt lat="47.29297" lon="-2.46682">
        <ele>50</ele>
        <time>2011-04-24T12:03:07Z</time>
      </trkpt>
      <trkpt lat="47.29305" lon="-2.46686">
        <ele>49</ele>
        <time>2011-04-24T12:03:09Z</time>
      </trkpt>
      <trkpt lat="47.29313" lon="-2.4669">
        <ele>49</ele>
        <time>2011-04-24T12:03:11Z</time>
      </trkpt>
      <trkpt lat="47.29321" lon="-2.46694">
        <ele>50</ele>
        <time>2011-04-24T12:03:13Z</time>
      </trkpt>
      <trkpt lat="47.29329" lon="-2.46698">
        <ele>50</ele>
        <time>2011-04-24T12:03:15Z</time>
      </trkpt>
      <trkpt lat="47.29337" lon="-2.46702">
        <ele>50</ele>
        <time>2011-04-24T12:03:17Z</time>
      </trkpt>
      <trkpt lat="47.29346" lon="-2.46706">
        <ele>50</ele>
        <time>2011-04-24T12:03:19Z</time>
      </trkpt>
      <trkpt lat="47.29354" lon="-2.46711">
        <ele>50</ele>
        <time>2011-04-24T12:03:21Z</time>
      </trkpt>
      <trkpt lat="47.29362" lon="-2.46714">
        <ele>51</ele>
        <time>2011-04-24T12:03:23Z</time>
      </trkpt>
      <trkpt lat="47.2937" lon="-2.46716">
        <ele>50</ele>
        <time>2011-04-24T12:03:25Z</time>
      </trkpt>
      <trkpt lat="47.29378" lon="-2.46719">
        <ele>51</ele>
        <time>2011-04-24T12:03:27Z</time>
      </trkpt>
      <trkpt lat="47.29386" lon="-2.46719">
        <ele>51</ele>
        <time>2011-04-24T12:03:29Z</time>
      </trkpt>
      <trkpt lat="47.29393" lon="-2.46718">
        <ele>51</ele>
        <time>2011-04-24T12:03:31Z</time>
      </trkpt>
      <trkpt lat="47.29401" lon="-2.46717">
        <ele>51</ele>
        <time>2011-04-24T12:03:33Z</time>
      </trkpt>
      <trkpt lat="47.29408" lon="-2.46715">
        <ele>50</ele>
        <time>2011-04-24T12:03:35Z</time>
      </trkpt>
      <trkpt lat="47.29416" lon="-2.46714">
        <ele>50</ele>
        <time>2011-04-24T12:03:37Z</time>
      </trkpt>
      <trkpt lat="47.29424" lon="-2.46715">
        <ele>50</ele>
        <time>2011-04-24T12:03:39Z</time>
      </trkpt>
      <trkpt lat="47.29432" lon="-2.46717">
        <ele>50</ele>
        <time>2011-04-24T12:03:41Z</time>
      </trkpt>
      <trkpt lat="47.2944" lon="-2.46721">
        <ele>50</ele>
        <time>2011-04-24T12:03:43Z</time>
      </trkpt>
      <trkpt lat="47.29447" lon="-2.46727">
        <ele>50</ele>
        <time>2011-04-24T12:03:45Z</time>
      </trkpt>
      <trkpt lat="47.29453" lon="-2.46733">
        <ele>50</ele>
        <time>2011-04-24T12:03:47Z</time>
      </trkpt>
      <trkpt lat="47.2946" lon="-2.46739">
        <ele>50</ele>
        <time>2011-04-24T12:03:49Z</time>
      </trkpt>
      <trkpt lat="47.29467" lon="-2.46744">
        <ele>50</ele>
        <time>2011-04-24T12:03:51Z</time>
      </trkpt>
      <trkpt lat="47.29472" lon="-2.46746">
        <ele>50</ele>
        <time>2011-04-24T12:03:52Z</time>
      </trkpt>
      <trkpt lat="47.2948" lon="-2.46746">
        <ele>50</ele>
        <time>2011-04-24T12:03:54Z</time>
      </trkpt>
      <trkpt lat="47.29488" lon="-2.46745">
        <ele>50</ele>
        <time>2011-04-24T12:03:56Z</time>
      </trkpt>
      <trkpt lat="47.29496" lon="-2.46743">
        <ele>50</ele>
        <time>2011-04-24T12:03:58Z</time>
      </trkpt>
      <trkpt lat="47.29504" lon="-2.4674">
        <ele>51</ele>
        <time>2011-04-24T12:04:00Z</time>
      </trkpt>
      <trkpt lat="47.29508" lon="-2.46738">
        <ele>51</ele>
        <time>2011-04-24T12:04:01Z</time>
      </trkpt>
      <trkpt lat="47.29517" lon="-2.46735">
        <ele>50</ele>
        <time>2011-04-24T12:04:03Z</time>
      </trkpt>
      <trkpt lat="47.29525" lon="-2.46732">
        <ele>50</ele>
        <time>2011-04-24T12:04:05Z</time>
      </trkpt>
      <trkpt lat="47.29533" lon="-2.46729">
        <ele>50</ele>
        <time>2011-04-24T12:04:07Z</time>
      </trkpt>
      <trkpt lat="47.29541" lon="-2.46726">
        <ele>50</ele>
        <time>2011-04-24T12:04:09Z</time>
      </trkpt>
      <trkpt lat="47.29549" lon="-2.46723">
        <ele>50</ele>
        <time>2011-04-24T12:04:11Z</time>
      </trkpt>
      <trkpt lat="47.29558" lon="-2.46719">
        <ele>50</ele>
        <time>2011-04-24T12:04:13Z</time>
      </trkpt>
      <trkpt lat="47.29562" lon="-2.46717">
        <ele>50</ele>
        <time>2011-04-24T12:04:14Z</time>
      </trkpt>
      <trkpt lat="47.29566" lon="-2.46714">
        <ele>51</ele>
        <time>2011-04-24T12:04:15Z</time>
      </trkpt>
      <trkpt lat="47.29571" lon="-2.46712">
        <ele>50</ele>
        <time>2011-04-24T12:04:16Z</time>
      </trkpt>
      <trkpt lat="47.29576" lon="-2.4671">
        <ele>49</ele>
        <time>2011-04-24T12:04:17Z</time>
      </trkpt>
      <trkpt lat="47.2958" lon="-2.46707">
        <ele>48</ele>
        <time>2011-04-24T12:04:18Z</time>
      </trkpt>
      <trkpt lat="47.29587" lon="-2.46702">
        <ele>48</ele>
        <time>2011-04-24T12:04:20Z</time>
      </trkpt>
      <trkpt lat="47.29591" lon="-2.46698">
        <ele>48</ele>
        <time>2011-04-24T12:04:21Z</time>
      </trkpt>
      <trkpt lat="47.29599" lon="-2.46691">
        <ele>49</ele>
        <time>2011-04-24T12:04:23Z</time>
      </trkpt>
      <trkpt lat="47.29606" lon="-2.46684">
        <ele>49</ele>
        <time>2011-04-24T12:04:25Z</time>
      </trkpt>
      <trkpt lat="47.2961" lon="-2.46681">
        <ele>49</ele>
        <time>2011-04-24T12:04:26Z</time>
      </trkpt>
      <trkpt lat="47.29614" lon="-2.46677">
        <ele>49</ele>
        <time>2011-04-24T12:04:27Z</time>
      </trkpt>
      <trkpt lat="47.29618" lon="-2.46674">
        <ele>49</ele>
        <time>2011-04-24T12:04:28Z</time>
      </trkpt>
      <trkpt lat="47.29622" lon="-2.4667">
        <ele>49</ele>
        <time>2011-04-24T12:04:29Z</time>
      </trkpt>
      <trkpt lat="47.29626" lon="-2.46667">
        <ele>49</ele>
        <time>2011-04-24T12:04:30Z</time>
      </trkpt>
      <trkpt lat="47.29634" lon="-2.4666">
        <ele>49</ele>
        <time>2011-04-24T12:04:32Z</time>
      </trkpt>
      <trkpt lat="47.29641" lon="-2.46653">
        <ele>49</ele>
        <time>2011-04-24T12:04:34Z</time>
      </trkpt>
      <trkpt lat="47.29645" lon="-2.4665">
        <ele>49</ele>
        <time>2011-04-24T12:04:35Z</time>
      </trkpt>
      <trkpt lat="47.29653" lon="-2.46643">
        <ele>49</ele>
        <time>2011-04-24T12:04:37Z</time>
      </trkpt>
      <trkpt lat="47.2966" lon="-2.46637">
        <ele>49</ele>
        <time>2011-04-24T12:04:39Z</time>
      </trkpt>
      <trkpt lat="47.29668" lon="-2.4663">
        <ele>49</ele>
        <time>2011-04-24T12:04:41Z</time>
      </trkpt>
      <trkpt lat="47.29675" lon="-2.46623">
        <ele>49</ele>
        <time>2011-04-24T12:04:43Z</time>
      </trkpt>
      <trkpt lat="47.29683" lon="-2.46617">
        <ele>49</ele>
        <time>2011-04-24T12:04:45Z</time>
      </trkpt>
      <trkpt lat="47.2969" lon="-2.4661">
        <ele>49</ele>
        <time>2011-04-24T12:04:47Z</time>
      </trkpt>
      <trkpt lat="47.29698" lon="-2.46603">
        <ele>49</ele>
        <time>2011-04-24T12:04:49Z</time>
      </trkpt>
      <trkpt lat="47.29706" lon="-2.46597">
        <ele>49</ele>
        <time>2011-04-24T12:04:51Z</time>
      </trkpt>
      <trkpt lat="47.29713" lon="-2.46591">
        <ele>49</ele>
        <time>2011-04-24T12:04:53Z</time>
      </trkpt>
      <trkpt lat="47.2972" lon="-2.46584">
        <ele>49</ele>
        <time>2011-04-24T12:04:55Z</time>
      </trkpt>
      <trkpt lat="47.29727" lon="-2.46579">
        <ele>49</ele>
        <time>2011-04-24T12:04:57Z</time>
      </trkpt>
      <trkpt lat="47.29735" lon="-2.46573">
        <ele>49</ele>
        <time>2011-04-24T12:04:59Z</time>
      </trkpt>
      <trkpt lat="47.29744" lon="-2.46571">
        <ele>49</ele>
        <time>2011-04-24T12:05:01Z</time>
      </trkpt>
      <trkpt lat="47.29752" lon="-2.4657">
        <ele>49</ele>
        <time>2011-04-24T12:05:03Z</time>
      </trkpt>
      <trkpt lat="47.2976" lon="-2.46573">
        <ele>49</ele>
        <time>2011-04-24T12:05:05Z</time>
      </trkpt>
      <trkpt lat="47.29767" lon="-2.46579">
        <ele>49</ele>
        <time>2011-04-24T12:05:07Z</time>
      </trkpt>
      <trkpt lat="47.29775" lon="-2.46585">
        <ele>49</ele>
        <time>2011-04-24T12:05:09Z</time>
      </trkpt>
      <trkpt lat="47.29778" lon="-2.46589">
        <ele>49</ele>
        <time>2011-04-24T12:05:10Z</time>
      </trkpt>
      <trkpt lat="47.29786" lon="-2.46596">
        <ele>49</ele>
        <time>2011-04-24T12:05:12Z</time>
      </trkpt>
      <trkpt lat="47.29793" lon="-2.46602">
        <ele>49</ele>
        <time>2011-04-24T12:05:14Z</time>
      </trkpt>
      <trkpt lat="47.29801" lon="-2.46606">
        <ele>49</ele>
        <time>2011-04-24T12:05:16Z</time>
      </trkpt>
      <trkpt lat="47.2981" lon="-2.46609">
        <ele>49</ele>
        <time>2011-04-24T12:05:18Z</time>
      </trkpt>
      <trkpt lat="47.29819" lon="-2.46609">
        <ele>49</ele>
        <time>2011-04-24T12:05:20Z</time>
      </trkpt>
      <trkpt lat="47.29828" lon="-2.46607">
        <ele>49</ele>
        <time>2011-04-24T12:05:22Z</time>
      </trkpt>
      <trkpt lat="47.29836" lon="-2.46605">
        <ele>49</ele>
        <time>2011-04-24T12:05:24Z</time>
      </trkpt>
      <trkpt lat="47.29844" lon="-2.46602">
        <ele>50</ele>
        <time>2011-04-24T12:05:26Z</time>
      </trkpt>
      <trkpt lat="47.29853" lon="-2.466">
        <ele>50</ele>
        <time>2011-04-24T12:05:28Z</time>
      </trkpt>
      <trkpt lat="47.29861" lon="-2.46598">
        <ele>50</ele>
        <time>2011-04-24T12:05:30Z</time>
      </trkpt>
      <trkpt lat="47.2987" lon="-2.46595">
        <ele>50</ele>
        <time>2011-04-24T12:05:32Z</time>
      </trkpt>
      <trkpt lat="47.29878" lon="-2.46592">
        <ele>50</ele>
        <time>2011-04-24T12:05:34Z</time>
      </trkpt>
      <trkpt lat="47.29886" lon="-2.46589">
        <ele>50</ele>
        <time>2011-04-24T12:05:36Z</time>
      </trkpt>
      <trkpt lat="47.29894" lon="-2.46587">
        <ele>50</ele>
        <time>2011-04-24T12:05:38Z</time>
      </trkpt>
      <trkpt lat="47.29902" lon="-2.46584">
        <ele>50</ele>
        <time>2011-04-24T12:05:40Z</time>
      </trkpt>
      <trkpt lat="47.29906" lon="-2.46582">
        <ele>50</ele>
        <time>2011-04-24T12:05:41Z</time>
      </trkpt>
      <trkpt lat="47.29914" lon="-2.4658">
        <ele>50</ele>
        <time>2011-04-24T12:05:43Z</time>
      </trkpt>
      <trkpt lat="47.29922" lon="-2.46576">
        <ele>50</ele>
        <time>2011-04-24T12:05:45Z</time>
      </trkpt>
      <trkpt lat="47.2993" lon="-2.46573">
        <ele>50</ele>
        <time>2011-04-24T12:05:47Z</time>
      </trkpt>
      <trkpt lat="47.29938" lon="-2.4657">
        <ele>50</ele>
        <time>2011-04-24T12:05:49Z</time>
      </trkpt>
      <trkpt lat="47.29947" lon="-2.46567">
        <ele>50</ele>
        <time>2011-04-24T12:05:51Z</time>
      </trkpt>
      <trkpt lat="47.29955" lon="-2.46563">
        <ele>50</ele>
        <time>2011-04-24T12:05:53Z</time>
      </trkpt>
      <trkpt lat="47.29962" lon="-2.46558">
        <ele>49</ele>
        <time>2011-04-24T12:05:55Z</time>
      </trkpt>
      <trkpt lat="47.29966" lon="-2.46554">
        <ele>49</ele>
        <time>2011-04-24T12:05:56Z</time>
      </trkpt>
      <trkpt lat="47.29973" lon="-2.46546">
        <ele>49</ele>
        <time>2011-04-24T12:05:58Z</time>
      </trkpt>
      <trkpt lat="47.29978" lon="-2.46538">
        <ele>49</ele>
        <time>2011-04-24T12:06:00Z</time>
      </trkpt>
      <trkpt lat="47.29984" lon="-2.46529">
        <ele>49</ele>
        <time>2011-04-24T12:06:02Z</time>
      </trkpt>
      <trkpt lat="47.2999" lon="-2.4652">
        <ele>50</ele>
        <time>2011-04-24T12:06:04Z</time>
      </trkpt>
      <trkpt lat="47.29996" lon="-2.46513">
        <ele>49</ele>
        <time>2011-04-24T12:06:06Z</time>
      </trkpt>
      <trkpt lat="47.30004" lon="-2.46507">
        <ele>49</ele>
        <time>2011-04-24T12:06:08Z</time>
      </trkpt>
      <trkpt lat="47.30013" lon="-2.46505">
        <ele>50</ele>
        <time>2011-04-24T12:06:10Z</time>
      </trkpt>
      <trkpt lat="47.30021" lon="-2.46507">
        <ele>50</ele>
        <time>2011-04-24T12:06:12Z</time>
      </trkpt>
      <trkpt lat="47.30026" lon="-2.46509">
        <ele>50</ele>
        <time>2011-04-24T12:06:13Z</time>
      </trkpt>
      <trkpt lat="47.3003" lon="-2.46511">
        <ele>50</ele>
        <time>2011-04-24T12:06:14Z</time>
      </trkpt>
      <trkpt lat="47.30034" lon="-2.46514">
        <ele>49</ele>
        <time>2011-04-24T12:06:15Z</time>
      </trkpt>
      <trkpt lat="47.30042" lon="-2.4652">
        <ele>49</ele>
        <time>2011-04-24T12:06:17Z</time>
      </trkpt>
      <trkpt lat="47.3005" lon="-2.46527">
        <ele>49</ele>
        <time>2011-04-24T12:06:19Z</time>
      </trkpt>
      <trkpt lat="47.30058" lon="-2.46532">
        <ele>49</ele>
        <time>2011-04-24T12:06:21Z</time>
      </trkpt>
      <trkpt lat="47.30063" lon="-2.46534">
        <ele>49</ele>
        <time>2011-04-24T12:06:22Z</time>
      </trkpt>
      <trkpt lat="47.30068" lon="-2.46536">
        <ele>49</ele>
        <time>2011-04-24T12:06:23Z</time>
      </trkpt>
      <trkpt lat="47.30076" lon="-2.46538">
        <ele>49</ele>
        <time>2011-04-24T12:06:25Z</time>
      </trkpt>
      <trkpt lat="47.30085" lon="-2.46539">
        <ele>49</ele>
        <time>2011-04-24T12:06:27Z</time>
      </trkpt>
      <trkpt lat="47.3009" lon="-2.46539">
        <ele>49</ele>
        <time>2011-04-24T12:06:28Z</time>
      </trkpt>
      <trkpt lat="47.30098" lon="-2.46536">
        <ele>49</ele>
        <time>2011-04-24T12:06:30Z</time>
      </trkpt>
      <trkpt lat="47.30107" lon="-2.46534">
        <ele>49</ele>
        <time>2011-04-24T12:06:32Z</time>
      </trkpt>
      <trkpt lat="47.30112" lon="-2.46533">
        <ele>49</ele>
        <time>2011-04-24T12:06:33Z</time>
      </trkpt>
      <trkpt lat="47.3012" lon="-2.46531">
        <ele>49</ele>
        <time>2011-04-24T12:06:35Z</time>
      </trkpt>
      <trkpt lat="47.30129" lon="-2.46529">
        <ele>49</ele>
        <time>2011-04-24T12:06:37Z</time>
      </trkpt>
      <trkpt lat="47.30137" lon="-2.46527">
        <ele>49</ele>
        <time>2011-04-24T12:06:39Z</time>
      </trkpt>
      <trkpt lat="47.30146" lon="-2.46525">
        <ele>49</ele>
        <time>2011-04-24T12:06:41Z</time>
      </trkpt>
      <trkpt lat="47.30151" lon="-2.46523">
        <ele>48</ele>
        <time>2011-04-24T12:06:42Z</time>
      </trkpt>
      <trkpt lat="47.3016" lon="-2.46521">
        <ele>48</ele>
        <time>2011-04-24T12:06:44Z</time>
      </trkpt>
      <trkpt lat="47.30168" lon="-2.46519">
        <ele>48</ele>
        <time>2011-04-24T12:06:46Z</time>
      </trkpt>
      <trkpt lat="47.30177" lon="-2.46516">
        <ele>48</ele>
        <time>2011-04-24T12:06:48Z</time>
      </trkpt>
      <trkpt lat="47.30181" lon="-2.46515">
        <ele>48</ele>
        <time>2011-04-24T12:06:49Z</time>
      </trkpt>
      <trkpt lat="47.3019" lon="-2.46513">
        <ele>48</ele>
        <time>2011-04-24T12:06:51Z</time>
      </trkpt>
      <trkpt lat="47.30198" lon="-2.46511">
        <ele>49</ele>
        <time>2011-04-24T12:06:53Z</time>
      </trkpt>
      <trkpt lat="47.30206" lon="-2.46509">
        <ele>49</ele>
        <time>2011-04-24T12:06:55Z</time>
      </trkpt>
      <trkpt lat="47.30214" lon="-2.46506">
        <ele>49</ele>
        <time>2011-04-24T12:06:57Z</time>
      </trkpt>
      <trkpt lat="47.30223" lon="-2.46504">
        <ele>48</ele>
        <time>2011-04-24T12:06:59Z</time>
      </trkpt>
      <trkpt lat="47.30232" lon="-2.46502">
        <ele>48</ele>
        <time>2011-04-24T12:07:01Z</time>
      </trkpt>
      <trkpt lat="47.3024" lon="-2.465">
        <ele>48</ele>
        <time>2011-04-24T12:07:03Z</time>
      </trkpt>
      <trkpt lat="47.30249" lon="-2.46498">
        <ele>48</ele>
        <time>2011-04-24T12:07:05Z</time>
      </trkpt>
      <trkpt lat="47.30257" lon="-2.46496">
        <ele>48</ele>
        <time>2011-04-24T12:07:07Z</time>
      </trkpt>
      <trkpt lat="47.30265" lon="-2.46494">
        <ele>49</ele>
        <time>2011-04-24T12:07:09Z</time>
      </trkpt>
      <trkpt lat="47.30274" lon="-2.46492">
        <ele>48</ele>
        <time>2011-04-24T12:07:11Z</time>
      </trkpt>
      <trkpt lat="47.30282" lon="-2.4649">
        <ele>48</ele>
        <time>2011-04-24T12:07:13Z</time>
      </trkpt>
      <trkpt lat="47.30291" lon="-2.46487">
        <ele>49</ele>
        <time>2011-04-24T12:07:15Z</time>
      </trkpt>
      <trkpt lat="47.30299" lon="-2.46485">
        <ele>49</ele>
        <time>2011-04-24T12:07:17Z</time>
      </trkpt>
      <trkpt lat="47.30307" lon="-2.46482">
        <ele>49</ele>
        <time>2011-04-24T12:07:19Z</time>
      </trkpt>
      <trkpt lat="47.30315" lon="-2.46478">
        <ele>49</ele>
        <time>2011-04-24T12:07:21Z</time>
      </trkpt>
      <trkpt lat="47.3032" lon="-2.46477">
        <ele>49</ele>
        <time>2011-04-24T12:07:22Z</time>
      </trkpt>
      <trkpt lat="47.30328" lon="-2.46472">
        <ele>49</ele>
        <time>2011-04-24T12:07:24Z</time>
      </trkpt>
      <trkpt lat="47.30335" lon="-2.46466">
        <ele>49</ele>
        <time>2011-04-24T12:07:26Z</time>
      </trkpt>
      <trkpt lat="47.30342" lon="-2.4646">
        <ele>49</ele>
        <time>2011-04-24T12:07:28Z</time>
      </trkpt>
      <trkpt lat="47.30349" lon="-2.46452">
        <ele>49</ele>
        <time>2011-04-24T12:07:30Z</time>
      </trkpt>
      <trkpt lat="47.30355" lon="-2.46443">
        <ele>49</ele>
        <time>2011-04-24T12:07:32Z</time>
      </trkpt>
      <trkpt lat="47.3036" lon="-2.46433">
        <ele>49</ele>
        <time>2011-04-24T12:07:34Z</time>
      </trkpt>
      <trkpt lat="47.30365" lon="-2.46423">
        <ele>49</ele>
        <time>2011-04-24T12:07:36Z</time>
      </trkpt>
      <trkpt lat="47.3037" lon="-2.46413">
        <ele>49</ele>
        <time>2011-04-24T12:07:38Z</time>
      </trkpt>
      <trkpt lat="47.30374" lon="-2.46403">
        <ele>49</ele>
        <time>2011-04-24T12:07:40Z</time>
      </trkpt>
      <trkpt lat="47.30379" lon="-2.46392">
        <ele>49</ele>
        <time>2011-04-24T12:07:42Z</time>
      </trkpt>
      <trkpt lat="47.30382" lon="-2.46386">
        <ele>49</ele>
        <time>2011-04-24T12:07:43Z</time>
      </trkpt>
      <trkpt lat="47.30385" lon="-2.46381">
        <ele>49</ele>
        <time>2011-04-24T12:07:44Z</time>
      </trkpt>
      <trkpt lat="47.30388" lon="-2.46375">
        <ele>48</ele>
        <time>2011-04-24T12:07:45Z</time>
      </trkpt>
      <trkpt lat="47.30392" lon="-2.46366">
        <ele>48</ele>
        <time>2011-04-24T12:07:47Z</time>
      </trkpt>
      <trkpt lat="47.30397" lon="-2.46354">
        <ele>48</ele>
        <time>2011-04-24T12:07:49Z</time>
      </trkpt>
      <trkpt lat="47.304" lon="-2.46348">
        <ele>49</ele>
        <time>2011-04-24T12:07:50Z</time>
      </trkpt>
      <trkpt lat="47.30404" lon="-2.46339">
        <ele>49</ele>
        <time>2011-04-24T12:07:52Z</time>
      </trkpt>
      <trkpt lat="47.3041" lon="-2.4633">
        <ele>49</ele>
        <time>2011-04-24T12:07:54Z</time>
      </trkpt>
      <trkpt lat="47.30417" lon="-2.46322">
        <ele>49</ele>
        <time>2011-04-24T12:07:56Z</time>
      </trkpt>
      <trkpt lat="47.30422" lon="-2.46318">
        <ele>49</ele>
        <time>2011-04-24T12:07:57Z</time>
      </trkpt>
      <trkpt lat="47.30425" lon="-2.46314">
        <ele>49</ele>
        <time>2011-04-24T12:07:58Z</time>
      </trkpt>
      <trkpt lat="47.30433" lon="-2.46308">
        <ele>49</ele>
        <time>2011-04-24T12:08:00Z</time>
      </trkpt>
      <trkpt lat="47.3044" lon="-2.46302">
        <ele>49</ele>
        <time>2011-04-24T12:08:02Z</time>
      </trkpt>
      <trkpt lat="47.30448" lon="-2.46296">
        <ele>49</ele>
        <time>2011-04-24T12:08:04Z</time>
      </trkpt>
      <trkpt lat="47.30454" lon="-2.46288">
        <ele>49</ele>
        <time>2011-04-24T12:08:06Z</time>
      </trkpt>
      <trkpt lat="47.3046" lon="-2.46279">
        <ele>49</ele>
        <time>2011-04-24T12:08:08Z</time>
      </trkpt>
      <trkpt lat="47.30461" lon="-2.46272">
        <ele>49</ele>
        <time>2011-04-24T12:08:09Z</time>
      </trkpt>
      <trkpt lat="47.30461" lon="-2.4626">
        <ele>49</ele>
        <time>2011-04-24T12:08:11Z</time>
      </trkpt>
      <trkpt lat="47.30461" lon="-2.46248">
        <ele>49</ele>
        <time>2011-04-24T12:08:13Z</time>
      </trkpt>
      <trkpt lat="47.30455" lon="-2.46236">
        <ele>49</ele>
        <time>2011-04-24T12:08:15Z</time>
      </trkpt>
      <trkpt lat="47.30451" lon="-2.46224">
        <ele>49</ele>
        <time>2011-04-24T12:08:17Z</time>
      </trkpt>
      <trkpt lat="47.30449" lon="-2.46218">
        <ele>49</ele>
        <time>2011-04-24T12:08:18Z</time>
      </trkpt>
      <trkpt lat="47.30446" lon="-2.46206">
        <ele>49</ele>
        <time>2011-04-24T12:08:20Z</time>
      </trkpt>
      <trkpt lat="47.30444" lon="-2.462">
        <ele>49</ele>
        <time>2011-04-24T12:08:21Z</time>
      </trkpt>
      <trkpt lat="47.30442" lon="-2.46194">
        <ele>49</ele>
        <time>2011-04-24T12:08:22Z</time>
      </trkpt>
      <trkpt lat="47.30438" lon="-2.46181">
        <ele>49</ele>
        <time>2011-04-24T12:08:24Z</time>
      </trkpt>
      <trkpt lat="47.30433" lon="-2.4617">
        <ele>49</ele>
        <time>2011-04-24T12:08:26Z</time>
      </trkpt>
      <trkpt lat="47.3043" lon="-2.46167">
        <ele>49</ele>
        <time>2011-04-24T12:08:27Z</time>
      </trkpt>
      <trkpt lat="47.30427" lon="-2.4616">
        <ele>49</ele>
        <time>2011-04-24T12:08:28Z</time>
      </trkpt>
      <trkpt lat="47.30424" lon="-2.46154">
        <ele>49</ele>
        <time>2011-04-24T12:08:29Z</time>
      </trkpt>
      <trkpt lat="47.30422" lon="-2.46148">
        <ele>48</ele>
        <time>2011-04-24T12:08:30Z</time>
      </trkpt>
      <trkpt lat="47.3042" lon="-2.46141">
        <ele>48</ele>
        <time>2011-04-24T12:08:31Z</time>
      </trkpt>
      <trkpt lat="47.3042" lon="-2.46134">
        <ele>48</ele>
        <time>2011-04-24T12:08:32Z</time>
      </trkpt>
      <trkpt lat="47.3042" lon="-2.46128">
        <ele>49</ele>
        <time>2011-04-24T12:08:33Z</time>
      </trkpt>
      <trkpt lat="47.30423" lon="-2.46115">
        <ele>48</ele>
        <time>2011-04-24T12:08:35Z</time>
      </trkpt>
      <trkpt lat="47.30425" lon="-2.46103">
        <ele>49</ele>
        <time>2011-04-24T12:08:37Z</time>
      </trkpt>
      <trkpt lat="47.30426" lon="-2.4609">
        <ele>49</ele>
        <time>2011-04-24T12:08:39Z</time>
      </trkpt>
      <trkpt lat="47.30425" lon="-2.46077">
        <ele>49</ele>
        <time>2011-04-24T12:08:41Z</time>
      </trkpt>
      <trkpt lat="47.30422" lon="-2.46066">
        <ele>49</ele>
        <time>2011-04-24T12:08:43Z</time>
      </trkpt>
      <trkpt lat="47.30415" lon="-2.46057">
        <ele>50</ele>
        <time>2011-04-24T12:08:45Z</time>
      </trkpt>
      <trkpt lat="47.30408" lon="-2.46049">
        <ele>49</ele>
        <time>2011-04-24T12:08:47Z</time>
      </trkpt>
      <trkpt lat="47.30401" lon="-2.46041">
        <ele>50</ele>
        <time>2011-04-24T12:08:49Z</time>
      </trkpt>
      <trkpt lat="47.30394" lon="-2.46032">
        <ele>50</ele>
        <time>2011-04-24T12:08:51Z</time>
      </trkpt>
      <trkpt lat="47.30389" lon="-2.46022">
        <ele>50</ele>
        <time>2011-04-24T12:08:53Z</time>
      </trkpt>
      <trkpt lat="47.30387" lon="-2.46016">
        <ele>50</ele>
        <time>2011-04-24T12:08:54Z</time>
      </trkpt>
      <trkpt lat="47.30384" lon="-2.46011">
        <ele>50</ele>
        <time>2011-04-24T12:08:55Z</time>
      </trkpt>
      <trkpt lat="47.30383" lon="-2.46004">
        <ele>50</ele>
        <time>2011-04-24T12:08:56Z</time>
      </trkpt>
      <trkpt lat="47.30381" lon="-2.45991">
        <ele>51</ele>
        <time>2011-04-24T12:08:58Z</time>
      </trkpt>
      <trkpt lat="47.3038" lon="-2.45978">
        <ele>51</ele>
        <time>2011-04-24T12:09:00Z</time>
      </trkpt>
      <trkpt lat="47.3038" lon="-2.45971">
        <ele>51</ele>
        <time>2011-04-24T12:09:01Z</time>
      </trkpt>
      <trkpt lat="47.30379" lon="-2.45958">
        <ele>51</ele>
        <time>2011-04-24T12:09:03Z</time>
      </trkpt>
      <trkpt lat="47.30379" lon="-2.45945">
        <ele>51</ele>
        <time>2011-04-24T12:09:05Z</time>
      </trkpt>
      <trkpt lat="47.30379" lon="-2.45932">
        <ele>51</ele>
        <time>2011-04-24T12:09:07Z</time>
      </trkpt>
      <trkpt lat="47.30378" lon="-2.45918">
        <ele>51</ele>
        <time>2011-04-24T12:09:09Z</time>
      </trkpt>
      <trkpt lat="47.30378" lon="-2.45911">
        <ele>51</ele>
        <time>2011-04-24T12:09:10Z</time>
      </trkpt>
      <trkpt lat="47.30378" lon="-2.45898">
        <ele>51</ele>
        <time>2011-04-24T12:09:12Z</time>
      </trkpt>
      <trkpt lat="47.30376" lon="-2.45886">
        <ele>51</ele>
        <time>2011-04-24T12:09:14Z</time>
      </trkpt>
      <trkpt lat="47.30374" lon="-2.45875">
        <ele>51</ele>
        <time>2011-04-24T12:09:16Z</time>
      </trkpt>
      <trkpt lat="47.30372" lon="-2.45862">
        <ele>51</ele>
        <time>2011-04-24T12:09:18Z</time>
      </trkpt>
      <trkpt lat="47.3037" lon="-2.4585">
        <ele>51</ele>
        <time>2011-04-24T12:09:20Z</time>
      </trkpt>
      <trkpt lat="47.30367" lon="-2.45839">
        <ele>51</ele>
        <time>2011-04-24T12:09:22Z</time>
      </trkpt>
      <trkpt lat="47.30362" lon="-2.45833">
        <ele>51</ele>
        <time>2011-04-24T12:09:24Z</time>
      </trkpt>
      <trkpt lat="47.30359" lon="-2.45826">
        <ele>51</ele>
        <time>2011-04-24T12:09:27Z</time>
      </trkpt>
      <trkpt lat="47.30354" lon="-2.45827">
        <ele>52</ele>
        <time>2011-04-24T12:09:36Z</time>
      </trkpt>
      <trkpt lat="47.30359" lon="-2.45829">
        <ele>51</ele>
        <time>2011-04-24T12:10:37Z</time>
      </trkpt>
      <trkpt lat="47.30363" lon="-2.45831">
        <ele>51</ele>
        <time>2011-04-24T12:11:59Z</time>
      </trkpt>
      <trkpt lat="47.30363" lon="-2.45831">
        <ele>51</ele>
        <time>2011-04-24T12:11:59Z</time>
      </trkpt>
      <trkpt lat="47.30363" lon="-2.45831">
        <ele>50</ele>
        <time>2011-04-24T12:12:27Z</time>
      </trkpt>
      <trkpt lat="47.30366" lon="-2.45826">
        <ele>51</ele>
        <time>2011-04-24T12:12:33Z</time>
      </trkpt>
      <trkpt lat="47.30364" lon="-2.45819">
        <ele>50</ele>
        <time>2011-04-24T12:12:35Z</time>
      </trkpt>
      <trkpt lat="47.30362" lon="-2.45813">
        <ele>51</ele>
        <time>2011-04-24T12:12:37Z</time>
      </trkpt>
      <trkpt lat="47.3036" lon="-2.45805">
        <ele>51</ele>
        <time>2011-04-24T12:12:39Z</time>
      </trkpt>
      <trkpt lat="47.30359" lon="-2.45797">
        <ele>51</ele>
        <time>2011-04-24T12:12:41Z</time>
      </trkpt>
      <trkpt lat="47.30362" lon="-2.45792">
        <ele>51</ele>
        <time>2011-04-24T12:12:42Z</time>
      </trkpt>
      <trkpt lat="47.30364" lon="-2.45783">
        <ele>51</ele>
        <time>2011-04-24T12:12:44Z</time>
      </trkpt>
      <trkpt lat="47.30366" lon="-2.45773">
        <ele>51</ele>
        <time>2011-04-24T12:12:46Z</time>
      </trkpt>
      <trkpt lat="47.30368" lon="-2.45763">
        <ele>51</ele>
        <time>2011-04-24T12:12:48Z</time>
      </trkpt>
      <trkpt lat="47.3037" lon="-2.45752">
        <ele>51</ele>
        <time>2011-04-24T12:12:50Z</time>
      </trkpt>
      <trkpt lat="47.30371" lon="-2.45742">
        <ele>50</ele>
        <time>2011-04-24T12:12:52Z</time>
      </trkpt>
      <trkpt lat="47.30367" lon="-2.45736">
        <ele>50</ele>
        <time>2011-04-24T12:12:53Z</time>
      </trkpt>
      <trkpt lat="47.30366" lon="-2.45726">
        <ele>50</ele>
        <time>2011-04-24T12:12:55Z</time>
      </trkpt>
      <trkpt lat="47.30365" lon="-2.45714">
        <ele>51</ele>
        <time>2011-04-24T12:12:57Z</time>
      </trkpt>
      <trkpt lat="47.30368" lon="-2.45705">
        <ele>51</ele>
        <time>2011-04-24T12:12:59Z</time>
      </trkpt>
      <trkpt lat="47.30371" lon="-2.45695">
        <ele>51</ele>
        <time>2011-04-24T12:13:01Z</time>
      </trkpt>
      <trkpt lat="47.30374" lon="-2.45684">
        <ele>52</ele>
        <time>2011-04-24T12:13:03Z</time>
      </trkpt>
      <trkpt lat="47.30378" lon="-2.45674">
        <ele>52</ele>
        <time>2011-04-24T12:13:05Z</time>
      </trkpt>
      <trkpt lat="47.30381" lon="-2.45664">
        <ele>53</ele>
        <time>2011-04-24T12:13:07Z</time>
      </trkpt>
      <trkpt lat="47.30384" lon="-2.45654">
        <ele>54</ele>
        <time>2011-04-24T12:13:09Z</time>
      </trkpt>
      <trkpt lat="47.30386" lon="-2.45644">
        <ele>53</ele>
        <time>2011-04-24T12:13:11Z</time>
      </trkpt>
      <trkpt lat="47.30387" lon="-2.45633">
        <ele>53</ele>
        <time>2011-04-24T12:13:13Z</time>
      </trkpt>
      <trkpt lat="47.30388" lon="-2.45624">
        <ele>53</ele>
        <time>2011-04-24T12:13:15Z</time>
      </trkpt>
      <trkpt lat="47.30385" lon="-2.45616">
        <ele>53</ele>
        <time>2011-04-24T12:13:17Z</time>
      </trkpt>
      <trkpt lat="47.30385" lon="-2.45607">
        <ele>53</ele>
        <time>2011-04-24T12:13:19Z</time>
      </trkpt>
      <trkpt lat="47.30389" lon="-2.456">
        <ele>52</ele>
        <time>2011-04-24T12:13:21Z</time>
      </trkpt>
      <trkpt lat="47.30395" lon="-2.45595">
        <ele>52</ele>
        <time>2011-04-24T12:13:23Z</time>
      </trkpt>
      <trkpt lat="47.304" lon="-2.45592">
        <ele>51</ele>
        <time>2011-04-24T12:13:25Z</time>
      </trkpt>
      <trkpt lat="47.30406" lon="-2.45587">
        <ele>52</ele>
        <time>2011-04-24T12:13:27Z</time>
      </trkpt>
      <trkpt lat="47.30412" lon="-2.45583">
        <ele>51</ele>
        <time>2011-04-24T12:13:29Z</time>
      </trkpt>
      <trkpt lat="47.30419" lon="-2.45578">
        <ele>51</ele>
        <time>2011-04-24T12:13:31Z</time>
      </trkpt>
      <trkpt lat="47.30426" lon="-2.45573">
        <ele>51</ele>
        <time>2011-04-24T12:13:33Z</time>
      </trkpt>
      <trkpt lat="47.30433" lon="-2.45568">
        <ele>51</ele>
        <time>2011-04-24T12:13:35Z</time>
      </trkpt>
      <trkpt lat="47.3044" lon="-2.45562">
        <ele>51</ele>
        <time>2011-04-24T12:13:37Z</time>
      </trkpt>
      <trkpt lat="47.30447" lon="-2.45556">
        <ele>51</ele>
        <time>2011-04-24T12:13:39Z</time>
      </trkpt>
      <trkpt lat="47.30455" lon="-2.45551">
        <ele>51</ele>
        <time>2011-04-24T12:13:41Z</time>
      </trkpt>
      <trkpt lat="47.30462" lon="-2.45548">
        <ele>52</ele>
        <time>2011-04-24T12:13:43Z</time>
      </trkpt>
      <trkpt lat="47.3047" lon="-2.45548">
        <ele>52</ele>
        <time>2011-04-24T12:13:45Z</time>
      </trkpt>
      <trkpt lat="47.30478" lon="-2.45549">
        <ele>52</ele>
        <time>2011-04-24T12:13:47Z</time>
      </trkpt>
      <trkpt lat="47.30485" lon="-2.45552">
        <ele>52</ele>
        <time>2011-04-24T12:13:49Z</time>
      </trkpt>
      <trkpt lat="47.3049" lon="-2.45554">
        <ele>52</ele>
        <time>2011-04-24T12:13:50Z</time>
      </trkpt>
      <trkpt lat="47.30494" lon="-2.45556">
        <ele>51</ele>
        <time>2011-04-24T12:13:51Z</time>
      </trkpt>
      <trkpt lat="47.30502" lon="-2.45559">
        <ele>52</ele>
        <time>2011-04-24T12:13:53Z</time>
      </trkpt>
      <trkpt lat="47.3051" lon="-2.45564">
        <ele>52</ele>
        <time>2011-04-24T12:13:55Z</time>
      </trkpt>
      <trkpt lat="47.30518" lon="-2.45568">
        <ele>52</ele>
        <time>2011-04-24T12:13:57Z</time>
      </trkpt>
      <trkpt lat="47.30526" lon="-2.45574">
        <ele>52</ele>
        <time>2011-04-24T12:13:59Z</time>
      </trkpt>
      <trkpt lat="47.30533" lon="-2.45579">
        <ele>52</ele>
        <time>2011-04-24T12:14:01Z</time>
      </trkpt>
      <trkpt lat="47.30541" lon="-2.45584">
        <ele>51</ele>
        <time>2011-04-24T12:14:03Z</time>
      </trkpt>
      <trkpt lat="47.30548" lon="-2.45588">
        <ele>52</ele>
        <time>2011-04-24T12:14:05Z</time>
      </trkpt>
      <trkpt lat="47.30555" lon="-2.45591">
        <ele>52</ele>
        <time>2011-04-24T12:14:07Z</time>
      </trkpt>
      <trkpt lat="47.30564" lon="-2.45592">
        <ele>52</ele>
        <time>2011-04-24T12:14:09Z</time>
      </trkpt>
      <trkpt lat="47.30572" lon="-2.4559">
        <ele>52</ele>
        <time>2011-04-24T12:14:11Z</time>
      </trkpt>
      <trkpt lat="47.30581" lon="-2.45586">
        <ele>52</ele>
        <time>2011-04-24T12:14:13Z</time>
      </trkpt>
      <trkpt lat="47.30589" lon="-2.45581">
        <ele>52</ele>
        <time>2011-04-24T12:14:15Z</time>
      </trkpt>
      <trkpt lat="47.30593" lon="-2.45578">
        <ele>53</ele>
        <time>2011-04-24T12:14:16Z</time>
      </trkpt>
      <trkpt lat="47.30601" lon="-2.45572">
        <ele>53</ele>
        <time>2011-04-24T12:14:18Z</time>
      </trkpt>
      <trkpt lat="47.30609" lon="-2.45566">
        <ele>53</ele>
        <time>2011-04-24T12:14:20Z</time>
      </trkpt>
      <trkpt lat="47.30613" lon="-2.45564">
        <ele>53</ele>
        <time>2011-04-24T12:14:21Z</time>
      </trkpt>
      <trkpt lat="47.30617" lon="-2.45562">
        <ele>53</ele>
        <time>2011-04-24T12:14:22Z</time>
      </trkpt>
      <trkpt lat="47.30626" lon="-2.45558">
        <ele>53</ele>
        <time>2011-04-24T12:14:24Z</time>
      </trkpt>
      <trkpt lat="47.30631" lon="-2.45557">
        <ele>53</ele>
        <time>2011-04-24T12:14:25Z</time>
      </trkpt>
      <trkpt lat="47.30639" lon="-2.45557">
        <ele>53</ele>
        <time>2011-04-24T12:14:27Z</time>
      </trkpt>
      <trkpt lat="47.30644" lon="-2.45557">
        <ele>54</ele>
        <time>2011-04-24T12:14:28Z</time>
      </trkpt>
      <trkpt lat="47.30652" lon="-2.45558">
        <ele>54</ele>
        <time>2011-04-24T12:14:30Z</time>
      </trkpt>
      <trkpt lat="47.3066" lon="-2.45561">
        <ele>54</ele>
        <time>2011-04-24T12:14:32Z</time>
      </trkpt>
      <trkpt lat="47.30665" lon="-2.45565">
        <ele>53</ele>
        <time>2011-04-24T12:14:33Z</time>
      </trkpt>
      <trkpt lat="47.30669" lon="-2.45568">
        <ele>53</ele>
        <time>2011-04-24T12:14:34Z</time>
      </trkpt>
      <trkpt lat="47.30676" lon="-2.45574">
        <ele>53</ele>
        <time>2011-04-24T12:14:36Z</time>
      </trkpt>
      <trkpt lat="47.30683" lon="-2.45581">
        <ele>53</ele>
        <time>2011-04-24T12:14:38Z</time>
      </trkpt>
      <trkpt lat="47.30687" lon="-2.45585">
        <ele>53</ele>
        <time>2011-04-24T12:14:39Z</time>
      </trkpt>
      <trkpt lat="47.30691" lon="-2.45589">
        <ele>53</ele>
        <time>2011-04-24T12:14:40Z</time>
      </trkpt>
      <trkpt lat="47.30698" lon="-2.45598">
        <ele>53</ele>
        <time>2011-04-24T12:14:42Z</time>
      </trkpt>
      <trkpt lat="47.30705" lon="-2.45606">
        <ele>53</ele>
        <time>2011-04-24T12:14:44Z</time>
      </trkpt>
      <trkpt lat="47.30709" lon="-2.45609">
        <ele>52</ele>
        <time>2011-04-24T12:14:45Z</time>
      </trkpt>
      <trkpt lat="47.30713" lon="-2.45614">
        <ele>52</ele>
        <time>2011-04-24T12:14:46Z</time>
      </trkpt>
      <trkpt lat="47.30717" lon="-2.45617">
        <ele>52</ele>
        <time>2011-04-24T12:14:47Z</time>
      </trkpt>
      <trkpt lat="47.30721" lon="-2.45621">
        <ele>52</ele>
        <time>2011-04-24T12:14:48Z</time>
      </trkpt>
      <trkpt lat="47.30728" lon="-2.45628">
        <ele>52</ele>
        <time>2011-04-24T12:14:50Z</time>
      </trkpt>
      <trkpt lat="47.30732" lon="-2.45632">
        <ele>52</ele>
        <time>2011-04-24T12:14:51Z</time>
      </trkpt>
      <trkpt lat="47.30738" lon="-2.45638">
        <ele>52</ele>
        <time>2011-04-24T12:14:53Z</time>
      </trkpt>
      <trkpt lat="47.30745" lon="-2.45643">
        <ele>52</ele>
        <time>2011-04-24T12:14:55Z</time>
      </trkpt>
      <trkpt lat="47.30752" lon="-2.45647">
        <ele>52</ele>
        <time>2011-04-24T12:14:57Z</time>
      </trkpt>
      <trkpt lat="47.3076" lon="-2.45652">
        <ele>52</ele>
        <time>2011-04-24T12:14:59Z</time>
      </trkpt>
      <trkpt lat="47.30766" lon="-2.45654">
        <ele>51</ele>
        <time>2011-04-24T12:15:01Z</time>
      </trkpt>
      <trkpt lat="47.30774" lon="-2.45656">
        <ele>52</ele>
        <time>2011-04-24T12:15:03Z</time>
      </trkpt>
      <trkpt lat="47.30782" lon="-2.45657">
        <ele>51</ele>
        <time>2011-04-24T12:15:05Z</time>
      </trkpt>
      <trkpt lat="47.3079" lon="-2.45655">
        <ele>52</ele>
        <time>2011-04-24T12:15:07Z</time>
      </trkpt>
      <trkpt lat="47.30798" lon="-2.45652">
        <ele>52</ele>
        <time>2011-04-24T12:15:09Z</time>
      </trkpt>
      <trkpt lat="47.30806" lon="-2.45649">
        <ele>52</ele>
        <time>2011-04-24T12:15:11Z</time>
      </trkpt>
      <trkpt lat="47.30813" lon="-2.45645">
        <ele>52</ele>
        <time>2011-04-24T12:15:13Z</time>
      </trkpt>
      <trkpt lat="47.30821" lon="-2.45639">
        <ele>52</ele>
        <time>2011-04-24T12:15:15Z</time>
      </trkpt>
      <trkpt lat="47.30825" lon="-2.45637">
        <ele>52</ele>
        <time>2011-04-24T12:15:16Z</time>
      </trkpt>
      <trkpt lat="47.30832" lon="-2.45631">
        <ele>52</ele>
        <time>2011-04-24T12:15:18Z</time>
      </trkpt>
      <trkpt lat="47.30837" lon="-2.45629">
        <ele>52</ele>
        <time>2011-04-24T12:15:19Z</time>
      </trkpt>
      <trkpt lat="47.30845" lon="-2.45623">
        <ele>52</ele>
        <time>2011-04-24T12:15:21Z</time>
      </trkpt>
      <trkpt lat="47.30849" lon="-2.4562">
        <ele>52</ele>
        <time>2011-04-24T12:15:22Z</time>
      </trkpt>
      <trkpt lat="47.30853" lon="-2.45617">
        <ele>52</ele>
        <time>2011-04-24T12:15:23Z</time>
      </trkpt>
      <trkpt lat="47.30861" lon="-2.45612">
        <ele>52</ele>
        <time>2011-04-24T12:15:25Z</time>
      </trkpt>
      <trkpt lat="47.30868" lon="-2.45607">
        <ele>52</ele>
        <time>2011-04-24T12:15:27Z</time>
      </trkpt>
      <trkpt lat="47.30876" lon="-2.45602">
        <ele>52</ele>
        <time>2011-04-24T12:15:29Z</time>
      </trkpt>
      <trkpt lat="47.30884" lon="-2.45596">
        <ele>52</ele>
        <time>2011-04-24T12:15:31Z</time>
      </trkpt>
      <trkpt lat="47.30888" lon="-2.45594">
        <ele>52</ele>
        <time>2011-04-24T12:15:32Z</time>
      </trkpt>
      <trkpt lat="47.30896" lon="-2.45589">
        <ele>52</ele>
        <time>2011-04-24T12:15:34Z</time>
      </trkpt>
      <trkpt lat="47.30904" lon="-2.45584">
        <ele>52</ele>
        <time>2011-04-24T12:15:36Z</time>
      </trkpt>
      <trkpt lat="47.30912" lon="-2.4558">
        <ele>52</ele>
        <time>2011-04-24T12:15:38Z</time>
      </trkpt>
      <trkpt lat="47.30917" lon="-2.45578">
        <ele>52</ele>
        <time>2011-04-24T12:15:39Z</time>
      </trkpt>
      <trkpt lat="47.30921" lon="-2.45576">
        <ele>52</ele>
        <time>2011-04-24T12:15:40Z</time>
      </trkpt>
      <trkpt lat="47.30929" lon="-2.45571">
        <ele>52</ele>
        <time>2011-04-24T12:15:42Z</time>
      </trkpt>
      <trkpt lat="47.30933" lon="-2.45568">
        <ele>52</ele>
        <time>2011-04-24T12:15:43Z</time>
      </trkpt>
      <trkpt lat="47.30942" lon="-2.45565">
        <ele>52</ele>
        <time>2011-04-24T12:15:45Z</time>
      </trkpt>
      <trkpt lat="47.3095" lon="-2.45562">
        <ele>52</ele>
        <time>2011-04-24T12:15:47Z</time>
      </trkpt>
      <trkpt lat="47.30959" lon="-2.4556">
        <ele>52</ele>
        <time>2011-04-24T12:15:49Z</time>
      </trkpt>
      <trkpt lat="47.30968" lon="-2.45558">
        <ele>52</ele>
        <time>2011-04-24T12:15:51Z</time>
      </trkpt>
      <trkpt lat="47.30976" lon="-2.45558">
        <ele>52</ele>
        <time>2011-04-24T12:15:53Z</time>
      </trkpt>
      <trkpt lat="47.30981" lon="-2.45558">
        <ele>53</ele>
        <time>2011-04-24T12:15:54Z</time>
      </trkpt>
      <trkpt lat="47.3099" lon="-2.45559">
        <ele>52</ele>
        <time>2011-04-24T12:15:56Z</time>
      </trkpt>
      <trkpt lat="47.30994" lon="-2.45559">
        <ele>52</ele>
        <time>2011-04-24T12:15:57Z</time>
      </trkpt>
      <trkpt lat="47.31003" lon="-2.45561">
        <ele>52</ele>
        <time>2011-04-24T12:15:59Z</time>
      </trkpt>
      <trkpt lat="47.31012" lon="-2.45562">
        <ele>52</ele>
        <time>2011-04-24T12:16:01Z</time>
      </trkpt>
      <trkpt lat="47.3102" lon="-2.45562">
        <ele>52</ele>
        <time>2011-04-24T12:16:03Z</time>
      </trkpt>
      <trkpt lat="47.31029" lon="-2.45562">
        <ele>52</ele>
        <time>2011-04-24T12:16:05Z</time>
      </trkpt>
      <trkpt lat="47.31034" lon="-2.45561">
        <ele>52</ele>
        <time>2011-04-24T12:16:06Z</time>
      </trkpt>
      <trkpt lat="47.31042" lon="-2.45559">
        <ele>52</ele>
        <time>2011-04-24T12:16:08Z</time>
      </trkpt>
      <trkpt lat="47.3105" lon="-2.45557">
        <ele>52</ele>
        <time>2011-04-24T12:16:10Z</time>
      </trkpt>
      <trkpt lat="47.31057" lon="-2.45553">
        <ele>52</ele>
        <time>2011-04-24T12:16:12Z</time>
      </trkpt>
      <trkpt lat="47.31064" lon="-2.45548">
        <ele>52</ele>
        <time>2011-04-24T12:16:14Z</time>
      </trkpt>
      <trkpt lat="47.31071" lon="-2.45543">
        <ele>52</ele>
        <time>2011-04-24T12:16:16Z</time>
      </trkpt>
      <trkpt lat="47.31078" lon="-2.45539">
        <ele>52</ele>
        <time>2011-04-24T12:16:18Z</time>
      </trkpt>
      <trkpt lat="47.31086" lon="-2.45535">
        <ele>51</ele>
        <time>2011-04-24T12:16:20Z</time>
      </trkpt>
      <trkpt lat="47.31094" lon="-2.45533">
        <ele>51</ele>
        <time>2011-04-24T12:16:22Z</time>
      </trkpt>
      <trkpt lat="47.31101" lon="-2.45532">
        <ele>52</ele>
        <time>2011-04-24T12:16:24Z</time>
      </trkpt>
      <trkpt lat="47.31109" lon="-2.45529">
        <ele>51</ele>
        <time>2011-04-24T12:16:26Z</time>
      </trkpt>
      <trkpt lat="47.31117" lon="-2.45525">
        <ele>51</ele>
        <time>2011-04-24T12:16:28Z</time>
      </trkpt>
      <trkpt lat="47.31124" lon="-2.4552">
        <ele>52</ele>
        <time>2011-04-24T12:16:30Z</time>
      </trkpt>
      <trkpt lat="47.31131" lon="-2.45515">
        <ele>52</ele>
        <time>2011-04-24T12:16:32Z</time>
      </trkpt>
      <trkpt lat="47.31138" lon="-2.45511">
        <ele>52</ele>
        <time>2011-04-24T12:16:34Z</time>
      </trkpt>
      <trkpt lat="47.31145" lon="-2.45505">
        <ele>53</ele>
        <time>2011-04-24T12:16:36Z</time>
      </trkpt>
      <trkpt lat="47.31152" lon="-2.45502">
        <ele>53</ele>
        <time>2011-04-24T12:16:38Z</time>
      </trkpt>
      <trkpt lat="47.3116" lon="-2.45498">
        <ele>53</ele>
        <time>2011-04-24T12:16:40Z</time>
      </trkpt>
      <trkpt lat="47.31164" lon="-2.45496">
        <ele>53</ele>
        <time>2011-04-24T12:16:41Z</time>
      </trkpt>
      <trkpt lat="47.31168" lon="-2.45493">
        <ele>52</ele>
        <time>2011-04-24T12:16:42Z</time>
      </trkpt>
      <trkpt lat="47.31175" lon="-2.45486">
        <ele>52</ele>
        <time>2011-04-24T12:16:44Z</time>
      </trkpt>
      <trkpt lat="47.31181" lon="-2.45477">
        <ele>52</ele>
        <time>2011-04-24T12:16:46Z</time>
      </trkpt>
      <trkpt lat="47.31186" lon="-2.45468">
        <ele>53</ele>
        <time>2011-04-24T12:16:48Z</time>
      </trkpt>
      <trkpt lat="47.31191" lon="-2.45458">
        <ele>53</ele>
        <time>2011-04-24T12:16:50Z</time>
      </trkpt>
      <trkpt lat="47.31195" lon="-2.45447">
        <ele>53</ele>
        <time>2011-04-24T12:16:52Z</time>
      </trkpt>
      <trkpt lat="47.31199" lon="-2.45437">
        <ele>53</ele>
        <time>2011-04-24T12:16:54Z</time>
      </trkpt>
      <trkpt lat="47.31204" lon="-2.45427">
        <ele>53</ele>
        <time>2011-04-24T12:16:56Z</time>
      </trkpt>
      <trkpt lat="47.31208" lon="-2.45416">
        <ele>53</ele>
        <time>2011-04-24T12:16:58Z</time>
      </trkpt>
      <trkpt lat="47.31212" lon="-2.45405">
        <ele>53</ele>
        <time>2011-04-24T12:17:00Z</time>
      </trkpt>
      <trkpt lat="47.31215" lon="-2.45393">
        <ele>52</ele>
        <time>2011-04-24T12:17:02Z</time>
      </trkpt>
      <trkpt lat="47.31218" lon="-2.45381">
        <ele>53</ele>
        <time>2011-04-24T12:17:04Z</time>
      </trkpt>
      <trkpt lat="47.31221" lon="-2.4537">
        <ele>52</ele>
        <time>2011-04-24T12:17:06Z</time>
      </trkpt>
      <trkpt lat="47.31224" lon="-2.45359">
        <ele>52</ele>
        <time>2011-04-24T12:17:08Z</time>
      </trkpt>
      <trkpt lat="47.31227" lon="-2.45348">
        <ele>52</ele>
        <time>2011-04-24T12:17:10Z</time>
      </trkpt>
      <trkpt lat="47.31232" lon="-2.45337">
        <ele>52</ele>
        <time>2011-04-24T12:17:12Z</time>
      </trkpt>
      <trkpt lat="47.31236" lon="-2.45328">
        <ele>53</ele>
        <time>2011-04-24T12:17:14Z</time>
      </trkpt>
      <trkpt lat="47.31241" lon="-2.45321">
        <ele>53</ele>
        <time>2011-04-24T12:17:16Z</time>
      </trkpt>
      <trkpt lat="47.31248" lon="-2.45314">
        <ele>54</ele>
        <time>2011-04-24T12:17:18Z</time>
      </trkpt>
      <trkpt lat="47.31255" lon="-2.45308">
        <ele>54</ele>
        <time>2011-04-24T12:17:20Z</time>
      </trkpt>
      <trkpt lat="47.31263" lon="-2.45303">
        <ele>53</ele>
        <time>2011-04-24T12:17:22Z</time>
      </trkpt>
      <trkpt lat="47.31271" lon="-2.45298">
        <ele>53</ele>
        <time>2011-04-24T12:17:24Z</time>
      </trkpt>
      <trkpt lat="47.31279" lon="-2.45293">
        <ele>53</ele>
        <time>2011-04-24T12:17:26Z</time>
      </trkpt>
      <trkpt lat="47.31286" lon="-2.45289">
        <ele>53</ele>
        <time>2011-04-24T12:17:28Z</time>
      </trkpt>
      <trkpt lat="47.31294" lon="-2.45284">
        <ele>53</ele>
        <time>2011-04-24T12:17:30Z</time>
      </trkpt>
      <trkpt lat="47.31302" lon="-2.45281">
        <ele>53</ele>
        <time>2011-04-24T12:17:32Z</time>
      </trkpt>
      <trkpt lat="47.3131" lon="-2.45278">
        <ele>53</ele>
        <time>2011-04-24T12:17:34Z</time>
      </trkpt>
      <trkpt lat="47.31318" lon="-2.45276">
        <ele>54</ele>
        <time>2011-04-24T12:17:36Z</time>
      </trkpt>
      <trkpt lat="47.31326" lon="-2.45274">
        <ele>54</ele>
        <time>2011-04-24T12:17:38Z</time>
      </trkpt>
      <trkpt lat="47.31334" lon="-2.45272">
        <ele>54</ele>
        <time>2011-04-24T12:17:40Z</time>
      </trkpt>
      <trkpt lat="47.31342" lon="-2.4527">
        <ele>54</ele>
        <time>2011-04-24T12:17:42Z</time>
      </trkpt>
      <trkpt lat="47.3135" lon="-2.45269">
        <ele>55</ele>
        <time>2011-04-24T12:17:44Z</time>
      </trkpt>
      <trkpt lat="47.31358" lon="-2.45268">
        <ele>55</ele>
        <time>2011-04-24T12:17:46Z</time>
      </trkpt>
      <trkpt lat="47.31366" lon="-2.45268">
        <ele>55</ele>
        <time>2011-04-24T12:17:48Z</time>
      </trkpt>
      <trkpt lat="47.31374" lon="-2.45266">
        <ele>55</ele>
        <time>2011-04-24T12:17:50Z</time>
      </trkpt>
      <trkpt lat="47.31382" lon="-2.45266">
        <ele>55</ele>
        <time>2011-04-24T12:17:52Z</time>
      </trkpt>
      <trkpt lat="47.3139" lon="-2.45265">
        <ele>55</ele>
        <time>2011-04-24T12:17:54Z</time>
      </trkpt>
      <trkpt lat="47.31399" lon="-2.45264">
        <ele>55</ele>
        <time>2011-04-24T12:17:56Z</time>
      </trkpt>
      <trkpt lat="47.31408" lon="-2.45264">
        <ele>55</ele>
        <time>2011-04-24T12:17:58Z</time>
      </trkpt>
      <trkpt lat="47.31416" lon="-2.45265">
        <ele>55</ele>
        <time>2011-04-24T12:18:00Z</time>
      </trkpt>
      <trkpt lat="47.31424" lon="-2.45267">
        <ele>55</ele>
        <time>2011-04-24T12:18:02Z</time>
      </trkpt>
      <trkpt lat="47.31432" lon="-2.45269">
        <ele>55</ele>
        <time>2011-04-24T12:18:04Z</time>
      </trkpt>
      <trkpt lat="47.31441" lon="-2.4527">
        <ele>55</ele>
        <time>2011-04-24T12:18:06Z</time>
      </trkpt>
      <trkpt lat="47.31449" lon="-2.45271">
        <ele>55</ele>
        <time>2011-04-24T12:18:08Z</time>
      </trkpt>
      <trkpt lat="47.31458" lon="-2.45271">
        <ele>55</ele>
        <time>2011-04-24T12:18:10Z</time>
      </trkpt>
      <trkpt lat="47.31466" lon="-2.45271">
        <ele>55</ele>
        <time>2011-04-24T12:18:12Z</time>
      </trkpt>
      <trkpt lat="47.31475" lon="-2.4527">
        <ele>55</ele>
        <time>2011-04-24T12:18:14Z</time>
      </trkpt>
      <trkpt lat="47.3148" lon="-2.45269">
        <ele>55</ele>
        <time>2011-04-24T12:18:15Z</time>
      </trkpt>
      <trkpt lat="47.31489" lon="-2.45268">
        <ele>55</ele>
        <time>2011-04-24T12:18:17Z</time>
      </trkpt>
      <trkpt lat="47.31498" lon="-2.45266">
        <ele>55</ele>
        <time>2011-04-24T12:18:19Z</time>
      </trkpt>
      <trkpt lat="47.31506" lon="-2.45264">
        <ele>55</ele>
        <time>2011-04-24T12:18:21Z</time>
      </trkpt>
      <trkpt lat="47.31514" lon="-2.45262">
        <ele>55</ele>
        <time>2011-04-24T12:18:23Z</time>
      </trkpt>
      <trkpt lat="47.31522" lon="-2.45262">
        <ele>55</ele>
        <time>2011-04-24T12:18:25Z</time>
      </trkpt>
      <trkpt lat="47.3153" lon="-2.45262">
        <ele>54</ele>
        <time>2011-04-24T12:18:27Z</time>
      </trkpt>
      <trkpt lat="47.31538" lon="-2.45265">
        <ele>54</ele>
        <time>2011-04-24T12:18:29Z</time>
      </trkpt>
      <trkpt lat="47.31545" lon="-2.45269">
        <ele>54</ele>
        <time>2011-04-24T12:18:31Z</time>
      </trkpt>
      <trkpt lat="47.31552" lon="-2.45271">
        <ele>54</ele>
        <time>2011-04-24T12:18:33Z</time>
      </trkpt>
      <trkpt lat="47.31558" lon="-2.45274">
        <ele>54</ele>
        <time>2011-04-24T12:18:35Z</time>
      </trkpt>
      <trkpt lat="47.31564" lon="-2.45272">
        <ele>54</ele>
        <time>2011-04-24T12:18:37Z</time>
      </trkpt>
      <trkpt lat="47.31568" lon="-2.45268">
        <ele>54</ele>
        <time>2011-04-24T12:18:39Z</time>
      </trkpt>
      <trkpt lat="47.3157" lon="-2.45262">
        <ele>54</ele>
        <time>2011-04-24T12:18:41Z</time>
      </trkpt>
      <trkpt lat="47.31572" lon="-2.45254">
        <ele>54</ele>
        <time>2011-04-24T12:18:44Z</time>
      </trkpt>
      <trkpt lat="47.31574" lon="-2.45248">
        <ele>54</ele>
        <time>2011-04-24T12:18:47Z</time>
      </trkpt>
      <trkpt lat="47.31578" lon="-2.45243">
        <ele>54</ele>
        <time>2011-04-24T12:18:58Z</time>
      </trkpt>
      <trkpt lat="47.31582" lon="-2.45241">
        <ele>53</ele>
        <time>2011-04-24T12:19:04Z</time>
      </trkpt>
      <trkpt lat="47.31587" lon="-2.45243">
        <ele>55</ele>
        <time>2011-04-24T12:20:07Z</time>
      </trkpt>
      <trkpt lat="47.31587" lon="-2.45243">
        <ele>55</ele>
        <time>2011-04-24T12:20:07Z</time>
      </trkpt>
      <trkpt lat="47.31587" lon="-2.45243">
        <ele>54</ele>
        <time>2011-04-24T12:20:31Z</time>
      </trkpt>
      <trkpt lat="47.31588" lon="-2.4525">
        <ele>49</ele>
        <time>2011-04-24T12:21:54Z</time>
      </trkpt>
      <trkpt lat="47.31587" lon="-2.45258">
        <ele>51</ele>
        <time>2011-04-24T12:21:56Z</time>
      </trkpt>
      <trkpt lat="47.31587" lon="-2.45265">
        <ele>49</ele>
        <time>2011-04-24T12:21:58Z</time>
      </trkpt>
      <trkpt lat="47.31584" lon="-2.45271">
        <ele>50</ele>
        <time>2011-04-24T12:22:00Z</time>
      </trkpt>
      <trkpt lat="47.31582" lon="-2.45279">
        <ele>52</ele>
        <time>2011-04-24T12:22:03Z</time>
      </trkpt>
      <trkpt lat="47.31586" lon="-2.45285">
        <ele>53</ele>
        <time>2011-04-24T12:22:06Z</time>
      </trkpt>
      <trkpt lat="47.31593" lon="-2.45287">
        <ele>54</ele>
        <time>2011-04-24T12:22:09Z</time>
      </trkpt>
      <trkpt lat="47.31597" lon="-2.45288">
        <ele>54</ele>
        <time>2011-04-24T12:22:11Z</time>
      </trkpt>
      <trkpt lat="47.31602" lon="-2.45289">
        <ele>54</ele>
        <time>2011-04-24T12:22:13Z</time>
      </trkpt>
      <trkpt lat="47.31608" lon="-2.45289">
        <ele>54</ele>
        <time>2011-04-24T12:22:15Z</time>
      </trkpt>
      <trkpt lat="47.31614" lon="-2.4529">
        <ele>54</ele>
        <time>2011-04-24T12:22:17Z</time>
      </trkpt>
      <trkpt lat="47.31619" lon="-2.4529">
        <ele>54</ele>
        <time>2011-04-24T12:22:19Z</time>
      </trkpt>
      <trkpt lat="47.31625" lon="-2.45291">
        <ele>55</ele>
        <time>2011-04-24T12:22:21Z</time>
      </trkpt>
      <trkpt lat="47.31631" lon="-2.45291">
        <ele>55</ele>
        <time>2011-04-24T12:22:23Z</time>
      </trkpt>
      <trkpt lat="47.31637" lon="-2.45291">
        <ele>55</ele>
        <time>2011-04-24T12:22:25Z</time>
      </trkpt>
      <trkpt lat="47.31644" lon="-2.45292">
        <ele>55</ele>
        <time>2011-04-24T12:22:27Z</time>
      </trkpt>
      <trkpt lat="47.3165" lon="-2.45293">
        <ele>54</ele>
        <time>2011-04-24T12:22:29Z</time>
      </trkpt>
      <trkpt lat="47.31657" lon="-2.45296">
        <ele>54</ele>
        <time>2011-04-24T12:22:31Z</time>
      </trkpt>
      <trkpt lat="47.31663" lon="-2.45299">
        <ele>54</ele>
        <time>2011-04-24T12:22:33Z</time>
      </trkpt>
      <trkpt lat="47.31669" lon="-2.45304">
        <ele>54</ele>
        <time>2011-04-24T12:22:35Z</time>
      </trkpt>
      <trkpt lat="47.31675" lon="-2.4531">
        <ele>54</ele>
        <time>2011-04-24T12:22:37Z</time>
      </trkpt>
      <trkpt lat="47.31681" lon="-2.45317">
        <ele>53</ele>
        <time>2011-04-24T12:22:39Z</time>
      </trkpt>
      <trkpt lat="47.31686" lon="-2.45324">
        <ele>53</ele>
        <time>2011-04-24T12:22:41Z</time>
      </trkpt>
      <trkpt lat="47.31692" lon="-2.45332">
        <ele>53</ele>
        <time>2011-04-24T12:22:43Z</time>
      </trkpt>
      <trkpt lat="47.31698" lon="-2.4534">
        <ele>53</ele>
        <time>2011-04-24T12:22:45Z</time>
      </trkpt>
      <trkpt lat="47.31705" lon="-2.45345">
        <ele>53</ele>
        <time>2011-04-24T12:22:47Z</time>
      </trkpt>
      <trkpt lat="47.31709" lon="-2.45346">
        <ele>53</ele>
        <time>2011-04-24T12:22:48Z</time>
      </trkpt>
      <trkpt lat="47.31716" lon="-2.45348">
        <ele>53</ele>
        <time>2011-04-24T12:22:50Z</time>
      </trkpt>
      <trkpt lat="47.31725" lon="-2.45346">
        <ele>54</ele>
        <time>2011-04-24T12:22:52Z</time>
      </trkpt>
      <trkpt lat="47.31732" lon="-2.45343">
        <ele>54</ele>
        <time>2011-04-24T12:22:54Z</time>
      </trkpt>
      <trkpt lat="47.31739" lon="-2.45339">
        <ele>54</ele>
        <time>2011-04-24T12:22:56Z</time>
      </trkpt>
      <trkpt lat="47.31746" lon="-2.45334">
        <ele>54</ele>
        <time>2011-04-24T12:22:58Z</time>
      </trkpt>
      <trkpt lat="47.31752" lon="-2.45329">
        <ele>54</ele>
        <time>2011-04-24T12:23:00Z</time>
      </trkpt>
      <trkpt lat="47.31758" lon="-2.45324">
        <ele>54</ele>
        <time>2011-04-24T12:23:02Z</time>
      </trkpt>
      <trkpt lat="47.31764" lon="-2.45318">
        <ele>54</ele>
        <time>2011-04-24T12:23:04Z</time>
      </trkpt>
      <trkpt lat="47.3177" lon="-2.45311">
        <ele>54</ele>
        <time>2011-04-24T12:23:06Z</time>
      </trkpt>
      <trkpt lat="47.31776" lon="-2.45304">
        <ele>54</ele>
        <time>2011-04-24T12:23:08Z</time>
      </trkpt>
      <trkpt lat="47.31781" lon="-2.45296">
        <ele>54</ele>
        <time>2011-04-24T12:23:10Z</time>
      </trkpt>
      <trkpt lat="47.31787" lon="-2.45287">
        <ele>54</ele>
        <time>2011-04-24T12:23:12Z</time>
      </trkpt>
      <trkpt lat="47.31795" lon="-2.45276">
        <ele>55</ele>
        <time>2011-04-24T12:23:15Z</time>
      </trkpt>
      <trkpt lat="47.31801" lon="-2.45268">
        <ele>55</ele>
        <time>2011-04-24T12:23:17Z</time>
      </trkpt>
      <trkpt lat="47.31806" lon="-2.45261">
        <ele>54</ele>
        <time>2011-04-24T12:23:19Z</time>
      </trkpt>
      <trkpt lat="47.31812" lon="-2.45255">
        <ele>55</ele>
        <time>2011-04-24T12:23:21Z</time>
      </trkpt>
      <trkpt lat="47.31816" lon="-2.4525">
        <ele>55</ele>
        <time>2011-04-24T12:23:23Z</time>
      </trkpt>
      <trkpt lat="47.31821" lon="-2.45243">
        <ele>55</ele>
        <time>2011-04-24T12:23:25Z</time>
      </trkpt>
      <trkpt lat="47.31826" lon="-2.45236">
        <ele>55</ele>
        <time>2011-04-24T12:23:27Z</time>
      </trkpt>
      <trkpt lat="47.31831" lon="-2.4523">
        <ele>55</ele>
        <time>2011-04-24T12:23:29Z</time>
      </trkpt>
      <trkpt lat="47.31837" lon="-2.45222">
        <ele>55</ele>
        <time>2011-04-24T12:23:31Z</time>
      </trkpt>
      <trkpt lat="47.31843" lon="-2.45216">
        <ele>55</ele>
        <time>2011-04-24T12:23:33Z</time>
      </trkpt>
      <trkpt lat="47.31849" lon="-2.45209">
        <ele>55</ele>
        <time>2011-04-24T12:23:35Z</time>
      </trkpt>
      <trkpt lat="47.31855" lon="-2.45203">
        <ele>56</ele>
        <time>2011-04-24T12:23:37Z</time>
      </trkpt>
      <trkpt lat="47.31859" lon="-2.45196">
        <ele>57</ele>
        <time>2011-04-24T12:23:39Z</time>
      </trkpt>
      <trkpt lat="47.3186" lon="-2.45185">
        <ele>56</ele>
        <time>2011-04-24T12:23:41Z</time>
      </trkpt>
      <trkpt lat="47.31861" lon="-2.45174">
        <ele>55</ele>
        <time>2011-04-24T12:23:43Z</time>
      </trkpt>
      <trkpt lat="47.31859" lon="-2.45165">
        <ele>55</ele>
        <time>2011-04-24T12:23:45Z</time>
      </trkpt>
      <trkpt lat="47.31858" lon="-2.45156">
        <ele>55</ele>
        <time>2011-04-24T12:23:47Z</time>
      </trkpt>
      <trkpt lat="47.31856" lon="-2.45146">
        <ele>55</ele>
        <time>2011-04-24T12:23:49Z</time>
      </trkpt>
      <trkpt lat="47.31856" lon="-2.45136">
        <ele>55</ele>
        <time>2011-04-24T12:23:51Z</time>
      </trkpt>
      <trkpt lat="47.31853" lon="-2.45125">
        <ele>55</ele>
        <time>2011-04-24T12:23:53Z</time>
      </trkpt>
      <trkpt lat="47.31851" lon="-2.45115">
        <ele>55</ele>
        <time>2011-04-24T12:23:55Z</time>
      </trkpt>
      <trkpt lat="47.31848" lon="-2.45104">
        <ele>54</ele>
        <time>2011-04-24T12:23:57Z</time>
      </trkpt>
      <trkpt lat="47.31847" lon="-2.45095">
        <ele>55</ele>
        <time>2011-04-24T12:23:59Z</time>
      </trkpt>
      <trkpt lat="47.3185" lon="-2.45086">
        <ele>55</ele>
        <time>2011-04-24T12:24:01Z</time>
      </trkpt>
      <trkpt lat="47.31847" lon="-2.45078">
        <ele>58</ele>
        <time>2011-04-24T12:24:04Z</time>
      </trkpt>
      <trkpt lat="47.31843" lon="-2.45071">
        <ele>58</ele>
        <time>2011-04-24T12:24:06Z</time>
      </trkpt>
      <trkpt lat="47.31839" lon="-2.45063">
        <ele>60</ele>
        <time>2011-04-24T12:24:09Z</time>
      </trkpt>
      <trkpt lat="47.31838" lon="-2.45056">
        <ele>60</ele>
        <time>2011-04-24T12:24:11Z</time>
      </trkpt>
      <trkpt lat="47.31834" lon="-2.45048">
        <ele>61</ele>
        <time>2011-04-24T12:24:13Z</time>
      </trkpt>
      <trkpt lat="47.31831" lon="-2.4504">
        <ele>62</ele>
        <time>2011-04-24T12:24:15Z</time>
      </trkpt>
      <trkpt lat="47.31829" lon="-2.4503">
        <ele>62</ele>
        <time>2011-04-24T12:24:17Z</time>
      </trkpt>
      <trkpt lat="47.31824" lon="-2.45021">
        <ele>62</ele>
        <time>2011-04-24T12:24:19Z</time>
      </trkpt>
      <trkpt lat="47.31821" lon="-2.45012">
        <ele>62</ele>
        <time>2011-04-24T12:24:21Z</time>
      </trkpt>
      <trkpt lat="47.31819" lon="-2.45004">
        <ele>63</ele>
        <time>2011-04-24T12:24:23Z</time>
      </trkpt>
      <trkpt lat="47.31816" lon="-2.44996">
        <ele>63</ele>
        <time>2011-04-24T12:24:25Z</time>
      </trkpt>
      <trkpt lat="47.31814" lon="-2.44988">
        <ele>64</ele>
        <time>2011-04-24T12:24:27Z</time>
      </trkpt>
      <trkpt lat="47.3181" lon="-2.44981">
        <ele>63</ele>
        <time>2011-04-24T12:24:28Z</time>
      </trkpt>
      <trkpt lat="47.31806" lon="-2.44971">
        <ele>61</ele>
        <time>2011-04-24T12:24:30Z</time>
      </trkpt>
      <trkpt lat="47.31801" lon="-2.44962">
        <ele>61</ele>
        <time>2011-04-24T12:24:32Z</time>
      </trkpt>
      <trkpt lat="47.31798" lon="-2.44953">
        <ele>61</ele>
        <time>2011-04-24T12:24:34Z</time>
      </trkpt>
      <trkpt lat="47.31795" lon="-2.44945">
        <ele>62</ele>
        <time>2011-04-24T12:24:36Z</time>
      </trkpt>
      <trkpt lat="47.31792" lon="-2.44938">
        <ele>64</ele>
        <time>2011-04-24T12:24:38Z</time>
      </trkpt>
      <trkpt lat="47.3179" lon="-2.44928">
        <ele>64</ele>
        <time>2011-04-24T12:24:39Z</time>
      </trkpt>
      <trkpt lat="47.31784" lon="-2.44923">
        <ele>62</ele>
        <time>2011-04-24T12:24:40Z</time>
      </trkpt>
      <trkpt lat="47.31781" lon="-2.44916">
        <ele>61</ele>
        <time>2011-04-24T12:24:41Z</time>
      </trkpt>
      <trkpt lat="47.31776" lon="-2.44907">
        <ele>62</ele>
        <time>2011-04-24T12:24:43Z</time>
      </trkpt>
      <trkpt lat="47.31773" lon="-2.44896">
        <ele>62</ele>
        <time>2011-04-24T12:24:45Z</time>
      </trkpt>
      <trkpt lat="47.31768" lon="-2.44885">
        <ele>62</ele>
        <time>2011-04-24T12:24:47Z</time>
      </trkpt>
      <trkpt lat="47.31764" lon="-2.44879">
        <ele>60</ele>
        <time>2011-04-24T12:24:48Z</time>
      </trkpt>
      <trkpt lat="47.31761" lon="-2.44873">
        <ele>59</ele>
        <time>2011-04-24T12:24:49Z</time>
      </trkpt>
      <trkpt lat="47.31758" lon="-2.44867">
        <ele>59</ele>
        <time>2011-04-24T12:24:50Z</time>
      </trkpt>
      <trkpt lat="47.31753" lon="-2.44858">
        <ele>59</ele>
        <time>2011-04-24T12:24:52Z</time>
      </trkpt>
      <trkpt lat="47.31748" lon="-2.44847">
        <ele>59</ele>
        <time>2011-04-24T12:24:54Z</time>
      </trkpt>
      <trkpt lat="47.31741" lon="-2.44835">
        <ele>58</ele>
        <time>2011-04-24T12:24:56Z</time>
      </trkpt>
      <trkpt lat="47.3174" lon="-2.44826">
        <ele>55</ele>
        <time>2011-04-24T12:24:58Z</time>
      </trkpt>
      <trkpt lat="47.31737" lon="-2.44814">
        <ele>56</ele>
        <time>2011-04-24T12:25:00Z</time>
      </trkpt>
      <trkpt lat="47.31736" lon="-2.44804">
        <ele>56</ele>
        <time>2011-04-24T12:25:02Z</time>
      </trkpt>
      <trkpt lat="47.31746" lon="-2.44793">
        <ele>58</ele>
        <time>2011-04-24T12:25:04Z</time>
      </trkpt>
      <trkpt lat="47.31749" lon="-2.44786">
        <ele>56</ele>
        <time>2011-04-24T12:25:06Z</time>
      </trkpt>
      <trkpt lat="47.3175" lon="-2.44777">
        <ele>55</ele>
        <time>2011-04-24T12:25:08Z</time>
      </trkpt>
      <trkpt lat="47.31756" lon="-2.44771">
        <ele>56</ele>
        <time>2011-04-24T12:25:10Z</time>
      </trkpt>
      <trkpt lat="47.31761" lon="-2.44766">
        <ele>56</ele>
        <time>2011-04-24T12:25:12Z</time>
      </trkpt>
      <trkpt lat="47.31769" lon="-2.44757">
        <ele>56</ele>
        <time>2011-04-24T12:25:15Z</time>
      </trkpt>
      <trkpt lat="47.31776" lon="-2.44752">
        <ele>56</ele>
        <time>2011-04-24T12:25:17Z</time>
      </trkpt>
      <trkpt lat="47.31783" lon="-2.44748">
        <ele>57</ele>
        <time>2011-04-24T12:25:19Z</time>
      </trkpt>
      <trkpt lat="47.3179" lon="-2.44742">
        <ele>57</ele>
        <time>2011-04-24T12:25:21Z</time>
      </trkpt>
      <trkpt lat="47.31798" lon="-2.44739">
        <ele>57</ele>
        <time>2011-04-24T12:25:23Z</time>
      </trkpt>
      <trkpt lat="47.31804" lon="-2.44734">
        <ele>56</ele>
        <time>2011-04-24T12:25:25Z</time>
      </trkpt>
      <trkpt lat="47.31812" lon="-2.44731">
        <ele>57</ele>
        <time>2011-04-24T12:25:27Z</time>
      </trkpt>
      <trkpt lat="47.31817" lon="-2.44726">
        <ele>57</ele>
        <time>2011-04-24T12:25:29Z</time>
      </trkpt>
      <trkpt lat="47.31823" lon="-2.44722">
        <ele>58</ele>
        <time>2011-04-24T12:25:31Z</time>
      </trkpt>
      <trkpt lat="47.3183" lon="-2.44717">
        <ele>58</ele>
        <time>2011-04-24T12:25:33Z</time>
      </trkpt>
      <trkpt lat="47.31834" lon="-2.4471">
        <ele>58</ele>
        <time>2011-04-24T12:25:35Z</time>
      </trkpt>
      <trkpt lat="47.31838" lon="-2.44704">
        <ele>56</ele>
        <time>2011-04-24T12:25:36Z</time>
      </trkpt>
      <trkpt lat="47.31843" lon="-2.44699">
        <ele>57</ele>
        <time>2011-04-24T12:25:38Z</time>
      </trkpt>
      <trkpt lat="47.31848" lon="-2.44692">
        <ele>60</ele>
        <time>2011-04-24T12:25:41Z</time>
      </trkpt>
      <trkpt lat="47.31853" lon="-2.44684">
        <ele>61</ele>
        <time>2011-04-24T12:25:43Z</time>
      </trkpt>
      <trkpt lat="47.31856" lon="-2.44681">
        <ele>60</ele>
        <time>2011-04-24T12:25:45Z</time>
      </trkpt>
      <trkpt lat="47.31861" lon="-2.44671">
        <ele>60</ele>
        <time>2011-04-24T12:25:47Z</time>
      </trkpt>
      <trkpt lat="47.31862" lon="-2.44663">
        <ele>60</ele>
        <time>2011-04-24T12:25:48Z</time>
      </trkpt>
      <trkpt lat="47.31864" lon="-2.44653">
        <ele>60</ele>
        <time>2011-04-24T12:25:49Z</time>
      </trkpt>
      <trkpt lat="47.31866" lon="-2.44648">
        <ele>60</ele>
        <time>2011-04-24T12:25:50Z</time>
      </trkpt>
      <trkpt lat="47.31869" lon="-2.44637">
        <ele>60</ele>
        <time>2011-04-24T12:25:52Z</time>
      </trkpt>
      <trkpt lat="47.31874" lon="-2.44628">
        <ele>59</ele>
        <time>2011-04-24T12:25:54Z</time>
      </trkpt>
      <trkpt lat="47.31878" lon="-2.44618">
        <ele>59</ele>
        <time>2011-04-24T12:25:57Z</time>
      </trkpt>
      <trkpt lat="47.31881" lon="-2.44613">
        <ele>59</ele>
        <time>2011-04-24T12:25:58Z</time>
      </trkpt>
      <trkpt lat="47.31885" lon="-2.44603">
        <ele>60</ele>
        <time>2011-04-24T12:26:00Z</time>
      </trkpt>
      <trkpt lat="47.31888" lon="-2.44594">
        <ele>59</ele>
        <time>2011-04-24T12:26:02Z</time>
      </trkpt>
      <trkpt lat="47.31894" lon="-2.44585">
        <ele>59</ele>
        <time>2011-04-24T12:26:04Z</time>
      </trkpt>
      <trkpt lat="47.31896" lon="-2.44579">
        <ele>59</ele>
        <time>2011-04-24T12:26:05Z</time>
      </trkpt>
      <trkpt lat="47.31899" lon="-2.44568">
        <ele>59</ele>
        <time>2011-04-24T12:26:07Z</time>
      </trkpt>
      <trkpt lat="47.31903" lon="-2.44559">
        <ele>59</ele>
        <time>2011-04-24T12:26:09Z</time>
      </trkpt>
      <trkpt lat="47.31905" lon="-2.44551">
        <ele>61</ele>
        <time>2011-04-24T12:26:11Z</time>
      </trkpt>
      <trkpt lat="47.31909" lon="-2.44543">
        <ele>61</ele>
        <time>2011-04-24T12:26:13Z</time>
      </trkpt>
      <trkpt lat="47.31913" lon="-2.44534">
        <ele>61</ele>
        <time>2011-04-24T12:26:15Z</time>
      </trkpt>
      <trkpt lat="47.31916" lon="-2.44525">
        <ele>61</ele>
        <time>2011-04-24T12:26:17Z</time>
      </trkpt>
      <trkpt lat="47.3192" lon="-2.44514">
        <ele>60</ele>
        <time>2011-04-24T12:26:19Z</time>
      </trkpt>
      <trkpt lat="47.31925" lon="-2.44505">
        <ele>60</ele>
        <time>2011-04-24T12:26:21Z</time>
      </trkpt>
      <trkpt lat="47.31928" lon="-2.44497">
        <ele>60</ele>
        <time>2011-04-24T12:26:23Z</time>
      </trkpt>
      <trkpt lat="47.31931" lon="-2.44489">
        <ele>60</ele>
        <time>2011-04-24T12:26:25Z</time>
      </trkpt>
      <trkpt lat="47.31933" lon="-2.44481">
        <ele>60</ele>
        <time>2011-04-24T12:26:27Z</time>
      </trkpt>
      <trkpt lat="47.31937" lon="-2.44472">
        <ele>59</ele>
        <time>2011-04-24T12:26:29Z</time>
      </trkpt>
      <trkpt lat="47.31939" lon="-2.44466">
        <ele>58</ele>
        <time>2011-04-24T12:26:30Z</time>
      </trkpt>
      <trkpt lat="47.31943" lon="-2.44457">
        <ele>57</ele>
        <time>2011-04-24T12:26:32Z</time>
      </trkpt>
      <trkpt lat="47.31947" lon="-2.44448">
        <ele>58</ele>
        <time>2011-04-24T12:26:34Z</time>
      </trkpt>
      <trkpt lat="47.31951" lon="-2.44439">
        <ele>58</ele>
        <time>2011-04-24T12:26:36Z</time>
      </trkpt>
      <trkpt lat="47.31954" lon="-2.44429">
        <ele>58</ele>
        <time>2011-04-24T12:26:38Z</time>
      </trkpt>
      <trkpt lat="47.31958" lon="-2.44416">
        <ele>56</ele>
        <time>2011-04-24T12:26:40Z</time>
      </trkpt>
      <trkpt lat="47.31962" lon="-2.44406">
        <ele>55</ele>
        <time>2011-04-24T12:26:42Z</time>
      </trkpt>
      <trkpt lat="47.31966" lon="-2.44394">
        <ele>54</ele>
        <time>2011-04-24T12:26:44Z</time>
      </trkpt>
      <trkpt lat="47.3197" lon="-2.44387">
        <ele>54</ele>
        <time>2011-04-24T12:26:45Z</time>
      </trkpt>
      <trkpt lat="47.31974" lon="-2.44383">
        <ele>54</ele>
        <time>2011-04-24T12:26:46Z</time>
      </trkpt>
      <trkpt lat="47.31977" lon="-2.44377">
        <ele>53</ele>
        <time>2011-04-24T12:26:47Z</time>
      </trkpt>
      <trkpt lat="47.31978" lon="-2.4437">
        <ele>53</ele>
        <time>2011-04-24T12:26:49Z</time>
      </trkpt>
      <trkpt lat="47.31982" lon="-2.44363">
        <ele>52</ele>
        <time>2011-04-24T12:26:51Z</time>
      </trkpt>
      <trkpt lat="47.31986" lon="-2.44357">
        <ele>53</ele>
        <time>2011-04-24T12:26:53Z</time>
      </trkpt>
      <trkpt lat="47.31991" lon="-2.44351">
        <ele>53</ele>
        <time>2011-04-24T12:26:55Z</time>
      </trkpt>
      <trkpt lat="47.31995" lon="-2.44346">
        <ele>54</ele>
        <time>2011-04-24T12:26:57Z</time>
      </trkpt>
      <trkpt lat="47.32" lon="-2.44338">
        <ele>53</ele>
        <time>2011-04-24T12:26:59Z</time>
      </trkpt>
      <trkpt lat="47.32005" lon="-2.44334">
        <ele>53</ele>
        <time>2011-04-24T12:27:01Z</time>
      </trkpt>
      <trkpt lat="47.32009" lon="-2.44327">
        <ele>53</ele>
        <time>2011-04-24T12:27:03Z</time>
      </trkpt>
      <trkpt lat="47.32014" lon="-2.44321">
        <ele>53</ele>
        <time>2011-04-24T12:27:05Z</time>
      </trkpt>
      <trkpt lat="47.32018" lon="-2.44315">
        <ele>53</ele>
        <time>2011-04-24T12:27:07Z</time>
      </trkpt>
      <trkpt lat="47.32021" lon="-2.4431">
        <ele>53</ele>
        <time>2011-04-24T12:27:09Z</time>
      </trkpt>
      <trkpt lat="47.32024" lon="-2.44302">
        <ele>53</ele>
        <time>2011-04-24T12:27:11Z</time>
      </trkpt>
      <trkpt lat="47.32029" lon="-2.44296">
        <ele>53</ele>
        <time>2011-04-24T12:27:13Z</time>
      </trkpt>
      <trkpt lat="47.32033" lon="-2.4429">
        <ele>54</ele>
        <time>2011-04-24T12:27:15Z</time>
      </trkpt>
      <trkpt lat="47.32036" lon="-2.44284">
        <ele>54</ele>
        <time>2011-04-24T12:27:17Z</time>
      </trkpt>
      <trkpt lat="47.3204" lon="-2.44277">
        <ele>54</ele>
        <time>2011-04-24T12:27:19Z</time>
      </trkpt>
      <trkpt lat="47.32045" lon="-2.4427">
        <ele>54</ele>
        <time>2011-04-24T12:27:21Z</time>
      </trkpt>
      <trkpt lat="47.3205" lon="-2.44263">
        <ele>54</ele>
        <time>2011-04-24T12:27:23Z</time>
      </trkpt>
      <trkpt lat="47.32053" lon="-2.44257">
        <ele>55</ele>
        <time>2011-04-24T12:27:25Z</time>
      </trkpt>
      <trkpt lat="47.32057" lon="-2.44251">
        <ele>55</ele>
        <time>2011-04-24T12:27:27Z</time>
      </trkpt>
      <trkpt lat="47.3206" lon="-2.44245">
        <ele>56</ele>
        <time>2011-04-24T12:27:29Z</time>
      </trkpt>
      <trkpt lat="47.32065" lon="-2.44239">
        <ele>56</ele>
        <time>2011-04-24T12:27:31Z</time>
      </trkpt>
      <trkpt lat="47.3207" lon="-2.44233">
        <ele>56</ele>
        <time>2011-04-24T12:27:33Z</time>
      </trkpt>
      <trkpt lat="47.32074" lon="-2.44226">
        <ele>56</ele>
        <time>2011-04-24T12:27:35Z</time>
      </trkpt>
      <trkpt lat="47.32078" lon="-2.44222">
        <ele>56</ele>
        <time>2011-04-24T12:27:37Z</time>
      </trkpt>
      <trkpt lat="47.32083" lon="-2.44216">
        <ele>56</ele>
        <time>2011-04-24T12:27:39Z</time>
      </trkpt>
      <trkpt lat="47.32087" lon="-2.4421">
        <ele>56</ele>
        <time>2011-04-24T12:27:41Z</time>
      </trkpt>
      <trkpt lat="47.32091" lon="-2.44204">
        <ele>57</ele>
        <time>2011-04-24T12:27:43Z</time>
      </trkpt>
      <trkpt lat="47.32096" lon="-2.44197">
        <ele>58</ele>
        <time>2011-04-24T12:27:45Z</time>
      </trkpt>
      <trkpt lat="47.32101" lon="-2.44191">
        <ele>58</ele>
        <time>2011-04-24T12:27:47Z</time>
      </trkpt>
      <trkpt lat="47.32106" lon="-2.44184">
        <ele>58</ele>
        <time>2011-04-24T12:27:49Z</time>
      </trkpt>
      <trkpt lat="47.32111" lon="-2.44179">
        <ele>57</ele>
        <time>2011-04-24T12:27:51Z</time>
      </trkpt>
      <trkpt lat="47.32115" lon="-2.44173">
        <ele>58</ele>
        <time>2011-04-24T12:27:53Z</time>
      </trkpt>
      <trkpt lat="47.32119" lon="-2.44168">
        <ele>59</ele>
        <time>2011-04-24T12:27:55Z</time>
      </trkpt>
      <trkpt lat="47.32123" lon="-2.44164">
        <ele>58</ele>
        <time>2011-04-24T12:27:57Z</time>
      </trkpt>
      <trkpt lat="47.32128" lon="-2.44158">
        <ele>59</ele>
        <time>2011-04-24T12:27:59Z</time>
      </trkpt>
      <trkpt lat="47.32133" lon="-2.44153">
        <ele>60</ele>
        <time>2011-04-24T12:28:01Z</time>
      </trkpt>
      <trkpt lat="47.32137" lon="-2.4415">
        <ele>60</ele>
        <time>2011-04-24T12:28:02Z</time>
      </trkpt>
      <trkpt lat="47.32141" lon="-2.44145">
        <ele>60</ele>
        <time>2011-04-24T12:28:04Z</time>
      </trkpt>
      <trkpt lat="47.32146" lon="-2.44138">
        <ele>61</ele>
        <time>2011-04-24T12:28:06Z</time>
      </trkpt>
      <trkpt lat="47.3215" lon="-2.44132">
        <ele>61</ele>
        <time>2011-04-24T12:28:08Z</time>
      </trkpt>
      <trkpt lat="47.32154" lon="-2.44126">
        <ele>62</ele>
        <time>2011-04-24T12:28:10Z</time>
      </trkpt>
      <trkpt lat="47.32158" lon="-2.44121">
        <ele>65</ele>
        <time>2011-04-24T12:28:12Z</time>
      </trkpt>
      <trkpt lat="47.32162" lon="-2.44116">
        <ele>64</ele>
        <time>2011-04-24T12:28:14Z</time>
      </trkpt>
      <trkpt lat="47.32167" lon="-2.44111">
        <ele>64</ele>
        <time>2011-04-24T12:28:16Z</time>
      </trkpt>
      <trkpt lat="47.32173" lon="-2.44104">
        <ele>64</ele>
        <time>2011-04-24T12:28:18Z</time>
      </trkpt>
      <trkpt lat="47.32178" lon="-2.44098">
        <ele>65</ele>
        <time>2011-04-24T12:28:20Z</time>
      </trkpt>
      <trkpt lat="47.32183" lon="-2.44091">
        <ele>65</ele>
        <time>2011-04-24T12:28:22Z</time>
      </trkpt>
      <trkpt lat="47.32189" lon="-2.44086">
        <ele>66</ele>
        <time>2011-04-24T12:28:24Z</time>
      </trkpt>
      <trkpt lat="47.32194" lon="-2.44082">
        <ele>66</ele>
        <time>2011-04-24T12:28:26Z</time>
      </trkpt>
      <trkpt lat="47.32199" lon="-2.44077">
        <ele>67</ele>
        <time>2011-04-24T12:28:28Z</time>
      </trkpt>
      <trkpt lat="47.32205" lon="-2.44072">
        <ele>66</ele>
        <time>2011-04-24T12:28:30Z</time>
      </trkpt>
      <trkpt lat="47.32211" lon="-2.44066">
        <ele>66</ele>
        <time>2011-04-24T12:28:32Z</time>
      </trkpt>
      <trkpt lat="47.32215" lon="-2.44062">
        <ele>66</ele>
        <time>2011-04-24T12:28:34Z</time>
      </trkpt>
      <trkpt lat="47.32221" lon="-2.44057">
        <ele>67</ele>
        <time>2011-04-24T12:28:36Z</time>
      </trkpt>
      <trkpt lat="47.32226" lon="-2.44055">
        <ele>68</ele>
        <time>2011-04-24T12:28:38Z</time>
      </trkpt>
      <trkpt lat="47.32232" lon="-2.44052">
        <ele>68</ele>
        <time>2011-04-24T12:28:41Z</time>
      </trkpt>
      <trkpt lat="47.32237" lon="-2.44051">
        <ele>73</ele>
        <time>2011-04-24T12:28:47Z</time>
      </trkpt>
      <trkpt lat="47.32243" lon="-2.44046">
        <ele>74</ele>
        <time>2011-04-24T12:28:50Z</time>
      </trkpt>
      <trkpt lat="47.32247" lon="-2.44043">
        <ele>74</ele>
        <time>2011-04-24T12:28:52Z</time>
      </trkpt>
      <trkpt lat="47.32252" lon="-2.4404">
        <ele>75</ele>
        <time>2011-04-24T12:28:54Z</time>
      </trkpt>
      <trkpt lat="47.32255" lon="-2.44033">
        <ele>74</ele>
        <time>2011-04-24T12:28:56Z</time>
      </trkpt>
      <trkpt lat="47.32261" lon="-2.44034">
        <ele>75</ele>
        <time>2011-04-24T12:28:58Z</time>
      </trkpt>
      <trkpt lat="47.32265" lon="-2.4403">
        <ele>76</ele>
        <time>2011-04-24T12:29:01Z</time>
      </trkpt>
      <trkpt lat="47.3227" lon="-2.4403">
        <ele>75</ele>
        <time>2011-04-24T12:29:07Z</time>
      </trkpt>
      <trkpt lat="47.3227" lon="-2.4403">
        <ele>75</ele>
        <time>2011-04-24T12:29:07Z</time>
      </trkpt>
      <trkpt lat="47.3227" lon="-2.4403">
        <ele>75</ele>
        <time>2011-04-24T12:29:08Z</time>
      </trkpt>
      <trkpt lat="47.32261" lon="-2.44035">
        <ele>75</ele>
        <time>2011-04-24T12:29:32Z</time>
      </trkpt>
      <trkpt lat="47.32255" lon="-2.44036">
        <ele>73</ele>
        <time>2011-04-24T12:29:34Z</time>
      </trkpt>
      <trkpt lat="47.3225" lon="-2.44038">
        <ele>72</ele>
        <time>2011-04-24T12:29:36Z</time>
      </trkpt>
      <trkpt lat="47.32244" lon="-2.44047">
        <ele>71</ele>
        <time>2011-04-24T12:29:38Z</time>
      </trkpt>
      <trkpt lat="47.32239" lon="-2.44046">
        <ele>72</ele>
        <time>2011-04-24T12:29:49Z</time>
      </trkpt>
      <trkpt lat="47.32239" lon="-2.44046">
        <ele>72</ele>
        <time>2011-04-24T12:29:49Z</time>
      </trkpt>
      <trkpt lat="47.32239" lon="-2.44046">
        <ele>73</ele>
        <time>2011-04-24T12:30:06Z</time>
      </trkpt>
      <trkpt lat="47.32244" lon="-2.44046">
        <ele>74</ele>
        <time>2011-04-24T12:30:33Z</time>
      </trkpt>
      <trkpt lat="47.32244" lon="-2.44046">
        <ele>74</ele>
        <time>2011-04-24T12:30:33Z</time>
      </trkpt>
      <trkpt lat="47.32244" lon="-2.44046">
        <ele>73</ele>
        <time>2011-04-24T12:30:51Z</time>
      </trkpt>
      <trkpt lat="47.32248" lon="-2.44039">
        <ele>73</ele>
        <time>2011-04-24T12:30:56Z</time>
      </trkpt>
      <trkpt lat="47.32254" lon="-2.44037">
        <ele>76</ele>
        <time>2011-04-24T12:31:00Z</time>
      </trkpt>
      <trkpt lat="47.32258" lon="-2.44035">
        <ele>77</ele>
        <time>2011-04-24T12:31:01Z</time>
      </trkpt>
      <trkpt lat="47.32263" lon="-2.44031">
        <ele>77</ele>
        <time>2011-04-24T12:31:02Z</time>
      </trkpt>
      <trkpt lat="47.32267" lon="-2.44028">
        <ele>77</ele>
        <time>2011-04-24T12:31:03Z</time>
      </trkpt>
      <trkpt lat="47.32273" lon="-2.4403">
        <ele>76</ele>
        <time>2011-04-24T12:31:20Z</time>
      </trkpt>
      <trkpt lat="47.32273" lon="-2.4403">
        <ele>76</ele>
        <time>2011-04-24T12:31:20Z</time>
      </trkpt>
      <trkpt lat="47.32273" lon="-2.4403">
        <ele>76</ele>
        <time>2011-04-24T12:31:21Z</time>
      </trkpt>
      <trkpt lat="47.32267" lon="-2.4403">
        <ele>79</ele>
        <time>2011-04-24T12:31:23Z</time>
      </trkpt>
      <trkpt lat="47.32262" lon="-2.44028">
        <ele>78</ele>
        <time>2011-04-24T12:31:32Z</time>
      </trkpt>
      <trkpt lat="47.32266" lon="-2.4403">
        <ele>77</ele>
        <time>2011-04-24T12:32:26Z</time>
      </trkpt>
      <trkpt lat="47.32266" lon="-2.4403">
        <ele>77</ele>
        <time>2011-04-24T12:32:26Z</time>
      </trkpt>
      <trkpt lat="47.32266" lon="-2.4403">
        <ele>77</ele>
        <time>2011-04-24T12:32:27Z</time>
      </trkpt>
      <trkpt lat="47.32264" lon="-2.44036">
        <ele>76</ele>
        <time>2011-04-24T12:32:41Z</time>
      </trkpt>
      <trkpt lat="47.32268" lon="-2.44032">
        <ele>79</ele>
        <time>2011-04-24T12:33:15Z</time>
      </trkpt>
      <trkpt lat="47.32272" lon="-2.44028">
        <ele>81</ele>
        <time>2011-04-24T12:34:22Z</time>
      </trkpt>
      <trkpt lat="47.32276" lon="-2.44023">
        <ele>80</ele>
        <time>2011-04-24T12:35:02Z</time>
      </trkpt>
      <trkpt lat="47.3228" lon="-2.44018">
        <ele>80</ele>
        <time>2011-04-24T12:35:06Z</time>
      </trkpt>
      <trkpt lat="47.32284" lon="-2.44015">
        <ele>80</ele>
        <time>2011-04-24T12:35:10Z</time>
      </trkpt>
      <trkpt lat="47.32288" lon="-2.44011">
        <ele>82</ele>
        <time>2011-04-24T12:35:13Z</time>
      </trkpt>
      <trkpt lat="47.32293" lon="-2.44005">
        <ele>82</ele>
        <time>2011-04-24T12:35:17Z</time>
      </trkpt>
      <trkpt lat="47.32298" lon="-2.44">
        <ele>84</ele>
        <time>2011-04-24T12:35:21Z</time>
      </trkpt>
      <trkpt lat="47.32301" lon="-2.43996">
        <ele>85</ele>
        <time>2011-04-24T12:35:24Z</time>
      </trkpt>
      <trkpt lat="47.32304" lon="-2.43989">
        <ele>85</ele>
        <time>2011-04-24T12:35:27Z</time>
      </trkpt>
      <trkpt lat="47.32307" lon="-2.43983">
        <ele>84</ele>
        <time>2011-04-24T12:35:29Z</time>
      </trkpt>
      <trkpt lat="47.3231" lon="-2.43975">
        <ele>84</ele>
        <time>2011-04-24T12:35:32Z</time>
      </trkpt>
      <trkpt lat="47.32312" lon="-2.43966">
        <ele>84</ele>
        <time>2011-04-24T12:35:35Z</time>
      </trkpt>
      <trkpt lat="47.32315" lon="-2.43961">
        <ele>84</ele>
        <time>2011-04-24T12:35:37Z</time>
      </trkpt>
      <trkpt lat="47.32315" lon="-2.43952">
        <ele>83</ele>
        <time>2011-04-24T12:35:40Z</time>
      </trkpt>
      <trkpt lat="47.32318" lon="-2.43944">
        <ele>84</ele>
        <time>2011-04-24T12:35:43Z</time>
      </trkpt>
      <trkpt lat="47.3232" lon="-2.43938">
        <ele>84</ele>
        <time>2011-04-24T12:35:45Z</time>
      </trkpt>
      <trkpt lat="47.32322" lon="-2.43931">
        <ele>84</ele>
        <time>2011-04-24T12:35:47Z</time>
      </trkpt>
      <trkpt lat="47.32323" lon="-2.43924">
        <ele>84</ele>
        <time>2011-04-24T12:35:49Z</time>
      </trkpt>
      <trkpt lat="47.32325" lon="-2.43916">
        <ele>84</ele>
        <time>2011-04-24T12:35:52Z</time>
      </trkpt>
      <trkpt lat="47.32329" lon="-2.43908">
        <ele>84</ele>
        <time>2011-04-24T12:35:55Z</time>
      </trkpt>
      <trkpt lat="47.32328" lon="-2.43899">
        <ele>83</ele>
        <time>2011-04-24T12:35:57Z</time>
      </trkpt>
      <trkpt lat="47.32328" lon="-2.4389">
        <ele>82</ele>
        <time>2011-04-24T12:36:00Z</time>
      </trkpt>
      <trkpt lat="47.32329" lon="-2.43882">
        <ele>83</ele>
        <time>2011-04-24T12:36:02Z</time>
      </trkpt>
      <trkpt lat="47.3233" lon="-2.43875">
        <ele>82</ele>
        <time>2011-04-24T12:36:04Z</time>
      </trkpt>
      <trkpt lat="47.32332" lon="-2.43868">
        <ele>82</ele>
        <time>2011-04-24T12:36:06Z</time>
      </trkpt>
      <trkpt lat="47.32334" lon="-2.43861">
        <ele>82</ele>
        <time>2011-04-24T12:36:08Z</time>
      </trkpt>
      <trkpt lat="47.32336" lon="-2.43855">
        <ele>82</ele>
        <time>2011-04-24T12:36:10Z</time>
      </trkpt>
      <trkpt lat="47.32338" lon="-2.43848">
        <ele>82</ele>
        <time>2011-04-24T12:36:12Z</time>
      </trkpt>
      <trkpt lat="47.3234" lon="-2.43841">
        <ele>82</ele>
        <time>2011-04-24T12:36:14Z</time>
      </trkpt>
      <trkpt lat="47.32342" lon="-2.43835">
        <ele>83</ele>
        <time>2011-04-24T12:36:16Z</time>
      </trkpt>
      <trkpt lat="47.32344" lon="-2.43828">
        <ele>83</ele>
        <time>2011-04-24T12:36:18Z</time>
      </trkpt>
      <trkpt lat="47.32346" lon="-2.4382">
        <ele>84</ele>
        <time>2011-04-24T12:36:20Z</time>
      </trkpt>
      <trkpt lat="47.32348" lon="-2.43812">
        <ele>84</ele>
        <time>2011-04-24T12:36:22Z</time>
      </trkpt>
      <trkpt lat="47.32351" lon="-2.43805">
        <ele>84</ele>
        <time>2011-04-24T12:36:24Z</time>
      </trkpt>
      <trkpt lat="47.32354" lon="-2.43797">
        <ele>84</ele>
        <time>2011-04-24T12:36:26Z</time>
      </trkpt>
      <trkpt lat="47.32356" lon="-2.43789">
        <ele>84</ele>
        <time>2011-04-24T12:36:28Z</time>
      </trkpt>
      <trkpt lat="47.32358" lon="-2.43782">
        <ele>84</ele>
        <time>2011-04-24T12:36:30Z</time>
      </trkpt>
      <trkpt lat="47.32361" lon="-2.43774">
        <ele>83</ele>
        <time>2011-04-24T12:36:32Z</time>
      </trkpt>
      <trkpt lat="47.32364" lon="-2.43765">
        <ele>84</ele>
        <time>2011-04-24T12:36:34Z</time>
      </trkpt>
      <trkpt lat="47.32366" lon="-2.43756">
        <ele>84</ele>
        <time>2011-04-24T12:36:36Z</time>
      </trkpt>
      <trkpt lat="47.3237" lon="-2.43742">
        <ele>83</ele>
        <time>2011-04-24T12:36:39Z</time>
      </trkpt>
      <trkpt lat="47.32372" lon="-2.43734">
        <ele>84</ele>
        <time>2011-04-24T12:36:41Z</time>
      </trkpt>
      <trkpt lat="47.32373" lon="-2.43726">
        <ele>86</ele>
        <time>2011-04-24T12:36:43Z</time>
      </trkpt>
      <trkpt lat="47.32374" lon="-2.43718">
        <ele>85</ele>
        <time>2011-04-24T12:36:45Z</time>
      </trkpt>
      <trkpt lat="47.32375" lon="-2.43709">
        <ele>85</ele>
        <time>2011-04-24T12:36:47Z</time>
      </trkpt>
      <trkpt lat="47.32376" lon="-2.437">
        <ele>85</ele>
        <time>2011-04-24T12:36:49Z</time>
      </trkpt>
      <trkpt lat="47.32378" lon="-2.4369">
        <ele>85</ele>
        <time>2011-04-24T12:36:51Z</time>
      </trkpt>
      <trkpt lat="47.3238" lon="-2.43682">
        <ele>85</ele>
        <time>2011-04-24T12:36:53Z</time>
      </trkpt>
      <trkpt lat="47.32383" lon="-2.43673">
        <ele>85</ele>
        <time>2011-04-24T12:36:55Z</time>
      </trkpt>
      <trkpt lat="47.32384" lon="-2.43663">
        <ele>85</ele>
        <time>2011-04-24T12:36:57Z</time>
      </trkpt>
      <trkpt lat="47.32386" lon="-2.43653">
        <ele>85</ele>
        <time>2011-04-24T12:36:59Z</time>
      </trkpt>
      <trkpt lat="47.32388" lon="-2.43643">
        <ele>84</ele>
        <time>2011-04-24T12:37:01Z</time>
      </trkpt>
      <trkpt lat="47.3239" lon="-2.43635">
        <ele>83</ele>
        <time>2011-04-24T12:37:03Z</time>
      </trkpt>
      <trkpt lat="47.32392" lon="-2.43625">
        <ele>82</ele>
        <time>2011-04-24T12:37:05Z</time>
      </trkpt>
      <trkpt lat="47.32394" lon="-2.43616">
        <ele>83</ele>
        <time>2011-04-24T12:37:07Z</time>
      </trkpt>
      <trkpt lat="47.32396" lon="-2.43608">
        <ele>83</ele>
        <time>2011-04-24T12:37:09Z</time>
      </trkpt>
      <trkpt lat="47.32398" lon="-2.43598">
        <ele>83</ele>
        <time>2011-04-24T12:37:11Z</time>
      </trkpt>
      <trkpt lat="47.324" lon="-2.4359">
        <ele>83</ele>
        <time>2011-04-24T12:37:13Z</time>
      </trkpt>
      <trkpt lat="47.32402" lon="-2.43581">
        <ele>82</ele>
        <time>2011-04-24T12:37:15Z</time>
      </trkpt>
      <trkpt lat="47.32404" lon="-2.43572">
        <ele>82</ele>
        <time>2011-04-24T12:37:17Z</time>
      </trkpt>
      <trkpt lat="47.32406" lon="-2.43563">
        <ele>82</ele>
        <time>2011-04-24T12:37:19Z</time>
      </trkpt>
      <trkpt lat="47.32409" lon="-2.43554">
        <ele>83</ele>
        <time>2011-04-24T12:37:21Z</time>
      </trkpt>
      <trkpt lat="47.32412" lon="-2.43546">
        <ele>82</ele>
        <time>2011-04-24T12:37:23Z</time>
      </trkpt>
      <trkpt lat="47.32415" lon="-2.43538">
        <ele>83</ele>
        <time>2011-04-24T12:37:25Z</time>
      </trkpt>
      <trkpt lat="47.32418" lon="-2.43531">
        <ele>83</ele>
        <time>2011-04-24T12:37:27Z</time>
      </trkpt>
      <trkpt lat="47.32422" lon="-2.43524">
        <ele>83</ele>
        <time>2011-04-24T12:37:29Z</time>
      </trkpt>
      <trkpt lat="47.32428" lon="-2.43518">
        <ele>85</ele>
        <time>2011-04-24T12:37:31Z</time>
      </trkpt>
      <trkpt lat="47.32433" lon="-2.43512">
        <ele>86</ele>
        <time>2011-04-24T12:37:33Z</time>
      </trkpt>
      <trkpt lat="47.32439" lon="-2.43506">
        <ele>86</ele>
        <time>2011-04-24T12:37:35Z</time>
      </trkpt>
      <trkpt lat="47.32444" lon="-2.435">
        <ele>87</ele>
        <time>2011-04-24T12:37:37Z</time>
      </trkpt>
      <trkpt lat="47.3245" lon="-2.43496">
        <ele>87</ele>
        <time>2011-04-24T12:37:39Z</time>
      </trkpt>
      <trkpt lat="47.32456" lon="-2.4349">
        <ele>88</ele>
        <time>2011-04-24T12:37:41Z</time>
      </trkpt>
      <trkpt lat="47.32461" lon="-2.43485">
        <ele>90</ele>
        <time>2011-04-24T12:37:43Z</time>
      </trkpt>
      <trkpt lat="47.32466" lon="-2.4348">
        <ele>90</ele>
        <time>2011-04-24T12:37:45Z</time>
      </trkpt>
      <trkpt lat="47.32473" lon="-2.43473">
        <ele>90</ele>
        <time>2011-04-24T12:37:47Z</time>
      </trkpt>
      <trkpt lat="47.3248" lon="-2.43467">
        <ele>91</ele>
        <time>2011-04-24T12:37:49Z</time>
      </trkpt>
      <trkpt lat="47.32485" lon="-2.4346">
        <ele>91</ele>
        <time>2011-04-24T12:37:51Z</time>
      </trkpt>
      <trkpt lat="47.32491" lon="-2.43453">
        <ele>92</ele>
        <time>2011-04-24T12:37:53Z</time>
      </trkpt>
      <trkpt lat="47.32494" lon="-2.43447">
        <ele>91</ele>
        <time>2011-04-24T12:37:54Z</time>
      </trkpt>
      <trkpt lat="47.32498" lon="-2.43438">
        <ele>89</ele>
        <time>2011-04-24T12:37:56Z</time>
      </trkpt>
      <trkpt lat="47.32501" lon="-2.43429">
        <ele>89</ele>
        <time>2011-04-24T12:37:58Z</time>
      </trkpt>
      <trkpt lat="47.32506" lon="-2.43421">
        <ele>89</ele>
        <time>2011-04-24T12:38:00Z</time>
      </trkpt>
      <trkpt lat="47.32514" lon="-2.43418">
        <ele>88</ele>
        <time>2011-04-24T12:38:02Z</time>
      </trkpt>
      <trkpt lat="47.32521" lon="-2.43416">
        <ele>88</ele>
        <time>2011-04-24T12:38:04Z</time>
      </trkpt>
      <trkpt lat="47.32527" lon="-2.4341">
        <ele>88</ele>
        <time>2011-04-24T12:38:06Z</time>
      </trkpt>
      <trkpt lat="47.3253" lon="-2.43401">
        <ele>89</ele>
        <time>2011-04-24T12:38:08Z</time>
      </trkpt>
      <trkpt lat="47.32534" lon="-2.43391">
        <ele>89</ele>
        <time>2011-04-24T12:38:10Z</time>
      </trkpt>
      <trkpt lat="47.32536" lon="-2.43382">
        <ele>89</ele>
        <time>2011-04-24T12:38:12Z</time>
      </trkpt>
      <trkpt lat="47.32538" lon="-2.43372">
        <ele>89</ele>
        <time>2011-04-24T12:38:14Z</time>
      </trkpt>
      <trkpt lat="47.32539" lon="-2.43362">
        <ele>90</ele>
        <time>2011-04-24T12:38:16Z</time>
      </trkpt>
      <trkpt lat="47.32541" lon="-2.43352">
        <ele>90</ele>
        <time>2011-04-24T12:38:18Z</time>
      </trkpt>
      <trkpt lat="47.32542" lon="-2.43342">
        <ele>90</ele>
        <time>2011-04-24T12:38:20Z</time>
      </trkpt>
      <trkpt lat="47.32544" lon="-2.43332">
        <ele>90</ele>
        <time>2011-04-24T12:38:22Z</time>
      </trkpt>
      <trkpt lat="47.32546" lon="-2.43322">
        <ele>90</ele>
        <time>2011-04-24T12:38:24Z</time>
      </trkpt>
      <trkpt lat="47.32547" lon="-2.43313">
        <ele>90</ele>
        <time>2011-04-24T12:38:26Z</time>
      </trkpt>
      <trkpt lat="47.3255" lon="-2.43304">
        <ele>90</ele>
        <time>2011-04-24T12:38:28Z</time>
      </trkpt>
      <trkpt lat="47.32552" lon="-2.43294">
        <ele>90</ele>
        <time>2011-04-24T12:38:30Z</time>
      </trkpt>
      <trkpt lat="47.32554" lon="-2.43286">
        <ele>90</ele>
        <time>2011-04-24T12:38:32Z</time>
      </trkpt>
      <trkpt lat="47.32557" lon="-2.43276">
        <ele>91</ele>
        <time>2011-04-24T12:38:34Z</time>
      </trkpt>
      <trkpt lat="47.32559" lon="-2.43268">
        <ele>91</ele>
        <time>2011-04-24T12:38:36Z</time>
      </trkpt>
      <trkpt lat="47.32564" lon="-2.43256">
        <ele>91</ele>
        <time>2011-04-24T12:38:39Z</time>
      </trkpt>
      <trkpt lat="47.32567" lon="-2.43248">
        <ele>91</ele>
        <time>2011-04-24T12:38:41Z</time>
      </trkpt>
      <trkpt lat="47.32572" lon="-2.43239">
        <ele>90</ele>
        <time>2011-04-24T12:38:43Z</time>
      </trkpt>
      <trkpt lat="47.32577" lon="-2.43229">
        <ele>89</ele>
        <time>2011-04-24T12:38:45Z</time>
      </trkpt>
      <trkpt lat="47.32581" lon="-2.43221">
        <ele>89</ele>
        <time>2011-04-24T12:38:46Z</time>
      </trkpt>
      <trkpt lat="47.32589" lon="-2.43219">
        <ele>89</ele>
        <time>2011-04-24T12:38:48Z</time>
      </trkpt>
      <trkpt lat="47.32595" lon="-2.43216">
        <ele>89</ele>
        <time>2011-04-24T12:38:50Z</time>
      </trkpt>
      <trkpt lat="47.326" lon="-2.43213">
        <ele>89</ele>
        <time>2011-04-24T12:38:52Z</time>
      </trkpt>
      <trkpt lat="47.32606" lon="-2.43207">
        <ele>89</ele>
        <time>2011-04-24T12:38:54Z</time>
      </trkpt>
      <trkpt lat="47.32612" lon="-2.43204">
        <ele>89</ele>
        <time>2011-04-24T12:38:56Z</time>
      </trkpt>
      <trkpt lat="47.32617" lon="-2.43202">
        <ele>89</ele>
        <time>2011-04-24T12:38:58Z</time>
      </trkpt>
      <trkpt lat="47.32623" lon="-2.43202">
        <ele>90</ele>
        <time>2011-04-24T12:39:01Z</time>
      </trkpt>
      <trkpt lat="47.32631" lon="-2.432">
        <ele>91</ele>
        <time>2011-04-24T12:39:03Z</time>
      </trkpt>
      <trkpt lat="47.32636" lon="-2.43198">
        <ele>91</ele>
        <time>2011-04-24T12:39:05Z</time>
      </trkpt>
      <trkpt lat="47.32638" lon="-2.43192">
        <ele>93</ele>
        <time>2011-04-24T12:39:08Z</time>
      </trkpt>
      <trkpt lat="47.3264" lon="-2.43185">
        <ele>93</ele>
        <time>2011-04-24T12:39:11Z</time>
      </trkpt>
      <trkpt lat="47.3264" lon="-2.43185">
        <ele>93</ele>
        <time>2011-04-24T12:39:11Z</time>
      </trkpt>
      <trkpt lat="47.3264" lon="-2.43185">
        <ele>94</ele>
        <time>2011-04-24T12:39:12Z</time>
      </trkpt>
      <trkpt lat="47.32637" lon="-2.43179">
        <ele>99</ele>
        <time>2011-04-24T12:39:46Z</time>
      </trkpt>
      <trkpt lat="47.32635" lon="-2.43173">
        <ele>99</ele>
        <time>2011-04-24T12:39:48Z</time>
      </trkpt>
      <trkpt lat="47.32634" lon="-2.43165">
        <ele>99</ele>
        <time>2011-04-24T12:39:50Z</time>
      </trkpt>
      <trkpt lat="47.32635" lon="-2.43158">
        <ele>100</ele>
        <time>2011-04-24T12:39:52Z</time>
      </trkpt>
      <trkpt lat="47.32634" lon="-2.43151">
        <ele>100</ele>
        <time>2011-04-24T12:39:54Z</time>
      </trkpt>
      <trkpt lat="47.32633" lon="-2.43143">
        <ele>101</ele>
        <time>2011-04-24T12:39:56Z</time>
      </trkpt>
      <trkpt lat="47.32628" lon="-2.43139">
        <ele>99</ele>
        <time>2011-04-24T12:39:57Z</time>
      </trkpt>
      <trkpt lat="47.32628" lon="-2.4313">
        <ele>99</ele>
        <time>2011-04-24T12:39:59Z</time>
      </trkpt>
      <trkpt lat="47.32629" lon="-2.43121">
        <ele>100</ele>
        <time>2011-04-24T12:40:01Z</time>
      </trkpt>
      <trkpt lat="47.32627" lon="-2.43113">
        <ele>99</ele>
        <time>2011-04-24T12:40:03Z</time>
      </trkpt>
      <trkpt lat="47.32625" lon="-2.43104">
        <ele>99</ele>
        <time>2011-04-24T12:40:05Z</time>
      </trkpt>
      <trkpt lat="47.32623" lon="-2.43096">
        <ele>98</ele>
        <time>2011-04-24T12:40:07Z</time>
      </trkpt>
      <trkpt lat="47.3262" lon="-2.43086">
        <ele>98</ele>
        <time>2011-04-24T12:40:09Z</time>
      </trkpt>
      <trkpt lat="47.32617" lon="-2.43078">
        <ele>98</ele>
        <time>2011-04-24T12:40:11Z</time>
      </trkpt>
      <trkpt lat="47.32614" lon="-2.43069">
        <ele>97</ele>
        <time>2011-04-24T12:40:13Z</time>
      </trkpt>
      <trkpt lat="47.32614" lon="-2.43061">
        <ele>97</ele>
        <time>2011-04-24T12:40:15Z</time>
      </trkpt>
      <trkpt lat="47.32614" lon="-2.43054">
        <ele>97</ele>
        <time>2011-04-24T12:40:17Z</time>
      </trkpt>
      <trkpt lat="47.32616" lon="-2.43046">
        <ele>96</ele>
        <time>2011-04-24T12:40:21Z</time>
      </trkpt>
      <trkpt lat="47.32622" lon="-2.43048">
        <ele>95</ele>
        <time>2011-04-24T12:40:24Z</time>
      </trkpt>
      <trkpt lat="47.32626" lon="-2.43051">
        <ele>96</ele>
        <time>2011-04-24T12:40:27Z</time>
      </trkpt>
      <trkpt lat="47.32632" lon="-2.43052">
        <ele>96</ele>
        <time>2011-04-24T12:40:30Z</time>
      </trkpt>
      <trkpt lat="47.32637" lon="-2.43052">
        <ele>96</ele>
        <time>2011-04-24T12:40:33Z</time>
      </trkpt>
      <trkpt lat="47.32642" lon="-2.43055">
        <ele>96</ele>
        <time>2011-04-24T12:40:35Z</time>
      </trkpt>
      <trkpt lat="47.32648" lon="-2.43065">
        <ele>95</ele>
        <time>2011-04-24T12:40:37Z</time>
      </trkpt>
      <trkpt lat="47.3265" lon="-2.43056">
        <ele>95</ele>
        <time>2011-04-24T12:40:39Z</time>
      </trkpt>
      <trkpt lat="47.32655" lon="-2.43054">
        <ele>96</ele>
        <time>2011-04-24T12:40:41Z</time>
      </trkpt>
      <trkpt lat="47.3266" lon="-2.43052">
        <ele>96</ele>
        <time>2011-04-24T12:40:43Z</time>
      </trkpt>
      <trkpt lat="47.32665" lon="-2.43051">
        <ele>97</ele>
        <time>2011-04-24T12:40:45Z</time>
      </trkpt>
      <trkpt lat="47.3267" lon="-2.43049">
        <ele>96</ele>
        <time>2011-04-24T12:40:48Z</time>
      </trkpt>
      <trkpt lat="47.3267" lon="-2.43038">
        <ele>97</ele>
        <time>2011-04-24T12:40:51Z</time>
      </trkpt>
      <trkpt lat="47.32666" lon="-2.43041">
        <ele>97</ele>
        <time>2011-04-24T12:40:52Z</time>
      </trkpt>
      <trkpt lat="47.32671" lon="-2.43042">
        <ele>97</ele>
        <time>2011-04-24T12:40:55Z</time>
      </trkpt>
      <trkpt lat="47.32675" lon="-2.4304">
        <ele>97</ele>
        <time>2011-04-24T12:40:57Z</time>
      </trkpt>
      <trkpt lat="47.3268" lon="-2.4304">
        <ele>99</ele>
        <time>2011-04-24T12:41:00Z</time>
      </trkpt>
      <trkpt lat="47.32686" lon="-2.43041">
        <ele>102</ele>
        <time>2011-04-24T12:41:09Z</time>
      </trkpt>
      <trkpt lat="47.32691" lon="-2.4304">
        <ele>104</ele>
        <time>2011-04-24T12:41:13Z</time>
      </trkpt>
      <trkpt lat="47.32696" lon="-2.43039">
        <ele>104</ele>
        <time>2011-04-24T12:41:17Z</time>
      </trkpt>
      <trkpt lat="47.32701" lon="-2.43039">
        <ele>105</ele>
        <time>2011-04-24T12:41:22Z</time>
      </trkpt>
      <trkpt lat="47.32706" lon="-2.4304">
        <ele>105</ele>
        <time>2011-04-24T12:41:26Z</time>
      </trkpt>
      <trkpt lat="47.32711" lon="-2.43042">
        <ele>106</ele>
        <time>2011-04-24T12:41:29Z</time>
      </trkpt>
      <trkpt lat="47.32718" lon="-2.43039">
        <ele>106</ele>
        <time>2011-04-24T12:41:33Z</time>
      </trkpt>
      <trkpt lat="47.32723" lon="-2.43037">
        <ele>106</ele>
        <time>2011-04-24T12:41:36Z</time>
      </trkpt>
      <trkpt lat="47.32729" lon="-2.43044">
        <ele>107</ele>
        <time>2011-04-24T12:41:38Z</time>
      </trkpt>
      <trkpt lat="47.32732" lon="-2.43036">
        <ele>106</ele>
        <time>2011-04-24T12:41:41Z</time>
      </trkpt>
      <trkpt lat="47.32735" lon="-2.4303">
        <ele>108</ele>
        <time>2011-04-24T12:41:43Z</time>
      </trkpt>
      <trkpt lat="47.32738" lon="-2.43018">
        <ele>110</ele>
        <time>2011-04-24T12:41:45Z</time>
      </trkpt>
      <trkpt lat="47.32734" lon="-2.43015">
        <ele>110</ele>
        <time>2011-04-24T12:41:46Z</time>
      </trkpt>
      <trkpt lat="47.32734" lon="-2.43023">
        <ele>108</ele>
        <time>2011-04-24T12:41:49Z</time>
      </trkpt>
      <trkpt lat="47.32734" lon="-2.43031">
        <ele>107</ele>
        <time>2011-04-24T12:41:52Z</time>
      </trkpt>
      <trkpt lat="47.32736" lon="-2.43038">
        <ele>106</ele>
        <time>2011-04-24T12:41:58Z</time>
      </trkpt>
      <trkpt lat="47.32741" lon="-2.43033">
        <ele>106</ele>
        <time>2011-04-24T12:42:15Z</time>
      </trkpt>
      <trkpt lat="47.32744" lon="-2.43027">
        <ele>105</ele>
        <time>2011-04-24T12:42:17Z</time>
      </trkpt>
      <trkpt lat="47.3275" lon="-2.43026">
        <ele>104</ele>
        <time>2011-04-24T12:42:20Z</time>
      </trkpt>
      <trkpt lat="47.32751" lon="-2.43019">
        <ele>102</ele>
        <time>2011-04-24T12:42:28Z</time>
      </trkpt>
      <trkpt lat="47.32743" lon="-2.43015">
        <ele>105</ele>
        <time>2011-04-24T12:42:50Z</time>
      </trkpt>
      <trkpt lat="47.32747" lon="-2.43021">
        <ele>104</ele>
        <time>2011-04-24T12:42:53Z</time>
      </trkpt>
      <trkpt lat="47.32752" lon="-2.43019">
        <ele>102</ele>
        <time>2011-04-24T12:43:00Z</time>
      </trkpt>
      <trkpt lat="47.3275" lon="-2.43013">
        <ele>101</ele>
        <time>2011-04-24T12:43:04Z</time>
      </trkpt>
      <trkpt lat="47.32756" lon="-2.4301">
        <ele>103</ele>
        <time>2011-04-24T12:43:08Z</time>
      </trkpt>
      <trkpt lat="47.32761" lon="-2.43012">
        <ele>104</ele>
        <time>2011-04-24T12:43:12Z</time>
      </trkpt>
      <trkpt lat="47.32764" lon="-2.43018">
        <ele>104</ele>
        <time>2011-04-24T12:43:15Z</time>
      </trkpt>
      <trkpt lat="47.32768" lon="-2.4302">
        <ele>102</ele>
        <time>2011-04-24T12:43:17Z</time>
      </trkpt>
      <trkpt lat="47.32773" lon="-2.43022">
        <ele>105</ele>
        <time>2011-04-24T12:43:21Z</time>
      </trkpt>
      <trkpt lat="47.32778" lon="-2.43024">
        <ele>107</ele>
        <time>2011-04-24T12:43:26Z</time>
      </trkpt>
      <trkpt lat="47.32784" lon="-2.43022">
        <ele>109</ele>
        <time>2011-04-24T12:43:35Z</time>
      </trkpt>
      <trkpt lat="47.32788" lon="-2.43018">
        <ele>113</ele>
        <time>2011-04-24T12:43:39Z</time>
      </trkpt>
      <trkpt lat="47.32792" lon="-2.43014">
        <ele>113</ele>
        <time>2011-04-24T12:43:43Z</time>
      </trkpt>
      <trkpt lat="47.32792" lon="-2.43014">
        <ele>113</ele>
        <time>2011-04-24T12:43:43Z</time>
      </trkpt>
      <trkpt lat="47.32792" lon="-2.43014">
        <ele>112</ele>
        <time>2011-04-24T12:43:50Z</time>
      </trkpt>
      <trkpt lat="47.32797" lon="-2.43011">
        <ele>113</ele>
        <time>2011-04-24T12:44:01Z</time>
      </trkpt>
      <trkpt lat="47.328" lon="-2.43006">
        <ele>114</ele>
        <time>2011-04-24T12:44:06Z</time>
      </trkpt>
      <trkpt lat="47.32803" lon="-2.42999">
        <ele>116</ele>
        <time>2011-04-24T12:44:13Z</time>
      </trkpt>
      <trkpt lat="47.32807" lon="-2.42994">
        <ele>118</ele>
        <time>2011-04-24T12:44:16Z</time>
      </trkpt>
      <trkpt lat="47.32811" lon="-2.4299">
        <ele>120</ele>
        <time>2011-04-24T12:44:20Z</time>
      </trkpt>
      <trkpt lat="47.32812" lon="-2.42982">
        <ele>120</ele>
        <time>2011-04-24T12:44:25Z</time>
      </trkpt>
      <trkpt lat="47.32817" lon="-2.4298">
        <ele>123</ele>
        <time>2011-04-24T12:44:41Z</time>
      </trkpt>
      <trkpt lat="47.32817" lon="-2.4298">
        <ele>123</ele>
        <time>2011-04-24T12:44:41Z</time>
      </trkpt>
      <trkpt lat="47.32817" lon="-2.4298">
        <ele>128</ele>
        <time>2011-04-24T12:44:51Z</time>
      </trkpt>
      <trkpt lat="47.32821" lon="-2.42976">
        <ele>127</ele>
        <time>2011-04-24T12:45:18Z</time>
      </trkpt>
      <trkpt lat="47.32822" lon="-2.42983">
        <ele>126</ele>
        <time>2011-04-24T12:57:53Z</time>
      </trkpt>
      <trkpt lat="47.32822" lon="-2.42983">
        <ele>126</ele>
        <time>2011-04-24T12:57:53Z</time>
      </trkpt>
      <trkpt lat="47.32822" lon="-2.42983">
        <ele>126</ele>
        <time>2011-04-24T12:59:33Z</time>
      </trkpt>
      <trkpt lat="47.32818" lon="-2.42979">
        <ele>126</ele>
        <time>2011-04-24T13:13:40Z</time>
      </trkpt>
      <trkpt lat="47.32818" lon="-2.42979">
        <ele>126</ele>
        <time>2011-04-24T13:13:40Z</time>
      </trkpt>
      <trkpt lat="47.32818" lon="-2.42979">
        <ele>127</ele>
        <time>2011-04-24T13:14:17Z</time>
      </trkpt>
      <trkpt lat="47.32814" lon="-2.42973">
        <ele>124</ele>
        <time>2011-04-24T13:30:33Z</time>
      </trkpt>
      <trkpt lat="47.3281" lon="-2.42968">
        <ele>125</ele>
        <time>2011-04-24T13:30:39Z</time>
      </trkpt>
      <trkpt lat="47.3281" lon="-2.42968">
        <ele>125</ele>
        <time>2011-04-24T13:30:39Z</time>
      </trkpt>
      <trkpt lat="47.3281" lon="-2.42968">
        <ele>125</ele>
        <time>2011-04-24T13:30:40Z</time>
      </trkpt>
      <trkpt lat="47.32806" lon="-2.42965">
        <ele>124</ele>
        <time>2011-04-24T13:30:47Z</time>
      </trkpt>
      <trkpt lat="47.32812" lon="-2.42972">
        <ele>120</ele>
        <time>2011-04-24T13:31:00Z</time>
      </trkpt>
      <trkpt lat="47.32814" lon="-2.4298">
        <ele>116</ele>
        <time>2011-04-24T13:31:06Z</time>
      </trkpt>
      <trkpt lat="47.3281" lon="-2.42984">
        <ele>113</ele>
        <time>2011-04-24T13:31:20Z</time>
      </trkpt>
      <trkpt lat="47.32804" lon="-2.42988">
        <ele>109</ele>
        <time>2011-04-24T13:31:33Z</time>
      </trkpt>
      <trkpt lat="47.32809" lon="-2.42982">
        <ele>110</ele>
        <time>2011-04-24T13:31:41Z</time>
      </trkpt>
      <trkpt lat="47.32808" lon="-2.42974">
        <ele>108</ele>
        <time>2011-04-24T13:31:45Z</time>
      </trkpt>
      <trkpt lat="47.32808" lon="-2.42967">
        <ele>111</ele>
        <time>2011-04-24T13:31:51Z</time>
      </trkpt>
      <trkpt lat="47.32806" lon="-2.4296">
        <ele>109</ele>
        <time>2011-04-24T13:31:58Z</time>
      </trkpt>
      <trkpt lat="47.328" lon="-2.42959">
        <ele>109</ele>
        <time>2011-04-24T13:32:02Z</time>
      </trkpt>
      <trkpt lat="47.32796" lon="-2.42956">
        <ele>109</ele>
        <time>2011-04-24T13:32:06Z</time>
      </trkpt>
      <trkpt lat="47.32796" lon="-2.42948">
        <ele>106</ele>
        <time>2011-04-24T13:32:14Z</time>
      </trkpt>
      <trkpt lat="47.32793" lon="-2.42943">
        <ele>107</ele>
        <time>2011-04-24T13:32:18Z</time>
      </trkpt>
      <trkpt lat="47.32788" lon="-2.42937">
        <ele>105</ele>
        <time>2011-04-24T13:32:24Z</time>
      </trkpt>
      <trkpt lat="47.32786" lon="-2.42931">
        <ele>105</ele>
        <time>2011-04-24T13:32:35Z</time>
      </trkpt>
      <trkpt lat="47.32787" lon="-2.42925">
        <ele>109</ele>
        <time>2011-04-24T13:32:43Z</time>
      </trkpt>
      <trkpt lat="47.32782" lon="-2.42923">
        <ele>108</ele>
        <time>2011-04-24T13:32:46Z</time>
      </trkpt>
      <trkpt lat="47.32781" lon="-2.42916">
        <ele>108</ele>
        <time>2011-04-24T13:32:52Z</time>
      </trkpt>
      <trkpt lat="47.32778" lon="-2.42909">
        <ele>107</ele>
        <time>2011-04-24T13:32:58Z</time>
      </trkpt>
      <trkpt lat="47.32776" lon="-2.42902">
        <ele>107</ele>
        <time>2011-04-24T13:33:06Z</time>
      </trkpt>
      <trkpt lat="47.32773" lon="-2.42896">
        <ele>106</ele>
        <time>2011-04-24T13:33:13Z</time>
      </trkpt>
      <trkpt lat="47.3277" lon="-2.42892">
        <ele>105</ele>
        <time>2011-04-24T13:33:19Z</time>
      </trkpt>
      <trkpt lat="47.32771" lon="-2.42885">
        <ele>104</ele>
        <time>2011-04-24T13:33:23Z</time>
      </trkpt>
      <trkpt lat="47.32772" lon="-2.42878">
        <ele>103</ele>
        <time>2011-04-24T13:33:27Z</time>
      </trkpt>
      <trkpt lat="47.32768" lon="-2.42873">
        <ele>103</ele>
        <time>2011-04-24T13:33:30Z</time>
      </trkpt>
      <trkpt lat="47.32764" lon="-2.42869">
        <ele>103</ele>
        <time>2011-04-24T13:33:35Z</time>
      </trkpt>
      <trkpt lat="47.32762" lon="-2.42862">
        <ele>100</ele>
        <time>2011-04-24T13:33:44Z</time>
      </trkpt>
      <trkpt lat="47.3276" lon="-2.42855">
        <ele>100</ele>
        <time>2011-04-24T13:33:56Z</time>
      </trkpt>
      <trkpt lat="47.32759" lon="-2.42847">
        <ele>102</ele>
        <time>2011-04-24T13:34:04Z</time>
      </trkpt>
      <trkpt lat="47.32758" lon="-2.4284">
        <ele>102</ele>
        <time>2011-04-24T13:34:17Z</time>
      </trkpt>
      <trkpt lat="47.32754" lon="-2.42833">
        <ele>100</ele>
        <time>2011-04-24T13:34:36Z</time>
      </trkpt>
      <trkpt lat="47.3275" lon="-2.4283">
        <ele>100</ele>
        <time>2011-04-24T13:34:42Z</time>
      </trkpt>
      <trkpt lat="47.32745" lon="-2.42832">
        <ele>100</ele>
        <time>2011-04-24T13:34:46Z</time>
      </trkpt>
      <trkpt lat="47.32748" lon="-2.42824">
        <ele>98</ele>
        <time>2011-04-24T13:34:52Z</time>
      </trkpt>
      <trkpt lat="47.32752" lon="-2.42818">
        <ele>101</ele>
        <time>2011-04-24T13:34:58Z</time>
      </trkpt>
      <trkpt lat="47.32752" lon="-2.42811">
        <ele>100</ele>
        <time>2011-04-24T13:35:00Z</time>
      </trkpt>
      <trkpt lat="47.32749" lon="-2.42804">
        <ele>100</ele>
        <time>2011-04-24T13:35:05Z</time>
      </trkpt>
      <trkpt lat="47.32748" lon="-2.42797">
        <ele>98</ele>
        <time>2011-04-24T13:35:09Z</time>
      </trkpt>
      <trkpt lat="47.32748" lon="-2.42797">
        <ele>98</ele>
        <time>2011-04-24T13:35:09Z</time>
      </trkpt>
      <trkpt lat="47.32748" lon="-2.42797">
        <ele>98</ele>
        <time>2011-04-24T13:35:10Z</time>
      </trkpt>
      <trkpt lat="47.32744" lon="-2.42791">
        <ele>100</ele>
        <time>2011-04-24T13:35:17Z</time>
      </trkpt>
      <trkpt lat="47.3274" lon="-2.42783">
        <ele>101</ele>
        <time>2011-04-24T13:35:22Z</time>
      </trkpt>
      <trkpt lat="47.32738" lon="-2.42777">
        <ele>101</ele>
        <time>2011-04-24T13:35:25Z</time>
      </trkpt>
      <trkpt lat="47.32739" lon="-2.4277">
        <ele>102</ele>
        <time>2011-04-24T13:35:31Z</time>
      </trkpt>
      <trkpt lat="47.32736" lon="-2.42765">
        <ele>102</ele>
        <time>2011-04-24T13:35:35Z</time>
      </trkpt>
      <trkpt lat="47.32737" lon="-2.42759">
        <ele>102</ele>
        <time>2011-04-24T13:35:40Z</time>
      </trkpt>
      <trkpt lat="47.32736" lon="-2.42752">
        <ele>102</ele>
        <time>2011-04-24T13:35:44Z</time>
      </trkpt>
      <trkpt lat="47.32734" lon="-2.42742">
        <ele>103</ele>
        <time>2011-04-24T13:35:47Z</time>
      </trkpt>
      <trkpt lat="47.3273" lon="-2.42745">
        <ele>102</ele>
        <time>2011-04-24T13:35:50Z</time>
      </trkpt>
      <trkpt lat="47.32726" lon="-2.42743">
        <ele>104</ele>
        <time>2011-04-24T13:35:54Z</time>
      </trkpt>
      <trkpt lat="47.32726" lon="-2.42743">
        <ele>104</ele>
        <time>2011-04-24T13:35:54Z</time>
      </trkpt>
      <trkpt lat="47.32726" lon="-2.42743">
        <ele>104</ele>
        <time>2011-04-24T13:35:56Z</time>
      </trkpt>
      <trkpt lat="47.32727" lon="-2.42736">
        <ele>105</ele>
        <time>2011-04-24T13:36:00Z</time>
      </trkpt>
      <trkpt lat="47.32732" lon="-2.42739">
        <ele>105</ele>
        <time>2011-04-24T13:36:03Z</time>
      </trkpt>
      <trkpt lat="47.3274" lon="-2.42751">
        <ele>106</ele>
        <time>2011-04-24T13:36:04Z</time>
      </trkpt>
      <trkpt lat="47.32746" lon="-2.42767">
        <ele>106</ele>
        <time>2011-04-24T13:36:05Z</time>
      </trkpt>
      <trkpt lat="47.32736" lon="-2.42782">
        <ele>107</ele>
        <time>2011-04-24T13:36:06Z</time>
      </trkpt>
      <trkpt lat="47.32737" lon="-2.42771">
        <ele>106</ele>
        <time>2011-04-24T13:36:07Z</time>
      </trkpt>
      <trkpt lat="47.32735" lon="-2.42764">
        <ele>103</ele>
        <time>2011-04-24T13:36:10Z</time>
      </trkpt>
      <trkpt lat="47.32735" lon="-2.42755">
        <ele>101</ele>
        <time>2011-04-24T13:36:11Z</time>
      </trkpt>
      <trkpt lat="47.32736" lon="-2.42745">
        <ele>98</ele>
        <time>2011-04-24T13:36:12Z</time>
      </trkpt>
      <trkpt lat="47.32734" lon="-2.42733">
        <ele>101</ele>
        <time>2011-04-24T13:36:13Z</time>
      </trkpt>
      <trkpt lat="47.32733" lon="-2.42723">
        <ele>101</ele>
        <time>2011-04-24T13:36:14Z</time>
      </trkpt>
      <trkpt lat="47.32732" lon="-2.42715">
        <ele>103</ele>
        <time>2011-04-24T13:36:15Z</time>
      </trkpt>
      <trkpt lat="47.32732" lon="-2.42707">
        <ele>105</ele>
        <time>2011-04-24T13:36:17Z</time>
      </trkpt>
      <trkpt lat="47.32732" lon="-2.427">
        <ele>108</ele>
        <time>2011-04-24T13:36:20Z</time>
      </trkpt>
      <trkpt lat="47.32738" lon="-2.42701">
        <ele>109</ele>
        <time>2011-04-24T13:36:27Z</time>
      </trkpt>
      <trkpt lat="47.32743" lon="-2.42702">
        <ele>108</ele>
        <time>2011-04-24T13:36:30Z</time>
      </trkpt>
      <trkpt lat="47.32748" lon="-2.42702">
        <ele>109</ele>
        <time>2011-04-24T13:36:34Z</time>
      </trkpt>
      <trkpt lat="47.32753" lon="-2.42704">
        <ele>109</ele>
        <time>2011-04-24T13:36:39Z</time>
      </trkpt>
      <trkpt lat="47.32756" lon="-2.42709">
        <ele>105</ele>
        <time>2011-04-24T13:36:54Z</time>
      </trkpt>
      <trkpt lat="47.32762" lon="-2.42708">
        <ele>105</ele>
        <time>2011-04-24T13:36:58Z</time>
      </trkpt>
      <trkpt lat="47.32766" lon="-2.42706">
        <ele>106</ele>
        <time>2011-04-24T13:37:01Z</time>
      </trkpt>
      <trkpt lat="47.32772" lon="-2.42706">
        <ele>104</ele>
        <time>2011-04-24T13:37:05Z</time>
      </trkpt>
      <trkpt lat="47.32777" lon="-2.42703">
        <ele>104</ele>
        <time>2011-04-24T13:37:09Z</time>
      </trkpt>
      <trkpt lat="47.32785" lon="-2.42697">
        <ele>104</ele>
        <time>2011-04-24T13:37:16Z</time>
      </trkpt>
      <trkpt lat="47.32788" lon="-2.42691">
        <ele>103</ele>
        <time>2011-04-24T13:37:21Z</time>
      </trkpt>
      <trkpt lat="47.32782" lon="-2.42685">
        <ele>108</ele>
        <time>2011-04-24T13:42:11Z</time>
      </trkpt>
      <trkpt lat="47.32782" lon="-2.42685">
        <ele>108</ele>
        <time>2011-04-24T13:42:11Z</time>
      </trkpt>
      <trkpt lat="47.32782" lon="-2.42685">
        <ele>108</ele>
        <time>2011-04-24T13:42:12Z</time>
      </trkpt>
      <trkpt lat="47.32786" lon="-2.42689">
        <ele>100</ele>
        <time>2011-04-24T13:42:16Z</time>
      </trkpt>
      <trkpt lat="47.32786" lon="-2.4268">
        <ele>105</ele>
        <time>2011-04-24T13:42:41Z</time>
      </trkpt>
      <trkpt lat="47.32787" lon="-2.42673">
        <ele>104</ele>
        <time>2011-04-24T13:42:44Z</time>
      </trkpt>
      <trkpt lat="47.32787" lon="-2.42665">
        <ele>104</ele>
        <time>2011-04-24T13:42:46Z</time>
      </trkpt>
      <trkpt lat="47.32786" lon="-2.42655">
        <ele>104</ele>
        <time>2011-04-24T13:42:48Z</time>
      </trkpt>
      <trkpt lat="47.32786" lon="-2.42646">
        <ele>103</ele>
        <time>2011-04-24T13:42:50Z</time>
      </trkpt>
      <trkpt lat="47.32788" lon="-2.4264">
        <ele>103</ele>
        <time>2011-04-24T13:42:53Z</time>
      </trkpt>
      <trkpt lat="47.32792" lon="-2.42633">
        <ele>101</ele>
        <time>2011-04-24T13:43:09Z</time>
      </trkpt>
      <trkpt lat="47.32798" lon="-2.42629">
        <ele>100</ele>
        <time>2011-04-24T13:43:11Z</time>
      </trkpt>
      <trkpt lat="47.32802" lon="-2.42628">
        <ele>102</ele>
        <time>2011-04-24T13:43:13Z</time>
      </trkpt>
      <trkpt lat="47.3281" lon="-2.42628">
        <ele>102</ele>
        <time>2011-04-24T13:43:16Z</time>
      </trkpt>
      <trkpt lat="47.32816" lon="-2.42627">
        <ele>104</ele>
        <time>2011-04-24T13:43:18Z</time>
      </trkpt>
      <trkpt lat="47.32822" lon="-2.42628">
        <ele>104</ele>
        <time>2011-04-24T13:43:20Z</time>
      </trkpt>
      <trkpt lat="47.32829" lon="-2.42626">
        <ele>104</ele>
        <time>2011-04-24T13:43:22Z</time>
      </trkpt>
      <trkpt lat="47.32835" lon="-2.42624">
        <ele>105</ele>
        <time>2011-04-24T13:43:24Z</time>
      </trkpt>
      <trkpt lat="47.32841" lon="-2.42622">
        <ele>105</ele>
        <time>2011-04-24T13:43:26Z</time>
      </trkpt>
      <trkpt lat="47.32848" lon="-2.42619">
        <ele>106</ele>
        <time>2011-04-24T13:43:28Z</time>
      </trkpt>
      <trkpt lat="47.32852" lon="-2.42616">
        <ele>105</ele>
        <time>2011-04-24T13:43:30Z</time>
      </trkpt>
      <trkpt lat="47.32854" lon="-2.4261">
        <ele>108</ele>
        <time>2011-04-24T13:43:40Z</time>
      </trkpt>
      <trkpt lat="47.32854" lon="-2.4261">
        <ele>108</ele>
        <time>2011-04-24T13:43:40Z</time>
      </trkpt>
      <trkpt lat="47.32854" lon="-2.4261">
        <ele>108</ele>
        <time>2011-04-24T13:43:41Z</time>
      </trkpt>
      <trkpt lat="47.32858" lon="-2.42607">
        <ele>109</ele>
        <time>2011-04-24T13:43:47Z</time>
      </trkpt>
      <trkpt lat="47.32862" lon="-2.42605">
        <ele>109</ele>
        <time>2011-04-24T13:43:50Z</time>
      </trkpt>
      <trkpt lat="47.32867" lon="-2.42606">
        <ele>109</ele>
        <time>2011-04-24T13:43:53Z</time>
      </trkpt>
      <trkpt lat="47.3287" lon="-2.42613">
        <ele>105</ele>
        <time>2011-04-24T13:44:16Z</time>
      </trkpt>
      <trkpt lat="47.3287" lon="-2.42613">
        <ele>105</ele>
        <time>2011-04-24T13:44:16Z</time>
      </trkpt>
      <trkpt lat="47.3287" lon="-2.42613">
        <ele>105</ele>
        <time>2011-04-24T13:44:17Z</time>
      </trkpt>
      <trkpt lat="47.32871" lon="-2.42605">
        <ele>99</ele>
        <time>2011-04-24T13:44:52Z</time>
      </trkpt>
      <trkpt lat="47.32874" lon="-2.426">
        <ele>99</ele>
        <time>2011-04-24T13:44:55Z</time>
      </trkpt>
      <trkpt lat="47.32878" lon="-2.42594">
        <ele>99</ele>
        <time>2011-04-24T13:44:58Z</time>
      </trkpt>
      <trkpt lat="47.32882" lon="-2.42589">
        <ele>100</ele>
        <time>2011-04-24T13:45:00Z</time>
      </trkpt>
      <trkpt lat="47.32886" lon="-2.42584">
        <ele>100</ele>
        <time>2011-04-24T13:45:02Z</time>
      </trkpt>
      <trkpt lat="47.32889" lon="-2.42579">
        <ele>101</ele>
        <time>2011-04-24T13:45:04Z</time>
      </trkpt>
      <trkpt lat="47.32893" lon="-2.42572">
        <ele>101</ele>
        <time>2011-04-24T13:45:06Z</time>
      </trkpt>
      <trkpt lat="47.32894" lon="-2.42564">
        <ele>101</ele>
        <time>2011-04-24T13:45:09Z</time>
      </trkpt>
      <trkpt lat="47.32891" lon="-2.42558">
        <ele>101</ele>
        <time>2011-04-24T13:45:14Z</time>
      </trkpt>
      <trkpt lat="47.32893" lon="-2.4255">
        <ele>101</ele>
        <time>2011-04-24T13:45:24Z</time>
      </trkpt>
      <trkpt lat="47.32892" lon="-2.42542">
        <ele>100</ele>
        <time>2011-04-24T13:45:27Z</time>
      </trkpt>
      <trkpt lat="47.32891" lon="-2.42535">
        <ele>100</ele>
        <time>2011-04-24T13:45:30Z</time>
      </trkpt>
      <trkpt lat="47.3289" lon="-2.42527">
        <ele>100</ele>
        <time>2011-04-24T13:45:32Z</time>
      </trkpt>
      <trkpt lat="47.3289" lon="-2.4252">
        <ele>99</ele>
        <time>2011-04-24T13:45:34Z</time>
      </trkpt>
      <trkpt lat="47.32889" lon="-2.42512">
        <ele>98</ele>
        <time>2011-04-24T13:45:36Z</time>
      </trkpt>
      <trkpt lat="47.32888" lon="-2.42503">
        <ele>97</ele>
        <time>2011-04-24T13:45:38Z</time>
      </trkpt>
      <trkpt lat="47.32886" lon="-2.42494">
        <ele>97</ele>
        <time>2011-04-24T13:45:40Z</time>
      </trkpt>
      <trkpt lat="47.32885" lon="-2.42484">
        <ele>98</ele>
        <time>2011-04-24T13:45:42Z</time>
      </trkpt>
      <trkpt lat="47.32884" lon="-2.42474">
        <ele>97</ele>
        <time>2011-04-24T13:45:44Z</time>
      </trkpt>
      <trkpt lat="47.32883" lon="-2.42463">
        <ele>98</ele>
        <time>2011-04-24T13:45:46Z</time>
      </trkpt>
      <trkpt lat="47.32882" lon="-2.42454">
        <ele>97</ele>
        <time>2011-04-24T13:45:48Z</time>
      </trkpt>
      <trkpt lat="47.32881" lon="-2.42445">
        <ele>96</ele>
        <time>2011-04-24T13:45:50Z</time>
      </trkpt>
      <trkpt lat="47.3288" lon="-2.42436">
        <ele>96</ele>
        <time>2011-04-24T13:45:52Z</time>
      </trkpt>
      <trkpt lat="47.32879" lon="-2.42426">
        <ele>95</ele>
        <time>2011-04-24T13:45:54Z</time>
      </trkpt>
      <trkpt lat="47.32877" lon="-2.42415">
        <ele>95</ele>
        <time>2011-04-24T13:45:56Z</time>
      </trkpt>
      <trkpt lat="47.32876" lon="-2.42405">
        <ele>96</ele>
        <time>2011-04-24T13:45:58Z</time>
      </trkpt>
      <trkpt lat="47.32875" lon="-2.42394">
        <ele>96</ele>
        <time>2011-04-24T13:46:00Z</time>
      </trkpt>
      <trkpt lat="47.32874" lon="-2.42383">
        <ele>95</ele>
        <time>2011-04-24T13:46:02Z</time>
      </trkpt>
      <trkpt lat="47.32876" lon="-2.42373">
        <ele>96</ele>
        <time>2011-04-24T13:46:04Z</time>
      </trkpt>
      <trkpt lat="47.32877" lon="-2.42361">
        <ele>96</ele>
        <time>2011-04-24T13:46:06Z</time>
      </trkpt>
      <trkpt lat="47.32877" lon="-2.42349">
        <ele>97</ele>
        <time>2011-04-24T13:46:08Z</time>
      </trkpt>
      <trkpt lat="47.32878" lon="-2.42337">
        <ele>96</ele>
        <time>2011-04-24T13:46:10Z</time>
      </trkpt>
      <trkpt lat="47.32879" lon="-2.4233">
        <ele>96</ele>
        <time>2011-04-24T13:46:11Z</time>
      </trkpt>
      <trkpt lat="47.3288" lon="-2.42317">
        <ele>96</ele>
        <time>2011-04-24T13:46:13Z</time>
      </trkpt>
      <trkpt lat="47.32882" lon="-2.42304">
        <ele>95</ele>
        <time>2011-04-24T13:46:15Z</time>
      </trkpt>
      <trkpt lat="47.32882" lon="-2.42297">
        <ele>95</ele>
        <time>2011-04-24T13:46:16Z</time>
      </trkpt>
      <trkpt lat="47.32882" lon="-2.4229">
        <ele>95</ele>
        <time>2011-04-24T13:46:17Z</time>
      </trkpt>
      <trkpt lat="47.32883" lon="-2.42283">
        <ele>94</ele>
        <time>2011-04-24T13:46:18Z</time>
      </trkpt>
      <trkpt lat="47.32883" lon="-2.42276">
        <ele>94</ele>
        <time>2011-04-24T13:46:19Z</time>
      </trkpt>
      <trkpt lat="47.32884" lon="-2.42269">
        <ele>94</ele>
        <time>2011-04-24T13:46:20Z</time>
      </trkpt>
      <trkpt lat="47.32884" lon="-2.42262">
        <ele>94</ele>
        <time>2011-04-24T13:46:21Z</time>
      </trkpt>
      <trkpt lat="47.32884" lon="-2.42255">
        <ele>94</ele>
        <time>2011-04-24T13:46:22Z</time>
      </trkpt>
      <trkpt lat="47.32884" lon="-2.42248">
        <ele>94</ele>
        <time>2011-04-24T13:46:23Z</time>
      </trkpt>
      <trkpt lat="47.32885" lon="-2.42241">
        <ele>94</ele>
        <time>2011-04-24T13:46:24Z</time>
      </trkpt>
      <trkpt lat="47.32886" lon="-2.42234">
        <ele>94</ele>
        <time>2011-04-24T13:46:25Z</time>
      </trkpt>
      <trkpt lat="47.32887" lon="-2.42226">
        <ele>94</ele>
        <time>2011-04-24T13:46:26Z</time>
      </trkpt>
      <trkpt lat="47.32888" lon="-2.42219">
        <ele>94</ele>
        <time>2011-04-24T13:46:27Z</time>
      </trkpt>
      <trkpt lat="47.32889" lon="-2.42212">
        <ele>93</ele>
        <time>2011-04-24T13:46:28Z</time>
      </trkpt>
      <trkpt lat="47.3289" lon="-2.42205">
        <ele>94</ele>
        <time>2011-04-24T13:46:29Z</time>
      </trkpt>
      <trkpt lat="47.3289" lon="-2.42198">
        <ele>94</ele>
        <time>2011-04-24T13:46:30Z</time>
      </trkpt>
      <trkpt lat="47.3289" lon="-2.42186">
        <ele>94</ele>
        <time>2011-04-24T13:46:32Z</time>
      </trkpt>
      <trkpt lat="47.32889" lon="-2.42177">
        <ele>94</ele>
        <time>2011-04-24T13:46:34Z</time>
      </trkpt>
      <trkpt lat="47.32885" lon="-2.42169">
        <ele>94</ele>
        <time>2011-04-24T13:46:36Z</time>
      </trkpt>
      <trkpt lat="47.32881" lon="-2.42161">
        <ele>95</ele>
        <time>2011-04-24T13:46:38Z</time>
      </trkpt>
      <trkpt lat="47.32877" lon="-2.42154">
        <ele>95</ele>
        <time>2011-04-24T13:46:40Z</time>
      </trkpt>
      <trkpt lat="47.32875" lon="-2.42144">
        <ele>95</ele>
        <time>2011-04-24T13:46:42Z</time>
      </trkpt>
      <trkpt lat="47.32872" lon="-2.42136">
        <ele>95</ele>
        <time>2011-04-24T13:46:44Z</time>
      </trkpt>
      <trkpt lat="47.32868" lon="-2.42128">
        <ele>95</ele>
        <time>2011-04-24T13:46:46Z</time>
      </trkpt>
      <trkpt lat="47.32865" lon="-2.4212">
        <ele>95</ele>
        <time>2011-04-24T13:46:48Z</time>
      </trkpt>
      <trkpt lat="47.32863" lon="-2.42111">
        <ele>95</ele>
        <time>2011-04-24T13:46:50Z</time>
      </trkpt>
      <trkpt lat="47.3286" lon="-2.42102">
        <ele>95</ele>
        <time>2011-04-24T13:46:52Z</time>
      </trkpt>
      <trkpt lat="47.32855" lon="-2.42094">
        <ele>95</ele>
        <time>2011-04-24T13:46:54Z</time>
      </trkpt>
      <trkpt lat="47.32851" lon="-2.42085">
        <ele>97</ele>
        <time>2011-04-24T13:46:56Z</time>
      </trkpt>
      <trkpt lat="47.32847" lon="-2.42077">
        <ele>98</ele>
        <time>2011-04-24T13:46:58Z</time>
      </trkpt>
      <trkpt lat="47.32845" lon="-2.4207">
        <ele>97</ele>
        <time>2011-04-24T13:46:59Z</time>
      </trkpt>
      <trkpt lat="47.32841" lon="-2.42061">
        <ele>96</ele>
        <time>2011-04-24T13:47:01Z</time>
      </trkpt>
      <trkpt lat="47.32837" lon="-2.42052">
        <ele>96</ele>
        <time>2011-04-24T13:47:03Z</time>
      </trkpt>
      <trkpt lat="47.32833" lon="-2.42041">
        <ele>96</ele>
        <time>2011-04-24T13:47:05Z</time>
      </trkpt>
      <trkpt lat="47.32831" lon="-2.42033">
        <ele>98</ele>
        <time>2011-04-24T13:47:07Z</time>
      </trkpt>
      <trkpt lat="47.32828" lon="-2.42024">
        <ele>98</ele>
        <time>2011-04-24T13:47:09Z</time>
      </trkpt>
      <trkpt lat="47.32826" lon="-2.42015">
        <ele>98</ele>
        <time>2011-04-24T13:47:11Z</time>
      </trkpt>
      <trkpt lat="47.32821" lon="-2.42009">
        <ele>98</ele>
        <time>2011-04-24T13:47:13Z</time>
      </trkpt>
      <trkpt lat="47.32816" lon="-2.42003">
        <ele>97</ele>
        <time>2011-04-24T13:47:15Z</time>
      </trkpt>
      <trkpt lat="47.32811" lon="-2.41999">
        <ele>98</ele>
        <time>2011-04-24T13:47:17Z</time>
      </trkpt>
      <trkpt lat="47.32808" lon="-2.41994">
        <ele>99</ele>
        <time>2011-04-24T13:47:19Z</time>
      </trkpt>
      <trkpt lat="47.32803" lon="-2.4199">
        <ele>97</ele>
        <time>2011-04-24T13:47:21Z</time>
      </trkpt>
      <trkpt lat="47.32801" lon="-2.41982">
        <ele>94</ele>
        <time>2011-04-24T13:47:27Z</time>
      </trkpt>
      <trkpt lat="47.32801" lon="-2.4197">
        <ele>94</ele>
        <time>2011-04-24T13:47:30Z</time>
      </trkpt>
      <trkpt lat="47.328" lon="-2.41961">
        <ele>94</ele>
        <time>2011-04-24T13:47:32Z</time>
      </trkpt>
      <trkpt lat="47.32796" lon="-2.41952">
        <ele>93</ele>
        <time>2011-04-24T13:47:34Z</time>
      </trkpt>
      <trkpt lat="47.32793" lon="-2.41944">
        <ele>93</ele>
        <time>2011-04-24T13:47:36Z</time>
      </trkpt>
      <trkpt lat="47.32789" lon="-2.41935">
        <ele>94</ele>
        <time>2011-04-24T13:47:38Z</time>
      </trkpt>
      <trkpt lat="47.32785" lon="-2.41927">
        <ele>93</ele>
        <time>2011-04-24T13:47:40Z</time>
      </trkpt>
      <trkpt lat="47.32781" lon="-2.41919">
        <ele>93</ele>
        <time>2011-04-24T13:47:42Z</time>
      </trkpt>
      <trkpt lat="47.32778" lon="-2.4191">
        <ele>94</ele>
        <time>2011-04-24T13:47:44Z</time>
      </trkpt>
      <trkpt lat="47.32774" lon="-2.41902">
        <ele>95</ele>
        <time>2011-04-24T13:47:46Z</time>
      </trkpt>
      <trkpt lat="47.32771" lon="-2.41894">
        <ele>95</ele>
        <time>2011-04-24T13:47:48Z</time>
      </trkpt>
      <trkpt lat="47.32767" lon="-2.41886">
        <ele>96</ele>
        <time>2011-04-24T13:47:50Z</time>
      </trkpt>
      <trkpt lat="47.32764" lon="-2.41877">
        <ele>97</ele>
        <time>2011-04-24T13:47:52Z</time>
      </trkpt>
      <trkpt lat="47.3276" lon="-2.41868">
        <ele>97</ele>
        <time>2011-04-24T13:47:54Z</time>
      </trkpt>
      <trkpt lat="47.32757" lon="-2.41859">
        <ele>97</ele>
        <time>2011-04-24T13:47:56Z</time>
      </trkpt>
      <trkpt lat="47.32754" lon="-2.41849">
        <ele>97</ele>
        <time>2011-04-24T13:47:58Z</time>
      </trkpt>
      <trkpt lat="47.3275" lon="-2.41841">
        <ele>98</ele>
        <time>2011-04-24T13:48:00Z</time>
      </trkpt>
      <trkpt lat="47.32745" lon="-2.41831">
        <ele>97</ele>
        <time>2011-04-24T13:48:02Z</time>
      </trkpt>
      <trkpt lat="47.32741" lon="-2.41822">
        <ele>96</ele>
        <time>2011-04-24T13:48:04Z</time>
      </trkpt>
      <trkpt lat="47.32736" lon="-2.41812">
        <ele>96</ele>
        <time>2011-04-24T13:48:06Z</time>
      </trkpt>
      <trkpt lat="47.32731" lon="-2.41804">
        <ele>97</ele>
        <time>2011-04-24T13:48:08Z</time>
      </trkpt>
      <trkpt lat="47.32727" lon="-2.41796">
        <ele>97</ele>
        <time>2011-04-24T13:48:10Z</time>
      </trkpt>
      <trkpt lat="47.32722" lon="-2.41788">
        <ele>97</ele>
        <time>2011-04-24T13:48:12Z</time>
      </trkpt>
      <trkpt lat="47.32717" lon="-2.4178">
        <ele>97</ele>
        <time>2011-04-24T13:48:14Z</time>
      </trkpt>
      <trkpt lat="47.32711" lon="-2.41773">
        <ele>97</ele>
        <time>2011-04-24T13:48:16Z</time>
      </trkpt>
      <trkpt lat="47.32706" lon="-2.41766">
        <ele>98</ele>
        <time>2011-04-24T13:48:18Z</time>
      </trkpt>
      <trkpt lat="47.32704" lon="-2.41757">
        <ele>99</ele>
        <time>2011-04-24T13:48:20Z</time>
      </trkpt>
      <trkpt lat="47.32704" lon="-2.41747">
        <ele>100</ele>
        <time>2011-04-24T13:48:22Z</time>
      </trkpt>
      <trkpt lat="47.32706" lon="-2.41738">
        <ele>100</ele>
        <time>2011-04-24T13:48:24Z</time>
      </trkpt>
      <trkpt lat="47.32706" lon="-2.41728">
        <ele>100</ele>
        <time>2011-04-24T13:48:26Z</time>
      </trkpt>
      <trkpt lat="47.32706" lon="-2.41717">
        <ele>100</ele>
        <time>2011-04-24T13:48:28Z</time>
      </trkpt>
      <trkpt lat="47.32708" lon="-2.41708">
        <ele>101</ele>
        <time>2011-04-24T13:48:30Z</time>
      </trkpt>
      <trkpt lat="47.32708" lon="-2.41699">
        <ele>102</ele>
        <time>2011-04-24T13:48:32Z</time>
      </trkpt>
      <trkpt lat="47.32709" lon="-2.41689">
        <ele>103</ele>
        <time>2011-04-24T13:48:34Z</time>
      </trkpt>
      <trkpt lat="47.3271" lon="-2.41679">
        <ele>103</ele>
        <time>2011-04-24T13:48:36Z</time>
      </trkpt>
      <trkpt lat="47.3271" lon="-2.4167">
        <ele>103</ele>
        <time>2011-04-24T13:48:38Z</time>
      </trkpt>
      <trkpt lat="47.32711" lon="-2.41659">
        <ele>103</ele>
        <time>2011-04-24T13:48:40Z</time>
      </trkpt>
      <trkpt lat="47.32713" lon="-2.41649">
        <ele>103</ele>
        <time>2011-04-24T13:48:42Z</time>
      </trkpt>
      <trkpt lat="47.32713" lon="-2.41638">
        <ele>103</ele>
        <time>2011-04-24T13:48:44Z</time>
      </trkpt>
      <trkpt lat="47.32712" lon="-2.41628">
        <ele>103</ele>
        <time>2011-04-24T13:48:46Z</time>
      </trkpt>
      <trkpt lat="47.32708" lon="-2.4162">
        <ele>103</ele>
        <time>2011-04-24T13:48:48Z</time>
      </trkpt>
      <trkpt lat="47.32706" lon="-2.41611">
        <ele>103</ele>
        <time>2011-04-24T13:48:50Z</time>
      </trkpt>
      <trkpt lat="47.32704" lon="-2.41602">
        <ele>104</ele>
        <time>2011-04-24T13:48:52Z</time>
      </trkpt>
      <trkpt lat="47.32703" lon="-2.41593">
        <ele>103</ele>
        <time>2011-04-24T13:48:54Z</time>
      </trkpt>
      <trkpt lat="47.32704" lon="-2.41585">
        <ele>103</ele>
        <time>2011-04-24T13:48:56Z</time>
      </trkpt>
      <trkpt lat="47.32701" lon="-2.41578">
        <ele>103</ele>
        <time>2011-04-24T13:49:00Z</time>
      </trkpt>
      <trkpt lat="47.327" lon="-2.41569">
        <ele>102</ele>
        <time>2011-04-24T13:49:04Z</time>
      </trkpt>
      <trkpt lat="47.327" lon="-2.41561">
        <ele>102</ele>
        <time>2011-04-24T13:49:06Z</time>
      </trkpt>
      <trkpt lat="47.32699" lon="-2.41553">
        <ele>103</ele>
        <time>2011-04-24T13:49:08Z</time>
      </trkpt>
      <trkpt lat="47.32697" lon="-2.41545">
        <ele>103</ele>
        <time>2011-04-24T13:49:10Z</time>
      </trkpt>
      <trkpt lat="47.32691" lon="-2.41542">
        <ele>103</ele>
        <time>2011-04-24T13:49:12Z</time>
      </trkpt>
      <trkpt lat="47.32677" lon="-2.4154">
        <ele>103</ele>
        <time>2011-04-24T13:49:16Z</time>
      </trkpt>
      <trkpt lat="47.32671" lon="-2.41538">
        <ele>104</ele>
        <time>2011-04-24T13:49:18Z</time>
      </trkpt>
      <trkpt lat="47.32664" lon="-2.41537">
        <ele>104</ele>
        <time>2011-04-24T13:49:20Z</time>
      </trkpt>
      <trkpt lat="47.32658" lon="-2.41534">
        <ele>104</ele>
        <time>2011-04-24T13:49:22Z</time>
      </trkpt>
      <trkpt lat="47.32652" lon="-2.41532">
        <ele>103</ele>
        <time>2011-04-24T13:49:24Z</time>
      </trkpt>
      <trkpt lat="47.32645" lon="-2.41532">
        <ele>104</ele>
        <time>2011-04-24T13:49:26Z</time>
      </trkpt>
      <trkpt lat="47.32638" lon="-2.41531">
        <ele>104</ele>
        <time>2011-04-24T13:49:28Z</time>
      </trkpt>
      <trkpt lat="47.32631" lon="-2.41529">
        <ele>105</ele>
        <time>2011-04-24T13:49:30Z</time>
      </trkpt>
      <trkpt lat="47.32624" lon="-2.41528">
        <ele>104</ele>
        <time>2011-04-24T13:49:32Z</time>
      </trkpt>
      <trkpt lat="47.32617" lon="-2.41526">
        <ele>105</ele>
        <time>2011-04-24T13:49:34Z</time>
      </trkpt>
      <trkpt lat="47.3261" lon="-2.41524">
        <ele>105</ele>
        <time>2011-04-24T13:49:36Z</time>
      </trkpt>
      <trkpt lat="47.32602" lon="-2.41524">
        <ele>105</ele>
        <time>2011-04-24T13:49:38Z</time>
      </trkpt>
      <trkpt lat="47.32595" lon="-2.41523">
        <ele>105</ele>
        <time>2011-04-24T13:49:40Z</time>
      </trkpt>
      <trkpt lat="47.32588" lon="-2.41522">
        <ele>105</ele>
        <time>2011-04-24T13:49:42Z</time>
      </trkpt>
      <trkpt lat="47.32581" lon="-2.4152">
        <ele>105</ele>
        <time>2011-04-24T13:49:44Z</time>
      </trkpt>
      <trkpt lat="47.32575" lon="-2.41515">
        <ele>105</ele>
        <time>2011-04-24T13:49:46Z</time>
      </trkpt>
      <trkpt lat="47.32574" lon="-2.41506">
        <ele>105</ele>
        <time>2011-04-24T13:49:48Z</time>
      </trkpt>
      <trkpt lat="47.32572" lon="-2.41496">
        <ele>105</ele>
        <time>2011-04-24T13:49:50Z</time>
      </trkpt>
      <trkpt lat="47.3257" lon="-2.41486">
        <ele>105</ele>
        <time>2011-04-24T13:49:52Z</time>
      </trkpt>
      <trkpt lat="47.32569" lon="-2.41476">
        <ele>104</ele>
        <time>2011-04-24T13:49:54Z</time>
      </trkpt>
      <trkpt lat="47.32567" lon="-2.41466">
        <ele>104</ele>
        <time>2011-04-24T13:49:56Z</time>
      </trkpt>
      <trkpt lat="47.32564" lon="-2.41458">
        <ele>104</ele>
        <time>2011-04-24T13:49:58Z</time>
      </trkpt>
      <trkpt lat="47.3256" lon="-2.41451">
        <ele>104</ele>
        <time>2011-04-24T13:50:01Z</time>
      </trkpt>
      <trkpt lat="47.32558" lon="-2.41444">
        <ele>105</ele>
        <time>2011-04-24T13:50:03Z</time>
      </trkpt>
      <trkpt lat="47.32553" lon="-2.41437">
        <ele>105</ele>
        <time>2011-04-24T13:50:05Z</time>
      </trkpt>
      <trkpt lat="47.32549" lon="-2.41428">
        <ele>105</ele>
        <time>2011-04-24T13:50:07Z</time>
      </trkpt>
      <trkpt lat="47.32544" lon="-2.41421">
        <ele>105</ele>
        <time>2011-04-24T13:50:09Z</time>
      </trkpt>
      <trkpt lat="47.32539" lon="-2.41412">
        <ele>104</ele>
        <time>2011-04-24T13:50:11Z</time>
      </trkpt>
      <trkpt lat="47.32535" lon="-2.41403">
        <ele>104</ele>
        <time>2011-04-24T13:50:13Z</time>
      </trkpt>
      <trkpt lat="47.3253" lon="-2.41394">
        <ele>105</ele>
        <time>2011-04-24T13:50:15Z</time>
      </trkpt>
      <trkpt lat="47.32525" lon="-2.41385">
        <ele>105</ele>
        <time>2011-04-24T13:50:17Z</time>
      </trkpt>
      <trkpt lat="47.3252" lon="-2.41376">
        <ele>106</ele>
        <time>2011-04-24T13:50:19Z</time>
      </trkpt>
      <trkpt lat="47.32515" lon="-2.41366">
        <ele>106</ele>
        <time>2011-04-24T13:50:21Z</time>
      </trkpt>
      <trkpt lat="47.32509" lon="-2.41356">
        <ele>107</ele>
        <time>2011-04-24T13:50:23Z</time>
      </trkpt>
      <trkpt lat="47.32504" lon="-2.41346">
        <ele>107</ele>
        <time>2011-04-24T13:50:25Z</time>
      </trkpt>
      <trkpt lat="47.32499" lon="-2.41336">
        <ele>107</ele>
        <time>2011-04-24T13:50:27Z</time>
      </trkpt>
      <trkpt lat="47.32494" lon="-2.41326">
        <ele>107</ele>
        <time>2011-04-24T13:50:29Z</time>
      </trkpt>
      <trkpt lat="47.3249" lon="-2.41317">
        <ele>107</ele>
        <time>2011-04-24T13:50:31Z</time>
      </trkpt>
      <trkpt lat="47.32486" lon="-2.41312">
        <ele>107</ele>
        <time>2011-04-24T13:50:32Z</time>
      </trkpt>
      <trkpt lat="47.32481" lon="-2.41302">
        <ele>107</ele>
        <time>2011-04-24T13:50:34Z</time>
      </trkpt>
      <trkpt lat="47.32475" lon="-2.41292">
        <ele>107</ele>
        <time>2011-04-24T13:50:36Z</time>
      </trkpt>
      <trkpt lat="47.3247" lon="-2.41282">
        <ele>107</ele>
        <time>2011-04-24T13:50:38Z</time>
      </trkpt>
      <trkpt lat="47.32464" lon="-2.41273">
        <ele>107</ele>
        <time>2011-04-24T13:50:40Z</time>
      </trkpt>
      <trkpt lat="47.3246" lon="-2.41263">
        <ele>107</ele>
        <time>2011-04-24T13:50:42Z</time>
      </trkpt>
      <trkpt lat="47.32455" lon="-2.41252">
        <ele>107</ele>
        <time>2011-04-24T13:50:44Z</time>
      </trkpt>
      <trkpt lat="47.32449" lon="-2.41242">
        <ele>106</ele>
        <time>2011-04-24T13:50:46Z</time>
      </trkpt>
      <trkpt lat="47.32444" lon="-2.41231">
        <ele>106</ele>
        <time>2011-04-24T13:50:48Z</time>
      </trkpt>
      <trkpt lat="47.32441" lon="-2.41226">
        <ele>107</ele>
        <time>2011-04-24T13:50:49Z</time>
      </trkpt>
      <trkpt lat="47.32437" lon="-2.41216">
        <ele>106</ele>
        <time>2011-04-24T13:50:51Z</time>
      </trkpt>
      <trkpt lat="47.32433" lon="-2.41207">
        <ele>105</ele>
        <time>2011-04-24T13:50:53Z</time>
      </trkpt>
      <trkpt lat="47.32428" lon="-2.41198">
        <ele>106</ele>
        <time>2011-04-24T13:50:55Z</time>
      </trkpt>
      <trkpt lat="47.32422" lon="-2.41189">
        <ele>106</ele>
        <time>2011-04-24T13:50:57Z</time>
      </trkpt>
      <trkpt lat="47.32417" lon="-2.41178">
        <ele>106</ele>
        <time>2011-04-24T13:50:59Z</time>
      </trkpt>
      <trkpt lat="47.32411" lon="-2.41168">
        <ele>105</ele>
        <time>2011-04-24T13:51:01Z</time>
      </trkpt>
      <trkpt lat="47.32408" lon="-2.41163">
        <ele>106</ele>
        <time>2011-04-24T13:51:02Z</time>
      </trkpt>
      <trkpt lat="47.32404" lon="-2.41154">
        <ele>106</ele>
        <time>2011-04-24T13:51:04Z</time>
      </trkpt>
      <trkpt lat="47.32399" lon="-2.41145">
        <ele>106</ele>
        <time>2011-04-24T13:51:06Z</time>
      </trkpt>
      <trkpt lat="47.32396" lon="-2.41141">
        <ele>105</ele>
        <time>2011-04-24T13:51:07Z</time>
      </trkpt>
      <trkpt lat="47.32391" lon="-2.41132">
        <ele>105</ele>
        <time>2011-04-24T13:51:09Z</time>
      </trkpt>
      <trkpt lat="47.32386" lon="-2.41122">
        <ele>105</ele>
        <time>2011-04-24T13:51:11Z</time>
      </trkpt>
      <trkpt lat="47.32383" lon="-2.41117">
        <ele>105</ele>
        <time>2011-04-24T13:51:12Z</time>
      </trkpt>
      <trkpt lat="47.32378" lon="-2.41106">
        <ele>105</ele>
        <time>2011-04-24T13:51:14Z</time>
      </trkpt>
      <trkpt lat="47.32376" lon="-2.411">
        <ele>105</ele>
        <time>2011-04-24T13:51:15Z</time>
      </trkpt>
      <trkpt lat="47.32369" lon="-2.41092">
        <ele>106</ele>
        <time>2011-04-24T13:51:17Z</time>
      </trkpt>
      <trkpt lat="47.32364" lon="-2.41082">
        <ele>106</ele>
        <time>2011-04-24T13:51:19Z</time>
      </trkpt>
      <trkpt lat="47.32359" lon="-2.41072">
        <ele>106</ele>
        <time>2011-04-24T13:51:21Z</time>
      </trkpt>
      <trkpt lat="47.32354" lon="-2.41061">
        <ele>105</ele>
        <time>2011-04-24T13:51:23Z</time>
      </trkpt>
      <trkpt lat="47.32352" lon="-2.41055">
        <ele>103</ele>
        <time>2011-04-24T13:51:24Z</time>
      </trkpt>
      <trkpt lat="47.32348" lon="-2.4105">
        <ele>103</ele>
        <time>2011-04-24T13:51:25Z</time>
      </trkpt>
      <trkpt lat="47.32346" lon="-2.41045">
        <ele>103</ele>
        <time>2011-04-24T13:51:26Z</time>
      </trkpt>
      <trkpt lat="47.3234" lon="-2.41034">
        <ele>104</ele>
        <time>2011-04-24T13:51:28Z</time>
      </trkpt>
      <trkpt lat="47.32335" lon="-2.41024">
        <ele>105</ele>
        <time>2011-04-24T13:51:30Z</time>
      </trkpt>
      <trkpt lat="47.3233" lon="-2.41012">
        <ele>105</ele>
        <time>2011-04-24T13:51:32Z</time>
      </trkpt>
      <trkpt lat="47.32326" lon="-2.41007">
        <ele>105</ele>
        <time>2011-04-24T13:51:33Z</time>
      </trkpt>
      <trkpt lat="47.32323" lon="-2.41002">
        <ele>104</ele>
        <time>2011-04-24T13:51:34Z</time>
      </trkpt>
      <trkpt lat="47.3232" lon="-2.40996">
        <ele>105</ele>
        <time>2011-04-24T13:51:35Z</time>
      </trkpt>
      <trkpt lat="47.32317" lon="-2.4099">
        <ele>105</ele>
        <time>2011-04-24T13:51:36Z</time>
      </trkpt>
      <trkpt lat="47.32314" lon="-2.40984">
        <ele>105</ele>
        <time>2011-04-24T13:51:37Z</time>
      </trkpt>
      <trkpt lat="47.3231" lon="-2.40978">
        <ele>105</ele>
        <time>2011-04-24T13:51:38Z</time>
      </trkpt>
      <trkpt lat="47.32307" lon="-2.40972">
        <ele>105</ele>
        <time>2011-04-24T13:51:39Z</time>
      </trkpt>
      <trkpt lat="47.32304" lon="-2.40965">
        <ele>105</ele>
        <time>2011-04-24T13:51:40Z</time>
      </trkpt>
      <trkpt lat="47.32301" lon="-2.40959">
        <ele>105</ele>
        <time>2011-04-24T13:51:41Z</time>
      </trkpt>
      <trkpt lat="47.32298" lon="-2.40952">
        <ele>105</ele>
        <time>2011-04-24T13:51:42Z</time>
      </trkpt>
      <trkpt lat="47.32294" lon="-2.40946">
        <ele>105</ele>
        <time>2011-04-24T13:51:43Z</time>
      </trkpt>
      <trkpt lat="47.32291" lon="-2.4094">
        <ele>105</ele>
        <time>2011-04-24T13:51:44Z</time>
      </trkpt>
      <trkpt lat="47.32287" lon="-2.40934">
        <ele>105</ele>
        <time>2011-04-24T13:51:45Z</time>
      </trkpt>
      <trkpt lat="47.32284" lon="-2.40928">
        <ele>105</ele>
        <time>2011-04-24T13:51:46Z</time>
      </trkpt>
      <trkpt lat="47.32281" lon="-2.40922">
        <ele>105</ele>
        <time>2011-04-24T13:51:47Z</time>
      </trkpt>
      <trkpt lat="47.32278" lon="-2.40915">
        <ele>105</ele>
        <time>2011-04-24T13:51:48Z</time>
      </trkpt>
      <trkpt lat="47.32275" lon="-2.4091">
        <ele>105</ele>
        <time>2011-04-24T13:51:49Z</time>
      </trkpt>
      <trkpt lat="47.32271" lon="-2.40903">
        <ele>105</ele>
        <time>2011-04-24T13:51:50Z</time>
      </trkpt>
      <trkpt lat="47.32268" lon="-2.40897">
        <ele>105</ele>
        <time>2011-04-24T13:51:51Z</time>
      </trkpt>
      <trkpt lat="47.32265" lon="-2.40892">
        <ele>104</ele>
        <time>2011-04-24T13:51:52Z</time>
      </trkpt>
      <trkpt lat="47.32262" lon="-2.40885">
        <ele>104</ele>
        <time>2011-04-24T13:51:53Z</time>
      </trkpt>
      <trkpt lat="47.32259" lon="-2.4088">
        <ele>104</ele>
        <time>2011-04-24T13:51:54Z</time>
      </trkpt>
      <trkpt lat="47.32255" lon="-2.40873">
        <ele>104</ele>
        <time>2011-04-24T13:51:55Z</time>
      </trkpt>
      <trkpt lat="47.32251" lon="-2.40867">
        <ele>103</ele>
        <time>2011-04-24T13:51:56Z</time>
      </trkpt>
      <trkpt lat="47.32246" lon="-2.40861">
        <ele>103</ele>
        <time>2011-04-24T13:51:57Z</time>
      </trkpt>
      <trkpt lat="47.32243" lon="-2.40855">
        <ele>103</ele>
        <time>2011-04-24T13:51:58Z</time>
      </trkpt>
      <trkpt lat="47.32239" lon="-2.40849">
        <ele>102</ele>
        <time>2011-04-24T13:51:59Z</time>
      </trkpt>
      <trkpt lat="47.32235" lon="-2.40844">
        <ele>102</ele>
        <time>2011-04-24T13:52:00Z</time>
      </trkpt>
      <trkpt lat="47.32232" lon="-2.40839">
        <ele>102</ele>
        <time>2011-04-24T13:52:01Z</time>
      </trkpt>
      <trkpt lat="47.32229" lon="-2.40833">
        <ele>102</ele>
        <time>2011-04-24T13:52:02Z</time>
      </trkpt>
      <trkpt lat="47.32224" lon="-2.40828">
        <ele>102</ele>
        <time>2011-04-24T13:52:03Z</time>
      </trkpt>
      <trkpt lat="47.32218" lon="-2.40819">
        <ele>102</ele>
        <time>2011-04-24T13:52:05Z</time>
      </trkpt>
      <trkpt lat="47.32216" lon="-2.40812">
        <ele>103</ele>
        <time>2011-04-24T13:52:06Z</time>
      </trkpt>
      <trkpt lat="47.32213" lon="-2.40808">
        <ele>103</ele>
        <time>2011-04-24T13:52:07Z</time>
      </trkpt>
      <trkpt lat="47.32206" lon="-2.40799">
        <ele>104</ele>
        <time>2011-04-24T13:52:09Z</time>
      </trkpt>
      <trkpt lat="47.322" lon="-2.40792">
        <ele>103</ele>
        <time>2011-04-24T13:52:11Z</time>
      </trkpt>
      <trkpt lat="47.32194" lon="-2.40785">
        <ele>104</ele>
        <time>2011-04-24T13:52:13Z</time>
      </trkpt>
      <trkpt lat="47.3219" lon="-2.40777">
        <ele>104</ele>
        <time>2011-04-24T13:52:15Z</time>
      </trkpt>
      <trkpt lat="47.32185" lon="-2.4077">
        <ele>104</ele>
        <time>2011-04-24T13:52:17Z</time>
      </trkpt>
      <trkpt lat="47.32181" lon="-2.40762">
        <ele>104</ele>
        <time>2011-04-24T13:52:19Z</time>
      </trkpt>
      <trkpt lat="47.32177" lon="-2.40754">
        <ele>104</ele>
        <time>2011-04-24T13:52:21Z</time>
      </trkpt>
      <trkpt lat="47.3217" lon="-2.40747">
        <ele>104</ele>
        <time>2011-04-24T13:52:23Z</time>
      </trkpt>
      <trkpt lat="47.32163" lon="-2.4074">
        <ele>105</ele>
        <time>2011-04-24T13:52:25Z</time>
      </trkpt>
      <trkpt lat="47.3216" lon="-2.40736">
        <ele>105</ele>
        <time>2011-04-24T13:52:26Z</time>
      </trkpt>
      <trkpt lat="47.32154" lon="-2.40728">
        <ele>105</ele>
        <time>2011-04-24T13:52:28Z</time>
      </trkpt>
      <trkpt lat="47.32147" lon="-2.4072">
        <ele>105</ele>
        <time>2011-04-24T13:52:30Z</time>
      </trkpt>
      <trkpt lat="47.32143" lon="-2.40717">
        <ele>105</ele>
        <time>2011-04-24T13:52:31Z</time>
      </trkpt>
      <trkpt lat="47.32137" lon="-2.40709">
        <ele>103</ele>
        <time>2011-04-24T13:52:33Z</time>
      </trkpt>
      <trkpt lat="47.3213" lon="-2.40701">
        <ele>103</ele>
        <time>2011-04-24T13:52:35Z</time>
      </trkpt>
      <trkpt lat="47.32123" lon="-2.40693">
        <ele>102</ele>
        <time>2011-04-24T13:52:37Z</time>
      </trkpt>
      <trkpt lat="47.32119" lon="-2.40689">
        <ele>103</ele>
        <time>2011-04-24T13:52:38Z</time>
      </trkpt>
      <trkpt lat="47.32113" lon="-2.40681">
        <ele>102</ele>
        <time>2011-04-24T13:52:40Z</time>
      </trkpt>
      <trkpt lat="47.32106" lon="-2.40675">
        <ele>102</ele>
        <time>2011-04-24T13:52:42Z</time>
      </trkpt>
      <trkpt lat="47.321" lon="-2.40668">
        <ele>102</ele>
        <time>2011-04-24T13:52:44Z</time>
      </trkpt>
      <trkpt lat="47.32096" lon="-2.40664">
        <ele>101</ele>
        <time>2011-04-24T13:52:45Z</time>
      </trkpt>
      <trkpt lat="47.32093" lon="-2.4066">
        <ele>102</ele>
        <time>2011-04-24T13:52:46Z</time>
      </trkpt>
      <trkpt lat="47.32085" lon="-2.40654">
        <ele>102</ele>
        <time>2011-04-24T13:52:48Z</time>
      </trkpt>
      <trkpt lat="47.32078" lon="-2.40648">
        <ele>103</ele>
        <time>2011-04-24T13:52:50Z</time>
      </trkpt>
      <trkpt lat="47.32071" lon="-2.40641">
        <ele>102</ele>
        <time>2011-04-24T13:52:52Z</time>
      </trkpt>
      <trkpt lat="47.32067" lon="-2.40637">
        <ele>102</ele>
        <time>2011-04-24T13:52:53Z</time>
      </trkpt>
      <trkpt lat="47.3206" lon="-2.4063">
        <ele>102</ele>
        <time>2011-04-24T13:52:55Z</time>
      </trkpt>
      <trkpt lat="47.32054" lon="-2.40624">
        <ele>101</ele>
        <time>2011-04-24T13:52:57Z</time>
      </trkpt>
      <trkpt lat="47.32048" lon="-2.40618">
        <ele>101</ele>
        <time>2011-04-24T13:52:59Z</time>
      </trkpt>
      <trkpt lat="47.3204" lon="-2.40611">
        <ele>101</ele>
        <time>2011-04-24T13:53:01Z</time>
      </trkpt>
      <trkpt lat="47.32033" lon="-2.40604">
        <ele>101</ele>
        <time>2011-04-24T13:53:03Z</time>
      </trkpt>
      <trkpt lat="47.32026" lon="-2.40599">
        <ele>100</ele>
        <time>2011-04-24T13:53:05Z</time>
      </trkpt>
      <trkpt lat="47.32022" lon="-2.40596">
        <ele>100</ele>
        <time>2011-04-24T13:53:06Z</time>
      </trkpt>
      <trkpt lat="47.32018" lon="-2.40592">
        <ele>101</ele>
        <time>2011-04-24T13:53:07Z</time>
      </trkpt>
      <trkpt lat="47.3201" lon="-2.40587">
        <ele>100</ele>
        <time>2011-04-24T13:53:09Z</time>
      </trkpt>
      <trkpt lat="47.32006" lon="-2.40584">
        <ele>101</ele>
        <time>2011-04-24T13:53:10Z</time>
      </trkpt>
      <trkpt lat="47.32002" lon="-2.40581">
        <ele>100</ele>
        <time>2011-04-24T13:53:11Z</time>
      </trkpt>
      <trkpt lat="47.31997" lon="-2.40577">
        <ele>100</ele>
        <time>2011-04-24T13:53:12Z</time>
      </trkpt>
      <trkpt lat="47.31992" lon="-2.40574">
        <ele>101</ele>
        <time>2011-04-24T13:53:13Z</time>
      </trkpt>
      <trkpt lat="47.31985" lon="-2.40569">
        <ele>101</ele>
        <time>2011-04-24T13:53:15Z</time>
      </trkpt>
      <trkpt lat="47.31981" lon="-2.40567">
        <ele>102</ele>
        <time>2011-04-24T13:53:16Z</time>
      </trkpt>
      <trkpt lat="47.31975" lon="-2.40562">
        <ele>102</ele>
        <time>2011-04-24T13:53:18Z</time>
      </trkpt>
      <trkpt lat="47.31971" lon="-2.40559">
        <ele>102</ele>
        <time>2011-04-24T13:53:19Z</time>
      </trkpt>
      <trkpt lat="47.31966" lon="-2.40556">
        <ele>102</ele>
        <time>2011-04-24T13:53:20Z</time>
      </trkpt>
      <trkpt lat="47.31959" lon="-2.40552">
        <ele>102</ele>
        <time>2011-04-24T13:53:22Z</time>
      </trkpt>
      <trkpt lat="47.31955" lon="-2.40547">
        <ele>102</ele>
        <time>2011-04-24T13:53:23Z</time>
      </trkpt>
      <trkpt lat="47.3195" lon="-2.40543">
        <ele>102</ele>
        <time>2011-04-24T13:53:24Z</time>
      </trkpt>
      <trkpt lat="47.31943" lon="-2.40538">
        <ele>103</ele>
        <time>2011-04-24T13:53:26Z</time>
      </trkpt>
      <trkpt lat="47.31938" lon="-2.40532">
        <ele>104</ele>
        <time>2011-04-24T13:53:28Z</time>
      </trkpt>
      <trkpt lat="47.31929" lon="-2.40526">
        <ele>103</ele>
        <time>2011-04-24T13:53:30Z</time>
      </trkpt>
      <trkpt lat="47.31925" lon="-2.40523">
        <ele>103</ele>
        <time>2011-04-24T13:53:31Z</time>
      </trkpt>
      <trkpt lat="47.31919" lon="-2.40518">
        <ele>103</ele>
        <time>2011-04-24T13:53:32Z</time>
      </trkpt>
      <trkpt lat="47.31914" lon="-2.40514">
        <ele>103</ele>
        <time>2011-04-24T13:53:33Z</time>
      </trkpt>
      <trkpt lat="47.31911" lon="-2.4051">
        <ele>104</ele>
        <time>2011-04-24T13:53:34Z</time>
      </trkpt>
      <trkpt lat="47.31906" lon="-2.40506">
        <ele>104</ele>
        <time>2011-04-24T13:53:35Z</time>
      </trkpt>
      <trkpt lat="47.31899" lon="-2.40499">
        <ele>104</ele>
        <time>2011-04-24T13:53:37Z</time>
      </trkpt>
      <trkpt lat="47.31894" lon="-2.40495">
        <ele>104</ele>
        <time>2011-04-24T13:53:38Z</time>
      </trkpt>
      <trkpt lat="47.3189" lon="-2.40492">
        <ele>105</ele>
        <time>2011-04-24T13:53:39Z</time>
      </trkpt>
      <trkpt lat="47.31884" lon="-2.40486">
        <ele>105</ele>
        <time>2011-04-24T13:53:40Z</time>
      </trkpt>
      <trkpt lat="47.31878" lon="-2.4048">
        <ele>105</ele>
        <time>2011-04-24T13:53:41Z</time>
      </trkpt>
      <trkpt lat="47.31875" lon="-2.40476">
        <ele>105</ele>
        <time>2011-04-24T13:53:42Z</time>
      </trkpt>
      <trkpt lat="47.31869" lon="-2.40472">
        <ele>105</ele>
        <time>2011-04-24T13:53:44Z</time>
      </trkpt>
      <trkpt lat="47.31864" lon="-2.40466">
        <ele>105</ele>
        <time>2011-04-24T13:53:46Z</time>
      </trkpt>
      <trkpt lat="47.31859" lon="-2.40462">
        <ele>105</ele>
        <time>2011-04-24T13:53:47Z</time>
      </trkpt>
      <trkpt lat="47.31851" lon="-2.40458">
        <ele>106</ele>
        <time>2011-04-24T13:53:49Z</time>
      </trkpt>
      <trkpt lat="47.31841" lon="-2.40455">
        <ele>105</ele>
        <time>2011-04-24T13:53:51Z</time>
      </trkpt>
      <trkpt lat="47.31832" lon="-2.4045">
        <ele>105</ele>
        <time>2011-04-24T13:53:53Z</time>
      </trkpt>
      <trkpt lat="47.31826" lon="-2.40446">
        <ele>105</ele>
        <time>2011-04-24T13:53:54Z</time>
      </trkpt>
      <trkpt lat="47.3182" lon="-2.40444">
        <ele>106</ele>
        <time>2011-04-24T13:53:55Z</time>
      </trkpt>
      <trkpt lat="47.31809" lon="-2.40434">
        <ele>106</ele>
        <time>2011-04-24T13:53:57Z</time>
      </trkpt>
      <trkpt lat="47.318" lon="-2.40428">
        <ele>106</ele>
        <time>2011-04-24T13:53:58Z</time>
      </trkpt>
      <trkpt lat="47.31792" lon="-2.4042">
        <ele>105</ele>
        <time>2011-04-24T13:53:59Z</time>
      </trkpt>
      <trkpt lat="47.31785" lon="-2.40415">
        <ele>104</ele>
        <time>2011-04-24T13:54:00Z</time>
      </trkpt>
      <trkpt lat="47.31778" lon="-2.4041">
        <ele>103</ele>
        <time>2011-04-24T13:54:01Z</time>
      </trkpt>
      <trkpt lat="47.31772" lon="-2.40406">
        <ele>103</ele>
        <time>2011-04-24T13:54:02Z</time>
      </trkpt>
      <trkpt lat="47.31764" lon="-2.40402">
        <ele>103</ele>
        <time>2011-04-24T13:54:04Z</time>
      </trkpt>
      <trkpt lat="47.3176" lon="-2.40398">
        <ele>103</ele>
        <time>2011-04-24T13:54:05Z</time>
      </trkpt>
      <trkpt lat="47.31756" lon="-2.40394">
        <ele>103</ele>
        <time>2011-04-24T13:54:06Z</time>
      </trkpt>
      <trkpt lat="47.31752" lon="-2.40392">
        <ele>102</ele>
        <time>2011-04-24T13:54:07Z</time>
      </trkpt>
      <trkpt lat="47.31747" lon="-2.40386">
        <ele>103</ele>
        <time>2011-04-24T13:54:08Z</time>
      </trkpt>
      <trkpt lat="47.31742" lon="-2.4038">
        <ele>103</ele>
        <time>2011-04-24T13:54:10Z</time>
      </trkpt>
      <trkpt lat="47.31737" lon="-2.40377">
        <ele>102</ele>
        <time>2011-04-24T13:54:11Z</time>
      </trkpt>
      <trkpt lat="47.31732" lon="-2.40372">
        <ele>102</ele>
        <time>2011-04-24T13:54:12Z</time>
      </trkpt>
      <trkpt lat="47.31727" lon="-2.40369">
        <ele>102</ele>
        <time>2011-04-24T13:54:13Z</time>
      </trkpt>
      <trkpt lat="47.31723" lon="-2.40363">
        <ele>102</ele>
        <time>2011-04-24T13:54:14Z</time>
      </trkpt>
      <trkpt lat="47.31718" lon="-2.40363">
        <ele>101</ele>
        <time>2011-04-24T13:54:15Z</time>
      </trkpt>
      <trkpt lat="47.31711" lon="-2.4036">
        <ele>100</ele>
        <time>2011-04-24T13:54:16Z</time>
      </trkpt>
      <trkpt lat="47.31706" lon="-2.40354">
        <ele>100</ele>
        <time>2011-04-24T13:54:17Z</time>
      </trkpt>
      <trkpt lat="47.31701" lon="-2.4035">
        <ele>99</ele>
        <time>2011-04-24T13:54:18Z</time>
      </trkpt>
      <trkpt lat="47.31696" lon="-2.40345">
        <ele>100</ele>
        <time>2011-04-24T13:54:19Z</time>
      </trkpt>
      <trkpt lat="47.31691" lon="-2.40342">
        <ele>100</ele>
        <time>2011-04-24T13:54:20Z</time>
      </trkpt>
      <trkpt lat="47.31687" lon="-2.40337">
        <ele>99</ele>
        <time>2011-04-24T13:54:21Z</time>
      </trkpt>
      <trkpt lat="47.31681" lon="-2.40335">
        <ele>99</ele>
        <time>2011-04-24T13:54:22Z</time>
      </trkpt>
      <trkpt lat="47.31676" lon="-2.40332">
        <ele>97</ele>
        <time>2011-04-24T13:54:23Z</time>
      </trkpt>
      <trkpt lat="47.3167" lon="-2.40331">
        <ele>97</ele>
        <time>2011-04-24T13:54:24Z</time>
      </trkpt>
      <trkpt lat="47.31662" lon="-2.40332">
        <ele>97</ele>
        <time>2011-04-24T13:54:26Z</time>
      </trkpt>
      <trkpt lat="47.31654" lon="-2.40338">
        <ele>98</ele>
        <time>2011-04-24T13:54:28Z</time>
      </trkpt>
      <trkpt lat="47.31648" lon="-2.40339">
        <ele>98</ele>
        <time>2011-04-24T13:54:30Z</time>
      </trkpt>
      <trkpt lat="47.31642" lon="-2.40344">
        <ele>98</ele>
        <time>2011-04-24T13:54:33Z</time>
      </trkpt>
      <trkpt lat="47.31638" lon="-2.40347">
        <ele>100</ele>
        <time>2011-04-24T13:54:35Z</time>
      </trkpt>
      <trkpt lat="47.31633" lon="-2.4035">
        <ele>98</ele>
        <time>2011-04-24T13:54:39Z</time>
      </trkpt>
      <trkpt lat="47.31628" lon="-2.40352">
        <ele>99</ele>
        <time>2011-04-24T13:54:44Z</time>
      </trkpt>
      <trkpt lat="47.31625" lon="-2.40357">
        <ele>99</ele>
        <time>2011-04-24T13:54:46Z</time>
      </trkpt>
      <trkpt lat="47.31617" lon="-2.40355">
        <ele>97</ele>
        <time>2011-04-24T13:54:47Z</time>
      </trkpt>
      <trkpt lat="47.31608" lon="-2.40357">
        <ele>96</ele>
        <time>2011-04-24T13:54:49Z</time>
      </trkpt>
      <trkpt lat="47.31603" lon="-2.40359">
        <ele>96</ele>
        <time>2011-04-24T13:54:50Z</time>
      </trkpt>
      <trkpt lat="47.31594" lon="-2.40358">
        <ele>96</ele>
        <time>2011-04-24T13:54:52Z</time>
      </trkpt>
      <trkpt lat="47.31588" lon="-2.4036">
        <ele>96</ele>
        <time>2011-04-24T13:54:53Z</time>
      </trkpt>
      <trkpt lat="47.31584" lon="-2.40364">
        <ele>96</ele>
        <time>2011-04-24T13:54:54Z</time>
      </trkpt>
      <trkpt lat="47.31579" lon="-2.40369">
        <ele>96</ele>
        <time>2011-04-24T13:54:55Z</time>
      </trkpt>
      <trkpt lat="47.31574" lon="-2.40372">
        <ele>96</ele>
        <time>2011-04-24T13:54:56Z</time>
      </trkpt>
      <trkpt lat="47.3157" lon="-2.40375">
        <ele>95</ele>
        <time>2011-04-24T13:54:57Z</time>
      </trkpt>
      <trkpt lat="47.31565" lon="-2.40377">
        <ele>95</ele>
        <time>2011-04-24T13:54:58Z</time>
      </trkpt>
      <trkpt lat="47.3156" lon="-2.40379">
        <ele>95</ele>
        <time>2011-04-24T13:54:59Z</time>
      </trkpt>
      <trkpt lat="47.31556" lon="-2.40382">
        <ele>95</ele>
        <time>2011-04-24T13:55:00Z</time>
      </trkpt>
      <trkpt lat="47.31551" lon="-2.40384">
        <ele>95</ele>
        <time>2011-04-24T13:55:01Z</time>
      </trkpt>
      <trkpt lat="47.31545" lon="-2.40387">
        <ele>95</ele>
        <time>2011-04-24T13:55:02Z</time>
      </trkpt>
      <trkpt lat="47.31541" lon="-2.40389">
        <ele>95</ele>
        <time>2011-04-24T13:55:03Z</time>
      </trkpt>
      <trkpt lat="47.31537" lon="-2.40393">
        <ele>94</ele>
        <time>2011-04-24T13:55:04Z</time>
      </trkpt>
      <trkpt lat="47.31534" lon="-2.40398">
        <ele>96</ele>
        <time>2011-04-24T13:55:05Z</time>
      </trkpt>
      <trkpt lat="47.31527" lon="-2.40403">
        <ele>95</ele>
        <time>2011-04-24T13:55:07Z</time>
      </trkpt>
      <trkpt lat="47.31523" lon="-2.40406">
        <ele>95</ele>
        <time>2011-04-24T13:55:08Z</time>
      </trkpt>
      <trkpt lat="47.31519" lon="-2.40408">
        <ele>96</ele>
        <time>2011-04-24T13:55:09Z</time>
      </trkpt>
      <trkpt lat="47.31511" lon="-2.40414">
        <ele>96</ele>
        <time>2011-04-24T13:55:11Z</time>
      </trkpt>
      <trkpt lat="47.31504" lon="-2.40421">
        <ele>96</ele>
        <time>2011-04-24T13:55:13Z</time>
      </trkpt>
      <trkpt lat="47.31497" lon="-2.40426">
        <ele>95</ele>
        <time>2011-04-24T13:55:15Z</time>
      </trkpt>
      <trkpt lat="47.3149" lon="-2.40429">
        <ele>96</ele>
        <time>2011-04-24T13:55:17Z</time>
      </trkpt>
      <trkpt lat="47.31485" lon="-2.40429">
        <ele>96</ele>
        <time>2011-04-24T13:55:18Z</time>
      </trkpt>
      <trkpt lat="47.31478" lon="-2.40433">
        <ele>96</ele>
        <time>2011-04-24T13:55:20Z</time>
      </trkpt>
      <trkpt lat="47.31474" lon="-2.40438">
        <ele>96</ele>
        <time>2011-04-24T13:55:21Z</time>
      </trkpt>
      <trkpt lat="47.31464" lon="-2.40451">
        <ele>95</ele>
        <time>2011-04-24T13:55:22Z</time>
      </trkpt>
      <trkpt lat="47.31458" lon="-2.40459">
        <ele>95</ele>
        <time>2011-04-24T13:55:23Z</time>
      </trkpt>
      <trkpt lat="47.3145" lon="-2.40468">
        <ele>94</ele>
        <time>2011-04-24T13:55:24Z</time>
      </trkpt>
      <trkpt lat="47.31444" lon="-2.40475">
        <ele>93</ele>
        <time>2011-04-24T13:55:25Z</time>
      </trkpt>
      <trkpt lat="47.31436" lon="-2.40484">
        <ele>92</ele>
        <time>2011-04-24T13:55:26Z</time>
      </trkpt>
      <trkpt lat="47.31427" lon="-2.40492">
        <ele>91</ele>
        <time>2011-04-24T13:55:27Z</time>
      </trkpt>
      <trkpt lat="47.31418" lon="-2.40498">
        <ele>90</ele>
        <time>2011-04-24T13:55:28Z</time>
      </trkpt>
      <trkpt lat="47.3141" lon="-2.40502">
        <ele>89</ele>
        <time>2011-04-24T13:55:29Z</time>
      </trkpt>
      <trkpt lat="47.31401" lon="-2.40506">
        <ele>89</ele>
        <time>2011-04-24T13:55:30Z</time>
      </trkpt>
      <trkpt lat="47.31392" lon="-2.40509">
        <ele>89</ele>
        <time>2011-04-24T13:55:31Z</time>
      </trkpt>
      <trkpt lat="47.31383" lon="-2.40512">
        <ele>89</ele>
        <time>2011-04-24T13:55:32Z</time>
      </trkpt>
      <trkpt lat="47.31374" lon="-2.40517">
        <ele>89</ele>
        <time>2011-04-24T13:55:33Z</time>
      </trkpt>
      <trkpt lat="47.31367" lon="-2.40532">
        <ele>90</ele>
        <time>2011-04-24T13:55:34Z</time>
      </trkpt>
      <trkpt lat="47.31362" lon="-2.40535">
        <ele>90</ele>
        <time>2011-04-24T13:55:35Z</time>
      </trkpt>
      <trkpt lat="47.31353" lon="-2.4054">
        <ele>91</ele>
        <time>2011-04-24T13:55:37Z</time>
      </trkpt>
      <trkpt lat="47.31348" lon="-2.40544">
        <ele>90</ele>
        <time>2011-04-24T13:55:38Z</time>
      </trkpt>
      <trkpt lat="47.31341" lon="-2.40547">
        <ele>90</ele>
        <time>2011-04-24T13:55:39Z</time>
      </trkpt>
      <trkpt lat="47.3134" lon="-2.40536">
        <ele>90</ele>
        <time>2011-04-24T13:55:40Z</time>
      </trkpt>
      <trkpt lat="47.31338" lon="-2.40529">
        <ele>91</ele>
        <time>2011-04-24T13:55:41Z</time>
      </trkpt>
      <trkpt lat="47.31336" lon="-2.40522">
        <ele>90</ele>
        <time>2011-04-24T13:55:42Z</time>
      </trkpt>
      <trkpt lat="47.31335" lon="-2.40514">
        <ele>90</ele>
        <time>2011-04-24T13:55:43Z</time>
      </trkpt>
      <trkpt lat="47.31334" lon="-2.40506">
        <ele>90</ele>
        <time>2011-04-24T13:55:44Z</time>
      </trkpt>
      <trkpt lat="47.31333" lon="-2.40499">
        <ele>90</ele>
        <time>2011-04-24T13:55:45Z</time>
      </trkpt>
      <trkpt lat="47.31331" lon="-2.40491">
        <ele>90</ele>
        <time>2011-04-24T13:55:46Z</time>
      </trkpt>
      <trkpt lat="47.31329" lon="-2.40484">
        <ele>90</ele>
        <time>2011-04-24T13:55:47Z</time>
      </trkpt>
      <trkpt lat="47.31327" lon="-2.40471">
        <ele>91</ele>
        <time>2011-04-24T13:55:49Z</time>
      </trkpt>
      <trkpt lat="47.31324" lon="-2.4046">
        <ele>92</ele>
        <time>2011-04-24T13:55:51Z</time>
      </trkpt>
      <trkpt lat="47.31322" lon="-2.40448">
        <ele>92</ele>
        <time>2011-04-24T13:55:53Z</time>
      </trkpt>
      <trkpt lat="47.31319" lon="-2.40435">
        <ele>93</ele>
        <time>2011-04-24T13:55:55Z</time>
      </trkpt>
      <trkpt lat="47.31315" lon="-2.40425">
        <ele>93</ele>
        <time>2011-04-24T13:55:57Z</time>
      </trkpt>
      <trkpt lat="47.31313" lon="-2.40413">
        <ele>93</ele>
        <time>2011-04-24T13:55:59Z</time>
      </trkpt>
      <trkpt lat="47.3131" lon="-2.40402">
        <ele>94</ele>
        <time>2011-04-24T13:56:01Z</time>
      </trkpt>
      <trkpt lat="47.31307" lon="-2.4039">
        <ele>94</ele>
        <time>2011-04-24T13:56:03Z</time>
      </trkpt>
      <trkpt lat="47.31302" lon="-2.40379">
        <ele>95</ele>
        <time>2011-04-24T13:56:05Z</time>
      </trkpt>
      <trkpt lat="47.31299" lon="-2.40367">
        <ele>95</ele>
        <time>2011-04-24T13:56:07Z</time>
      </trkpt>
      <trkpt lat="47.31296" lon="-2.40361">
        <ele>95</ele>
        <time>2011-04-24T13:56:08Z</time>
      </trkpt>
      <trkpt lat="47.31293" lon="-2.40354">
        <ele>94</ele>
        <time>2011-04-24T13:56:09Z</time>
      </trkpt>
      <trkpt lat="47.31291" lon="-2.40347">
        <ele>94</ele>
        <time>2011-04-24T13:56:10Z</time>
      </trkpt>
      <trkpt lat="47.31288" lon="-2.40339">
        <ele>94</ele>
        <time>2011-04-24T13:56:11Z</time>
      </trkpt>
      <trkpt lat="47.31285" lon="-2.40332">
        <ele>94</ele>
        <time>2011-04-24T13:56:12Z</time>
      </trkpt>
      <trkpt lat="47.31283" lon="-2.40324">
        <ele>94</ele>
        <time>2011-04-24T13:56:13Z</time>
      </trkpt>
      <trkpt lat="47.3128" lon="-2.40316">
        <ele>93</ele>
        <time>2011-04-24T13:56:14Z</time>
      </trkpt>
      <trkpt lat="47.31277" lon="-2.40308">
        <ele>93</ele>
        <time>2011-04-24T13:56:15Z</time>
      </trkpt>
      <trkpt lat="47.31274" lon="-2.40299">
        <ele>93</ele>
        <time>2011-04-24T13:56:16Z</time>
      </trkpt>
      <trkpt lat="47.31271" lon="-2.4029">
        <ele>93</ele>
        <time>2011-04-24T13:56:17Z</time>
      </trkpt>
      <trkpt lat="47.31268" lon="-2.40281">
        <ele>93</ele>
        <time>2011-04-24T13:56:18Z</time>
      </trkpt>
      <trkpt lat="47.31264" lon="-2.40272">
        <ele>93</ele>
        <time>2011-04-24T13:56:19Z</time>
      </trkpt>
      <trkpt lat="47.3126" lon="-2.40263">
        <ele>93</ele>
        <time>2011-04-24T13:56:20Z</time>
      </trkpt>
      <trkpt lat="47.31256" lon="-2.40252">
        <ele>92</ele>
        <time>2011-04-24T13:56:21Z</time>
      </trkpt>
      <trkpt lat="47.31249" lon="-2.40236">
        <ele>92</ele>
        <time>2011-04-24T13:56:22Z</time>
      </trkpt>
      <trkpt lat="47.31249" lon="-2.40224">
        <ele>92</ele>
        <time>2011-04-24T13:56:24Z</time>
      </trkpt>
      <trkpt lat="47.31247" lon="-2.40216">
        <ele>92</ele>
        <time>2011-04-24T13:56:25Z</time>
      </trkpt>
      <trkpt lat="47.31243" lon="-2.40207">
        <ele>92</ele>
        <time>2011-04-24T13:56:26Z</time>
      </trkpt>
      <trkpt lat="47.31241" lon="-2.40199">
        <ele>92</ele>
        <time>2011-04-24T13:56:27Z</time>
      </trkpt>
      <trkpt lat="47.31238" lon="-2.4019">
        <ele>93</ele>
        <time>2011-04-24T13:56:28Z</time>
      </trkpt>
      <trkpt lat="47.31235" lon="-2.40181">
        <ele>93</ele>
        <time>2011-04-24T13:56:29Z</time>
      </trkpt>
      <trkpt lat="47.31232" lon="-2.40171">
        <ele>93</ele>
        <time>2011-04-24T13:56:30Z</time>
      </trkpt>
      <trkpt lat="47.31228" lon="-2.40162">
        <ele>94</ele>
        <time>2011-04-24T13:56:31Z</time>
      </trkpt>
      <trkpt lat="47.31226" lon="-2.40154">
        <ele>94</ele>
        <time>2011-04-24T13:56:32Z</time>
      </trkpt>
      <trkpt lat="47.31224" lon="-2.40147">
        <ele>94</ele>
        <time>2011-04-24T13:56:33Z</time>
      </trkpt>
      <trkpt lat="47.3122" lon="-2.40138">
        <ele>95</ele>
        <time>2011-04-24T13:56:35Z</time>
      </trkpt>
      <trkpt lat="47.31219" lon="-2.40123">
        <ele>96</ele>
        <time>2011-04-24T13:56:36Z</time>
      </trkpt>
      <trkpt lat="47.31216" lon="-2.40115">
        <ele>96</ele>
        <time>2011-04-24T13:56:37Z</time>
      </trkpt>
      <trkpt lat="47.31214" lon="-2.40106">
        <ele>96</ele>
        <time>2011-04-24T13:56:38Z</time>
      </trkpt>
      <trkpt lat="47.31212" lon="-2.40098">
        <ele>97</ele>
        <time>2011-04-24T13:56:39Z</time>
      </trkpt>
      <trkpt lat="47.31204" lon="-2.40088">
        <ele>97</ele>
        <time>2011-04-24T13:56:40Z</time>
      </trkpt>
      <trkpt lat="47.31194" lon="-2.40071">
        <ele>97</ele>
        <time>2011-04-24T13:56:41Z</time>
      </trkpt>
      <trkpt lat="47.31196" lon="-2.40077">
        <ele>97</ele>
        <time>2011-04-24T13:56:42Z</time>
      </trkpt>
      <trkpt lat="47.31189" lon="-2.40073">
        <ele>97</ele>
        <time>2011-04-24T13:56:44Z</time>
      </trkpt>
      <trkpt lat="47.31183" lon="-2.4007">
        <ele>96</ele>
        <time>2011-04-24T13:56:45Z</time>
      </trkpt>
      <trkpt lat="47.31178" lon="-2.40068">
        <ele>95</ele>
        <time>2011-04-24T13:56:46Z</time>
      </trkpt>
      <trkpt lat="47.3117" lon="-2.40066">
        <ele>94</ele>
        <time>2011-04-24T13:56:48Z</time>
      </trkpt>
      <trkpt lat="47.31161" lon="-2.40067">
        <ele>92</ele>
        <time>2011-04-24T13:56:50Z</time>
      </trkpt>
      <trkpt lat="47.31154" lon="-2.40067">
        <ele>91</ele>
        <time>2011-04-24T13:56:52Z</time>
      </trkpt>
      <trkpt lat="47.31145" lon="-2.40068">
        <ele>90</ele>
        <time>2011-04-24T13:56:54Z</time>
      </trkpt>
      <trkpt lat="47.31137" lon="-2.4007">
        <ele>89</ele>
        <time>2011-04-24T13:56:56Z</time>
      </trkpt>
      <trkpt lat="47.31129" lon="-2.40074">
        <ele>88</ele>
        <time>2011-04-24T13:56:58Z</time>
      </trkpt>
      <trkpt lat="47.31117" lon="-2.40076">
        <ele>87</ele>
        <time>2011-04-24T13:57:00Z</time>
      </trkpt>
      <trkpt lat="47.31109" lon="-2.40079">
        <ele>86</ele>
        <time>2011-04-24T13:57:02Z</time>
      </trkpt>
      <trkpt lat="47.31104" lon="-2.4008">
        <ele>86</ele>
        <time>2011-04-24T13:57:03Z</time>
      </trkpt>
      <trkpt lat="47.31099" lon="-2.40082">
        <ele>86</ele>
        <time>2011-04-24T13:57:04Z</time>
      </trkpt>
      <trkpt lat="47.3109" lon="-2.40085">
        <ele>86</ele>
        <time>2011-04-24T13:57:06Z</time>
      </trkpt>
      <trkpt lat="47.31086" lon="-2.40087">
        <ele>85</ele>
        <time>2011-04-24T13:57:07Z</time>
      </trkpt>
      <trkpt lat="47.31081" lon="-2.40088">
        <ele>85</ele>
        <time>2011-04-24T13:57:08Z</time>
      </trkpt>
      <trkpt lat="47.31076" lon="-2.4009">
        <ele>85</ele>
        <time>2011-04-24T13:57:09Z</time>
      </trkpt>
      <trkpt lat="47.31067" lon="-2.40092">
        <ele>84</ele>
        <time>2011-04-24T13:57:11Z</time>
      </trkpt>
      <trkpt lat="47.31062" lon="-2.40092">
        <ele>84</ele>
        <time>2011-04-24T13:57:12Z</time>
      </trkpt>
      <trkpt lat="47.3105" lon="-2.4009">
        <ele>84</ele>
        <time>2011-04-24T13:57:14Z</time>
      </trkpt>
      <trkpt lat="47.31045" lon="-2.40092">
        <ele>84</ele>
        <time>2011-04-24T13:57:15Z</time>
      </trkpt>
      <trkpt lat="47.3104" lon="-2.40094">
        <ele>85</ele>
        <time>2011-04-24T13:57:16Z</time>
      </trkpt>
      <trkpt lat="47.31033" lon="-2.40095">
        <ele>84</ele>
        <time>2011-04-24T13:57:17Z</time>
      </trkpt>
      <trkpt lat="47.31028" lon="-2.40098">
        <ele>84</ele>
        <time>2011-04-24T13:57:18Z</time>
      </trkpt>
      <trkpt lat="47.31022" lon="-2.40105">
        <ele>84</ele>
        <time>2011-04-24T13:57:19Z</time>
      </trkpt>
      <trkpt lat="47.31017" lon="-2.40105">
        <ele>84</ele>
        <time>2011-04-24T13:57:20Z</time>
      </trkpt>
      <trkpt lat="47.31009" lon="-2.40104">
        <ele>84</ele>
        <time>2011-04-24T13:57:21Z</time>
      </trkpt>
      <trkpt lat="47.31004" lon="-2.40105">
        <ele>83</ele>
        <time>2011-04-24T13:57:22Z</time>
      </trkpt>
      <trkpt lat="47.30999" lon="-2.40108">
        <ele>83</ele>
        <time>2011-04-24T13:57:23Z</time>
      </trkpt>
      <trkpt lat="47.30993" lon="-2.4011">
        <ele>83</ele>
        <time>2011-04-24T13:57:24Z</time>
      </trkpt>
      <trkpt lat="47.30987" lon="-2.40112">
        <ele>83</ele>
        <time>2011-04-24T13:57:25Z</time>
      </trkpt>
      <trkpt lat="47.30981" lon="-2.40114">
        <ele>83</ele>
        <time>2011-04-24T13:57:26Z</time>
      </trkpt>
      <trkpt lat="47.30975" lon="-2.40116">
        <ele>83</ele>
        <time>2011-04-24T13:57:27Z</time>
      </trkpt>
      <trkpt lat="47.30969" lon="-2.40118">
        <ele>83</ele>
        <time>2011-04-24T13:57:28Z</time>
      </trkpt>
      <trkpt lat="47.30963" lon="-2.40119">
        <ele>83</ele>
        <time>2011-04-24T13:57:29Z</time>
      </trkpt>
      <trkpt lat="47.30958" lon="-2.40122">
        <ele>84</ele>
        <time>2011-04-24T13:57:30Z</time>
      </trkpt>
      <trkpt lat="47.30954" lon="-2.40124">
        <ele>84</ele>
        <time>2011-04-24T13:57:31Z</time>
      </trkpt>
      <trkpt lat="47.30948" lon="-2.40113">
        <ele>83</ele>
        <time>2011-04-24T13:57:32Z</time>
      </trkpt>
      <trkpt lat="47.3094" lon="-2.40116">
        <ele>84</ele>
        <time>2011-04-24T13:57:33Z</time>
      </trkpt>
      <trkpt lat="47.30934" lon="-2.40117">
        <ele>84</ele>
        <time>2011-04-24T13:57:34Z</time>
      </trkpt>
      <trkpt lat="47.30927" lon="-2.40118">
        <ele>84</ele>
        <time>2011-04-24T13:57:35Z</time>
      </trkpt>
      <trkpt lat="47.3092" lon="-2.40118">
        <ele>84</ele>
        <time>2011-04-24T13:57:36Z</time>
      </trkpt>
      <trkpt lat="47.30914" lon="-2.40118">
        <ele>84</ele>
        <time>2011-04-24T13:57:37Z</time>
      </trkpt>
      <trkpt lat="47.30908" lon="-2.40119">
        <ele>84</ele>
        <time>2011-04-24T13:57:38Z</time>
      </trkpt>
      <trkpt lat="47.30902" lon="-2.40122">
        <ele>84</ele>
        <time>2011-04-24T13:57:39Z</time>
      </trkpt>
      <trkpt lat="47.30896" lon="-2.40122">
        <ele>84</ele>
        <time>2011-04-24T13:57:40Z</time>
      </trkpt>
      <trkpt lat="47.30889" lon="-2.4012">
        <ele>84</ele>
        <time>2011-04-24T13:57:41Z</time>
      </trkpt>
      <trkpt lat="47.30883" lon="-2.40121">
        <ele>83</ele>
        <time>2011-04-24T13:57:42Z</time>
      </trkpt>
      <trkpt lat="47.30877" lon="-2.4012">
        <ele>83</ele>
        <time>2011-04-24T13:57:43Z</time>
      </trkpt>
      <trkpt lat="47.30871" lon="-2.40125">
        <ele>84</ele>
        <time>2011-04-24T13:57:44Z</time>
      </trkpt>
      <trkpt lat="47.30859" lon="-2.40124">
        <ele>83</ele>
        <time>2011-04-24T13:57:46Z</time>
      </trkpt>
      <trkpt lat="47.30853" lon="-2.40124">
        <ele>83</ele>
        <time>2011-04-24T13:57:47Z</time>
      </trkpt>
      <trkpt lat="47.30847" lon="-2.40121">
        <ele>83</ele>
        <time>2011-04-24T13:57:48Z</time>
      </trkpt>
      <trkpt lat="47.3084" lon="-2.40118">
        <ele>82</ele>
        <time>2011-04-24T13:57:49Z</time>
      </trkpt>
      <trkpt lat="47.30833" lon="-2.40116">
        <ele>83</ele>
        <time>2011-04-24T13:57:50Z</time>
      </trkpt>
      <trkpt lat="47.30827" lon="-2.40114">
        <ele>82</ele>
        <time>2011-04-24T13:57:51Z</time>
      </trkpt>
      <trkpt lat="47.30821" lon="-2.40115">
        <ele>82</ele>
        <time>2011-04-24T13:57:52Z</time>
      </trkpt>
      <trkpt lat="47.30815" lon="-2.40112">
        <ele>83</ele>
        <time>2011-04-24T13:57:53Z</time>
      </trkpt>
      <trkpt lat="47.30808" lon="-2.4011">
        <ele>82</ele>
        <time>2011-04-24T13:57:54Z</time>
      </trkpt>
      <trkpt lat="47.30801" lon="-2.40108">
        <ele>78</ele>
        <time>2011-04-24T13:57:55Z</time>
      </trkpt>
      <trkpt lat="47.30795" lon="-2.40105">
        <ele>75</ele>
        <time>2011-04-24T13:57:56Z</time>
      </trkpt>
      <trkpt lat="47.30789" lon="-2.40103">
        <ele>73</ele>
        <time>2011-04-24T13:57:57Z</time>
      </trkpt>
      <trkpt lat="47.30783" lon="-2.40101">
        <ele>74</ele>
        <time>2011-04-24T13:57:58Z</time>
      </trkpt>
      <trkpt lat="47.30777" lon="-2.40098">
        <ele>75</ele>
        <time>2011-04-24T13:57:59Z</time>
      </trkpt>
      <trkpt lat="47.30771" lon="-2.40096">
        <ele>75</ele>
        <time>2011-04-24T13:58:00Z</time>
      </trkpt>
      <trkpt lat="47.30765" lon="-2.40094">
        <ele>76</ele>
        <time>2011-04-24T13:58:01Z</time>
      </trkpt>
      <trkpt lat="47.30759" lon="-2.40091">
        <ele>76</ele>
        <time>2011-04-24T13:58:02Z</time>
      </trkpt>
      <trkpt lat="47.30752" lon="-2.40088">
        <ele>76</ele>
        <time>2011-04-24T13:58:03Z</time>
      </trkpt>
      <trkpt lat="47.30746" lon="-2.40086">
        <ele>76</ele>
        <time>2011-04-24T13:58:04Z</time>
      </trkpt>
      <trkpt lat="47.3074" lon="-2.40082">
        <ele>77</ele>
        <time>2011-04-24T13:58:05Z</time>
      </trkpt>
      <trkpt lat="47.30734" lon="-2.40078">
        <ele>78</ele>
        <time>2011-04-24T13:58:06Z</time>
      </trkpt>
      <trkpt lat="47.30728" lon="-2.40074">
        <ele>78</ele>
        <time>2011-04-24T13:58:07Z</time>
      </trkpt>
      <trkpt lat="47.30721" lon="-2.4007">
        <ele>78</ele>
        <time>2011-04-24T13:58:08Z</time>
      </trkpt>
      <trkpt lat="47.30716" lon="-2.40066">
        <ele>79</ele>
        <time>2011-04-24T13:58:09Z</time>
      </trkpt>
      <trkpt lat="47.3071" lon="-2.40062">
        <ele>79</ele>
        <time>2011-04-24T13:58:10Z</time>
      </trkpt>
      <trkpt lat="47.30704" lon="-2.40057">
        <ele>79</ele>
        <time>2011-04-24T13:58:11Z</time>
      </trkpt>
      <trkpt lat="47.30698" lon="-2.40053">
        <ele>79</ele>
        <time>2011-04-24T13:58:12Z</time>
      </trkpt>
      <trkpt lat="47.30692" lon="-2.40049">
        <ele>79</ele>
        <time>2011-04-24T13:58:13Z</time>
      </trkpt>
      <trkpt lat="47.30686" lon="-2.40045">
        <ele>79</ele>
        <time>2011-04-24T13:58:14Z</time>
      </trkpt>
      <trkpt lat="47.30681" lon="-2.40042">
        <ele>79</ele>
        <time>2011-04-24T13:58:15Z</time>
      </trkpt>
      <trkpt lat="47.30675" lon="-2.40038">
        <ele>79</ele>
        <time>2011-04-24T13:58:16Z</time>
      </trkpt>
      <trkpt lat="47.30669" lon="-2.40034">
        <ele>79</ele>
        <time>2011-04-24T13:58:17Z</time>
      </trkpt>
      <trkpt lat="47.30663" lon="-2.4003">
        <ele>79</ele>
        <time>2011-04-24T13:58:18Z</time>
      </trkpt>
      <trkpt lat="47.30658" lon="-2.40026">
        <ele>78</ele>
        <time>2011-04-24T13:58:19Z</time>
      </trkpt>
      <trkpt lat="47.30653" lon="-2.40021">
        <ele>78</ele>
        <time>2011-04-24T13:58:20Z</time>
      </trkpt>
      <trkpt lat="47.30649" lon="-2.40016">
        <ele>78</ele>
        <time>2011-04-24T13:58:21Z</time>
      </trkpt>
      <trkpt lat="47.30643" lon="-2.40009">
        <ele>77</ele>
        <time>2011-04-24T13:58:22Z</time>
      </trkpt>
      <trkpt lat="47.30638" lon="-2.40004">
        <ele>77</ele>
        <time>2011-04-24T13:58:23Z</time>
      </trkpt>
      <trkpt lat="47.30634" lon="-2.39999">
        <ele>77</ele>
        <time>2011-04-24T13:58:24Z</time>
      </trkpt>
      <trkpt lat="47.30629" lon="-2.39993">
        <ele>77</ele>
        <time>2011-04-24T13:58:25Z</time>
      </trkpt>
      <trkpt lat="47.30626" lon="-2.39988">
        <ele>78</ele>
        <time>2011-04-24T13:58:26Z</time>
      </trkpt>
      <trkpt lat="47.30622" lon="-2.39984">
        <ele>77</ele>
        <time>2011-04-24T13:58:27Z</time>
      </trkpt>
      <trkpt lat="47.30617" lon="-2.39978">
        <ele>77</ele>
        <time>2011-04-24T13:58:28Z</time>
      </trkpt>
      <trkpt lat="47.30612" lon="-2.39973">
        <ele>77</ele>
        <time>2011-04-24T13:58:29Z</time>
      </trkpt>
      <trkpt lat="47.30608" lon="-2.39968">
        <ele>76</ele>
        <time>2011-04-24T13:58:30Z</time>
      </trkpt>
      <trkpt lat="47.30603" lon="-2.39962">
        <ele>76</ele>
        <time>2011-04-24T13:58:31Z</time>
      </trkpt>
      <trkpt lat="47.30599" lon="-2.39957">
        <ele>75</ele>
        <time>2011-04-24T13:58:32Z</time>
      </trkpt>
      <trkpt lat="47.30594" lon="-2.39951">
        <ele>76</ele>
        <time>2011-04-24T13:58:33Z</time>
      </trkpt>
      <trkpt lat="47.3059" lon="-2.39946">
        <ele>76</ele>
        <time>2011-04-24T13:58:34Z</time>
      </trkpt>
      <trkpt lat="47.30585" lon="-2.39941">
        <ele>76</ele>
        <time>2011-04-24T13:58:35Z</time>
      </trkpt>
      <trkpt lat="47.3058" lon="-2.39934">
        <ele>76</ele>
        <time>2011-04-24T13:58:36Z</time>
      </trkpt>
      <trkpt lat="47.30575" lon="-2.39928">
        <ele>76</ele>
        <time>2011-04-24T13:58:37Z</time>
      </trkpt>
      <trkpt lat="47.3057" lon="-2.39923">
        <ele>75</ele>
        <time>2011-04-24T13:58:38Z</time>
      </trkpt>
      <trkpt lat="47.30565" lon="-2.39917">
        <ele>75</ele>
        <time>2011-04-24T13:58:39Z</time>
      </trkpt>
      <trkpt lat="47.3056" lon="-2.39912">
        <ele>75</ele>
        <time>2011-04-24T13:58:40Z</time>
      </trkpt>
      <trkpt lat="47.30555" lon="-2.39906">
        <ele>75</ele>
        <time>2011-04-24T13:58:41Z</time>
      </trkpt>
      <trkpt lat="47.3055" lon="-2.39901">
        <ele>75</ele>
        <time>2011-04-24T13:58:42Z</time>
      </trkpt>
      <trkpt lat="47.30545" lon="-2.39895">
        <ele>75</ele>
        <time>2011-04-24T13:58:43Z</time>
      </trkpt>
      <trkpt lat="47.3054" lon="-2.39889">
        <ele>74</ele>
        <time>2011-04-24T13:58:44Z</time>
      </trkpt>
      <trkpt lat="47.30535" lon="-2.39882">
        <ele>74</ele>
        <time>2011-04-24T13:58:45Z</time>
      </trkpt>
      <trkpt lat="47.30531" lon="-2.39876">
        <ele>74</ele>
        <time>2011-04-24T13:58:46Z</time>
      </trkpt>
      <trkpt lat="47.30527" lon="-2.39871">
        <ele>74</ele>
        <time>2011-04-24T13:58:47Z</time>
      </trkpt>
      <trkpt lat="47.30521" lon="-2.39865">
        <ele>73</ele>
        <time>2011-04-24T13:58:48Z</time>
      </trkpt>
      <trkpt lat="47.30516" lon="-2.3986">
        <ele>74</ele>
        <time>2011-04-24T13:58:49Z</time>
      </trkpt>
      <trkpt lat="47.30512" lon="-2.39854">
        <ele>74</ele>
        <time>2011-04-24T13:58:50Z</time>
      </trkpt>
      <trkpt lat="47.30507" lon="-2.39849">
        <ele>74</ele>
        <time>2011-04-24T13:58:51Z</time>
      </trkpt>
      <trkpt lat="47.30502" lon="-2.39844">
        <ele>73</ele>
        <time>2011-04-24T13:58:52Z</time>
      </trkpt>
      <trkpt lat="47.30497" lon="-2.39838">
        <ele>73</ele>
        <time>2011-04-24T13:58:53Z</time>
      </trkpt>
      <trkpt lat="47.30492" lon="-2.39832">
        <ele>74</ele>
        <time>2011-04-24T13:58:54Z</time>
      </trkpt>
      <trkpt lat="47.30488" lon="-2.39826">
        <ele>73</ele>
        <time>2011-04-24T13:58:55Z</time>
      </trkpt>
      <trkpt lat="47.30482" lon="-2.39821">
        <ele>73</ele>
        <time>2011-04-24T13:58:56Z</time>
      </trkpt>
      <trkpt lat="47.30477" lon="-2.39815">
        <ele>73</ele>
        <time>2011-04-24T13:58:57Z</time>
      </trkpt>
      <trkpt lat="47.30472" lon="-2.3981">
        <ele>74</ele>
        <time>2011-04-24T13:58:58Z</time>
      </trkpt>
      <trkpt lat="47.30467" lon="-2.39805">
        <ele>74</ele>
        <time>2011-04-24T13:58:59Z</time>
      </trkpt>
      <trkpt lat="47.30462" lon="-2.39799">
        <ele>74</ele>
        <time>2011-04-24T13:59:00Z</time>
      </trkpt>
      <trkpt lat="47.30457" lon="-2.39794">
        <ele>74</ele>
        <time>2011-04-24T13:59:01Z</time>
      </trkpt>
      <trkpt lat="47.30452" lon="-2.39788">
        <ele>74</ele>
        <time>2011-04-24T13:59:02Z</time>
      </trkpt>
      <trkpt lat="47.30447" lon="-2.39783">
        <ele>74</ele>
        <time>2011-04-24T13:59:03Z</time>
      </trkpt>
      <trkpt lat="47.30441" lon="-2.39779">
        <ele>74</ele>
        <time>2011-04-24T13:59:04Z</time>
      </trkpt>
      <trkpt lat="47.30436" lon="-2.39774">
        <ele>74</ele>
        <time>2011-04-24T13:59:05Z</time>
      </trkpt>
      <trkpt lat="47.3043" lon="-2.3977">
        <ele>74</ele>
        <time>2011-04-24T13:59:06Z</time>
      </trkpt>
      <trkpt lat="47.30424" lon="-2.39765">
        <ele>74</ele>
        <time>2011-04-24T13:59:07Z</time>
      </trkpt>
      <trkpt lat="47.30418" lon="-2.3976">
        <ele>73</ele>
        <time>2011-04-24T13:59:08Z</time>
      </trkpt>
      <trkpt lat="47.30413" lon="-2.39756">
        <ele>73</ele>
        <time>2011-04-24T13:59:09Z</time>
      </trkpt>
      <trkpt lat="47.30408" lon="-2.39752">
        <ele>73</ele>
        <time>2011-04-24T13:59:10Z</time>
      </trkpt>
      <trkpt lat="47.30402" lon="-2.39749">
        <ele>73</ele>
        <time>2011-04-24T13:59:11Z</time>
      </trkpt>
      <trkpt lat="47.30397" lon="-2.39745">
        <ele>72</ele>
        <time>2011-04-24T13:59:12Z</time>
      </trkpt>
      <trkpt lat="47.30391" lon="-2.39741">
        <ele>72</ele>
        <time>2011-04-24T13:59:13Z</time>
      </trkpt>
      <trkpt lat="47.30386" lon="-2.39738">
        <ele>72</ele>
        <time>2011-04-24T13:59:14Z</time>
      </trkpt>
      <trkpt lat="47.3038" lon="-2.39734">
        <ele>72</ele>
        <time>2011-04-24T13:59:15Z</time>
      </trkpt>
      <trkpt lat="47.30374" lon="-2.3973">
        <ele>73</ele>
        <time>2011-04-24T13:59:16Z</time>
      </trkpt>
      <trkpt lat="47.30368" lon="-2.39727">
        <ele>72</ele>
        <time>2011-04-24T13:59:17Z</time>
      </trkpt>
      <trkpt lat="47.30362" lon="-2.39723">
        <ele>70</ele>
        <time>2011-04-24T13:59:18Z</time>
      </trkpt>
      <trkpt lat="47.30356" lon="-2.39719">
        <ele>69</ele>
        <time>2011-04-24T13:59:19Z</time>
      </trkpt>
      <trkpt lat="47.30351" lon="-2.39715">
        <ele>69</ele>
        <time>2011-04-24T13:59:20Z</time>
      </trkpt>
      <trkpt lat="47.30345" lon="-2.39713">
        <ele>69</ele>
        <time>2011-04-24T13:59:21Z</time>
      </trkpt>
      <trkpt lat="47.3034" lon="-2.3971">
        <ele>69</ele>
        <time>2011-04-24T13:59:22Z</time>
      </trkpt>
      <trkpt lat="47.30334" lon="-2.39707">
        <ele>69</ele>
        <time>2011-04-24T13:59:23Z</time>
      </trkpt>
      <trkpt lat="47.30327" lon="-2.39704">
        <ele>68</ele>
        <time>2011-04-24T13:59:24Z</time>
      </trkpt>
      <trkpt lat="47.30321" lon="-2.39702">
        <ele>68</ele>
        <time>2011-04-24T13:59:25Z</time>
      </trkpt>
      <trkpt lat="47.30315" lon="-2.39699">
        <ele>69</ele>
        <time>2011-04-24T13:59:26Z</time>
      </trkpt>
      <trkpt lat="47.30309" lon="-2.39696">
        <ele>69</ele>
        <time>2011-04-24T13:59:27Z</time>
      </trkpt>
      <trkpt lat="47.30304" lon="-2.39695">
        <ele>69</ele>
        <time>2011-04-24T13:59:28Z</time>
      </trkpt>
      <trkpt lat="47.30298" lon="-2.39694">
        <ele>69</ele>
        <time>2011-04-24T13:59:29Z</time>
      </trkpt>
      <trkpt lat="47.30292" lon="-2.39692">
        <ele>69</ele>
        <time>2011-04-24T13:59:30Z</time>
      </trkpt>
      <trkpt lat="47.30285" lon="-2.39689">
        <ele>67</ele>
        <time>2011-04-24T13:59:31Z</time>
      </trkpt>
      <trkpt lat="47.30279" lon="-2.39687">
        <ele>66</ele>
        <time>2011-04-24T13:59:32Z</time>
      </trkpt>
      <trkpt lat="47.30274" lon="-2.39684">
        <ele>66</ele>
        <time>2011-04-24T13:59:33Z</time>
      </trkpt>
      <trkpt lat="47.30268" lon="-2.39683">
        <ele>66</ele>
        <time>2011-04-24T13:59:34Z</time>
      </trkpt>
      <trkpt lat="47.30261" lon="-2.39683">
        <ele>65</ele>
        <time>2011-04-24T13:59:35Z</time>
      </trkpt>
      <trkpt lat="47.30254" lon="-2.39682">
        <ele>65</ele>
        <time>2011-04-24T13:59:36Z</time>
      </trkpt>
      <trkpt lat="47.30249" lon="-2.39682">
        <ele>65</ele>
        <time>2011-04-24T13:59:37Z</time>
      </trkpt>
      <trkpt lat="47.30244" lon="-2.39682">
        <ele>65</ele>
        <time>2011-04-24T13:59:38Z</time>
      </trkpt>
      <trkpt lat="47.30238" lon="-2.39681">
        <ele>65</ele>
        <time>2011-04-24T13:59:39Z</time>
      </trkpt>
      <trkpt lat="47.30232" lon="-2.39678">
        <ele>64</ele>
        <time>2011-04-24T13:59:40Z</time>
      </trkpt>
      <trkpt lat="47.30226" lon="-2.39675">
        <ele>64</ele>
        <time>2011-04-24T13:59:41Z</time>
      </trkpt>
      <trkpt lat="47.30221" lon="-2.39674">
        <ele>64</ele>
        <time>2011-04-24T13:59:42Z</time>
      </trkpt>
      <trkpt lat="47.30215" lon="-2.39672">
        <ele>65</ele>
        <time>2011-04-24T13:59:43Z</time>
      </trkpt>
      <trkpt lat="47.30208" lon="-2.39672">
        <ele>65</ele>
        <time>2011-04-24T13:59:44Z</time>
      </trkpt>
      <trkpt lat="47.302" lon="-2.39671">
        <ele>64</ele>
        <time>2011-04-24T13:59:45Z</time>
      </trkpt>
      <trkpt lat="47.30194" lon="-2.39671">
        <ele>64</ele>
        <time>2011-04-24T13:59:46Z</time>
      </trkpt>
      <trkpt lat="47.30187" lon="-2.3967">
        <ele>64</ele>
        <time>2011-04-24T13:59:47Z</time>
      </trkpt>
      <trkpt lat="47.30181" lon="-2.39669">
        <ele>63</ele>
        <time>2011-04-24T13:59:48Z</time>
      </trkpt>
      <trkpt lat="47.30175" lon="-2.39668">
        <ele>63</ele>
        <time>2011-04-24T13:59:49Z</time>
      </trkpt>
      <trkpt lat="47.3017" lon="-2.39667">
        <ele>63</ele>
        <time>2011-04-24T13:59:50Z</time>
      </trkpt>
      <trkpt lat="47.30164" lon="-2.39665">
        <ele>64</ele>
        <time>2011-04-24T13:59:51Z</time>
      </trkpt>
      <trkpt lat="47.30158" lon="-2.39664">
        <ele>65</ele>
        <time>2011-04-24T13:59:52Z</time>
      </trkpt>
      <trkpt lat="47.30152" lon="-2.39663">
        <ele>65</ele>
        <time>2011-04-24T13:59:53Z</time>
      </trkpt>
      <trkpt lat="47.30146" lon="-2.39662">
        <ele>64</ele>
        <time>2011-04-24T13:59:54Z</time>
      </trkpt>
      <trkpt lat="47.3014" lon="-2.39661">
        <ele>65</ele>
        <time>2011-04-24T13:59:55Z</time>
      </trkpt>
      <trkpt lat="47.30134" lon="-2.3966">
        <ele>65</ele>
        <time>2011-04-24T13:59:56Z</time>
      </trkpt>
      <trkpt lat="47.30128" lon="-2.39658">
        <ele>65</ele>
        <time>2011-04-24T13:59:57Z</time>
      </trkpt>
      <trkpt lat="47.30122" lon="-2.39657">
        <ele>65</ele>
        <time>2011-04-24T13:59:58Z</time>
      </trkpt>
      <trkpt lat="47.30116" lon="-2.39655">
        <ele>65</ele>
        <time>2011-04-24T13:59:59Z</time>
      </trkpt>
      <trkpt lat="47.3011" lon="-2.39654">
        <ele>65</ele>
        <time>2011-04-24T14:00:00Z</time>
      </trkpt>
      <trkpt lat="47.30104" lon="-2.39653">
        <ele>66</ele>
        <time>2011-04-24T14:00:01Z</time>
      </trkpt>
      <trkpt lat="47.30099" lon="-2.39652">
        <ele>66</ele>
        <time>2011-04-24T14:00:02Z</time>
      </trkpt>
      <trkpt lat="47.30093" lon="-2.39652">
        <ele>65</ele>
        <time>2011-04-24T14:00:03Z</time>
      </trkpt>
      <trkpt lat="47.30087" lon="-2.39649">
        <ele>66</ele>
        <time>2011-04-24T14:00:04Z</time>
      </trkpt>
      <trkpt lat="47.30081" lon="-2.39648">
        <ele>65</ele>
        <time>2011-04-24T14:00:05Z</time>
      </trkpt>
      <trkpt lat="47.30075" lon="-2.39647">
        <ele>66</ele>
        <time>2011-04-24T14:00:06Z</time>
      </trkpt>
      <trkpt lat="47.30069" lon="-2.39646">
        <ele>66</ele>
        <time>2011-04-24T14:00:07Z</time>
      </trkpt>
      <trkpt lat="47.30063" lon="-2.39645">
        <ele>66</ele>
        <time>2011-04-24T14:00:08Z</time>
      </trkpt>
      <trkpt lat="47.30057" lon="-2.39644">
        <ele>66</ele>
        <time>2011-04-24T14:00:09Z</time>
      </trkpt>
      <trkpt lat="47.30051" lon="-2.39642">
        <ele>66</ele>
        <time>2011-04-24T14:00:10Z</time>
      </trkpt>
      <trkpt lat="47.30045" lon="-2.39641">
        <ele>65</ele>
        <time>2011-04-24T14:00:11Z</time>
      </trkpt>
      <trkpt lat="47.30039" lon="-2.39641">
        <ele>66</ele>
        <time>2011-04-24T14:00:12Z</time>
      </trkpt>
      <trkpt lat="47.30034" lon="-2.3964">
        <ele>67</ele>
        <time>2011-04-24T14:00:13Z</time>
      </trkpt>
      <trkpt lat="47.30023" lon="-2.39637">
        <ele>66</ele>
        <time>2011-04-24T14:00:15Z</time>
      </trkpt>
      <trkpt lat="47.30016" lon="-2.39635">
        <ele>66</ele>
        <time>2011-04-24T14:00:16Z</time>
      </trkpt>
      <trkpt lat="47.30011" lon="-2.39634">
        <ele>66</ele>
        <time>2011-04-24T14:00:17Z</time>
      </trkpt>
      <trkpt lat="47.30006" lon="-2.39632">
        <ele>66</ele>
        <time>2011-04-24T14:00:18Z</time>
      </trkpt>
      <trkpt lat="47.3" lon="-2.39631">
        <ele>66</ele>
        <time>2011-04-24T14:00:19Z</time>
      </trkpt>
      <trkpt lat="47.29995" lon="-2.39631">
        <ele>67</ele>
        <time>2011-04-24T14:00:20Z</time>
      </trkpt>
      <trkpt lat="47.29989" lon="-2.3963">
        <ele>66</ele>
        <time>2011-04-24T14:00:21Z</time>
      </trkpt>
      <trkpt lat="47.29984" lon="-2.3963">
        <ele>67</ele>
        <time>2011-04-24T14:00:22Z</time>
      </trkpt>
      <trkpt lat="47.29979" lon="-2.39628">
        <ele>67</ele>
        <time>2011-04-24T14:00:23Z</time>
      </trkpt>
      <trkpt lat="47.29974" lon="-2.39626">
        <ele>67</ele>
        <time>2011-04-24T14:00:24Z</time>
      </trkpt>
      <trkpt lat="47.29967" lon="-2.39627">
        <ele>67</ele>
        <time>2011-04-24T14:00:25Z</time>
      </trkpt>
      <trkpt lat="47.29962" lon="-2.39626">
        <ele>67</ele>
        <time>2011-04-24T14:00:26Z</time>
      </trkpt>
      <trkpt lat="47.29955" lon="-2.39628">
        <ele>66</ele>
        <time>2011-04-24T14:00:28Z</time>
      </trkpt>
      <trkpt lat="47.29951" lon="-2.39623">
        <ele>65</ele>
        <time>2011-04-24T14:00:29Z</time>
      </trkpt>
      <trkpt lat="47.29946" lon="-2.39622">
        <ele>65</ele>
        <time>2011-04-24T14:00:30Z</time>
      </trkpt>
      <trkpt lat="47.2994" lon="-2.3962">
        <ele>65</ele>
        <time>2011-04-24T14:00:33Z</time>
      </trkpt>
      <trkpt lat="47.29936" lon="-2.3962">
        <ele>64</ele>
        <time>2011-04-24T14:00:35Z</time>
      </trkpt>
      <trkpt lat="47.29927" lon="-2.39618">
        <ele>64</ele>
        <time>2011-04-24T14:00:37Z</time>
      </trkpt>
      <trkpt lat="47.29918" lon="-2.39617">
        <ele>64</ele>
        <time>2011-04-24T14:00:39Z</time>
      </trkpt>
      <trkpt lat="47.29913" lon="-2.39617">
        <ele>65</ele>
        <time>2011-04-24T14:00:40Z</time>
      </trkpt>
      <trkpt lat="47.29908" lon="-2.39616">
        <ele>65</ele>
        <time>2011-04-24T14:00:41Z</time>
      </trkpt>
      <trkpt lat="47.29902" lon="-2.39616">
        <ele>65</ele>
        <time>2011-04-24T14:00:42Z</time>
      </trkpt>
      <trkpt lat="47.29897" lon="-2.39615">
        <ele>65</ele>
        <time>2011-04-24T14:00:43Z</time>
      </trkpt>
      <trkpt lat="47.29892" lon="-2.39614">
        <ele>64</ele>
        <time>2011-04-24T14:00:44Z</time>
      </trkpt>
      <trkpt lat="47.29886" lon="-2.39612">
        <ele>63</ele>
        <time>2011-04-24T14:00:45Z</time>
      </trkpt>
      <trkpt lat="47.29879" lon="-2.39611">
        <ele>63</ele>
        <time>2011-04-24T14:00:46Z</time>
      </trkpt>
      <trkpt lat="47.29873" lon="-2.3961">
        <ele>63</ele>
        <time>2011-04-24T14:00:47Z</time>
      </trkpt>
      <trkpt lat="47.29867" lon="-2.39609">
        <ele>63</ele>
        <time>2011-04-24T14:00:48Z</time>
      </trkpt>
      <trkpt lat="47.29861" lon="-2.39608">
        <ele>63</ele>
        <time>2011-04-24T14:00:49Z</time>
      </trkpt>
      <trkpt lat="47.29854" lon="-2.39606">
        <ele>63</ele>
        <time>2011-04-24T14:00:50Z</time>
      </trkpt>
      <trkpt lat="47.29849" lon="-2.39605">
        <ele>63</ele>
        <time>2011-04-24T14:00:51Z</time>
      </trkpt>
      <trkpt lat="47.29842" lon="-2.39604">
        <ele>62</ele>
        <time>2011-04-24T14:00:52Z</time>
      </trkpt>
      <trkpt lat="47.29835" lon="-2.39603">
        <ele>62</ele>
        <time>2011-04-24T14:00:53Z</time>
      </trkpt>
      <trkpt lat="47.29829" lon="-2.39602">
        <ele>62</ele>
        <time>2011-04-24T14:00:54Z</time>
      </trkpt>
      <trkpt lat="47.29822" lon="-2.39601">
        <ele>61</ele>
        <time>2011-04-24T14:00:55Z</time>
      </trkpt>
      <trkpt lat="47.29815" lon="-2.39599">
        <ele>61</ele>
        <time>2011-04-24T14:00:56Z</time>
      </trkpt>
      <trkpt lat="47.29809" lon="-2.39596">
        <ele>61</ele>
        <time>2011-04-24T14:00:57Z</time>
      </trkpt>
      <trkpt lat="47.29803" lon="-2.39595">
        <ele>61</ele>
        <time>2011-04-24T14:00:58Z</time>
      </trkpt>
      <trkpt lat="47.29797" lon="-2.39594">
        <ele>61</ele>
        <time>2011-04-24T14:00:59Z</time>
      </trkpt>
      <trkpt lat="47.29791" lon="-2.39593">
        <ele>60</ele>
        <time>2011-04-24T14:01:00Z</time>
      </trkpt>
      <trkpt lat="47.29785" lon="-2.39592">
        <ele>60</ele>
        <time>2011-04-24T14:01:01Z</time>
      </trkpt>
      <trkpt lat="47.2978" lon="-2.39591">
        <ele>60</ele>
        <time>2011-04-24T14:01:02Z</time>
      </trkpt>
      <trkpt lat="47.29774" lon="-2.3959">
        <ele>60</ele>
        <time>2011-04-24T14:01:03Z</time>
      </trkpt>
      <trkpt lat="47.29767" lon="-2.39589">
        <ele>60</ele>
        <time>2011-04-24T14:01:04Z</time>
      </trkpt>
      <trkpt lat="47.29761" lon="-2.39588">
        <ele>60</ele>
        <time>2011-04-24T14:01:05Z</time>
      </trkpt>
      <trkpt lat="47.29755" lon="-2.39587">
        <ele>60</ele>
        <time>2011-04-24T14:01:06Z</time>
      </trkpt>
      <trkpt lat="47.29749" lon="-2.39585">
        <ele>60</ele>
        <time>2011-04-24T14:01:07Z</time>
      </trkpt>
      <trkpt lat="47.29742" lon="-2.39584">
        <ele>60</ele>
        <time>2011-04-24T14:01:08Z</time>
      </trkpt>
      <trkpt lat="47.29736" lon="-2.39583">
        <ele>60</ele>
        <time>2011-04-24T14:01:09Z</time>
      </trkpt>
      <trkpt lat="47.29731" lon="-2.39582">
        <ele>60</ele>
        <time>2011-04-24T14:01:10Z</time>
      </trkpt>
      <trkpt lat="47.29725" lon="-2.39581">
        <ele>60</ele>
        <time>2011-04-24T14:01:11Z</time>
      </trkpt>
      <trkpt lat="47.29719" lon="-2.39579">
        <ele>60</ele>
        <time>2011-04-24T14:01:12Z</time>
      </trkpt>
      <trkpt lat="47.29714" lon="-2.39578">
        <ele>60</ele>
        <time>2011-04-24T14:01:13Z</time>
      </trkpt>
      <trkpt lat="47.29697" lon="-2.39573">
        <ele>60</ele>
        <time>2011-04-24T14:01:16Z</time>
      </trkpt>
      <trkpt lat="47.29692" lon="-2.39573">
        <ele>60</ele>
        <time>2011-04-24T14:01:17Z</time>
      </trkpt>
      <trkpt lat="47.29686" lon="-2.39571">
        <ele>60</ele>
        <time>2011-04-24T14:01:18Z</time>
      </trkpt>
      <trkpt lat="47.2968" lon="-2.39571">
        <ele>60</ele>
        <time>2011-04-24T14:01:19Z</time>
      </trkpt>
      <trkpt lat="47.29674" lon="-2.3957">
        <ele>60</ele>
        <time>2011-04-24T14:01:20Z</time>
      </trkpt>
      <trkpt lat="47.29668" lon="-2.39569">
        <ele>60</ele>
        <time>2011-04-24T14:01:21Z</time>
      </trkpt>
      <trkpt lat="47.29661" lon="-2.39568">
        <ele>60</ele>
        <time>2011-04-24T14:01:22Z</time>
      </trkpt>
      <trkpt lat="47.29656" lon="-2.39566">
        <ele>60</ele>
        <time>2011-04-24T14:01:23Z</time>
      </trkpt>
      <trkpt lat="47.29649" lon="-2.39565">
        <ele>60</ele>
        <time>2011-04-24T14:01:24Z</time>
      </trkpt>
      <trkpt lat="47.29643" lon="-2.39564">
        <ele>60</ele>
        <time>2011-04-24T14:01:25Z</time>
      </trkpt>
      <trkpt lat="47.29637" lon="-2.39562">
        <ele>60</ele>
        <time>2011-04-24T14:01:26Z</time>
      </trkpt>
      <trkpt lat="47.2963" lon="-2.39561">
        <ele>61</ele>
        <time>2011-04-24T14:01:27Z</time>
      </trkpt>
      <trkpt lat="47.29624" lon="-2.39561">
        <ele>61</ele>
        <time>2011-04-24T14:01:28Z</time>
      </trkpt>
      <trkpt lat="47.29618" lon="-2.39559">
        <ele>60</ele>
        <time>2011-04-24T14:01:29Z</time>
      </trkpt>
      <trkpt lat="47.29614" lon="-2.39558">
        <ele>60</ele>
        <time>2011-04-24T14:01:30Z</time>
      </trkpt>
      <trkpt lat="47.29609" lon="-2.39557">
        <ele>61</ele>
        <time>2011-04-24T14:01:31Z</time>
      </trkpt>
      <trkpt lat="47.29601" lon="-2.39555">
        <ele>60</ele>
        <time>2011-04-24T14:01:33Z</time>
      </trkpt>
      <trkpt lat="47.29596" lon="-2.39554">
        <ele>61</ele>
        <time>2011-04-24T14:01:35Z</time>
      </trkpt>
      <trkpt lat="47.29591" lon="-2.39552">
        <ele>61</ele>
        <time>2011-04-24T14:01:38Z</time>
      </trkpt>
      <trkpt lat="47.29585" lon="-2.39551">
        <ele>61</ele>
        <time>2011-04-24T14:01:41Z</time>
      </trkpt>
      <trkpt lat="47.29578" lon="-2.3955">
        <ele>61</ele>
        <time>2011-04-24T14:01:43Z</time>
      </trkpt>
      <trkpt lat="47.29573" lon="-2.3955">
        <ele>61</ele>
        <time>2011-04-24T14:01:44Z</time>
      </trkpt>
      <trkpt lat="47.29568" lon="-2.39548">
        <ele>61</ele>
        <time>2011-04-24T14:01:45Z</time>
      </trkpt>
      <trkpt lat="47.29561" lon="-2.39545">
        <ele>61</ele>
        <time>2011-04-24T14:01:47Z</time>
      </trkpt>
      <trkpt lat="47.29556" lon="-2.39542">
        <ele>61</ele>
        <time>2011-04-24T14:01:49Z</time>
      </trkpt>
      <trkpt lat="47.29558" lon="-2.39535">
        <ele>60</ele>
        <time>2011-04-24T14:01:51Z</time>
      </trkpt>
      <trkpt lat="47.29565" lon="-2.39528">
        <ele>60</ele>
        <time>2011-04-24T14:01:53Z</time>
      </trkpt>
      <trkpt lat="47.29561" lon="-2.39518">
        <ele>59</ele>
        <time>2011-04-24T14:01:55Z</time>
      </trkpt>
      <trkpt lat="47.29557" lon="-2.39515">
        <ele>59</ele>
        <time>2011-04-24T14:01:56Z</time>
      </trkpt>
      <trkpt lat="47.29552" lon="-2.39513">
        <ele>59</ele>
        <time>2011-04-24T14:01:57Z</time>
      </trkpt>
      <trkpt lat="47.2955" lon="-2.39505">
        <ele>59</ele>
        <time>2011-04-24T14:01:59Z</time>
      </trkpt>
      <trkpt lat="47.29556" lon="-2.39503">
        <ele>60</ele>
        <time>2011-04-24T14:02:00Z</time>
      </trkpt>
      <trkpt lat="47.29561" lon="-2.39501">
        <ele>59</ele>
        <time>2011-04-24T14:02:02Z</time>
      </trkpt>
      <trkpt lat="47.29566" lon="-2.39496">
        <ele>58</ele>
        <time>2011-04-24T14:02:04Z</time>
      </trkpt>
      <trkpt lat="47.29572" lon="-2.39498">
        <ele>59</ele>
        <time>2011-04-24T14:02:06Z</time>
      </trkpt>
      <trkpt lat="47.29579" lon="-2.39502">
        <ele>59</ele>
        <time>2011-04-24T14:02:08Z</time>
      </trkpt>
      <trkpt lat="47.29583" lon="-2.39499">
        <ele>59</ele>
        <time>2011-04-24T14:02:09Z</time>
      </trkpt>
      <trkpt lat="47.29591" lon="-2.39496">
        <ele>58</ele>
        <time>2011-04-24T14:02:11Z</time>
      </trkpt>
      <trkpt lat="47.29595" lon="-2.39493">
        <ele>58</ele>
        <time>2011-04-24T14:02:12Z</time>
      </trkpt>
      <trkpt lat="47.29607" lon="-2.39474">
        <ele>58</ele>
        <time>2011-04-24T14:02:16Z</time>
      </trkpt>
      <trkpt lat="47.2961" lon="-2.3947">
        <ele>58</ele>
        <time>2011-04-24T14:02:17Z</time>
      </trkpt>
      <trkpt lat="47.29613" lon="-2.39465">
        <ele>58</ele>
        <time>2011-04-24T14:02:18Z</time>
      </trkpt>
      <trkpt lat="47.29616" lon="-2.3946">
        <ele>57</ele>
        <time>2011-04-24T14:02:19Z</time>
      </trkpt>
      <trkpt lat="47.2962" lon="-2.39454">
        <ele>57</ele>
        <time>2011-04-24T14:02:20Z</time>
      </trkpt>
      <trkpt lat="47.29622" lon="-2.39449">
        <ele>57</ele>
        <time>2011-04-24T14:02:21Z</time>
      </trkpt>
      <trkpt lat="47.29625" lon="-2.39443">
        <ele>57</ele>
        <time>2011-04-24T14:02:22Z</time>
      </trkpt>
      <trkpt lat="47.29628" lon="-2.3943">
        <ele>56</ele>
        <time>2011-04-24T14:02:24Z</time>
      </trkpt>
      <trkpt lat="47.29629" lon="-2.39417">
        <ele>55</ele>
        <time>2011-04-24T14:02:26Z</time>
      </trkpt>
      <trkpt lat="47.29629" lon="-2.3941">
        <ele>56</ele>
        <time>2011-04-24T14:02:27Z</time>
      </trkpt>
      <trkpt lat="47.2963" lon="-2.39398">
        <ele>55</ele>
        <time>2011-04-24T14:02:29Z</time>
      </trkpt>
      <trkpt lat="47.29629" lon="-2.39387">
        <ele>56</ele>
        <time>2011-04-24T14:02:31Z</time>
      </trkpt>
      <trkpt lat="47.2963" lon="-2.3938">
        <ele>56</ele>
        <time>2011-04-24T14:02:32Z</time>
      </trkpt>
      <trkpt lat="47.2963" lon="-2.39366">
        <ele>56</ele>
        <time>2011-04-24T14:02:34Z</time>
      </trkpt>
      <trkpt lat="47.2963" lon="-2.39359">
        <ele>56</ele>
        <time>2011-04-24T14:02:35Z</time>
      </trkpt>
      <trkpt lat="47.29631" lon="-2.39347">
        <ele>57</ele>
        <time>2011-04-24T14:02:37Z</time>
      </trkpt>
      <trkpt lat="47.29634" lon="-2.39337">
        <ele>58</ele>
        <time>2011-04-24T14:02:39Z</time>
      </trkpt>
      <trkpt lat="47.29634" lon="-2.39324">
        <ele>58</ele>
        <time>2011-04-24T14:02:41Z</time>
      </trkpt>
      <trkpt lat="47.29635" lon="-2.39316">
        <ele>58</ele>
        <time>2011-04-24T14:02:42Z</time>
      </trkpt>
      <trkpt lat="47.29635" lon="-2.39308">
        <ele>58</ele>
        <time>2011-04-24T14:02:43Z</time>
      </trkpt>
      <trkpt lat="47.29635" lon="-2.39296">
        <ele>58</ele>
        <time>2011-04-24T14:02:45Z</time>
      </trkpt>
      <trkpt lat="47.29637" lon="-2.39284">
        <ele>58</ele>
        <time>2011-04-24T14:02:47Z</time>
      </trkpt>
      <trkpt lat="47.29638" lon="-2.39272">
        <ele>59</ele>
        <time>2011-04-24T14:02:49Z</time>
      </trkpt>
      <trkpt lat="47.2964" lon="-2.39265">
        <ele>58</ele>
        <time>2011-04-24T14:02:50Z</time>
      </trkpt>
      <trkpt lat="47.29643" lon="-2.39254">
        <ele>58</ele>
        <time>2011-04-24T14:02:52Z</time>
      </trkpt>
      <trkpt lat="47.29648" lon="-2.39243">
        <ele>59</ele>
        <time>2011-04-24T14:02:54Z</time>
      </trkpt>
      <trkpt lat="47.29646" lon="-2.39235">
        <ele>58</ele>
        <time>2011-04-24T14:02:55Z</time>
      </trkpt>
      <trkpt lat="47.29646" lon="-2.39224">
        <ele>59</ele>
        <time>2011-04-24T14:02:57Z</time>
      </trkpt>
      <trkpt lat="47.29647" lon="-2.39215">
        <ele>58</ele>
        <time>2011-04-24T14:02:58Z</time>
      </trkpt>
      <trkpt lat="47.29648" lon="-2.39208">
        <ele>57</ele>
        <time>2011-04-24T14:02:59Z</time>
      </trkpt>
      <trkpt lat="47.29648" lon="-2.39197">
        <ele>57</ele>
        <time>2011-04-24T14:03:01Z</time>
      </trkpt>
      <trkpt lat="47.29653" lon="-2.39194">
        <ele>56</ele>
        <time>2011-04-24T14:03:02Z</time>
      </trkpt>
      <trkpt lat="47.29658" lon="-2.39192">
        <ele>57</ele>
        <time>2011-04-24T14:03:03Z</time>
      </trkpt>
      <trkpt lat="47.29665" lon="-2.39187">
        <ele>57</ele>
        <time>2011-04-24T14:03:05Z</time>
      </trkpt>
      <trkpt lat="47.29673" lon="-2.39185">
        <ele>57</ele>
        <time>2011-04-24T14:03:07Z</time>
      </trkpt>
      <trkpt lat="47.29678" lon="-2.39184">
        <ele>56</ele>
        <time>2011-04-24T14:03:08Z</time>
      </trkpt>
      <trkpt lat="47.29685" lon="-2.39182">
        <ele>56</ele>
        <time>2011-04-24T14:03:10Z</time>
      </trkpt>
      <trkpt lat="47.29693" lon="-2.39179">
        <ele>56</ele>
        <time>2011-04-24T14:03:12Z</time>
      </trkpt>
      <trkpt lat="47.29708" lon="-2.39172">
        <ele>56</ele>
        <time>2011-04-24T14:03:16Z</time>
      </trkpt>
      <trkpt lat="47.29712" lon="-2.39169">
        <ele>56</ele>
        <time>2011-04-24T14:03:17Z</time>
      </trkpt>
      <trkpt lat="47.2972" lon="-2.39164">
        <ele>55</ele>
        <time>2011-04-24T14:03:19Z</time>
      </trkpt>
      <trkpt lat="47.29727" lon="-2.3916">
        <ele>54</ele>
        <time>2011-04-24T14:03:21Z</time>
      </trkpt>
      <trkpt lat="47.29732" lon="-2.39158">
        <ele>55</ele>
        <time>2011-04-24T14:03:22Z</time>
      </trkpt>
      <trkpt lat="47.2974" lon="-2.39153">
        <ele>55</ele>
        <time>2011-04-24T14:03:24Z</time>
      </trkpt>
      <trkpt lat="47.29748" lon="-2.39149">
        <ele>56</ele>
        <time>2011-04-24T14:03:26Z</time>
      </trkpt>
      <trkpt lat="47.29756" lon="-2.39145">
        <ele>56</ele>
        <time>2011-04-24T14:03:28Z</time>
      </trkpt>
      <trkpt lat="47.29763" lon="-2.39141">
        <ele>56</ele>
        <time>2011-04-24T14:03:30Z</time>
      </trkpt>
      <trkpt lat="47.29771" lon="-2.39137">
        <ele>56</ele>
        <time>2011-04-24T14:03:32Z</time>
      </trkpt>
      <trkpt lat="47.29778" lon="-2.39133">
        <ele>56</ele>
        <time>2011-04-24T14:03:34Z</time>
      </trkpt>
      <trkpt lat="47.29786" lon="-2.3913">
        <ele>58</ele>
        <time>2011-04-24T14:03:36Z</time>
      </trkpt>
      <trkpt lat="47.29793" lon="-2.39126">
        <ele>58</ele>
        <time>2011-04-24T14:03:38Z</time>
      </trkpt>
      <trkpt lat="47.298" lon="-2.39123">
        <ele>59</ele>
        <time>2011-04-24T14:03:40Z</time>
      </trkpt>
      <trkpt lat="47.29807" lon="-2.39119">
        <ele>60</ele>
        <time>2011-04-24T14:03:42Z</time>
      </trkpt>
      <trkpt lat="47.29815" lon="-2.39115">
        <ele>60</ele>
        <time>2011-04-24T14:03:44Z</time>
      </trkpt>
      <trkpt lat="47.29822" lon="-2.39111">
        <ele>61</ele>
        <time>2011-04-24T14:03:46Z</time>
      </trkpt>
      <trkpt lat="47.29829" lon="-2.39107">
        <ele>61</ele>
        <time>2011-04-24T14:03:48Z</time>
      </trkpt>
      <trkpt lat="47.29836" lon="-2.39103">
        <ele>61</ele>
        <time>2011-04-24T14:03:50Z</time>
      </trkpt>
      <trkpt lat="47.29844" lon="-2.391">
        <ele>61</ele>
        <time>2011-04-24T14:03:52Z</time>
      </trkpt>
      <trkpt lat="47.29851" lon="-2.39095">
        <ele>61</ele>
        <time>2011-04-24T14:03:54Z</time>
      </trkpt>
      <trkpt lat="47.29858" lon="-2.39091">
        <ele>61</ele>
        <time>2011-04-24T14:03:56Z</time>
      </trkpt>
      <trkpt lat="47.29865" lon="-2.39086">
        <ele>61</ele>
        <time>2011-04-24T14:03:58Z</time>
      </trkpt>
      <trkpt lat="47.29872" lon="-2.3908">
        <ele>61</ele>
        <time>2011-04-24T14:04:00Z</time>
      </trkpt>
      <trkpt lat="47.29879" lon="-2.39074">
        <ele>60</ele>
        <time>2011-04-24T14:04:02Z</time>
      </trkpt>
      <trkpt lat="47.29886" lon="-2.39068">
        <ele>60</ele>
        <time>2011-04-24T14:04:04Z</time>
      </trkpt>
      <trkpt lat="47.29894" lon="-2.39063">
        <ele>61</ele>
        <time>2011-04-24T14:04:06Z</time>
      </trkpt>
      <trkpt lat="47.29901" lon="-2.39057">
        <ele>61</ele>
        <time>2011-04-24T14:04:08Z</time>
      </trkpt>
      <trkpt lat="47.29908" lon="-2.39052">
        <ele>61</ele>
        <time>2011-04-24T14:04:10Z</time>
      </trkpt>
      <trkpt lat="47.29915" lon="-2.39046">
        <ele>61</ele>
        <time>2011-04-24T14:04:12Z</time>
      </trkpt>
      <trkpt lat="47.29922" lon="-2.39041">
        <ele>61</ele>
        <time>2011-04-24T14:04:14Z</time>
      </trkpt>
      <trkpt lat="47.29929" lon="-2.39036">
        <ele>61</ele>
        <time>2011-04-24T14:04:16Z</time>
      </trkpt>
      <trkpt lat="47.29936" lon="-2.3903">
        <ele>61</ele>
        <time>2011-04-24T14:04:18Z</time>
      </trkpt>
      <trkpt lat="47.29942" lon="-2.39025">
        <ele>61</ele>
        <time>2011-04-24T14:04:20Z</time>
      </trkpt>
      <trkpt lat="47.2995" lon="-2.39021">
        <ele>60</ele>
        <time>2011-04-24T14:04:22Z</time>
      </trkpt>
      <trkpt lat="47.29957" lon="-2.39015">
        <ele>60</ele>
        <time>2011-04-24T14:04:24Z</time>
      </trkpt>
      <trkpt lat="47.29964" lon="-2.3901">
        <ele>60</ele>
        <time>2011-04-24T14:04:26Z</time>
      </trkpt>
      <trkpt lat="47.29972" lon="-2.39005">
        <ele>60</ele>
        <time>2011-04-24T14:04:28Z</time>
      </trkpt>
      <trkpt lat="47.29979" lon="-2.39">
        <ele>60</ele>
        <time>2011-04-24T14:04:30Z</time>
      </trkpt>
      <trkpt lat="47.29986" lon="-2.38996">
        <ele>60</ele>
        <time>2011-04-24T14:04:32Z</time>
      </trkpt>
      <trkpt lat="47.29992" lon="-2.38994">
        <ele>61</ele>
        <time>2011-04-24T14:04:34Z</time>
      </trkpt>
      <trkpt lat="47.29998" lon="-2.3899">
        <ele>61</ele>
        <time>2011-04-24T14:04:36Z</time>
      </trkpt>
      <trkpt lat="47.30001" lon="-2.38983">
        <ele>61</ele>
        <time>2011-04-24T14:04:38Z</time>
      </trkpt>
      <trkpt lat="47.30007" lon="-2.38977">
        <ele>60</ele>
        <time>2011-04-24T14:04:40Z</time>
      </trkpt>
      <trkpt lat="47.30014" lon="-2.38975">
        <ele>61</ele>
        <time>2011-04-24T14:04:42Z</time>
      </trkpt>
      <trkpt lat="47.30022" lon="-2.38975">
        <ele>61</ele>
        <time>2011-04-24T14:04:44Z</time>
      </trkpt>
      <trkpt lat="47.3003" lon="-2.38975">
        <ele>61</ele>
        <time>2011-04-24T14:04:46Z</time>
      </trkpt>
      <trkpt lat="47.30038" lon="-2.38971">
        <ele>62</ele>
        <time>2011-04-24T14:04:48Z</time>
      </trkpt>
      <trkpt lat="47.30044" lon="-2.38964">
        <ele>62</ele>
        <time>2011-04-24T14:04:50Z</time>
      </trkpt>
      <trkpt lat="47.30051" lon="-2.38959">
        <ele>62</ele>
        <time>2011-04-24T14:04:52Z</time>
      </trkpt>
      <trkpt lat="47.30057" lon="-2.38953">
        <ele>63</ele>
        <time>2011-04-24T14:04:54Z</time>
      </trkpt>
      <trkpt lat="47.30064" lon="-2.38946">
        <ele>62</ele>
        <time>2011-04-24T14:04:56Z</time>
      </trkpt>
      <trkpt lat="47.30071" lon="-2.38941">
        <ele>63</ele>
        <time>2011-04-24T14:04:58Z</time>
      </trkpt>
      <trkpt lat="47.30077" lon="-2.38938">
        <ele>63</ele>
        <time>2011-04-24T14:05:00Z</time>
      </trkpt>
      <trkpt lat="47.30083" lon="-2.38934">
        <ele>63</ele>
        <time>2011-04-24T14:05:02Z</time>
      </trkpt>
      <trkpt lat="47.30088" lon="-2.38931">
        <ele>64</ele>
        <time>2011-04-24T14:05:04Z</time>
      </trkpt>
      <trkpt lat="47.30093" lon="-2.38927">
        <ele>64</ele>
        <time>2011-04-24T14:05:06Z</time>
      </trkpt>
      <trkpt lat="47.30098" lon="-2.38921">
        <ele>64</ele>
        <time>2011-04-24T14:05:08Z</time>
      </trkpt>
      <trkpt lat="47.30102" lon="-2.38916">
        <ele>64</ele>
        <time>2011-04-24T14:05:10Z</time>
      </trkpt>
      <trkpt lat="47.30107" lon="-2.38912">
        <ele>64</ele>
        <time>2011-04-24T14:05:12Z</time>
      </trkpt>
      <trkpt lat="47.30111" lon="-2.38906">
        <ele>64</ele>
        <time>2011-04-24T14:05:14Z</time>
      </trkpt>
      <trkpt lat="47.30115" lon="-2.38903">
        <ele>64</ele>
        <time>2011-04-24T14:05:17Z</time>
      </trkpt>
      <trkpt lat="47.30114" lon="-2.38896">
        <ele>67</ele>
        <time>2011-04-24T14:06:58Z</time>
      </trkpt>
      <trkpt lat="47.30118" lon="-2.38891">
        <ele>66</ele>
        <time>2011-04-24T14:07:00Z</time>
      </trkpt>
      <trkpt lat="47.30122" lon="-2.38884">
        <ele>67</ele>
        <time>2011-04-24T14:07:03Z</time>
      </trkpt>
      <trkpt lat="47.30126" lon="-2.38878">
        <ele>66</ele>
        <time>2011-04-24T14:07:06Z</time>
      </trkpt>
      <trkpt lat="47.3013" lon="-2.38871">
        <ele>66</ele>
        <time>2011-04-24T14:07:09Z</time>
      </trkpt>
      <trkpt lat="47.30135" lon="-2.38865">
        <ele>67</ele>
        <time>2011-04-24T14:07:12Z</time>
      </trkpt>
      <trkpt lat="47.30139" lon="-2.38858">
        <ele>67</ele>
        <time>2011-04-24T14:07:15Z</time>
      </trkpt>
      <trkpt lat="47.30143" lon="-2.38852">
        <ele>68</ele>
        <time>2011-04-24T14:07:18Z</time>
      </trkpt>
      <trkpt lat="47.30146" lon="-2.38845">
        <ele>67</ele>
        <time>2011-04-24T14:07:21Z</time>
      </trkpt>
      <trkpt lat="47.30151" lon="-2.3884">
        <ele>67</ele>
        <time>2011-04-24T14:07:24Z</time>
      </trkpt>
      <trkpt lat="47.30153" lon="-2.38834">
        <ele>68</ele>
        <time>2011-04-24T14:07:27Z</time>
      </trkpt>
      <trkpt lat="47.30158" lon="-2.38828">
        <ele>67</ele>
        <time>2011-04-24T14:07:30Z</time>
      </trkpt>
      <trkpt lat="47.30162" lon="-2.38824">
        <ele>67</ele>
        <time>2011-04-24T14:07:33Z</time>
      </trkpt>
      <trkpt lat="47.30166" lon="-2.38819">
        <ele>67</ele>
        <time>2011-04-24T14:07:36Z</time>
      </trkpt>
      <trkpt lat="47.3017" lon="-2.38813">
        <ele>67</ele>
        <time>2011-04-24T14:07:39Z</time>
      </trkpt>
      <trkpt lat="47.30173" lon="-2.38805">
        <ele>67</ele>
        <time>2011-04-24T14:07:42Z</time>
      </trkpt>
      <trkpt lat="47.30176" lon="-2.38799">
        <ele>67</ele>
        <time>2011-04-24T14:07:45Z</time>
      </trkpt>
      <trkpt lat="47.3018" lon="-2.38795">
        <ele>67</ele>
        <time>2011-04-24T14:07:47Z</time>
      </trkpt>
      <trkpt lat="47.30185" lon="-2.38788">
        <ele>67</ele>
        <time>2011-04-24T14:07:50Z</time>
      </trkpt>
      <trkpt lat="47.3019" lon="-2.38784">
        <ele>68</ele>
        <time>2011-04-24T14:07:53Z</time>
      </trkpt>
      <trkpt lat="47.30195" lon="-2.38777">
        <ele>68</ele>
        <time>2011-04-24T14:07:56Z</time>
      </trkpt>
      <trkpt lat="47.302" lon="-2.38773">
        <ele>68</ele>
        <time>2011-04-24T14:07:59Z</time>
      </trkpt>
      <trkpt lat="47.30204" lon="-2.38769">
        <ele>69</ele>
        <time>2011-04-24T14:08:02Z</time>
      </trkpt>
      <trkpt lat="47.3021" lon="-2.3877">
        <ele>70</ele>
        <time>2011-04-24T14:08:05Z</time>
      </trkpt>
      <trkpt lat="47.30214" lon="-2.38772">
        <ele>71</ele>
        <time>2011-04-24T14:08:07Z</time>
      </trkpt>
      <trkpt lat="47.3022" lon="-2.38776">
        <ele>73</ele>
        <time>2011-04-24T14:08:09Z</time>
      </trkpt>
      <trkpt lat="47.30225" lon="-2.38779">
        <ele>74</ele>
        <time>2011-04-24T14:08:11Z</time>
      </trkpt>
      <trkpt lat="47.30231" lon="-2.38784">
        <ele>75</ele>
        <time>2011-04-24T14:08:14Z</time>
      </trkpt>
      <trkpt lat="47.30235" lon="-2.38787">
        <ele>76</ele>
        <time>2011-04-24T14:08:16Z</time>
      </trkpt>
      <trkpt lat="47.30239" lon="-2.38792">
        <ele>76</ele>
        <time>2011-04-24T14:08:18Z</time>
      </trkpt>
      <trkpt lat="47.30242" lon="-2.38799">
        <ele>78</ele>
        <time>2011-04-24T14:08:20Z</time>
      </trkpt>
      <trkpt lat="47.30245" lon="-2.38806">
        <ele>81</ele>
        <time>2011-04-24T14:08:23Z</time>
      </trkpt>
      <trkpt lat="47.30249" lon="-2.38812">
        <ele>83</ele>
        <time>2011-04-24T14:08:26Z</time>
      </trkpt>
      <trkpt lat="47.30252" lon="-2.38816">
        <ele>84</ele>
        <time>2011-04-24T14:08:28Z</time>
      </trkpt>
      <trkpt lat="47.30255" lon="-2.38823">
        <ele>85</ele>
        <time>2011-04-24T14:08:30Z</time>
      </trkpt>
      <trkpt lat="47.30259" lon="-2.38829">
        <ele>86</ele>
        <time>2011-04-24T14:08:32Z</time>
      </trkpt>
      <trkpt lat="47.30262" lon="-2.38835">
        <ele>87</ele>
        <time>2011-04-24T14:08:34Z</time>
      </trkpt>
      <trkpt lat="47.30264" lon="-2.38842">
        <ele>86</ele>
        <time>2011-04-24T14:08:36Z</time>
      </trkpt>
      <trkpt lat="47.30267" lon="-2.38849">
        <ele>86</ele>
        <time>2011-04-24T14:08:38Z</time>
      </trkpt>
      <trkpt lat="47.3027" lon="-2.38858">
        <ele>85</ele>
        <time>2011-04-24T14:08:40Z</time>
      </trkpt>
      <trkpt lat="47.30274" lon="-2.38864">
        <ele>86</ele>
        <time>2011-04-24T14:08:42Z</time>
      </trkpt>
      <trkpt lat="47.30277" lon="-2.3887">
        <ele>88</ele>
        <time>2011-04-24T14:08:44Z</time>
      </trkpt>
      <trkpt lat="47.30279" lon="-2.38878">
        <ele>88</ele>
        <time>2011-04-24T14:08:46Z</time>
      </trkpt>
      <trkpt lat="47.30282" lon="-2.38885">
        <ele>88</ele>
        <time>2011-04-24T14:08:48Z</time>
      </trkpt>
      <trkpt lat="47.30284" lon="-2.38892">
        <ele>88</ele>
        <time>2011-04-24T14:08:50Z</time>
      </trkpt>
      <trkpt lat="47.30287" lon="-2.389">
        <ele>88</ele>
        <time>2011-04-24T14:08:52Z</time>
      </trkpt>
      <trkpt lat="47.3029" lon="-2.38906">
        <ele>90</ele>
        <time>2011-04-24T14:08:54Z</time>
      </trkpt>
      <trkpt lat="47.30293" lon="-2.38914">
        <ele>91</ele>
        <time>2011-04-24T14:08:56Z</time>
      </trkpt>
      <trkpt lat="47.30296" lon="-2.38921">
        <ele>91</ele>
        <time>2011-04-24T14:08:58Z</time>
      </trkpt>
      <trkpt lat="47.303" lon="-2.38927">
        <ele>92</ele>
        <time>2011-04-24T14:09:00Z</time>
      </trkpt>
      <trkpt lat="47.30302" lon="-2.38934">
        <ele>92</ele>
        <time>2011-04-24T14:09:02Z</time>
      </trkpt>
      <trkpt lat="47.30306" lon="-2.3894">
        <ele>93</ele>
        <time>2011-04-24T14:09:04Z</time>
      </trkpt>
      <trkpt lat="47.30309" lon="-2.38946">
        <ele>93</ele>
        <time>2011-04-24T14:09:06Z</time>
      </trkpt>
      <trkpt lat="47.30312" lon="-2.38951">
        <ele>93</ele>
        <time>2011-04-24T14:09:08Z</time>
      </trkpt>
      <trkpt lat="47.30314" lon="-2.38957">
        <ele>93</ele>
        <time>2011-04-24T14:09:42Z</time>
      </trkpt>
      <trkpt lat="47.30317" lon="-2.38963">
        <ele>93</ele>
        <time>2011-04-24T14:09:44Z</time>
      </trkpt>
      <trkpt lat="47.30321" lon="-2.38969">
        <ele>94</ele>
        <time>2011-04-24T14:09:46Z</time>
      </trkpt>
      <trkpt lat="47.30324" lon="-2.38977">
        <ele>94</ele>
        <time>2011-04-24T14:09:48Z</time>
      </trkpt>
      <trkpt lat="47.30328" lon="-2.38984">
        <ele>95</ele>
        <time>2011-04-24T14:09:50Z</time>
      </trkpt>
      <trkpt lat="47.30332" lon="-2.38992">
        <ele>95</ele>
        <time>2011-04-24T14:09:52Z</time>
      </trkpt>
      <trkpt lat="47.30335" lon="-2.39">
        <ele>96</ele>
        <time>2011-04-24T14:09:54Z</time>
      </trkpt>
      <trkpt lat="47.30339" lon="-2.39008">
        <ele>95</ele>
        <time>2011-04-24T14:09:56Z</time>
      </trkpt>
      <trkpt lat="47.30342" lon="-2.39016">
        <ele>94</ele>
        <time>2011-04-24T14:09:58Z</time>
      </trkpt>
      <trkpt lat="47.30345" lon="-2.39023">
        <ele>95</ele>
        <time>2011-04-24T14:10:00Z</time>
      </trkpt>
      <trkpt lat="47.30348" lon="-2.3903">
        <ele>95</ele>
        <time>2011-04-24T14:10:02Z</time>
      </trkpt>
      <trkpt lat="47.30351" lon="-2.39036">
        <ele>95</ele>
        <time>2011-04-24T14:10:04Z</time>
      </trkpt>
      <trkpt lat="47.30353" lon="-2.39041">
        <ele>94</ele>
        <time>2011-04-24T14:10:06Z</time>
      </trkpt>
      <trkpt lat="47.30353" lon="-2.39049">
        <ele>92</ele>
        <time>2011-04-24T14:10:14Z</time>
      </trkpt>
      <trkpt lat="47.30349" lon="-2.39045">
        <ele>91</ele>
        <time>2011-04-24T14:12:01Z</time>
      </trkpt>
      <trkpt lat="47.30347" lon="-2.39039">
        <ele>90</ele>
        <time>2011-04-24T14:12:05Z</time>
      </trkpt>
      <trkpt lat="47.30345" lon="-2.39029">
        <ele>90</ele>
        <time>2011-04-24T14:12:08Z</time>
      </trkpt>
      <trkpt lat="47.30342" lon="-2.39023">
        <ele>90</ele>
        <time>2011-04-24T14:12:10Z</time>
      </trkpt>
      <trkpt lat="47.3034" lon="-2.39015">
        <ele>89</ele>
        <time>2011-04-24T14:12:12Z</time>
      </trkpt>
      <trkpt lat="47.30336" lon="-2.39005">
        <ele>89</ele>
        <time>2011-04-24T14:12:14Z</time>
      </trkpt>
      <trkpt lat="47.30332" lon="-2.38995">
        <ele>88</ele>
        <time>2011-04-24T14:12:16Z</time>
      </trkpt>
      <trkpt lat="47.30328" lon="-2.38984">
        <ele>88</ele>
        <time>2011-04-24T14:12:18Z</time>
      </trkpt>
      <trkpt lat="47.30327" lon="-2.38977">
        <ele>88</ele>
        <time>2011-04-24T14:12:19Z</time>
      </trkpt>
      <trkpt lat="47.30326" lon="-2.38964">
        <ele>88</ele>
        <time>2011-04-24T14:12:21Z</time>
      </trkpt>
      <trkpt lat="47.30329" lon="-2.38954">
        <ele>87</ele>
        <time>2011-04-24T14:12:23Z</time>
      </trkpt>
      <trkpt lat="47.30332" lon="-2.38944">
        <ele>87</ele>
        <time>2011-04-24T14:12:25Z</time>
      </trkpt>
      <trkpt lat="47.30336" lon="-2.38936">
        <ele>87</ele>
        <time>2011-04-24T14:12:27Z</time>
      </trkpt>
      <trkpt lat="47.30341" lon="-2.38931">
        <ele>88</ele>
        <time>2011-04-24T14:12:29Z</time>
      </trkpt>
      <trkpt lat="47.30347" lon="-2.38924">
        <ele>87</ele>
        <time>2011-04-24T14:12:31Z</time>
      </trkpt>
      <trkpt lat="47.30353" lon="-2.38916">
        <ele>87</ele>
        <time>2011-04-24T14:12:33Z</time>
      </trkpt>
      <trkpt lat="47.30358" lon="-2.38909">
        <ele>87</ele>
        <time>2011-04-24T14:12:35Z</time>
      </trkpt>
      <trkpt lat="47.30364" lon="-2.38902">
        <ele>87</ele>
        <time>2011-04-24T14:12:37Z</time>
      </trkpt>
      <trkpt lat="47.30369" lon="-2.38895">
        <ele>87</ele>
        <time>2011-04-24T14:12:39Z</time>
      </trkpt>
      <trkpt lat="47.30374" lon="-2.38891">
        <ele>88</ele>
        <time>2011-04-24T14:12:41Z</time>
      </trkpt>
      <trkpt lat="47.30377" lon="-2.38881">
        <ele>89</ele>
        <time>2011-04-24T14:12:43Z</time>
      </trkpt>
      <trkpt lat="47.30382" lon="-2.38874">
        <ele>88</ele>
        <time>2011-04-24T14:12:45Z</time>
      </trkpt>
      <trkpt lat="47.30386" lon="-2.38868">
        <ele>88</ele>
        <time>2011-04-24T14:12:47Z</time>
      </trkpt>
      <trkpt lat="47.3039" lon="-2.3886">
        <ele>88</ele>
        <time>2011-04-24T14:12:49Z</time>
      </trkpt>
      <trkpt lat="47.30395" lon="-2.38854">
        <ele>88</ele>
        <time>2011-04-24T14:12:51Z</time>
      </trkpt>
      <trkpt lat="47.30399" lon="-2.38848">
        <ele>88</ele>
        <time>2011-04-24T14:12:53Z</time>
      </trkpt>
      <trkpt lat="47.30403" lon="-2.38842">
        <ele>87</ele>
        <time>2011-04-24T14:12:55Z</time>
      </trkpt>
      <trkpt lat="47.30408" lon="-2.38836">
        <ele>87</ele>
        <time>2011-04-24T14:12:57Z</time>
      </trkpt>
      <trkpt lat="47.30409" lon="-2.38829">
        <ele>86</ele>
        <time>2011-04-24T14:12:59Z</time>
      </trkpt>
      <trkpt lat="47.3041" lon="-2.38821">
        <ele>86</ele>
        <time>2011-04-24T14:13:02Z</time>
      </trkpt>
      <trkpt lat="47.30414" lon="-2.38814">
        <ele>85</ele>
        <time>2011-04-24T14:13:04Z</time>
      </trkpt>
      <trkpt lat="47.30415" lon="-2.38806">
        <ele>85</ele>
        <time>2011-04-24T14:13:07Z</time>
      </trkpt>
      <trkpt lat="47.30414" lon="-2.38799">
        <ele>86</ele>
        <time>2011-04-24T14:13:08Z</time>
      </trkpt>
      <trkpt lat="47.30416" lon="-2.38793">
        <ele>88</ele>
        <time>2011-04-24T14:13:11Z</time>
      </trkpt>
      <trkpt lat="47.30417" lon="-2.38786">
        <ele>88</ele>
        <time>2011-04-24T14:13:13Z</time>
      </trkpt>
      <trkpt lat="47.30418" lon="-2.38778">
        <ele>90</ele>
        <time>2011-04-24T14:13:16Z</time>
      </trkpt>
      <trkpt lat="47.30418" lon="-2.3877">
        <ele>92</ele>
        <time>2011-04-24T14:13:18Z</time>
      </trkpt>
      <trkpt lat="47.30414" lon="-2.38764">
        <ele>92</ele>
        <time>2011-04-24T14:13:20Z</time>
      </trkpt>
      <trkpt lat="47.30411" lon="-2.38756">
        <ele>94</ele>
        <time>2011-04-24T14:13:22Z</time>
      </trkpt>
      <trkpt lat="47.30406" lon="-2.38749">
        <ele>94</ele>
        <time>2011-04-24T14:13:24Z</time>
      </trkpt>
      <trkpt lat="47.30402" lon="-2.38742">
        <ele>93</ele>
        <time>2011-04-24T14:13:26Z</time>
      </trkpt>
      <trkpt lat="47.304" lon="-2.38735">
        <ele>93</ele>
        <time>2011-04-24T14:13:28Z</time>
      </trkpt>
      <trkpt lat="47.30397" lon="-2.38727">
        <ele>95</ele>
        <time>2011-04-24T14:13:31Z</time>
      </trkpt>
      <trkpt lat="47.30394" lon="-2.3872">
        <ele>95</ele>
        <time>2011-04-24T14:13:33Z</time>
      </trkpt>
      <trkpt lat="47.30391" lon="-2.38711">
        <ele>97</ele>
        <time>2011-04-24T14:13:35Z</time>
      </trkpt>
      <trkpt lat="47.3039" lon="-2.387">
        <ele>97</ele>
        <time>2011-04-24T14:13:37Z</time>
      </trkpt>
      <trkpt lat="47.3039" lon="-2.38691">
        <ele>98</ele>
        <time>2011-04-24T14:13:39Z</time>
      </trkpt>
      <trkpt lat="47.30387" lon="-2.38678">
        <ele>98</ele>
        <time>2011-04-24T14:13:41Z</time>
      </trkpt>
      <trkpt lat="47.30384" lon="-2.38667">
        <ele>99</ele>
        <time>2011-04-24T14:13:43Z</time>
      </trkpt>
      <trkpt lat="47.30382" lon="-2.3866">
        <ele>99</ele>
        <time>2011-04-24T14:13:44Z</time>
      </trkpt>
      <trkpt lat="47.30375" lon="-2.38654">
        <ele>100</ele>
        <time>2011-04-24T14:13:45Z</time>
      </trkpt>
      <trkpt lat="47.30373" lon="-2.38648">
        <ele>99</ele>
        <time>2011-04-24T14:13:46Z</time>
      </trkpt>
      <trkpt lat="47.3037" lon="-2.38642">
        <ele>99</ele>
        <time>2011-04-24T14:13:47Z</time>
      </trkpt>
      <trkpt lat="47.30364" lon="-2.3863">
        <ele>97</ele>
        <time>2011-04-24T14:13:49Z</time>
      </trkpt>
      <trkpt lat="47.30362" lon="-2.38625">
        <ele>97</ele>
        <time>2011-04-24T14:13:50Z</time>
      </trkpt>
      <trkpt lat="47.30357" lon="-2.38615">
        <ele>97</ele>
        <time>2011-04-24T14:13:52Z</time>
      </trkpt>
      <trkpt lat="47.3035" lon="-2.38604">
        <ele>96</ele>
        <time>2011-04-24T14:13:54Z</time>
      </trkpt>
      <trkpt lat="47.30345" lon="-2.38594">
        <ele>96</ele>
        <time>2011-04-24T14:13:56Z</time>
      </trkpt>
      <trkpt lat="47.30343" lon="-2.38587">
        <ele>95</ele>
        <time>2011-04-24T14:13:57Z</time>
      </trkpt>
      <trkpt lat="47.3034" lon="-2.3858">
        <ele>95</ele>
        <time>2011-04-24T14:13:58Z</time>
      </trkpt>
      <trkpt lat="47.30337" lon="-2.38573">
        <ele>95</ele>
        <time>2011-04-24T14:13:59Z</time>
      </trkpt>
      <trkpt lat="47.30334" lon="-2.38566">
        <ele>95</ele>
        <time>2011-04-24T14:14:00Z</time>
      </trkpt>
      <trkpt lat="47.30332" lon="-2.38557">
        <ele>95</ele>
        <time>2011-04-24T14:14:01Z</time>
      </trkpt>
      <trkpt lat="47.30329" lon="-2.38549">
        <ele>95</ele>
        <time>2011-04-24T14:14:02Z</time>
      </trkpt>
      <trkpt lat="47.30326" lon="-2.38541">
        <ele>96</ele>
        <time>2011-04-24T14:14:03Z</time>
      </trkpt>
      <trkpt lat="47.30323" lon="-2.38532">
        <ele>96</ele>
        <time>2011-04-24T14:14:04Z</time>
      </trkpt>
      <trkpt lat="47.30319" lon="-2.38523">
        <ele>95</ele>
        <time>2011-04-24T14:14:05Z</time>
      </trkpt>
      <trkpt lat="47.30316" lon="-2.38515">
        <ele>95</ele>
        <time>2011-04-24T14:14:06Z</time>
      </trkpt>
      <trkpt lat="47.30313" lon="-2.38506">
        <ele>95</ele>
        <time>2011-04-24T14:14:07Z</time>
      </trkpt>
      <trkpt lat="47.3031" lon="-2.38499">
        <ele>95</ele>
        <time>2011-04-24T14:14:08Z</time>
      </trkpt>
      <trkpt lat="47.30307" lon="-2.38492">
        <ele>95</ele>
        <time>2011-04-24T14:14:09Z</time>
      </trkpt>
      <trkpt lat="47.30302" lon="-2.38486">
        <ele>95</ele>
        <time>2011-04-24T14:14:10Z</time>
      </trkpt>
      <trkpt lat="47.30301" lon="-2.3848">
        <ele>95</ele>
        <time>2011-04-24T14:14:11Z</time>
      </trkpt>
      <trkpt lat="47.30299" lon="-2.38474">
        <ele>94</ele>
        <time>2011-04-24T14:14:12Z</time>
      </trkpt>
      <trkpt lat="47.30298" lon="-2.38449">
        <ele>92</ele>
        <time>2011-04-24T14:14:16Z</time>
      </trkpt>
      <trkpt lat="47.30297" lon="-2.38436">
        <ele>92</ele>
        <time>2011-04-24T14:14:18Z</time>
      </trkpt>
      <trkpt lat="47.30295" lon="-2.3843">
        <ele>92</ele>
        <time>2011-04-24T14:14:19Z</time>
      </trkpt>
      <trkpt lat="47.30293" lon="-2.38423">
        <ele>92</ele>
        <time>2011-04-24T14:14:20Z</time>
      </trkpt>
      <trkpt lat="47.30292" lon="-2.38417">
        <ele>92</ele>
        <time>2011-04-24T14:14:21Z</time>
      </trkpt>
      <trkpt lat="47.30287" lon="-2.38405">
        <ele>93</ele>
        <time>2011-04-24T14:14:23Z</time>
      </trkpt>
      <trkpt lat="47.30284" lon="-2.38394">
        <ele>92</ele>
        <time>2011-04-24T14:14:25Z</time>
      </trkpt>
      <trkpt lat="47.3028" lon="-2.38382">
        <ele>93</ele>
        <time>2011-04-24T14:14:27Z</time>
      </trkpt>
      <trkpt lat="47.30277" lon="-2.38372">
        <ele>93</ele>
        <time>2011-04-24T14:14:29Z</time>
      </trkpt>
      <trkpt lat="47.30274" lon="-2.3836">
        <ele>94</ele>
        <time>2011-04-24T14:14:31Z</time>
      </trkpt>
      <trkpt lat="47.30271" lon="-2.38348">
        <ele>94</ele>
        <time>2011-04-24T14:14:33Z</time>
      </trkpt>
      <trkpt lat="47.30268" lon="-2.38336">
        <ele>93</ele>
        <time>2011-04-24T14:14:35Z</time>
      </trkpt>
      <trkpt lat="47.30265" lon="-2.38325">
        <ele>93</ele>
        <time>2011-04-24T14:14:37Z</time>
      </trkpt>
      <trkpt lat="47.30263" lon="-2.38313">
        <ele>93</ele>
        <time>2011-04-24T14:14:39Z</time>
      </trkpt>
      <trkpt lat="47.3026" lon="-2.38301">
        <ele>93</ele>
        <time>2011-04-24T14:14:41Z</time>
      </trkpt>
      <trkpt lat="47.30258" lon="-2.38291">
        <ele>93</ele>
        <time>2011-04-24T14:14:43Z</time>
      </trkpt>
      <trkpt lat="47.30256" lon="-2.38279">
        <ele>93</ele>
        <time>2011-04-24T14:14:45Z</time>
      </trkpt>
      <trkpt lat="47.30255" lon="-2.38268">
        <ele>93</ele>
        <time>2011-04-24T14:14:47Z</time>
      </trkpt>
      <trkpt lat="47.30253" lon="-2.38257">
        <ele>93</ele>
        <time>2011-04-24T14:14:49Z</time>
      </trkpt>
      <trkpt lat="47.30252" lon="-2.38247">
        <ele>92</ele>
        <time>2011-04-24T14:14:51Z</time>
      </trkpt>
      <trkpt lat="47.3025" lon="-2.38236">
        <ele>92</ele>
        <time>2011-04-24T14:14:53Z</time>
      </trkpt>
      <trkpt lat="47.30248" lon="-2.38226">
        <ele>93</ele>
        <time>2011-04-24T14:14:55Z</time>
      </trkpt>
      <trkpt lat="47.30247" lon="-2.38217">
        <ele>93</ele>
        <time>2011-04-24T14:14:57Z</time>
      </trkpt>
      <trkpt lat="47.30246" lon="-2.38208">
        <ele>93</ele>
        <time>2011-04-24T14:14:59Z</time>
      </trkpt>
      <trkpt lat="47.30244" lon="-2.38198">
        <ele>93</ele>
        <time>2011-04-24T14:15:01Z</time>
      </trkpt>
      <trkpt lat="47.30243" lon="-2.38188">
        <ele>93</ele>
        <time>2011-04-24T14:15:03Z</time>
      </trkpt>
      <trkpt lat="47.30242" lon="-2.38177">
        <ele>93</ele>
        <time>2011-04-24T14:15:05Z</time>
      </trkpt>
      <trkpt lat="47.30241" lon="-2.38167">
        <ele>92</ele>
        <time>2011-04-24T14:15:07Z</time>
      </trkpt>
      <trkpt lat="47.3024" lon="-2.38156">
        <ele>92</ele>
        <time>2011-04-24T14:15:09Z</time>
      </trkpt>
      <trkpt lat="47.30238" lon="-2.38144">
        <ele>92</ele>
        <time>2011-04-24T14:15:11Z</time>
      </trkpt>
      <trkpt lat="47.30234" lon="-2.38133">
        <ele>92</ele>
        <time>2011-04-24T14:15:13Z</time>
      </trkpt>
      <trkpt lat="47.3023" lon="-2.38122">
        <ele>91</ele>
        <time>2011-04-24T14:15:15Z</time>
      </trkpt>
      <trkpt lat="47.30225" lon="-2.38113">
        <ele>91</ele>
        <time>2011-04-24T14:15:17Z</time>
      </trkpt>
      <trkpt lat="47.30215" lon="-2.38108">
        <ele>91</ele>
        <time>2011-04-24T14:15:19Z</time>
      </trkpt>
      <trkpt lat="47.30206" lon="-2.38103">
        <ele>91</ele>
        <time>2011-04-24T14:15:21Z</time>
      </trkpt>
      <trkpt lat="47.30201" lon="-2.38101">
        <ele>91</ele>
        <time>2011-04-24T14:15:22Z</time>
      </trkpt>
      <trkpt lat="47.30196" lon="-2.38098">
        <ele>91</ele>
        <time>2011-04-24T14:15:23Z</time>
      </trkpt>
      <trkpt lat="47.30187" lon="-2.38092">
        <ele>92</ele>
        <time>2011-04-24T14:15:25Z</time>
      </trkpt>
      <trkpt lat="47.3018" lon="-2.3809">
        <ele>92</ele>
        <time>2011-04-24T14:15:26Z</time>
      </trkpt>
      <trkpt lat="47.30175" lon="-2.38086">
        <ele>91</ele>
        <time>2011-04-24T14:15:27Z</time>
      </trkpt>
      <trkpt lat="47.30168" lon="-2.38084">
        <ele>91</ele>
        <time>2011-04-24T14:15:28Z</time>
      </trkpt>
      <trkpt lat="47.30162" lon="-2.3808">
        <ele>91</ele>
        <time>2011-04-24T14:15:29Z</time>
      </trkpt>
      <trkpt lat="47.30156" lon="-2.38076">
        <ele>91</ele>
        <time>2011-04-24T14:15:30Z</time>
      </trkpt>
      <trkpt lat="47.3015" lon="-2.38073">
        <ele>91</ele>
        <time>2011-04-24T14:15:31Z</time>
      </trkpt>
      <trkpt lat="47.30144" lon="-2.3807">
        <ele>91</ele>
        <time>2011-04-24T14:15:32Z</time>
      </trkpt>
      <trkpt lat="47.30138" lon="-2.38068">
        <ele>91</ele>
        <time>2011-04-24T14:15:33Z</time>
      </trkpt>
      <trkpt lat="47.30133" lon="-2.38064">
        <ele>91</ele>
        <time>2011-04-24T14:15:34Z</time>
      </trkpt>
      <trkpt lat="47.30126" lon="-2.38061">
        <ele>91</ele>
        <time>2011-04-24T14:15:35Z</time>
      </trkpt>
      <trkpt lat="47.30119" lon="-2.38058">
        <ele>91</ele>
        <time>2011-04-24T14:15:36Z</time>
      </trkpt>
      <trkpt lat="47.30113" lon="-2.38056">
        <ele>90</ele>
        <time>2011-04-24T14:15:37Z</time>
      </trkpt>
      <trkpt lat="47.30106" lon="-2.38052">
        <ele>91</ele>
        <time>2011-04-24T14:15:38Z</time>
      </trkpt>
      <trkpt lat="47.30099" lon="-2.38049">
        <ele>91</ele>
        <time>2011-04-24T14:15:39Z</time>
      </trkpt>
      <trkpt lat="47.30092" lon="-2.38046">
        <ele>91</ele>
        <time>2011-04-24T14:15:40Z</time>
      </trkpt>
      <trkpt lat="47.30085" lon="-2.38043">
        <ele>91</ele>
        <time>2011-04-24T14:15:41Z</time>
      </trkpt>
      <trkpt lat="47.30079" lon="-2.3804">
        <ele>91</ele>
        <time>2011-04-24T14:15:42Z</time>
      </trkpt>
      <trkpt lat="47.30072" lon="-2.38035">
        <ele>90</ele>
        <time>2011-04-24T14:15:43Z</time>
      </trkpt>
      <trkpt lat="47.30065" lon="-2.38031">
        <ele>90</ele>
        <time>2011-04-24T14:15:44Z</time>
      </trkpt>
      <trkpt lat="47.30058" lon="-2.38026">
        <ele>90</ele>
        <time>2011-04-24T14:15:45Z</time>
      </trkpt>
      <trkpt lat="47.30052" lon="-2.38021">
        <ele>90</ele>
        <time>2011-04-24T14:15:46Z</time>
      </trkpt>
      <trkpt lat="47.30046" lon="-2.38016">
        <ele>89</ele>
        <time>2011-04-24T14:15:47Z</time>
      </trkpt>
      <trkpt lat="47.3004" lon="-2.3801">
        <ele>90</ele>
        <time>2011-04-24T14:15:48Z</time>
      </trkpt>
      <trkpt lat="47.30033" lon="-2.38003">
        <ele>89</ele>
        <time>2011-04-24T14:15:49Z</time>
      </trkpt>
      <trkpt lat="47.30029" lon="-2.37996">
        <ele>89</ele>
        <time>2011-04-24T14:15:50Z</time>
      </trkpt>
      <trkpt lat="47.30024" lon="-2.3799">
        <ele>89</ele>
        <time>2011-04-24T14:15:51Z</time>
      </trkpt>
      <trkpt lat="47.30016" lon="-2.37981">
        <ele>89</ele>
        <time>2011-04-24T14:15:53Z</time>
      </trkpt>
      <trkpt lat="47.30008" lon="-2.37976">
        <ele>90</ele>
        <time>2011-04-24T14:15:55Z</time>
      </trkpt>
      <trkpt lat="47.30002" lon="-2.37974">
        <ele>90</ele>
        <time>2011-04-24T14:15:56Z</time>
      </trkpt>
      <trkpt lat="47.29996" lon="-2.37969">
        <ele>89</ele>
        <time>2011-04-24T14:15:57Z</time>
      </trkpt>
      <trkpt lat="47.29989" lon="-2.37963">
        <ele>86</ele>
        <time>2011-04-24T14:15:58Z</time>
      </trkpt>
      <trkpt lat="47.29985" lon="-2.37956">
        <ele>85</ele>
        <time>2011-04-24T14:15:59Z</time>
      </trkpt>
      <trkpt lat="47.29981" lon="-2.37949">
        <ele>85</ele>
        <time>2011-04-24T14:16:00Z</time>
      </trkpt>
      <trkpt lat="47.29976" lon="-2.37942">
        <ele>85</ele>
        <time>2011-04-24T14:16:01Z</time>
      </trkpt>
      <trkpt lat="47.29969" lon="-2.37937">
        <ele>86</ele>
        <time>2011-04-24T14:16:02Z</time>
      </trkpt>
      <trkpt lat="47.29964" lon="-2.37931">
        <ele>87</ele>
        <time>2011-04-24T14:16:03Z</time>
      </trkpt>
      <trkpt lat="47.29961" lon="-2.37926">
        <ele>86</ele>
        <time>2011-04-24T14:16:04Z</time>
      </trkpt>
      <trkpt lat="47.29956" lon="-2.3792">
        <ele>86</ele>
        <time>2011-04-24T14:16:05Z</time>
      </trkpt>
      <trkpt lat="47.29952" lon="-2.37914">
        <ele>85</ele>
        <time>2011-04-24T14:16:06Z</time>
      </trkpt>
      <trkpt lat="47.29947" lon="-2.37908">
        <ele>85</ele>
        <time>2011-04-24T14:16:07Z</time>
      </trkpt>
      <trkpt lat="47.29942" lon="-2.37902">
        <ele>85</ele>
        <time>2011-04-24T14:16:08Z</time>
      </trkpt>
      <trkpt lat="47.29938" lon="-2.37896">
        <ele>85</ele>
        <time>2011-04-24T14:16:09Z</time>
      </trkpt>
      <trkpt lat="47.29934" lon="-2.3789">
        <ele>84</ele>
        <time>2011-04-24T14:16:10Z</time>
      </trkpt>
      <trkpt lat="47.2993" lon="-2.37885">
        <ele>84</ele>
        <time>2011-04-24T14:16:11Z</time>
      </trkpt>
      <trkpt lat="47.29926" lon="-2.3788">
        <ele>85</ele>
        <time>2011-04-24T14:16:12Z</time>
      </trkpt>
      <trkpt lat="47.29922" lon="-2.37875">
        <ele>85</ele>
        <time>2011-04-24T14:16:13Z</time>
      </trkpt>
      <trkpt lat="47.29915" lon="-2.37865">
        <ele>84</ele>
        <time>2011-04-24T14:16:15Z</time>
      </trkpt>
      <trkpt lat="47.29912" lon="-2.3786">
        <ele>85</ele>
        <time>2011-04-24T14:16:16Z</time>
      </trkpt>
      <trkpt lat="47.29908" lon="-2.37856">
        <ele>85</ele>
        <time>2011-04-24T14:16:17Z</time>
      </trkpt>
      <trkpt lat="47.29903" lon="-2.37851">
        <ele>85</ele>
        <time>2011-04-24T14:16:18Z</time>
      </trkpt>
      <trkpt lat="47.29898" lon="-2.37848">
        <ele>85</ele>
        <time>2011-04-24T14:16:19Z</time>
      </trkpt>
      <trkpt lat="47.29893" lon="-2.37846">
        <ele>87</ele>
        <time>2011-04-24T14:16:20Z</time>
      </trkpt>
      <trkpt lat="47.29889" lon="-2.37838">
        <ele>86</ele>
        <time>2011-04-24T14:16:22Z</time>
      </trkpt>
      <trkpt lat="47.29888" lon="-2.3783">
        <ele>86</ele>
        <time>2011-04-24T14:16:23Z</time>
      </trkpt>
      <trkpt lat="47.29882" lon="-2.37822">
        <ele>88</ele>
        <time>2011-04-24T14:16:25Z</time>
      </trkpt>
      <trkpt lat="47.29876" lon="-2.37814">
        <ele>87</ele>
        <time>2011-04-24T14:16:27Z</time>
      </trkpt>
      <trkpt lat="47.29873" lon="-2.37809">
        <ele>87</ele>
        <time>2011-04-24T14:16:28Z</time>
      </trkpt>
      <trkpt lat="47.29869" lon="-2.37805">
        <ele>87</ele>
        <time>2011-04-24T14:16:29Z</time>
      </trkpt>
      <trkpt lat="47.29864" lon="-2.37799">
        <ele>87</ele>
        <time>2011-04-24T14:16:30Z</time>
      </trkpt>
      <trkpt lat="47.29856" lon="-2.37788">
        <ele>87</ele>
        <time>2011-04-24T14:16:31Z</time>
      </trkpt>
      <trkpt lat="47.29849" lon="-2.37793">
        <ele>87</ele>
        <time>2011-04-24T14:16:32Z</time>
      </trkpt>
      <trkpt lat="47.29843" lon="-2.37794">
        <ele>86</ele>
        <time>2011-04-24T14:16:33Z</time>
      </trkpt>
      <trkpt lat="47.29838" lon="-2.37793">
        <ele>86</ele>
        <time>2011-04-24T14:16:34Z</time>
      </trkpt>
      <trkpt lat="47.29846" lon="-2.37785">
        <ele>86</ele>
        <time>2011-04-24T14:16:35Z</time>
      </trkpt>
      <trkpt lat="47.29845" lon="-2.37775">
        <ele>87</ele>
        <time>2011-04-24T14:16:37Z</time>
      </trkpt>
      <trkpt lat="47.29841" lon="-2.37766">
        <ele>87</ele>
        <time>2011-04-24T14:16:39Z</time>
      </trkpt>
      <trkpt lat="47.29837" lon="-2.37758">
        <ele>87</ele>
        <time>2011-04-24T14:16:41Z</time>
      </trkpt>
      <trkpt lat="47.29834" lon="-2.37749">
        <ele>87</ele>
        <time>2011-04-24T14:16:43Z</time>
      </trkpt>
      <trkpt lat="47.29829" lon="-2.37742">
        <ele>87</ele>
        <time>2011-04-24T14:16:45Z</time>
      </trkpt>
      <trkpt lat="47.29823" lon="-2.37735">
        <ele>88</ele>
        <time>2011-04-24T14:16:47Z</time>
      </trkpt>
      <trkpt lat="47.29814" lon="-2.37729">
        <ele>88</ele>
        <time>2011-04-24T14:16:49Z</time>
      </trkpt>
      <trkpt lat="47.29811" lon="-2.3772">
        <ele>88</ele>
        <time>2011-04-24T14:16:51Z</time>
      </trkpt>
      <trkpt lat="47.29807" lon="-2.37714">
        <ele>88</ele>
        <time>2011-04-24T14:16:53Z</time>
      </trkpt>
      <trkpt lat="47.29803" lon="-2.37707">
        <ele>88</ele>
        <time>2011-04-24T14:16:55Z</time>
      </trkpt>
      <trkpt lat="47.29798" lon="-2.377">
        <ele>90</ele>
        <time>2011-04-24T14:16:57Z</time>
      </trkpt>
      <trkpt lat="47.29793" lon="-2.37694">
        <ele>90</ele>
        <time>2011-04-24T14:16:59Z</time>
      </trkpt>
      <trkpt lat="47.29789" lon="-2.37689">
        <ele>90</ele>
        <time>2011-04-24T14:17:01Z</time>
      </trkpt>
      <trkpt lat="47.29785" lon="-2.37686">
        <ele>90</ele>
        <time>2011-04-24T14:17:03Z</time>
      </trkpt>
      <trkpt lat="47.29781" lon="-2.3768">
        <ele>90</ele>
        <time>2011-04-24T14:17:06Z</time>
      </trkpt>
      <trkpt lat="47.29778" lon="-2.37673">
        <ele>90</ele>
        <time>2011-04-24T14:18:53Z</time>
      </trkpt>
      <trkpt lat="47.29776" lon="-2.37667">
        <ele>90</ele>
        <time>2011-04-24T14:18:56Z</time>
      </trkpt>
      <trkpt lat="47.29772" lon="-2.37658">
        <ele>90</ele>
        <time>2011-04-24T14:18:59Z</time>
      </trkpt>
      <trkpt lat="47.29766" lon="-2.37652">
        <ele>90</ele>
        <time>2011-04-24T14:19:01Z</time>
      </trkpt>
      <trkpt lat="47.29761" lon="-2.37645">
        <ele>90</ele>
        <time>2011-04-24T14:19:03Z</time>
      </trkpt>
      <trkpt lat="47.29756" lon="-2.37638">
        <ele>90</ele>
        <time>2011-04-24T14:19:05Z</time>
      </trkpt>
      <trkpt lat="47.2975" lon="-2.3763">
        <ele>89</ele>
        <time>2011-04-24T14:19:07Z</time>
      </trkpt>
      <trkpt lat="47.29744" lon="-2.3762">
        <ele>90</ele>
        <time>2011-04-24T14:19:09Z</time>
      </trkpt>
      <trkpt lat="47.29738" lon="-2.3761">
        <ele>90</ele>
        <time>2011-04-24T14:19:11Z</time>
      </trkpt>
      <trkpt lat="47.29731" lon="-2.37601">
        <ele>90</ele>
        <time>2011-04-24T14:19:13Z</time>
      </trkpt>
      <trkpt lat="47.29721" lon="-2.37584">
        <ele>91</ele>
        <time>2011-04-24T14:19:16Z</time>
      </trkpt>
      <trkpt lat="47.29716" lon="-2.37579">
        <ele>90</ele>
        <time>2011-04-24T14:19:17Z</time>
      </trkpt>
      <trkpt lat="47.29709" lon="-2.37573">
        <ele>91</ele>
        <time>2011-04-24T14:19:18Z</time>
      </trkpt>
      <trkpt lat="47.29704" lon="-2.37568">
        <ele>90</ele>
        <time>2011-04-24T14:19:19Z</time>
      </trkpt>
      <trkpt lat="47.297" lon="-2.3756">
        <ele>90</ele>
        <time>2011-04-24T14:19:20Z</time>
      </trkpt>
      <trkpt lat="47.29695" lon="-2.37554">
        <ele>90</ele>
        <time>2011-04-24T14:19:21Z</time>
      </trkpt>
      <trkpt lat="47.29687" lon="-2.37549">
        <ele>89</ele>
        <time>2011-04-24T14:19:22Z</time>
      </trkpt>
      <trkpt lat="47.29679" lon="-2.37543">
        <ele>89</ele>
        <time>2011-04-24T14:19:23Z</time>
      </trkpt>
      <trkpt lat="47.29673" lon="-2.37537">
        <ele>89</ele>
        <time>2011-04-24T14:19:24Z</time>
      </trkpt>
      <trkpt lat="47.29666" lon="-2.37532">
        <ele>89</ele>
        <time>2011-04-24T14:19:25Z</time>
      </trkpt>
      <trkpt lat="47.2966" lon="-2.37527">
        <ele>89</ele>
        <time>2011-04-24T14:19:26Z</time>
      </trkpt>
      <trkpt lat="47.29653" lon="-2.37521">
        <ele>89</ele>
        <time>2011-04-24T14:19:27Z</time>
      </trkpt>
      <trkpt lat="47.29648" lon="-2.37516">
        <ele>89</ele>
        <time>2011-04-24T14:19:28Z</time>
      </trkpt>
      <trkpt lat="47.2964" lon="-2.37513">
        <ele>88</ele>
        <time>2011-04-24T14:19:29Z</time>
      </trkpt>
      <trkpt lat="47.29634" lon="-2.3751">
        <ele>89</ele>
        <time>2011-04-24T14:19:30Z</time>
      </trkpt>
      <trkpt lat="47.29629" lon="-2.37506">
        <ele>89</ele>
        <time>2011-04-24T14:19:31Z</time>
      </trkpt>
      <trkpt lat="47.29624" lon="-2.37503">
        <ele>89</ele>
        <time>2011-04-24T14:19:32Z</time>
      </trkpt>
      <trkpt lat="47.29615" lon="-2.37496">
        <ele>89</ele>
        <time>2011-04-24T14:19:34Z</time>
      </trkpt>
      <trkpt lat="47.29607" lon="-2.37488">
        <ele>89</ele>
        <time>2011-04-24T14:19:36Z</time>
      </trkpt>
      <trkpt lat="47.29603" lon="-2.37479">
        <ele>89</ele>
        <time>2011-04-24T14:19:38Z</time>
      </trkpt>
      <trkpt lat="47.29596" lon="-2.3747">
        <ele>90</ele>
        <time>2011-04-24T14:19:40Z</time>
      </trkpt>
      <trkpt lat="47.29593" lon="-2.37465">
        <ele>90</ele>
        <time>2011-04-24T14:19:41Z</time>
      </trkpt>
      <trkpt lat="47.2959" lon="-2.3746">
        <ele>90</ele>
        <time>2011-04-24T14:19:42Z</time>
      </trkpt>
      <trkpt lat="47.29586" lon="-2.37455">
        <ele>90</ele>
        <time>2011-04-24T14:19:43Z</time>
      </trkpt>
      <trkpt lat="47.29583" lon="-2.3745">
        <ele>90</ele>
        <time>2011-04-24T14:19:44Z</time>
      </trkpt>
      <trkpt lat="47.29578" lon="-2.3744">
        <ele>90</ele>
        <time>2011-04-24T14:19:46Z</time>
      </trkpt>
      <trkpt lat="47.29574" lon="-2.37434">
        <ele>90</ele>
        <time>2011-04-24T14:19:47Z</time>
      </trkpt>
      <trkpt lat="47.29569" lon="-2.37423">
        <ele>90</ele>
        <time>2011-04-24T14:19:49Z</time>
      </trkpt>
      <trkpt lat="47.29564" lon="-2.37412">
        <ele>89</ele>
        <time>2011-04-24T14:19:51Z</time>
      </trkpt>
      <trkpt lat="47.29557" lon="-2.37403">
        <ele>89</ele>
        <time>2011-04-24T14:19:53Z</time>
      </trkpt>
      <trkpt lat="47.29551" lon="-2.37394">
        <ele>88</ele>
        <time>2011-04-24T14:19:55Z</time>
      </trkpt>
      <trkpt lat="47.29546" lon="-2.37385">
        <ele>88</ele>
        <time>2011-04-24T14:19:57Z</time>
      </trkpt>
      <trkpt lat="47.29539" lon="-2.37376">
        <ele>88</ele>
        <time>2011-04-24T14:19:59Z</time>
      </trkpt>
      <trkpt lat="47.29535" lon="-2.37372">
        <ele>88</ele>
        <time>2011-04-24T14:20:00Z</time>
      </trkpt>
      <trkpt lat="47.29532" lon="-2.37368">
        <ele>88</ele>
        <time>2011-04-24T14:20:01Z</time>
      </trkpt>
      <trkpt lat="47.29528" lon="-2.37364">
        <ele>88</ele>
        <time>2011-04-24T14:20:02Z</time>
      </trkpt>
      <trkpt lat="47.2952" lon="-2.37356">
        <ele>87</ele>
        <time>2011-04-24T14:20:04Z</time>
      </trkpt>
      <trkpt lat="47.29517" lon="-2.37351">
        <ele>87</ele>
        <time>2011-04-24T14:20:05Z</time>
      </trkpt>
      <trkpt lat="47.29512" lon="-2.37346">
        <ele>88</ele>
        <time>2011-04-24T14:20:06Z</time>
      </trkpt>
      <trkpt lat="47.29508" lon="-2.37342">
        <ele>87</ele>
        <time>2011-04-24T14:20:07Z</time>
      </trkpt>
      <trkpt lat="47.29504" lon="-2.37337">
        <ele>87</ele>
        <time>2011-04-24T14:20:08Z</time>
      </trkpt>
      <trkpt lat="47.295" lon="-2.37333">
        <ele>87</ele>
        <time>2011-04-24T14:20:09Z</time>
      </trkpt>
      <trkpt lat="47.29496" lon="-2.37328">
        <ele>87</ele>
        <time>2011-04-24T14:20:10Z</time>
      </trkpt>
      <trkpt lat="47.29493" lon="-2.37323">
        <ele>87</ele>
        <time>2011-04-24T14:20:11Z</time>
      </trkpt>
      <trkpt lat="47.29488" lon="-2.37319">
        <ele>87</ele>
        <time>2011-04-24T14:20:12Z</time>
      </trkpt>
      <trkpt lat="47.29484" lon="-2.37314">
        <ele>87</ele>
        <time>2011-04-24T14:20:13Z</time>
      </trkpt>
      <trkpt lat="47.2948" lon="-2.3731">
        <ele>87</ele>
        <time>2011-04-24T14:20:14Z</time>
      </trkpt>
      <trkpt lat="47.29473" lon="-2.373">
        <ele>87</ele>
        <time>2011-04-24T14:20:16Z</time>
      </trkpt>
      <trkpt lat="47.29467" lon="-2.37294">
        <ele>86</ele>
        <time>2011-04-24T14:20:17Z</time>
      </trkpt>
      <trkpt lat="47.29463" lon="-2.37289">
        <ele>86</ele>
        <time>2011-04-24T14:20:18Z</time>
      </trkpt>
      <trkpt lat="47.29458" lon="-2.37284">
        <ele>86</ele>
        <time>2011-04-24T14:20:19Z</time>
      </trkpt>
      <trkpt lat="47.29453" lon="-2.37279">
        <ele>86</ele>
        <time>2011-04-24T14:20:20Z</time>
      </trkpt>
      <trkpt lat="47.29447" lon="-2.37274">
        <ele>86</ele>
        <time>2011-04-24T14:20:21Z</time>
      </trkpt>
      <trkpt lat="47.29442" lon="-2.37268">
        <ele>85</ele>
        <time>2011-04-24T14:20:22Z</time>
      </trkpt>
      <trkpt lat="47.29437" lon="-2.37262">
        <ele>86</ele>
        <time>2011-04-24T14:20:23Z</time>
      </trkpt>
      <trkpt lat="47.29433" lon="-2.37256">
        <ele>86</ele>
        <time>2011-04-24T14:20:24Z</time>
      </trkpt>
      <trkpt lat="47.2943" lon="-2.37252">
        <ele>86</ele>
        <time>2011-04-24T14:20:25Z</time>
      </trkpt>
      <trkpt lat="47.29424" lon="-2.37247">
        <ele>85</ele>
        <time>2011-04-24T14:20:26Z</time>
      </trkpt>
      <trkpt lat="47.29419" lon="-2.37242">
        <ele>85</ele>
        <time>2011-04-24T14:20:27Z</time>
      </trkpt>
      <trkpt lat="47.29414" lon="-2.37239">
        <ele>85</ele>
        <time>2011-04-24T14:20:28Z</time>
      </trkpt>
      <trkpt lat="47.29407" lon="-2.37235">
        <ele>85</ele>
        <time>2011-04-24T14:20:29Z</time>
      </trkpt>
      <trkpt lat="47.29402" lon="-2.37232">
        <ele>85</ele>
        <time>2011-04-24T14:20:30Z</time>
      </trkpt>
      <trkpt lat="47.29398" lon="-2.37227">
        <ele>84</ele>
        <time>2011-04-24T14:20:31Z</time>
      </trkpt>
      <trkpt lat="47.29392" lon="-2.37225">
        <ele>84</ele>
        <time>2011-04-24T14:20:32Z</time>
      </trkpt>
      <trkpt lat="47.29387" lon="-2.37224">
        <ele>85</ele>
        <time>2011-04-24T14:20:33Z</time>
      </trkpt>
      <trkpt lat="47.29382" lon="-2.37221">
        <ele>84</ele>
        <time>2011-04-24T14:20:34Z</time>
      </trkpt>
      <trkpt lat="47.29372" lon="-2.37217">
        <ele>83</ele>
        <time>2011-04-24T14:20:36Z</time>
      </trkpt>
      <trkpt lat="47.29367" lon="-2.37214">
        <ele>83</ele>
        <time>2011-04-24T14:20:37Z</time>
      </trkpt>
      <trkpt lat="47.2936" lon="-2.37209">
        <ele>85</ele>
        <time>2011-04-24T14:20:39Z</time>
      </trkpt>
      <trkpt lat="47.29354" lon="-2.37208">
        <ele>86</ele>
        <time>2011-04-24T14:20:40Z</time>
      </trkpt>
      <trkpt lat="47.29346" lon="-2.37203">
        <ele>86</ele>
        <time>2011-04-24T14:20:42Z</time>
      </trkpt>
      <trkpt lat="47.29339" lon="-2.372">
        <ele>86</ele>
        <time>2011-04-24T14:20:44Z</time>
      </trkpt>
      <trkpt lat="47.29333" lon="-2.37196">
        <ele>86</ele>
        <time>2011-04-24T14:20:46Z</time>
      </trkpt>
      <trkpt lat="47.29326" lon="-2.37191">
        <ele>86</ele>
        <time>2011-04-24T14:20:48Z</time>
      </trkpt>
      <trkpt lat="47.29319" lon="-2.37184">
        <ele>87</ele>
        <time>2011-04-24T14:20:50Z</time>
      </trkpt>
      <trkpt lat="47.29312" lon="-2.37177">
        <ele>87</ele>
        <time>2011-04-24T14:20:52Z</time>
      </trkpt>
      <trkpt lat="47.29308" lon="-2.37174">
        <ele>87</ele>
        <time>2011-04-24T14:20:53Z</time>
      </trkpt>
      <trkpt lat="47.29301" lon="-2.37169">
        <ele>87</ele>
        <time>2011-04-24T14:20:55Z</time>
      </trkpt>
      <trkpt lat="47.29296" lon="-2.37168">
        <ele>87</ele>
        <time>2011-04-24T14:20:56Z</time>
      </trkpt>
      <trkpt lat="47.29287" lon="-2.37166">
        <ele>86</ele>
        <time>2011-04-24T14:20:58Z</time>
      </trkpt>
      <trkpt lat="47.29279" lon="-2.37173">
        <ele>85</ele>
        <time>2011-04-24T14:21:00Z</time>
      </trkpt>
      <trkpt lat="47.29275" lon="-2.37176">
        <ele>85</ele>
        <time>2011-04-24T14:21:01Z</time>
      </trkpt>
      <trkpt lat="47.2927" lon="-2.37181">
        <ele>86</ele>
        <time>2011-04-24T14:21:02Z</time>
      </trkpt>
      <trkpt lat="47.29265" lon="-2.37187">
        <ele>84</ele>
        <time>2011-04-24T14:21:03Z</time>
      </trkpt>
      <trkpt lat="47.29261" lon="-2.37191">
        <ele>84</ele>
        <time>2011-04-24T14:21:04Z</time>
      </trkpt>
      <trkpt lat="47.29258" lon="-2.37197">
        <ele>85</ele>
        <time>2011-04-24T14:21:05Z</time>
      </trkpt>
      <trkpt lat="47.29254" lon="-2.37202">
        <ele>84</ele>
        <time>2011-04-24T14:21:06Z</time>
      </trkpt>
      <trkpt lat="47.2925" lon="-2.37208">
        <ele>84</ele>
        <time>2011-04-24T14:21:07Z</time>
      </trkpt>
      <trkpt lat="47.29246" lon="-2.37214">
        <ele>84</ele>
        <time>2011-04-24T14:21:08Z</time>
      </trkpt>
      <trkpt lat="47.29242" lon="-2.3722">
        <ele>84</ele>
        <time>2011-04-24T14:21:09Z</time>
      </trkpt>
      <trkpt lat="47.29238" lon="-2.37227">
        <ele>84</ele>
        <time>2011-04-24T14:21:10Z</time>
      </trkpt>
      <trkpt lat="47.29233" lon="-2.37233">
        <ele>84</ele>
        <time>2011-04-24T14:21:11Z</time>
      </trkpt>
      <trkpt lat="47.29229" lon="-2.37241">
        <ele>84</ele>
        <time>2011-04-24T14:21:12Z</time>
      </trkpt>
      <trkpt lat="47.29224" lon="-2.37247">
        <ele>84</ele>
        <time>2011-04-24T14:21:13Z</time>
      </trkpt>
      <trkpt lat="47.29207" lon="-2.37268">
        <ele>83</ele>
        <time>2011-04-24T14:21:16Z</time>
      </trkpt>
      <trkpt lat="47.29202" lon="-2.37275">
        <ele>83</ele>
        <time>2011-04-24T14:21:17Z</time>
      </trkpt>
      <trkpt lat="47.29197" lon="-2.37281">
        <ele>83</ele>
        <time>2011-04-24T14:21:18Z</time>
      </trkpt>
      <trkpt lat="47.29193" lon="-2.37288">
        <ele>83</ele>
        <time>2011-04-24T14:21:19Z</time>
      </trkpt>
      <trkpt lat="47.29188" lon="-2.37294">
        <ele>83</ele>
        <time>2011-04-24T14:21:20Z</time>
      </trkpt>
      <trkpt lat="47.29183" lon="-2.373">
        <ele>82</ele>
        <time>2011-04-24T14:21:21Z</time>
      </trkpt>
      <trkpt lat="47.29179" lon="-2.37304">
        <ele>81</ele>
        <time>2011-04-24T14:21:22Z</time>
      </trkpt>
      <trkpt lat="47.29175" lon="-2.3731">
        <ele>81</ele>
        <time>2011-04-24T14:21:23Z</time>
      </trkpt>
      <trkpt lat="47.29171" lon="-2.37314">
        <ele>81</ele>
        <time>2011-04-24T14:21:24Z</time>
      </trkpt>
      <trkpt lat="47.29166" lon="-2.37318">
        <ele>80</ele>
        <time>2011-04-24T14:21:25Z</time>
      </trkpt>
      <trkpt lat="47.29162" lon="-2.37322">
        <ele>80</ele>
        <time>2011-04-24T14:21:26Z</time>
      </trkpt>
      <trkpt lat="47.29157" lon="-2.37328">
        <ele>80</ele>
        <time>2011-04-24T14:21:28Z</time>
      </trkpt>
      <trkpt lat="47.29153" lon="-2.3733">
        <ele>79</ele>
        <time>2011-04-24T14:21:30Z</time>
      </trkpt>
      <trkpt lat="47.29149" lon="-2.37326">
        <ele>78</ele>
        <time>2011-04-24T14:21:32Z</time>
      </trkpt>
      <trkpt lat="47.29143" lon="-2.37321">
        <ele>77</ele>
        <time>2011-04-24T14:21:35Z</time>
      </trkpt>
      <trkpt lat="47.29138" lon="-2.37315">
        <ele>77</ele>
        <time>2011-04-24T14:21:37Z</time>
      </trkpt>
      <trkpt lat="47.29132" lon="-2.3731">
        <ele>76</ele>
        <time>2011-04-24T14:21:39Z</time>
      </trkpt>
      <trkpt lat="47.29126" lon="-2.37304">
        <ele>76</ele>
        <time>2011-04-24T14:21:41Z</time>
      </trkpt>
      <trkpt lat="47.29118" lon="-2.37297">
        <ele>76</ele>
        <time>2011-04-24T14:21:43Z</time>
      </trkpt>
      <trkpt lat="47.29112" lon="-2.3729">
        <ele>75</ele>
        <time>2011-04-24T14:21:45Z</time>
      </trkpt>
      <trkpt lat="47.29106" lon="-2.37282">
        <ele>75</ele>
        <time>2011-04-24T14:21:47Z</time>
      </trkpt>
      <trkpt lat="47.291" lon="-2.37275">
        <ele>75</ele>
        <time>2011-04-24T14:21:49Z</time>
      </trkpt>
      <trkpt lat="47.29093" lon="-2.37267">
        <ele>75</ele>
        <time>2011-04-24T14:21:51Z</time>
      </trkpt>
      <trkpt lat="47.29085" lon="-2.37259">
        <ele>74</ele>
        <time>2011-04-24T14:21:53Z</time>
      </trkpt>
      <trkpt lat="47.29077" lon="-2.37252">
        <ele>73</ele>
        <time>2011-04-24T14:21:55Z</time>
      </trkpt>
      <trkpt lat="47.29069" lon="-2.37244">
        <ele>72</ele>
        <time>2011-04-24T14:21:57Z</time>
      </trkpt>
      <trkpt lat="47.29062" lon="-2.37235">
        <ele>72</ele>
        <time>2011-04-24T14:21:59Z</time>
      </trkpt>
      <trkpt lat="47.29058" lon="-2.37231">
        <ele>72</ele>
        <time>2011-04-24T14:22:00Z</time>
      </trkpt>
      <trkpt lat="47.29054" lon="-2.37226">
        <ele>72</ele>
        <time>2011-04-24T14:22:01Z</time>
      </trkpt>
      <trkpt lat="47.2905" lon="-2.37222">
        <ele>72</ele>
        <time>2011-04-24T14:22:02Z</time>
      </trkpt>
      <trkpt lat="47.29046" lon="-2.37216">
        <ele>72</ele>
        <time>2011-04-24T14:22:03Z</time>
      </trkpt>
      <trkpt lat="47.29042" lon="-2.37211">
        <ele>72</ele>
        <time>2011-04-24T14:22:04Z</time>
      </trkpt>
      <trkpt lat="47.29035" lon="-2.37207">
        <ele>72</ele>
        <time>2011-04-24T14:22:05Z</time>
      </trkpt>
      <trkpt lat="47.29028" lon="-2.37203">
        <ele>71</ele>
        <time>2011-04-24T14:22:06Z</time>
      </trkpt>
      <trkpt lat="47.29025" lon="-2.37197">
        <ele>72</ele>
        <time>2011-04-24T14:22:07Z</time>
      </trkpt>
      <trkpt lat="47.2902" lon="-2.37191">
        <ele>71</ele>
        <time>2011-04-24T14:22:08Z</time>
      </trkpt>
      <trkpt lat="47.29016" lon="-2.37186">
        <ele>71</ele>
        <time>2011-04-24T14:22:09Z</time>
      </trkpt>
      <trkpt lat="47.29011" lon="-2.37183">
        <ele>71</ele>
        <time>2011-04-24T14:22:10Z</time>
      </trkpt>
      <trkpt lat="47.29005" lon="-2.37178">
        <ele>71</ele>
        <time>2011-04-24T14:22:12Z</time>
      </trkpt>
      <trkpt lat="47.28996" lon="-2.37177">
        <ele>71</ele>
        <time>2011-04-24T14:22:14Z</time>
      </trkpt>
      <trkpt lat="47.28991" lon="-2.37179">
        <ele>71</ele>
        <time>2011-04-24T14:22:15Z</time>
      </trkpt>
      <trkpt lat="47.28983" lon="-2.37184">
        <ele>71</ele>
        <time>2011-04-24T14:22:17Z</time>
      </trkpt>
      <trkpt lat="47.28977" lon="-2.37187">
        <ele>71</ele>
        <time>2011-04-24T14:22:19Z</time>
      </trkpt>
      <trkpt lat="47.28975" lon="-2.37193">
        <ele>71</ele>
        <time>2011-04-24T14:22:21Z</time>
      </trkpt>
      <trkpt lat="47.28971" lon="-2.372">
        <ele>69</ele>
        <time>2011-04-24T14:22:26Z</time>
      </trkpt>
      <trkpt lat="47.28968" lon="-2.37208">
        <ele>70</ele>
        <time>2011-04-24T14:22:30Z</time>
      </trkpt>
      <trkpt lat="47.28962" lon="-2.37209">
        <ele>66</ele>
        <time>2011-04-24T14:22:40Z</time>
      </trkpt>
      <trkpt lat="47.28956" lon="-2.37208">
        <ele>66</ele>
        <time>2011-04-24T14:22:42Z</time>
      </trkpt>
      <trkpt lat="47.2895" lon="-2.37208">
        <ele>66</ele>
        <time>2011-04-24T14:22:44Z</time>
      </trkpt>
      <trkpt lat="47.28942" lon="-2.37209">
        <ele>65</ele>
        <time>2011-04-24T14:22:46Z</time>
      </trkpt>
      <trkpt lat="47.28933" lon="-2.37212">
        <ele>63</ele>
        <time>2011-04-24T14:22:48Z</time>
      </trkpt>
      <trkpt lat="47.28928" lon="-2.37213">
        <ele>63</ele>
        <time>2011-04-24T14:22:49Z</time>
      </trkpt>
      <trkpt lat="47.28922" lon="-2.37214">
        <ele>63</ele>
        <time>2011-04-24T14:22:50Z</time>
      </trkpt>
      <trkpt lat="47.28916" lon="-2.37216">
        <ele>63</ele>
        <time>2011-04-24T14:22:51Z</time>
      </trkpt>
      <trkpt lat="47.2891" lon="-2.37216">
        <ele>64</ele>
        <time>2011-04-24T14:22:52Z</time>
      </trkpt>
      <trkpt lat="47.28905" lon="-2.37219">
        <ele>64</ele>
        <time>2011-04-24T14:22:53Z</time>
      </trkpt>
      <trkpt lat="47.289" lon="-2.37222">
        <ele>64</ele>
        <time>2011-04-24T14:22:54Z</time>
      </trkpt>
      <trkpt lat="47.28894" lon="-2.37225">
        <ele>63</ele>
        <time>2011-04-24T14:22:55Z</time>
      </trkpt>
      <trkpt lat="47.28888" lon="-2.37227">
        <ele>63</ele>
        <time>2011-04-24T14:22:56Z</time>
      </trkpt>
      <trkpt lat="47.28881" lon="-2.3723">
        <ele>63</ele>
        <time>2011-04-24T14:22:57Z</time>
      </trkpt>
      <trkpt lat="47.28874" lon="-2.3723">
        <ele>63</ele>
        <time>2011-04-24T14:22:58Z</time>
      </trkpt>
      <trkpt lat="47.28873" lon="-2.37237">
        <ele>62</ele>
        <time>2011-04-24T14:23:00Z</time>
      </trkpt>
      <trkpt lat="47.28872" lon="-2.37244">
        <ele>62</ele>
        <time>2011-04-24T14:23:02Z</time>
      </trkpt>
      <trkpt lat="47.28864" lon="-2.37243">
        <ele>63</ele>
        <time>2011-04-24T14:23:05Z</time>
      </trkpt>
      <trkpt lat="47.2886" lon="-2.37239">
        <ele>62</ele>
        <time>2011-04-24T14:23:07Z</time>
      </trkpt>
      <trkpt lat="47.28854" lon="-2.37235">
        <ele>62</ele>
        <time>2011-04-24T14:23:09Z</time>
      </trkpt>
      <trkpt lat="47.2885" lon="-2.37229">
        <ele>62</ele>
        <time>2011-04-24T14:23:11Z</time>
      </trkpt>
      <trkpt lat="47.2885" lon="-2.37222">
        <ele>64</ele>
        <time>2011-04-24T14:23:13Z</time>
      </trkpt>
      <trkpt lat="47.28847" lon="-2.37215">
        <ele>63</ele>
        <time>2011-04-24T14:23:15Z</time>
      </trkpt>
      <trkpt lat="47.28841" lon="-2.37205">
        <ele>62</ele>
        <time>2011-04-24T14:23:17Z</time>
      </trkpt>
      <trkpt lat="47.28836" lon="-2.37196">
        <ele>61</ele>
        <time>2011-04-24T14:23:19Z</time>
      </trkpt>
      <trkpt lat="47.28835" lon="-2.37187">
        <ele>61</ele>
        <time>2011-04-24T14:23:21Z</time>
      </trkpt>
      <trkpt lat="47.28833" lon="-2.37178">
        <ele>61</ele>
        <time>2011-04-24T14:23:23Z</time>
      </trkpt>
      <trkpt lat="47.2883" lon="-2.3717">
        <ele>60</ele>
        <time>2011-04-24T14:23:25Z</time>
      </trkpt>
      <trkpt lat="47.28828" lon="-2.37161">
        <ele>60</ele>
        <time>2011-04-24T14:23:27Z</time>
      </trkpt>
      <trkpt lat="47.28827" lon="-2.37152">
        <ele>60</ele>
        <time>2011-04-24T14:23:29Z</time>
      </trkpt>
      <trkpt lat="47.28825" lon="-2.37142">
        <ele>62</ele>
        <time>2011-04-24T14:23:31Z</time>
      </trkpt>
      <trkpt lat="47.28825" lon="-2.37132">
        <ele>62</ele>
        <time>2011-04-24T14:23:33Z</time>
      </trkpt>
      <trkpt lat="47.28826" lon="-2.37122">
        <ele>62</ele>
        <time>2011-04-24T14:23:35Z</time>
      </trkpt>
      <trkpt lat="47.28828" lon="-2.3711">
        <ele>63</ele>
        <time>2011-04-24T14:23:38Z</time>
      </trkpt>
      <trkpt lat="47.28826" lon="-2.37101">
        <ele>64</ele>
        <time>2011-04-24T14:23:40Z</time>
      </trkpt>
      <trkpt lat="47.28826" lon="-2.37093">
        <ele>64</ele>
        <time>2011-04-24T14:23:42Z</time>
      </trkpt>
      <trkpt lat="47.28826" lon="-2.37083">
        <ele>64</ele>
        <time>2011-04-24T14:23:44Z</time>
      </trkpt>
      <trkpt lat="47.28823" lon="-2.37072">
        <ele>63</ele>
        <time>2011-04-24T14:23:46Z</time>
      </trkpt>
      <trkpt lat="47.28821" lon="-2.37063">
        <ele>63</ele>
        <time>2011-04-24T14:23:48Z</time>
      </trkpt>
      <trkpt lat="47.28818" lon="-2.37052">
        <ele>63</ele>
        <time>2011-04-24T14:23:50Z</time>
      </trkpt>
      <trkpt lat="47.28815" lon="-2.37041">
        <ele>64</ele>
        <time>2011-04-24T14:23:52Z</time>
      </trkpt>
      <trkpt lat="47.28812" lon="-2.3703">
        <ele>64</ele>
        <time>2011-04-24T14:23:54Z</time>
      </trkpt>
      <trkpt lat="47.2881" lon="-2.37021">
        <ele>63</ele>
        <time>2011-04-24T14:23:56Z</time>
      </trkpt>
      <trkpt lat="47.28806" lon="-2.37012">
        <ele>63</ele>
        <time>2011-04-24T14:23:58Z</time>
      </trkpt>
      <trkpt lat="47.28803" lon="-2.37003">
        <ele>62</ele>
        <time>2011-04-24T14:24:00Z</time>
      </trkpt>
      <trkpt lat="47.28799" lon="-2.36994">
        <ele>62</ele>
        <time>2011-04-24T14:24:02Z</time>
      </trkpt>
      <trkpt lat="47.28796" lon="-2.36984">
        <ele>61</ele>
        <time>2011-04-24T14:24:04Z</time>
      </trkpt>
      <trkpt lat="47.28792" lon="-2.36974">
        <ele>63</ele>
        <time>2011-04-24T14:24:06Z</time>
      </trkpt>
      <trkpt lat="47.2879" lon="-2.36968">
        <ele>63</ele>
        <time>2011-04-24T14:24:07Z</time>
      </trkpt>
      <trkpt lat="47.28785" lon="-2.36959">
        <ele>64</ele>
        <time>2011-04-24T14:24:09Z</time>
      </trkpt>
      <trkpt lat="47.28784" lon="-2.3695">
        <ele>64</ele>
        <time>2011-04-24T14:24:11Z</time>
      </trkpt>
      <trkpt lat="47.28781" lon="-2.36939">
        <ele>64</ele>
        <time>2011-04-24T14:24:13Z</time>
      </trkpt>
      <trkpt lat="47.2878" lon="-2.3693">
        <ele>64</ele>
        <time>2011-04-24T14:24:15Z</time>
      </trkpt>
      <trkpt lat="47.28777" lon="-2.36922">
        <ele>64</ele>
        <time>2011-04-24T14:24:17Z</time>
      </trkpt>
      <trkpt lat="47.28774" lon="-2.36916">
        <ele>67</ele>
        <time>2011-04-24T14:24:21Z</time>
      </trkpt>
      <trkpt lat="47.2877" lon="-2.36913">
        <ele>70</ele>
        <time>2011-04-24T14:24:27Z</time>
      </trkpt>
      <trkpt lat="47.28765" lon="-2.36912">
        <ele>71</ele>
        <time>2011-04-24T14:24:31Z</time>
      </trkpt>
      <trkpt lat="47.2876" lon="-2.3691">
        <ele>71</ele>
        <time>2011-04-24T14:24:35Z</time>
      </trkpt>
      <trkpt lat="47.28753" lon="-2.36913">
        <ele>71</ele>
        <time>2011-04-24T14:24:38Z</time>
      </trkpt>
      <trkpt lat="47.28748" lon="-2.36915">
        <ele>70</ele>
        <time>2011-04-24T14:24:40Z</time>
      </trkpt>
      <trkpt lat="47.28739" lon="-2.36916">
        <ele>70</ele>
        <time>2011-04-24T14:24:42Z</time>
      </trkpt>
      <trkpt lat="47.28734" lon="-2.36915">
        <ele>70</ele>
        <time>2011-04-24T14:24:44Z</time>
      </trkpt>
      <trkpt lat="47.28728" lon="-2.36914">
        <ele>71</ele>
        <time>2011-04-24T14:24:48Z</time>
      </trkpt>
      <trkpt lat="47.28724" lon="-2.3691">
        <ele>75</ele>
        <time>2011-04-24T14:24:53Z</time>
      </trkpt>
      <trkpt lat="47.28719" lon="-2.36907">
        <ele>78</ele>
        <time>2011-04-24T14:24:55Z</time>
      </trkpt>
      <trkpt lat="47.28715" lon="-2.36903">
        <ele>80</ele>
        <time>2011-04-24T14:24:58Z</time>
      </trkpt>
      <trkpt lat="47.28711" lon="-2.36898">
        <ele>81</ele>
        <time>2011-04-24T14:25:01Z</time>
      </trkpt>
      <trkpt lat="47.28707" lon="-2.36892">
        <ele>82</ele>
        <time>2011-04-24T14:25:04Z</time>
      </trkpt>
      <trkpt lat="47.28704" lon="-2.36882">
        <ele>81</ele>
        <time>2011-04-24T14:25:07Z</time>
      </trkpt>
      <trkpt lat="47.28702" lon="-2.36876">
        <ele>81</ele>
        <time>2011-04-24T14:25:09Z</time>
      </trkpt>
      <trkpt lat="47.28698" lon="-2.3687">
        <ele>80</ele>
        <time>2011-04-24T14:25:11Z</time>
      </trkpt>
      <trkpt lat="47.28693" lon="-2.36859">
        <ele>81</ele>
        <time>2011-04-24T14:25:16Z</time>
      </trkpt>
      <trkpt lat="47.28689" lon="-2.36851">
        <ele>79</ele>
        <time>2011-04-24T14:25:18Z</time>
      </trkpt>
      <trkpt lat="47.28686" lon="-2.36846">
        <ele>79</ele>
        <time>2011-04-24T14:25:20Z</time>
      </trkpt>
      <trkpt lat="47.28682" lon="-2.36842">
        <ele>79</ele>
        <time>2011-04-24T14:25:22Z</time>
      </trkpt>
      <trkpt lat="47.28678" lon="-2.36835">
        <ele>79</ele>
        <time>2011-04-24T14:25:25Z</time>
      </trkpt>
      <trkpt lat="47.28674" lon="-2.36828">
        <ele>80</ele>
        <time>2011-04-24T14:25:28Z</time>
      </trkpt>
      <trkpt lat="47.28671" lon="-2.36819">
        <ele>81</ele>
        <time>2011-04-24T14:25:31Z</time>
      </trkpt>
      <trkpt lat="47.2867" lon="-2.36811">
        <ele>80</ele>
        <time>2011-04-24T14:25:33Z</time>
      </trkpt>
      <trkpt lat="47.28666" lon="-2.36813">
        <ele>80</ele>
        <time>2011-04-24T14:26:19Z</time>
      </trkpt>
      <trkpt lat="47.28661" lon="-2.36808">
        <ele>79</ele>
        <time>2011-04-24T14:26:23Z</time>
      </trkpt>
      <trkpt lat="47.28656" lon="-2.36804">
        <ele>79</ele>
        <time>2011-04-24T14:26:25Z</time>
      </trkpt>
      <trkpt lat="47.28649" lon="-2.36807">
        <ele>75</ele>
        <time>2011-04-24T14:26:27Z</time>
      </trkpt>
      <trkpt lat="47.28641" lon="-2.36811">
        <ele>74</ele>
        <time>2011-04-24T14:26:29Z</time>
      </trkpt>
      <trkpt lat="47.28638" lon="-2.36816">
        <ele>74</ele>
        <time>2011-04-24T14:26:30Z</time>
      </trkpt>
      <trkpt lat="47.2863" lon="-2.36824">
        <ele>73</ele>
        <time>2011-04-24T14:26:32Z</time>
      </trkpt>
      <trkpt lat="47.28623" lon="-2.36832">
        <ele>73</ele>
        <time>2011-04-24T14:26:34Z</time>
      </trkpt>
      <trkpt lat="47.28614" lon="-2.36832">
        <ele>74</ele>
        <time>2011-04-24T14:26:36Z</time>
      </trkpt>
      <trkpt lat="47.28613" lon="-2.36839">
        <ele>74</ele>
        <time>2011-04-24T14:26:37Z</time>
      </trkpt>
      <trkpt lat="47.28607" lon="-2.36842">
        <ele>74</ele>
        <time>2011-04-24T14:26:38Z</time>
      </trkpt>
      <trkpt lat="47.28601" lon="-2.36844">
        <ele>74</ele>
        <time>2011-04-24T14:26:40Z</time>
      </trkpt>
      <trkpt lat="47.28596" lon="-2.36837">
        <ele>73</ele>
        <time>2011-04-24T14:26:43Z</time>
      </trkpt>
      <trkpt lat="47.2859" lon="-2.3683">
        <ele>71</ele>
        <time>2011-04-24T14:26:45Z</time>
      </trkpt>
      <trkpt lat="47.28585" lon="-2.36825">
        <ele>70</ele>
        <time>2011-04-24T14:26:47Z</time>
      </trkpt>
      <trkpt lat="47.28579" lon="-2.36819">
        <ele>70</ele>
        <time>2011-04-24T14:26:49Z</time>
      </trkpt>
      <trkpt lat="47.28576" lon="-2.3681">
        <ele>70</ele>
        <time>2011-04-24T14:26:51Z</time>
      </trkpt>
      <trkpt lat="47.28572" lon="-2.36804">
        <ele>70</ele>
        <time>2011-04-24T14:26:53Z</time>
      </trkpt>
      <trkpt lat="47.28568" lon="-2.36797">
        <ele>71</ele>
        <time>2011-04-24T14:26:55Z</time>
      </trkpt>
      <trkpt lat="47.28566" lon="-2.36791">
        <ele>71</ele>
        <time>2011-04-24T14:26:57Z</time>
      </trkpt>
      <trkpt lat="47.28562" lon="-2.36785">
        <ele>71</ele>
        <time>2011-04-24T14:26:59Z</time>
      </trkpt>
      <trkpt lat="47.28557" lon="-2.36778">
        <ele>72</ele>
        <time>2011-04-24T14:27:01Z</time>
      </trkpt>
      <trkpt lat="47.28553" lon="-2.36771">
        <ele>72</ele>
        <time>2011-04-24T14:27:03Z</time>
      </trkpt>
      <trkpt lat="47.28549" lon="-2.36763">
        <ele>73</ele>
        <time>2011-04-24T14:27:05Z</time>
      </trkpt>
      <trkpt lat="47.28544" lon="-2.36756">
        <ele>73</ele>
        <time>2011-04-24T14:27:07Z</time>
      </trkpt>
      <trkpt lat="47.28541" lon="-2.36749">
        <ele>74</ele>
        <time>2011-04-24T14:27:09Z</time>
      </trkpt>
      <trkpt lat="47.28537" lon="-2.36742">
        <ele>74</ele>
        <time>2011-04-24T14:27:11Z</time>
      </trkpt>
      <trkpt lat="47.28533" lon="-2.36734">
        <ele>74</ele>
        <time>2011-04-24T14:27:13Z</time>
      </trkpt>
      <trkpt lat="47.28528" lon="-2.36724">
        <ele>75</ele>
        <time>2011-04-24T14:27:16Z</time>
      </trkpt>
      <trkpt lat="47.28524" lon="-2.36717">
        <ele>76</ele>
        <time>2011-04-24T14:27:18Z</time>
      </trkpt>
      <trkpt lat="47.28522" lon="-2.36711">
        <ele>77</ele>
        <time>2011-04-24T14:27:20Z</time>
      </trkpt>
      <trkpt lat="47.28518" lon="-2.36705">
        <ele>77</ele>
        <time>2011-04-24T14:27:22Z</time>
      </trkpt>
      <trkpt lat="47.28516" lon="-2.367">
        <ele>78</ele>
        <time>2011-04-24T14:27:24Z</time>
      </trkpt>
      <trkpt lat="47.28511" lon="-2.36693">
        <ele>78</ele>
        <time>2011-04-24T14:27:27Z</time>
      </trkpt>
      <trkpt lat="47.28512" lon="-2.36686">
        <ele>79</ele>
        <time>2011-04-24T14:27:36Z</time>
      </trkpt>
      <trkpt lat="47.28506" lon="-2.36682">
        <ele>81</ele>
        <time>2011-04-24T14:28:04Z</time>
      </trkpt>
      <trkpt lat="47.28501" lon="-2.3668">
        <ele>80</ele>
        <time>2011-04-24T14:28:07Z</time>
      </trkpt>
      <trkpt lat="47.28493" lon="-2.36689">
        <ele>79</ele>
        <time>2011-04-24T14:28:09Z</time>
      </trkpt>
      <trkpt lat="47.28489" lon="-2.36695">
        <ele>78</ele>
        <time>2011-04-24T14:28:10Z</time>
      </trkpt>
      <trkpt lat="47.28483" lon="-2.36701">
        <ele>78</ele>
        <time>2011-04-24T14:28:12Z</time>
      </trkpt>
      <trkpt lat="47.28478" lon="-2.36704">
        <ele>78</ele>
        <time>2011-04-24T14:28:14Z</time>
      </trkpt>
      <trkpt lat="47.28473" lon="-2.36708">
        <ele>78</ele>
        <time>2011-04-24T14:28:16Z</time>
      </trkpt>
      <trkpt lat="47.28467" lon="-2.36712">
        <ele>78</ele>
        <time>2011-04-24T14:28:18Z</time>
      </trkpt>
      <trkpt lat="47.28462" lon="-2.36714">
        <ele>78</ele>
        <time>2011-04-24T14:28:20Z</time>
      </trkpt>
      <trkpt lat="47.28456" lon="-2.36714">
        <ele>79</ele>
        <time>2011-04-24T14:28:23Z</time>
      </trkpt>
      <trkpt lat="47.28451" lon="-2.3671">
        <ele>78</ele>
        <time>2011-04-24T14:28:25Z</time>
      </trkpt>
      <trkpt lat="47.28453" lon="-2.36717">
        <ele>78</ele>
        <time>2011-04-24T14:28:31Z</time>
      </trkpt>
      <trkpt lat="47.28453" lon="-2.36725">
        <ele>75</ele>
        <time>2011-04-24T14:28:43Z</time>
      </trkpt>
      <trkpt lat="47.28448" lon="-2.36724">
        <ele>75</ele>
        <time>2011-04-24T14:28:46Z</time>
      </trkpt>
      <trkpt lat="47.28443" lon="-2.36722">
        <ele>76</ele>
        <time>2011-04-24T14:28:49Z</time>
      </trkpt>
      <trkpt lat="47.2844" lon="-2.36715">
        <ele>76</ele>
        <time>2011-04-24T14:28:51Z</time>
      </trkpt>
      <trkpt lat="47.28437" lon="-2.36708">
        <ele>75</ele>
        <time>2011-04-24T14:28:53Z</time>
      </trkpt>
      <trkpt lat="47.28435" lon="-2.36701">
        <ele>75</ele>
        <time>2011-04-24T14:28:55Z</time>
      </trkpt>
      <trkpt lat="47.28432" lon="-2.36695">
        <ele>74</ele>
        <time>2011-04-24T14:28:57Z</time>
      </trkpt>
      <trkpt lat="47.28429" lon="-2.36685">
        <ele>74</ele>
        <time>2011-04-24T14:28:59Z</time>
      </trkpt>
      <trkpt lat="47.28425" lon="-2.36677">
        <ele>74</ele>
        <time>2011-04-24T14:29:01Z</time>
      </trkpt>
      <trkpt lat="47.28421" lon="-2.36669">
        <ele>75</ele>
        <time>2011-04-24T14:29:03Z</time>
      </trkpt>
      <trkpt lat="47.28418" lon="-2.3666">
        <ele>75</ele>
        <time>2011-04-24T14:29:05Z</time>
      </trkpt>
      <trkpt lat="47.28411" lon="-2.3665">
        <ele>73</ele>
        <time>2011-04-24T14:29:07Z</time>
      </trkpt>
      <trkpt lat="47.28408" lon="-2.36645">
        <ele>73</ele>
        <time>2011-04-24T14:29:08Z</time>
      </trkpt>
      <trkpt lat="47.28404" lon="-2.36639">
        <ele>73</ele>
        <time>2011-04-24T14:29:09Z</time>
      </trkpt>
      <trkpt lat="47.284" lon="-2.36634">
        <ele>73</ele>
        <time>2011-04-24T14:29:10Z</time>
      </trkpt>
      <trkpt lat="47.28396" lon="-2.36628">
        <ele>73</ele>
        <time>2011-04-24T14:29:11Z</time>
      </trkpt>
      <trkpt lat="47.28392" lon="-2.36622">
        <ele>73</ele>
        <time>2011-04-24T14:29:12Z</time>
      </trkpt>
      <trkpt lat="47.28388" lon="-2.36614">
        <ele>73</ele>
        <time>2011-04-24T14:29:13Z</time>
      </trkpt>
      <trkpt lat="47.28384" lon="-2.36601">
        <ele>73</ele>
        <time>2011-04-24T14:29:14Z</time>
      </trkpt>
      <trkpt lat="47.28377" lon="-2.36593">
        <ele>72</ele>
        <time>2011-04-24T14:29:16Z</time>
      </trkpt>
      <trkpt lat="47.28375" lon="-2.36587">
        <ele>72</ele>
        <time>2011-04-24T14:29:17Z</time>
      </trkpt>
      <trkpt lat="47.28372" lon="-2.36581">
        <ele>72</ele>
        <time>2011-04-24T14:29:19Z</time>
      </trkpt>
      <trkpt lat="47.28367" lon="-2.36575">
        <ele>72</ele>
        <time>2011-04-24T14:29:21Z</time>
      </trkpt>
      <trkpt lat="47.28362" lon="-2.36574">
        <ele>72</ele>
        <time>2011-04-24T14:29:23Z</time>
      </trkpt>
      <trkpt lat="47.28363" lon="-2.36582">
        <ele>73</ele>
        <time>2011-04-24T14:29:24Z</time>
      </trkpt>
      <trkpt lat="47.2836" lon="-2.36585">
        <ele>72</ele>
        <time>2011-04-24T14:29:54Z</time>
      </trkpt>
      <trkpt lat="47.28355" lon="-2.36584">
        <ele>72</ele>
        <time>2011-04-24T14:29:58Z</time>
      </trkpt>
      <trkpt lat="47.28344" lon="-2.36596">
        <ele>69</ele>
        <time>2011-04-24T14:30:00Z</time>
      </trkpt>
      <trkpt lat="47.28338" lon="-2.366">
        <ele>68</ele>
        <time>2011-04-24T14:30:01Z</time>
      </trkpt>
      <trkpt lat="47.28332" lon="-2.3661">
        <ele>67</ele>
        <time>2011-04-24T14:30:03Z</time>
      </trkpt>
      <trkpt lat="47.28329" lon="-2.36615">
        <ele>66</ele>
        <time>2011-04-24T14:30:04Z</time>
      </trkpt>
      <trkpt lat="47.28325" lon="-2.36622">
        <ele>66</ele>
        <time>2011-04-24T14:30:05Z</time>
      </trkpt>
      <trkpt lat="47.28318" lon="-2.36629">
        <ele>65</ele>
        <time>2011-04-24T14:30:06Z</time>
      </trkpt>
      <trkpt lat="47.28313" lon="-2.36638">
        <ele>65</ele>
        <time>2011-04-24T14:30:07Z</time>
      </trkpt>
      <trkpt lat="47.28305" lon="-2.36644">
        <ele>65</ele>
        <time>2011-04-24T14:30:08Z</time>
      </trkpt>
      <trkpt lat="47.28299" lon="-2.36649">
        <ele>64</ele>
        <time>2011-04-24T14:30:09Z</time>
      </trkpt>
      <trkpt lat="47.28292" lon="-2.36655">
        <ele>64</ele>
        <time>2011-04-24T14:30:10Z</time>
      </trkpt>
      <trkpt lat="47.28287" lon="-2.36661">
        <ele>64</ele>
        <time>2011-04-24T14:30:11Z</time>
      </trkpt>
      <trkpt lat="47.2828" lon="-2.36665">
        <ele>63</ele>
        <time>2011-04-24T14:30:12Z</time>
      </trkpt>
      <trkpt lat="47.28274" lon="-2.36668">
        <ele>63</ele>
        <time>2011-04-24T14:30:13Z</time>
      </trkpt>
      <trkpt lat="47.28255" lon="-2.36692">
        <ele>61</ele>
        <time>2011-04-24T14:30:16Z</time>
      </trkpt>
      <trkpt lat="47.28249" lon="-2.36698">
        <ele>61</ele>
        <time>2011-04-24T14:30:17Z</time>
      </trkpt>
      <trkpt lat="47.28244" lon="-2.36705">
        <ele>60</ele>
        <time>2011-04-24T14:30:18Z</time>
      </trkpt>
      <trkpt lat="47.28238" lon="-2.36712">
        <ele>60</ele>
        <time>2011-04-24T14:30:19Z</time>
      </trkpt>
      <trkpt lat="47.28232" lon="-2.3672">
        <ele>60</ele>
        <time>2011-04-24T14:30:20Z</time>
      </trkpt>
      <trkpt lat="47.28224" lon="-2.36725">
        <ele>60</ele>
        <time>2011-04-24T14:30:21Z</time>
      </trkpt>
      <trkpt lat="47.28216" lon="-2.36733">
        <ele>59</ele>
        <time>2011-04-24T14:30:22Z</time>
      </trkpt>
      <trkpt lat="47.28206" lon="-2.36742">
        <ele>59</ele>
        <time>2011-04-24T14:30:23Z</time>
      </trkpt>
      <trkpt lat="47.28211" lon="-2.36741">
        <ele>60</ele>
        <time>2011-04-24T14:30:24Z</time>
      </trkpt>
      <trkpt lat="47.28207" lon="-2.36748">
        <ele>60</ele>
        <time>2011-04-24T14:30:25Z</time>
      </trkpt>
      <trkpt lat="47.28203" lon="-2.36756">
        <ele>59</ele>
        <time>2011-04-24T14:30:26Z</time>
      </trkpt>
      <trkpt lat="47.28198" lon="-2.36761">
        <ele>59</ele>
        <time>2011-04-24T14:30:27Z</time>
      </trkpt>
      <trkpt lat="47.28194" lon="-2.36766">
        <ele>59</ele>
        <time>2011-04-24T14:30:28Z</time>
      </trkpt>
      <trkpt lat="47.28189" lon="-2.3677">
        <ele>59</ele>
        <time>2011-04-24T14:30:29Z</time>
      </trkpt>
      <trkpt lat="47.28185" lon="-2.36775">
        <ele>59</ele>
        <time>2011-04-24T14:30:30Z</time>
      </trkpt>
      <trkpt lat="47.2818" lon="-2.36781">
        <ele>58</ele>
        <time>2011-04-24T14:30:31Z</time>
      </trkpt>
      <trkpt lat="47.28175" lon="-2.36784">
        <ele>58</ele>
        <time>2011-04-24T14:30:32Z</time>
      </trkpt>
      <trkpt lat="47.28171" lon="-2.36788">
        <ele>58</ele>
        <time>2011-04-24T14:30:33Z</time>
      </trkpt>
      <trkpt lat="47.28166" lon="-2.36793">
        <ele>58</ele>
        <time>2011-04-24T14:30:34Z</time>
      </trkpt>
      <trkpt lat="47.28162" lon="-2.36797">
        <ele>57</ele>
        <time>2011-04-24T14:30:35Z</time>
      </trkpt>
      <trkpt lat="47.28157" lon="-2.368">
        <ele>57</ele>
        <time>2011-04-24T14:30:36Z</time>
      </trkpt>
      <trkpt lat="47.28152" lon="-2.36802">
        <ele>57</ele>
        <time>2011-04-24T14:30:37Z</time>
      </trkpt>
      <trkpt lat="47.2815" lon="-2.36809">
        <ele>57</ele>
        <time>2011-04-24T14:30:38Z</time>
      </trkpt>
      <trkpt lat="47.28146" lon="-2.36814">
        <ele>56</ele>
        <time>2011-04-24T14:30:39Z</time>
      </trkpt>
      <trkpt lat="47.28144" lon="-2.36821">
        <ele>56</ele>
        <time>2011-04-24T14:30:41Z</time>
      </trkpt>
      <trkpt lat="47.28143" lon="-2.36829">
        <ele>57</ele>
        <time>2011-04-24T14:30:42Z</time>
      </trkpt>
      <trkpt lat="47.28143" lon="-2.3684">
        <ele>58</ele>
        <time>2011-04-24T14:30:44Z</time>
      </trkpt>
      <trkpt lat="47.28142" lon="-2.36849">
        <ele>59</ele>
        <time>2011-04-24T14:30:46Z</time>
      </trkpt>
      <trkpt lat="47.28141" lon="-2.36839">
        <ele>58</ele>
        <time>2011-04-24T14:30:48Z</time>
      </trkpt>
      <trkpt lat="47.28142" lon="-2.36859">
        <ele>57</ele>
        <time>2011-04-24T14:30:50Z</time>
      </trkpt>
      <trkpt lat="47.28138" lon="-2.36866">
        <ele>57</ele>
        <time>2011-04-24T14:30:53Z</time>
      </trkpt>
      <trkpt lat="47.28138" lon="-2.36876">
        <ele>57</ele>
        <time>2011-04-24T14:30:54Z</time>
      </trkpt>
      <trkpt lat="47.28131" lon="-2.36885">
        <ele>57</ele>
        <time>2011-04-24T14:30:55Z</time>
      </trkpt>
      <trkpt lat="47.2809" lon="-2.36902">
        <ele>57</ele>
        <time>2011-04-24T14:31:04Z</time>
      </trkpt>
      <trkpt lat="47.28084" lon="-2.36895">
        <ele>57</ele>
        <time>2011-04-24T14:31:05Z</time>
      </trkpt>
      <trkpt lat="47.28077" lon="-2.3689">
        <ele>57</ele>
        <time>2011-04-24T14:31:06Z</time>
      </trkpt>
      <trkpt lat="47.28067" lon="-2.36886">
        <ele>56</ele>
        <time>2011-04-24T14:31:07Z</time>
      </trkpt>
      <trkpt lat="47.28084" lon="-2.36876">
        <ele>63</ele>
        <time>2011-04-24T14:31:08Z</time>
      </trkpt>
      <trkpt lat="47.28084" lon="-2.36865">
        <ele>63</ele>
        <time>2011-04-24T14:31:10Z</time>
      </trkpt>
      <trkpt lat="47.28084" lon="-2.36854">
        <ele>63</ele>
        <time>2011-04-24T14:31:12Z</time>
      </trkpt>
      <trkpt lat="47.28088" lon="-2.36842">
        <ele>62</ele>
        <time>2011-04-24T14:31:14Z</time>
      </trkpt>
      <trkpt lat="47.28089" lon="-2.36832">
        <ele>62</ele>
        <time>2011-04-24T14:31:16Z</time>
      </trkpt>
      <trkpt lat="47.28089" lon="-2.3682">
        <ele>61</ele>
        <time>2011-04-24T14:31:18Z</time>
      </trkpt>
      <trkpt lat="47.28086" lon="-2.3681">
        <ele>61</ele>
        <time>2011-04-24T14:31:20Z</time>
      </trkpt>
      <trkpt lat="47.28082" lon="-2.368">
        <ele>59</ele>
        <time>2011-04-24T14:31:22Z</time>
      </trkpt>
      <trkpt lat="47.28079" lon="-2.3679">
        <ele>58</ele>
        <time>2011-04-24T14:31:24Z</time>
      </trkpt>
      <trkpt lat="47.28075" lon="-2.3678">
        <ele>57</ele>
        <time>2011-04-24T14:31:26Z</time>
      </trkpt>
      <trkpt lat="47.28071" lon="-2.36771">
        <ele>57</ele>
        <time>2011-04-24T14:31:28Z</time>
      </trkpt>
      <trkpt lat="47.28067" lon="-2.36763">
        <ele>58</ele>
        <time>2011-04-24T14:31:30Z</time>
      </trkpt>
      <trkpt lat="47.28063" lon="-2.36753">
        <ele>58</ele>
        <time>2011-04-24T14:31:32Z</time>
      </trkpt>
      <trkpt lat="47.28058" lon="-2.36745">
        <ele>59</ele>
        <time>2011-04-24T14:31:34Z</time>
      </trkpt>
      <trkpt lat="47.28057" lon="-2.36734">
        <ele>59</ele>
        <time>2011-04-24T14:31:36Z</time>
      </trkpt>
      <trkpt lat="47.28052" lon="-2.36726">
        <ele>59</ele>
        <time>2011-04-24T14:31:38Z</time>
      </trkpt>
      <trkpt lat="47.28047" lon="-2.36716">
        <ele>59</ele>
        <time>2011-04-24T14:31:40Z</time>
      </trkpt>
      <trkpt lat="47.28043" lon="-2.36712">
        <ele>58</ele>
        <time>2011-04-24T14:31:41Z</time>
      </trkpt>
      <trkpt lat="47.28039" lon="-2.36703">
        <ele>58</ele>
        <time>2011-04-24T14:31:43Z</time>
      </trkpt>
      <trkpt lat="47.28035" lon="-2.367">
        <ele>58</ele>
        <time>2011-04-24T14:31:44Z</time>
      </trkpt>
      <trkpt lat="47.28032" lon="-2.36693">
        <ele>59</ele>
        <time>2011-04-24T14:31:46Z</time>
      </trkpt>
      <trkpt lat="47.28026" lon="-2.36683">
        <ele>61</ele>
        <time>2011-04-24T14:31:48Z</time>
      </trkpt>
      <trkpt lat="47.28025" lon="-2.36676">
        <ele>61</ele>
        <time>2011-04-24T14:31:49Z</time>
      </trkpt>
      <trkpt lat="47.28023" lon="-2.3667">
        <ele>60</ele>
        <time>2011-04-24T14:31:50Z</time>
      </trkpt>
      <trkpt lat="47.28021" lon="-2.36664">
        <ele>60</ele>
        <time>2011-04-24T14:31:51Z</time>
      </trkpt>
      <trkpt lat="47.28016" lon="-2.36658">
        <ele>60</ele>
        <time>2011-04-24T14:31:53Z</time>
      </trkpt>
      <trkpt lat="47.28011" lon="-2.36652">
        <ele>60</ele>
        <time>2011-04-24T14:31:54Z</time>
      </trkpt>
      <trkpt lat="47.28008" lon="-2.36644">
        <ele>60</ele>
        <time>2011-04-24T14:31:56Z</time>
      </trkpt>
      <trkpt lat="47.28004" lon="-2.36635">
        <ele>61</ele>
        <time>2011-04-24T14:31:58Z</time>
      </trkpt>
      <trkpt lat="47.28001" lon="-2.36629">
        <ele>60</ele>
        <time>2011-04-24T14:32:00Z</time>
      </trkpt>
      <trkpt lat="47.27997" lon="-2.3662">
        <ele>60</ele>
        <time>2011-04-24T14:32:02Z</time>
      </trkpt>
      <trkpt lat="47.2799" lon="-2.36612">
        <ele>60</ele>
        <time>2011-04-24T14:32:04Z</time>
      </trkpt>
      <trkpt lat="47.27987" lon="-2.36602">
        <ele>60</ele>
        <time>2011-04-24T14:32:06Z</time>
      </trkpt>
      <trkpt lat="47.27982" lon="-2.36592">
        <ele>60</ele>
        <time>2011-04-24T14:32:08Z</time>
      </trkpt>
      <trkpt lat="47.27978" lon="-2.36583">
        <ele>59</ele>
        <time>2011-04-24T14:32:10Z</time>
      </trkpt>
      <trkpt lat="47.27969" lon="-2.36573">
        <ele>60</ele>
        <time>2011-04-24T14:32:12Z</time>
      </trkpt>
      <trkpt lat="47.27967" lon="-2.36562">
        <ele>60</ele>
        <time>2011-04-24T14:32:14Z</time>
      </trkpt>
      <trkpt lat="47.27965" lon="-2.36552">
        <ele>60</ele>
        <time>2011-04-24T14:32:16Z</time>
      </trkpt>
      <trkpt lat="47.27962" lon="-2.36542">
        <ele>60</ele>
        <time>2011-04-24T14:32:18Z</time>
      </trkpt>
      <trkpt lat="47.27964" lon="-2.36534">
        <ele>59</ele>
        <time>2011-04-24T14:32:19Z</time>
      </trkpt>
      <trkpt lat="47.27956" lon="-2.36528">
        <ele>59</ele>
        <time>2011-04-24T14:32:21Z</time>
      </trkpt>
      <trkpt lat="47.27952" lon="-2.36521">
        <ele>60</ele>
        <time>2011-04-24T14:32:22Z</time>
      </trkpt>
      <trkpt lat="47.27948" lon="-2.36513">
        <ele>60</ele>
        <time>2011-04-24T14:32:24Z</time>
      </trkpt>
      <trkpt lat="47.27946" lon="-2.36507">
        <ele>61</ele>
        <time>2011-04-24T14:32:25Z</time>
      </trkpt>
      <trkpt lat="47.27938" lon="-2.36498">
        <ele>61</ele>
        <time>2011-04-24T14:32:27Z</time>
      </trkpt>
      <trkpt lat="47.2793" lon="-2.36497">
        <ele>61</ele>
        <time>2011-04-24T14:32:28Z</time>
      </trkpt>
      <trkpt lat="47.27921" lon="-2.3649">
        <ele>60</ele>
        <time>2011-04-24T14:32:30Z</time>
      </trkpt>
      <trkpt lat="47.27914" lon="-2.36487">
        <ele>58</ele>
        <time>2011-04-24T14:32:32Z</time>
      </trkpt>
      <trkpt lat="47.27908" lon="-2.36486">
        <ele>57</ele>
        <time>2011-04-24T14:32:33Z</time>
      </trkpt>
      <trkpt lat="47.279" lon="-2.36482">
        <ele>57</ele>
        <time>2011-04-24T14:32:35Z</time>
      </trkpt>
      <trkpt lat="47.27894" lon="-2.3648">
        <ele>58</ele>
        <time>2011-04-24T14:32:37Z</time>
      </trkpt>
      <trkpt lat="47.27893" lon="-2.36466">
        <ele>58</ele>
        <time>2011-04-24T14:32:39Z</time>
      </trkpt>
      <trkpt lat="47.27893" lon="-2.36455">
        <ele>60</ele>
        <time>2011-04-24T14:32:41Z</time>
      </trkpt>
      <trkpt lat="47.2789" lon="-2.36444">
        <ele>60</ele>
        <time>2011-04-24T14:32:43Z</time>
      </trkpt>
      <trkpt lat="47.27886" lon="-2.36434">
        <ele>59</ele>
        <time>2011-04-24T14:32:45Z</time>
      </trkpt>
      <trkpt lat="47.27878" lon="-2.36431">
        <ele>59</ele>
        <time>2011-04-24T14:32:47Z</time>
      </trkpt>
      <trkpt lat="47.27871" lon="-2.36425">
        <ele>59</ele>
        <time>2011-04-24T14:32:49Z</time>
      </trkpt>
      <trkpt lat="47.27864" lon="-2.36418">
        <ele>60</ele>
        <time>2011-04-24T14:32:51Z</time>
      </trkpt>
      <trkpt lat="47.27857" lon="-2.36411">
        <ele>60</ele>
        <time>2011-04-24T14:32:53Z</time>
      </trkpt>
      <trkpt lat="47.2785" lon="-2.36404">
        <ele>59</ele>
        <time>2011-04-24T14:32:55Z</time>
      </trkpt>
      <trkpt lat="47.27844" lon="-2.36396">
        <ele>59</ele>
        <time>2011-04-24T14:32:57Z</time>
      </trkpt>
      <trkpt lat="47.27836" lon="-2.3639">
        <ele>59</ele>
        <time>2011-04-24T14:32:59Z</time>
      </trkpt>
      <trkpt lat="47.2783" lon="-2.36385">
        <ele>59</ele>
        <time>2011-04-24T14:33:01Z</time>
      </trkpt>
      <trkpt lat="47.27824" lon="-2.36382">
        <ele>59</ele>
        <time>2011-04-24T14:33:02Z</time>
      </trkpt>
      <trkpt lat="47.27822" lon="-2.36374">
        <ele>60</ele>
        <time>2011-04-24T14:33:05Z</time>
      </trkpt>
      <trkpt lat="47.27817" lon="-2.36366">
        <ele>62</ele>
        <time>2011-04-24T14:33:07Z</time>
      </trkpt>
      <trkpt lat="47.27815" lon="-2.36357">
        <ele>62</ele>
        <time>2011-04-24T14:33:09Z</time>
      </trkpt>
      <trkpt lat="47.27812" lon="-2.36348">
        <ele>61</ele>
        <time>2011-04-24T14:33:11Z</time>
      </trkpt>
      <trkpt lat="47.27808" lon="-2.36335">
        <ele>61</ele>
        <time>2011-04-24T14:33:12Z</time>
      </trkpt>
      <trkpt lat="47.27798" lon="-2.36339">
        <ele>61</ele>
        <time>2011-04-24T14:33:13Z</time>
      </trkpt>
      <trkpt lat="47.27792" lon="-2.36338">
        <ele>60</ele>
        <time>2011-04-24T14:33:14Z</time>
      </trkpt>
      <trkpt lat="47.27786" lon="-2.36338">
        <ele>60</ele>
        <time>2011-04-24T14:33:16Z</time>
      </trkpt>
      <trkpt lat="47.27779" lon="-2.36333">
        <ele>60</ele>
        <time>2011-04-24T14:33:18Z</time>
      </trkpt>
      <trkpt lat="47.27775" lon="-2.36328">
        <ele>61</ele>
        <time>2011-04-24T14:33:20Z</time>
      </trkpt>
      <trkpt lat="47.27768" lon="-2.36322">
        <ele>59</ele>
        <time>2011-04-24T14:33:22Z</time>
      </trkpt>
      <trkpt lat="47.27763" lon="-2.36316">
        <ele>58</ele>
        <time>2011-04-24T14:33:24Z</time>
      </trkpt>
      <trkpt lat="47.27758" lon="-2.36315">
        <ele>58</ele>
        <time>2011-04-24T14:33:25Z</time>
      </trkpt>
      <trkpt lat="47.27753" lon="-2.36313">
        <ele>58</ele>
        <time>2011-04-24T14:33:26Z</time>
      </trkpt>
      <trkpt lat="47.27747" lon="-2.36307">
        <ele>58</ele>
        <time>2011-04-24T14:33:28Z</time>
      </trkpt>
      <trkpt lat="47.27741" lon="-2.36305">
        <ele>58</ele>
        <time>2011-04-24T14:33:29Z</time>
      </trkpt>
      <trkpt lat="47.27737" lon="-2.36303">
        <ele>58</ele>
        <time>2011-04-24T14:33:30Z</time>
      </trkpt>
      <trkpt lat="47.27732" lon="-2.363">
        <ele>59</ele>
        <time>2011-04-24T14:33:31Z</time>
      </trkpt>
      <trkpt lat="47.27725" lon="-2.36294">
        <ele>60</ele>
        <time>2011-04-24T14:33:33Z</time>
      </trkpt>
      <trkpt lat="47.27719" lon="-2.36289">
        <ele>61</ele>
        <time>2011-04-24T14:33:35Z</time>
      </trkpt>
      <trkpt lat="47.27714" lon="-2.36284">
        <ele>62</ele>
        <time>2011-04-24T14:33:37Z</time>
      </trkpt>
      <trkpt lat="47.27708" lon="-2.3628">
        <ele>62</ele>
        <time>2011-04-24T14:33:39Z</time>
      </trkpt>
      <trkpt lat="47.27704" lon="-2.36277">
        <ele>63</ele>
        <time>2011-04-24T14:33:40Z</time>
      </trkpt>
      <trkpt lat="47.277" lon="-2.3627">
        <ele>63</ele>
        <time>2011-04-24T14:33:42Z</time>
      </trkpt>
      <trkpt lat="47.27694" lon="-2.36264">
        <ele>63</ele>
        <time>2011-04-24T14:33:44Z</time>
      </trkpt>
      <trkpt lat="47.2769" lon="-2.36257">
        <ele>64</ele>
        <time>2011-04-24T14:33:46Z</time>
      </trkpt>
      <trkpt lat="47.27684" lon="-2.36252">
        <ele>65</ele>
        <time>2011-04-24T14:33:48Z</time>
      </trkpt>
      <trkpt lat="47.27678" lon="-2.36248">
        <ele>64</ele>
        <time>2011-04-24T14:33:50Z</time>
      </trkpt>
      <trkpt lat="47.27673" lon="-2.36244">
        <ele>63</ele>
        <time>2011-04-24T14:33:52Z</time>
      </trkpt>
      <trkpt lat="47.27668" lon="-2.3624">
        <ele>63</ele>
        <time>2011-04-24T14:33:54Z</time>
      </trkpt>
      <trkpt lat="47.27661" lon="-2.36238">
        <ele>62</ele>
        <time>2011-04-24T14:33:56Z</time>
      </trkpt>
      <trkpt lat="47.27654" lon="-2.36236">
        <ele>62</ele>
        <time>2011-04-24T14:33:58Z</time>
      </trkpt>
      <trkpt lat="47.27646" lon="-2.36234">
        <ele>61</ele>
        <time>2011-04-24T14:34:00Z</time>
      </trkpt>
      <trkpt lat="47.2764" lon="-2.36233">
        <ele>61</ele>
        <time>2011-04-24T14:34:02Z</time>
      </trkpt>
      <trkpt lat="47.27633" lon="-2.3623">
        <ele>62</ele>
        <time>2011-04-24T14:34:04Z</time>
      </trkpt>
      <trkpt lat="47.27629" lon="-2.3622">
        <ele>61</ele>
        <time>2011-04-24T14:34:06Z</time>
      </trkpt>
      <trkpt lat="47.27627" lon="-2.36212">
        <ele>62</ele>
        <time>2011-04-24T14:34:08Z</time>
      </trkpt>
      <trkpt lat="47.2762" lon="-2.36206">
        <ele>63</ele>
        <time>2011-04-24T14:34:10Z</time>
      </trkpt>
      <trkpt lat="47.27613" lon="-2.362">
        <ele>63</ele>
        <time>2011-04-24T14:34:12Z</time>
      </trkpt>
      <trkpt lat="47.27604" lon="-2.36187">
        <ele>64</ele>
        <time>2011-04-24T14:34:16Z</time>
      </trkpt>
      <trkpt lat="47.27599" lon="-2.3618">
        <ele>64</ele>
        <time>2011-04-24T14:34:18Z</time>
      </trkpt>
      <trkpt lat="47.27592" lon="-2.36173">
        <ele>64</ele>
        <time>2011-04-24T14:34:20Z</time>
      </trkpt>
      <trkpt lat="47.27585" lon="-2.36167">
        <ele>63</ele>
        <time>2011-04-24T14:34:22Z</time>
      </trkpt>
      <trkpt lat="47.2758" lon="-2.36162">
        <ele>64</ele>
        <time>2011-04-24T14:34:24Z</time>
      </trkpt>
      <trkpt lat="47.27575" lon="-2.36157">
        <ele>65</ele>
        <time>2011-04-24T14:34:26Z</time>
      </trkpt>
      <trkpt lat="47.27569" lon="-2.3615">
        <ele>66</ele>
        <time>2011-04-24T14:34:28Z</time>
      </trkpt>
      <trkpt lat="47.27562" lon="-2.36145">
        <ele>66</ele>
        <time>2011-04-24T14:34:30Z</time>
      </trkpt>
      <trkpt lat="47.27555" lon="-2.36139">
        <ele>65</ele>
        <time>2011-04-24T14:34:32Z</time>
      </trkpt>
      <trkpt lat="47.27549" lon="-2.36137">
        <ele>65</ele>
        <time>2011-04-24T14:34:33Z</time>
      </trkpt>
      <trkpt lat="47.27541" lon="-2.36131">
        <ele>64</ele>
        <time>2011-04-24T14:34:35Z</time>
      </trkpt>
      <trkpt lat="47.27537" lon="-2.36126">
        <ele>65</ele>
        <time>2011-04-24T14:34:37Z</time>
      </trkpt>
      <trkpt lat="47.27533" lon="-2.36118">
        <ele>65</ele>
        <time>2011-04-24T14:34:39Z</time>
      </trkpt>
      <trkpt lat="47.27531" lon="-2.36108">
        <ele>65</ele>
        <time>2011-04-24T14:34:41Z</time>
      </trkpt>
      <trkpt lat="47.27527" lon="-2.36101">
        <ele>64</ele>
        <time>2011-04-24T14:34:43Z</time>
      </trkpt>
      <trkpt lat="47.27524" lon="-2.36091">
        <ele>64</ele>
        <time>2011-04-24T14:34:46Z</time>
      </trkpt>
      <trkpt lat="47.27522" lon="-2.36083">
        <ele>63</ele>
        <time>2011-04-24T14:34:48Z</time>
      </trkpt>
      <trkpt lat="47.27519" lon="-2.36076">
        <ele>64</ele>
        <time>2011-04-24T14:34:50Z</time>
      </trkpt>
      <trkpt lat="47.27515" lon="-2.36068">
        <ele>63</ele>
        <time>2011-04-24T14:34:52Z</time>
      </trkpt>
      <trkpt lat="47.27512" lon="-2.3606">
        <ele>63</ele>
        <time>2011-04-24T14:34:54Z</time>
      </trkpt>
      <trkpt lat="47.2751" lon="-2.36053">
        <ele>63</ele>
        <time>2011-04-24T14:34:56Z</time>
      </trkpt>
      <trkpt lat="47.27507" lon="-2.36044">
        <ele>62</ele>
        <time>2011-04-24T14:34:58Z</time>
      </trkpt>
      <trkpt lat="47.27504" lon="-2.36036">
        <ele>62</ele>
        <time>2011-04-24T14:35:00Z</time>
      </trkpt>
      <trkpt lat="47.27501" lon="-2.36028">
        <ele>63</ele>
        <time>2011-04-24T14:35:02Z</time>
      </trkpt>
      <trkpt lat="47.27498" lon="-2.36019">
        <ele>62</ele>
        <time>2011-04-24T14:35:04Z</time>
      </trkpt>
      <trkpt lat="47.27495" lon="-2.3601">
        <ele>62</ele>
        <time>2011-04-24T14:35:06Z</time>
      </trkpt>
      <trkpt lat="47.27492" lon="-2.36002">
        <ele>63</ele>
        <time>2011-04-24T14:35:08Z</time>
      </trkpt>
      <trkpt lat="47.27489" lon="-2.35992">
        <ele>63</ele>
        <time>2011-04-24T14:35:10Z</time>
      </trkpt>
      <trkpt lat="47.27486" lon="-2.35983">
        <ele>63</ele>
        <time>2011-04-24T14:35:12Z</time>
      </trkpt>
      <trkpt lat="47.27484" lon="-2.35972">
        <ele>63</ele>
        <time>2011-04-24T14:35:14Z</time>
      </trkpt>
      <trkpt lat="47.2748" lon="-2.35965">
        <ele>63</ele>
        <time>2011-04-24T14:35:16Z</time>
      </trkpt>
      <trkpt lat="47.27478" lon="-2.35955">
        <ele>64</ele>
        <time>2011-04-24T14:35:18Z</time>
      </trkpt>
      <trkpt lat="47.27474" lon="-2.35945">
        <ele>65</ele>
        <time>2011-04-24T14:35:20Z</time>
      </trkpt>
      <trkpt lat="47.27471" lon="-2.35935">
        <ele>65</ele>
        <time>2011-04-24T14:35:22Z</time>
      </trkpt>
      <trkpt lat="47.27467" lon="-2.35923">
        <ele>64</ele>
        <time>2011-04-24T14:35:24Z</time>
      </trkpt>
      <trkpt lat="47.27463" lon="-2.35913">
        <ele>63</ele>
        <time>2011-04-24T14:35:26Z</time>
      </trkpt>
      <trkpt lat="47.27461" lon="-2.35906">
        <ele>63</ele>
        <time>2011-04-24T14:35:27Z</time>
      </trkpt>
      <trkpt lat="47.27459" lon="-2.35894">
        <ele>62</ele>
        <time>2011-04-24T14:35:29Z</time>
      </trkpt>
      <trkpt lat="47.27456" lon="-2.35883">
        <ele>62</ele>
        <time>2011-04-24T14:35:31Z</time>
      </trkpt>
      <trkpt lat="47.27453" lon="-2.35871">
        <ele>62</ele>
        <time>2011-04-24T14:35:33Z</time>
      </trkpt>
      <trkpt lat="47.2745" lon="-2.35859">
        <ele>62</ele>
        <time>2011-04-24T14:35:35Z</time>
      </trkpt>
      <trkpt lat="47.27446" lon="-2.35848">
        <ele>62</ele>
        <time>2011-04-24T14:35:37Z</time>
      </trkpt>
      <trkpt lat="47.27444" lon="-2.35841">
        <ele>62</ele>
        <time>2011-04-24T14:35:38Z</time>
      </trkpt>
      <trkpt lat="47.27442" lon="-2.35829">
        <ele>62</ele>
        <time>2011-04-24T14:35:40Z</time>
      </trkpt>
      <trkpt lat="47.2744" lon="-2.35824">
        <ele>62</ele>
        <time>2011-04-24T14:35:41Z</time>
      </trkpt>
      <trkpt lat="47.27432" lon="-2.35814">
        <ele>62</ele>
        <time>2011-04-24T14:35:43Z</time>
      </trkpt>
      <trkpt lat="47.27429" lon="-2.35803">
        <ele>62</ele>
        <time>2011-04-24T14:35:45Z</time>
      </trkpt>
      <trkpt lat="47.27425" lon="-2.35792">
        <ele>62</ele>
        <time>2011-04-24T14:35:47Z</time>
      </trkpt>
      <trkpt lat="47.27419" lon="-2.35781">
        <ele>62</ele>
        <time>2011-04-24T14:35:49Z</time>
      </trkpt>
      <trkpt lat="47.27418" lon="-2.35769">
        <ele>62</ele>
        <time>2011-04-24T14:35:51Z</time>
      </trkpt>
      <trkpt lat="47.27415" lon="-2.35751">
        <ele>63</ele>
        <time>2011-04-24T14:35:54Z</time>
      </trkpt>
      <trkpt lat="47.27415" lon="-2.35739">
        <ele>63</ele>
        <time>2011-04-24T14:35:56Z</time>
      </trkpt>
      <trkpt lat="47.27412" lon="-2.35733">
        <ele>64</ele>
        <time>2011-04-24T14:35:57Z</time>
      </trkpt>
      <trkpt lat="47.27408" lon="-2.35727">
        <ele>63</ele>
        <time>2011-04-24T14:35:58Z</time>
      </trkpt>
      <trkpt lat="47.27406" lon="-2.3572">
        <ele>63</ele>
        <time>2011-04-24T14:35:59Z</time>
      </trkpt>
      <trkpt lat="47.274" lon="-2.35708">
        <ele>63</ele>
        <time>2011-04-24T14:36:01Z</time>
      </trkpt>
      <trkpt lat="47.27396" lon="-2.35703">
        <ele>62</ele>
        <time>2011-04-24T14:36:02Z</time>
      </trkpt>
      <trkpt lat="47.27393" lon="-2.35698">
        <ele>61</ele>
        <time>2011-04-24T14:36:03Z</time>
      </trkpt>
      <trkpt lat="47.27391" lon="-2.35691">
        <ele>61</ele>
        <time>2011-04-24T14:36:05Z</time>
      </trkpt>
      <trkpt lat="47.27388" lon="-2.35684">
        <ele>64</ele>
        <time>2011-04-24T14:36:29Z</time>
      </trkpt>
      <trkpt lat="47.27391" lon="-2.35675">
        <ele>64</ele>
        <time>2011-04-24T14:36:32Z</time>
      </trkpt>
      <trkpt lat="47.27394" lon="-2.3567">
        <ele>63</ele>
        <time>2011-04-24T14:36:34Z</time>
      </trkpt>
      <trkpt lat="47.27399" lon="-2.35667">
        <ele>64</ele>
        <time>2011-04-24T14:36:36Z</time>
      </trkpt>
      <trkpt lat="47.27402" lon="-2.3566">
        <ele>64</ele>
        <time>2011-04-24T14:36:38Z</time>
      </trkpt>
      <trkpt lat="47.27406" lon="-2.35654">
        <ele>64</ele>
        <time>2011-04-24T14:36:40Z</time>
      </trkpt>
      <trkpt lat="47.27407" lon="-2.35643">
        <ele>65</ele>
        <time>2011-04-24T14:36:42Z</time>
      </trkpt>
      <trkpt lat="47.27407" lon="-2.35635">
        <ele>64</ele>
        <time>2011-04-24T14:36:44Z</time>
      </trkpt>
      <trkpt lat="47.27407" lon="-2.35625">
        <ele>64</ele>
        <time>2011-04-24T14:36:46Z</time>
      </trkpt>
      <trkpt lat="47.27405" lon="-2.35615">
        <ele>64</ele>
        <time>2011-04-24T14:36:48Z</time>
      </trkpt>
      <trkpt lat="47.27404" lon="-2.35605">
        <ele>63</ele>
        <time>2011-04-24T14:36:50Z</time>
      </trkpt>
      <trkpt lat="47.27402" lon="-2.35594">
        <ele>63</ele>
        <time>2011-04-24T14:36:52Z</time>
      </trkpt>
      <trkpt lat="47.27401" lon="-2.35584">
        <ele>63</ele>
        <time>2011-04-24T14:36:54Z</time>
      </trkpt>
      <trkpt lat="47.274" lon="-2.35574">
        <ele>62</ele>
        <time>2011-04-24T14:36:56Z</time>
      </trkpt>
      <trkpt lat="47.27399" lon="-2.35563">
        <ele>62</ele>
        <time>2011-04-24T14:36:58Z</time>
      </trkpt>
      <trkpt lat="47.27397" lon="-2.35553">
        <ele>62</ele>
        <time>2011-04-24T14:37:00Z</time>
      </trkpt>
      <trkpt lat="47.27395" lon="-2.35542">
        <ele>62</ele>
        <time>2011-04-24T14:37:02Z</time>
      </trkpt>
      <trkpt lat="47.27394" lon="-2.35533">
        <ele>62</ele>
        <time>2011-04-24T14:37:04Z</time>
      </trkpt>
      <trkpt lat="47.27392" lon="-2.35523">
        <ele>63</ele>
        <time>2011-04-24T14:37:06Z</time>
      </trkpt>
      <trkpt lat="47.2739" lon="-2.35512">
        <ele>63</ele>
        <time>2011-04-24T14:37:08Z</time>
      </trkpt>
      <trkpt lat="47.27388" lon="-2.35502">
        <ele>63</ele>
        <time>2011-04-24T14:37:10Z</time>
      </trkpt>
      <trkpt lat="47.27386" lon="-2.35492">
        <ele>62</ele>
        <time>2011-04-24T14:37:12Z</time>
      </trkpt>
      <trkpt lat="47.27384" lon="-2.35481">
        <ele>62</ele>
        <time>2011-04-24T14:37:14Z</time>
      </trkpt>
      <trkpt lat="47.27382" lon="-2.3547">
        <ele>61</ele>
        <time>2011-04-24T14:37:16Z</time>
      </trkpt>
      <trkpt lat="47.27379" lon="-2.3546">
        <ele>61</ele>
        <time>2011-04-24T14:37:18Z</time>
      </trkpt>
      <trkpt lat="47.27378" lon="-2.35449">
        <ele>60</ele>
        <time>2011-04-24T14:37:20Z</time>
      </trkpt>
      <trkpt lat="47.27376" lon="-2.35438">
        <ele>60</ele>
        <time>2011-04-24T14:37:22Z</time>
      </trkpt>
      <trkpt lat="47.27372" lon="-2.35428">
        <ele>60</ele>
        <time>2011-04-24T14:37:24Z</time>
      </trkpt>
      <trkpt lat="47.2737" lon="-2.35418">
        <ele>60</ele>
        <time>2011-04-24T14:37:26Z</time>
      </trkpt>
      <trkpt lat="47.27367" lon="-2.35408">
        <ele>60</ele>
        <time>2011-04-24T14:37:28Z</time>
      </trkpt>
      <trkpt lat="47.27365" lon="-2.35398">
        <ele>60</ele>
        <time>2011-04-24T14:37:30Z</time>
      </trkpt>
      <trkpt lat="47.27364" lon="-2.35387">
        <ele>59</ele>
        <time>2011-04-24T14:37:32Z</time>
      </trkpt>
      <trkpt lat="47.27362" lon="-2.35377">
        <ele>60</ele>
        <time>2011-04-24T14:37:34Z</time>
      </trkpt>
      <trkpt lat="47.2736" lon="-2.35368">
        <ele>61</ele>
        <time>2011-04-24T14:37:36Z</time>
      </trkpt>
      <trkpt lat="47.27358" lon="-2.35358">
        <ele>62</ele>
        <time>2011-04-24T14:37:38Z</time>
      </trkpt>
      <trkpt lat="47.27356" lon="-2.35349">
        <ele>62</ele>
        <time>2011-04-24T14:37:40Z</time>
      </trkpt>
      <trkpt lat="47.27354" lon="-2.35339">
        <ele>63</ele>
        <time>2011-04-24T14:37:42Z</time>
      </trkpt>
      <trkpt lat="47.27352" lon="-2.35329">
        <ele>63</ele>
        <time>2011-04-24T14:37:44Z</time>
      </trkpt>
      <trkpt lat="47.2735" lon="-2.35319">
        <ele>63</ele>
        <time>2011-04-24T14:37:46Z</time>
      </trkpt>
      <trkpt lat="47.27347" lon="-2.3531">
        <ele>64</ele>
        <time>2011-04-24T14:37:48Z</time>
      </trkpt>
      <trkpt lat="47.27344" lon="-2.353">
        <ele>64</ele>
        <time>2011-04-24T14:37:50Z</time>
      </trkpt>
      <trkpt lat="47.27342" lon="-2.35291">
        <ele>64</ele>
        <time>2011-04-24T14:37:52Z</time>
      </trkpt>
      <trkpt lat="47.2734" lon="-2.35282">
        <ele>65</ele>
        <time>2011-04-24T14:37:54Z</time>
      </trkpt>
      <trkpt lat="47.27338" lon="-2.35274">
        <ele>65</ele>
        <time>2011-04-24T14:37:56Z</time>
      </trkpt>
      <trkpt lat="47.27336" lon="-2.35266">
        <ele>65</ele>
        <time>2011-04-24T14:37:58Z</time>
      </trkpt>
      <trkpt lat="47.27334" lon="-2.35257">
        <ele>65</ele>
        <time>2011-04-24T14:38:00Z</time>
      </trkpt>
      <trkpt lat="47.27332" lon="-2.35248">
        <ele>65</ele>
        <time>2011-04-24T14:38:02Z</time>
      </trkpt>
      <trkpt lat="47.27329" lon="-2.35238">
        <ele>65</ele>
        <time>2011-04-24T14:38:04Z</time>
      </trkpt>
      <trkpt lat="47.27327" lon="-2.35229">
        <ele>65</ele>
        <time>2011-04-24T14:38:06Z</time>
      </trkpt>
      <trkpt lat="47.27326" lon="-2.3522">
        <ele>65</ele>
        <time>2011-04-24T14:38:08Z</time>
      </trkpt>
      <trkpt lat="47.27324" lon="-2.35211">
        <ele>65</ele>
        <time>2011-04-24T14:38:10Z</time>
      </trkpt>
      <trkpt lat="47.27322" lon="-2.35203">
        <ele>66</ele>
        <time>2011-04-24T14:38:12Z</time>
      </trkpt>
      <trkpt lat="47.27319" lon="-2.35194">
        <ele>66</ele>
        <time>2011-04-24T14:38:14Z</time>
      </trkpt>
      <trkpt lat="47.27318" lon="-2.35186">
        <ele>66</ele>
        <time>2011-04-24T14:38:16Z</time>
      </trkpt>
      <trkpt lat="47.27316" lon="-2.35178">
        <ele>66</ele>
        <time>2011-04-24T14:38:18Z</time>
      </trkpt>
      <trkpt lat="47.27314" lon="-2.35169">
        <ele>66</ele>
        <time>2011-04-24T14:38:20Z</time>
      </trkpt>
      <trkpt lat="47.27312" lon="-2.3516">
        <ele>66</ele>
        <time>2011-04-24T14:38:22Z</time>
      </trkpt>
      <trkpt lat="47.2731" lon="-2.35151">
        <ele>67</ele>
        <time>2011-04-24T14:38:24Z</time>
      </trkpt>
      <trkpt lat="47.27309" lon="-2.35143">
        <ele>66</ele>
        <time>2011-04-24T14:38:26Z</time>
      </trkpt>
      <trkpt lat="47.27307" lon="-2.35135">
        <ele>67</ele>
        <time>2011-04-24T14:38:28Z</time>
      </trkpt>
      <trkpt lat="47.27305" lon="-2.35126">
        <ele>67</ele>
        <time>2011-04-24T14:38:30Z</time>
      </trkpt>
      <trkpt lat="47.27303" lon="-2.35116">
        <ele>67</ele>
        <time>2011-04-24T14:38:32Z</time>
      </trkpt>
      <trkpt lat="47.273" lon="-2.35107">
        <ele>67</ele>
        <time>2011-04-24T14:38:34Z</time>
      </trkpt>
      <trkpt lat="47.27299" lon="-2.35097">
        <ele>67</ele>
        <time>2011-04-24T14:38:36Z</time>
      </trkpt>
      <trkpt lat="47.27297" lon="-2.35088">
        <ele>67</ele>
        <time>2011-04-24T14:38:38Z</time>
      </trkpt>
      <trkpt lat="47.27294" lon="-2.35078">
        <ele>67</ele>
        <time>2011-04-24T14:38:40Z</time>
      </trkpt>
      <trkpt lat="47.27292" lon="-2.35068">
        <ele>67</ele>
        <time>2011-04-24T14:38:42Z</time>
      </trkpt>
      <trkpt lat="47.2729" lon="-2.35058">
        <ele>67</ele>
        <time>2011-04-24T14:38:44Z</time>
      </trkpt>
      <trkpt lat="47.27288" lon="-2.35048">
        <ele>67</ele>
        <time>2011-04-24T14:38:46Z</time>
      </trkpt>
      <trkpt lat="47.27286" lon="-2.35038">
        <ele>67</ele>
        <time>2011-04-24T14:38:48Z</time>
      </trkpt>
      <trkpt lat="47.27282" lon="-2.35028">
        <ele>67</ele>
        <time>2011-04-24T14:38:50Z</time>
      </trkpt>
      <trkpt lat="47.2728" lon="-2.35018">
        <ele>67</ele>
        <time>2011-04-24T14:38:52Z</time>
      </trkpt>
      <trkpt lat="47.27278" lon="-2.35008">
        <ele>67</ele>
        <time>2011-04-24T14:38:54Z</time>
      </trkpt>
      <trkpt lat="47.27275" lon="-2.34998">
        <ele>67</ele>
        <time>2011-04-24T14:38:56Z</time>
      </trkpt>
      <trkpt lat="47.27273" lon="-2.34988">
        <ele>67</ele>
        <time>2011-04-24T14:38:58Z</time>
      </trkpt>
      <trkpt lat="47.2727" lon="-2.34978">
        <ele>67</ele>
        <time>2011-04-24T14:39:00Z</time>
      </trkpt>
      <trkpt lat="47.27268" lon="-2.34968">
        <ele>67</ele>
        <time>2011-04-24T14:39:02Z</time>
      </trkpt>
      <trkpt lat="47.27266" lon="-2.34958">
        <ele>67</ele>
        <time>2011-04-24T14:39:04Z</time>
      </trkpt>
      <trkpt lat="47.27264" lon="-2.34949">
        <ele>67</ele>
        <time>2011-04-24T14:39:06Z</time>
      </trkpt>
      <trkpt lat="47.27261" lon="-2.34938">
        <ele>67</ele>
        <time>2011-04-24T14:39:08Z</time>
      </trkpt>
      <trkpt lat="47.27258" lon="-2.34928">
        <ele>67</ele>
        <time>2011-04-24T14:39:10Z</time>
      </trkpt>
      <trkpt lat="47.27256" lon="-2.34917">
        <ele>68</ele>
        <time>2011-04-24T14:39:12Z</time>
      </trkpt>
      <trkpt lat="47.27253" lon="-2.34906">
        <ele>68</ele>
        <time>2011-04-24T14:39:14Z</time>
      </trkpt>
      <trkpt lat="47.2725" lon="-2.34896">
        <ele>68</ele>
        <time>2011-04-24T14:39:16Z</time>
      </trkpt>
      <trkpt lat="47.27247" lon="-2.34885">
        <ele>68</ele>
        <time>2011-04-24T14:39:18Z</time>
      </trkpt>
      <trkpt lat="47.27245" lon="-2.34875">
        <ele>68</ele>
        <time>2011-04-24T14:39:20Z</time>
      </trkpt>
      <trkpt lat="47.27243" lon="-2.34865">
        <ele>68</ele>
        <time>2011-04-24T14:39:22Z</time>
      </trkpt>
      <trkpt lat="47.27241" lon="-2.34854">
        <ele>67</ele>
        <time>2011-04-24T14:39:24Z</time>
      </trkpt>
      <trkpt lat="47.27239" lon="-2.34844">
        <ele>67</ele>
        <time>2011-04-24T14:39:26Z</time>
      </trkpt>
      <trkpt lat="47.27237" lon="-2.34833">
        <ele>67</ele>
        <time>2011-04-24T14:39:28Z</time>
      </trkpt>
      <trkpt lat="47.27235" lon="-2.34822">
        <ele>68</ele>
        <time>2011-04-24T14:39:30Z</time>
      </trkpt>
      <trkpt lat="47.27232" lon="-2.34812">
        <ele>68</ele>
        <time>2011-04-24T14:39:32Z</time>
      </trkpt>
      <trkpt lat="47.2723" lon="-2.34802">
        <ele>67</ele>
        <time>2011-04-24T14:39:34Z</time>
      </trkpt>
      <trkpt lat="47.27228" lon="-2.3479">
        <ele>67</ele>
        <time>2011-04-24T14:39:36Z</time>
      </trkpt>
      <trkpt lat="47.27226" lon="-2.3478">
        <ele>66</ele>
        <time>2011-04-24T14:39:38Z</time>
      </trkpt>
      <trkpt lat="47.27223" lon="-2.34769">
        <ele>66</ele>
        <time>2011-04-24T14:39:40Z</time>
      </trkpt>
      <trkpt lat="47.27221" lon="-2.34759">
        <ele>65</ele>
        <time>2011-04-24T14:39:42Z</time>
      </trkpt>
      <trkpt lat="47.27219" lon="-2.34748">
        <ele>66</ele>
        <time>2011-04-24T14:39:44Z</time>
      </trkpt>
      <trkpt lat="47.27216" lon="-2.34739">
        <ele>66</ele>
        <time>2011-04-24T14:39:46Z</time>
      </trkpt>
      <trkpt lat="47.27214" lon="-2.34729">
        <ele>66</ele>
        <time>2011-04-24T14:39:48Z</time>
      </trkpt>
      <trkpt lat="47.27211" lon="-2.34717">
        <ele>66</ele>
        <time>2011-04-24T14:39:50Z</time>
      </trkpt>
      <trkpt lat="47.27209" lon="-2.34706">
        <ele>66</ele>
        <time>2011-04-24T14:39:52Z</time>
      </trkpt>
      <trkpt lat="47.27207" lon="-2.34695">
        <ele>66</ele>
        <time>2011-04-24T14:39:54Z</time>
      </trkpt>
      <trkpt lat="47.27205" lon="-2.34685">
        <ele>66</ele>
        <time>2011-04-24T14:39:56Z</time>
      </trkpt>
      <trkpt lat="47.27201" lon="-2.34674">
        <ele>66</ele>
        <time>2011-04-24T14:39:58Z</time>
      </trkpt>
      <trkpt lat="47.27199" lon="-2.34663">
        <ele>66</ele>
        <time>2011-04-24T14:40:00Z</time>
      </trkpt>
      <trkpt lat="47.27196" lon="-2.34654">
        <ele>67</ele>
        <time>2011-04-24T14:40:02Z</time>
      </trkpt>
      <trkpt lat="47.27193" lon="-2.34643">
        <ele>67</ele>
        <time>2011-04-24T14:40:04Z</time>
      </trkpt>
      <trkpt lat="47.27191" lon="-2.34632">
        <ele>66</ele>
        <time>2011-04-24T14:40:06Z</time>
      </trkpt>
      <trkpt lat="47.27188" lon="-2.34621">
        <ele>66</ele>
        <time>2011-04-24T14:40:08Z</time>
      </trkpt>
      <trkpt lat="47.27187" lon="-2.34609">
        <ele>66</ele>
        <time>2011-04-24T14:40:10Z</time>
      </trkpt>
      <trkpt lat="47.27186" lon="-2.34598">
        <ele>66</ele>
        <time>2011-04-24T14:40:12Z</time>
      </trkpt>
      <trkpt lat="47.27185" lon="-2.34588">
        <ele>66</ele>
        <time>2011-04-24T14:40:14Z</time>
      </trkpt>
      <trkpt lat="47.27182" lon="-2.34576">
        <ele>66</ele>
        <time>2011-04-24T14:40:16Z</time>
      </trkpt>
      <trkpt lat="47.27179" lon="-2.34566">
        <ele>66</ele>
        <time>2011-04-24T14:40:18Z</time>
      </trkpt>
      <trkpt lat="47.27177" lon="-2.34555">
        <ele>65</ele>
        <time>2011-04-24T14:40:20Z</time>
      </trkpt>
      <trkpt lat="47.27174" lon="-2.34545">
        <ele>64</ele>
        <time>2011-04-24T14:40:22Z</time>
      </trkpt>
      <trkpt lat="47.27173" lon="-2.34536">
        <ele>65</ele>
        <time>2011-04-24T14:40:24Z</time>
      </trkpt>
      <trkpt lat="47.27177" lon="-2.34532">
        <ele>64</ele>
        <time>2011-04-24T14:40:27Z</time>
      </trkpt>
      <trkpt lat="47.27179" lon="-2.34538">
        <ele>69</ele>
        <time>2011-04-24T14:42:15Z</time>
      </trkpt>
      <trkpt lat="47.27174" lon="-2.34533">
        <ele>68</ele>
        <time>2011-04-24T14:42:25Z</time>
      </trkpt>
      <trkpt lat="47.27171" lon="-2.34528">
        <ele>67</ele>
        <time>2011-04-24T14:42:27Z</time>
      </trkpt>
      <trkpt lat="47.27168" lon="-2.34519">
        <ele>66</ele>
        <time>2011-04-24T14:42:29Z</time>
      </trkpt>
      <trkpt lat="47.27165" lon="-2.3451">
        <ele>66</ele>
        <time>2011-04-24T14:42:31Z</time>
      </trkpt>
      <trkpt lat="47.27162" lon="-2.345">
        <ele>65</ele>
        <time>2011-04-24T14:42:33Z</time>
      </trkpt>
      <trkpt lat="47.2716" lon="-2.34489">
        <ele>65</ele>
        <time>2011-04-24T14:42:35Z</time>
      </trkpt>
      <trkpt lat="47.27157" lon="-2.34478">
        <ele>65</ele>
        <time>2011-04-24T14:42:37Z</time>
      </trkpt>
      <trkpt lat="47.27155" lon="-2.34467">
        <ele>65</ele>
        <time>2011-04-24T14:42:39Z</time>
      </trkpt>
      <trkpt lat="47.27152" lon="-2.34455">
        <ele>65</ele>
        <time>2011-04-24T14:42:41Z</time>
      </trkpt>
      <trkpt lat="47.27149" lon="-2.34444">
        <ele>64</ele>
        <time>2011-04-24T14:42:43Z</time>
      </trkpt>
      <trkpt lat="47.27146" lon="-2.34432">
        <ele>64</ele>
        <time>2011-04-24T14:42:45Z</time>
      </trkpt>
      <trkpt lat="47.27144" lon="-2.34421">
        <ele>65</ele>
        <time>2011-04-24T14:42:47Z</time>
      </trkpt>
      <trkpt lat="47.27142" lon="-2.3441">
        <ele>65</ele>
        <time>2011-04-24T14:42:49Z</time>
      </trkpt>
      <trkpt lat="47.2714" lon="-2.344">
        <ele>65</ele>
        <time>2011-04-24T14:42:51Z</time>
      </trkpt>
      <trkpt lat="47.27138" lon="-2.34391">
        <ele>66</ele>
        <time>2011-04-24T14:42:53Z</time>
      </trkpt>
      <trkpt lat="47.27136" lon="-2.34383">
        <ele>66</ele>
        <time>2011-04-24T14:42:55Z</time>
      </trkpt>
      <trkpt lat="47.27134" lon="-2.34376">
        <ele>66</ele>
        <time>2011-04-24T14:42:57Z</time>
      </trkpt>
      <trkpt lat="47.27132" lon="-2.34369">
        <ele>65</ele>
        <time>2011-04-24T14:42:59Z</time>
      </trkpt>
      <trkpt lat="47.27129" lon="-2.34362">
        <ele>65</ele>
        <time>2011-04-24T14:43:02Z</time>
      </trkpt>
      <trkpt lat="47.27128" lon="-2.34354">
        <ele>65</ele>
        <time>2011-04-24T14:43:06Z</time>
      </trkpt>
      <trkpt lat="47.27126" lon="-2.34347">
        <ele>65</ele>
        <time>2011-04-24T14:43:12Z</time>
      </trkpt>
      <trkpt lat="47.27129" lon="-2.34342">
        <ele>65</ele>
        <time>2011-04-24T14:43:15Z</time>
      </trkpt>
      <trkpt lat="47.27131" lon="-2.34348">
        <ele>66</ele>
        <time>2011-04-24T14:43:27Z</time>
      </trkpt>
      <trkpt lat="47.27134" lon="-2.34355">
        <ele>64</ele>
        <time>2011-04-24T14:44:46Z</time>
      </trkpt>
      <trkpt lat="47.27134" lon="-2.34355">
        <ele>64</ele>
        <time>2011-04-24T14:44:46Z</time>
      </trkpt>
      <trkpt lat="47.27134" lon="-2.34355">
        <ele>64</ele>
        <time>2011-04-24T14:44:47Z</time>
      </trkpt>
      <trkpt lat="47.2713" lon="-2.34349">
        <ele>65</ele>
        <time>2011-04-24T14:45:48Z</time>
      </trkpt>
      <trkpt lat="47.27125" lon="-2.34342">
        <ele>64</ele>
        <time>2011-04-24T14:45:52Z</time>
      </trkpt>
      <trkpt lat="47.27121" lon="-2.34336">
        <ele>64</ele>
        <time>2011-04-24T14:45:55Z</time>
      </trkpt>
      <trkpt lat="47.27117" lon="-2.34329">
        <ele>64</ele>
        <time>2011-04-24T14:45:58Z</time>
      </trkpt>
      <trkpt lat="47.27111" lon="-2.34329">
        <ele>64</ele>
        <time>2011-04-24T14:46:00Z</time>
      </trkpt>
      <trkpt lat="47.27106" lon="-2.34328">
        <ele>64</ele>
        <time>2011-04-24T14:46:02Z</time>
      </trkpt>
      <trkpt lat="47.27099" lon="-2.34327">
        <ele>62</ele>
        <time>2011-04-24T14:46:04Z</time>
      </trkpt>
      <trkpt lat="47.27093" lon="-2.34327">
        <ele>62</ele>
        <time>2011-04-24T14:46:06Z</time>
      </trkpt>
      <trkpt lat="47.27085" lon="-2.34326">
        <ele>63</ele>
        <time>2011-04-24T14:46:08Z</time>
      </trkpt>
      <trkpt lat="47.2708" lon="-2.34327">
        <ele>63</ele>
        <time>2011-04-24T14:46:09Z</time>
      </trkpt>
      <trkpt lat="47.27072" lon="-2.34326">
        <ele>62</ele>
        <time>2011-04-24T14:46:11Z</time>
      </trkpt>
      <trkpt lat="47.27063" lon="-2.34326">
        <ele>62</ele>
        <time>2011-04-24T14:46:13Z</time>
      </trkpt>
      <trkpt lat="47.2705" lon="-2.34325">
        <ele>61</ele>
        <time>2011-04-24T14:46:16Z</time>
      </trkpt>
      <trkpt lat="47.27045" lon="-2.34324">
        <ele>61</ele>
        <time>2011-04-24T14:46:17Z</time>
      </trkpt>
      <trkpt lat="47.27037" lon="-2.34323">
        <ele>61</ele>
        <time>2011-04-24T14:46:19Z</time>
      </trkpt>
      <trkpt lat="47.27029" lon="-2.34324">
        <ele>60</ele>
        <time>2011-04-24T14:46:21Z</time>
      </trkpt>
      <trkpt lat="47.2702" lon="-2.34324">
        <ele>60</ele>
        <time>2011-04-24T14:46:23Z</time>
      </trkpt>
      <trkpt lat="47.27011" lon="-2.34323">
        <ele>60</ele>
        <time>2011-04-24T14:46:25Z</time>
      </trkpt>
      <trkpt lat="47.27004" lon="-2.34323">
        <ele>61</ele>
        <time>2011-04-24T14:46:27Z</time>
      </trkpt>
      <trkpt lat="47.26996" lon="-2.34322">
        <ele>61</ele>
        <time>2011-04-24T14:46:29Z</time>
      </trkpt>
      <trkpt lat="47.26992" lon="-2.34323">
        <ele>61</ele>
        <time>2011-04-24T14:46:30Z</time>
      </trkpt>
      <trkpt lat="47.26985" lon="-2.34322">
        <ele>63</ele>
        <time>2011-04-24T14:46:32Z</time>
      </trkpt>
      <trkpt lat="47.26978" lon="-2.3432">
        <ele>63</ele>
        <time>2011-04-24T14:46:34Z</time>
      </trkpt>
      <trkpt lat="47.26971" lon="-2.34318">
        <ele>64</ele>
        <time>2011-04-24T14:46:36Z</time>
      </trkpt>
      <trkpt lat="47.26966" lon="-2.34318">
        <ele>65</ele>
        <time>2011-04-24T14:46:38Z</time>
      </trkpt>
      <trkpt lat="47.26959" lon="-2.34317">
        <ele>65</ele>
        <time>2011-04-24T14:46:40Z</time>
      </trkpt>
      <trkpt lat="47.26953" lon="-2.34318">
        <ele>67</ele>
        <time>2011-04-24T14:46:42Z</time>
      </trkpt>
      <trkpt lat="47.26945" lon="-2.34317">
        <ele>66</ele>
        <time>2011-04-24T14:46:44Z</time>
      </trkpt>
      <trkpt lat="47.26941" lon="-2.34317">
        <ele>64</ele>
        <time>2011-04-24T14:46:46Z</time>
      </trkpt>
      <trkpt lat="47.26935" lon="-2.34318">
        <ele>64</ele>
        <time>2011-04-24T14:46:50Z</time>
      </trkpt>
      <trkpt lat="47.26929" lon="-2.34316">
        <ele>63</ele>
        <time>2011-04-24T14:46:53Z</time>
      </trkpt>
      <trkpt lat="47.26927" lon="-2.34309">
        <ele>63</ele>
        <time>2011-04-24T14:46:57Z</time>
      </trkpt>
      <trkpt lat="47.26932" lon="-2.34313">
        <ele>63</ele>
        <time>2011-04-24T14:47:01Z</time>
      </trkpt>
      <trkpt lat="47.26926" lon="-2.34312">
        <ele>63</ele>
        <time>2011-04-24T14:47:05Z</time>
      </trkpt>
      <trkpt lat="47.26922" lon="-2.34315">
        <ele>63</ele>
        <time>2011-04-24T14:47:08Z</time>
      </trkpt>
      <trkpt lat="47.26917" lon="-2.3432">
        <ele>62</ele>
        <time>2011-04-24T14:47:11Z</time>
      </trkpt>
      <trkpt lat="47.26927" lon="-2.34324">
        <ele>65</ele>
        <time>2011-04-24T14:47:12Z</time>
      </trkpt>
      <trkpt lat="47.26932" lon="-2.34324">
        <ele>67</ele>
        <time>2011-04-24T14:47:16Z</time>
      </trkpt>
      <trkpt lat="47.26937" lon="-2.34325">
        <ele>70</ele>
        <time>2011-04-24T14:47:20Z</time>
      </trkpt>
      <trkpt lat="47.26942" lon="-2.34328">
        <ele>70</ele>
        <time>2011-04-24T14:47:23Z</time>
      </trkpt>
      <trkpt lat="47.26946" lon="-2.34333">
        <ele>69</ele>
        <time>2011-04-24T14:47:27Z</time>
      </trkpt>
      <trkpt lat="47.26946" lon="-2.34333">
        <ele>69</ele>
        <time>2011-04-24T14:47:27Z</time>
      </trkpt>
      <trkpt lat="47.26946" lon="-2.34333">
        <ele>69</ele>
        <time>2011-04-24T14:47:32Z</time>
      </trkpt>
      <trkpt lat="47.26942" lon="-2.34337">
        <ele>69</ele>
        <time>2011-04-24T14:47:53Z</time>
      </trkpt>
      <trkpt lat="47.26947" lon="-2.34335">
        <ele>68</ele>
        <time>2011-04-24T14:48:45Z</time>
      </trkpt>
      <trkpt lat="47.26951" lon="-2.34339">
        <ele>78</ele>
        <time>2011-04-24T14:49:28Z</time>
      </trkpt>
      <trkpt lat="47.26951" lon="-2.34339">
        <ele>78</ele>
        <time>2011-04-24T14:49:28Z</time>
      </trkpt>
      <trkpt lat="47.26951" lon="-2.34339">
        <ele>78</ele>
        <time>2011-04-24T14:49:34Z</time>
      </trkpt>
      <trkpt lat="47.26946" lon="-2.34342">
        <ele>75</ele>
        <time>2011-04-24T14:49:38Z</time>
      </trkpt>
      <trkpt lat="47.26944" lon="-2.34335">
        <ele>70</ele>
        <time>2011-04-24T14:50:26Z</time>
      </trkpt>
      <trkpt lat="47.26941" lon="-2.34331">
        <ele>69</ele>
        <time>2011-04-24T14:50:29Z</time>
      </trkpt>
      <trkpt lat="47.26937" lon="-2.34325">
        <ele>69</ele>
        <time>2011-04-24T14:50:33Z</time>
      </trkpt>
      <trkpt lat="47.26932" lon="-2.34323">
        <ele>69</ele>
        <time>2011-04-24T14:50:35Z</time>
      </trkpt>
      <trkpt lat="47.26928" lon="-2.3432">
        <ele>68</ele>
        <time>2011-04-24T14:50:37Z</time>
      </trkpt>
      <trkpt lat="47.26922" lon="-2.34317">
        <ele>68</ele>
        <time>2011-04-24T14:50:40Z</time>
      </trkpt>
      <trkpt lat="47.26914" lon="-2.34313">
        <ele>67</ele>
        <time>2011-04-24T14:50:42Z</time>
      </trkpt>
      <trkpt lat="47.26907" lon="-2.34308">
        <ele>65</ele>
        <time>2011-04-24T14:50:44Z</time>
      </trkpt>
      <trkpt lat="47.269" lon="-2.34304">
        <ele>66</ele>
        <time>2011-04-24T14:50:46Z</time>
      </trkpt>
      <trkpt lat="47.26892" lon="-2.34306">
        <ele>66</ele>
        <time>2011-04-24T14:50:48Z</time>
      </trkpt>
      <trkpt lat="47.26885" lon="-2.34308">
        <ele>67</ele>
        <time>2011-04-24T14:50:50Z</time>
      </trkpt>
      <trkpt lat="47.26878" lon="-2.3431">
        <ele>67</ele>
        <time>2011-04-24T14:50:52Z</time>
      </trkpt>
      <trkpt lat="47.26869" lon="-2.34308">
        <ele>68</ele>
        <time>2011-04-24T14:50:54Z</time>
      </trkpt>
      <trkpt lat="47.26861" lon="-2.34309">
        <ele>67</ele>
        <time>2011-04-24T14:50:56Z</time>
      </trkpt>
      <trkpt lat="47.26853" lon="-2.34309">
        <ele>67</ele>
        <time>2011-04-24T14:50:58Z</time>
      </trkpt>
      <trkpt lat="47.26844" lon="-2.34309">
        <ele>66</ele>
        <time>2011-04-24T14:51:00Z</time>
      </trkpt>
      <trkpt lat="47.26836" lon="-2.34309">
        <ele>64</ele>
        <time>2011-04-24T14:51:02Z</time>
      </trkpt>
      <trkpt lat="47.26831" lon="-2.34308">
        <ele>63</ele>
        <time>2011-04-24T14:51:03Z</time>
      </trkpt>
      <trkpt lat="47.26825" lon="-2.34308">
        <ele>61</ele>
        <time>2011-04-24T14:51:05Z</time>
      </trkpt>
      <trkpt lat="47.2682" lon="-2.34308">
        <ele>61</ele>
        <time>2011-04-24T14:51:06Z</time>
      </trkpt>
      <trkpt lat="47.26815" lon="-2.34308">
        <ele>61</ele>
        <time>2011-04-24T14:51:07Z</time>
      </trkpt>
      <trkpt lat="47.26806" lon="-2.34308">
        <ele>61</ele>
        <time>2011-04-24T14:51:09Z</time>
      </trkpt>
      <trkpt lat="47.26802" lon="-2.34308">
        <ele>61</ele>
        <time>2011-04-24T14:51:10Z</time>
      </trkpt>
      <trkpt lat="47.26797" lon="-2.34308">
        <ele>60</ele>
        <time>2011-04-24T14:51:11Z</time>
      </trkpt>
      <trkpt lat="47.26788" lon="-2.34308">
        <ele>60</ele>
        <time>2011-04-24T14:51:13Z</time>
      </trkpt>
      <trkpt lat="47.26783" lon="-2.34307">
        <ele>60</ele>
        <time>2011-04-24T14:51:14Z</time>
      </trkpt>
      <trkpt lat="47.26778" lon="-2.34308">
        <ele>61</ele>
        <time>2011-04-24T14:51:15Z</time>
      </trkpt>
      <trkpt lat="47.26773" lon="-2.34308">
        <ele>61</ele>
        <time>2011-04-24T14:51:16Z</time>
      </trkpt>
      <trkpt lat="47.26764" lon="-2.34309">
        <ele>61</ele>
        <time>2011-04-24T14:51:18Z</time>
      </trkpt>
      <trkpt lat="47.26755" lon="-2.3431">
        <ele>61</ele>
        <time>2011-04-24T14:51:20Z</time>
      </trkpt>
      <trkpt lat="47.2675" lon="-2.3431">
        <ele>61</ele>
        <time>2011-04-24T14:51:21Z</time>
      </trkpt>
      <trkpt lat="47.26745" lon="-2.3431">
        <ele>61</ele>
        <time>2011-04-24T14:51:22Z</time>
      </trkpt>
      <trkpt lat="47.2674" lon="-2.3431">
        <ele>61</ele>
        <time>2011-04-24T14:51:23Z</time>
      </trkpt>
      <trkpt lat="47.26735" lon="-2.3431">
        <ele>61</ele>
        <time>2011-04-24T14:51:24Z</time>
      </trkpt>
      <trkpt lat="47.2673" lon="-2.3431">
        <ele>60</ele>
        <time>2011-04-24T14:51:25Z</time>
      </trkpt>
      <trkpt lat="47.26724" lon="-2.34311">
        <ele>60</ele>
        <time>2011-04-24T14:51:26Z</time>
      </trkpt>
      <trkpt lat="47.2672" lon="-2.34312">
        <ele>59</ele>
        <time>2011-04-24T14:51:27Z</time>
      </trkpt>
      <trkpt lat="47.26714" lon="-2.34312">
        <ele>59</ele>
        <time>2011-04-24T14:51:28Z</time>
      </trkpt>
      <trkpt lat="47.26706" lon="-2.34314">
        <ele>59</ele>
        <time>2011-04-24T14:51:30Z</time>
      </trkpt>
      <trkpt lat="47.26696" lon="-2.34317">
        <ele>60</ele>
        <time>2011-04-24T14:51:32Z</time>
      </trkpt>
      <trkpt lat="47.26692" lon="-2.34316">
        <ele>59</ele>
        <time>2011-04-24T14:51:33Z</time>
      </trkpt>
      <trkpt lat="47.26687" lon="-2.34316">
        <ele>59</ele>
        <time>2011-04-24T14:51:34Z</time>
      </trkpt>
      <trkpt lat="47.26677" lon="-2.34318">
        <ele>58</ele>
        <time>2011-04-24T14:51:36Z</time>
      </trkpt>
      <trkpt lat="47.26672" lon="-2.34319">
        <ele>58</ele>
        <time>2011-04-24T14:51:37Z</time>
      </trkpt>
      <trkpt lat="47.26668" lon="-2.34319">
        <ele>58</ele>
        <time>2011-04-24T14:51:38Z</time>
      </trkpt>
      <trkpt lat="47.26663" lon="-2.3432">
        <ele>57</ele>
        <time>2011-04-24T14:51:39Z</time>
      </trkpt>
      <trkpt lat="47.26658" lon="-2.34321">
        <ele>58</ele>
        <time>2011-04-24T14:51:40Z</time>
      </trkpt>
      <trkpt lat="47.26653" lon="-2.34322">
        <ele>58</ele>
        <time>2011-04-24T14:51:41Z</time>
      </trkpt>
      <trkpt lat="47.26648" lon="-2.34323">
        <ele>58</ele>
        <time>2011-04-24T14:51:42Z</time>
      </trkpt>
      <trkpt lat="47.26643" lon="-2.34324">
        <ele>58</ele>
        <time>2011-04-24T14:51:43Z</time>
      </trkpt>
      <trkpt lat="47.26638" lon="-2.34324">
        <ele>58</ele>
        <time>2011-04-24T14:51:44Z</time>
      </trkpt>
      <trkpt lat="47.26633" lon="-2.34324">
        <ele>58</ele>
        <time>2011-04-24T14:51:45Z</time>
      </trkpt>
      <trkpt lat="47.26628" lon="-2.34325">
        <ele>58</ele>
        <time>2011-04-24T14:51:46Z</time>
      </trkpt>
      <trkpt lat="47.26624" lon="-2.34326">
        <ele>58</ele>
        <time>2011-04-24T14:51:47Z</time>
      </trkpt>
      <trkpt lat="47.26619" lon="-2.34326">
        <ele>58</ele>
        <time>2011-04-24T14:51:48Z</time>
      </trkpt>
      <trkpt lat="47.2661" lon="-2.34328">
        <ele>57</ele>
        <time>2011-04-24T14:51:50Z</time>
      </trkpt>
      <trkpt lat="47.26602" lon="-2.3433">
        <ele>56</ele>
        <time>2011-04-24T14:51:52Z</time>
      </trkpt>
      <trkpt lat="47.26593" lon="-2.34331">
        <ele>56</ele>
        <time>2011-04-24T14:51:54Z</time>
      </trkpt>
      <trkpt lat="47.26588" lon="-2.34331">
        <ele>56</ele>
        <time>2011-04-24T14:51:55Z</time>
      </trkpt>
      <trkpt lat="47.26582" lon="-2.34331">
        <ele>56</ele>
        <time>2011-04-24T14:51:56Z</time>
      </trkpt>
      <trkpt lat="47.26574" lon="-2.34334">
        <ele>56</ele>
        <time>2011-04-24T14:51:58Z</time>
      </trkpt>
      <trkpt lat="47.26568" lon="-2.3434">
        <ele>56</ele>
        <time>2011-04-24T14:52:00Z</time>
      </trkpt>
      <trkpt lat="47.2656" lon="-2.34344">
        <ele>57</ele>
        <time>2011-04-24T14:52:02Z</time>
      </trkpt>
      <trkpt lat="47.26552" lon="-2.34346">
        <ele>57</ele>
        <time>2011-04-24T14:52:04Z</time>
      </trkpt>
      <trkpt lat="47.26547" lon="-2.3435">
        <ele>58</ele>
        <time>2011-04-24T14:52:07Z</time>
      </trkpt>
      <trkpt lat="47.26541" lon="-2.34352">
        <ele>59</ele>
        <time>2011-04-24T14:52:09Z</time>
      </trkpt>
      <trkpt lat="47.26534" lon="-2.34352">
        <ele>59</ele>
        <time>2011-04-24T14:52:11Z</time>
      </trkpt>
      <trkpt lat="47.26531" lon="-2.34345">
        <ele>59</ele>
        <time>2011-04-24T14:52:13Z</time>
      </trkpt>
      <trkpt lat="47.26526" lon="-2.3434">
        <ele>61</ele>
        <time>2011-04-24T14:52:15Z</time>
      </trkpt>
      <trkpt lat="47.26522" lon="-2.34338">
        <ele>61</ele>
        <time>2011-04-24T14:52:17Z</time>
      </trkpt>
      <trkpt lat="47.26517" lon="-2.34335">
        <ele>62</ele>
        <time>2011-04-24T14:52:19Z</time>
      </trkpt>
      <trkpt lat="47.2651" lon="-2.34333">
        <ele>62</ele>
        <time>2011-04-24T14:52:21Z</time>
      </trkpt>
      <trkpt lat="47.26503" lon="-2.34329">
        <ele>62</ele>
        <time>2011-04-24T14:52:23Z</time>
      </trkpt>
      <trkpt lat="47.26499" lon="-2.34328">
        <ele>62</ele>
        <time>2011-04-24T14:52:24Z</time>
      </trkpt>
      <trkpt lat="47.2649" lon="-2.34327">
        <ele>62</ele>
        <time>2011-04-24T14:52:26Z</time>
      </trkpt>
      <trkpt lat="47.26482" lon="-2.34327">
        <ele>62</ele>
        <time>2011-04-24T14:52:28Z</time>
      </trkpt>
      <trkpt lat="47.26473" lon="-2.34324">
        <ele>62</ele>
        <time>2011-04-24T14:52:30Z</time>
      </trkpt>
      <trkpt lat="47.26465" lon="-2.34323">
        <ele>64</ele>
        <time>2011-04-24T14:52:32Z</time>
      </trkpt>
      <trkpt lat="47.26457" lon="-2.34319">
        <ele>63</ele>
        <time>2011-04-24T14:52:34Z</time>
      </trkpt>
      <trkpt lat="47.2645" lon="-2.34317">
        <ele>63</ele>
        <time>2011-04-24T14:52:36Z</time>
      </trkpt>
      <trkpt lat="47.26444" lon="-2.34313">
        <ele>64</ele>
        <time>2011-04-24T14:52:38Z</time>
      </trkpt>
      <trkpt lat="47.26436" lon="-2.34311">
        <ele>65</ele>
        <time>2011-04-24T14:52:41Z</time>
      </trkpt>
      <trkpt lat="47.26428" lon="-2.34307">
        <ele>64</ele>
        <time>2011-04-24T14:52:43Z</time>
      </trkpt>
      <trkpt lat="47.26419" lon="-2.34305">
        <ele>67</ele>
        <time>2011-04-24T14:52:45Z</time>
      </trkpt>
      <trkpt lat="47.2641" lon="-2.34305">
        <ele>69</ele>
        <time>2011-04-24T14:52:47Z</time>
      </trkpt>
      <trkpt lat="47.26405" lon="-2.34305">
        <ele>71</ele>
        <time>2011-04-24T14:52:48Z</time>
      </trkpt>
      <trkpt lat="47.26396" lon="-2.34302">
        <ele>72</ele>
        <time>2011-04-24T14:52:50Z</time>
      </trkpt>
      <trkpt lat="47.26391" lon="-2.343">
        <ele>73</ele>
        <time>2011-04-24T14:52:51Z</time>
      </trkpt>
      <trkpt lat="47.26386" lon="-2.343">
        <ele>72</ele>
        <time>2011-04-24T14:52:53Z</time>
      </trkpt>
      <trkpt lat="47.26378" lon="-2.34298">
        <ele>72</ele>
        <time>2011-04-24T14:52:55Z</time>
      </trkpt>
      <trkpt lat="47.26374" lon="-2.34296">
        <ele>72</ele>
        <time>2011-04-24T14:52:56Z</time>
      </trkpt>
      <trkpt lat="47.26367" lon="-2.34296">
        <ele>75</ele>
        <time>2011-04-24T14:52:59Z</time>
      </trkpt>
      <trkpt lat="47.26359" lon="-2.34291">
        <ele>75</ele>
        <time>2011-04-24T14:53:01Z</time>
      </trkpt>
      <trkpt lat="47.26354" lon="-2.34288">
        <ele>75</ele>
        <time>2011-04-24T14:53:02Z</time>
      </trkpt>
      <trkpt lat="47.26347" lon="-2.34284">
        <ele>74</ele>
        <time>2011-04-24T14:53:03Z</time>
      </trkpt>
      <trkpt lat="47.26338" lon="-2.3428">
        <ele>74</ele>
        <time>2011-04-24T14:53:05Z</time>
      </trkpt>
      <trkpt lat="47.26333" lon="-2.34278">
        <ele>74</ele>
        <time>2011-04-24T14:53:06Z</time>
      </trkpt>
      <trkpt lat="47.26326" lon="-2.34271">
        <ele>73</ele>
        <time>2011-04-24T14:53:08Z</time>
      </trkpt>
      <trkpt lat="47.26318" lon="-2.34266">
        <ele>73</ele>
        <time>2011-04-24T14:53:10Z</time>
      </trkpt>
      <trkpt lat="47.26311" lon="-2.34264">
        <ele>74</ele>
        <time>2011-04-24T14:53:12Z</time>
      </trkpt>
      <trkpt lat="47.26304" lon="-2.3426">
        <ele>75</ele>
        <time>2011-04-24T14:53:14Z</time>
      </trkpt>
      <trkpt lat="47.26298" lon="-2.34261">
        <ele>76</ele>
        <time>2011-04-24T14:53:15Z</time>
      </trkpt>
      <trkpt lat="47.26293" lon="-2.34257">
        <ele>76</ele>
        <time>2011-04-24T14:53:17Z</time>
      </trkpt>
      <trkpt lat="47.26288" lon="-2.34253">
        <ele>76</ele>
        <time>2011-04-24T14:53:19Z</time>
      </trkpt>
      <trkpt lat="47.26283" lon="-2.34251">
        <ele>75</ele>
        <time>2011-04-24T14:53:20Z</time>
      </trkpt>
      <trkpt lat="47.26277" lon="-2.34248">
        <ele>74</ele>
        <time>2011-04-24T14:53:22Z</time>
      </trkpt>
      <trkpt lat="47.26272" lon="-2.34245">
        <ele>73</ele>
        <time>2011-04-24T14:53:23Z</time>
      </trkpt>
      <trkpt lat="47.26266" lon="-2.34241">
        <ele>70</ele>
        <time>2011-04-24T14:53:25Z</time>
      </trkpt>
      <trkpt lat="47.26259" lon="-2.34236">
        <ele>70</ele>
        <time>2011-04-24T14:53:27Z</time>
      </trkpt>
      <trkpt lat="47.26256" lon="-2.34229">
        <ele>69</ele>
        <time>2011-04-24T14:53:29Z</time>
      </trkpt>
      <trkpt lat="47.26251" lon="-2.34222">
        <ele>67</ele>
        <time>2011-04-24T14:53:32Z</time>
      </trkpt>
      <trkpt lat="47.26245" lon="-2.34217">
        <ele>66</ele>
        <time>2011-04-24T14:53:34Z</time>
      </trkpt>
      <trkpt lat="47.2624" lon="-2.34212">
        <ele>67</ele>
        <time>2011-04-24T14:53:36Z</time>
      </trkpt>
      <trkpt lat="47.26234" lon="-2.34207">
        <ele>67</ele>
        <time>2011-04-24T14:53:38Z</time>
      </trkpt>
      <trkpt lat="47.26227" lon="-2.34201">
        <ele>67</ele>
        <time>2011-04-24T14:53:40Z</time>
      </trkpt>
      <trkpt lat="47.26221" lon="-2.34195">
        <ele>67</ele>
        <time>2011-04-24T14:53:42Z</time>
      </trkpt>
      <trkpt lat="47.26216" lon="-2.34193">
        <ele>67</ele>
        <time>2011-04-24T14:53:43Z</time>
      </trkpt>
      <trkpt lat="47.26207" lon="-2.34187">
        <ele>67</ele>
        <time>2011-04-24T14:53:45Z</time>
      </trkpt>
      <trkpt lat="47.262" lon="-2.34181">
        <ele>66</ele>
        <time>2011-04-24T14:53:47Z</time>
      </trkpt>
      <trkpt lat="47.26196" lon="-2.34177">
        <ele>65</ele>
        <time>2011-04-24T14:53:48Z</time>
      </trkpt>
      <trkpt lat="47.26187" lon="-2.34171">
        <ele>65</ele>
        <time>2011-04-24T14:53:50Z</time>
      </trkpt>
      <trkpt lat="47.26183" lon="-2.34167">
        <ele>65</ele>
        <time>2011-04-24T14:53:51Z</time>
      </trkpt>
      <trkpt lat="47.26179" lon="-2.34162">
        <ele>64</ele>
        <time>2011-04-24T14:53:52Z</time>
      </trkpt>
      <trkpt lat="47.26174" lon="-2.34157">
        <ele>63</ele>
        <time>2011-04-24T14:53:53Z</time>
      </trkpt>
      <trkpt lat="47.2617" lon="-2.34152">
        <ele>63</ele>
        <time>2011-04-24T14:53:54Z</time>
      </trkpt>
      <trkpt lat="47.26165" lon="-2.34148">
        <ele>63</ele>
        <time>2011-04-24T14:53:55Z</time>
      </trkpt>
      <trkpt lat="47.2616" lon="-2.34143">
        <ele>62</ele>
        <time>2011-04-24T14:53:56Z</time>
      </trkpt>
      <trkpt lat="47.26154" lon="-2.34138">
        <ele>61</ele>
        <time>2011-04-24T14:53:57Z</time>
      </trkpt>
      <trkpt lat="47.2615" lon="-2.34133">
        <ele>61</ele>
        <time>2011-04-24T14:53:58Z</time>
      </trkpt>
      <trkpt lat="47.26146" lon="-2.34127">
        <ele>61</ele>
        <time>2011-04-24T14:53:59Z</time>
      </trkpt>
      <trkpt lat="47.26141" lon="-2.34124">
        <ele>61</ele>
        <time>2011-04-24T14:54:00Z</time>
      </trkpt>
      <trkpt lat="47.26136" lon="-2.3412">
        <ele>61</ele>
        <time>2011-04-24T14:54:01Z</time>
      </trkpt>
      <trkpt lat="47.26127" lon="-2.34114">
        <ele>60</ele>
        <time>2011-04-24T14:54:03Z</time>
      </trkpt>
      <trkpt lat="47.26122" lon="-2.34113">
        <ele>60</ele>
        <time>2011-04-24T14:54:04Z</time>
      </trkpt>
      <trkpt lat="47.26116" lon="-2.34113">
        <ele>60</ele>
        <time>2011-04-24T14:54:05Z</time>
      </trkpt>
      <trkpt lat="47.26116" lon="-2.34103">
        <ele>62</ele>
        <time>2011-04-24T14:54:08Z</time>
      </trkpt>
      <trkpt lat="47.26114" lon="-2.34095">
        <ele>61</ele>
        <time>2011-04-24T14:54:09Z</time>
      </trkpt>
      <trkpt lat="47.26112" lon="-2.34088">
        <ele>61</ele>
        <time>2011-04-24T14:54:10Z</time>
      </trkpt>
      <trkpt lat="47.2611" lon="-2.34082">
        <ele>61</ele>
        <time>2011-04-24T14:54:11Z</time>
      </trkpt>
      <trkpt lat="47.26105" lon="-2.34073">
        <ele>61</ele>
        <time>2011-04-24T14:54:13Z</time>
      </trkpt>
      <trkpt lat="47.26101" lon="-2.34059">
        <ele>61</ele>
        <time>2011-04-24T14:54:15Z</time>
      </trkpt>
      <trkpt lat="47.26099" lon="-2.3405">
        <ele>61</ele>
        <time>2011-04-24T14:54:16Z</time>
      </trkpt>
      <trkpt lat="47.26097" lon="-2.34044">
        <ele>61</ele>
        <time>2011-04-24T14:54:17Z</time>
      </trkpt>
      <trkpt lat="47.26095" lon="-2.34038">
        <ele>61</ele>
        <time>2011-04-24T14:54:18Z</time>
      </trkpt>
      <trkpt lat="47.26092" lon="-2.3403">
        <ele>60</ele>
        <time>2011-04-24T14:54:19Z</time>
      </trkpt>
      <trkpt lat="47.26089" lon="-2.34022">
        <ele>60</ele>
        <time>2011-04-24T14:54:20Z</time>
      </trkpt>
      <trkpt lat="47.26086" lon="-2.34015">
        <ele>60</ele>
        <time>2011-04-24T14:54:21Z</time>
      </trkpt>
      <trkpt lat="47.26082" lon="-2.34009">
        <ele>60</ele>
        <time>2011-04-24T14:54:22Z</time>
      </trkpt>
      <trkpt lat="47.2608" lon="-2.34002">
        <ele>60</ele>
        <time>2011-04-24T14:54:23Z</time>
      </trkpt>
      <trkpt lat="47.26078" lon="-2.3399">
        <ele>61</ele>
        <time>2011-04-24T14:54:25Z</time>
      </trkpt>
      <trkpt lat="47.26072" lon="-2.33979">
        <ele>60</ele>
        <time>2011-04-24T14:54:27Z</time>
      </trkpt>
      <trkpt lat="47.2607" lon="-2.33973">
        <ele>60</ele>
        <time>2011-04-24T14:54:28Z</time>
      </trkpt>
      <trkpt lat="47.26066" lon="-2.33964">
        <ele>60</ele>
        <time>2011-04-24T14:54:30Z</time>
      </trkpt>
      <trkpt lat="47.26064" lon="-2.33957">
        <ele>62</ele>
        <time>2011-04-24T14:54:33Z</time>
      </trkpt>
      <trkpt lat="47.26062" lon="-2.33949">
        <ele>63</ele>
        <time>2011-04-24T14:54:38Z</time>
      </trkpt>
      <trkpt lat="47.26059" lon="-2.33944">
        <ele>63</ele>
        <time>2011-04-24T14:54:42Z</time>
      </trkpt>
      <trkpt lat="47.26056" lon="-2.3394">
        <ele>63</ele>
        <time>2011-04-24T14:54:44Z</time>
      </trkpt>
      <trkpt lat="47.26051" lon="-2.33938">
        <ele>61</ele>
        <time>2011-04-24T14:54:45Z</time>
      </trkpt>
      <trkpt lat="47.26045" lon="-2.33937">
        <ele>61</ele>
        <time>2011-04-24T14:54:47Z</time>
      </trkpt>
      <trkpt lat="47.2604" lon="-2.33936">
        <ele>62</ele>
        <time>2011-04-24T14:54:49Z</time>
      </trkpt>
      <trkpt lat="47.26034" lon="-2.33935">
        <ele>62</ele>
        <time>2011-04-24T14:54:51Z</time>
      </trkpt>
      <trkpt lat="47.26026" lon="-2.33932">
        <ele>63</ele>
        <time>2011-04-24T14:54:54Z</time>
      </trkpt>
      <trkpt lat="47.26021" lon="-2.33932">
        <ele>61</ele>
        <time>2011-04-24T14:54:55Z</time>
      </trkpt>
      <trkpt lat="47.26015" lon="-2.33936">
        <ele>60</ele>
        <time>2011-04-24T14:54:57Z</time>
      </trkpt>
      <trkpt lat="47.26009" lon="-2.33936">
        <ele>62</ele>
        <time>2011-04-24T14:55:00Z</time>
      </trkpt>
      <trkpt lat="47.26004" lon="-2.33934">
        <ele>62</ele>
        <time>2011-04-24T14:55:02Z</time>
      </trkpt>
      <trkpt lat="47.25995" lon="-2.33934">
        <ele>61</ele>
        <time>2011-04-24T14:55:04Z</time>
      </trkpt>
      <trkpt lat="47.25987" lon="-2.33932">
        <ele>61</ele>
        <time>2011-04-24T14:55:06Z</time>
      </trkpt>
      <trkpt lat="47.25982" lon="-2.3393">
        <ele>61</ele>
        <time>2011-04-24T14:55:07Z</time>
      </trkpt>
      <trkpt lat="47.25977" lon="-2.3393">
        <ele>60</ele>
        <time>2011-04-24T14:55:08Z</time>
      </trkpt>
      <trkpt lat="47.25971" lon="-2.33928">
        <ele>59</ele>
        <time>2011-04-24T14:55:09Z</time>
      </trkpt>
      <trkpt lat="47.25964" lon="-2.33929">
        <ele>58</ele>
        <time>2011-04-24T14:55:11Z</time>
      </trkpt>
      <trkpt lat="47.25955" lon="-2.33926">
        <ele>58</ele>
        <time>2011-04-24T14:55:13Z</time>
      </trkpt>
      <trkpt lat="47.25951" lon="-2.33918">
        <ele>59</ele>
        <time>2011-04-24T14:55:15Z</time>
      </trkpt>
      <trkpt lat="47.25945" lon="-2.3391">
        <ele>58</ele>
        <time>2011-04-24T14:55:17Z</time>
      </trkpt>
      <trkpt lat="47.25938" lon="-2.33906">
        <ele>58</ele>
        <time>2011-04-24T14:55:19Z</time>
      </trkpt>
      <trkpt lat="47.25931" lon="-2.33902">
        <ele>58</ele>
        <time>2011-04-24T14:55:21Z</time>
      </trkpt>
      <trkpt lat="47.25924" lon="-2.33897">
        <ele>58</ele>
        <time>2011-04-24T14:55:23Z</time>
      </trkpt>
      <trkpt lat="47.25916" lon="-2.33893">
        <ele>58</ele>
        <time>2011-04-24T14:55:25Z</time>
      </trkpt>
      <trkpt lat="47.25912" lon="-2.33891">
        <ele>57</ele>
        <time>2011-04-24T14:55:26Z</time>
      </trkpt>
      <trkpt lat="47.25905" lon="-2.33886">
        <ele>56</ele>
        <time>2011-04-24T14:55:28Z</time>
      </trkpt>
      <trkpt lat="47.25897" lon="-2.33884">
        <ele>56</ele>
        <time>2011-04-24T14:55:30Z</time>
      </trkpt>
      <trkpt lat="47.2589" lon="-2.3388">
        <ele>55</ele>
        <time>2011-04-24T14:55:32Z</time>
      </trkpt>
      <trkpt lat="47.25881" lon="-2.33878">
        <ele>55</ele>
        <time>2011-04-24T14:55:34Z</time>
      </trkpt>
      <trkpt lat="47.25872" lon="-2.33875">
        <ele>55</ele>
        <time>2011-04-24T14:55:36Z</time>
      </trkpt>
      <trkpt lat="47.25865" lon="-2.33872">
        <ele>55</ele>
        <time>2011-04-24T14:55:38Z</time>
      </trkpt>
      <trkpt lat="47.25856" lon="-2.33869">
        <ele>54</ele>
        <time>2011-04-24T14:55:40Z</time>
      </trkpt>
      <trkpt lat="47.25848" lon="-2.33865">
        <ele>53</ele>
        <time>2011-04-24T14:55:42Z</time>
      </trkpt>
      <trkpt lat="47.2584" lon="-2.33862">
        <ele>53</ele>
        <time>2011-04-24T14:55:44Z</time>
      </trkpt>
      <trkpt lat="47.25836" lon="-2.33861">
        <ele>53</ele>
        <time>2011-04-24T14:55:45Z</time>
      </trkpt>
      <trkpt lat="47.25828" lon="-2.33858">
        <ele>53</ele>
        <time>2011-04-24T14:55:47Z</time>
      </trkpt>
      <trkpt lat="47.2582" lon="-2.33855">
        <ele>53</ele>
        <time>2011-04-24T14:55:49Z</time>
      </trkpt>
      <trkpt lat="47.25812" lon="-2.33854">
        <ele>54</ele>
        <time>2011-04-24T14:55:51Z</time>
      </trkpt>
      <trkpt lat="47.25806" lon="-2.3385">
        <ele>54</ele>
        <time>2011-04-24T14:55:53Z</time>
      </trkpt>
      <trkpt lat="47.25798" lon="-2.33845">
        <ele>53</ele>
        <time>2011-04-24T14:55:55Z</time>
      </trkpt>
      <trkpt lat="47.25793" lon="-2.33839">
        <ele>54</ele>
        <time>2011-04-24T14:55:57Z</time>
      </trkpt>
      <trkpt lat="47.25786" lon="-2.33836">
        <ele>53</ele>
        <time>2011-04-24T14:55:59Z</time>
      </trkpt>
      <trkpt lat="47.25778" lon="-2.33833">
        <ele>53</ele>
        <time>2011-04-24T14:56:01Z</time>
      </trkpt>
      <trkpt lat="47.25772" lon="-2.3383">
        <ele>53</ele>
        <time>2011-04-24T14:56:03Z</time>
      </trkpt>
      <trkpt lat="47.25765" lon="-2.33825">
        <ele>52</ele>
        <time>2011-04-24T14:56:05Z</time>
      </trkpt>
      <trkpt lat="47.2576" lon="-2.33823">
        <ele>51</ele>
        <time>2011-04-24T14:56:06Z</time>
      </trkpt>
      <trkpt lat="47.25752" lon="-2.33819">
        <ele>51</ele>
        <time>2011-04-24T14:56:08Z</time>
      </trkpt>
      <trkpt lat="47.25744" lon="-2.33815">
        <ele>49</ele>
        <time>2011-04-24T14:56:10Z</time>
      </trkpt>
      <trkpt lat="47.25737" lon="-2.33812">
        <ele>49</ele>
        <time>2011-04-24T14:56:12Z</time>
      </trkpt>
      <trkpt lat="47.2573" lon="-2.33808">
        <ele>49</ele>
        <time>2011-04-24T14:56:14Z</time>
      </trkpt>
      <trkpt lat="47.25722" lon="-2.33805">
        <ele>49</ele>
        <time>2011-04-24T14:56:16Z</time>
      </trkpt>
      <trkpt lat="47.25715" lon="-2.33802">
        <ele>49</ele>
        <time>2011-04-24T14:56:18Z</time>
      </trkpt>
      <trkpt lat="47.2571" lon="-2.33802">
        <ele>52</ele>
        <time>2011-04-24T14:56:20Z</time>
      </trkpt>
      <trkpt lat="47.25702" lon="-2.33799">
        <ele>53</ele>
        <time>2011-04-24T14:56:22Z</time>
      </trkpt>
      <trkpt lat="47.25698" lon="-2.33798">
        <ele>53</ele>
        <time>2011-04-24T14:56:23Z</time>
      </trkpt>
      <trkpt lat="47.2569" lon="-2.33796">
        <ele>53</ele>
        <time>2011-04-24T14:56:25Z</time>
      </trkpt>
      <trkpt lat="47.25682" lon="-2.33793">
        <ele>54</ele>
        <time>2011-04-24T14:56:27Z</time>
      </trkpt>
      <trkpt lat="47.25675" lon="-2.33792">
        <ele>54</ele>
        <time>2011-04-24T14:56:29Z</time>
      </trkpt>
      <trkpt lat="47.25669" lon="-2.33787">
        <ele>54</ele>
        <time>2011-04-24T14:56:31Z</time>
      </trkpt>
      <trkpt lat="47.25662" lon="-2.33784">
        <ele>54</ele>
        <time>2011-04-24T14:56:33Z</time>
      </trkpt>
      <trkpt lat="47.25655" lon="-2.3378">
        <ele>54</ele>
        <time>2011-04-24T14:56:35Z</time>
      </trkpt>
      <trkpt lat="47.25647" lon="-2.33778">
        <ele>54</ele>
        <time>2011-04-24T14:56:37Z</time>
      </trkpt>
      <trkpt lat="47.2564" lon="-2.33776">
        <ele>54</ele>
        <time>2011-04-24T14:56:39Z</time>
      </trkpt>
      <trkpt lat="47.25633" lon="-2.33772">
        <ele>56</ele>
        <time>2011-04-24T14:56:41Z</time>
      </trkpt>
      <trkpt lat="47.25627" lon="-2.3377">
        <ele>56</ele>
        <time>2011-04-24T14:56:44Z</time>
      </trkpt>
      <trkpt lat="47.25622" lon="-2.33767">
        <ele>57</ele>
        <time>2011-04-24T14:56:46Z</time>
      </trkpt>
      <trkpt lat="47.25617" lon="-2.33766">
        <ele>59</ele>
        <time>2011-04-24T14:56:48Z</time>
      </trkpt>
      <trkpt lat="47.2561" lon="-2.33766">
        <ele>61</ele>
        <time>2011-04-24T14:56:50Z</time>
      </trkpt>
      <trkpt lat="47.25603" lon="-2.33764">
        <ele>62</ele>
        <time>2011-04-24T14:56:52Z</time>
      </trkpt>
      <trkpt lat="47.25596" lon="-2.33763">
        <ele>61</ele>
        <time>2011-04-24T14:56:54Z</time>
      </trkpt>
      <trkpt lat="47.2559" lon="-2.33762">
        <ele>60</ele>
        <time>2011-04-24T14:56:55Z</time>
      </trkpt>
      <trkpt lat="47.25584" lon="-2.33761">
        <ele>60</ele>
        <time>2011-04-24T14:56:56Z</time>
      </trkpt>
      <trkpt lat="47.25578" lon="-2.33761">
        <ele>59</ele>
        <time>2011-04-24T14:56:57Z</time>
      </trkpt>
      <trkpt lat="47.25569" lon="-2.33761">
        <ele>58</ele>
        <time>2011-04-24T14:56:59Z</time>
      </trkpt>
      <trkpt lat="47.25563" lon="-2.33755">
        <ele>59</ele>
        <time>2011-04-24T14:57:00Z</time>
      </trkpt>
      <trkpt lat="47.25559" lon="-2.33759">
        <ele>58</ele>
        <time>2011-04-24T14:57:01Z</time>
      </trkpt>
      <trkpt lat="47.25553" lon="-2.33762">
        <ele>59</ele>
        <time>2011-04-24T14:57:03Z</time>
      </trkpt>
      <trkpt lat="47.25546" lon="-2.33762">
        <ele>58</ele>
        <time>2011-04-24T14:57:05Z</time>
      </trkpt>
      <trkpt lat="47.25538" lon="-2.33764">
        <ele>57</ele>
        <time>2011-04-24T14:57:07Z</time>
      </trkpt>
      <trkpt lat="47.25532" lon="-2.33762">
        <ele>57</ele>
        <time>2011-04-24T14:57:08Z</time>
      </trkpt>
      <trkpt lat="47.25526" lon="-2.33763">
        <ele>55</ele>
        <time>2011-04-24T14:57:10Z</time>
      </trkpt>
      <trkpt lat="47.25518" lon="-2.33762">
        <ele>55</ele>
        <time>2011-04-24T14:57:12Z</time>
      </trkpt>
      <trkpt lat="47.25512" lon="-2.33763">
        <ele>56</ele>
        <time>2011-04-24T14:57:14Z</time>
      </trkpt>
      <trkpt lat="47.25506" lon="-2.33764">
        <ele>57</ele>
        <time>2011-04-24T14:57:16Z</time>
      </trkpt>
      <trkpt lat="47.255" lon="-2.33764">
        <ele>57</ele>
        <time>2011-04-24T14:57:17Z</time>
      </trkpt>
      <trkpt lat="47.25494" lon="-2.33763">
        <ele>58</ele>
        <time>2011-04-24T14:57:19Z</time>
      </trkpt>
      <trkpt lat="47.25487" lon="-2.33761">
        <ele>58</ele>
        <time>2011-04-24T14:57:21Z</time>
      </trkpt>
      <trkpt lat="47.25479" lon="-2.33757">
        <ele>59</ele>
        <time>2011-04-24T14:57:23Z</time>
      </trkpt>
      <trkpt lat="47.25472" lon="-2.33751">
        <ele>59</ele>
        <time>2011-04-24T14:57:25Z</time>
      </trkpt>
      <trkpt lat="47.25468" lon="-2.33748">
        <ele>59</ele>
        <time>2011-04-24T14:57:26Z</time>
      </trkpt>
      <trkpt lat="47.2546" lon="-2.33742">
        <ele>60</ele>
        <time>2011-04-24T14:57:28Z</time>
      </trkpt>
      <trkpt lat="47.25451" lon="-2.33733">
        <ele>60</ele>
        <time>2011-04-24T14:57:30Z</time>
      </trkpt>
      <trkpt lat="47.25443" lon="-2.33723">
        <ele>60</ele>
        <time>2011-04-24T14:57:32Z</time>
      </trkpt>
      <trkpt lat="47.2544" lon="-2.33718">
        <ele>60</ele>
        <time>2011-04-24T14:57:33Z</time>
      </trkpt>
      <trkpt lat="47.25436" lon="-2.33714">
        <ele>59</ele>
        <time>2011-04-24T14:57:34Z</time>
      </trkpt>
      <trkpt lat="47.25433" lon="-2.33709">
        <ele>59</ele>
        <time>2011-04-24T14:57:35Z</time>
      </trkpt>
      <trkpt lat="47.25427" lon="-2.337">
        <ele>60</ele>
        <time>2011-04-24T14:57:37Z</time>
      </trkpt>
      <trkpt lat="47.25421" lon="-2.3369">
        <ele>60</ele>
        <time>2011-04-24T14:57:39Z</time>
      </trkpt>
      <trkpt lat="47.25416" lon="-2.33681">
        <ele>60</ele>
        <time>2011-04-24T14:57:41Z</time>
      </trkpt>
      <trkpt lat="47.25412" lon="-2.33672">
        <ele>60</ele>
        <time>2011-04-24T14:57:43Z</time>
      </trkpt>
      <trkpt lat="47.25407" lon="-2.33663">
        <ele>60</ele>
        <time>2011-04-24T14:57:45Z</time>
      </trkpt>
      <trkpt lat="47.25402" lon="-2.33653">
        <ele>60</ele>
        <time>2011-04-24T14:57:47Z</time>
      </trkpt>
      <trkpt lat="47.25397" lon="-2.33643">
        <ele>60</ele>
        <time>2011-04-24T14:57:49Z</time>
      </trkpt>
      <trkpt lat="47.25395" lon="-2.33635">
        <ele>60</ele>
        <time>2011-04-24T14:57:51Z</time>
      </trkpt>
      <trkpt lat="47.25391" lon="-2.33626">
        <ele>61</ele>
        <time>2011-04-24T14:57:53Z</time>
      </trkpt>
      <trkpt lat="47.25387" lon="-2.33617">
        <ele>61</ele>
        <time>2011-04-24T14:57:55Z</time>
      </trkpt>
      <trkpt lat="47.25383" lon="-2.33607">
        <ele>62</ele>
        <time>2011-04-24T14:57:57Z</time>
      </trkpt>
      <trkpt lat="47.2538" lon="-2.33598">
        <ele>62</ele>
        <time>2011-04-24T14:57:59Z</time>
      </trkpt>
      <trkpt lat="47.25377" lon="-2.3359">
        <ele>64</ele>
        <time>2011-04-24T14:58:01Z</time>
      </trkpt>
      <trkpt lat="47.25369" lon="-2.33582">
        <ele>64</ele>
        <time>2011-04-24T14:58:03Z</time>
      </trkpt>
      <trkpt lat="47.25364" lon="-2.33574">
        <ele>63</ele>
        <time>2011-04-24T14:58:05Z</time>
      </trkpt>
      <trkpt lat="47.2536" lon="-2.33565">
        <ele>63</ele>
        <time>2011-04-24T14:58:07Z</time>
      </trkpt>
      <trkpt lat="47.25354" lon="-2.33556">
        <ele>63</ele>
        <time>2011-04-24T14:58:09Z</time>
      </trkpt>
      <trkpt lat="47.2535" lon="-2.33547">
        <ele>64</ele>
        <time>2011-04-24T14:58:11Z</time>
      </trkpt>
      <trkpt lat="47.25344" lon="-2.33539">
        <ele>62</ele>
        <time>2011-04-24T14:58:13Z</time>
      </trkpt>
      <trkpt lat="47.25337" lon="-2.33525">
        <ele>62</ele>
        <time>2011-04-24T14:58:16Z</time>
      </trkpt>
      <trkpt lat="47.25332" lon="-2.33516">
        <ele>61</ele>
        <time>2011-04-24T14:58:18Z</time>
      </trkpt>
      <trkpt lat="47.25328" lon="-2.33508">
        <ele>61</ele>
        <time>2011-04-24T14:58:20Z</time>
      </trkpt>
      <trkpt lat="47.25323" lon="-2.335">
        <ele>61</ele>
        <time>2011-04-24T14:58:22Z</time>
      </trkpt>
      <trkpt lat="47.25317" lon="-2.33491">
        <ele>61</ele>
        <time>2011-04-24T14:58:24Z</time>
      </trkpt>
      <trkpt lat="47.25312" lon="-2.33483">
        <ele>60</ele>
        <time>2011-04-24T14:58:26Z</time>
      </trkpt>
      <trkpt lat="47.25307" lon="-2.33474">
        <ele>60</ele>
        <time>2011-04-24T14:58:28Z</time>
      </trkpt>
      <trkpt lat="47.25302" lon="-2.33464">
        <ele>60</ele>
        <time>2011-04-24T14:58:30Z</time>
      </trkpt>
      <trkpt lat="47.25298" lon="-2.33455">
        <ele>61</ele>
        <time>2011-04-24T14:58:32Z</time>
      </trkpt>
      <trkpt lat="47.25293" lon="-2.33446">
        <ele>61</ele>
        <time>2011-04-24T14:58:34Z</time>
      </trkpt>
      <trkpt lat="47.25288" lon="-2.33437">
        <ele>61</ele>
        <time>2011-04-24T14:58:36Z</time>
      </trkpt>
      <trkpt lat="47.25283" lon="-2.33428">
        <ele>61</ele>
        <time>2011-04-24T14:58:38Z</time>
      </trkpt>
      <trkpt lat="47.25279" lon="-2.33418">
        <ele>60</ele>
        <time>2011-04-24T14:58:40Z</time>
      </trkpt>
      <trkpt lat="47.25275" lon="-2.33408">
        <ele>60</ele>
        <time>2011-04-24T14:58:42Z</time>
      </trkpt>
      <trkpt lat="47.2527" lon="-2.33401">
        <ele>58</ele>
        <time>2011-04-24T14:58:44Z</time>
      </trkpt>
      <trkpt lat="47.25265" lon="-2.33392">
        <ele>58</ele>
        <time>2011-04-24T14:58:46Z</time>
      </trkpt>
      <trkpt lat="47.2526" lon="-2.33383">
        <ele>58</ele>
        <time>2011-04-24T14:58:48Z</time>
      </trkpt>
      <trkpt lat="47.25256" lon="-2.33375">
        <ele>58</ele>
        <time>2011-04-24T14:58:50Z</time>
      </trkpt>
      <trkpt lat="47.2525" lon="-2.33366">
        <ele>57</ele>
        <time>2011-04-24T14:58:52Z</time>
      </trkpt>
      <trkpt lat="47.25246" lon="-2.33358">
        <ele>57</ele>
        <time>2011-04-24T14:58:54Z</time>
      </trkpt>
      <trkpt lat="47.25242" lon="-2.33348">
        <ele>58</ele>
        <time>2011-04-24T14:58:56Z</time>
      </trkpt>
      <trkpt lat="47.25238" lon="-2.33339">
        <ele>58</ele>
        <time>2011-04-24T14:58:58Z</time>
      </trkpt>
      <trkpt lat="47.25234" lon="-2.3333">
        <ele>58</ele>
        <time>2011-04-24T14:59:00Z</time>
      </trkpt>
      <trkpt lat="47.25228" lon="-2.33321">
        <ele>58</ele>
        <time>2011-04-24T14:59:02Z</time>
      </trkpt>
      <trkpt lat="47.25224" lon="-2.33313">
        <ele>58</ele>
        <time>2011-04-24T14:59:04Z</time>
      </trkpt>
      <trkpt lat="47.25219" lon="-2.33304">
        <ele>58</ele>
        <time>2011-04-24T14:59:06Z</time>
      </trkpt>
      <trkpt lat="47.25214" lon="-2.33295">
        <ele>58</ele>
        <time>2011-04-24T14:59:08Z</time>
      </trkpt>
      <trkpt lat="47.25209" lon="-2.33287">
        <ele>57</ele>
        <time>2011-04-24T14:59:10Z</time>
      </trkpt>
      <trkpt lat="47.25205" lon="-2.33278">
        <ele>57</ele>
        <time>2011-04-24T14:59:12Z</time>
      </trkpt>
      <trkpt lat="47.252" lon="-2.33269">
        <ele>58</ele>
        <time>2011-04-24T14:59:14Z</time>
      </trkpt>
      <trkpt lat="47.25196" lon="-2.3326">
        <ele>58</ele>
        <time>2011-04-24T14:59:16Z</time>
      </trkpt>
      <trkpt lat="47.25194" lon="-2.33251">
        <ele>59</ele>
        <time>2011-04-24T14:59:18Z</time>
      </trkpt>
      <trkpt lat="47.25188" lon="-2.33242">
        <ele>58</ele>
        <time>2011-04-24T14:59:20Z</time>
      </trkpt>
      <trkpt lat="47.25183" lon="-2.33234">
        <ele>58</ele>
        <time>2011-04-24T14:59:22Z</time>
      </trkpt>
      <trkpt lat="47.25178" lon="-2.33225">
        <ele>58</ele>
        <time>2011-04-24T14:59:24Z</time>
      </trkpt>
      <trkpt lat="47.25172" lon="-2.33216">
        <ele>58</ele>
        <time>2011-04-24T14:59:26Z</time>
      </trkpt>
      <trkpt lat="47.25168" lon="-2.33207">
        <ele>58</ele>
        <time>2011-04-24T14:59:28Z</time>
      </trkpt>
      <trkpt lat="47.25163" lon="-2.33198">
        <ele>58</ele>
        <time>2011-04-24T14:59:30Z</time>
      </trkpt>
      <trkpt lat="47.25158" lon="-2.33189">
        <ele>57</ele>
        <time>2011-04-24T14:59:32Z</time>
      </trkpt>
      <trkpt lat="47.25154" lon="-2.33181">
        <ele>58</ele>
        <time>2011-04-24T14:59:34Z</time>
      </trkpt>
      <trkpt lat="47.25149" lon="-2.33173">
        <ele>58</ele>
        <time>2011-04-24T14:59:36Z</time>
      </trkpt>
      <trkpt lat="47.25145" lon="-2.33166">
        <ele>59</ele>
        <time>2011-04-24T14:59:38Z</time>
      </trkpt>
      <trkpt lat="47.2514" lon="-2.33156">
        <ele>59</ele>
        <time>2011-04-24T14:59:40Z</time>
      </trkpt>
      <trkpt lat="47.25136" lon="-2.33147">
        <ele>60</ele>
        <time>2011-04-24T14:59:42Z</time>
      </trkpt>
      <trkpt lat="47.25133" lon="-2.33142">
        <ele>60</ele>
        <time>2011-04-24T14:59:43Z</time>
      </trkpt>
      <trkpt lat="47.2513" lon="-2.33134">
        <ele>61</ele>
        <time>2011-04-24T14:59:45Z</time>
      </trkpt>
      <trkpt lat="47.25126" lon="-2.33125">
        <ele>62</ele>
        <time>2011-04-24T14:59:47Z</time>
      </trkpt>
      <trkpt lat="47.2512" lon="-2.33118">
        <ele>61</ele>
        <time>2011-04-24T14:59:49Z</time>
      </trkpt>
      <trkpt lat="47.25117" lon="-2.33109">
        <ele>61</ele>
        <time>2011-04-24T14:59:51Z</time>
      </trkpt>
      <trkpt lat="47.25114" lon="-2.33102">
        <ele>61</ele>
        <time>2011-04-24T14:59:53Z</time>
      </trkpt>
      <trkpt lat="47.2511" lon="-2.33095">
        <ele>61</ele>
        <time>2011-04-24T14:59:55Z</time>
      </trkpt>
      <trkpt lat="47.25106" lon="-2.33089">
        <ele>61</ele>
        <time>2011-04-24T14:59:57Z</time>
      </trkpt>
      <trkpt lat="47.25103" lon="-2.33083">
        <ele>61</ele>
        <time>2011-04-24T15:00:00Z</time>
      </trkpt>
      <trkpt lat="47.25099" lon="-2.3308">
        <ele>60</ele>
        <time>2011-04-24T15:00:29Z</time>
      </trkpt>
      <trkpt lat="47.25095" lon="-2.33073">
        <ele>59</ele>
        <time>2011-04-24T15:00:31Z</time>
      </trkpt>
      <trkpt lat="47.25092" lon="-2.33066">
        <ele>59</ele>
        <time>2011-04-24T15:00:33Z</time>
      </trkpt>
      <trkpt lat="47.25089" lon="-2.33059">
        <ele>60</ele>
        <time>2011-04-24T15:00:35Z</time>
      </trkpt>
      <trkpt lat="47.25087" lon="-2.33052">
        <ele>60</ele>
        <time>2011-04-24T15:00:37Z</time>
      </trkpt>
      <trkpt lat="47.25085" lon="-2.33044">
        <ele>61</ele>
        <time>2011-04-24T15:00:39Z</time>
      </trkpt>
      <trkpt lat="47.25079" lon="-2.33036">
        <ele>61</ele>
        <time>2011-04-24T15:00:41Z</time>
      </trkpt>
      <trkpt lat="47.25074" lon="-2.33026">
        <ele>61</ele>
        <time>2011-04-24T15:00:43Z</time>
      </trkpt>
      <trkpt lat="47.2507" lon="-2.33018">
        <ele>62</ele>
        <time>2011-04-24T15:00:45Z</time>
      </trkpt>
      <trkpt lat="47.25066" lon="-2.33009">
        <ele>62</ele>
        <time>2011-04-24T15:00:47Z</time>
      </trkpt>
      <trkpt lat="47.25061" lon="-2.33">
        <ele>62</ele>
        <time>2011-04-24T15:00:49Z</time>
      </trkpt>
      <trkpt lat="47.25056" lon="-2.32992">
        <ele>61</ele>
        <time>2011-04-24T15:00:51Z</time>
      </trkpt>
      <trkpt lat="47.25052" lon="-2.32981">
        <ele>61</ele>
        <time>2011-04-24T15:00:53Z</time>
      </trkpt>
      <trkpt lat="47.25048" lon="-2.32971">
        <ele>61</ele>
        <time>2011-04-24T15:00:55Z</time>
      </trkpt>
      <trkpt lat="47.25045" lon="-2.32961">
        <ele>61</ele>
        <time>2011-04-24T15:00:57Z</time>
      </trkpt>
      <trkpt lat="47.2504" lon="-2.32951">
        <ele>60</ele>
        <time>2011-04-24T15:00:59Z</time>
      </trkpt>
      <trkpt lat="47.25037" lon="-2.32942">
        <ele>60</ele>
        <time>2011-04-24T15:01:01Z</time>
      </trkpt>
      <trkpt lat="47.25034" lon="-2.32933">
        <ele>60</ele>
        <time>2011-04-24T15:01:03Z</time>
      </trkpt>
      <trkpt lat="47.25031" lon="-2.32926">
        <ele>60</ele>
        <time>2011-04-24T15:01:05Z</time>
      </trkpt>
      <trkpt lat="47.25029" lon="-2.32916">
        <ele>60</ele>
        <time>2011-04-24T15:01:07Z</time>
      </trkpt>
      <trkpt lat="47.25026" lon="-2.32906">
        <ele>61</ele>
        <time>2011-04-24T15:01:09Z</time>
      </trkpt>
      <trkpt lat="47.25022" lon="-2.329">
        <ele>59</ele>
        <time>2011-04-24T15:01:10Z</time>
      </trkpt>
      <trkpt lat="47.25018" lon="-2.32891">
        <ele>58</ele>
        <time>2011-04-24T15:01:12Z</time>
      </trkpt>
      <trkpt lat="47.25015" lon="-2.32881">
        <ele>57</ele>
        <time>2011-04-24T15:01:14Z</time>
      </trkpt>
      <trkpt lat="47.25013" lon="-2.32872">
        <ele>58</ele>
        <time>2011-04-24T15:01:16Z</time>
      </trkpt>
      <trkpt lat="47.25009" lon="-2.32861">
        <ele>58</ele>
        <time>2011-04-24T15:01:18Z</time>
      </trkpt>
      <trkpt lat="47.25004" lon="-2.32851">
        <ele>58</ele>
        <time>2011-04-24T15:01:20Z</time>
      </trkpt>
      <trkpt lat="47.25001" lon="-2.32845">
        <ele>58</ele>
        <time>2011-04-24T15:01:21Z</time>
      </trkpt>
      <trkpt lat="47.24998" lon="-2.32839">
        <ele>58</ele>
        <time>2011-04-24T15:01:22Z</time>
      </trkpt>
      <trkpt lat="47.24995" lon="-2.32833">
        <ele>58</ele>
        <time>2011-04-24T15:01:23Z</time>
      </trkpt>
      <trkpt lat="47.24991" lon="-2.32822">
        <ele>57</ele>
        <time>2011-04-24T15:01:25Z</time>
      </trkpt>
      <trkpt lat="47.24987" lon="-2.32811">
        <ele>57</ele>
        <time>2011-04-24T15:01:27Z</time>
      </trkpt>
      <trkpt lat="47.24983" lon="-2.328">
        <ele>57</ele>
        <time>2011-04-24T15:01:29Z</time>
      </trkpt>
      <trkpt lat="47.24981" lon="-2.32794">
        <ele>57</ele>
        <time>2011-04-24T15:01:30Z</time>
      </trkpt>
      <trkpt lat="47.24979" lon="-2.32787">
        <ele>57</ele>
        <time>2011-04-24T15:01:31Z</time>
      </trkpt>
      <trkpt lat="47.24977" lon="-2.3278">
        <ele>57</ele>
        <time>2011-04-24T15:01:32Z</time>
      </trkpt>
      <trkpt lat="47.24974" lon="-2.32774">
        <ele>57</ele>
        <time>2011-04-24T15:01:33Z</time>
      </trkpt>
      <trkpt lat="47.24971" lon="-2.32768">
        <ele>57</ele>
        <time>2011-04-24T15:01:34Z</time>
      </trkpt>
      <trkpt lat="47.24967" lon="-2.32757">
        <ele>56</ele>
        <time>2011-04-24T15:01:36Z</time>
      </trkpt>
      <trkpt lat="47.24965" lon="-2.32751">
        <ele>56</ele>
        <time>2011-04-24T15:01:37Z</time>
      </trkpt>
      <trkpt lat="47.24963" lon="-2.32745">
        <ele>56</ele>
        <time>2011-04-24T15:01:38Z</time>
      </trkpt>
      <trkpt lat="47.24958" lon="-2.32733">
        <ele>56</ele>
        <time>2011-04-24T15:01:40Z</time>
      </trkpt>
      <trkpt lat="47.24954" lon="-2.32723">
        <ele>56</ele>
        <time>2011-04-24T15:01:42Z</time>
      </trkpt>
      <trkpt lat="47.2495" lon="-2.32712">
        <ele>56</ele>
        <time>2011-04-24T15:01:44Z</time>
      </trkpt>
      <trkpt lat="47.24947" lon="-2.327">
        <ele>57</ele>
        <time>2011-04-24T15:01:46Z</time>
      </trkpt>
      <trkpt lat="47.24943" lon="-2.32689">
        <ele>57</ele>
        <time>2011-04-24T15:01:48Z</time>
      </trkpt>
      <trkpt lat="47.24939" lon="-2.32679">
        <ele>58</ele>
        <time>2011-04-24T15:01:50Z</time>
      </trkpt>
      <trkpt lat="47.24936" lon="-2.32668">
        <ele>58</ele>
        <time>2011-04-24T15:01:52Z</time>
      </trkpt>
      <trkpt lat="47.24932" lon="-2.32656">
        <ele>58</ele>
        <time>2011-04-24T15:01:54Z</time>
      </trkpt>
      <trkpt lat="47.24929" lon="-2.32645">
        <ele>59</ele>
        <time>2011-04-24T15:01:56Z</time>
      </trkpt>
      <trkpt lat="47.24925" lon="-2.32635">
        <ele>60</ele>
        <time>2011-04-24T15:01:58Z</time>
      </trkpt>
      <trkpt lat="47.24921" lon="-2.32624">
        <ele>60</ele>
        <time>2011-04-24T15:02:00Z</time>
      </trkpt>
      <trkpt lat="47.24917" lon="-2.32614">
        <ele>60</ele>
        <time>2011-04-24T15:02:02Z</time>
      </trkpt>
      <trkpt lat="47.24912" lon="-2.32603">
        <ele>60</ele>
        <time>2011-04-24T15:02:04Z</time>
      </trkpt>
      <trkpt lat="47.24908" lon="-2.32592">
        <ele>60</ele>
        <time>2011-04-24T15:02:06Z</time>
      </trkpt>
      <trkpt lat="47.24905" lon="-2.32581">
        <ele>60</ele>
        <time>2011-04-24T15:02:08Z</time>
      </trkpt>
      <trkpt lat="47.249" lon="-2.32572">
        <ele>60</ele>
        <time>2011-04-24T15:02:10Z</time>
      </trkpt>
      <trkpt lat="47.24897" lon="-2.32562">
        <ele>61</ele>
        <time>2011-04-24T15:02:12Z</time>
      </trkpt>
      <trkpt lat="47.24894" lon="-2.32552">
        <ele>61</ele>
        <time>2011-04-24T15:02:14Z</time>
      </trkpt>
      <trkpt lat="47.24891" lon="-2.32541">
        <ele>63</ele>
        <time>2011-04-24T15:02:16Z</time>
      </trkpt>
      <trkpt lat="47.24888" lon="-2.32531">
        <ele>63</ele>
        <time>2011-04-24T15:02:18Z</time>
      </trkpt>
      <trkpt lat="47.24883" lon="-2.32521">
        <ele>63</ele>
        <time>2011-04-24T15:02:20Z</time>
      </trkpt>
      <trkpt lat="47.24878" lon="-2.32511">
        <ele>62</ele>
        <time>2011-04-24T15:02:22Z</time>
      </trkpt>
      <trkpt lat="47.24875" lon="-2.32501">
        <ele>63</ele>
        <time>2011-04-24T15:02:24Z</time>
      </trkpt>
      <trkpt lat="47.24871" lon="-2.3249">
        <ele>63</ele>
        <time>2011-04-24T15:02:26Z</time>
      </trkpt>
      <trkpt lat="47.24867" lon="-2.32479">
        <ele>63</ele>
        <time>2011-04-24T15:02:28Z</time>
      </trkpt>
      <trkpt lat="47.24864" lon="-2.32468">
        <ele>63</ele>
        <time>2011-04-24T15:02:30Z</time>
      </trkpt>
      <trkpt lat="47.24859" lon="-2.32457">
        <ele>62</ele>
        <time>2011-04-24T15:02:32Z</time>
      </trkpt>
      <trkpt lat="47.24855" lon="-2.32446">
        <ele>62</ele>
        <time>2011-04-24T15:02:34Z</time>
      </trkpt>
      <trkpt lat="47.24851" lon="-2.32435">
        <ele>63</ele>
        <time>2011-04-24T15:02:36Z</time>
      </trkpt>
      <trkpt lat="47.24846" lon="-2.32425">
        <ele>64</ele>
        <time>2011-04-24T15:02:38Z</time>
      </trkpt>
      <trkpt lat="47.24842" lon="-2.32415">
        <ele>64</ele>
        <time>2011-04-24T15:02:40Z</time>
      </trkpt>
      <trkpt lat="47.24837" lon="-2.32405">
        <ele>63</ele>
        <time>2011-04-24T15:02:42Z</time>
      </trkpt>
      <trkpt lat="47.24831" lon="-2.32395">
        <ele>63</ele>
        <time>2011-04-24T15:02:44Z</time>
      </trkpt>
      <trkpt lat="47.24825" lon="-2.32384">
        <ele>63</ele>
        <time>2011-04-24T15:02:46Z</time>
      </trkpt>
      <trkpt lat="47.2482" lon="-2.32374">
        <ele>63</ele>
        <time>2011-04-24T15:02:48Z</time>
      </trkpt>
      <trkpt lat="47.24816" lon="-2.32364">
        <ele>63</ele>
        <time>2011-04-24T15:02:50Z</time>
      </trkpt>
      <trkpt lat="47.2481" lon="-2.32355">
        <ele>63</ele>
        <time>2011-04-24T15:02:52Z</time>
      </trkpt>
      <trkpt lat="47.24806" lon="-2.32345">
        <ele>64</ele>
        <time>2011-04-24T15:02:54Z</time>
      </trkpt>
      <trkpt lat="47.24801" lon="-2.32334">
        <ele>64</ele>
        <time>2011-04-24T15:02:56Z</time>
      </trkpt>
      <trkpt lat="47.24795" lon="-2.32325">
        <ele>64</ele>
        <time>2011-04-24T15:02:58Z</time>
      </trkpt>
      <trkpt lat="47.2479" lon="-2.32316">
        <ele>63</ele>
        <time>2011-04-24T15:03:00Z</time>
      </trkpt>
      <trkpt lat="47.24785" lon="-2.32306">
        <ele>64</ele>
        <time>2011-04-24T15:03:02Z</time>
      </trkpt>
      <trkpt lat="47.24779" lon="-2.32297">
        <ele>64</ele>
        <time>2011-04-24T15:03:04Z</time>
      </trkpt>
      <trkpt lat="47.24773" lon="-2.32288">
        <ele>64</ele>
        <time>2011-04-24T15:03:06Z</time>
      </trkpt>
      <trkpt lat="47.24768" lon="-2.32278">
        <ele>64</ele>
        <time>2011-04-24T15:03:08Z</time>
      </trkpt>
      <trkpt lat="47.24763" lon="-2.32269">
        <ele>64</ele>
        <time>2011-04-24T15:03:10Z</time>
      </trkpt>
      <trkpt lat="47.24758" lon="-2.3226">
        <ele>64</ele>
        <time>2011-04-24T15:03:12Z</time>
      </trkpt>
      <trkpt lat="47.24754" lon="-2.3225">
        <ele>64</ele>
        <time>2011-04-24T15:03:14Z</time>
      </trkpt>
      <trkpt lat="47.24749" lon="-2.32241">
        <ele>64</ele>
        <time>2011-04-24T15:03:16Z</time>
      </trkpt>
      <trkpt lat="47.24745" lon="-2.32232">
        <ele>64</ele>
        <time>2011-04-24T15:03:18Z</time>
      </trkpt>
      <trkpt lat="47.2474" lon="-2.32221">
        <ele>64</ele>
        <time>2011-04-24T15:03:20Z</time>
      </trkpt>
      <trkpt lat="47.24735" lon="-2.32212">
        <ele>63</ele>
        <time>2011-04-24T15:03:22Z</time>
      </trkpt>
      <trkpt lat="47.24729" lon="-2.32202">
        <ele>63</ele>
        <time>2011-04-24T15:03:24Z</time>
      </trkpt>
      <trkpt lat="47.24726" lon="-2.32197">
        <ele>63</ele>
        <time>2011-04-24T15:03:25Z</time>
      </trkpt>
      <trkpt lat="47.2472" lon="-2.32189">
        <ele>62</ele>
        <time>2011-04-24T15:03:27Z</time>
      </trkpt>
      <trkpt lat="47.24715" lon="-2.3218">
        <ele>62</ele>
        <time>2011-04-24T15:03:29Z</time>
      </trkpt>
      <trkpt lat="47.24712" lon="-2.32171">
        <ele>62</ele>
        <time>2011-04-24T15:03:31Z</time>
      </trkpt>
      <trkpt lat="47.24708" lon="-2.32164">
        <ele>63</ele>
        <time>2011-04-24T15:03:33Z</time>
      </trkpt>
      <trkpt lat="47.24705" lon="-2.32159">
        <ele>64</ele>
        <time>2011-04-24T15:03:35Z</time>
      </trkpt>
      <trkpt lat="47.247" lon="-2.32154">
        <ele>64</ele>
        <time>2011-04-24T15:03:37Z</time>
      </trkpt>
      <trkpt lat="47.24698" lon="-2.32147">
        <ele>65</ele>
        <time>2011-04-24T15:03:41Z</time>
      </trkpt>
      <trkpt lat="47.24695" lon="-2.32141">
        <ele>65</ele>
        <time>2011-04-24T15:03:43Z</time>
      </trkpt>
      <trkpt lat="47.24691" lon="-2.32135">
        <ele>67</ele>
        <time>2011-04-24T15:03:46Z</time>
      </trkpt>
      <trkpt lat="47.24687" lon="-2.32127">
        <ele>67</ele>
        <time>2011-04-24T15:03:49Z</time>
      </trkpt>
      <trkpt lat="47.24684" lon="-2.32121">
        <ele>67</ele>
        <time>2011-04-24T15:03:51Z</time>
      </trkpt>
      <trkpt lat="47.24681" lon="-2.32115">
        <ele>67</ele>
        <time>2011-04-24T15:03:53Z</time>
      </trkpt>
      <trkpt lat="47.24679" lon="-2.32109">
        <ele>67</ele>
        <time>2011-04-24T15:03:55Z</time>
      </trkpt>
      <trkpt lat="47.24676" lon="-2.32103">
        <ele>67</ele>
        <time>2011-04-24T15:03:57Z</time>
      </trkpt>
      <trkpt lat="47.24672" lon="-2.32097">
        <ele>67</ele>
        <time>2011-04-24T15:03:59Z</time>
      </trkpt>
      <trkpt lat="47.24669" lon="-2.32091">
        <ele>67</ele>
        <time>2011-04-24T15:04:01Z</time>
      </trkpt>
      <trkpt lat="47.24666" lon="-2.32085">
        <ele>67</ele>
        <time>2011-04-24T15:04:03Z</time>
      </trkpt>
      <trkpt lat="47.24663" lon="-2.32079">
        <ele>68</ele>
        <time>2011-04-24T15:04:05Z</time>
      </trkpt>
      <trkpt lat="47.2466" lon="-2.32073">
        <ele>68</ele>
        <time>2011-04-24T15:04:07Z</time>
      </trkpt>
      <trkpt lat="47.24657" lon="-2.32066">
        <ele>68</ele>
        <time>2011-04-24T15:04:09Z</time>
      </trkpt>
      <trkpt lat="47.24654" lon="-2.3206">
        <ele>68</ele>
        <time>2011-04-24T15:04:11Z</time>
      </trkpt>
      <trkpt lat="47.24651" lon="-2.32053">
        <ele>69</ele>
        <time>2011-04-24T15:04:13Z</time>
      </trkpt>
      <trkpt lat="47.24647" lon="-2.32048">
        <ele>69</ele>
        <time>2011-04-24T15:04:15Z</time>
      </trkpt>
      <trkpt lat="47.24644" lon="-2.32042">
        <ele>69</ele>
        <time>2011-04-24T15:04:17Z</time>
      </trkpt>
      <trkpt lat="47.2464" lon="-2.32035">
        <ele>68</ele>
        <time>2011-04-24T15:04:19Z</time>
      </trkpt>
      <trkpt lat="47.24639" lon="-2.32027">
        <ele>68</ele>
        <time>2011-04-24T15:04:21Z</time>
      </trkpt>
      <trkpt lat="47.24637" lon="-2.32018">
        <ele>68</ele>
        <time>2011-04-24T15:04:23Z</time>
      </trkpt>
      <trkpt lat="47.24636" lon="-2.3201">
        <ele>69</ele>
        <time>2011-04-24T15:04:26Z</time>
      </trkpt>
      <trkpt lat="47.2464" lon="-2.32007">
        <ele>73</ele>
        <time>2011-04-24T15:06:02Z</time>
      </trkpt>
      <trkpt lat="47.24645" lon="-2.32004">
        <ele>72</ele>
        <time>2011-04-24T15:06:24Z</time>
      </trkpt>
      <trkpt lat="47.24649" lon="-2.32001">
        <ele>72</ele>
        <time>2011-04-24T15:06:27Z</time>
      </trkpt>
      <trkpt lat="47.24654" lon="-2.31998">
        <ele>72</ele>
        <time>2011-04-24T15:06:30Z</time>
      </trkpt>
      <trkpt lat="47.24659" lon="-2.31993">
        <ele>73</ele>
        <time>2011-04-24T15:06:34Z</time>
      </trkpt>
      <trkpt lat="47.24664" lon="-2.3199">
        <ele>72</ele>
        <time>2011-04-24T15:06:38Z</time>
      </trkpt>
      <trkpt lat="47.24669" lon="-2.31986">
        <ele>72</ele>
        <time>2011-04-24T15:06:42Z</time>
      </trkpt>
      <trkpt lat="47.24674" lon="-2.31983">
        <ele>73</ele>
        <time>2011-04-24T15:06:46Z</time>
      </trkpt>
      <trkpt lat="47.2468" lon="-2.31978">
        <ele>72</ele>
        <time>2011-04-24T15:06:50Z</time>
      </trkpt>
      <trkpt lat="47.24684" lon="-2.31974">
        <ele>71</ele>
        <time>2011-04-24T15:06:54Z</time>
      </trkpt>
      <trkpt lat="47.24688" lon="-2.3197">
        <ele>71</ele>
        <time>2011-04-24T15:06:57Z</time>
      </trkpt>
      <trkpt lat="47.24692" lon="-2.31966">
        <ele>71</ele>
        <time>2011-04-24T15:07:00Z</time>
      </trkpt>
      <trkpt lat="47.24697" lon="-2.31962">
        <ele>72</ele>
        <time>2011-04-24T15:07:03Z</time>
      </trkpt>
      <trkpt lat="47.24702" lon="-2.31956">
        <ele>71</ele>
        <time>2011-04-24T15:07:06Z</time>
      </trkpt>
      <trkpt lat="47.24707" lon="-2.31953">
        <ele>71</ele>
        <time>2011-04-24T15:07:08Z</time>
      </trkpt>
      <trkpt lat="47.24711" lon="-2.31949">
        <ele>71</ele>
        <time>2011-04-24T15:07:10Z</time>
      </trkpt>
      <trkpt lat="47.24715" lon="-2.31944">
        <ele>71</ele>
        <time>2011-04-24T15:07:12Z</time>
      </trkpt>
      <trkpt lat="47.2472" lon="-2.31941">
        <ele>71</ele>
        <time>2011-04-24T15:07:14Z</time>
      </trkpt>
      <trkpt lat="47.24724" lon="-2.31936">
        <ele>72</ele>
        <time>2011-04-24T15:07:16Z</time>
      </trkpt>
      <trkpt lat="47.24729" lon="-2.31932">
        <ele>72</ele>
        <time>2011-04-24T15:07:18Z</time>
      </trkpt>
      <trkpt lat="47.24734" lon="-2.31927">
        <ele>72</ele>
        <time>2011-04-24T15:07:20Z</time>
      </trkpt>
      <trkpt lat="47.24738" lon="-2.31923">
        <ele>73</ele>
        <time>2011-04-24T15:07:22Z</time>
      </trkpt>
      <trkpt lat="47.24743" lon="-2.31919">
        <ele>72</ele>
        <time>2011-04-24T15:07:24Z</time>
      </trkpt>
      <trkpt lat="47.24748" lon="-2.31914">
        <ele>72</ele>
        <time>2011-04-24T15:07:26Z</time>
      </trkpt>
      <trkpt lat="47.24754" lon="-2.31911">
        <ele>74</ele>
        <time>2011-04-24T15:07:28Z</time>
      </trkpt>
      <trkpt lat="47.24759" lon="-2.31906">
        <ele>74</ele>
        <time>2011-04-24T15:07:30Z</time>
      </trkpt>
      <trkpt lat="47.24764" lon="-2.31903">
        <ele>74</ele>
        <time>2011-04-24T15:07:32Z</time>
      </trkpt>
      <trkpt lat="47.24768" lon="-2.31899">
        <ele>74</ele>
        <time>2011-04-24T15:07:34Z</time>
      </trkpt>
      <trkpt lat="47.24773" lon="-2.31895">
        <ele>74</ele>
        <time>2011-04-24T15:07:36Z</time>
      </trkpt>
      <trkpt lat="47.24777" lon="-2.3189">
        <ele>74</ele>
        <time>2011-04-24T15:07:38Z</time>
      </trkpt>
      <trkpt lat="47.24779" lon="-2.31884">
        <ele>76</ele>
        <time>2011-04-24T15:07:40Z</time>
      </trkpt>
      <trkpt lat="47.24783" lon="-2.31881">
        <ele>77</ele>
        <time>2011-04-24T15:07:42Z</time>
      </trkpt>
      <trkpt lat="47.24787" lon="-2.31875">
        <ele>76</ele>
        <time>2011-04-24T15:07:44Z</time>
      </trkpt>
      <trkpt lat="47.24793" lon="-2.31872">
        <ele>75</ele>
        <time>2011-04-24T15:07:46Z</time>
      </trkpt>
      <trkpt lat="47.24799" lon="-2.31868">
        <ele>75</ele>
        <time>2011-04-24T15:07:48Z</time>
      </trkpt>
      <trkpt lat="47.24806" lon="-2.31864">
        <ele>74</ele>
        <time>2011-04-24T15:07:50Z</time>
      </trkpt>
      <trkpt lat="47.24813" lon="-2.3186">
        <ele>73</ele>
        <time>2011-04-24T15:07:52Z</time>
      </trkpt>
      <trkpt lat="47.24818" lon="-2.31856">
        <ele>73</ele>
        <time>2011-04-24T15:07:54Z</time>
      </trkpt>
      <trkpt lat="47.24824" lon="-2.31852">
        <ele>73</ele>
        <time>2011-04-24T15:07:56Z</time>
      </trkpt>
      <trkpt lat="47.24829" lon="-2.31848">
        <ele>73</ele>
        <time>2011-04-24T15:07:58Z</time>
      </trkpt>
      <trkpt lat="47.24834" lon="-2.31843">
        <ele>73</ele>
        <time>2011-04-24T15:08:00Z</time>
      </trkpt>
      <trkpt lat="47.24839" lon="-2.31838">
        <ele>73</ele>
        <time>2011-04-24T15:08:02Z</time>
      </trkpt>
      <trkpt lat="47.24845" lon="-2.31834">
        <ele>73</ele>
        <time>2011-04-24T15:08:04Z</time>
      </trkpt>
      <trkpt lat="47.24851" lon="-2.31829">
        <ele>73</ele>
        <time>2011-04-24T15:08:06Z</time>
      </trkpt>
      <trkpt lat="47.24856" lon="-2.31824">
        <ele>72</ele>
        <time>2011-04-24T15:08:08Z</time>
      </trkpt>
      <trkpt lat="47.24861" lon="-2.3182">
        <ele>72</ele>
        <time>2011-04-24T15:08:10Z</time>
      </trkpt>
      <trkpt lat="47.24866" lon="-2.31816">
        <ele>72</ele>
        <time>2011-04-24T15:08:12Z</time>
      </trkpt>
      <trkpt lat="47.2487" lon="-2.31811">
        <ele>72</ele>
        <time>2011-04-24T15:08:14Z</time>
      </trkpt>
      <trkpt lat="47.24875" lon="-2.31807">
        <ele>72</ele>
        <time>2011-04-24T15:08:16Z</time>
      </trkpt>
      <trkpt lat="47.24879" lon="-2.31802">
        <ele>72</ele>
        <time>2011-04-24T15:08:18Z</time>
      </trkpt>
      <trkpt lat="47.24885" lon="-2.31799">
        <ele>71</ele>
        <time>2011-04-24T15:08:20Z</time>
      </trkpt>
      <trkpt lat="47.24891" lon="-2.31794">
        <ele>72</ele>
        <time>2011-04-24T15:08:22Z</time>
      </trkpt>
      <trkpt lat="47.24896" lon="-2.3179">
        <ele>72</ele>
        <time>2011-04-24T15:08:24Z</time>
      </trkpt>
      <trkpt lat="47.24901" lon="-2.31786">
        <ele>72</ele>
        <time>2011-04-24T15:08:26Z</time>
      </trkpt>
      <trkpt lat="47.24906" lon="-2.31782">
        <ele>72</ele>
        <time>2011-04-24T15:08:28Z</time>
      </trkpt>
      <trkpt lat="47.2491" lon="-2.31779">
        <ele>73</ele>
        <time>2011-04-24T15:08:30Z</time>
      </trkpt>
      <trkpt lat="47.24914" lon="-2.31775">
        <ele>73</ele>
        <time>2011-04-24T15:08:32Z</time>
      </trkpt>
      <trkpt lat="47.2492" lon="-2.31771">
        <ele>73</ele>
        <time>2011-04-24T15:08:34Z</time>
      </trkpt>
      <trkpt lat="47.24924" lon="-2.31766">
        <ele>74</ele>
        <time>2011-04-24T15:08:36Z</time>
      </trkpt>
      <trkpt lat="47.2493" lon="-2.3176">
        <ele>74</ele>
        <time>2011-04-24T15:08:38Z</time>
      </trkpt>
      <trkpt lat="47.24934" lon="-2.31756">
        <ele>74</ele>
        <time>2011-04-24T15:08:40Z</time>
      </trkpt>
      <trkpt lat="47.2494" lon="-2.31752">
        <ele>74</ele>
        <time>2011-04-24T15:08:42Z</time>
      </trkpt>
      <trkpt lat="47.24946" lon="-2.31747">
        <ele>72</ele>
        <time>2011-04-24T15:08:44Z</time>
      </trkpt>
      <trkpt lat="47.24949" lon="-2.31743">
        <ele>70</ele>
        <time>2011-04-24T15:08:45Z</time>
      </trkpt>
      <trkpt lat="47.24954" lon="-2.31737">
        <ele>69</ele>
        <time>2011-04-24T15:08:47Z</time>
      </trkpt>
      <trkpt lat="47.24959" lon="-2.31733">
        <ele>70</ele>
        <time>2011-04-24T15:08:49Z</time>
      </trkpt>
      <trkpt lat="47.24963" lon="-2.31728">
        <ele>70</ele>
        <time>2011-04-24T15:08:51Z</time>
      </trkpt>
      <trkpt lat="47.24969" lon="-2.31724">
        <ele>70</ele>
        <time>2011-04-24T15:08:53Z</time>
      </trkpt>
      <trkpt lat="47.24974" lon="-2.31719">
        <ele>69</ele>
        <time>2011-04-24T15:08:55Z</time>
      </trkpt>
      <trkpt lat="47.24979" lon="-2.31714">
        <ele>69</ele>
        <time>2011-04-24T15:08:57Z</time>
      </trkpt>
      <trkpt lat="47.24984" lon="-2.31708">
        <ele>69</ele>
        <time>2011-04-24T15:08:59Z</time>
      </trkpt>
      <trkpt lat="47.2499" lon="-2.31702">
        <ele>68</ele>
        <time>2011-04-24T15:09:01Z</time>
      </trkpt>
      <trkpt lat="47.24995" lon="-2.31696">
        <ele>67</ele>
        <time>2011-04-24T15:09:03Z</time>
      </trkpt>
      <trkpt lat="47.24999" lon="-2.31691">
        <ele>69</ele>
        <time>2011-04-24T15:09:05Z</time>
      </trkpt>
      <trkpt lat="47.25003" lon="-2.31685">
        <ele>71</ele>
        <time>2011-04-24T15:09:07Z</time>
      </trkpt>
      <trkpt lat="47.25008" lon="-2.3168">
        <ele>73</ele>
        <time>2011-04-24T15:09:09Z</time>
      </trkpt>
      <trkpt lat="47.25015" lon="-2.31674">
        <ele>73</ele>
        <time>2011-04-24T15:09:11Z</time>
      </trkpt>
      <trkpt lat="47.2502" lon="-2.31668">
        <ele>74</ele>
        <time>2011-04-24T15:09:13Z</time>
      </trkpt>
      <trkpt lat="47.25027" lon="-2.31661">
        <ele>75</ele>
        <time>2011-04-24T15:09:15Z</time>
      </trkpt>
      <trkpt lat="47.25032" lon="-2.31656">
        <ele>75</ele>
        <time>2011-04-24T15:09:17Z</time>
      </trkpt>
      <trkpt lat="47.2504" lon="-2.3165">
        <ele>75</ele>
        <time>2011-04-24T15:09:19Z</time>
      </trkpt>
      <trkpt lat="47.25047" lon="-2.31643">
        <ele>74</ele>
        <time>2011-04-24T15:09:21Z</time>
      </trkpt>
      <trkpt lat="47.25054" lon="-2.31637">
        <ele>74</ele>
        <time>2011-04-24T15:09:23Z</time>
      </trkpt>
      <trkpt lat="47.25059" lon="-2.31634">
        <ele>75</ele>
        <time>2011-04-24T15:09:25Z</time>
      </trkpt>
      <trkpt lat="47.25064" lon="-2.31631">
        <ele>77</ele>
        <time>2011-04-24T15:09:27Z</time>
      </trkpt>
      <trkpt lat="47.25067" lon="-2.31626">
        <ele>77</ele>
        <time>2011-04-24T15:09:28Z</time>
      </trkpt>
      <trkpt lat="47.25073" lon="-2.31619">
        <ele>78</ele>
        <time>2011-04-24T15:09:30Z</time>
      </trkpt>
      <trkpt lat="47.25081" lon="-2.31615">
        <ele>78</ele>
        <time>2011-04-24T15:09:32Z</time>
      </trkpt>
      <trkpt lat="47.25086" lon="-2.31608">
        <ele>78</ele>
        <time>2011-04-24T15:09:34Z</time>
      </trkpt>
      <trkpt lat="47.25089" lon="-2.31602">
        <ele>78</ele>
        <time>2011-04-24T15:09:36Z</time>
      </trkpt>
      <trkpt lat="47.25088" lon="-2.31595">
        <ele>79</ele>
        <time>2011-04-24T15:09:38Z</time>
      </trkpt>
      <trkpt lat="47.25087" lon="-2.31588">
        <ele>79</ele>
        <time>2011-04-24T15:09:40Z</time>
      </trkpt>
      <trkpt lat="47.25086" lon="-2.3158">
        <ele>80</ele>
        <time>2011-04-24T15:09:42Z</time>
      </trkpt>
      <trkpt lat="47.25084" lon="-2.31572">
        <ele>80</ele>
        <time>2011-04-24T15:09:44Z</time>
      </trkpt>
      <trkpt lat="47.25081" lon="-2.31565">
        <ele>81</ele>
        <time>2011-04-24T15:09:46Z</time>
      </trkpt>
      <trkpt lat="47.25079" lon="-2.31556">
        <ele>82</ele>
        <time>2011-04-24T15:09:48Z</time>
      </trkpt>
      <trkpt lat="47.25077" lon="-2.31548">
        <ele>82</ele>
        <time>2011-04-24T15:09:50Z</time>
      </trkpt>
      <trkpt lat="47.25074" lon="-2.31538">
        <ele>83</ele>
        <time>2011-04-24T15:09:52Z</time>
      </trkpt>
      <trkpt lat="47.2507" lon="-2.3153">
        <ele>83</ele>
        <time>2011-04-24T15:09:54Z</time>
      </trkpt>
      <trkpt lat="47.25067" lon="-2.3152">
        <ele>83</ele>
        <time>2011-04-24T15:09:56Z</time>
      </trkpt>
      <trkpt lat="47.25065" lon="-2.3151">
        <ele>83</ele>
        <time>2011-04-24T15:09:58Z</time>
      </trkpt>
      <trkpt lat="47.25062" lon="-2.31501">
        <ele>84</ele>
        <time>2011-04-24T15:10:00Z</time>
      </trkpt>
      <trkpt lat="47.25061" lon="-2.31493">
        <ele>83</ele>
        <time>2011-04-24T15:10:02Z</time>
      </trkpt>
      <trkpt lat="47.2506" lon="-2.31485">
        <ele>84</ele>
        <time>2011-04-24T15:10:04Z</time>
      </trkpt>
      <trkpt lat="47.2506" lon="-2.31476">
        <ele>85</ele>
        <time>2011-04-24T15:10:06Z</time>
      </trkpt>
      <trkpt lat="47.25057" lon="-2.31467">
        <ele>86</ele>
        <time>2011-04-24T15:10:08Z</time>
      </trkpt>
      <trkpt lat="47.25052" lon="-2.3146">
        <ele>88</ele>
        <time>2011-04-24T15:10:10Z</time>
      </trkpt>
      <trkpt lat="47.2505" lon="-2.3145">
        <ele>87</ele>
        <time>2011-04-24T15:10:12Z</time>
      </trkpt>
      <trkpt lat="47.25047" lon="-2.31441">
        <ele>86</ele>
        <time>2011-04-24T15:10:14Z</time>
      </trkpt>
      <trkpt lat="47.25043" lon="-2.31431">
        <ele>86</ele>
        <time>2011-04-24T15:10:16Z</time>
      </trkpt>
      <trkpt lat="47.2504" lon="-2.31421">
        <ele>85</ele>
        <time>2011-04-24T15:10:18Z</time>
      </trkpt>
      <trkpt lat="47.25037" lon="-2.31411">
        <ele>85</ele>
        <time>2011-04-24T15:10:20Z</time>
      </trkpt>
      <trkpt lat="47.25035" lon="-2.31401">
        <ele>84</ele>
        <time>2011-04-24T15:10:22Z</time>
      </trkpt>
      <trkpt lat="47.25032" lon="-2.31392">
        <ele>83</ele>
        <time>2011-04-24T15:10:24Z</time>
      </trkpt>
      <trkpt lat="47.25029" lon="-2.31382">
        <ele>83</ele>
        <time>2011-04-24T15:10:26Z</time>
      </trkpt>
      <trkpt lat="47.25026" lon="-2.31373">
        <ele>82</ele>
        <time>2011-04-24T15:10:28Z</time>
      </trkpt>
      <trkpt lat="47.25023" lon="-2.31362">
        <ele>82</ele>
        <time>2011-04-24T15:10:30Z</time>
      </trkpt>
      <trkpt lat="47.25021" lon="-2.31352">
        <ele>81</ele>
        <time>2011-04-24T15:10:32Z</time>
      </trkpt>
      <trkpt lat="47.25018" lon="-2.31342">
        <ele>81</ele>
        <time>2011-04-24T15:10:34Z</time>
      </trkpt>
      <trkpt lat="47.25016" lon="-2.31331">
        <ele>82</ele>
        <time>2011-04-24T15:10:36Z</time>
      </trkpt>
      <trkpt lat="47.25015" lon="-2.3132">
        <ele>82</ele>
        <time>2011-04-24T15:10:38Z</time>
      </trkpt>
      <trkpt lat="47.25014" lon="-2.31309">
        <ele>82</ele>
        <time>2011-04-24T15:10:40Z</time>
      </trkpt>
      <trkpt lat="47.25014" lon="-2.31299">
        <ele>83</ele>
        <time>2011-04-24T15:10:42Z</time>
      </trkpt>
      <trkpt lat="47.25014" lon="-2.31288">
        <ele>83</ele>
        <time>2011-04-24T15:10:44Z</time>
      </trkpt>
      <trkpt lat="47.25015" lon="-2.31277">
        <ele>83</ele>
        <time>2011-04-24T15:10:46Z</time>
      </trkpt>
      <trkpt lat="47.25015" lon="-2.31266">
        <ele>83</ele>
        <time>2011-04-24T15:10:48Z</time>
      </trkpt>
      <trkpt lat="47.25016" lon="-2.31255">
        <ele>83</ele>
        <time>2011-04-24T15:10:50Z</time>
      </trkpt>
      <trkpt lat="47.25017" lon="-2.31244">
        <ele>83</ele>
        <time>2011-04-24T15:10:52Z</time>
      </trkpt>
      <trkpt lat="47.25019" lon="-2.31234">
        <ele>84</ele>
        <time>2011-04-24T15:10:54Z</time>
      </trkpt>
      <trkpt lat="47.2502" lon="-2.31223">
        <ele>84</ele>
        <time>2011-04-24T15:10:56Z</time>
      </trkpt>
      <trkpt lat="47.25022" lon="-2.31214">
        <ele>85</ele>
        <time>2011-04-24T15:10:58Z</time>
      </trkpt>
      <trkpt lat="47.25023" lon="-2.31202">
        <ele>84</ele>
        <time>2011-04-24T15:11:00Z</time>
      </trkpt>
      <trkpt lat="47.25023" lon="-2.3119">
        <ele>85</ele>
        <time>2011-04-24T15:11:02Z</time>
      </trkpt>
      <trkpt lat="47.25023" lon="-2.31179">
        <ele>85</ele>
        <time>2011-04-24T15:11:04Z</time>
      </trkpt>
      <trkpt lat="47.25022" lon="-2.31167">
        <ele>85</ele>
        <time>2011-04-24T15:11:06Z</time>
      </trkpt>
      <trkpt lat="47.25022" lon="-2.31155">
        <ele>85</ele>
        <time>2011-04-24T15:11:08Z</time>
      </trkpt>
      <trkpt lat="47.2502" lon="-2.31143">
        <ele>85</ele>
        <time>2011-04-24T15:11:10Z</time>
      </trkpt>
      <trkpt lat="47.25018" lon="-2.31132">
        <ele>85</ele>
        <time>2011-04-24T15:11:12Z</time>
      </trkpt>
      <trkpt lat="47.25016" lon="-2.3112">
        <ele>85</ele>
        <time>2011-04-24T15:11:14Z</time>
      </trkpt>
      <trkpt lat="47.25014" lon="-2.31109">
        <ele>85</ele>
        <time>2011-04-24T15:11:16Z</time>
      </trkpt>
      <trkpt lat="47.25011" lon="-2.31097">
        <ele>84</ele>
        <time>2011-04-24T15:11:18Z</time>
      </trkpt>
      <trkpt lat="47.25008" lon="-2.31085">
        <ele>84</ele>
        <time>2011-04-24T15:11:20Z</time>
      </trkpt>
      <trkpt lat="47.25006" lon="-2.31074">
        <ele>84</ele>
        <time>2011-04-24T15:11:22Z</time>
      </trkpt>
      <trkpt lat="47.25002" lon="-2.31063">
        <ele>83</ele>
        <time>2011-04-24T15:11:24Z</time>
      </trkpt>
      <trkpt lat="47.25" lon="-2.31051">
        <ele>83</ele>
        <time>2011-04-24T15:11:26Z</time>
      </trkpt>
      <trkpt lat="47.24997" lon="-2.3104">
        <ele>83</ele>
        <time>2011-04-24T15:11:28Z</time>
      </trkpt>
      <trkpt lat="47.24994" lon="-2.31029">
        <ele>82</ele>
        <time>2011-04-24T15:11:30Z</time>
      </trkpt>
      <trkpt lat="47.24992" lon="-2.31018">
        <ele>82</ele>
        <time>2011-04-24T15:11:32Z</time>
      </trkpt>
      <trkpt lat="47.24989" lon="-2.31006">
        <ele>82</ele>
        <time>2011-04-24T15:11:34Z</time>
      </trkpt>
      <trkpt lat="47.24986" lon="-2.30994">
        <ele>82</ele>
        <time>2011-04-24T15:11:36Z</time>
      </trkpt>
      <trkpt lat="47.24983" lon="-2.30983">
        <ele>82</ele>
        <time>2011-04-24T15:11:38Z</time>
      </trkpt>
      <trkpt lat="47.2498" lon="-2.30971">
        <ele>82</ele>
        <time>2011-04-24T15:11:40Z</time>
      </trkpt>
      <trkpt lat="47.24977" lon="-2.30961">
        <ele>81</ele>
        <time>2011-04-24T15:11:42Z</time>
      </trkpt>
      <trkpt lat="47.24974" lon="-2.30949">
        <ele>82</ele>
        <time>2011-04-24T15:11:44Z</time>
      </trkpt>
      <trkpt lat="47.24973" lon="-2.30938">
        <ele>82</ele>
        <time>2011-04-24T15:11:46Z</time>
      </trkpt>
      <trkpt lat="47.24972" lon="-2.30926">
        <ele>82</ele>
        <time>2011-04-24T15:11:48Z</time>
      </trkpt>
      <trkpt lat="47.24969" lon="-2.30916">
        <ele>82</ele>
        <time>2011-04-24T15:11:50Z</time>
      </trkpt>
      <trkpt lat="47.24968" lon="-2.30905">
        <ele>82</ele>
        <time>2011-04-24T15:11:52Z</time>
      </trkpt>
      <trkpt lat="47.2497" lon="-2.30896">
        <ele>83</ele>
        <time>2011-04-24T15:11:54Z</time>
      </trkpt>
      <trkpt lat="47.24974" lon="-2.3089">
        <ele>83</ele>
        <time>2011-04-24T15:11:56Z</time>
      </trkpt>
      <trkpt lat="47.2498" lon="-2.30886">
        <ele>82</ele>
        <time>2011-04-24T15:11:58Z</time>
      </trkpt>
      <trkpt lat="47.24985" lon="-2.30883">
        <ele>81</ele>
        <time>2011-04-24T15:12:00Z</time>
      </trkpt>
      <trkpt lat="47.24991" lon="-2.3088">
        <ele>81</ele>
        <time>2011-04-24T15:12:02Z</time>
      </trkpt>
      <trkpt lat="47.24997" lon="-2.30877">
        <ele>82</ele>
        <time>2011-04-24T15:12:04Z</time>
      </trkpt>
      <trkpt lat="47.25002" lon="-2.30873">
        <ele>82</ele>
        <time>2011-04-24T15:12:06Z</time>
      </trkpt>
      <trkpt lat="47.25008" lon="-2.3087">
        <ele>82</ele>
        <time>2011-04-24T15:12:08Z</time>
      </trkpt>
      <trkpt lat="47.25013" lon="-2.30866">
        <ele>81</ele>
        <time>2011-04-24T15:12:10Z</time>
      </trkpt>
      <trkpt lat="47.25018" lon="-2.30863">
        <ele>82</ele>
        <time>2011-04-24T15:12:12Z</time>
      </trkpt>
      <trkpt lat="47.25023" lon="-2.30865">
        <ele>81</ele>
        <time>2011-04-24T15:12:16Z</time>
      </trkpt>
      <trkpt lat="47.25018" lon="-2.30868">
        <ele>79</ele>
        <time>2011-04-24T15:12:23Z</time>
      </trkpt>
      <trkpt lat="47.25018" lon="-2.30868">
        <ele>79</ele>
        <time>2011-04-24T15:12:23Z</time>
      </trkpt>
      <trkpt lat="47.25018" lon="-2.30868">
        <ele>80</ele>
        <time>2011-04-24T15:12:25Z</time>
      </trkpt>
      <trkpt lat="47.25014" lon="-2.30871">
        <ele>81</ele>
        <time>2011-04-24T15:12:33Z</time>
      </trkpt>
      <trkpt lat="47.25014" lon="-2.30871">
        <ele>81</ele>
        <time>2011-04-24T15:12:33Z</time>
      </trkpt>
      <trkpt lat="47.25014" lon="-2.30871">
        <ele>81</ele>
        <time>2011-04-24T15:12:34Z</time>
      </trkpt>
      <trkpt lat="47.25016" lon="-2.30866">
        <ele>82</ele>
        <time>2011-04-24T15:13:23Z</time>
      </trkpt>
      <trkpt lat="47.25017" lon="-2.30873">
        <ele>83</ele>
        <time>2011-04-24T15:14:07Z</time>
      </trkpt>
      <trkpt lat="47.2502" lon="-2.30879">
        <ele>83</ele>
        <time>2011-04-24T15:14:11Z</time>
      </trkpt>
      <trkpt lat="47.25023" lon="-2.30885">
        <ele>81</ele>
        <time>2011-04-24T15:14:17Z</time>
      </trkpt>
      <trkpt lat="47.25024" lon="-2.30892">
        <ele>80</ele>
        <time>2011-04-24T15:14:30Z</time>
      </trkpt>
      <trkpt lat="47.25018" lon="-2.30892">
        <ele>72</ele>
        <time>2011-04-24T15:14:47Z</time>
      </trkpt>
      <trkpt lat="47.25018" lon="-2.30892">
        <ele>72</ele>
        <time>2011-04-24T15:14:47Z</time>
      </trkpt>
      <trkpt lat="47.25018" lon="-2.30892">
        <ele>73</ele>
        <time>2011-04-24T15:14:50Z</time>
      </trkpt>
      <trkpt lat="47.25024" lon="-2.30892">
        <ele>76</ele>
        <time>2011-04-24T15:15:06Z</time>
      </trkpt>
      <trkpt lat="47.25024" lon="-2.30892">
        <ele>76</ele>
        <time>2011-04-24T15:15:06Z</time>
      </trkpt>
      <trkpt lat="47.25024" lon="-2.30892">
        <ele>77</ele>
        <time>2011-04-24T15:16:09Z</time>
      </trkpt>
      <trkpt lat="47.25027" lon="-2.30886">
        <ele>78</ele>
        <time>2011-04-24T15:16:32Z</time>
      </trkpt>
    </trkseg>
  </trk>
</gpx>